<?xml version="1.0" encoding="UTF-8"?>
<gpx xmlns="http://www.topografix.com/GPX/1/1"
     creator="GpsDumpMac 0.29"
     version="1.1"
     xmlns:xsi="http://www.w3.org/2001/XMLSchema-instance"
     xsi:schemaLocation="http://www.topografix.com/GPX/1/1 http://www.topografix.com/GPX/1/1/gpx.xsd">
  <metadata>
    <link href="http://www.gethome.no/stein.sorensen/">
      <text>GPS dump for www.flightlog.org</text>
    </link>
    <time>2015-08-12T16:38:09Z</time>
    <bounds minlat="40.238633" minlon="-4.920450" maxlat="40.336200" maxlon="-4.570367"/>
  </metadata>
  <trk>
    <name>Track 001</name>
    <trkseg>
      <trkpt lat="40.256350" lon="-4.905983">
        <ele>1254.0</ele>
        <time>2015-08-02T11:27:45Z</time>
      </trkpt>
      <trkpt lat="40.256300" lon="-4.906033">
        <ele>1255.0</ele>
        <time>2015-08-02T11:27:46Z</time>
      </trkpt>
      <trkpt lat="40.256250" lon="-4.906083">
        <ele>1255.0</ele>
        <time>2015-08-02T11:27:47Z</time>
      </trkpt>
      <trkpt lat="40.256200" lon="-4.906150">
        <ele>1256.0</ele>
        <time>2015-08-02T11:27:48Z</time>
      </trkpt>
      <trkpt lat="40.256167" lon="-4.906217">
        <ele>1257.0</ele>
        <time>2015-08-02T11:27:49Z</time>
      </trkpt>
      <trkpt lat="40.256117" lon="-4.906283">
        <ele>1257.0</ele>
        <time>2015-08-02T11:27:50Z</time>
      </trkpt>
      <trkpt lat="40.256083" lon="-4.906367">
        <ele>1256.0</ele>
        <time>2015-08-02T11:27:51Z</time>
      </trkpt>
      <trkpt lat="40.256067" lon="-4.906450">
        <ele>1254.0</ele>
        <time>2015-08-02T11:27:52Z</time>
      </trkpt>
      <trkpt lat="40.256033" lon="-4.906550">
        <ele>1252.0</ele>
        <time>2015-08-02T11:27:53Z</time>
      </trkpt>
      <trkpt lat="40.256033" lon="-4.906650">
        <ele>1251.0</ele>
        <time>2015-08-02T11:27:54Z</time>
      </trkpt>
      <trkpt lat="40.256033" lon="-4.906750">
        <ele>1252.0</ele>
        <time>2015-08-02T11:27:55Z</time>
      </trkpt>
      <trkpt lat="40.256033" lon="-4.906867">
        <ele>1254.0</ele>
        <time>2015-08-02T11:27:56Z</time>
      </trkpt>
      <trkpt lat="40.256067" lon="-4.906983">
        <ele>1255.0</ele>
        <time>2015-08-02T11:27:57Z</time>
      </trkpt>
      <trkpt lat="40.256100" lon="-4.907083">
        <ele>1257.0</ele>
        <time>2015-08-02T11:27:58Z</time>
      </trkpt>
      <trkpt lat="40.256117" lon="-4.907183">
        <ele>1259.0</ele>
        <time>2015-08-02T11:27:59Z</time>
      </trkpt>
      <trkpt lat="40.256117" lon="-4.907250">
        <ele>1260.0</ele>
        <time>2015-08-02T11:28:00Z</time>
      </trkpt>
      <trkpt lat="40.256100" lon="-4.907317">
        <ele>1260.0</ele>
        <time>2015-08-02T11:28:01Z</time>
      </trkpt>
      <trkpt lat="40.256067" lon="-4.907400">
        <ele>1260.0</ele>
        <time>2015-08-02T11:28:02Z</time>
      </trkpt>
      <trkpt lat="40.256033" lon="-4.907483">
        <ele>1261.0</ele>
        <time>2015-08-02T11:28:03Z</time>
      </trkpt>
      <trkpt lat="40.256000" lon="-4.907567">
        <ele>1261.0</ele>
        <time>2015-08-02T11:28:04Z</time>
      </trkpt>
      <trkpt lat="40.255983" lon="-4.907650">
        <ele>1262.0</ele>
        <time>2015-08-02T11:28:05Z</time>
      </trkpt>
      <trkpt lat="40.255967" lon="-4.907733">
        <ele>1262.0</ele>
        <time>2015-08-02T11:28:06Z</time>
      </trkpt>
      <trkpt lat="40.255950" lon="-4.907817">
        <ele>1261.0</ele>
        <time>2015-08-02T11:28:07Z</time>
      </trkpt>
      <trkpt lat="40.255917" lon="-4.907917">
        <ele>1261.0</ele>
        <time>2015-08-02T11:28:08Z</time>
      </trkpt>
      <trkpt lat="40.255917" lon="-4.908033">
        <ele>1261.0</ele>
        <time>2015-08-02T11:28:09Z</time>
      </trkpt>
      <trkpt lat="40.255883" lon="-4.908133">
        <ele>1261.0</ele>
        <time>2015-08-02T11:28:10Z</time>
      </trkpt>
      <trkpt lat="40.255867" lon="-4.908217">
        <ele>1261.0</ele>
        <time>2015-08-02T11:28:11Z</time>
      </trkpt>
      <trkpt lat="40.255850" lon="-4.908300">
        <ele>1260.0</ele>
        <time>2015-08-02T11:28:12Z</time>
      </trkpt>
      <trkpt lat="40.255833" lon="-4.908400">
        <ele>1258.0</ele>
        <time>2015-08-02T11:28:13Z</time>
      </trkpt>
      <trkpt lat="40.255817" lon="-4.908500">
        <ele>1257.0</ele>
        <time>2015-08-02T11:28:14Z</time>
      </trkpt>
      <trkpt lat="40.255800" lon="-4.908617">
        <ele>1255.0</ele>
        <time>2015-08-02T11:28:15Z</time>
      </trkpt>
      <trkpt lat="40.255783" lon="-4.908733">
        <ele>1254.0</ele>
        <time>2015-08-02T11:28:16Z</time>
      </trkpt>
      <trkpt lat="40.255767" lon="-4.908850">
        <ele>1254.0</ele>
        <time>2015-08-02T11:28:17Z</time>
      </trkpt>
      <trkpt lat="40.255767" lon="-4.908967">
        <ele>1254.0</ele>
        <time>2015-08-02T11:28:18Z</time>
      </trkpt>
      <trkpt lat="40.255750" lon="-4.909083">
        <ele>1253.0</ele>
        <time>2015-08-02T11:28:19Z</time>
      </trkpt>
      <trkpt lat="40.255750" lon="-4.909183">
        <ele>1252.0</ele>
        <time>2015-08-02T11:28:20Z</time>
      </trkpt>
      <trkpt lat="40.255733" lon="-4.909283">
        <ele>1250.0</ele>
        <time>2015-08-02T11:28:21Z</time>
      </trkpt>
      <trkpt lat="40.255717" lon="-4.909383">
        <ele>1248.0</ele>
        <time>2015-08-02T11:28:22Z</time>
      </trkpt>
      <trkpt lat="40.255683" lon="-4.909500">
        <ele>1246.0</ele>
        <time>2015-08-02T11:28:23Z</time>
      </trkpt>
      <trkpt lat="40.255667" lon="-4.909633">
        <ele>1244.0</ele>
        <time>2015-08-02T11:28:24Z</time>
      </trkpt>
      <trkpt lat="40.255650" lon="-4.909750">
        <ele>1243.0</ele>
        <time>2015-08-02T11:28:25Z</time>
      </trkpt>
      <trkpt lat="40.255617" lon="-4.909850">
        <ele>1243.0</ele>
        <time>2015-08-02T11:28:26Z</time>
      </trkpt>
      <trkpt lat="40.255583" lon="-4.909950">
        <ele>1243.0</ele>
        <time>2015-08-02T11:28:27Z</time>
      </trkpt>
      <trkpt lat="40.255550" lon="-4.910033">
        <ele>1242.0</ele>
        <time>2015-08-02T11:28:28Z</time>
      </trkpt>
      <trkpt lat="40.255517" lon="-4.910133">
        <ele>1240.0</ele>
        <time>2015-08-02T11:28:29Z</time>
      </trkpt>
      <trkpt lat="40.255483" lon="-4.910233">
        <ele>1239.0</ele>
        <time>2015-08-02T11:28:30Z</time>
      </trkpt>
      <trkpt lat="40.255433" lon="-4.910317">
        <ele>1237.0</ele>
        <time>2015-08-02T11:28:31Z</time>
      </trkpt>
      <trkpt lat="40.255383" lon="-4.910417">
        <ele>1236.0</ele>
        <time>2015-08-02T11:28:32Z</time>
      </trkpt>
      <trkpt lat="40.255333" lon="-4.910500">
        <ele>1235.0</ele>
        <time>2015-08-02T11:28:33Z</time>
      </trkpt>
      <trkpt lat="40.255283" lon="-4.910617">
        <ele>1235.0</ele>
        <time>2015-08-02T11:28:34Z</time>
      </trkpt>
      <trkpt lat="40.255233" lon="-4.910717">
        <ele>1237.0</ele>
        <time>2015-08-02T11:28:35Z</time>
      </trkpt>
      <trkpt lat="40.255200" lon="-4.910800">
        <ele>1238.0</ele>
        <time>2015-08-02T11:28:36Z</time>
      </trkpt>
      <trkpt lat="40.255150" lon="-4.910883">
        <ele>1239.0</ele>
        <time>2015-08-02T11:28:37Z</time>
      </trkpt>
      <trkpt lat="40.255100" lon="-4.910933">
        <ele>1239.0</ele>
        <time>2015-08-02T11:28:38Z</time>
      </trkpt>
      <trkpt lat="40.255050" lon="-4.910967">
        <ele>1238.0</ele>
        <time>2015-08-02T11:28:39Z</time>
      </trkpt>
      <trkpt lat="40.255000" lon="-4.911000">
        <ele>1237.0</ele>
        <time>2015-08-02T11:28:40Z</time>
      </trkpt>
      <trkpt lat="40.254933" lon="-4.911050">
        <ele>1235.0</ele>
        <time>2015-08-02T11:28:41Z</time>
      </trkpt>
      <trkpt lat="40.254867" lon="-4.911117">
        <ele>1233.0</ele>
        <time>2015-08-02T11:28:42Z</time>
      </trkpt>
      <trkpt lat="40.254800" lon="-4.911200">
        <ele>1232.0</ele>
        <time>2015-08-02T11:28:43Z</time>
      </trkpt>
      <trkpt lat="40.254750" lon="-4.911300">
        <ele>1230.0</ele>
        <time>2015-08-02T11:28:44Z</time>
      </trkpt>
      <trkpt lat="40.254700" lon="-4.911400">
        <ele>1229.0</ele>
        <time>2015-08-02T11:28:45Z</time>
      </trkpt>
      <trkpt lat="40.254633" lon="-4.911483">
        <ele>1228.0</ele>
        <time>2015-08-02T11:28:46Z</time>
      </trkpt>
      <trkpt lat="40.254583" lon="-4.911567">
        <ele>1227.0</ele>
        <time>2015-08-02T11:28:47Z</time>
      </trkpt>
      <trkpt lat="40.254533" lon="-4.911683">
        <ele>1225.0</ele>
        <time>2015-08-02T11:28:48Z</time>
      </trkpt>
      <trkpt lat="40.254483" lon="-4.911800">
        <ele>1223.0</ele>
        <time>2015-08-02T11:28:49Z</time>
      </trkpt>
      <trkpt lat="40.254450" lon="-4.911950">
        <ele>1222.0</ele>
        <time>2015-08-02T11:28:50Z</time>
      </trkpt>
      <trkpt lat="40.254383" lon="-4.912067">
        <ele>1222.0</ele>
        <time>2015-08-02T11:28:51Z</time>
      </trkpt>
      <trkpt lat="40.254317" lon="-4.912133">
        <ele>1222.0</ele>
        <time>2015-08-02T11:28:52Z</time>
      </trkpt>
      <trkpt lat="40.254250" lon="-4.912150">
        <ele>1222.0</ele>
        <time>2015-08-02T11:28:53Z</time>
      </trkpt>
      <trkpt lat="40.254200" lon="-4.912183">
        <ele>1221.0</ele>
        <time>2015-08-02T11:28:54Z</time>
      </trkpt>
      <trkpt lat="40.254133" lon="-4.912233">
        <ele>1220.0</ele>
        <time>2015-08-02T11:28:55Z</time>
      </trkpt>
      <trkpt lat="40.254100" lon="-4.912317">
        <ele>1217.0</ele>
        <time>2015-08-02T11:28:56Z</time>
      </trkpt>
      <trkpt lat="40.254067" lon="-4.912417">
        <ele>1215.0</ele>
        <time>2015-08-02T11:28:57Z</time>
      </trkpt>
      <trkpt lat="40.254017" lon="-4.912517">
        <ele>1213.0</ele>
        <time>2015-08-02T11:28:58Z</time>
      </trkpt>
      <trkpt lat="40.253967" lon="-4.912600">
        <ele>1212.0</ele>
        <time>2015-08-02T11:28:59Z</time>
      </trkpt>
      <trkpt lat="40.253917" lon="-4.912683">
        <ele>1210.0</ele>
        <time>2015-08-02T11:29:00Z</time>
      </trkpt>
      <trkpt lat="40.253867" lon="-4.912750">
        <ele>1208.0</ele>
        <time>2015-08-02T11:29:01Z</time>
      </trkpt>
      <trkpt lat="40.253833" lon="-4.912817">
        <ele>1206.0</ele>
        <time>2015-08-02T11:29:02Z</time>
      </trkpt>
      <trkpt lat="40.253783" lon="-4.912900">
        <ele>1203.0</ele>
        <time>2015-08-02T11:29:03Z</time>
      </trkpt>
      <trkpt lat="40.253733" lon="-4.913000">
        <ele>1200.0</ele>
        <time>2015-08-02T11:29:04Z</time>
      </trkpt>
      <trkpt lat="40.253650" lon="-4.913050">
        <ele>1199.0</ele>
        <time>2015-08-02T11:29:05Z</time>
      </trkpt>
      <trkpt lat="40.253583" lon="-4.913067">
        <ele>1198.0</ele>
        <time>2015-08-02T11:29:06Z</time>
      </trkpt>
      <trkpt lat="40.253517" lon="-4.913050">
        <ele>1197.0</ele>
        <time>2015-08-02T11:29:07Z</time>
      </trkpt>
      <trkpt lat="40.253450" lon="-4.913050">
        <ele>1197.0</ele>
        <time>2015-08-02T11:29:08Z</time>
      </trkpt>
      <trkpt lat="40.253400" lon="-4.913100">
        <ele>1195.0</ele>
        <time>2015-08-02T11:29:09Z</time>
      </trkpt>
      <trkpt lat="40.253367" lon="-4.913167">
        <ele>1193.0</ele>
        <time>2015-08-02T11:29:10Z</time>
      </trkpt>
      <trkpt lat="40.253317" lon="-4.913267">
        <ele>1190.0</ele>
        <time>2015-08-02T11:29:11Z</time>
      </trkpt>
      <trkpt lat="40.253250" lon="-4.913350">
        <ele>1187.0</ele>
        <time>2015-08-02T11:29:12Z</time>
      </trkpt>
      <trkpt lat="40.253183" lon="-4.913417">
        <ele>1184.0</ele>
        <time>2015-08-02T11:29:13Z</time>
      </trkpt>
      <trkpt lat="40.253117" lon="-4.913467">
        <ele>1181.0</ele>
        <time>2015-08-02T11:29:14Z</time>
      </trkpt>
      <trkpt lat="40.253050" lon="-4.913533">
        <ele>1178.0</ele>
        <time>2015-08-02T11:29:15Z</time>
      </trkpt>
      <trkpt lat="40.253000" lon="-4.913633">
        <ele>1175.0</ele>
        <time>2015-08-02T11:29:16Z</time>
      </trkpt>
      <trkpt lat="40.252950" lon="-4.913733">
        <ele>1171.0</ele>
        <time>2015-08-02T11:29:17Z</time>
      </trkpt>
      <trkpt lat="40.252900" lon="-4.913850">
        <ele>1169.0</ele>
        <time>2015-08-02T11:29:18Z</time>
      </trkpt>
      <trkpt lat="40.252833" lon="-4.913950">
        <ele>1168.0</ele>
        <time>2015-08-02T11:29:19Z</time>
      </trkpt>
      <trkpt lat="40.252783" lon="-4.914067">
        <ele>1166.0</ele>
        <time>2015-08-02T11:29:20Z</time>
      </trkpt>
      <trkpt lat="40.252733" lon="-4.914167">
        <ele>1165.0</ele>
        <time>2015-08-02T11:29:21Z</time>
      </trkpt>
      <trkpt lat="40.252683" lon="-4.914267">
        <ele>1164.0</ele>
        <time>2015-08-02T11:29:22Z</time>
      </trkpt>
      <trkpt lat="40.252633" lon="-4.914350">
        <ele>1163.0</ele>
        <time>2015-08-02T11:29:23Z</time>
      </trkpt>
      <trkpt lat="40.252567" lon="-4.914433">
        <ele>1162.0</ele>
        <time>2015-08-02T11:29:24Z</time>
      </trkpt>
      <trkpt lat="40.252517" lon="-4.914517">
        <ele>1161.0</ele>
        <time>2015-08-02T11:29:25Z</time>
      </trkpt>
      <trkpt lat="40.252467" lon="-4.914617">
        <ele>1159.0</ele>
        <time>2015-08-02T11:29:26Z</time>
      </trkpt>
      <trkpt lat="40.252417" lon="-4.914700">
        <ele>1158.0</ele>
        <time>2015-08-02T11:29:27Z</time>
      </trkpt>
      <trkpt lat="40.252367" lon="-4.914800">
        <ele>1156.0</ele>
        <time>2015-08-02T11:29:28Z</time>
      </trkpt>
      <trkpt lat="40.252317" lon="-4.914883">
        <ele>1155.0</ele>
        <time>2015-08-02T11:29:29Z</time>
      </trkpt>
      <trkpt lat="40.252267" lon="-4.914950">
        <ele>1153.0</ele>
        <time>2015-08-02T11:29:30Z</time>
      </trkpt>
      <trkpt lat="40.252200" lon="-4.915017">
        <ele>1151.0</ele>
        <time>2015-08-02T11:29:31Z</time>
      </trkpt>
      <trkpt lat="40.252133" lon="-4.915083">
        <ele>1148.0</ele>
        <time>2015-08-02T11:29:32Z</time>
      </trkpt>
      <trkpt lat="40.252083" lon="-4.915167">
        <ele>1147.0</ele>
        <time>2015-08-02T11:29:33Z</time>
      </trkpt>
      <trkpt lat="40.252017" lon="-4.915233">
        <ele>1145.0</ele>
        <time>2015-08-02T11:29:34Z</time>
      </trkpt>
      <trkpt lat="40.251950" lon="-4.915283">
        <ele>1144.0</ele>
        <time>2015-08-02T11:29:35Z</time>
      </trkpt>
      <trkpt lat="40.251883" lon="-4.915333">
        <ele>1143.0</ele>
        <time>2015-08-02T11:29:36Z</time>
      </trkpt>
      <trkpt lat="40.251800" lon="-4.915383">
        <ele>1142.0</ele>
        <time>2015-08-02T11:29:37Z</time>
      </trkpt>
      <trkpt lat="40.251733" lon="-4.915417">
        <ele>1141.0</ele>
        <time>2015-08-02T11:29:38Z</time>
      </trkpt>
      <trkpt lat="40.251667" lon="-4.915450">
        <ele>1141.0</ele>
        <time>2015-08-02T11:29:39Z</time>
      </trkpt>
      <trkpt lat="40.251600" lon="-4.915483">
        <ele>1140.0</ele>
        <time>2015-08-02T11:29:40Z</time>
      </trkpt>
      <trkpt lat="40.251517" lon="-4.915500">
        <ele>1140.0</ele>
        <time>2015-08-02T11:29:41Z</time>
      </trkpt>
      <trkpt lat="40.251450" lon="-4.915533">
        <ele>1140.0</ele>
        <time>2015-08-02T11:29:42Z</time>
      </trkpt>
      <trkpt lat="40.251383" lon="-4.915600">
        <ele>1139.0</ele>
        <time>2015-08-02T11:29:43Z</time>
      </trkpt>
      <trkpt lat="40.251317" lon="-4.915683">
        <ele>1139.0</ele>
        <time>2015-08-02T11:29:44Z</time>
      </trkpt>
      <trkpt lat="40.251250" lon="-4.915767">
        <ele>1140.0</ele>
        <time>2015-08-02T11:29:45Z</time>
      </trkpt>
      <trkpt lat="40.251200" lon="-4.915833">
        <ele>1140.0</ele>
        <time>2015-08-02T11:29:46Z</time>
      </trkpt>
      <trkpt lat="40.251150" lon="-4.915900">
        <ele>1139.0</ele>
        <time>2015-08-02T11:29:47Z</time>
      </trkpt>
      <trkpt lat="40.251100" lon="-4.915967">
        <ele>1137.0</ele>
        <time>2015-08-02T11:29:48Z</time>
      </trkpt>
      <trkpt lat="40.251050" lon="-4.916033">
        <ele>1135.0</ele>
        <time>2015-08-02T11:29:49Z</time>
      </trkpt>
      <trkpt lat="40.251000" lon="-4.916117">
        <ele>1132.0</ele>
        <time>2015-08-02T11:29:50Z</time>
      </trkpt>
      <trkpt lat="40.250917" lon="-4.916200">
        <ele>1129.0</ele>
        <time>2015-08-02T11:29:51Z</time>
      </trkpt>
      <trkpt lat="40.250833" lon="-4.916283">
        <ele>1128.0</ele>
        <time>2015-08-02T11:29:52Z</time>
      </trkpt>
      <trkpt lat="40.250767" lon="-4.916367">
        <ele>1128.0</ele>
        <time>2015-08-02T11:29:53Z</time>
      </trkpt>
      <trkpt lat="40.250700" lon="-4.916450">
        <ele>1129.0</ele>
        <time>2015-08-02T11:29:54Z</time>
      </trkpt>
      <trkpt lat="40.250633" lon="-4.916517">
        <ele>1129.0</ele>
        <time>2015-08-02T11:29:55Z</time>
      </trkpt>
      <trkpt lat="40.250567" lon="-4.916583">
        <ele>1130.0</ele>
        <time>2015-08-02T11:29:56Z</time>
      </trkpt>
      <trkpt lat="40.250500" lon="-4.916667">
        <ele>1129.0</ele>
        <time>2015-08-02T11:29:57Z</time>
      </trkpt>
      <trkpt lat="40.250433" lon="-4.916733">
        <ele>1129.0</ele>
        <time>2015-08-02T11:29:58Z</time>
      </trkpt>
      <trkpt lat="40.250350" lon="-4.916817">
        <ele>1129.0</ele>
        <time>2015-08-02T11:29:59Z</time>
      </trkpt>
      <trkpt lat="40.250283" lon="-4.916900">
        <ele>1128.0</ele>
        <time>2015-08-02T11:30:00Z</time>
      </trkpt>
      <trkpt lat="40.250233" lon="-4.917000">
        <ele>1128.0</ele>
        <time>2015-08-02T11:30:01Z</time>
      </trkpt>
      <trkpt lat="40.250183" lon="-4.917100">
        <ele>1129.0</ele>
        <time>2015-08-02T11:30:02Z</time>
      </trkpt>
      <trkpt lat="40.250133" lon="-4.917200">
        <ele>1130.0</ele>
        <time>2015-08-02T11:30:03Z</time>
      </trkpt>
      <trkpt lat="40.250067" lon="-4.917283">
        <ele>1130.0</ele>
        <time>2015-08-02T11:30:04Z</time>
      </trkpt>
      <trkpt lat="40.250017" lon="-4.917350">
        <ele>1131.0</ele>
        <time>2015-08-02T11:30:05Z</time>
      </trkpt>
      <trkpt lat="40.249950" lon="-4.917433">
        <ele>1132.0</ele>
        <time>2015-08-02T11:30:06Z</time>
      </trkpt>
      <trkpt lat="40.249900" lon="-4.917517">
        <ele>1133.0</ele>
        <time>2015-08-02T11:30:07Z</time>
      </trkpt>
      <trkpt lat="40.249867" lon="-4.917617">
        <ele>1133.0</ele>
        <time>2015-08-02T11:30:08Z</time>
      </trkpt>
      <trkpt lat="40.249850" lon="-4.917717">
        <ele>1133.0</ele>
        <time>2015-08-02T11:30:09Z</time>
      </trkpt>
      <trkpt lat="40.249833" lon="-4.917817">
        <ele>1132.0</ele>
        <time>2015-08-02T11:30:10Z</time>
      </trkpt>
      <trkpt lat="40.249800" lon="-4.917900">
        <ele>1132.0</ele>
        <time>2015-08-02T11:30:11Z</time>
      </trkpt>
      <trkpt lat="40.249750" lon="-4.917983">
        <ele>1131.0</ele>
        <time>2015-08-02T11:30:12Z</time>
      </trkpt>
      <trkpt lat="40.249683" lon="-4.918050">
        <ele>1129.0</ele>
        <time>2015-08-02T11:30:13Z</time>
      </trkpt>
      <trkpt lat="40.249617" lon="-4.918100">
        <ele>1128.0</ele>
        <time>2015-08-02T11:30:14Z</time>
      </trkpt>
      <trkpt lat="40.249550" lon="-4.918167">
        <ele>1127.0</ele>
        <time>2015-08-02T11:30:15Z</time>
      </trkpt>
      <trkpt lat="40.249500" lon="-4.918250">
        <ele>1125.0</ele>
        <time>2015-08-02T11:30:16Z</time>
      </trkpt>
      <trkpt lat="40.249433" lon="-4.918333">
        <ele>1124.0</ele>
        <time>2015-08-02T11:30:17Z</time>
      </trkpt>
      <trkpt lat="40.249383" lon="-4.918433">
        <ele>1122.0</ele>
        <time>2015-08-02T11:30:18Z</time>
      </trkpt>
      <trkpt lat="40.249333" lon="-4.918500">
        <ele>1120.0</ele>
        <time>2015-08-02T11:30:19Z</time>
      </trkpt>
      <trkpt lat="40.249267" lon="-4.918567">
        <ele>1119.0</ele>
        <time>2015-08-02T11:30:20Z</time>
      </trkpt>
      <trkpt lat="40.249183" lon="-4.918633">
        <ele>1118.0</ele>
        <time>2015-08-02T11:30:21Z</time>
      </trkpt>
      <trkpt lat="40.249117" lon="-4.918683">
        <ele>1118.0</ele>
        <time>2015-08-02T11:30:22Z</time>
      </trkpt>
      <trkpt lat="40.249050" lon="-4.918750">
        <ele>1118.0</ele>
        <time>2015-08-02T11:30:23Z</time>
      </trkpt>
      <trkpt lat="40.249000" lon="-4.918800">
        <ele>1117.0</ele>
        <time>2015-08-02T11:30:24Z</time>
      </trkpt>
      <trkpt lat="40.248933" lon="-4.918850">
        <ele>1116.0</ele>
        <time>2015-08-02T11:30:25Z</time>
      </trkpt>
      <trkpt lat="40.248883" lon="-4.918900">
        <ele>1115.0</ele>
        <time>2015-08-02T11:30:26Z</time>
      </trkpt>
      <trkpt lat="40.248817" lon="-4.918950">
        <ele>1114.0</ele>
        <time>2015-08-02T11:30:27Z</time>
      </trkpt>
      <trkpt lat="40.248767" lon="-4.919000">
        <ele>1113.0</ele>
        <time>2015-08-02T11:30:28Z</time>
      </trkpt>
      <trkpt lat="40.248717" lon="-4.919017">
        <ele>1112.0</ele>
        <time>2015-08-02T11:30:29Z</time>
      </trkpt>
      <trkpt lat="40.248667" lon="-4.919017">
        <ele>1109.0</ele>
        <time>2015-08-02T11:30:30Z</time>
      </trkpt>
      <trkpt lat="40.248600" lon="-4.919033">
        <ele>1107.0</ele>
        <time>2015-08-02T11:30:31Z</time>
      </trkpt>
      <trkpt lat="40.248533" lon="-4.919033">
        <ele>1104.0</ele>
        <time>2015-08-02T11:30:32Z</time>
      </trkpt>
      <trkpt lat="40.248467" lon="-4.919033">
        <ele>1101.0</ele>
        <time>2015-08-02T11:30:33Z</time>
      </trkpt>
      <trkpt lat="40.248383" lon="-4.919017">
        <ele>1099.0</ele>
        <time>2015-08-02T11:30:34Z</time>
      </trkpt>
      <trkpt lat="40.248300" lon="-4.918983">
        <ele>1098.0</ele>
        <time>2015-08-02T11:30:35Z</time>
      </trkpt>
      <trkpt lat="40.248250" lon="-4.918933">
        <ele>1097.0</ele>
        <time>2015-08-02T11:30:36Z</time>
      </trkpt>
      <trkpt lat="40.248183" lon="-4.918900">
        <ele>1096.0</ele>
        <time>2015-08-02T11:30:37Z</time>
      </trkpt>
      <trkpt lat="40.248117" lon="-4.918883">
        <ele>1094.0</ele>
        <time>2015-08-02T11:30:38Z</time>
      </trkpt>
      <trkpt lat="40.248050" lon="-4.918867">
        <ele>1090.0</ele>
        <time>2015-08-02T11:30:39Z</time>
      </trkpt>
      <trkpt lat="40.247983" lon="-4.918867">
        <ele>1087.0</ele>
        <time>2015-08-02T11:30:40Z</time>
      </trkpt>
      <trkpt lat="40.247917" lon="-4.918850">
        <ele>1085.0</ele>
        <time>2015-08-02T11:30:41Z</time>
      </trkpt>
      <trkpt lat="40.247833" lon="-4.918833">
        <ele>1083.0</ele>
        <time>2015-08-02T11:30:42Z</time>
      </trkpt>
      <trkpt lat="40.247767" lon="-4.918833">
        <ele>1082.0</ele>
        <time>2015-08-02T11:30:43Z</time>
      </trkpt>
      <trkpt lat="40.247683" lon="-4.918800">
        <ele>1082.0</ele>
        <time>2015-08-02T11:30:44Z</time>
      </trkpt>
      <trkpt lat="40.247617" lon="-4.918767">
        <ele>1083.0</ele>
        <time>2015-08-02T11:30:45Z</time>
      </trkpt>
      <trkpt lat="40.247550" lon="-4.918733">
        <ele>1084.0</ele>
        <time>2015-08-02T11:30:46Z</time>
      </trkpt>
      <trkpt lat="40.247467" lon="-4.918717">
        <ele>1084.0</ele>
        <time>2015-08-02T11:30:47Z</time>
      </trkpt>
      <trkpt lat="40.247383" lon="-4.918750">
        <ele>1085.0</ele>
        <time>2015-08-02T11:30:48Z</time>
      </trkpt>
      <trkpt lat="40.247317" lon="-4.918817">
        <ele>1086.0</ele>
        <time>2015-08-02T11:30:49Z</time>
      </trkpt>
      <trkpt lat="40.247283" lon="-4.918900">
        <ele>1087.0</ele>
        <time>2015-08-02T11:30:50Z</time>
      </trkpt>
      <trkpt lat="40.247300" lon="-4.918983">
        <ele>1085.0</ele>
        <time>2015-08-02T11:30:51Z</time>
      </trkpt>
      <trkpt lat="40.247333" lon="-4.919067">
        <ele>1081.0</ele>
        <time>2015-08-02T11:30:52Z</time>
      </trkpt>
      <trkpt lat="40.247367" lon="-4.919150">
        <ele>1077.0</ele>
        <time>2015-08-02T11:30:53Z</time>
      </trkpt>
      <trkpt lat="40.247367" lon="-4.919233">
        <ele>1073.0</ele>
        <time>2015-08-02T11:30:54Z</time>
      </trkpt>
      <trkpt lat="40.247317" lon="-4.919317">
        <ele>1068.0</ele>
        <time>2015-08-02T11:30:55Z</time>
      </trkpt>
      <trkpt lat="40.247233" lon="-4.919367">
        <ele>1063.0</ele>
        <time>2015-08-02T11:30:56Z</time>
      </trkpt>
      <trkpt lat="40.247133" lon="-4.919383">
        <ele>1061.0</ele>
        <time>2015-08-02T11:30:57Z</time>
      </trkpt>
      <trkpt lat="40.247033" lon="-4.919367">
        <ele>1060.0</ele>
        <time>2015-08-02T11:30:58Z</time>
      </trkpt>
      <trkpt lat="40.246967" lon="-4.919333">
        <ele>1059.0</ele>
        <time>2015-08-02T11:30:59Z</time>
      </trkpt>
      <trkpt lat="40.246917" lon="-4.919317">
        <ele>1057.0</ele>
        <time>2015-08-02T11:31:00Z</time>
      </trkpt>
      <trkpt lat="40.246833" lon="-4.919283">
        <ele>1054.0</ele>
        <time>2015-08-02T11:31:01Z</time>
      </trkpt>
      <trkpt lat="40.246750" lon="-4.919283">
        <ele>1049.0</ele>
        <time>2015-08-02T11:31:02Z</time>
      </trkpt>
      <trkpt lat="40.246633" lon="-4.919267">
        <ele>1045.0</ele>
        <time>2015-08-02T11:31:03Z</time>
      </trkpt>
      <trkpt lat="40.246533" lon="-4.919250">
        <ele>1043.0</ele>
        <time>2015-08-02T11:31:04Z</time>
      </trkpt>
      <trkpt lat="40.246433" lon="-4.919233">
        <ele>1041.0</ele>
        <time>2015-08-02T11:31:05Z</time>
      </trkpt>
      <trkpt lat="40.246350" lon="-4.919200">
        <ele>1039.0</ele>
        <time>2015-08-02T11:31:06Z</time>
      </trkpt>
      <trkpt lat="40.246267" lon="-4.919133">
        <ele>1037.0</ele>
        <time>2015-08-02T11:31:07Z</time>
      </trkpt>
      <trkpt lat="40.246200" lon="-4.919067">
        <ele>1035.0</ele>
        <time>2015-08-02T11:31:08Z</time>
      </trkpt>
      <trkpt lat="40.246150" lon="-4.918983">
        <ele>1032.0</ele>
        <time>2015-08-02T11:31:09Z</time>
      </trkpt>
      <trkpt lat="40.246083" lon="-4.918883">
        <ele>1029.0</ele>
        <time>2015-08-02T11:31:10Z</time>
      </trkpt>
      <trkpt lat="40.246017" lon="-4.918783">
        <ele>1026.0</ele>
        <time>2015-08-02T11:31:11Z</time>
      </trkpt>
      <trkpt lat="40.245933" lon="-4.918683">
        <ele>1023.0</ele>
        <time>2015-08-02T11:31:12Z</time>
      </trkpt>
      <trkpt lat="40.245867" lon="-4.918583">
        <ele>1021.0</ele>
        <time>2015-08-02T11:31:13Z</time>
      </trkpt>
      <trkpt lat="40.245767" lon="-4.918500">
        <ele>1020.0</ele>
        <time>2015-08-02T11:31:14Z</time>
      </trkpt>
      <trkpt lat="40.245667" lon="-4.918417">
        <ele>1019.0</ele>
        <time>2015-08-02T11:31:15Z</time>
      </trkpt>
      <trkpt lat="40.245567" lon="-4.918367">
        <ele>1020.0</ele>
        <time>2015-08-02T11:31:16Z</time>
      </trkpt>
      <trkpt lat="40.245483" lon="-4.918333">
        <ele>1021.0</ele>
        <time>2015-08-02T11:31:17Z</time>
      </trkpt>
      <trkpt lat="40.245400" lon="-4.918300">
        <ele>1021.0</ele>
        <time>2015-08-02T11:31:18Z</time>
      </trkpt>
      <trkpt lat="40.245317" lon="-4.918283">
        <ele>1020.0</ele>
        <time>2015-08-02T11:31:19Z</time>
      </trkpt>
      <trkpt lat="40.245250" lon="-4.918283">
        <ele>1020.0</ele>
        <time>2015-08-02T11:31:20Z</time>
      </trkpt>
      <trkpt lat="40.245167" lon="-4.918300">
        <ele>1019.0</ele>
        <time>2015-08-02T11:31:21Z</time>
      </trkpt>
      <trkpt lat="40.245083" lon="-4.918333">
        <ele>1018.0</ele>
        <time>2015-08-02T11:31:22Z</time>
      </trkpt>
      <trkpt lat="40.245017" lon="-4.918383">
        <ele>1018.0</ele>
        <time>2015-08-02T11:31:23Z</time>
      </trkpt>
      <trkpt lat="40.244933" lon="-4.918417">
        <ele>1018.0</ele>
        <time>2015-08-02T11:31:24Z</time>
      </trkpt>
      <trkpt lat="40.244850" lon="-4.918450">
        <ele>1018.0</ele>
        <time>2015-08-02T11:31:25Z</time>
      </trkpt>
      <trkpt lat="40.244767" lon="-4.918483">
        <ele>1017.0</ele>
        <time>2015-08-02T11:31:26Z</time>
      </trkpt>
      <trkpt lat="40.244683" lon="-4.918517">
        <ele>1017.0</ele>
        <time>2015-08-02T11:31:27Z</time>
      </trkpt>
      <trkpt lat="40.244600" lon="-4.918533">
        <ele>1016.0</ele>
        <time>2015-08-02T11:31:28Z</time>
      </trkpt>
      <trkpt lat="40.244533" lon="-4.918567">
        <ele>1016.0</ele>
        <time>2015-08-02T11:31:29Z</time>
      </trkpt>
      <trkpt lat="40.244450" lon="-4.918567">
        <ele>1016.0</ele>
        <time>2015-08-02T11:31:30Z</time>
      </trkpt>
      <trkpt lat="40.244383" lon="-4.918583">
        <ele>1015.0</ele>
        <time>2015-08-02T11:31:31Z</time>
      </trkpt>
      <trkpt lat="40.244317" lon="-4.918583">
        <ele>1014.0</ele>
        <time>2015-08-02T11:31:32Z</time>
      </trkpt>
      <trkpt lat="40.244233" lon="-4.918600">
        <ele>1012.0</ele>
        <time>2015-08-02T11:31:33Z</time>
      </trkpt>
      <trkpt lat="40.244150" lon="-4.918617">
        <ele>1011.0</ele>
        <time>2015-08-02T11:31:34Z</time>
      </trkpt>
      <trkpt lat="40.244067" lon="-4.918633">
        <ele>1010.0</ele>
        <time>2015-08-02T11:31:35Z</time>
      </trkpt>
      <trkpt lat="40.243967" lon="-4.918633">
        <ele>1009.0</ele>
        <time>2015-08-02T11:31:36Z</time>
      </trkpt>
      <trkpt lat="40.243883" lon="-4.918633">
        <ele>1007.0</ele>
        <time>2015-08-02T11:31:37Z</time>
      </trkpt>
      <trkpt lat="40.243800" lon="-4.918617">
        <ele>1006.0</ele>
        <time>2015-08-02T11:31:38Z</time>
      </trkpt>
      <trkpt lat="40.243717" lon="-4.918600">
        <ele>1005.0</ele>
        <time>2015-08-02T11:31:39Z</time>
      </trkpt>
      <trkpt lat="40.243633" lon="-4.918583">
        <ele>1003.0</ele>
        <time>2015-08-02T11:31:40Z</time>
      </trkpt>
      <trkpt lat="40.243550" lon="-4.918550">
        <ele>1001.0</ele>
        <time>2015-08-02T11:31:41Z</time>
      </trkpt>
      <trkpt lat="40.243467" lon="-4.918517">
        <ele>999.0</ele>
        <time>2015-08-02T11:31:42Z</time>
      </trkpt>
      <trkpt lat="40.243367" lon="-4.918483">
        <ele>997.0</ele>
        <time>2015-08-02T11:31:43Z</time>
      </trkpt>
      <trkpt lat="40.243283" lon="-4.918417">
        <ele>995.0</ele>
        <time>2015-08-02T11:31:44Z</time>
      </trkpt>
      <trkpt lat="40.243183" lon="-4.918367">
        <ele>993.0</ele>
        <time>2015-08-02T11:31:45Z</time>
      </trkpt>
      <trkpt lat="40.243083" lon="-4.918300">
        <ele>992.0</ele>
        <time>2015-08-02T11:31:46Z</time>
      </trkpt>
      <trkpt lat="40.242983" lon="-4.918267">
        <ele>993.0</ele>
        <time>2015-08-02T11:31:47Z</time>
      </trkpt>
      <trkpt lat="40.242900" lon="-4.918233">
        <ele>993.0</ele>
        <time>2015-08-02T11:31:48Z</time>
      </trkpt>
      <trkpt lat="40.242817" lon="-4.918200">
        <ele>993.0</ele>
        <time>2015-08-02T11:31:49Z</time>
      </trkpt>
      <trkpt lat="40.242750" lon="-4.918167">
        <ele>992.0</ele>
        <time>2015-08-02T11:31:50Z</time>
      </trkpt>
      <trkpt lat="40.242683" lon="-4.918150">
        <ele>991.0</ele>
        <time>2015-08-02T11:31:51Z</time>
      </trkpt>
      <trkpt lat="40.242600" lon="-4.918150">
        <ele>989.0</ele>
        <time>2015-08-02T11:31:52Z</time>
      </trkpt>
      <trkpt lat="40.242517" lon="-4.918183">
        <ele>986.0</ele>
        <time>2015-08-02T11:31:53Z</time>
      </trkpt>
      <trkpt lat="40.242433" lon="-4.918217">
        <ele>984.0</ele>
        <time>2015-08-02T11:31:54Z</time>
      </trkpt>
      <trkpt lat="40.242333" lon="-4.918233">
        <ele>982.0</ele>
        <time>2015-08-02T11:31:55Z</time>
      </trkpt>
      <trkpt lat="40.242250" lon="-4.918250">
        <ele>980.0</ele>
        <time>2015-08-02T11:31:56Z</time>
      </trkpt>
      <trkpt lat="40.242150" lon="-4.918250">
        <ele>980.0</ele>
        <time>2015-08-02T11:31:57Z</time>
      </trkpt>
      <trkpt lat="40.242033" lon="-4.918267">
        <ele>979.0</ele>
        <time>2015-08-02T11:31:58Z</time>
      </trkpt>
      <trkpt lat="40.241983" lon="-4.918250">
        <ele>979.0</ele>
        <time>2015-08-02T11:31:59Z</time>
      </trkpt>
      <trkpt lat="40.241900" lon="-4.918233">
        <ele>977.0</ele>
        <time>2015-08-02T11:32:00Z</time>
      </trkpt>
      <trkpt lat="40.241833" lon="-4.918217">
        <ele>974.0</ele>
        <time>2015-08-02T11:32:01Z</time>
      </trkpt>
      <trkpt lat="40.241750" lon="-4.918200">
        <ele>971.0</ele>
        <time>2015-08-02T11:32:02Z</time>
      </trkpt>
      <trkpt lat="40.241667" lon="-4.918183">
        <ele>969.0</ele>
        <time>2015-08-02T11:32:03Z</time>
      </trkpt>
      <trkpt lat="40.241583" lon="-4.918133">
        <ele>967.0</ele>
        <time>2015-08-02T11:32:04Z</time>
      </trkpt>
      <trkpt lat="40.241517" lon="-4.918083">
        <ele>967.0</ele>
        <time>2015-08-02T11:32:05Z</time>
      </trkpt>
      <trkpt lat="40.241450" lon="-4.918000">
        <ele>965.0</ele>
        <time>2015-08-02T11:32:06Z</time>
      </trkpt>
      <trkpt lat="40.241400" lon="-4.917933">
        <ele>964.0</ele>
        <time>2015-08-02T11:32:07Z</time>
      </trkpt>
      <trkpt lat="40.241333" lon="-4.917850">
        <ele>961.0</ele>
        <time>2015-08-02T11:32:08Z</time>
      </trkpt>
      <trkpt lat="40.241283" lon="-4.917767">
        <ele>959.0</ele>
        <time>2015-08-02T11:32:09Z</time>
      </trkpt>
      <trkpt lat="40.241217" lon="-4.917667">
        <ele>957.0</ele>
        <time>2015-08-02T11:32:10Z</time>
      </trkpt>
      <trkpt lat="40.241183" lon="-4.917567">
        <ele>956.0</ele>
        <time>2015-08-02T11:32:11Z</time>
      </trkpt>
      <trkpt lat="40.241150" lon="-4.917467">
        <ele>955.0</ele>
        <time>2015-08-02T11:32:12Z</time>
      </trkpt>
      <trkpt lat="40.241117" lon="-4.917367">
        <ele>953.0</ele>
        <time>2015-08-02T11:32:13Z</time>
      </trkpt>
      <trkpt lat="40.241100" lon="-4.917267">
        <ele>951.0</ele>
        <time>2015-08-02T11:32:14Z</time>
      </trkpt>
      <trkpt lat="40.241083" lon="-4.917150">
        <ele>949.0</ele>
        <time>2015-08-02T11:32:15Z</time>
      </trkpt>
      <trkpt lat="40.241083" lon="-4.917033">
        <ele>946.0</ele>
        <time>2015-08-02T11:32:16Z</time>
      </trkpt>
      <trkpt lat="40.241083" lon="-4.916900">
        <ele>945.0</ele>
        <time>2015-08-02T11:32:17Z</time>
      </trkpt>
      <trkpt lat="40.241083" lon="-4.916800">
        <ele>944.0</ele>
        <time>2015-08-02T11:32:18Z</time>
      </trkpt>
      <trkpt lat="40.241067" lon="-4.916700">
        <ele>943.0</ele>
        <time>2015-08-02T11:32:19Z</time>
      </trkpt>
      <trkpt lat="40.241050" lon="-4.916583">
        <ele>942.0</ele>
        <time>2015-08-02T11:32:20Z</time>
      </trkpt>
      <trkpt lat="40.241033" lon="-4.916467">
        <ele>942.0</ele>
        <time>2015-08-02T11:32:21Z</time>
      </trkpt>
      <trkpt lat="40.241000" lon="-4.916350">
        <ele>942.0</ele>
        <time>2015-08-02T11:32:22Z</time>
      </trkpt>
      <trkpt lat="40.240983" lon="-4.916250">
        <ele>943.0</ele>
        <time>2015-08-02T11:32:23Z</time>
      </trkpt>
      <trkpt lat="40.240967" lon="-4.916150">
        <ele>943.0</ele>
        <time>2015-08-02T11:32:24Z</time>
      </trkpt>
      <trkpt lat="40.240950" lon="-4.916050">
        <ele>942.0</ele>
        <time>2015-08-02T11:32:25Z</time>
      </trkpt>
      <trkpt lat="40.240933" lon="-4.915933">
        <ele>939.0</ele>
        <time>2015-08-02T11:32:26Z</time>
      </trkpt>
      <trkpt lat="40.240900" lon="-4.915800">
        <ele>937.0</ele>
        <time>2015-08-02T11:32:27Z</time>
      </trkpt>
      <trkpt lat="40.240850" lon="-4.915683">
        <ele>934.0</ele>
        <time>2015-08-02T11:32:28Z</time>
      </trkpt>
      <trkpt lat="40.240800" lon="-4.915550">
        <ele>932.0</ele>
        <time>2015-08-02T11:32:29Z</time>
      </trkpt>
      <trkpt lat="40.240750" lon="-4.915433">
        <ele>932.0</ele>
        <time>2015-08-02T11:32:30Z</time>
      </trkpt>
      <trkpt lat="40.240717" lon="-4.915333">
        <ele>930.0</ele>
        <time>2015-08-02T11:32:31Z</time>
      </trkpt>
      <trkpt lat="40.240683" lon="-4.915233">
        <ele>928.0</ele>
        <time>2015-08-02T11:32:32Z</time>
      </trkpt>
      <trkpt lat="40.240650" lon="-4.915117">
        <ele>925.0</ele>
        <time>2015-08-02T11:32:33Z</time>
      </trkpt>
      <trkpt lat="40.240600" lon="-4.915000">
        <ele>922.0</ele>
        <time>2015-08-02T11:32:34Z</time>
      </trkpt>
      <trkpt lat="40.240550" lon="-4.914883">
        <ele>918.0</ele>
        <time>2015-08-02T11:32:35Z</time>
      </trkpt>
      <trkpt lat="40.240500" lon="-4.914750">
        <ele>915.0</ele>
        <time>2015-08-02T11:32:36Z</time>
      </trkpt>
      <trkpt lat="40.240433" lon="-4.914617">
        <ele>914.0</ele>
        <time>2015-08-02T11:32:37Z</time>
      </trkpt>
      <trkpt lat="40.240383" lon="-4.914483">
        <ele>913.0</ele>
        <time>2015-08-02T11:32:38Z</time>
      </trkpt>
      <trkpt lat="40.240350" lon="-4.914367">
        <ele>912.0</ele>
        <time>2015-08-02T11:32:39Z</time>
      </trkpt>
      <trkpt lat="40.240317" lon="-4.914233">
        <ele>912.0</ele>
        <time>2015-08-02T11:32:40Z</time>
      </trkpt>
      <trkpt lat="40.240283" lon="-4.914117">
        <ele>911.0</ele>
        <time>2015-08-02T11:32:41Z</time>
      </trkpt>
      <trkpt lat="40.240267" lon="-4.913983">
        <ele>910.0</ele>
        <time>2015-08-02T11:32:42Z</time>
      </trkpt>
      <trkpt lat="40.240250" lon="-4.913833">
        <ele>910.0</ele>
        <time>2015-08-02T11:32:43Z</time>
      </trkpt>
      <trkpt lat="40.240250" lon="-4.913700">
        <ele>909.0</ele>
        <time>2015-08-02T11:32:44Z</time>
      </trkpt>
      <trkpt lat="40.240233" lon="-4.913567">
        <ele>909.0</ele>
        <time>2015-08-02T11:32:45Z</time>
      </trkpt>
      <trkpt lat="40.240217" lon="-4.913433">
        <ele>909.0</ele>
        <time>2015-08-02T11:32:46Z</time>
      </trkpt>
      <trkpt lat="40.240200" lon="-4.913317">
        <ele>908.0</ele>
        <time>2015-08-02T11:32:47Z</time>
      </trkpt>
      <trkpt lat="40.240183" lon="-4.913200">
        <ele>906.0</ele>
        <time>2015-08-02T11:32:48Z</time>
      </trkpt>
      <trkpt lat="40.240150" lon="-4.913083">
        <ele>903.0</ele>
        <time>2015-08-02T11:32:49Z</time>
      </trkpt>
      <trkpt lat="40.240133" lon="-4.912967">
        <ele>898.0</ele>
        <time>2015-08-02T11:32:50Z</time>
      </trkpt>
      <trkpt lat="40.240117" lon="-4.912833">
        <ele>893.0</ele>
        <time>2015-08-02T11:32:51Z</time>
      </trkpt>
      <trkpt lat="40.240067" lon="-4.912683">
        <ele>889.0</ele>
        <time>2015-08-02T11:32:52Z</time>
      </trkpt>
      <trkpt lat="40.240017" lon="-4.912550">
        <ele>887.0</ele>
        <time>2015-08-02T11:32:53Z</time>
      </trkpt>
      <trkpt lat="40.239983" lon="-4.912450">
        <ele>886.0</ele>
        <time>2015-08-02T11:32:54Z</time>
      </trkpt>
      <trkpt lat="40.239950" lon="-4.912350">
        <ele>884.0</ele>
        <time>2015-08-02T11:32:55Z</time>
      </trkpt>
      <trkpt lat="40.239917" lon="-4.912250">
        <ele>882.0</ele>
        <time>2015-08-02T11:32:56Z</time>
      </trkpt>
      <trkpt lat="40.239883" lon="-4.912133">
        <ele>879.0</ele>
        <time>2015-08-02T11:32:57Z</time>
      </trkpt>
      <trkpt lat="40.239850" lon="-4.912017">
        <ele>876.0</ele>
        <time>2015-08-02T11:32:58Z</time>
      </trkpt>
      <trkpt lat="40.239783" lon="-4.911917">
        <ele>874.0</ele>
        <time>2015-08-02T11:32:59Z</time>
      </trkpt>
      <trkpt lat="40.239717" lon="-4.911817">
        <ele>874.0</ele>
        <time>2015-08-02T11:33:00Z</time>
      </trkpt>
      <trkpt lat="40.239667" lon="-4.911750">
        <ele>875.0</ele>
        <time>2015-08-02T11:33:01Z</time>
      </trkpt>
      <trkpt lat="40.239617" lon="-4.911667">
        <ele>875.0</ele>
        <time>2015-08-02T11:33:02Z</time>
      </trkpt>
      <trkpt lat="40.239583" lon="-4.911583">
        <ele>875.0</ele>
        <time>2015-08-02T11:33:03Z</time>
      </trkpt>
      <trkpt lat="40.239567" lon="-4.911500">
        <ele>874.0</ele>
        <time>2015-08-02T11:33:04Z</time>
      </trkpt>
      <trkpt lat="40.239533" lon="-4.911433">
        <ele>874.0</ele>
        <time>2015-08-02T11:33:05Z</time>
      </trkpt>
      <trkpt lat="40.239483" lon="-4.911367">
        <ele>871.0</ele>
        <time>2015-08-02T11:33:06Z</time>
      </trkpt>
      <trkpt lat="40.239417" lon="-4.911317">
        <ele>869.0</ele>
        <time>2015-08-02T11:33:07Z</time>
      </trkpt>
      <trkpt lat="40.239333" lon="-4.911267">
        <ele>866.0</ele>
        <time>2015-08-02T11:33:08Z</time>
      </trkpt>
      <trkpt lat="40.239233" lon="-4.911200">
        <ele>865.0</ele>
        <time>2015-08-02T11:33:09Z</time>
      </trkpt>
      <trkpt lat="40.239150" lon="-4.911117">
        <ele>865.0</ele>
        <time>2015-08-02T11:33:10Z</time>
      </trkpt>
      <trkpt lat="40.239083" lon="-4.911033">
        <ele>868.0</ele>
        <time>2015-08-02T11:33:11Z</time>
      </trkpt>
      <trkpt lat="40.239033" lon="-4.910983">
        <ele>871.0</ele>
        <time>2015-08-02T11:33:12Z</time>
      </trkpt>
      <trkpt lat="40.238983" lon="-4.910950">
        <ele>873.0</ele>
        <time>2015-08-02T11:33:13Z</time>
      </trkpt>
      <trkpt lat="40.238917" lon="-4.910933">
        <ele>874.0</ele>
        <time>2015-08-02T11:33:14Z</time>
      </trkpt>
      <trkpt lat="40.238867" lon="-4.910933">
        <ele>874.0</ele>
        <time>2015-08-02T11:33:15Z</time>
      </trkpt>
      <trkpt lat="40.238800" lon="-4.910967">
        <ele>874.0</ele>
        <time>2015-08-02T11:33:16Z</time>
      </trkpt>
      <trkpt lat="40.238733" lon="-4.911033">
        <ele>873.0</ele>
        <time>2015-08-02T11:33:17Z</time>
      </trkpt>
      <trkpt lat="40.238667" lon="-4.911133">
        <ele>873.0</ele>
        <time>2015-08-02T11:33:18Z</time>
      </trkpt>
      <trkpt lat="40.238633" lon="-4.911233">
        <ele>874.0</ele>
        <time>2015-08-02T11:33:19Z</time>
      </trkpt>
      <trkpt lat="40.238633" lon="-4.911367">
        <ele>875.0</ele>
        <time>2015-08-02T11:33:20Z</time>
      </trkpt>
      <trkpt lat="40.238700" lon="-4.911483">
        <ele>876.0</ele>
        <time>2015-08-02T11:33:21Z</time>
      </trkpt>
      <trkpt lat="40.238783" lon="-4.911567">
        <ele>876.0</ele>
        <time>2015-08-02T11:33:22Z</time>
      </trkpt>
      <trkpt lat="40.238883" lon="-4.911617">
        <ele>878.0</ele>
        <time>2015-08-02T11:33:23Z</time>
      </trkpt>
      <trkpt lat="40.239000" lon="-4.911617">
        <ele>879.0</ele>
        <time>2015-08-02T11:33:24Z</time>
      </trkpt>
      <trkpt lat="40.239067" lon="-4.911633">
        <ele>881.0</ele>
        <time>2015-08-02T11:33:25Z</time>
      </trkpt>
      <trkpt lat="40.239150" lon="-4.911633">
        <ele>883.0</ele>
        <time>2015-08-02T11:33:26Z</time>
      </trkpt>
      <trkpt lat="40.239233" lon="-4.911633">
        <ele>883.0</ele>
        <time>2015-08-02T11:33:27Z</time>
      </trkpt>
      <trkpt lat="40.239317" lon="-4.911600">
        <ele>884.0</ele>
        <time>2015-08-02T11:33:28Z</time>
      </trkpt>
      <trkpt lat="40.239383" lon="-4.911533">
        <ele>883.0</ele>
        <time>2015-08-02T11:33:29Z</time>
      </trkpt>
      <trkpt lat="40.239417" lon="-4.911417">
        <ele>882.0</ele>
        <time>2015-08-02T11:33:30Z</time>
      </trkpt>
      <trkpt lat="40.239417" lon="-4.911283">
        <ele>881.0</ele>
        <time>2015-08-02T11:33:31Z</time>
      </trkpt>
      <trkpt lat="40.239383" lon="-4.911150">
        <ele>882.0</ele>
        <time>2015-08-02T11:33:32Z</time>
      </trkpt>
      <trkpt lat="40.239350" lon="-4.911050">
        <ele>883.0</ele>
        <time>2015-08-02T11:33:33Z</time>
      </trkpt>
      <trkpt lat="40.239300" lon="-4.910983">
        <ele>884.0</ele>
        <time>2015-08-02T11:33:34Z</time>
      </trkpt>
      <trkpt lat="40.239250" lon="-4.910917">
        <ele>884.0</ele>
        <time>2015-08-02T11:33:35Z</time>
      </trkpt>
      <trkpt lat="40.239183" lon="-4.910883">
        <ele>884.0</ele>
        <time>2015-08-02T11:33:36Z</time>
      </trkpt>
      <trkpt lat="40.239100" lon="-4.910883">
        <ele>883.0</ele>
        <time>2015-08-02T11:33:37Z</time>
      </trkpt>
      <trkpt lat="40.239017" lon="-4.910883">
        <ele>883.0</ele>
        <time>2015-08-02T11:33:38Z</time>
      </trkpt>
      <trkpt lat="40.238933" lon="-4.910933">
        <ele>883.0</ele>
        <time>2015-08-02T11:33:39Z</time>
      </trkpt>
      <trkpt lat="40.238867" lon="-4.911017">
        <ele>883.0</ele>
        <time>2015-08-02T11:33:40Z</time>
      </trkpt>
      <trkpt lat="40.238817" lon="-4.911133">
        <ele>883.0</ele>
        <time>2015-08-02T11:33:41Z</time>
      </trkpt>
      <trkpt lat="40.238783" lon="-4.911250">
        <ele>884.0</ele>
        <time>2015-08-02T11:33:42Z</time>
      </trkpt>
      <trkpt lat="40.238767" lon="-4.911383">
        <ele>885.0</ele>
        <time>2015-08-02T11:33:43Z</time>
      </trkpt>
      <trkpt lat="40.238783" lon="-4.911500">
        <ele>886.0</ele>
        <time>2015-08-02T11:33:44Z</time>
      </trkpt>
      <trkpt lat="40.238833" lon="-4.911633">
        <ele>887.0</ele>
        <time>2015-08-02T11:33:45Z</time>
      </trkpt>
      <trkpt lat="40.238867" lon="-4.911700">
        <ele>888.0</ele>
        <time>2015-08-02T11:33:46Z</time>
      </trkpt>
      <trkpt lat="40.238933" lon="-4.911800">
        <ele>889.0</ele>
        <time>2015-08-02T11:33:47Z</time>
      </trkpt>
      <trkpt lat="40.239000" lon="-4.911883">
        <ele>889.0</ele>
        <time>2015-08-02T11:33:48Z</time>
      </trkpt>
      <trkpt lat="40.239083" lon="-4.911950">
        <ele>890.0</ele>
        <time>2015-08-02T11:33:49Z</time>
      </trkpt>
      <trkpt lat="40.239167" lon="-4.912017">
        <ele>891.0</ele>
        <time>2015-08-02T11:33:50Z</time>
      </trkpt>
      <trkpt lat="40.239233" lon="-4.912050">
        <ele>891.0</ele>
        <time>2015-08-02T11:33:51Z</time>
      </trkpt>
      <trkpt lat="40.239300" lon="-4.912117">
        <ele>891.0</ele>
        <time>2015-08-02T11:33:52Z</time>
      </trkpt>
      <trkpt lat="40.239367" lon="-4.912167">
        <ele>891.0</ele>
        <time>2015-08-02T11:33:53Z</time>
      </trkpt>
      <trkpt lat="40.239450" lon="-4.912233">
        <ele>890.0</ele>
        <time>2015-08-02T11:33:54Z</time>
      </trkpt>
      <trkpt lat="40.239533" lon="-4.912267">
        <ele>890.0</ele>
        <time>2015-08-02T11:33:55Z</time>
      </trkpt>
      <trkpt lat="40.239650" lon="-4.912283">
        <ele>890.0</ele>
        <time>2015-08-02T11:33:56Z</time>
      </trkpt>
      <trkpt lat="40.239750" lon="-4.912250">
        <ele>890.0</ele>
        <time>2015-08-02T11:33:57Z</time>
      </trkpt>
      <trkpt lat="40.239833" lon="-4.912167">
        <ele>890.0</ele>
        <time>2015-08-02T11:33:58Z</time>
      </trkpt>
      <trkpt lat="40.239900" lon="-4.912067">
        <ele>890.0</ele>
        <time>2015-08-02T11:33:59Z</time>
      </trkpt>
      <trkpt lat="40.239933" lon="-4.911933">
        <ele>891.0</ele>
        <time>2015-08-02T11:34:00Z</time>
      </trkpt>
      <trkpt lat="40.239950" lon="-4.911817">
        <ele>892.0</ele>
        <time>2015-08-02T11:34:01Z</time>
      </trkpt>
      <trkpt lat="40.239933" lon="-4.911717">
        <ele>892.0</ele>
        <time>2015-08-02T11:34:02Z</time>
      </trkpt>
      <trkpt lat="40.239917" lon="-4.911617">
        <ele>892.0</ele>
        <time>2015-08-02T11:34:03Z</time>
      </trkpt>
      <trkpt lat="40.239883" lon="-4.911517">
        <ele>893.0</ele>
        <time>2015-08-02T11:34:04Z</time>
      </trkpt>
      <trkpt lat="40.239833" lon="-4.911450">
        <ele>892.0</ele>
        <time>2015-08-02T11:34:05Z</time>
      </trkpt>
      <trkpt lat="40.239767" lon="-4.911400">
        <ele>892.0</ele>
        <time>2015-08-02T11:34:06Z</time>
      </trkpt>
      <trkpt lat="40.239683" lon="-4.911383">
        <ele>892.0</ele>
        <time>2015-08-02T11:34:07Z</time>
      </trkpt>
      <trkpt lat="40.239600" lon="-4.911367">
        <ele>892.0</ele>
        <time>2015-08-02T11:34:08Z</time>
      </trkpt>
      <trkpt lat="40.239517" lon="-4.911383">
        <ele>893.0</ele>
        <time>2015-08-02T11:34:09Z</time>
      </trkpt>
      <trkpt lat="40.239433" lon="-4.911433">
        <ele>893.0</ele>
        <time>2015-08-02T11:34:10Z</time>
      </trkpt>
      <trkpt lat="40.239367" lon="-4.911500">
        <ele>894.0</ele>
        <time>2015-08-02T11:34:11Z</time>
      </trkpt>
      <trkpt lat="40.239317" lon="-4.911617">
        <ele>894.0</ele>
        <time>2015-08-02T11:34:12Z</time>
      </trkpt>
      <trkpt lat="40.239283" lon="-4.911733">
        <ele>894.0</ele>
        <time>2015-08-02T11:34:13Z</time>
      </trkpt>
      <trkpt lat="40.239283" lon="-4.911867">
        <ele>894.0</ele>
        <time>2015-08-02T11:34:14Z</time>
      </trkpt>
      <trkpt lat="40.239317" lon="-4.912000">
        <ele>895.0</ele>
        <time>2015-08-02T11:34:15Z</time>
      </trkpt>
      <trkpt lat="40.239383" lon="-4.912133">
        <ele>896.0</ele>
        <time>2015-08-02T11:34:16Z</time>
      </trkpt>
      <trkpt lat="40.239450" lon="-4.912183">
        <ele>897.0</ele>
        <time>2015-08-02T11:34:17Z</time>
      </trkpt>
      <trkpt lat="40.239533" lon="-4.912217">
        <ele>897.0</ele>
        <time>2015-08-02T11:34:18Z</time>
      </trkpt>
      <trkpt lat="40.239633" lon="-4.912217">
        <ele>898.0</ele>
        <time>2015-08-02T11:34:19Z</time>
      </trkpt>
      <trkpt lat="40.239717" lon="-4.912183">
        <ele>898.0</ele>
        <time>2015-08-02T11:34:20Z</time>
      </trkpt>
      <trkpt lat="40.239817" lon="-4.912133">
        <ele>899.0</ele>
        <time>2015-08-02T11:34:21Z</time>
      </trkpt>
      <trkpt lat="40.239883" lon="-4.912050">
        <ele>899.0</ele>
        <time>2015-08-02T11:34:22Z</time>
      </trkpt>
      <trkpt lat="40.239933" lon="-4.911950">
        <ele>898.0</ele>
        <time>2015-08-02T11:34:23Z</time>
      </trkpt>
      <trkpt lat="40.239967" lon="-4.911817">
        <ele>897.0</ele>
        <time>2015-08-02T11:34:24Z</time>
      </trkpt>
      <trkpt lat="40.239967" lon="-4.911700">
        <ele>897.0</ele>
        <time>2015-08-02T11:34:25Z</time>
      </trkpt>
      <trkpt lat="40.239900" lon="-4.911583">
        <ele>896.0</ele>
        <time>2015-08-02T11:34:26Z</time>
      </trkpt>
      <trkpt lat="40.239833" lon="-4.911533">
        <ele>897.0</ele>
        <time>2015-08-02T11:34:27Z</time>
      </trkpt>
      <trkpt lat="40.239733" lon="-4.911517">
        <ele>897.0</ele>
        <time>2015-08-02T11:34:28Z</time>
      </trkpt>
      <trkpt lat="40.239650" lon="-4.911533">
        <ele>897.0</ele>
        <time>2015-08-02T11:34:29Z</time>
      </trkpt>
      <trkpt lat="40.239550" lon="-4.911617">
        <ele>898.0</ele>
        <time>2015-08-02T11:34:30Z</time>
      </trkpt>
      <trkpt lat="40.239500" lon="-4.911683">
        <ele>898.0</ele>
        <time>2015-08-02T11:34:31Z</time>
      </trkpt>
      <trkpt lat="40.239467" lon="-4.911783">
        <ele>898.0</ele>
        <time>2015-08-02T11:34:32Z</time>
      </trkpt>
      <trkpt lat="40.239433" lon="-4.911900">
        <ele>898.0</ele>
        <time>2015-08-02T11:34:33Z</time>
      </trkpt>
      <trkpt lat="40.239433" lon="-4.912033">
        <ele>898.0</ele>
        <time>2015-08-02T11:34:34Z</time>
      </trkpt>
      <trkpt lat="40.239450" lon="-4.912150">
        <ele>899.0</ele>
        <time>2015-08-02T11:34:35Z</time>
      </trkpt>
      <trkpt lat="40.239483" lon="-4.912250">
        <ele>900.0</ele>
        <time>2015-08-02T11:34:36Z</time>
      </trkpt>
      <trkpt lat="40.239550" lon="-4.912317">
        <ele>900.0</ele>
        <time>2015-08-02T11:34:37Z</time>
      </trkpt>
      <trkpt lat="40.239617" lon="-4.912367">
        <ele>899.0</ele>
        <time>2015-08-02T11:34:38Z</time>
      </trkpt>
      <trkpt lat="40.239717" lon="-4.912367">
        <ele>898.0</ele>
        <time>2015-08-02T11:34:39Z</time>
      </trkpt>
      <trkpt lat="40.239800" lon="-4.912333">
        <ele>896.0</ele>
        <time>2015-08-02T11:34:40Z</time>
      </trkpt>
      <trkpt lat="40.239867" lon="-4.912267">
        <ele>895.0</ele>
        <time>2015-08-02T11:34:41Z</time>
      </trkpt>
      <trkpt lat="40.239917" lon="-4.912150">
        <ele>894.0</ele>
        <time>2015-08-02T11:34:42Z</time>
      </trkpt>
      <trkpt lat="40.239950" lon="-4.912033">
        <ele>893.0</ele>
        <time>2015-08-02T11:34:43Z</time>
      </trkpt>
      <trkpt lat="40.239983" lon="-4.911900">
        <ele>893.0</ele>
        <time>2015-08-02T11:34:44Z</time>
      </trkpt>
      <trkpt lat="40.240000" lon="-4.911767">
        <ele>893.0</ele>
        <time>2015-08-02T11:34:45Z</time>
      </trkpt>
      <trkpt lat="40.240017" lon="-4.911667">
        <ele>894.0</ele>
        <time>2015-08-02T11:34:46Z</time>
      </trkpt>
      <trkpt lat="40.240017" lon="-4.911550">
        <ele>894.0</ele>
        <time>2015-08-02T11:34:47Z</time>
      </trkpt>
      <trkpt lat="40.240017" lon="-4.911450">
        <ele>895.0</ele>
        <time>2015-08-02T11:34:48Z</time>
      </trkpt>
      <trkpt lat="40.239967" lon="-4.911333">
        <ele>895.0</ele>
        <time>2015-08-02T11:34:49Z</time>
      </trkpt>
      <trkpt lat="40.239917" lon="-4.911283">
        <ele>894.0</ele>
        <time>2015-08-02T11:34:50Z</time>
      </trkpt>
      <trkpt lat="40.239800" lon="-4.911267">
        <ele>893.0</ele>
        <time>2015-08-02T11:34:51Z</time>
      </trkpt>
      <trkpt lat="40.239733" lon="-4.911300">
        <ele>892.0</ele>
        <time>2015-08-02T11:34:52Z</time>
      </trkpt>
      <trkpt lat="40.239650" lon="-4.911367">
        <ele>890.0</ele>
        <time>2015-08-02T11:34:53Z</time>
      </trkpt>
      <trkpt lat="40.239600" lon="-4.911483">
        <ele>890.0</ele>
        <time>2015-08-02T11:34:54Z</time>
      </trkpt>
      <trkpt lat="40.239583" lon="-4.911633">
        <ele>890.0</ele>
        <time>2015-08-02T11:34:55Z</time>
      </trkpt>
      <trkpt lat="40.239583" lon="-4.911717">
        <ele>889.0</ele>
        <time>2015-08-02T11:34:56Z</time>
      </trkpt>
      <trkpt lat="40.239617" lon="-4.911833">
        <ele>889.0</ele>
        <time>2015-08-02T11:34:57Z</time>
      </trkpt>
      <trkpt lat="40.239717" lon="-4.911950">
        <ele>889.0</ele>
        <time>2015-08-02T11:34:58Z</time>
      </trkpt>
      <trkpt lat="40.239750" lon="-4.911967">
        <ele>888.0</ele>
        <time>2015-08-02T11:34:59Z</time>
      </trkpt>
      <trkpt lat="40.239850" lon="-4.911983">
        <ele>887.0</ele>
        <time>2015-08-02T11:35:00Z</time>
      </trkpt>
      <trkpt lat="40.239933" lon="-4.911983">
        <ele>887.0</ele>
        <time>2015-08-02T11:35:01Z</time>
      </trkpt>
      <trkpt lat="40.240000" lon="-4.911950">
        <ele>886.0</ele>
        <time>2015-08-02T11:35:02Z</time>
      </trkpt>
      <trkpt lat="40.240067" lon="-4.911917">
        <ele>885.0</ele>
        <time>2015-08-02T11:35:03Z</time>
      </trkpt>
      <trkpt lat="40.240133" lon="-4.911833">
        <ele>883.0</ele>
        <time>2015-08-02T11:35:04Z</time>
      </trkpt>
      <trkpt lat="40.240200" lon="-4.911717">
        <ele>881.0</ele>
        <time>2015-08-02T11:35:05Z</time>
      </trkpt>
      <trkpt lat="40.240217" lon="-4.911583">
        <ele>880.0</ele>
        <time>2015-08-02T11:35:06Z</time>
      </trkpt>
      <trkpt lat="40.240217" lon="-4.911450">
        <ele>881.0</ele>
        <time>2015-08-02T11:35:07Z</time>
      </trkpt>
      <trkpt lat="40.240183" lon="-4.911333">
        <ele>881.0</ele>
        <time>2015-08-02T11:35:08Z</time>
      </trkpt>
      <trkpt lat="40.240150" lon="-4.911283">
        <ele>881.0</ele>
        <time>2015-08-02T11:35:09Z</time>
      </trkpt>
      <trkpt lat="40.240100" lon="-4.911233">
        <ele>879.0</ele>
        <time>2015-08-02T11:35:10Z</time>
      </trkpt>
      <trkpt lat="40.240050" lon="-4.911183">
        <ele>877.0</ele>
        <time>2015-08-02T11:35:11Z</time>
      </trkpt>
      <trkpt lat="40.239983" lon="-4.911117">
        <ele>875.0</ele>
        <time>2015-08-02T11:35:12Z</time>
      </trkpt>
      <trkpt lat="40.239917" lon="-4.911050">
        <ele>873.0</ele>
        <time>2015-08-02T11:35:13Z</time>
      </trkpt>
      <trkpt lat="40.239833" lon="-4.910983">
        <ele>872.0</ele>
        <time>2015-08-02T11:35:14Z</time>
      </trkpt>
      <trkpt lat="40.239767" lon="-4.910917">
        <ele>872.0</ele>
        <time>2015-08-02T11:35:15Z</time>
      </trkpt>
      <trkpt lat="40.239717" lon="-4.910817">
        <ele>872.0</ele>
        <time>2015-08-02T11:35:16Z</time>
      </trkpt>
      <trkpt lat="40.239683" lon="-4.910717">
        <ele>874.0</ele>
        <time>2015-08-02T11:35:17Z</time>
      </trkpt>
      <trkpt lat="40.239650" lon="-4.910617">
        <ele>876.0</ele>
        <time>2015-08-02T11:35:18Z</time>
      </trkpt>
      <trkpt lat="40.239600" lon="-4.910550">
        <ele>877.0</ele>
        <time>2015-08-02T11:35:19Z</time>
      </trkpt>
      <trkpt lat="40.239567" lon="-4.910483">
        <ele>878.0</ele>
        <time>2015-08-02T11:35:20Z</time>
      </trkpt>
      <trkpt lat="40.239500" lon="-4.910450">
        <ele>877.0</ele>
        <time>2015-08-02T11:35:21Z</time>
      </trkpt>
      <trkpt lat="40.239400" lon="-4.910450">
        <ele>877.0</ele>
        <time>2015-08-02T11:35:22Z</time>
      </trkpt>
      <trkpt lat="40.239317" lon="-4.910500">
        <ele>877.0</ele>
        <time>2015-08-02T11:35:23Z</time>
      </trkpt>
      <trkpt lat="40.239250" lon="-4.910583">
        <ele>878.0</ele>
        <time>2015-08-02T11:35:24Z</time>
      </trkpt>
      <trkpt lat="40.239200" lon="-4.910700">
        <ele>878.0</ele>
        <time>2015-08-02T11:35:25Z</time>
      </trkpt>
      <trkpt lat="40.239200" lon="-4.910850">
        <ele>878.0</ele>
        <time>2015-08-02T11:35:26Z</time>
      </trkpt>
      <trkpt lat="40.239250" lon="-4.911000">
        <ele>879.0</ele>
        <time>2015-08-02T11:35:27Z</time>
      </trkpt>
      <trkpt lat="40.239317" lon="-4.911117">
        <ele>881.0</ele>
        <time>2015-08-02T11:35:28Z</time>
      </trkpt>
      <trkpt lat="40.239367" lon="-4.911233">
        <ele>883.0</ele>
        <time>2015-08-02T11:35:29Z</time>
      </trkpt>
      <trkpt lat="40.239433" lon="-4.911317">
        <ele>886.0</ele>
        <time>2015-08-02T11:35:30Z</time>
      </trkpt>
      <trkpt lat="40.239500" lon="-4.911383">
        <ele>887.0</ele>
        <time>2015-08-02T11:35:31Z</time>
      </trkpt>
      <trkpt lat="40.239583" lon="-4.911400">
        <ele>886.0</ele>
        <time>2015-08-02T11:35:32Z</time>
      </trkpt>
      <trkpt lat="40.239667" lon="-4.911383">
        <ele>884.0</ele>
        <time>2015-08-02T11:35:33Z</time>
      </trkpt>
      <trkpt lat="40.239767" lon="-4.911333">
        <ele>883.0</ele>
        <time>2015-08-02T11:35:34Z</time>
      </trkpt>
      <trkpt lat="40.239817" lon="-4.911250">
        <ele>883.0</ele>
        <time>2015-08-02T11:35:35Z</time>
      </trkpt>
      <trkpt lat="40.239850" lon="-4.911133">
        <ele>883.0</ele>
        <time>2015-08-02T11:35:36Z</time>
      </trkpt>
      <trkpt lat="40.239867" lon="-4.911017">
        <ele>882.0</ele>
        <time>2015-08-02T11:35:37Z</time>
      </trkpt>
      <trkpt lat="40.239850" lon="-4.910900">
        <ele>882.0</ele>
        <time>2015-08-02T11:35:38Z</time>
      </trkpt>
      <trkpt lat="40.239833" lon="-4.910767">
        <ele>883.0</ele>
        <time>2015-08-02T11:35:39Z</time>
      </trkpt>
      <trkpt lat="40.239800" lon="-4.910650">
        <ele>884.0</ele>
        <time>2015-08-02T11:35:40Z</time>
      </trkpt>
      <trkpt lat="40.239767" lon="-4.910550">
        <ele>886.0</ele>
        <time>2015-08-02T11:35:41Z</time>
      </trkpt>
      <trkpt lat="40.239733" lon="-4.910467">
        <ele>887.0</ele>
        <time>2015-08-02T11:35:42Z</time>
      </trkpt>
      <trkpt lat="40.239683" lon="-4.910400">
        <ele>887.0</ele>
        <time>2015-08-02T11:35:43Z</time>
      </trkpt>
      <trkpt lat="40.239633" lon="-4.910350">
        <ele>888.0</ele>
        <time>2015-08-02T11:35:44Z</time>
      </trkpt>
      <trkpt lat="40.239550" lon="-4.910333">
        <ele>888.0</ele>
        <time>2015-08-02T11:35:45Z</time>
      </trkpt>
      <trkpt lat="40.239467" lon="-4.910317">
        <ele>888.0</ele>
        <time>2015-08-02T11:35:46Z</time>
      </trkpt>
      <trkpt lat="40.239367" lon="-4.910317">
        <ele>889.0</ele>
        <time>2015-08-02T11:35:47Z</time>
      </trkpt>
      <trkpt lat="40.239267" lon="-4.910367">
        <ele>890.0</ele>
        <time>2015-08-02T11:35:48Z</time>
      </trkpt>
      <trkpt lat="40.239200" lon="-4.910450">
        <ele>890.0</ele>
        <time>2015-08-02T11:35:49Z</time>
      </trkpt>
      <trkpt lat="40.239133" lon="-4.910550">
        <ele>890.0</ele>
        <time>2015-08-02T11:35:50Z</time>
      </trkpt>
      <trkpt lat="40.239083" lon="-4.910667">
        <ele>891.0</ele>
        <time>2015-08-02T11:35:51Z</time>
      </trkpt>
      <trkpt lat="40.239050" lon="-4.910833">
        <ele>890.0</ele>
        <time>2015-08-02T11:35:52Z</time>
      </trkpt>
      <trkpt lat="40.239050" lon="-4.910950">
        <ele>890.0</ele>
        <time>2015-08-02T11:35:53Z</time>
      </trkpt>
      <trkpt lat="40.239083" lon="-4.911083">
        <ele>889.0</ele>
        <time>2015-08-02T11:35:54Z</time>
      </trkpt>
      <trkpt lat="40.239133" lon="-4.911233">
        <ele>891.0</ele>
        <time>2015-08-02T11:35:55Z</time>
      </trkpt>
      <trkpt lat="40.239200" lon="-4.911350">
        <ele>893.0</ele>
        <time>2015-08-02T11:35:56Z</time>
      </trkpt>
      <trkpt lat="40.239267" lon="-4.911450">
        <ele>897.0</ele>
        <time>2015-08-02T11:35:57Z</time>
      </trkpt>
      <trkpt lat="40.239333" lon="-4.911533">
        <ele>900.0</ele>
        <time>2015-08-02T11:35:58Z</time>
      </trkpt>
      <trkpt lat="40.239383" lon="-4.911600">
        <ele>901.0</ele>
        <time>2015-08-02T11:35:59Z</time>
      </trkpt>
      <trkpt lat="40.239433" lon="-4.911633">
        <ele>901.0</ele>
        <time>2015-08-02T11:36:00Z</time>
      </trkpt>
      <trkpt lat="40.239500" lon="-4.911667">
        <ele>899.0</ele>
        <time>2015-08-02T11:36:01Z</time>
      </trkpt>
      <trkpt lat="40.239600" lon="-4.911650">
        <ele>897.0</ele>
        <time>2015-08-02T11:36:02Z</time>
      </trkpt>
      <trkpt lat="40.239683" lon="-4.911617">
        <ele>895.0</ele>
        <time>2015-08-02T11:36:03Z</time>
      </trkpt>
      <trkpt lat="40.239767" lon="-4.911550">
        <ele>895.0</ele>
        <time>2015-08-02T11:36:04Z</time>
      </trkpt>
      <trkpt lat="40.239817" lon="-4.911450">
        <ele>895.0</ele>
        <time>2015-08-02T11:36:05Z</time>
      </trkpt>
      <trkpt lat="40.239833" lon="-4.911350">
        <ele>895.0</ele>
        <time>2015-08-02T11:36:06Z</time>
      </trkpt>
      <trkpt lat="40.239833" lon="-4.911250">
        <ele>895.0</ele>
        <time>2015-08-02T11:36:07Z</time>
      </trkpt>
      <trkpt lat="40.239800" lon="-4.911150">
        <ele>896.0</ele>
        <time>2015-08-02T11:36:08Z</time>
      </trkpt>
      <trkpt lat="40.239767" lon="-4.911050">
        <ele>897.0</ele>
        <time>2015-08-02T11:36:09Z</time>
      </trkpt>
      <trkpt lat="40.239717" lon="-4.910967">
        <ele>897.0</ele>
        <time>2015-08-02T11:36:10Z</time>
      </trkpt>
      <trkpt lat="40.239667" lon="-4.910900">
        <ele>898.0</ele>
        <time>2015-08-02T11:36:11Z</time>
      </trkpt>
      <trkpt lat="40.239600" lon="-4.910817">
        <ele>900.0</ele>
        <time>2015-08-02T11:36:12Z</time>
      </trkpt>
      <trkpt lat="40.239533" lon="-4.910750">
        <ele>901.0</ele>
        <time>2015-08-02T11:36:13Z</time>
      </trkpt>
      <trkpt lat="40.239467" lon="-4.910683">
        <ele>903.0</ele>
        <time>2015-08-02T11:36:14Z</time>
      </trkpt>
      <trkpt lat="40.239400" lon="-4.910617">
        <ele>905.0</ele>
        <time>2015-08-02T11:36:15Z</time>
      </trkpt>
      <trkpt lat="40.239350" lon="-4.910583">
        <ele>906.0</ele>
        <time>2015-08-02T11:36:16Z</time>
      </trkpt>
      <trkpt lat="40.239283" lon="-4.910583">
        <ele>907.0</ele>
        <time>2015-08-02T11:36:17Z</time>
      </trkpt>
      <trkpt lat="40.239200" lon="-4.910617">
        <ele>906.0</ele>
        <time>2015-08-02T11:36:18Z</time>
      </trkpt>
      <trkpt lat="40.239133" lon="-4.910700">
        <ele>905.0</ele>
        <time>2015-08-02T11:36:19Z</time>
      </trkpt>
      <trkpt lat="40.239083" lon="-4.910833">
        <ele>904.0</ele>
        <time>2015-08-02T11:36:20Z</time>
      </trkpt>
      <trkpt lat="40.239067" lon="-4.910983">
        <ele>904.0</ele>
        <time>2015-08-02T11:36:21Z</time>
      </trkpt>
      <trkpt lat="40.239083" lon="-4.911133">
        <ele>903.0</ele>
        <time>2015-08-02T11:36:22Z</time>
      </trkpt>
      <trkpt lat="40.239133" lon="-4.911283">
        <ele>903.0</ele>
        <time>2015-08-02T11:36:23Z</time>
      </trkpt>
      <trkpt lat="40.239217" lon="-4.911383">
        <ele>904.0</ele>
        <time>2015-08-02T11:36:24Z</time>
      </trkpt>
      <trkpt lat="40.239283" lon="-4.911483">
        <ele>905.0</ele>
        <time>2015-08-02T11:36:25Z</time>
      </trkpt>
      <trkpt lat="40.239383" lon="-4.911550">
        <ele>906.0</ele>
        <time>2015-08-02T11:36:26Z</time>
      </trkpt>
      <trkpt lat="40.239467" lon="-4.911600">
        <ele>907.0</ele>
        <time>2015-08-02T11:36:27Z</time>
      </trkpt>
      <trkpt lat="40.239567" lon="-4.911617">
        <ele>908.0</ele>
        <time>2015-08-02T11:36:28Z</time>
      </trkpt>
      <trkpt lat="40.239650" lon="-4.911583">
        <ele>908.0</ele>
        <time>2015-08-02T11:36:29Z</time>
      </trkpt>
      <trkpt lat="40.239717" lon="-4.911500">
        <ele>909.0</ele>
        <time>2015-08-02T11:36:30Z</time>
      </trkpt>
      <trkpt lat="40.239750" lon="-4.911400">
        <ele>909.0</ele>
        <time>2015-08-02T11:36:31Z</time>
      </trkpt>
      <trkpt lat="40.239750" lon="-4.911283">
        <ele>910.0</ele>
        <time>2015-08-02T11:36:32Z</time>
      </trkpt>
      <trkpt lat="40.239733" lon="-4.911167">
        <ele>912.0</ele>
        <time>2015-08-02T11:36:33Z</time>
      </trkpt>
      <trkpt lat="40.239733" lon="-4.911067">
        <ele>913.0</ele>
        <time>2015-08-02T11:36:34Z</time>
      </trkpt>
      <trkpt lat="40.239717" lon="-4.910983">
        <ele>915.0</ele>
        <time>2015-08-02T11:36:35Z</time>
      </trkpt>
      <trkpt lat="40.239700" lon="-4.910900">
        <ele>917.0</ele>
        <time>2015-08-02T11:36:36Z</time>
      </trkpt>
      <trkpt lat="40.239667" lon="-4.910817">
        <ele>918.0</ele>
        <time>2015-08-02T11:36:37Z</time>
      </trkpt>
      <trkpt lat="40.239600" lon="-4.910767">
        <ele>919.0</ele>
        <time>2015-08-02T11:36:38Z</time>
      </trkpt>
      <trkpt lat="40.239517" lon="-4.910767">
        <ele>919.0</ele>
        <time>2015-08-02T11:36:39Z</time>
      </trkpt>
      <trkpt lat="40.239433" lon="-4.910783">
        <ele>920.0</ele>
        <time>2015-08-02T11:36:40Z</time>
      </trkpt>
      <trkpt lat="40.239350" lon="-4.910850">
        <ele>921.0</ele>
        <time>2015-08-02T11:36:41Z</time>
      </trkpt>
      <trkpt lat="40.239300" lon="-4.910933">
        <ele>922.0</ele>
        <time>2015-08-02T11:36:42Z</time>
      </trkpt>
      <trkpt lat="40.239233" lon="-4.911033">
        <ele>922.0</ele>
        <time>2015-08-02T11:36:43Z</time>
      </trkpt>
      <trkpt lat="40.239200" lon="-4.911150">
        <ele>922.0</ele>
        <time>2015-08-02T11:36:44Z</time>
      </trkpt>
      <trkpt lat="40.239167" lon="-4.911283">
        <ele>921.0</ele>
        <time>2015-08-02T11:36:45Z</time>
      </trkpt>
      <trkpt lat="40.239167" lon="-4.911433">
        <ele>921.0</ele>
        <time>2015-08-02T11:36:46Z</time>
      </trkpt>
      <trkpt lat="40.239167" lon="-4.911567">
        <ele>922.0</ele>
        <time>2015-08-02T11:36:47Z</time>
      </trkpt>
      <trkpt lat="40.239200" lon="-4.911683">
        <ele>923.0</ele>
        <time>2015-08-02T11:36:48Z</time>
      </trkpt>
      <trkpt lat="40.239250" lon="-4.911783">
        <ele>923.0</ele>
        <time>2015-08-02T11:36:49Z</time>
      </trkpt>
      <trkpt lat="40.239333" lon="-4.911900">
        <ele>923.0</ele>
        <time>2015-08-02T11:36:50Z</time>
      </trkpt>
      <trkpt lat="40.239383" lon="-4.911950">
        <ele>923.0</ele>
        <time>2015-08-02T11:36:51Z</time>
      </trkpt>
      <trkpt lat="40.239467" lon="-4.912000">
        <ele>923.0</ele>
        <time>2015-08-02T11:36:52Z</time>
      </trkpt>
      <trkpt lat="40.239567" lon="-4.912017">
        <ele>923.0</ele>
        <time>2015-08-02T11:36:53Z</time>
      </trkpt>
      <trkpt lat="40.239633" lon="-4.912000">
        <ele>922.0</ele>
        <time>2015-08-02T11:36:54Z</time>
      </trkpt>
      <trkpt lat="40.239717" lon="-4.911967">
        <ele>921.0</ele>
        <time>2015-08-02T11:36:55Z</time>
      </trkpt>
      <trkpt lat="40.239783" lon="-4.911900">
        <ele>921.0</ele>
        <time>2015-08-02T11:36:56Z</time>
      </trkpt>
      <trkpt lat="40.239850" lon="-4.911800">
        <ele>921.0</ele>
        <time>2015-08-02T11:36:57Z</time>
      </trkpt>
      <trkpt lat="40.239883" lon="-4.911700">
        <ele>922.0</ele>
        <time>2015-08-02T11:36:58Z</time>
      </trkpt>
      <trkpt lat="40.239917" lon="-4.911600">
        <ele>923.0</ele>
        <time>2015-08-02T11:36:59Z</time>
      </trkpt>
      <trkpt lat="40.239917" lon="-4.911500">
        <ele>924.0</ele>
        <time>2015-08-02T11:37:00Z</time>
      </trkpt>
      <trkpt lat="40.239933" lon="-4.911417">
        <ele>925.0</ele>
        <time>2015-08-02T11:37:01Z</time>
      </trkpt>
      <trkpt lat="40.239917" lon="-4.911317">
        <ele>925.0</ele>
        <time>2015-08-02T11:37:02Z</time>
      </trkpt>
      <trkpt lat="40.239883" lon="-4.911217">
        <ele>926.0</ele>
        <time>2015-08-02T11:37:03Z</time>
      </trkpt>
      <trkpt lat="40.239850" lon="-4.911117">
        <ele>926.0</ele>
        <time>2015-08-02T11:37:04Z</time>
      </trkpt>
      <trkpt lat="40.239800" lon="-4.911033">
        <ele>927.0</ele>
        <time>2015-08-02T11:37:05Z</time>
      </trkpt>
      <trkpt lat="40.239750" lon="-4.910967">
        <ele>929.0</ele>
        <time>2015-08-02T11:37:06Z</time>
      </trkpt>
      <trkpt lat="40.239683" lon="-4.910917">
        <ele>930.0</ele>
        <time>2015-08-02T11:37:07Z</time>
      </trkpt>
      <trkpt lat="40.239617" lon="-4.910917">
        <ele>931.0</ele>
        <time>2015-08-02T11:37:08Z</time>
      </trkpt>
      <trkpt lat="40.239533" lon="-4.910933">
        <ele>931.0</ele>
        <time>2015-08-02T11:37:09Z</time>
      </trkpt>
      <trkpt lat="40.239433" lon="-4.911017">
        <ele>931.0</ele>
        <time>2015-08-02T11:37:10Z</time>
      </trkpt>
      <trkpt lat="40.239383" lon="-4.911083">
        <ele>932.0</ele>
        <time>2015-08-02T11:37:11Z</time>
      </trkpt>
      <trkpt lat="40.239333" lon="-4.911183">
        <ele>932.0</ele>
        <time>2015-08-02T11:37:12Z</time>
      </trkpt>
      <trkpt lat="40.239317" lon="-4.911317">
        <ele>931.0</ele>
        <time>2015-08-02T11:37:13Z</time>
      </trkpt>
      <trkpt lat="40.239317" lon="-4.911483">
        <ele>929.0</ele>
        <time>2015-08-02T11:37:14Z</time>
      </trkpt>
      <trkpt lat="40.239350" lon="-4.911633">
        <ele>929.0</ele>
        <time>2015-08-02T11:37:15Z</time>
      </trkpt>
      <trkpt lat="40.239400" lon="-4.911750">
        <ele>930.0</ele>
        <time>2015-08-02T11:37:16Z</time>
      </trkpt>
      <trkpt lat="40.239467" lon="-4.911850">
        <ele>931.0</ele>
        <time>2015-08-02T11:37:17Z</time>
      </trkpt>
      <trkpt lat="40.239533" lon="-4.911900">
        <ele>930.0</ele>
        <time>2015-08-02T11:37:18Z</time>
      </trkpt>
      <trkpt lat="40.239633" lon="-4.911933">
        <ele>930.0</ele>
        <time>2015-08-02T11:37:19Z</time>
      </trkpt>
      <trkpt lat="40.239733" lon="-4.911917">
        <ele>931.0</ele>
        <time>2015-08-02T11:37:20Z</time>
      </trkpt>
      <trkpt lat="40.239817" lon="-4.911883">
        <ele>932.0</ele>
        <time>2015-08-02T11:37:21Z</time>
      </trkpt>
      <trkpt lat="40.239883" lon="-4.911817">
        <ele>933.0</ele>
        <time>2015-08-02T11:37:22Z</time>
      </trkpt>
      <trkpt lat="40.239950" lon="-4.911750">
        <ele>934.0</ele>
        <time>2015-08-02T11:37:23Z</time>
      </trkpt>
      <trkpt lat="40.239983" lon="-4.911667">
        <ele>934.0</ele>
        <time>2015-08-02T11:37:24Z</time>
      </trkpt>
      <trkpt lat="40.240017" lon="-4.911533">
        <ele>934.0</ele>
        <time>2015-08-02T11:37:25Z</time>
      </trkpt>
      <trkpt lat="40.240033" lon="-4.911450">
        <ele>935.0</ele>
        <time>2015-08-02T11:37:26Z</time>
      </trkpt>
      <trkpt lat="40.240067" lon="-4.911350">
        <ele>935.0</ele>
        <time>2015-08-02T11:37:27Z</time>
      </trkpt>
      <trkpt lat="40.240067" lon="-4.911233">
        <ele>936.0</ele>
        <time>2015-08-02T11:37:28Z</time>
      </trkpt>
      <trkpt lat="40.240067" lon="-4.911117">
        <ele>937.0</ele>
        <time>2015-08-02T11:37:29Z</time>
      </trkpt>
      <trkpt lat="40.240017" lon="-4.911000">
        <ele>938.0</ele>
        <time>2015-08-02T11:37:30Z</time>
      </trkpt>
      <trkpt lat="40.239967" lon="-4.910900">
        <ele>938.0</ele>
        <time>2015-08-02T11:37:31Z</time>
      </trkpt>
      <trkpt lat="40.239917" lon="-4.910800">
        <ele>939.0</ele>
        <time>2015-08-02T11:37:32Z</time>
      </trkpt>
      <trkpt lat="40.239867" lon="-4.910717">
        <ele>941.0</ele>
        <time>2015-08-02T11:37:33Z</time>
      </trkpt>
      <trkpt lat="40.239817" lon="-4.910633">
        <ele>943.0</ele>
        <time>2015-08-02T11:37:34Z</time>
      </trkpt>
      <trkpt lat="40.239767" lon="-4.910550">
        <ele>944.0</ele>
        <time>2015-08-02T11:37:35Z</time>
      </trkpt>
      <trkpt lat="40.239700" lon="-4.910500">
        <ele>945.0</ele>
        <time>2015-08-02T11:37:36Z</time>
      </trkpt>
      <trkpt lat="40.239583" lon="-4.910467">
        <ele>945.0</ele>
        <time>2015-08-02T11:37:37Z</time>
      </trkpt>
      <trkpt lat="40.239500" lon="-4.910483">
        <ele>946.0</ele>
        <time>2015-08-02T11:37:38Z</time>
      </trkpt>
      <trkpt lat="40.239417" lon="-4.910533">
        <ele>947.0</ele>
        <time>2015-08-02T11:37:39Z</time>
      </trkpt>
      <trkpt lat="40.239333" lon="-4.910617">
        <ele>949.0</ele>
        <time>2015-08-02T11:37:40Z</time>
      </trkpt>
      <trkpt lat="40.239300" lon="-4.910717">
        <ele>949.0</ele>
        <time>2015-08-02T11:37:41Z</time>
      </trkpt>
      <trkpt lat="40.239267" lon="-4.910850">
        <ele>948.0</ele>
        <time>2015-08-02T11:37:42Z</time>
      </trkpt>
      <trkpt lat="40.239250" lon="-4.910983">
        <ele>948.0</ele>
        <time>2015-08-02T11:37:43Z</time>
      </trkpt>
      <trkpt lat="40.239233" lon="-4.911133">
        <ele>948.0</ele>
        <time>2015-08-02T11:37:44Z</time>
      </trkpt>
      <trkpt lat="40.239250" lon="-4.911283">
        <ele>949.0</ele>
        <time>2015-08-02T11:37:45Z</time>
      </trkpt>
      <trkpt lat="40.239283" lon="-4.911417">
        <ele>950.0</ele>
        <time>2015-08-02T11:37:46Z</time>
      </trkpt>
      <trkpt lat="40.239350" lon="-4.911517">
        <ele>952.0</ele>
        <time>2015-08-02T11:37:47Z</time>
      </trkpt>
      <trkpt lat="40.239417" lon="-4.911617">
        <ele>954.0</ele>
        <time>2015-08-02T11:37:48Z</time>
      </trkpt>
      <trkpt lat="40.239483" lon="-4.911683">
        <ele>956.0</ele>
        <time>2015-08-02T11:37:49Z</time>
      </trkpt>
      <trkpt lat="40.239550" lon="-4.911733">
        <ele>958.0</ele>
        <time>2015-08-02T11:37:50Z</time>
      </trkpt>
      <trkpt lat="40.239617" lon="-4.911750">
        <ele>959.0</ele>
        <time>2015-08-02T11:37:51Z</time>
      </trkpt>
      <trkpt lat="40.239700" lon="-4.911733">
        <ele>959.0</ele>
        <time>2015-08-02T11:37:52Z</time>
      </trkpt>
      <trkpt lat="40.239783" lon="-4.911683">
        <ele>958.0</ele>
        <time>2015-08-02T11:37:53Z</time>
      </trkpt>
      <trkpt lat="40.239850" lon="-4.911600">
        <ele>959.0</ele>
        <time>2015-08-02T11:37:54Z</time>
      </trkpt>
      <trkpt lat="40.239900" lon="-4.911500">
        <ele>960.0</ele>
        <time>2015-08-02T11:37:55Z</time>
      </trkpt>
      <trkpt lat="40.239933" lon="-4.911400">
        <ele>962.0</ele>
        <time>2015-08-02T11:37:56Z</time>
      </trkpt>
      <trkpt lat="40.239933" lon="-4.911300">
        <ele>963.0</ele>
        <time>2015-08-02T11:37:57Z</time>
      </trkpt>
      <trkpt lat="40.239933" lon="-4.911200">
        <ele>964.0</ele>
        <time>2015-08-02T11:37:58Z</time>
      </trkpt>
      <trkpt lat="40.239917" lon="-4.911100">
        <ele>965.0</ele>
        <time>2015-08-02T11:37:59Z</time>
      </trkpt>
      <trkpt lat="40.239883" lon="-4.910983">
        <ele>967.0</ele>
        <time>2015-08-02T11:38:00Z</time>
      </trkpt>
      <trkpt lat="40.239833" lon="-4.910900">
        <ele>968.0</ele>
        <time>2015-08-02T11:38:01Z</time>
      </trkpt>
      <trkpt lat="40.239767" lon="-4.910800">
        <ele>969.0</ele>
        <time>2015-08-02T11:38:02Z</time>
      </trkpt>
      <trkpt lat="40.239700" lon="-4.910733">
        <ele>972.0</ele>
        <time>2015-08-02T11:38:03Z</time>
      </trkpt>
      <trkpt lat="40.239650" lon="-4.910667">
        <ele>974.0</ele>
        <time>2015-08-02T11:38:04Z</time>
      </trkpt>
      <trkpt lat="40.239583" lon="-4.910617">
        <ele>977.0</ele>
        <time>2015-08-02T11:38:05Z</time>
      </trkpt>
      <trkpt lat="40.239533" lon="-4.910583">
        <ele>979.0</ele>
        <time>2015-08-02T11:38:06Z</time>
      </trkpt>
      <trkpt lat="40.239450" lon="-4.910600">
        <ele>978.0</ele>
        <time>2015-08-02T11:38:07Z</time>
      </trkpt>
      <trkpt lat="40.239383" lon="-4.910650">
        <ele>977.0</ele>
        <time>2015-08-02T11:38:08Z</time>
      </trkpt>
      <trkpt lat="40.239300" lon="-4.910717">
        <ele>977.0</ele>
        <time>2015-08-02T11:38:09Z</time>
      </trkpt>
      <trkpt lat="40.239233" lon="-4.910833">
        <ele>977.0</ele>
        <time>2015-08-02T11:38:10Z</time>
      </trkpt>
      <trkpt lat="40.239200" lon="-4.910950">
        <ele>976.0</ele>
        <time>2015-08-02T11:38:11Z</time>
      </trkpt>
      <trkpt lat="40.239200" lon="-4.911083">
        <ele>975.0</ele>
        <time>2015-08-02T11:38:12Z</time>
      </trkpt>
      <trkpt lat="40.239200" lon="-4.911233">
        <ele>974.0</ele>
        <time>2015-08-02T11:38:13Z</time>
      </trkpt>
      <trkpt lat="40.239233" lon="-4.911383">
        <ele>973.0</ele>
        <time>2015-08-02T11:38:14Z</time>
      </trkpt>
      <trkpt lat="40.239300" lon="-4.911517">
        <ele>973.0</ele>
        <time>2015-08-02T11:38:15Z</time>
      </trkpt>
      <trkpt lat="40.239383" lon="-4.911633">
        <ele>973.0</ele>
        <time>2015-08-02T11:38:16Z</time>
      </trkpt>
      <trkpt lat="40.239467" lon="-4.911700">
        <ele>974.0</ele>
        <time>2015-08-02T11:38:17Z</time>
      </trkpt>
      <trkpt lat="40.239550" lon="-4.911767">
        <ele>976.0</ele>
        <time>2015-08-02T11:38:18Z</time>
      </trkpt>
      <trkpt lat="40.239633" lon="-4.911817">
        <ele>977.0</ele>
        <time>2015-08-02T11:38:19Z</time>
      </trkpt>
      <trkpt lat="40.239717" lon="-4.911850">
        <ele>978.0</ele>
        <time>2015-08-02T11:38:20Z</time>
      </trkpt>
      <trkpt lat="40.239800" lon="-4.911850">
        <ele>979.0</ele>
        <time>2015-08-02T11:38:21Z</time>
      </trkpt>
      <trkpt lat="40.239900" lon="-4.911850">
        <ele>980.0</ele>
        <time>2015-08-02T11:38:22Z</time>
      </trkpt>
      <trkpt lat="40.239950" lon="-4.911817">
        <ele>981.0</ele>
        <time>2015-08-02T11:38:23Z</time>
      </trkpt>
      <trkpt lat="40.240000" lon="-4.911783">
        <ele>982.0</ele>
        <time>2015-08-02T11:38:24Z</time>
      </trkpt>
      <trkpt lat="40.240067" lon="-4.911717">
        <ele>983.0</ele>
        <time>2015-08-02T11:38:25Z</time>
      </trkpt>
      <trkpt lat="40.240117" lon="-4.911650">
        <ele>984.0</ele>
        <time>2015-08-02T11:38:26Z</time>
      </trkpt>
      <trkpt lat="40.240150" lon="-4.911567">
        <ele>985.0</ele>
        <time>2015-08-02T11:38:27Z</time>
      </trkpt>
      <trkpt lat="40.240200" lon="-4.911500">
        <ele>987.0</ele>
        <time>2015-08-02T11:38:28Z</time>
      </trkpt>
      <trkpt lat="40.240250" lon="-4.911433">
        <ele>988.0</ele>
        <time>2015-08-02T11:38:29Z</time>
      </trkpt>
      <trkpt lat="40.240300" lon="-4.911350">
        <ele>989.0</ele>
        <time>2015-08-02T11:38:30Z</time>
      </trkpt>
      <trkpt lat="40.240333" lon="-4.911267">
        <ele>989.0</ele>
        <time>2015-08-02T11:38:31Z</time>
      </trkpt>
      <trkpt lat="40.240333" lon="-4.911167">
        <ele>989.0</ele>
        <time>2015-08-02T11:38:32Z</time>
      </trkpt>
      <trkpt lat="40.240317" lon="-4.911050">
        <ele>989.0</ele>
        <time>2015-08-02T11:38:33Z</time>
      </trkpt>
      <trkpt lat="40.240317" lon="-4.911050">
        <ele>989.0</ele>
        <time>2015-08-02T11:38:33Z</time>
      </trkpt>
      <trkpt lat="40.240283" lon="-4.910950">
        <ele>989.0</ele>
        <time>2015-08-02T11:38:34Z</time>
      </trkpt>
      <trkpt lat="40.240250" lon="-4.910833">
        <ele>992.0</ele>
        <time>2015-08-02T11:38:35Z</time>
      </trkpt>
      <trkpt lat="40.240217" lon="-4.910750">
        <ele>995.0</ele>
        <time>2015-08-02T11:38:36Z</time>
      </trkpt>
      <trkpt lat="40.240200" lon="-4.910650">
        <ele>997.0</ele>
        <time>2015-08-02T11:38:37Z</time>
      </trkpt>
      <trkpt lat="40.240183" lon="-4.910550">
        <ele>999.0</ele>
        <time>2015-08-02T11:38:38Z</time>
      </trkpt>
      <trkpt lat="40.240183" lon="-4.910450">
        <ele>1001.0</ele>
        <time>2015-08-02T11:38:39Z</time>
      </trkpt>
      <trkpt lat="40.240150" lon="-4.910367">
        <ele>1002.0</ele>
        <time>2015-08-02T11:38:40Z</time>
      </trkpt>
      <trkpt lat="40.240100" lon="-4.910300">
        <ele>1002.0</ele>
        <time>2015-08-02T11:38:41Z</time>
      </trkpt>
      <trkpt lat="40.240017" lon="-4.910300">
        <ele>1001.0</ele>
        <time>2015-08-02T11:38:42Z</time>
      </trkpt>
      <trkpt lat="40.239917" lon="-4.910350">
        <ele>1001.0</ele>
        <time>2015-08-02T11:38:43Z</time>
      </trkpt>
      <trkpt lat="40.239833" lon="-4.910467">
        <ele>1002.0</ele>
        <time>2015-08-02T11:38:44Z</time>
      </trkpt>
      <trkpt lat="40.239783" lon="-4.910617">
        <ele>1003.0</ele>
        <time>2015-08-02T11:38:45Z</time>
      </trkpt>
      <trkpt lat="40.239767" lon="-4.910767">
        <ele>1005.0</ele>
        <time>2015-08-02T11:38:46Z</time>
      </trkpt>
      <trkpt lat="40.239783" lon="-4.910933">
        <ele>1007.0</ele>
        <time>2015-08-02T11:38:47Z</time>
      </trkpt>
      <trkpt lat="40.239833" lon="-4.911067">
        <ele>1009.0</ele>
        <time>2015-08-02T11:38:48Z</time>
      </trkpt>
      <trkpt lat="40.239917" lon="-4.911167">
        <ele>1011.0</ele>
        <time>2015-08-02T11:38:49Z</time>
      </trkpt>
      <trkpt lat="40.240000" lon="-4.911233">
        <ele>1011.0</ele>
        <time>2015-08-02T11:38:50Z</time>
      </trkpt>
      <trkpt lat="40.240100" lon="-4.911283">
        <ele>1011.0</ele>
        <time>2015-08-02T11:38:51Z</time>
      </trkpt>
      <trkpt lat="40.240217" lon="-4.911267">
        <ele>1011.0</ele>
        <time>2015-08-02T11:38:52Z</time>
      </trkpt>
      <trkpt lat="40.240317" lon="-4.911200">
        <ele>1012.0</ele>
        <time>2015-08-02T11:38:53Z</time>
      </trkpt>
      <trkpt lat="40.240400" lon="-4.911117">
        <ele>1014.0</ele>
        <time>2015-08-02T11:38:54Z</time>
      </trkpt>
      <trkpt lat="40.240467" lon="-4.911050">
        <ele>1018.0</ele>
        <time>2015-08-02T11:38:55Z</time>
      </trkpt>
      <trkpt lat="40.240533" lon="-4.910983">
        <ele>1021.0</ele>
        <time>2015-08-02T11:38:56Z</time>
      </trkpt>
      <trkpt lat="40.240600" lon="-4.910933">
        <ele>1023.0</ele>
        <time>2015-08-02T11:38:57Z</time>
      </trkpt>
      <trkpt lat="40.240667" lon="-4.910850">
        <ele>1025.0</ele>
        <time>2015-08-02T11:38:58Z</time>
      </trkpt>
      <trkpt lat="40.240717" lon="-4.910767">
        <ele>1027.0</ele>
        <time>2015-08-02T11:38:59Z</time>
      </trkpt>
      <trkpt lat="40.240750" lon="-4.910667">
        <ele>1028.0</ele>
        <time>2015-08-02T11:39:00Z</time>
      </trkpt>
      <trkpt lat="40.240750" lon="-4.910550">
        <ele>1029.0</ele>
        <time>2015-08-02T11:39:01Z</time>
      </trkpt>
      <trkpt lat="40.240700" lon="-4.910433">
        <ele>1029.0</ele>
        <time>2015-08-02T11:39:02Z</time>
      </trkpt>
      <trkpt lat="40.240633" lon="-4.910367">
        <ele>1029.0</ele>
        <time>2015-08-02T11:39:03Z</time>
      </trkpt>
      <trkpt lat="40.240533" lon="-4.910350">
        <ele>1034.0</ele>
        <time>2015-08-02T11:39:04Z</time>
      </trkpt>
      <trkpt lat="40.240433" lon="-4.910383">
        <ele>1037.0</ele>
        <time>2015-08-02T11:39:05Z</time>
      </trkpt>
      <trkpt lat="40.240350" lon="-4.910467">
        <ele>1040.0</ele>
        <time>2015-08-02T11:39:06Z</time>
      </trkpt>
      <trkpt lat="40.240300" lon="-4.910583">
        <ele>1044.0</ele>
        <time>2015-08-02T11:39:07Z</time>
      </trkpt>
      <trkpt lat="40.240283" lon="-4.910683">
        <ele>1047.0</ele>
        <time>2015-08-02T11:39:08Z</time>
      </trkpt>
      <trkpt lat="40.240283" lon="-4.910800">
        <ele>1049.0</ele>
        <time>2015-08-02T11:39:09Z</time>
      </trkpt>
      <trkpt lat="40.240317" lon="-4.910933">
        <ele>1049.0</ele>
        <time>2015-08-02T11:39:10Z</time>
      </trkpt>
      <trkpt lat="40.240383" lon="-4.911050">
        <ele>1049.0</ele>
        <time>2015-08-02T11:39:11Z</time>
      </trkpt>
      <trkpt lat="40.240467" lon="-4.911150">
        <ele>1050.0</ele>
        <time>2015-08-02T11:39:12Z</time>
      </trkpt>
      <trkpt lat="40.240583" lon="-4.911217">
        <ele>1051.0</ele>
        <time>2015-08-02T11:39:13Z</time>
      </trkpt>
      <trkpt lat="40.240683" lon="-4.911250">
        <ele>1054.0</ele>
        <time>2015-08-02T11:39:14Z</time>
      </trkpt>
      <trkpt lat="40.240767" lon="-4.911267">
        <ele>1056.0</ele>
        <time>2015-08-02T11:39:15Z</time>
      </trkpt>
      <trkpt lat="40.240850" lon="-4.911250">
        <ele>1058.0</ele>
        <time>2015-08-02T11:39:16Z</time>
      </trkpt>
      <trkpt lat="40.240917" lon="-4.911217">
        <ele>1058.0</ele>
        <time>2015-08-02T11:39:17Z</time>
      </trkpt>
      <trkpt lat="40.240983" lon="-4.911150">
        <ele>1058.0</ele>
        <time>2015-08-02T11:39:18Z</time>
      </trkpt>
      <trkpt lat="40.241017" lon="-4.911050">
        <ele>1057.0</ele>
        <time>2015-08-02T11:39:19Z</time>
      </trkpt>
      <trkpt lat="40.241050" lon="-4.910933">
        <ele>1055.0</ele>
        <time>2015-08-02T11:39:20Z</time>
      </trkpt>
      <trkpt lat="40.241033" lon="-4.910800">
        <ele>1055.0</ele>
        <time>2015-08-02T11:39:21Z</time>
      </trkpt>
      <trkpt lat="40.240983" lon="-4.910683">
        <ele>1056.0</ele>
        <time>2015-08-02T11:39:22Z</time>
      </trkpt>
      <trkpt lat="40.240900" lon="-4.910583">
        <ele>1058.0</ele>
        <time>2015-08-02T11:39:23Z</time>
      </trkpt>
      <trkpt lat="40.240800" lon="-4.910533">
        <ele>1061.0</ele>
        <time>2015-08-02T11:39:24Z</time>
      </trkpt>
      <trkpt lat="40.240700" lon="-4.910500">
        <ele>1065.0</ele>
        <time>2015-08-02T11:39:25Z</time>
      </trkpt>
      <trkpt lat="40.240617" lon="-4.910483">
        <ele>1069.0</ele>
        <time>2015-08-02T11:39:26Z</time>
      </trkpt>
      <trkpt lat="40.240533" lon="-4.910467">
        <ele>1072.0</ele>
        <time>2015-08-02T11:39:27Z</time>
      </trkpt>
      <trkpt lat="40.240467" lon="-4.910433">
        <ele>1075.0</ele>
        <time>2015-08-02T11:39:28Z</time>
      </trkpt>
      <trkpt lat="40.240400" lon="-4.910417">
        <ele>1076.0</ele>
        <time>2015-08-02T11:39:29Z</time>
      </trkpt>
      <trkpt lat="40.240317" lon="-4.910417">
        <ele>1076.0</ele>
        <time>2015-08-02T11:39:30Z</time>
      </trkpt>
      <trkpt lat="40.240217" lon="-4.910467">
        <ele>1076.0</ele>
        <time>2015-08-02T11:39:31Z</time>
      </trkpt>
      <trkpt lat="40.240133" lon="-4.910583">
        <ele>1076.0</ele>
        <time>2015-08-02T11:39:32Z</time>
      </trkpt>
      <trkpt lat="40.240067" lon="-4.910717">
        <ele>1078.0</ele>
        <time>2015-08-02T11:39:33Z</time>
      </trkpt>
      <trkpt lat="40.240050" lon="-4.910883">
        <ele>1081.0</ele>
        <time>2015-08-02T11:39:34Z</time>
      </trkpt>
      <trkpt lat="40.240067" lon="-4.911017">
        <ele>1084.0</ele>
        <time>2015-08-02T11:39:35Z</time>
      </trkpt>
      <trkpt lat="40.240117" lon="-4.911117">
        <ele>1086.0</ele>
        <time>2015-08-02T11:39:36Z</time>
      </trkpt>
      <trkpt lat="40.240200" lon="-4.911200">
        <ele>1086.0</ele>
        <time>2015-08-02T11:39:37Z</time>
      </trkpt>
      <trkpt lat="40.240317" lon="-4.911217">
        <ele>1086.0</ele>
        <time>2015-08-02T11:39:38Z</time>
      </trkpt>
      <trkpt lat="40.240417" lon="-4.911183">
        <ele>1087.0</ele>
        <time>2015-08-02T11:39:39Z</time>
      </trkpt>
      <trkpt lat="40.240517" lon="-4.911117">
        <ele>1089.0</ele>
        <time>2015-08-02T11:39:40Z</time>
      </trkpt>
      <trkpt lat="40.240567" lon="-4.911017">
        <ele>1092.0</ele>
        <time>2015-08-02T11:39:41Z</time>
      </trkpt>
      <trkpt lat="40.240583" lon="-4.910900">
        <ele>1096.0</ele>
        <time>2015-08-02T11:39:42Z</time>
      </trkpt>
      <trkpt lat="40.240567" lon="-4.910783">
        <ele>1099.0</ele>
        <time>2015-08-02T11:39:43Z</time>
      </trkpt>
      <trkpt lat="40.240533" lon="-4.910683">
        <ele>1101.0</ele>
        <time>2015-08-02T11:39:44Z</time>
      </trkpt>
      <trkpt lat="40.240483" lon="-4.910583">
        <ele>1103.0</ele>
        <time>2015-08-02T11:39:45Z</time>
      </trkpt>
      <trkpt lat="40.240417" lon="-4.910500">
        <ele>1106.0</ele>
        <time>2015-08-02T11:39:46Z</time>
      </trkpt>
      <trkpt lat="40.240333" lon="-4.910467">
        <ele>1108.0</ele>
        <time>2015-08-02T11:39:47Z</time>
      </trkpt>
      <trkpt lat="40.240233" lon="-4.910450">
        <ele>1109.0</ele>
        <time>2015-08-02T11:39:48Z</time>
      </trkpt>
      <trkpt lat="40.240117" lon="-4.910467">
        <ele>1110.0</ele>
        <time>2015-08-02T11:39:49Z</time>
      </trkpt>
      <trkpt lat="40.240017" lon="-4.910533">
        <ele>1112.0</ele>
        <time>2015-08-02T11:39:50Z</time>
      </trkpt>
      <trkpt lat="40.239917" lon="-4.910633">
        <ele>1115.0</ele>
        <time>2015-08-02T11:39:51Z</time>
      </trkpt>
      <trkpt lat="40.239867" lon="-4.910750">
        <ele>1118.0</ele>
        <time>2015-08-02T11:39:52Z</time>
      </trkpt>
      <trkpt lat="40.239867" lon="-4.910883">
        <ele>1120.0</ele>
        <time>2015-08-02T11:39:53Z</time>
      </trkpt>
      <trkpt lat="40.239900" lon="-4.911000">
        <ele>1121.0</ele>
        <time>2015-08-02T11:39:54Z</time>
      </trkpt>
      <trkpt lat="40.239950" lon="-4.911117">
        <ele>1121.0</ele>
        <time>2015-08-02T11:39:55Z</time>
      </trkpt>
      <trkpt lat="40.240033" lon="-4.911217">
        <ele>1122.0</ele>
        <time>2015-08-02T11:39:56Z</time>
      </trkpt>
      <trkpt lat="40.240117" lon="-4.911283">
        <ele>1124.0</ele>
        <time>2015-08-02T11:39:57Z</time>
      </trkpt>
      <trkpt lat="40.240217" lon="-4.911283">
        <ele>1127.0</ele>
        <time>2015-08-02T11:39:58Z</time>
      </trkpt>
      <trkpt lat="40.240283" lon="-4.911250">
        <ele>1128.0</ele>
        <time>2015-08-02T11:39:59Z</time>
      </trkpt>
      <trkpt lat="40.240350" lon="-4.911150">
        <ele>1128.0</ele>
        <time>2015-08-02T11:40:00Z</time>
      </trkpt>
      <trkpt lat="40.240400" lon="-4.911017">
        <ele>1128.0</ele>
        <time>2015-08-02T11:40:01Z</time>
      </trkpt>
      <trkpt lat="40.240417" lon="-4.910867">
        <ele>1130.0</ele>
        <time>2015-08-02T11:40:02Z</time>
      </trkpt>
      <trkpt lat="40.240400" lon="-4.910717">
        <ele>1133.0</ele>
        <time>2015-08-02T11:40:03Z</time>
      </trkpt>
      <trkpt lat="40.240367" lon="-4.910600">
        <ele>1137.0</ele>
        <time>2015-08-02T11:40:04Z</time>
      </trkpt>
      <trkpt lat="40.240300" lon="-4.910500">
        <ele>1142.0</ele>
        <time>2015-08-02T11:40:05Z</time>
      </trkpt>
      <trkpt lat="40.240250" lon="-4.910450">
        <ele>1145.0</ele>
        <time>2015-08-02T11:40:06Z</time>
      </trkpt>
      <trkpt lat="40.240217" lon="-4.910383">
        <ele>1147.0</ele>
        <time>2015-08-02T11:40:07Z</time>
      </trkpt>
      <trkpt lat="40.240183" lon="-4.910317">
        <ele>1149.0</ele>
        <time>2015-08-02T11:40:08Z</time>
      </trkpt>
      <trkpt lat="40.240150" lon="-4.910250">
        <ele>1148.0</ele>
        <time>2015-08-02T11:40:09Z</time>
      </trkpt>
      <trkpt lat="40.240083" lon="-4.910200">
        <ele>1146.0</ele>
        <time>2015-08-02T11:40:10Z</time>
      </trkpt>
      <trkpt lat="40.240017" lon="-4.910183">
        <ele>1144.0</ele>
        <time>2015-08-02T11:40:11Z</time>
      </trkpt>
      <trkpt lat="40.239933" lon="-4.910200">
        <ele>1143.0</ele>
        <time>2015-08-02T11:40:12Z</time>
      </trkpt>
      <trkpt lat="40.239850" lon="-4.910267">
        <ele>1141.0</ele>
        <time>2015-08-02T11:40:13Z</time>
      </trkpt>
      <trkpt lat="40.239800" lon="-4.910400">
        <ele>1139.0</ele>
        <time>2015-08-02T11:40:14Z</time>
      </trkpt>
      <trkpt lat="40.239817" lon="-4.910550">
        <ele>1137.0</ele>
        <time>2015-08-02T11:40:15Z</time>
      </trkpt>
      <trkpt lat="40.239883" lon="-4.910683">
        <ele>1135.0</ele>
        <time>2015-08-02T11:40:16Z</time>
      </trkpt>
      <trkpt lat="40.239983" lon="-4.910767">
        <ele>1135.0</ele>
        <time>2015-08-02T11:40:17Z</time>
      </trkpt>
      <trkpt lat="40.240100" lon="-4.910833">
        <ele>1135.0</ele>
        <time>2015-08-02T11:40:18Z</time>
      </trkpt>
      <trkpt lat="40.240200" lon="-4.910917">
        <ele>1137.0</ele>
        <time>2015-08-02T11:40:19Z</time>
      </trkpt>
      <trkpt lat="40.240283" lon="-4.911017">
        <ele>1140.0</ele>
        <time>2015-08-02T11:40:20Z</time>
      </trkpt>
      <trkpt lat="40.240350" lon="-4.911117">
        <ele>1143.0</ele>
        <time>2015-08-02T11:40:21Z</time>
      </trkpt>
      <trkpt lat="40.240417" lon="-4.911183">
        <ele>1147.0</ele>
        <time>2015-08-02T11:40:22Z</time>
      </trkpt>
      <trkpt lat="40.240500" lon="-4.911233">
        <ele>1150.0</ele>
        <time>2015-08-02T11:40:23Z</time>
      </trkpt>
      <trkpt lat="40.240567" lon="-4.911267">
        <ele>1151.0</ele>
        <time>2015-08-02T11:40:24Z</time>
      </trkpt>
      <trkpt lat="40.240667" lon="-4.911267">
        <ele>1152.0</ele>
        <time>2015-08-02T11:40:25Z</time>
      </trkpt>
      <trkpt lat="40.240767" lon="-4.911250">
        <ele>1153.0</ele>
        <time>2015-08-02T11:40:26Z</time>
      </trkpt>
      <trkpt lat="40.240867" lon="-4.911183">
        <ele>1154.0</ele>
        <time>2015-08-02T11:40:27Z</time>
      </trkpt>
      <trkpt lat="40.240933" lon="-4.911083">
        <ele>1156.0</ele>
        <time>2015-08-02T11:40:28Z</time>
      </trkpt>
      <trkpt lat="40.241000" lon="-4.910983">
        <ele>1159.0</ele>
        <time>2015-08-02T11:40:29Z</time>
      </trkpt>
      <trkpt lat="40.241050" lon="-4.910900">
        <ele>1161.0</ele>
        <time>2015-08-02T11:40:30Z</time>
      </trkpt>
      <trkpt lat="40.241117" lon="-4.910850">
        <ele>1162.0</ele>
        <time>2015-08-02T11:40:31Z</time>
      </trkpt>
      <trkpt lat="40.241183" lon="-4.910767">
        <ele>1163.0</ele>
        <time>2015-08-02T11:40:32Z</time>
      </trkpt>
      <trkpt lat="40.241250" lon="-4.910667">
        <ele>1164.0</ele>
        <time>2015-08-02T11:40:33Z</time>
      </trkpt>
      <trkpt lat="40.241300" lon="-4.910550">
        <ele>1167.0</ele>
        <time>2015-08-02T11:40:34Z</time>
      </trkpt>
      <trkpt lat="40.241317" lon="-4.910433">
        <ele>1170.0</ele>
        <time>2015-08-02T11:40:35Z</time>
      </trkpt>
      <trkpt lat="40.241333" lon="-4.910333">
        <ele>1173.0</ele>
        <time>2015-08-02T11:40:36Z</time>
      </trkpt>
      <trkpt lat="40.241333" lon="-4.910217">
        <ele>1174.0</ele>
        <time>2015-08-02T11:40:37Z</time>
      </trkpt>
      <trkpt lat="40.241317" lon="-4.910117">
        <ele>1176.0</ele>
        <time>2015-08-02T11:40:38Z</time>
      </trkpt>
      <trkpt lat="40.241300" lon="-4.909983">
        <ele>1176.0</ele>
        <time>2015-08-02T11:40:39Z</time>
      </trkpt>
      <trkpt lat="40.241250" lon="-4.909867">
        <ele>1177.0</ele>
        <time>2015-08-02T11:40:40Z</time>
      </trkpt>
      <trkpt lat="40.241167" lon="-4.909783">
        <ele>1179.0</ele>
        <time>2015-08-02T11:40:41Z</time>
      </trkpt>
      <trkpt lat="40.241083" lon="-4.909717">
        <ele>1181.0</ele>
        <time>2015-08-02T11:40:42Z</time>
      </trkpt>
      <trkpt lat="40.241000" lon="-4.909683">
        <ele>1183.0</ele>
        <time>2015-08-02T11:40:43Z</time>
      </trkpt>
      <trkpt lat="40.240917" lon="-4.909650">
        <ele>1186.0</ele>
        <time>2015-08-02T11:40:44Z</time>
      </trkpt>
      <trkpt lat="40.240833" lon="-4.909617">
        <ele>1187.0</ele>
        <time>2015-08-02T11:40:45Z</time>
      </trkpt>
      <trkpt lat="40.240733" lon="-4.909600">
        <ele>1189.0</ele>
        <time>2015-08-02T11:40:46Z</time>
      </trkpt>
      <trkpt lat="40.240633" lon="-4.909600">
        <ele>1190.0</ele>
        <time>2015-08-02T11:40:47Z</time>
      </trkpt>
      <trkpt lat="40.240550" lon="-4.909650">
        <ele>1190.0</ele>
        <time>2015-08-02T11:40:48Z</time>
      </trkpt>
      <trkpt lat="40.240450" lon="-4.909700">
        <ele>1191.0</ele>
        <time>2015-08-02T11:40:49Z</time>
      </trkpt>
      <trkpt lat="40.240367" lon="-4.909767">
        <ele>1192.0</ele>
        <time>2015-08-02T11:40:50Z</time>
      </trkpt>
      <trkpt lat="40.240300" lon="-4.909850">
        <ele>1193.0</ele>
        <time>2015-08-02T11:40:51Z</time>
      </trkpt>
      <trkpt lat="40.240233" lon="-4.909950">
        <ele>1195.0</ele>
        <time>2015-08-02T11:40:52Z</time>
      </trkpt>
      <trkpt lat="40.240200" lon="-4.910067">
        <ele>1195.0</ele>
        <time>2015-08-02T11:40:53Z</time>
      </trkpt>
      <trkpt lat="40.240200" lon="-4.910183">
        <ele>1195.0</ele>
        <time>2015-08-02T11:40:54Z</time>
      </trkpt>
      <trkpt lat="40.240200" lon="-4.910300">
        <ele>1196.0</ele>
        <time>2015-08-02T11:40:55Z</time>
      </trkpt>
      <trkpt lat="40.240233" lon="-4.910417">
        <ele>1196.0</ele>
        <time>2015-08-02T11:40:56Z</time>
      </trkpt>
      <trkpt lat="40.240283" lon="-4.910533">
        <ele>1196.0</ele>
        <time>2015-08-02T11:40:57Z</time>
      </trkpt>
      <trkpt lat="40.240350" lon="-4.910617">
        <ele>1195.0</ele>
        <time>2015-08-02T11:40:58Z</time>
      </trkpt>
      <trkpt lat="40.240450" lon="-4.910683">
        <ele>1195.0</ele>
        <time>2015-08-02T11:40:59Z</time>
      </trkpt>
      <trkpt lat="40.240550" lon="-4.910700">
        <ele>1196.0</ele>
        <time>2015-08-02T11:41:00Z</time>
      </trkpt>
      <trkpt lat="40.240650" lon="-4.910700">
        <ele>1197.0</ele>
        <time>2015-08-02T11:41:01Z</time>
      </trkpt>
      <trkpt lat="40.240750" lon="-4.910683">
        <ele>1200.0</ele>
        <time>2015-08-02T11:41:02Z</time>
      </trkpt>
      <trkpt lat="40.240850" lon="-4.910650">
        <ele>1202.0</ele>
        <time>2015-08-02T11:41:03Z</time>
      </trkpt>
      <trkpt lat="40.240933" lon="-4.910600">
        <ele>1204.0</ele>
        <time>2015-08-02T11:41:04Z</time>
      </trkpt>
      <trkpt lat="40.241000" lon="-4.910550">
        <ele>1205.0</ele>
        <time>2015-08-02T11:41:05Z</time>
      </trkpt>
      <trkpt lat="40.241083" lon="-4.910483">
        <ele>1206.0</ele>
        <time>2015-08-02T11:41:06Z</time>
      </trkpt>
      <trkpt lat="40.241167" lon="-4.910400">
        <ele>1207.0</ele>
        <time>2015-08-02T11:41:07Z</time>
      </trkpt>
      <trkpt lat="40.241233" lon="-4.910300">
        <ele>1207.0</ele>
        <time>2015-08-02T11:41:08Z</time>
      </trkpt>
      <trkpt lat="40.241300" lon="-4.910183">
        <ele>1208.0</ele>
        <time>2015-08-02T11:41:09Z</time>
      </trkpt>
      <trkpt lat="40.241333" lon="-4.910033">
        <ele>1210.0</ele>
        <time>2015-08-02T11:41:10Z</time>
      </trkpt>
      <trkpt lat="40.241367" lon="-4.909900">
        <ele>1212.0</ele>
        <time>2015-08-02T11:41:11Z</time>
      </trkpt>
      <trkpt lat="40.241400" lon="-4.909783">
        <ele>1215.0</ele>
        <time>2015-08-02T11:41:12Z</time>
      </trkpt>
      <trkpt lat="40.241433" lon="-4.909667">
        <ele>1218.0</ele>
        <time>2015-08-02T11:41:13Z</time>
      </trkpt>
      <trkpt lat="40.241467" lon="-4.909567">
        <ele>1220.0</ele>
        <time>2015-08-02T11:41:14Z</time>
      </trkpt>
      <trkpt lat="40.241450" lon="-4.909467">
        <ele>1221.0</ele>
        <time>2015-08-02T11:41:15Z</time>
      </trkpt>
      <trkpt lat="40.241417" lon="-4.909383">
        <ele>1221.0</ele>
        <time>2015-08-02T11:41:16Z</time>
      </trkpt>
      <trkpt lat="40.241367" lon="-4.909300">
        <ele>1221.0</ele>
        <time>2015-08-02T11:41:17Z</time>
      </trkpt>
      <trkpt lat="40.241300" lon="-4.909250">
        <ele>1221.0</ele>
        <time>2015-08-02T11:41:18Z</time>
      </trkpt>
      <trkpt lat="40.241217" lon="-4.909233">
        <ele>1221.0</ele>
        <time>2015-08-02T11:41:19Z</time>
      </trkpt>
      <trkpt lat="40.241133" lon="-4.909217">
        <ele>1222.0</ele>
        <time>2015-08-02T11:41:20Z</time>
      </trkpt>
      <trkpt lat="40.241050" lon="-4.909250">
        <ele>1222.0</ele>
        <time>2015-08-02T11:41:21Z</time>
      </trkpt>
      <trkpt lat="40.240983" lon="-4.909300">
        <ele>1222.0</ele>
        <time>2015-08-02T11:41:22Z</time>
      </trkpt>
      <trkpt lat="40.240917" lon="-4.909400">
        <ele>1223.0</ele>
        <time>2015-08-02T11:41:23Z</time>
      </trkpt>
      <trkpt lat="40.240867" lon="-4.909500">
        <ele>1224.0</ele>
        <time>2015-08-02T11:41:24Z</time>
      </trkpt>
      <trkpt lat="40.240833" lon="-4.909617">
        <ele>1226.0</ele>
        <time>2015-08-02T11:41:25Z</time>
      </trkpt>
      <trkpt lat="40.240817" lon="-4.909733">
        <ele>1227.0</ele>
        <time>2015-08-02T11:41:26Z</time>
      </trkpt>
      <trkpt lat="40.240817" lon="-4.909833">
        <ele>1228.0</ele>
        <time>2015-08-02T11:41:27Z</time>
      </trkpt>
      <trkpt lat="40.240850" lon="-4.909933">
        <ele>1227.0</ele>
        <time>2015-08-02T11:41:28Z</time>
      </trkpt>
      <trkpt lat="40.240933" lon="-4.910017">
        <ele>1227.0</ele>
        <time>2015-08-02T11:41:29Z</time>
      </trkpt>
      <trkpt lat="40.241033" lon="-4.910050">
        <ele>1227.0</ele>
        <time>2015-08-02T11:41:30Z</time>
      </trkpt>
      <trkpt lat="40.241133" lon="-4.910033">
        <ele>1227.0</ele>
        <time>2015-08-02T11:41:31Z</time>
      </trkpt>
      <trkpt lat="40.241233" lon="-4.910000">
        <ele>1228.0</ele>
        <time>2015-08-02T11:41:32Z</time>
      </trkpt>
      <trkpt lat="40.241317" lon="-4.909917">
        <ele>1229.0</ele>
        <time>2015-08-02T11:41:33Z</time>
      </trkpt>
      <trkpt lat="40.241383" lon="-4.909833">
        <ele>1230.0</ele>
        <time>2015-08-02T11:41:34Z</time>
      </trkpt>
      <trkpt lat="40.241450" lon="-4.909733">
        <ele>1230.0</ele>
        <time>2015-08-02T11:41:35Z</time>
      </trkpt>
      <trkpt lat="40.241483" lon="-4.909633">
        <ele>1231.0</ele>
        <time>2015-08-02T11:41:36Z</time>
      </trkpt>
      <trkpt lat="40.241517" lon="-4.909533">
        <ele>1231.0</ele>
        <time>2015-08-02T11:41:37Z</time>
      </trkpt>
      <trkpt lat="40.241517" lon="-4.909433">
        <ele>1231.0</ele>
        <time>2015-08-02T11:41:38Z</time>
      </trkpt>
      <trkpt lat="40.241517" lon="-4.909317">
        <ele>1231.0</ele>
        <time>2015-08-02T11:41:39Z</time>
      </trkpt>
      <trkpt lat="40.241467" lon="-4.909217">
        <ele>1231.0</ele>
        <time>2015-08-02T11:41:40Z</time>
      </trkpt>
      <trkpt lat="40.241400" lon="-4.909117">
        <ele>1231.0</ele>
        <time>2015-08-02T11:41:41Z</time>
      </trkpt>
      <trkpt lat="40.241333" lon="-4.909050">
        <ele>1232.0</ele>
        <time>2015-08-02T11:41:42Z</time>
      </trkpt>
      <trkpt lat="40.241250" lon="-4.909017">
        <ele>1232.0</ele>
        <time>2015-08-02T11:41:43Z</time>
      </trkpt>
      <trkpt lat="40.241167" lon="-4.909017">
        <ele>1233.0</ele>
        <time>2015-08-02T11:41:44Z</time>
      </trkpt>
      <trkpt lat="40.241083" lon="-4.909033">
        <ele>1233.0</ele>
        <time>2015-08-02T11:41:45Z</time>
      </trkpt>
      <trkpt lat="40.241000" lon="-4.909083">
        <ele>1232.0</ele>
        <time>2015-08-02T11:41:46Z</time>
      </trkpt>
      <trkpt lat="40.240933" lon="-4.909133">
        <ele>1232.0</ele>
        <time>2015-08-02T11:41:47Z</time>
      </trkpt>
      <trkpt lat="40.240867" lon="-4.909217">
        <ele>1233.0</ele>
        <time>2015-08-02T11:41:48Z</time>
      </trkpt>
      <trkpt lat="40.240817" lon="-4.909300">
        <ele>1235.0</ele>
        <time>2015-08-02T11:41:49Z</time>
      </trkpt>
      <trkpt lat="40.240817" lon="-4.909400">
        <ele>1236.0</ele>
        <time>2015-08-02T11:41:50Z</time>
      </trkpt>
      <trkpt lat="40.240817" lon="-4.909500">
        <ele>1236.0</ele>
        <time>2015-08-02T11:41:51Z</time>
      </trkpt>
      <trkpt lat="40.240850" lon="-4.909600">
        <ele>1235.0</ele>
        <time>2015-08-02T11:41:52Z</time>
      </trkpt>
      <trkpt lat="40.240900" lon="-4.909683">
        <ele>1235.0</ele>
        <time>2015-08-02T11:41:53Z</time>
      </trkpt>
      <trkpt lat="40.240950" lon="-4.909733">
        <ele>1236.0</ele>
        <time>2015-08-02T11:41:54Z</time>
      </trkpt>
      <trkpt lat="40.241017" lon="-4.909767">
        <ele>1235.0</ele>
        <time>2015-08-02T11:41:55Z</time>
      </trkpt>
      <trkpt lat="40.241100" lon="-4.909783">
        <ele>1233.0</ele>
        <time>2015-08-02T11:41:56Z</time>
      </trkpt>
      <trkpt lat="40.241200" lon="-4.909783">
        <ele>1232.0</ele>
        <time>2015-08-02T11:41:57Z</time>
      </trkpt>
      <trkpt lat="40.241300" lon="-4.909750">
        <ele>1231.0</ele>
        <time>2015-08-02T11:41:58Z</time>
      </trkpt>
      <trkpt lat="40.241400" lon="-4.909700">
        <ele>1230.0</ele>
        <time>2015-08-02T11:41:59Z</time>
      </trkpt>
      <trkpt lat="40.241483" lon="-4.909633">
        <ele>1229.0</ele>
        <time>2015-08-02T11:42:00Z</time>
      </trkpt>
      <trkpt lat="40.241567" lon="-4.909550">
        <ele>1230.0</ele>
        <time>2015-08-02T11:42:01Z</time>
      </trkpt>
      <trkpt lat="40.241633" lon="-4.909450">
        <ele>1230.0</ele>
        <time>2015-08-02T11:42:02Z</time>
      </trkpt>
      <trkpt lat="40.241683" lon="-4.909333">
        <ele>1229.0</ele>
        <time>2015-08-02T11:42:03Z</time>
      </trkpt>
      <trkpt lat="40.241750" lon="-4.909217">
        <ele>1229.0</ele>
        <time>2015-08-02T11:42:04Z</time>
      </trkpt>
      <trkpt lat="40.241800" lon="-4.909083">
        <ele>1229.0</ele>
        <time>2015-08-02T11:42:05Z</time>
      </trkpt>
      <trkpt lat="40.241833" lon="-4.908950">
        <ele>1229.0</ele>
        <time>2015-08-02T11:42:06Z</time>
      </trkpt>
      <trkpt lat="40.241850" lon="-4.908817">
        <ele>1228.0</ele>
        <time>2015-08-02T11:42:07Z</time>
      </trkpt>
      <trkpt lat="40.241850" lon="-4.908683">
        <ele>1228.0</ele>
        <time>2015-08-02T11:42:08Z</time>
      </trkpt>
      <trkpt lat="40.241817" lon="-4.908550">
        <ele>1228.0</ele>
        <time>2015-08-02T11:42:09Z</time>
      </trkpt>
      <trkpt lat="40.241783" lon="-4.908433">
        <ele>1229.0</ele>
        <time>2015-08-02T11:42:10Z</time>
      </trkpt>
      <trkpt lat="40.241750" lon="-4.908333">
        <ele>1230.0</ele>
        <time>2015-08-02T11:42:11Z</time>
      </trkpt>
      <trkpt lat="40.241700" lon="-4.908250">
        <ele>1230.0</ele>
        <time>2015-08-02T11:42:12Z</time>
      </trkpt>
      <trkpt lat="40.241650" lon="-4.908200">
        <ele>1230.0</ele>
        <time>2015-08-02T11:42:13Z</time>
      </trkpt>
      <trkpt lat="40.241583" lon="-4.908167">
        <ele>1228.0</ele>
        <time>2015-08-02T11:42:14Z</time>
      </trkpt>
      <trkpt lat="40.241517" lon="-4.908183">
        <ele>1225.0</ele>
        <time>2015-08-02T11:42:15Z</time>
      </trkpt>
      <trkpt lat="40.241433" lon="-4.908233">
        <ele>1223.0</ele>
        <time>2015-08-02T11:42:16Z</time>
      </trkpt>
      <trkpt lat="40.241383" lon="-4.908333">
        <ele>1221.0</ele>
        <time>2015-08-02T11:42:17Z</time>
      </trkpt>
      <trkpt lat="40.241383" lon="-4.908450">
        <ele>1220.0</ele>
        <time>2015-08-02T11:42:18Z</time>
      </trkpt>
      <trkpt lat="40.241417" lon="-4.908567">
        <ele>1220.0</ele>
        <time>2015-08-02T11:42:19Z</time>
      </trkpt>
      <trkpt lat="40.241483" lon="-4.908667">
        <ele>1220.0</ele>
        <time>2015-08-02T11:42:20Z</time>
      </trkpt>
      <trkpt lat="40.241567" lon="-4.908733">
        <ele>1221.0</ele>
        <time>2015-08-02T11:42:21Z</time>
      </trkpt>
      <trkpt lat="40.241633" lon="-4.908800">
        <ele>1222.0</ele>
        <time>2015-08-02T11:42:22Z</time>
      </trkpt>
      <trkpt lat="40.241717" lon="-4.908833">
        <ele>1222.0</ele>
        <time>2015-08-02T11:42:23Z</time>
      </trkpt>
      <trkpt lat="40.241817" lon="-4.908883">
        <ele>1221.0</ele>
        <time>2015-08-02T11:42:24Z</time>
      </trkpt>
      <trkpt lat="40.241900" lon="-4.908917">
        <ele>1220.0</ele>
        <time>2015-08-02T11:42:25Z</time>
      </trkpt>
      <trkpt lat="40.242017" lon="-4.908950">
        <ele>1219.0</ele>
        <time>2015-08-02T11:42:26Z</time>
      </trkpt>
      <trkpt lat="40.242117" lon="-4.908950">
        <ele>1219.0</ele>
        <time>2015-08-02T11:42:27Z</time>
      </trkpt>
      <trkpt lat="40.242233" lon="-4.908950">
        <ele>1219.0</ele>
        <time>2015-08-02T11:42:28Z</time>
      </trkpt>
      <trkpt lat="40.242350" lon="-4.908917">
        <ele>1219.0</ele>
        <time>2015-08-02T11:42:29Z</time>
      </trkpt>
      <trkpt lat="40.242467" lon="-4.908867">
        <ele>1219.0</ele>
        <time>2015-08-02T11:42:30Z</time>
      </trkpt>
      <trkpt lat="40.242583" lon="-4.908817">
        <ele>1220.0</ele>
        <time>2015-08-02T11:42:31Z</time>
      </trkpt>
      <trkpt lat="40.242667" lon="-4.908750">
        <ele>1221.0</ele>
        <time>2015-08-02T11:42:32Z</time>
      </trkpt>
      <trkpt lat="40.242750" lon="-4.908683">
        <ele>1222.0</ele>
        <time>2015-08-02T11:42:33Z</time>
      </trkpt>
      <trkpt lat="40.242817" lon="-4.908600">
        <ele>1223.0</ele>
        <time>2015-08-02T11:42:34Z</time>
      </trkpt>
      <trkpt lat="40.242883" lon="-4.908500">
        <ele>1225.0</ele>
        <time>2015-08-02T11:42:35Z</time>
      </trkpt>
      <trkpt lat="40.242933" lon="-4.908400">
        <ele>1228.0</ele>
        <time>2015-08-02T11:42:36Z</time>
      </trkpt>
      <trkpt lat="40.242983" lon="-4.908300">
        <ele>1229.0</ele>
        <time>2015-08-02T11:42:37Z</time>
      </trkpt>
      <trkpt lat="40.243033" lon="-4.908200">
        <ele>1231.0</ele>
        <time>2015-08-02T11:42:38Z</time>
      </trkpt>
      <trkpt lat="40.243083" lon="-4.908117">
        <ele>1232.0</ele>
        <time>2015-08-02T11:42:39Z</time>
      </trkpt>
      <trkpt lat="40.243117" lon="-4.908000">
        <ele>1231.0</ele>
        <time>2015-08-02T11:42:40Z</time>
      </trkpt>
      <trkpt lat="40.243117" lon="-4.907867">
        <ele>1229.0</ele>
        <time>2015-08-02T11:42:41Z</time>
      </trkpt>
      <trkpt lat="40.243100" lon="-4.907733">
        <ele>1228.0</ele>
        <time>2015-08-02T11:42:42Z</time>
      </trkpt>
      <trkpt lat="40.243067" lon="-4.907617">
        <ele>1228.0</ele>
        <time>2015-08-02T11:42:43Z</time>
      </trkpt>
      <trkpt lat="40.243017" lon="-4.907517">
        <ele>1229.0</ele>
        <time>2015-08-02T11:42:44Z</time>
      </trkpt>
      <trkpt lat="40.242983" lon="-4.907450">
        <ele>1231.0</ele>
        <time>2015-08-02T11:42:45Z</time>
      </trkpt>
      <trkpt lat="40.242967" lon="-4.907383">
        <ele>1233.0</ele>
        <time>2015-08-02T11:42:46Z</time>
      </trkpt>
      <trkpt lat="40.242933" lon="-4.907317">
        <ele>1235.0</ele>
        <time>2015-08-02T11:42:47Z</time>
      </trkpt>
      <trkpt lat="40.242900" lon="-4.907250">
        <ele>1235.0</ele>
        <time>2015-08-02T11:42:48Z</time>
      </trkpt>
      <trkpt lat="40.242850" lon="-4.907200">
        <ele>1234.0</ele>
        <time>2015-08-02T11:42:49Z</time>
      </trkpt>
      <trkpt lat="40.242783" lon="-4.907167">
        <ele>1234.0</ele>
        <time>2015-08-02T11:42:50Z</time>
      </trkpt>
      <trkpt lat="40.242700" lon="-4.907167">
        <ele>1233.0</ele>
        <time>2015-08-02T11:42:51Z</time>
      </trkpt>
      <trkpt lat="40.242633" lon="-4.907200">
        <ele>1234.0</ele>
        <time>2015-08-02T11:42:52Z</time>
      </trkpt>
      <trkpt lat="40.242567" lon="-4.907267">
        <ele>1234.0</ele>
        <time>2015-08-02T11:42:53Z</time>
      </trkpt>
      <trkpt lat="40.242533" lon="-4.907350">
        <ele>1234.0</ele>
        <time>2015-08-02T11:42:54Z</time>
      </trkpt>
      <trkpt lat="40.242517" lon="-4.907450">
        <ele>1234.0</ele>
        <time>2015-08-02T11:42:55Z</time>
      </trkpt>
      <trkpt lat="40.242517" lon="-4.907550">
        <ele>1234.0</ele>
        <time>2015-08-02T11:42:56Z</time>
      </trkpt>
      <trkpt lat="40.242517" lon="-4.907667">
        <ele>1233.0</ele>
        <time>2015-08-02T11:42:57Z</time>
      </trkpt>
      <trkpt lat="40.242567" lon="-4.907767">
        <ele>1232.0</ele>
        <time>2015-08-02T11:42:58Z</time>
      </trkpt>
      <trkpt lat="40.242617" lon="-4.907850">
        <ele>1231.0</ele>
        <time>2015-08-02T11:42:59Z</time>
      </trkpt>
      <trkpt lat="40.242700" lon="-4.907950">
        <ele>1229.0</ele>
        <time>2015-08-02T11:43:00Z</time>
      </trkpt>
      <trkpt lat="40.242783" lon="-4.908033">
        <ele>1228.0</ele>
        <time>2015-08-02T11:43:01Z</time>
      </trkpt>
      <trkpt lat="40.242867" lon="-4.908100">
        <ele>1227.0</ele>
        <time>2015-08-02T11:43:02Z</time>
      </trkpt>
      <trkpt lat="40.242983" lon="-4.908150">
        <ele>1226.0</ele>
        <time>2015-08-02T11:43:03Z</time>
      </trkpt>
      <trkpt lat="40.243083" lon="-4.908183">
        <ele>1226.0</ele>
        <time>2015-08-02T11:43:04Z</time>
      </trkpt>
      <trkpt lat="40.243200" lon="-4.908200">
        <ele>1226.0</ele>
        <time>2015-08-02T11:43:05Z</time>
      </trkpt>
      <trkpt lat="40.243300" lon="-4.908217">
        <ele>1226.0</ele>
        <time>2015-08-02T11:43:06Z</time>
      </trkpt>
      <trkpt lat="40.243417" lon="-4.908250">
        <ele>1226.0</ele>
        <time>2015-08-02T11:43:07Z</time>
      </trkpt>
      <trkpt lat="40.243517" lon="-4.908267">
        <ele>1225.0</ele>
        <time>2015-08-02T11:43:08Z</time>
      </trkpt>
      <trkpt lat="40.243633" lon="-4.908317">
        <ele>1225.0</ele>
        <time>2015-08-02T11:43:09Z</time>
      </trkpt>
      <trkpt lat="40.243733" lon="-4.908367">
        <ele>1224.0</ele>
        <time>2015-08-02T11:43:10Z</time>
      </trkpt>
      <trkpt lat="40.243833" lon="-4.908450">
        <ele>1224.0</ele>
        <time>2015-08-02T11:43:11Z</time>
      </trkpt>
      <trkpt lat="40.243917" lon="-4.908567">
        <ele>1224.0</ele>
        <time>2015-08-02T11:43:12Z</time>
      </trkpt>
      <trkpt lat="40.243983" lon="-4.908683">
        <ele>1225.0</ele>
        <time>2015-08-02T11:43:13Z</time>
      </trkpt>
      <trkpt lat="40.244033" lon="-4.908800">
        <ele>1226.0</ele>
        <time>2015-08-02T11:43:14Z</time>
      </trkpt>
      <trkpt lat="40.244083" lon="-4.908917">
        <ele>1227.0</ele>
        <time>2015-08-02T11:43:15Z</time>
      </trkpt>
      <trkpt lat="40.244133" lon="-4.909017">
        <ele>1228.0</ele>
        <time>2015-08-02T11:43:16Z</time>
      </trkpt>
      <trkpt lat="40.244183" lon="-4.909133">
        <ele>1229.0</ele>
        <time>2015-08-02T11:43:17Z</time>
      </trkpt>
      <trkpt lat="40.244250" lon="-4.909250">
        <ele>1230.0</ele>
        <time>2015-08-02T11:43:18Z</time>
      </trkpt>
      <trkpt lat="40.244317" lon="-4.909367">
        <ele>1231.0</ele>
        <time>2015-08-02T11:43:19Z</time>
      </trkpt>
      <trkpt lat="40.244383" lon="-4.909450">
        <ele>1233.0</ele>
        <time>2015-08-02T11:43:20Z</time>
      </trkpt>
      <trkpt lat="40.244483" lon="-4.909517">
        <ele>1236.0</ele>
        <time>2015-08-02T11:43:21Z</time>
      </trkpt>
      <trkpt lat="40.244583" lon="-4.909517">
        <ele>1237.0</ele>
        <time>2015-08-02T11:43:22Z</time>
      </trkpt>
      <trkpt lat="40.244683" lon="-4.909483">
        <ele>1239.0</ele>
        <time>2015-08-02T11:43:23Z</time>
      </trkpt>
      <trkpt lat="40.244767" lon="-4.909417">
        <ele>1241.0</ele>
        <time>2015-08-02T11:43:24Z</time>
      </trkpt>
      <trkpt lat="40.244833" lon="-4.909317">
        <ele>1243.0</ele>
        <time>2015-08-02T11:43:25Z</time>
      </trkpt>
      <trkpt lat="40.244850" lon="-4.909200">
        <ele>1245.0</ele>
        <time>2015-08-02T11:43:26Z</time>
      </trkpt>
      <trkpt lat="40.244833" lon="-4.909100">
        <ele>1246.0</ele>
        <time>2015-08-02T11:43:27Z</time>
      </trkpt>
      <trkpt lat="40.244783" lon="-4.909033">
        <ele>1248.0</ele>
        <time>2015-08-02T11:43:28Z</time>
      </trkpt>
      <trkpt lat="40.244717" lon="-4.909017">
        <ele>1249.0</ele>
        <time>2015-08-02T11:43:29Z</time>
      </trkpt>
      <trkpt lat="40.244633" lon="-4.909033">
        <ele>1250.0</ele>
        <time>2015-08-02T11:43:30Z</time>
      </trkpt>
      <trkpt lat="40.244567" lon="-4.909083">
        <ele>1252.0</ele>
        <time>2015-08-02T11:43:31Z</time>
      </trkpt>
      <trkpt lat="40.244500" lon="-4.909150">
        <ele>1255.0</ele>
        <time>2015-08-02T11:43:32Z</time>
      </trkpt>
      <trkpt lat="40.244450" lon="-4.909233">
        <ele>1257.0</ele>
        <time>2015-08-02T11:43:33Z</time>
      </trkpt>
      <trkpt lat="40.244433" lon="-4.909333">
        <ele>1258.0</ele>
        <time>2015-08-02T11:43:34Z</time>
      </trkpt>
      <trkpt lat="40.244433" lon="-4.909450">
        <ele>1259.0</ele>
        <time>2015-08-02T11:43:35Z</time>
      </trkpt>
      <trkpt lat="40.244450" lon="-4.909583">
        <ele>1260.0</ele>
        <time>2015-08-02T11:43:36Z</time>
      </trkpt>
      <trkpt lat="40.244483" lon="-4.909717">
        <ele>1261.0</ele>
        <time>2015-08-02T11:43:37Z</time>
      </trkpt>
      <trkpt lat="40.244550" lon="-4.909850">
        <ele>1263.0</ele>
        <time>2015-08-02T11:43:38Z</time>
      </trkpt>
      <trkpt lat="40.244617" lon="-4.909917">
        <ele>1265.0</ele>
        <time>2015-08-02T11:43:39Z</time>
      </trkpt>
      <trkpt lat="40.244700" lon="-4.909950">
        <ele>1265.0</ele>
        <time>2015-08-02T11:43:40Z</time>
      </trkpt>
      <trkpt lat="40.244783" lon="-4.909983">
        <ele>1266.0</ele>
        <time>2015-08-02T11:43:41Z</time>
      </trkpt>
      <trkpt lat="40.244867" lon="-4.909983">
        <ele>1267.0</ele>
        <time>2015-08-02T11:43:42Z</time>
      </trkpt>
      <trkpt lat="40.244950" lon="-4.909950">
        <ele>1268.0</ele>
        <time>2015-08-02T11:43:43Z</time>
      </trkpt>
      <trkpt lat="40.245033" lon="-4.909883">
        <ele>1269.0</ele>
        <time>2015-08-02T11:43:44Z</time>
      </trkpt>
      <trkpt lat="40.245083" lon="-4.909783">
        <ele>1269.0</ele>
        <time>2015-08-02T11:43:45Z</time>
      </trkpt>
      <trkpt lat="40.245117" lon="-4.909650">
        <ele>1270.0</ele>
        <time>2015-08-02T11:43:46Z</time>
      </trkpt>
      <trkpt lat="40.245100" lon="-4.909533">
        <ele>1271.0</ele>
        <time>2015-08-02T11:43:47Z</time>
      </trkpt>
      <trkpt lat="40.245067" lon="-4.909417">
        <ele>1272.0</ele>
        <time>2015-08-02T11:43:48Z</time>
      </trkpt>
      <trkpt lat="40.245017" lon="-4.909333">
        <ele>1275.0</ele>
        <time>2015-08-02T11:43:49Z</time>
      </trkpt>
      <trkpt lat="40.244950" lon="-4.909300">
        <ele>1277.0</ele>
        <time>2015-08-02T11:43:50Z</time>
      </trkpt>
      <trkpt lat="40.244883" lon="-4.909283">
        <ele>1279.0</ele>
        <time>2015-08-02T11:43:51Z</time>
      </trkpt>
      <trkpt lat="40.244817" lon="-4.909300">
        <ele>1280.0</ele>
        <time>2015-08-02T11:43:52Z</time>
      </trkpt>
      <trkpt lat="40.244750" lon="-4.909350">
        <ele>1280.0</ele>
        <time>2015-08-02T11:43:53Z</time>
      </trkpt>
      <trkpt lat="40.244700" lon="-4.909433">
        <ele>1281.0</ele>
        <time>2015-08-02T11:43:54Z</time>
      </trkpt>
      <trkpt lat="40.244667" lon="-4.909583">
        <ele>1281.0</ele>
        <time>2015-08-02T11:43:55Z</time>
      </trkpt>
      <trkpt lat="40.244650" lon="-4.909683">
        <ele>1282.0</ele>
        <time>2015-08-02T11:43:56Z</time>
      </trkpt>
      <trkpt lat="40.244667" lon="-4.909800">
        <ele>1283.0</ele>
        <time>2015-08-02T11:43:57Z</time>
      </trkpt>
      <trkpt lat="40.244717" lon="-4.909917">
        <ele>1285.0</ele>
        <time>2015-08-02T11:43:58Z</time>
      </trkpt>
      <trkpt lat="40.244767" lon="-4.909983">
        <ele>1286.0</ele>
        <time>2015-08-02T11:43:59Z</time>
      </trkpt>
      <trkpt lat="40.244850" lon="-4.910050">
        <ele>1286.0</ele>
        <time>2015-08-02T11:44:00Z</time>
      </trkpt>
      <trkpt lat="40.244917" lon="-4.910067">
        <ele>1284.0</ele>
        <time>2015-08-02T11:44:01Z</time>
      </trkpt>
      <trkpt lat="40.245017" lon="-4.910083">
        <ele>1283.0</ele>
        <time>2015-08-02T11:44:02Z</time>
      </trkpt>
      <trkpt lat="40.245117" lon="-4.910067">
        <ele>1282.0</ele>
        <time>2015-08-02T11:44:03Z</time>
      </trkpt>
      <trkpt lat="40.245233" lon="-4.910017">
        <ele>1282.0</ele>
        <time>2015-08-02T11:44:04Z</time>
      </trkpt>
      <trkpt lat="40.245317" lon="-4.909950">
        <ele>1282.0</ele>
        <time>2015-08-02T11:44:05Z</time>
      </trkpt>
      <trkpt lat="40.245400" lon="-4.909867">
        <ele>1283.0</ele>
        <time>2015-08-02T11:44:06Z</time>
      </trkpt>
      <trkpt lat="40.245467" lon="-4.909767">
        <ele>1284.0</ele>
        <time>2015-08-02T11:44:07Z</time>
      </trkpt>
      <trkpt lat="40.245500" lon="-4.909667">
        <ele>1286.0</ele>
        <time>2015-08-02T11:44:08Z</time>
      </trkpt>
      <trkpt lat="40.245517" lon="-4.909567">
        <ele>1286.0</ele>
        <time>2015-08-02T11:44:09Z</time>
      </trkpt>
      <trkpt lat="40.245533" lon="-4.909467">
        <ele>1287.0</ele>
        <time>2015-08-02T11:44:10Z</time>
      </trkpt>
      <trkpt lat="40.245500" lon="-4.909367">
        <ele>1287.0</ele>
        <time>2015-08-02T11:44:11Z</time>
      </trkpt>
      <trkpt lat="40.245467" lon="-4.909267">
        <ele>1287.0</ele>
        <time>2015-08-02T11:44:12Z</time>
      </trkpt>
      <trkpt lat="40.245417" lon="-4.909167">
        <ele>1288.0</ele>
        <time>2015-08-02T11:44:13Z</time>
      </trkpt>
      <trkpt lat="40.245367" lon="-4.909083">
        <ele>1290.0</ele>
        <time>2015-08-02T11:44:14Z</time>
      </trkpt>
      <trkpt lat="40.245317" lon="-4.909017">
        <ele>1291.0</ele>
        <time>2015-08-02T11:44:15Z</time>
      </trkpt>
      <trkpt lat="40.245250" lon="-4.908950">
        <ele>1292.0</ele>
        <time>2015-08-02T11:44:16Z</time>
      </trkpt>
      <trkpt lat="40.245200" lon="-4.908933">
        <ele>1293.0</ele>
        <time>2015-08-02T11:44:17Z</time>
      </trkpt>
      <trkpt lat="40.245117" lon="-4.908917">
        <ele>1294.0</ele>
        <time>2015-08-02T11:44:18Z</time>
      </trkpt>
      <trkpt lat="40.245033" lon="-4.908917">
        <ele>1295.0</ele>
        <time>2015-08-02T11:44:19Z</time>
      </trkpt>
      <trkpt lat="40.244950" lon="-4.908933">
        <ele>1296.0</ele>
        <time>2015-08-02T11:44:20Z</time>
      </trkpt>
      <trkpt lat="40.244917" lon="-4.908967">
        <ele>1298.0</ele>
        <time>2015-08-02T11:44:21Z</time>
      </trkpt>
      <trkpt lat="40.244867" lon="-4.909033">
        <ele>1299.0</ele>
        <time>2015-08-02T11:44:22Z</time>
      </trkpt>
      <trkpt lat="40.244833" lon="-4.909117">
        <ele>1298.0</ele>
        <time>2015-08-02T11:44:23Z</time>
      </trkpt>
      <trkpt lat="40.244817" lon="-4.909217">
        <ele>1298.0</ele>
        <time>2015-08-02T11:44:24Z</time>
      </trkpt>
      <trkpt lat="40.244833" lon="-4.909333">
        <ele>1299.0</ele>
        <time>2015-08-02T11:44:25Z</time>
      </trkpt>
      <trkpt lat="40.244867" lon="-4.909433">
        <ele>1299.0</ele>
        <time>2015-08-02T11:44:26Z</time>
      </trkpt>
      <trkpt lat="40.244933" lon="-4.909533">
        <ele>1299.0</ele>
        <time>2015-08-02T11:44:27Z</time>
      </trkpt>
      <trkpt lat="40.245000" lon="-4.909600">
        <ele>1300.0</ele>
        <time>2015-08-02T11:44:28Z</time>
      </trkpt>
      <trkpt lat="40.245067" lon="-4.909667">
        <ele>1300.0</ele>
        <time>2015-08-02T11:44:29Z</time>
      </trkpt>
      <trkpt lat="40.245150" lon="-4.909700">
        <ele>1300.0</ele>
        <time>2015-08-02T11:44:30Z</time>
      </trkpt>
      <trkpt lat="40.245250" lon="-4.909733">
        <ele>1299.0</ele>
        <time>2015-08-02T11:44:31Z</time>
      </trkpt>
      <trkpt lat="40.245367" lon="-4.909750">
        <ele>1299.0</ele>
        <time>2015-08-02T11:44:32Z</time>
      </trkpt>
      <trkpt lat="40.245483" lon="-4.909750">
        <ele>1300.0</ele>
        <time>2015-08-02T11:44:33Z</time>
      </trkpt>
      <trkpt lat="40.245583" lon="-4.909733">
        <ele>1301.0</ele>
        <time>2015-08-02T11:44:34Z</time>
      </trkpt>
      <trkpt lat="40.245700" lon="-4.909733">
        <ele>1302.0</ele>
        <time>2015-08-02T11:44:35Z</time>
      </trkpt>
      <trkpt lat="40.245800" lon="-4.909717">
        <ele>1302.0</ele>
        <time>2015-08-02T11:44:36Z</time>
      </trkpt>
      <trkpt lat="40.245900" lon="-4.909700">
        <ele>1302.0</ele>
        <time>2015-08-02T11:44:37Z</time>
      </trkpt>
      <trkpt lat="40.246000" lon="-4.909700">
        <ele>1302.0</ele>
        <time>2015-08-02T11:44:38Z</time>
      </trkpt>
      <trkpt lat="40.246150" lon="-4.909733">
        <ele>1301.0</ele>
        <time>2015-08-02T11:44:39Z</time>
      </trkpt>
      <trkpt lat="40.246233" lon="-4.909750">
        <ele>1301.0</ele>
        <time>2015-08-02T11:44:40Z</time>
      </trkpt>
      <trkpt lat="40.246333" lon="-4.909817">
        <ele>1301.0</ele>
        <time>2015-08-02T11:44:41Z</time>
      </trkpt>
      <trkpt lat="40.246450" lon="-4.909883">
        <ele>1302.0</ele>
        <time>2015-08-02T11:44:42Z</time>
      </trkpt>
      <trkpt lat="40.246550" lon="-4.909967">
        <ele>1303.0</ele>
        <time>2015-08-02T11:44:43Z</time>
      </trkpt>
      <trkpt lat="40.246650" lon="-4.910050">
        <ele>1303.0</ele>
        <time>2015-08-02T11:44:44Z</time>
      </trkpt>
      <trkpt lat="40.246733" lon="-4.910133">
        <ele>1304.0</ele>
        <time>2015-08-02T11:44:45Z</time>
      </trkpt>
      <trkpt lat="40.246817" lon="-4.910200">
        <ele>1303.0</ele>
        <time>2015-08-02T11:44:46Z</time>
      </trkpt>
      <trkpt lat="40.246900" lon="-4.910283">
        <ele>1303.0</ele>
        <time>2015-08-02T11:44:47Z</time>
      </trkpt>
      <trkpt lat="40.246983" lon="-4.910383">
        <ele>1301.0</ele>
        <time>2015-08-02T11:44:48Z</time>
      </trkpt>
      <trkpt lat="40.247067" lon="-4.910467">
        <ele>1300.0</ele>
        <time>2015-08-02T11:44:49Z</time>
      </trkpt>
      <trkpt lat="40.247167" lon="-4.910550">
        <ele>1299.0</ele>
        <time>2015-08-02T11:44:50Z</time>
      </trkpt>
      <trkpt lat="40.247250" lon="-4.910633">
        <ele>1298.0</ele>
        <time>2015-08-02T11:44:51Z</time>
      </trkpt>
      <trkpt lat="40.247350" lon="-4.910733">
        <ele>1297.0</ele>
        <time>2015-08-02T11:44:52Z</time>
      </trkpt>
      <trkpt lat="40.247433" lon="-4.910833">
        <ele>1295.0</ele>
        <time>2015-08-02T11:44:53Z</time>
      </trkpt>
      <trkpt lat="40.247533" lon="-4.910933">
        <ele>1293.0</ele>
        <time>2015-08-02T11:44:54Z</time>
      </trkpt>
      <trkpt lat="40.247617" lon="-4.911050">
        <ele>1290.0</ele>
        <time>2015-08-02T11:44:55Z</time>
      </trkpt>
      <trkpt lat="40.247717" lon="-4.911167">
        <ele>1288.0</ele>
        <time>2015-08-02T11:44:56Z</time>
      </trkpt>
      <trkpt lat="40.247817" lon="-4.911283">
        <ele>1287.0</ele>
        <time>2015-08-02T11:44:57Z</time>
      </trkpt>
      <trkpt lat="40.247900" lon="-4.911400">
        <ele>1286.0</ele>
        <time>2015-08-02T11:44:58Z</time>
      </trkpt>
      <trkpt lat="40.247983" lon="-4.911500">
        <ele>1284.0</ele>
        <time>2015-08-02T11:44:59Z</time>
      </trkpt>
      <trkpt lat="40.248067" lon="-4.911583">
        <ele>1283.0</ele>
        <time>2015-08-02T11:45:00Z</time>
      </trkpt>
      <trkpt lat="40.248150" lon="-4.911667">
        <ele>1281.0</ele>
        <time>2015-08-02T11:45:01Z</time>
      </trkpt>
      <trkpt lat="40.248233" lon="-4.911767">
        <ele>1278.0</ele>
        <time>2015-08-02T11:45:02Z</time>
      </trkpt>
      <trkpt lat="40.248317" lon="-4.911867">
        <ele>1277.0</ele>
        <time>2015-08-02T11:45:03Z</time>
      </trkpt>
      <trkpt lat="40.248400" lon="-4.911983">
        <ele>1276.0</ele>
        <time>2015-08-02T11:45:04Z</time>
      </trkpt>
      <trkpt lat="40.248467" lon="-4.912100">
        <ele>1275.0</ele>
        <time>2015-08-02T11:45:05Z</time>
      </trkpt>
      <trkpt lat="40.248517" lon="-4.912200">
        <ele>1276.0</ele>
        <time>2015-08-02T11:45:06Z</time>
      </trkpt>
      <trkpt lat="40.248583" lon="-4.912300">
        <ele>1275.0</ele>
        <time>2015-08-02T11:45:07Z</time>
      </trkpt>
      <trkpt lat="40.248650" lon="-4.912400">
        <ele>1274.0</ele>
        <time>2015-08-02T11:45:08Z</time>
      </trkpt>
      <trkpt lat="40.248717" lon="-4.912517">
        <ele>1272.0</ele>
        <time>2015-08-02T11:45:09Z</time>
      </trkpt>
      <trkpt lat="40.248783" lon="-4.912633">
        <ele>1271.0</ele>
        <time>2015-08-02T11:45:10Z</time>
      </trkpt>
      <trkpt lat="40.248850" lon="-4.912750">
        <ele>1270.0</ele>
        <time>2015-08-02T11:45:11Z</time>
      </trkpt>
      <trkpt lat="40.248917" lon="-4.912867">
        <ele>1271.0</ele>
        <time>2015-08-02T11:45:12Z</time>
      </trkpt>
      <trkpt lat="40.248967" lon="-4.912983">
        <ele>1271.0</ele>
        <time>2015-08-02T11:45:13Z</time>
      </trkpt>
      <trkpt lat="40.249000" lon="-4.913067">
        <ele>1272.0</ele>
        <time>2015-08-02T11:45:14Z</time>
      </trkpt>
      <trkpt lat="40.249050" lon="-4.913167">
        <ele>1272.0</ele>
        <time>2015-08-02T11:45:15Z</time>
      </trkpt>
      <trkpt lat="40.249083" lon="-4.913250">
        <ele>1271.0</ele>
        <time>2015-08-02T11:45:16Z</time>
      </trkpt>
      <trkpt lat="40.249150" lon="-4.913333">
        <ele>1271.0</ele>
        <time>2015-08-02T11:45:17Z</time>
      </trkpt>
      <trkpt lat="40.249200" lon="-4.913417">
        <ele>1270.0</ele>
        <time>2015-08-02T11:45:18Z</time>
      </trkpt>
      <trkpt lat="40.249250" lon="-4.913517">
        <ele>1268.0</ele>
        <time>2015-08-02T11:45:19Z</time>
      </trkpt>
      <trkpt lat="40.249317" lon="-4.913600">
        <ele>1266.0</ele>
        <time>2015-08-02T11:45:20Z</time>
      </trkpt>
      <trkpt lat="40.249383" lon="-4.913700">
        <ele>1264.0</ele>
        <time>2015-08-02T11:45:21Z</time>
      </trkpt>
      <trkpt lat="40.249450" lon="-4.913817">
        <ele>1262.0</ele>
        <time>2015-08-02T11:45:22Z</time>
      </trkpt>
      <trkpt lat="40.249533" lon="-4.913933">
        <ele>1261.0</ele>
        <time>2015-08-02T11:45:23Z</time>
      </trkpt>
      <trkpt lat="40.249600" lon="-4.914050">
        <ele>1260.0</ele>
        <time>2015-08-02T11:45:24Z</time>
      </trkpt>
      <trkpt lat="40.249650" lon="-4.914150">
        <ele>1260.0</ele>
        <time>2015-08-02T11:45:25Z</time>
      </trkpt>
      <trkpt lat="40.249700" lon="-4.914250">
        <ele>1259.0</ele>
        <time>2015-08-02T11:45:26Z</time>
      </trkpt>
      <trkpt lat="40.249750" lon="-4.914350">
        <ele>1258.0</ele>
        <time>2015-08-02T11:45:27Z</time>
      </trkpt>
      <trkpt lat="40.249817" lon="-4.914467">
        <ele>1257.0</ele>
        <time>2015-08-02T11:45:28Z</time>
      </trkpt>
      <trkpt lat="40.249883" lon="-4.914600">
        <ele>1257.0</ele>
        <time>2015-08-02T11:45:29Z</time>
      </trkpt>
      <trkpt lat="40.249950" lon="-4.914733">
        <ele>1258.0</ele>
        <time>2015-08-02T11:45:30Z</time>
      </trkpt>
      <trkpt lat="40.250000" lon="-4.914867">
        <ele>1261.0</ele>
        <time>2015-08-02T11:45:31Z</time>
      </trkpt>
      <trkpt lat="40.250050" lon="-4.914983">
        <ele>1263.0</ele>
        <time>2015-08-02T11:45:32Z</time>
      </trkpt>
      <trkpt lat="40.250067" lon="-4.915083">
        <ele>1264.0</ele>
        <time>2015-08-02T11:45:33Z</time>
      </trkpt>
      <trkpt lat="40.250083" lon="-4.915200">
        <ele>1265.0</ele>
        <time>2015-08-02T11:45:34Z</time>
      </trkpt>
      <trkpt lat="40.250117" lon="-4.915317">
        <ele>1267.0</ele>
        <time>2015-08-02T11:45:35Z</time>
      </trkpt>
      <trkpt lat="40.250167" lon="-4.915433">
        <ele>1268.0</ele>
        <time>2015-08-02T11:45:36Z</time>
      </trkpt>
      <trkpt lat="40.250250" lon="-4.915550">
        <ele>1269.0</ele>
        <time>2015-08-02T11:45:37Z</time>
      </trkpt>
      <trkpt lat="40.250350" lon="-4.915617">
        <ele>1271.0</ele>
        <time>2015-08-02T11:45:38Z</time>
      </trkpt>
      <trkpt lat="40.250483" lon="-4.915633">
        <ele>1272.0</ele>
        <time>2015-08-02T11:45:39Z</time>
      </trkpt>
      <trkpt lat="40.250600" lon="-4.915600">
        <ele>1273.0</ele>
        <time>2015-08-02T11:45:40Z</time>
      </trkpt>
      <trkpt lat="40.250717" lon="-4.915517">
        <ele>1274.0</ele>
        <time>2015-08-02T11:45:41Z</time>
      </trkpt>
      <trkpt lat="40.250783" lon="-4.915383">
        <ele>1274.0</ele>
        <time>2015-08-02T11:45:42Z</time>
      </trkpt>
      <trkpt lat="40.250817" lon="-4.915233">
        <ele>1273.0</ele>
        <time>2015-08-02T11:45:43Z</time>
      </trkpt>
      <trkpt lat="40.250800" lon="-4.915083">
        <ele>1274.0</ele>
        <time>2015-08-02T11:45:44Z</time>
      </trkpt>
      <trkpt lat="40.250783" lon="-4.914967">
        <ele>1276.0</ele>
        <time>2015-08-02T11:45:45Z</time>
      </trkpt>
      <trkpt lat="40.250750" lon="-4.914867">
        <ele>1279.0</ele>
        <time>2015-08-02T11:45:46Z</time>
      </trkpt>
      <trkpt lat="40.250750" lon="-4.914750">
        <ele>1281.0</ele>
        <time>2015-08-02T11:45:47Z</time>
      </trkpt>
      <trkpt lat="40.250750" lon="-4.914650">
        <ele>1280.0</ele>
        <time>2015-08-02T11:45:48Z</time>
      </trkpt>
      <trkpt lat="40.250750" lon="-4.914550">
        <ele>1281.0</ele>
        <time>2015-08-02T11:45:49Z</time>
      </trkpt>
      <trkpt lat="40.250700" lon="-4.914467">
        <ele>1281.0</ele>
        <time>2015-08-02T11:45:50Z</time>
      </trkpt>
      <trkpt lat="40.250633" lon="-4.914433">
        <ele>1281.0</ele>
        <time>2015-08-02T11:45:51Z</time>
      </trkpt>
      <trkpt lat="40.250567" lon="-4.914450">
        <ele>1282.0</ele>
        <time>2015-08-02T11:45:52Z</time>
      </trkpt>
      <trkpt lat="40.250517" lon="-4.914483">
        <ele>1283.0</ele>
        <time>2015-08-02T11:45:53Z</time>
      </trkpt>
      <trkpt lat="40.250483" lon="-4.914550">
        <ele>1284.0</ele>
        <time>2015-08-02T11:45:54Z</time>
      </trkpt>
      <trkpt lat="40.250483" lon="-4.914650">
        <ele>1284.0</ele>
        <time>2015-08-02T11:45:55Z</time>
      </trkpt>
      <trkpt lat="40.250500" lon="-4.914767">
        <ele>1284.0</ele>
        <time>2015-08-02T11:45:56Z</time>
      </trkpt>
      <trkpt lat="40.250550" lon="-4.914883">
        <ele>1284.0</ele>
        <time>2015-08-02T11:45:57Z</time>
      </trkpt>
      <trkpt lat="40.250633" lon="-4.915000">
        <ele>1284.0</ele>
        <time>2015-08-02T11:45:58Z</time>
      </trkpt>
      <trkpt lat="40.250733" lon="-4.915083">
        <ele>1284.0</ele>
        <time>2015-08-02T11:45:59Z</time>
      </trkpt>
      <trkpt lat="40.250850" lon="-4.915117">
        <ele>1285.0</ele>
        <time>2015-08-02T11:46:00Z</time>
      </trkpt>
      <trkpt lat="40.250967" lon="-4.915150">
        <ele>1287.0</ele>
        <time>2015-08-02T11:46:01Z</time>
      </trkpt>
      <trkpt lat="40.251100" lon="-4.915133">
        <ele>1289.0</ele>
        <time>2015-08-02T11:46:02Z</time>
      </trkpt>
      <trkpt lat="40.251217" lon="-4.915117">
        <ele>1293.0</ele>
        <time>2015-08-02T11:46:03Z</time>
      </trkpt>
      <trkpt lat="40.251317" lon="-4.915100">
        <ele>1297.0</ele>
        <time>2015-08-02T11:46:04Z</time>
      </trkpt>
      <trkpt lat="40.251400" lon="-4.915083">
        <ele>1299.0</ele>
        <time>2015-08-02T11:46:05Z</time>
      </trkpt>
      <trkpt lat="40.251483" lon="-4.915083">
        <ele>1300.0</ele>
        <time>2015-08-02T11:46:06Z</time>
      </trkpt>
      <trkpt lat="40.251583" lon="-4.915067">
        <ele>1298.0</ele>
        <time>2015-08-02T11:46:07Z</time>
      </trkpt>
      <trkpt lat="40.251700" lon="-4.915033">
        <ele>1297.0</ele>
        <time>2015-08-02T11:46:08Z</time>
      </trkpt>
      <trkpt lat="40.251850" lon="-4.914950">
        <ele>1296.0</ele>
        <time>2015-08-02T11:46:09Z</time>
      </trkpt>
      <trkpt lat="40.251983" lon="-4.914817">
        <ele>1296.0</ele>
        <time>2015-08-02T11:46:10Z</time>
      </trkpt>
      <trkpt lat="40.252067" lon="-4.914683">
        <ele>1296.0</ele>
        <time>2015-08-02T11:46:11Z</time>
      </trkpt>
      <trkpt lat="40.252117" lon="-4.914567">
        <ele>1297.0</ele>
        <time>2015-08-02T11:46:12Z</time>
      </trkpt>
      <trkpt lat="40.252133" lon="-4.914450">
        <ele>1296.0</ele>
        <time>2015-08-02T11:46:13Z</time>
      </trkpt>
      <trkpt lat="40.252150" lon="-4.914333">
        <ele>1294.0</ele>
        <time>2015-08-02T11:46:14Z</time>
      </trkpt>
      <trkpt lat="40.252150" lon="-4.914233">
        <ele>1293.0</ele>
        <time>2015-08-02T11:46:15Z</time>
      </trkpt>
      <trkpt lat="40.252150" lon="-4.914117">
        <ele>1291.0</ele>
        <time>2015-08-02T11:46:16Z</time>
      </trkpt>
      <trkpt lat="40.252133" lon="-4.914033">
        <ele>1290.0</ele>
        <time>2015-08-02T11:46:17Z</time>
      </trkpt>
      <trkpt lat="40.252083" lon="-4.913967">
        <ele>1288.0</ele>
        <time>2015-08-02T11:46:18Z</time>
      </trkpt>
      <trkpt lat="40.252033" lon="-4.913933">
        <ele>1286.0</ele>
        <time>2015-08-02T11:46:19Z</time>
      </trkpt>
      <trkpt lat="40.251983" lon="-4.913950">
        <ele>1284.0</ele>
        <time>2015-08-02T11:46:20Z</time>
      </trkpt>
      <trkpt lat="40.251933" lon="-4.914000">
        <ele>1282.0</ele>
        <time>2015-08-02T11:46:21Z</time>
      </trkpt>
      <trkpt lat="40.251900" lon="-4.914067">
        <ele>1282.0</ele>
        <time>2015-08-02T11:46:22Z</time>
      </trkpt>
      <trkpt lat="40.251850" lon="-4.914150">
        <ele>1282.0</ele>
        <time>2015-08-02T11:46:23Z</time>
      </trkpt>
      <trkpt lat="40.251833" lon="-4.914200">
        <ele>1283.0</ele>
        <time>2015-08-02T11:46:24Z</time>
      </trkpt>
      <trkpt lat="40.251800" lon="-4.914283">
        <ele>1283.0</ele>
        <time>2015-08-02T11:46:25Z</time>
      </trkpt>
      <trkpt lat="40.251767" lon="-4.914367">
        <ele>1283.0</ele>
        <time>2015-08-02T11:46:26Z</time>
      </trkpt>
      <trkpt lat="40.251733" lon="-4.914467">
        <ele>1285.0</ele>
        <time>2015-08-02T11:46:27Z</time>
      </trkpt>
      <trkpt lat="40.251683" lon="-4.914567">
        <ele>1288.0</ele>
        <time>2015-08-02T11:46:28Z</time>
      </trkpt>
      <trkpt lat="40.251650" lon="-4.914650">
        <ele>1291.0</ele>
        <time>2015-08-02T11:46:29Z</time>
      </trkpt>
      <trkpt lat="40.251617" lon="-4.914717">
        <ele>1293.0</ele>
        <time>2015-08-02T11:46:30Z</time>
      </trkpt>
      <trkpt lat="40.251583" lon="-4.914783">
        <ele>1294.0</ele>
        <time>2015-08-02T11:46:31Z</time>
      </trkpt>
      <trkpt lat="40.251550" lon="-4.914850">
        <ele>1294.0</ele>
        <time>2015-08-02T11:46:32Z</time>
      </trkpt>
      <trkpt lat="40.251533" lon="-4.914950">
        <ele>1293.0</ele>
        <time>2015-08-02T11:46:33Z</time>
      </trkpt>
      <trkpt lat="40.251517" lon="-4.915050">
        <ele>1294.0</ele>
        <time>2015-08-02T11:46:34Z</time>
      </trkpt>
      <trkpt lat="40.251500" lon="-4.915150">
        <ele>1297.0</ele>
        <time>2015-08-02T11:46:35Z</time>
      </trkpt>
      <trkpt lat="40.251483" lon="-4.915233">
        <ele>1300.0</ele>
        <time>2015-08-02T11:46:36Z</time>
      </trkpt>
      <trkpt lat="40.251450" lon="-4.915300">
        <ele>1302.0</ele>
        <time>2015-08-02T11:46:37Z</time>
      </trkpt>
      <trkpt lat="40.251400" lon="-4.915367">
        <ele>1303.0</ele>
        <time>2015-08-02T11:46:38Z</time>
      </trkpt>
      <trkpt lat="40.251367" lon="-4.915433">
        <ele>1306.0</ele>
        <time>2015-08-02T11:46:39Z</time>
      </trkpt>
      <trkpt lat="40.251383" lon="-4.915533">
        <ele>1309.0</ele>
        <time>2015-08-02T11:46:40Z</time>
      </trkpt>
      <trkpt lat="40.251433" lon="-4.915650">
        <ele>1311.0</ele>
        <time>2015-08-02T11:46:41Z</time>
      </trkpt>
      <trkpt lat="40.251550" lon="-4.915750">
        <ele>1313.0</ele>
        <time>2015-08-02T11:46:42Z</time>
      </trkpt>
      <trkpt lat="40.251683" lon="-4.915800">
        <ele>1316.0</ele>
        <time>2015-08-02T11:46:43Z</time>
      </trkpt>
      <trkpt lat="40.251817" lon="-4.915783">
        <ele>1320.0</ele>
        <time>2015-08-02T11:46:44Z</time>
      </trkpt>
      <trkpt lat="40.251933" lon="-4.915717">
        <ele>1324.0</ele>
        <time>2015-08-02T11:46:45Z</time>
      </trkpt>
      <trkpt lat="40.252017" lon="-4.915600">
        <ele>1328.0</ele>
        <time>2015-08-02T11:46:46Z</time>
      </trkpt>
      <trkpt lat="40.252050" lon="-4.915467">
        <ele>1331.0</ele>
        <time>2015-08-02T11:46:47Z</time>
      </trkpt>
      <trkpt lat="40.252050" lon="-4.915350">
        <ele>1334.0</ele>
        <time>2015-08-02T11:46:48Z</time>
      </trkpt>
      <trkpt lat="40.252000" lon="-4.915200">
        <ele>1336.0</ele>
        <time>2015-08-02T11:46:49Z</time>
      </trkpt>
      <trkpt lat="40.251950" lon="-4.915150">
        <ele>1338.0</ele>
        <time>2015-08-02T11:46:50Z</time>
      </trkpt>
      <trkpt lat="40.251867" lon="-4.915117">
        <ele>1339.0</ele>
        <time>2015-08-02T11:46:51Z</time>
      </trkpt>
      <trkpt lat="40.251800" lon="-4.915150">
        <ele>1341.0</ele>
        <time>2015-08-02T11:46:52Z</time>
      </trkpt>
      <trkpt lat="40.251750" lon="-4.915217">
        <ele>1345.0</ele>
        <time>2015-08-02T11:46:53Z</time>
      </trkpt>
      <trkpt lat="40.251767" lon="-4.915333">
        <ele>1348.0</ele>
        <time>2015-08-02T11:46:54Z</time>
      </trkpt>
      <trkpt lat="40.251883" lon="-4.915500">
        <ele>1352.0</ele>
        <time>2015-08-02T11:46:55Z</time>
      </trkpt>
      <trkpt lat="40.251917" lon="-4.915533">
        <ele>1356.0</ele>
        <time>2015-08-02T11:46:56Z</time>
      </trkpt>
      <trkpt lat="40.252017" lon="-4.915600">
        <ele>1361.0</ele>
        <time>2015-08-02T11:46:57Z</time>
      </trkpt>
      <trkpt lat="40.252083" lon="-4.915650">
        <ele>1366.0</ele>
        <time>2015-08-02T11:46:58Z</time>
      </trkpt>
      <trkpt lat="40.252150" lon="-4.915717">
        <ele>1370.0</ele>
        <time>2015-08-02T11:46:59Z</time>
      </trkpt>
      <trkpt lat="40.252250" lon="-4.915767">
        <ele>1371.0</ele>
        <time>2015-08-02T11:47:00Z</time>
      </trkpt>
      <trkpt lat="40.252367" lon="-4.915800">
        <ele>1373.0</ele>
        <time>2015-08-02T11:47:01Z</time>
      </trkpt>
      <trkpt lat="40.252483" lon="-4.915800">
        <ele>1375.0</ele>
        <time>2015-08-02T11:47:02Z</time>
      </trkpt>
      <trkpt lat="40.252617" lon="-4.915750">
        <ele>1377.0</ele>
        <time>2015-08-02T11:47:03Z</time>
      </trkpt>
      <trkpt lat="40.252717" lon="-4.915617">
        <ele>1379.0</ele>
        <time>2015-08-02T11:47:04Z</time>
      </trkpt>
      <trkpt lat="40.252767" lon="-4.915433">
        <ele>1381.0</ele>
        <time>2015-08-02T11:47:05Z</time>
      </trkpt>
      <trkpt lat="40.252750" lon="-4.915267">
        <ele>1383.0</ele>
        <time>2015-08-02T11:47:06Z</time>
      </trkpt>
      <trkpt lat="40.252683" lon="-4.915150">
        <ele>1387.0</ele>
        <time>2015-08-02T11:47:07Z</time>
      </trkpt>
      <trkpt lat="40.252567" lon="-4.915133">
        <ele>1392.0</ele>
        <time>2015-08-02T11:47:08Z</time>
      </trkpt>
      <trkpt lat="40.252517" lon="-4.915167">
        <ele>1398.0</ele>
        <time>2015-08-02T11:47:09Z</time>
      </trkpt>
      <trkpt lat="40.252483" lon="-4.915233">
        <ele>1402.0</ele>
        <time>2015-08-02T11:47:10Z</time>
      </trkpt>
      <trkpt lat="40.252467" lon="-4.915350">
        <ele>1406.0</ele>
        <time>2015-08-02T11:47:11Z</time>
      </trkpt>
      <trkpt lat="40.252450" lon="-4.915400">
        <ele>1410.0</ele>
        <time>2015-08-02T11:47:12Z</time>
      </trkpt>
      <trkpt lat="40.252450" lon="-4.915483">
        <ele>1415.0</ele>
        <time>2015-08-02T11:47:13Z</time>
      </trkpt>
      <trkpt lat="40.252467" lon="-4.915550">
        <ele>1418.0</ele>
        <time>2015-08-02T11:47:14Z</time>
      </trkpt>
      <trkpt lat="40.252533" lon="-4.915633">
        <ele>1421.0</ele>
        <time>2015-08-02T11:47:15Z</time>
      </trkpt>
      <trkpt lat="40.252583" lon="-4.915650">
        <ele>1423.0</ele>
        <time>2015-08-02T11:47:16Z</time>
      </trkpt>
      <trkpt lat="40.252667" lon="-4.915650">
        <ele>1424.0</ele>
        <time>2015-08-02T11:47:17Z</time>
      </trkpt>
      <trkpt lat="40.252767" lon="-4.915633">
        <ele>1423.0</ele>
        <time>2015-08-02T11:47:18Z</time>
      </trkpt>
      <trkpt lat="40.252883" lon="-4.915617">
        <ele>1423.0</ele>
        <time>2015-08-02T11:47:19Z</time>
      </trkpt>
      <trkpt lat="40.253017" lon="-4.915567">
        <ele>1422.0</ele>
        <time>2015-08-02T11:47:20Z</time>
      </trkpt>
      <trkpt lat="40.253150" lon="-4.915483">
        <ele>1423.0</ele>
        <time>2015-08-02T11:47:21Z</time>
      </trkpt>
      <trkpt lat="40.253250" lon="-4.915333">
        <ele>1427.0</ele>
        <time>2015-08-02T11:47:22Z</time>
      </trkpt>
      <trkpt lat="40.253300" lon="-4.915167">
        <ele>1432.0</ele>
        <time>2015-08-02T11:47:23Z</time>
      </trkpt>
      <trkpt lat="40.253333" lon="-4.915000">
        <ele>1438.0</ele>
        <time>2015-08-02T11:47:24Z</time>
      </trkpt>
      <trkpt lat="40.253333" lon="-4.914867">
        <ele>1444.0</ele>
        <time>2015-08-02T11:47:25Z</time>
      </trkpt>
      <trkpt lat="40.253333" lon="-4.914750">
        <ele>1450.0</ele>
        <time>2015-08-02T11:47:26Z</time>
      </trkpt>
      <trkpt lat="40.253350" lon="-4.914633">
        <ele>1454.0</ele>
        <time>2015-08-02T11:47:27Z</time>
      </trkpt>
      <trkpt lat="40.253350" lon="-4.914533">
        <ele>1458.0</ele>
        <time>2015-08-02T11:47:28Z</time>
      </trkpt>
      <trkpt lat="40.253333" lon="-4.914450">
        <ele>1461.0</ele>
        <time>2015-08-02T11:47:29Z</time>
      </trkpt>
      <trkpt lat="40.253300" lon="-4.914400">
        <ele>1462.0</ele>
        <time>2015-08-02T11:47:30Z</time>
      </trkpt>
      <trkpt lat="40.253233" lon="-4.914467">
        <ele>1463.0</ele>
        <time>2015-08-02T11:47:31Z</time>
      </trkpt>
      <trkpt lat="40.253233" lon="-4.914583">
        <ele>1466.0</ele>
        <time>2015-08-02T11:47:32Z</time>
      </trkpt>
      <trkpt lat="40.253267" lon="-4.914683">
        <ele>1470.0</ele>
        <time>2015-08-02T11:47:33Z</time>
      </trkpt>
      <trkpt lat="40.253333" lon="-4.914783">
        <ele>1475.0</ele>
        <time>2015-08-02T11:47:34Z</time>
      </trkpt>
      <trkpt lat="40.253417" lon="-4.914850">
        <ele>1480.0</ele>
        <time>2015-08-02T11:47:35Z</time>
      </trkpt>
      <trkpt lat="40.253483" lon="-4.914867">
        <ele>1484.0</ele>
        <time>2015-08-02T11:47:36Z</time>
      </trkpt>
      <trkpt lat="40.253567" lon="-4.914883">
        <ele>1487.0</ele>
        <time>2015-08-02T11:47:37Z</time>
      </trkpt>
      <trkpt lat="40.253667" lon="-4.914917">
        <ele>1489.0</ele>
        <time>2015-08-02T11:47:38Z</time>
      </trkpt>
      <trkpt lat="40.253767" lon="-4.914933">
        <ele>1491.0</ele>
        <time>2015-08-02T11:47:39Z</time>
      </trkpt>
      <trkpt lat="40.253900" lon="-4.914900">
        <ele>1494.0</ele>
        <time>2015-08-02T11:47:40Z</time>
      </trkpt>
      <trkpt lat="40.254033" lon="-4.914817">
        <ele>1498.0</ele>
        <time>2015-08-02T11:47:41Z</time>
      </trkpt>
      <trkpt lat="40.254133" lon="-4.914683">
        <ele>1502.0</ele>
        <time>2015-08-02T11:47:42Z</time>
      </trkpt>
      <trkpt lat="40.254183" lon="-4.914533">
        <ele>1506.0</ele>
        <time>2015-08-02T11:47:43Z</time>
      </trkpt>
      <trkpt lat="40.254183" lon="-4.914383">
        <ele>1511.0</ele>
        <time>2015-08-02T11:47:44Z</time>
      </trkpt>
      <trkpt lat="40.254150" lon="-4.914250">
        <ele>1515.0</ele>
        <time>2015-08-02T11:47:45Z</time>
      </trkpt>
      <trkpt lat="40.254100" lon="-4.914200">
        <ele>1519.0</ele>
        <time>2015-08-02T11:47:46Z</time>
      </trkpt>
      <trkpt lat="40.254033" lon="-4.914183">
        <ele>1521.0</ele>
        <time>2015-08-02T11:47:47Z</time>
      </trkpt>
      <trkpt lat="40.253983" lon="-4.914217">
        <ele>1524.0</ele>
        <time>2015-08-02T11:47:48Z</time>
      </trkpt>
      <trkpt lat="40.253933" lon="-4.914250">
        <ele>1529.0</ele>
        <time>2015-08-02T11:47:49Z</time>
      </trkpt>
      <trkpt lat="40.253900" lon="-4.914283">
        <ele>1534.0</ele>
        <time>2015-08-02T11:47:50Z</time>
      </trkpt>
      <trkpt lat="40.253900" lon="-4.914333">
        <ele>1538.0</ele>
        <time>2015-08-02T11:47:51Z</time>
      </trkpt>
      <trkpt lat="40.253900" lon="-4.914400">
        <ele>1541.0</ele>
        <time>2015-08-02T11:47:52Z</time>
      </trkpt>
      <trkpt lat="40.253917" lon="-4.914483">
        <ele>1541.0</ele>
        <time>2015-08-02T11:47:53Z</time>
      </trkpt>
      <trkpt lat="40.253967" lon="-4.914600">
        <ele>1541.0</ele>
        <time>2015-08-02T11:47:54Z</time>
      </trkpt>
      <trkpt lat="40.254033" lon="-4.914700">
        <ele>1542.0</ele>
        <time>2015-08-02T11:47:55Z</time>
      </trkpt>
      <trkpt lat="40.254150" lon="-4.914767">
        <ele>1545.0</ele>
        <time>2015-08-02T11:47:56Z</time>
      </trkpt>
      <trkpt lat="40.254283" lon="-4.914783">
        <ele>1547.0</ele>
        <time>2015-08-02T11:47:57Z</time>
      </trkpt>
      <trkpt lat="40.254417" lon="-4.914700">
        <ele>1547.0</ele>
        <time>2015-08-02T11:47:58Z</time>
      </trkpt>
      <trkpt lat="40.254517" lon="-4.914567">
        <ele>1549.0</ele>
        <time>2015-08-02T11:47:59Z</time>
      </trkpt>
      <trkpt lat="40.254583" lon="-4.914400">
        <ele>1554.0</ele>
        <time>2015-08-02T11:48:00Z</time>
      </trkpt>
      <trkpt lat="40.254633" lon="-4.914250">
        <ele>1560.0</ele>
        <time>2015-08-02T11:48:01Z</time>
      </trkpt>
      <trkpt lat="40.254683" lon="-4.914150">
        <ele>1566.0</ele>
        <time>2015-08-02T11:48:02Z</time>
      </trkpt>
      <trkpt lat="40.254717" lon="-4.914033">
        <ele>1570.0</ele>
        <time>2015-08-02T11:48:03Z</time>
      </trkpt>
      <trkpt lat="40.254767" lon="-4.913917">
        <ele>1572.0</ele>
        <time>2015-08-02T11:48:04Z</time>
      </trkpt>
      <trkpt lat="40.254800" lon="-4.913783">
        <ele>1573.0</ele>
        <time>2015-08-02T11:48:05Z</time>
      </trkpt>
      <trkpt lat="40.254817" lon="-4.913633">
        <ele>1574.0</ele>
        <time>2015-08-02T11:48:06Z</time>
      </trkpt>
      <trkpt lat="40.254783" lon="-4.913483">
        <ele>1575.0</ele>
        <time>2015-08-02T11:48:07Z</time>
      </trkpt>
      <trkpt lat="40.254733" lon="-4.913367">
        <ele>1578.0</ele>
        <time>2015-08-02T11:48:08Z</time>
      </trkpt>
      <trkpt lat="40.254667" lon="-4.913300">
        <ele>1582.0</ele>
        <time>2015-08-02T11:48:09Z</time>
      </trkpt>
      <trkpt lat="40.254617" lon="-4.913300">
        <ele>1586.0</ele>
        <time>2015-08-02T11:48:10Z</time>
      </trkpt>
      <trkpt lat="40.254583" lon="-4.913350">
        <ele>1589.0</ele>
        <time>2015-08-02T11:48:11Z</time>
      </trkpt>
      <trkpt lat="40.254583" lon="-4.913417">
        <ele>1591.0</ele>
        <time>2015-08-02T11:48:12Z</time>
      </trkpt>
      <trkpt lat="40.254600" lon="-4.913500">
        <ele>1593.0</ele>
        <time>2015-08-02T11:48:13Z</time>
      </trkpt>
      <trkpt lat="40.254633" lon="-4.913600">
        <ele>1595.0</ele>
        <time>2015-08-02T11:48:14Z</time>
      </trkpt>
      <trkpt lat="40.254683" lon="-4.913700">
        <ele>1599.0</ele>
        <time>2015-08-02T11:48:15Z</time>
      </trkpt>
      <trkpt lat="40.254783" lon="-4.913783">
        <ele>1603.0</ele>
        <time>2015-08-02T11:48:16Z</time>
      </trkpt>
      <trkpt lat="40.254900" lon="-4.913817">
        <ele>1605.0</ele>
        <time>2015-08-02T11:48:17Z</time>
      </trkpt>
      <trkpt lat="40.255017" lon="-4.913800">
        <ele>1607.0</ele>
        <time>2015-08-02T11:48:18Z</time>
      </trkpt>
      <trkpt lat="40.255150" lon="-4.913733">
        <ele>1609.0</ele>
        <time>2015-08-02T11:48:19Z</time>
      </trkpt>
      <trkpt lat="40.255267" lon="-4.913633">
        <ele>1614.0</ele>
        <time>2015-08-02T11:48:20Z</time>
      </trkpt>
      <trkpt lat="40.255367" lon="-4.913500">
        <ele>1618.0</ele>
        <time>2015-08-02T11:48:21Z</time>
      </trkpt>
      <trkpt lat="40.255433" lon="-4.913350">
        <ele>1622.0</ele>
        <time>2015-08-02T11:48:22Z</time>
      </trkpt>
      <trkpt lat="40.255467" lon="-4.913183">
        <ele>1626.0</ele>
        <time>2015-08-02T11:48:23Z</time>
      </trkpt>
      <trkpt lat="40.255467" lon="-4.913050">
        <ele>1629.0</ele>
        <time>2015-08-02T11:48:24Z</time>
      </trkpt>
      <trkpt lat="40.255467" lon="-4.912933">
        <ele>1633.0</ele>
        <time>2015-08-02T11:48:25Z</time>
      </trkpt>
      <trkpt lat="40.255450" lon="-4.912817">
        <ele>1635.0</ele>
        <time>2015-08-02T11:48:26Z</time>
      </trkpt>
      <trkpt lat="40.255417" lon="-4.912733">
        <ele>1637.0</ele>
        <time>2015-08-02T11:48:27Z</time>
      </trkpt>
      <trkpt lat="40.255383" lon="-4.912667">
        <ele>1638.0</ele>
        <time>2015-08-02T11:48:28Z</time>
      </trkpt>
      <trkpt lat="40.255333" lon="-4.912650">
        <ele>1638.0</ele>
        <time>2015-08-02T11:48:29Z</time>
      </trkpt>
      <trkpt lat="40.255283" lon="-4.912683">
        <ele>1639.0</ele>
        <time>2015-08-02T11:48:30Z</time>
      </trkpt>
      <trkpt lat="40.255250" lon="-4.912750">
        <ele>1641.0</ele>
        <time>2015-08-02T11:48:31Z</time>
      </trkpt>
      <trkpt lat="40.255250" lon="-4.912833">
        <ele>1644.0</ele>
        <time>2015-08-02T11:48:32Z</time>
      </trkpt>
      <trkpt lat="40.255267" lon="-4.912917">
        <ele>1647.0</ele>
        <time>2015-08-02T11:48:33Z</time>
      </trkpt>
      <trkpt lat="40.255333" lon="-4.913000">
        <ele>1649.0</ele>
        <time>2015-08-02T11:48:34Z</time>
      </trkpt>
      <trkpt lat="40.255417" lon="-4.913067">
        <ele>1651.0</ele>
        <time>2015-08-02T11:48:35Z</time>
      </trkpt>
      <trkpt lat="40.255533" lon="-4.913100">
        <ele>1653.0</ele>
        <time>2015-08-02T11:48:36Z</time>
      </trkpt>
      <trkpt lat="40.255683" lon="-4.913100">
        <ele>1655.0</ele>
        <time>2015-08-02T11:48:37Z</time>
      </trkpt>
      <trkpt lat="40.255817" lon="-4.913067">
        <ele>1659.0</ele>
        <time>2015-08-02T11:48:38Z</time>
      </trkpt>
      <trkpt lat="40.255950" lon="-4.912983">
        <ele>1664.0</ele>
        <time>2015-08-02T11:48:39Z</time>
      </trkpt>
      <trkpt lat="40.256050" lon="-4.912883">
        <ele>1669.0</ele>
        <time>2015-08-02T11:48:40Z</time>
      </trkpt>
      <trkpt lat="40.256133" lon="-4.912767">
        <ele>1674.0</ele>
        <time>2015-08-02T11:48:41Z</time>
      </trkpt>
      <trkpt lat="40.256183" lon="-4.912667">
        <ele>1677.0</ele>
        <time>2015-08-02T11:48:42Z</time>
      </trkpt>
      <trkpt lat="40.256200" lon="-4.912550">
        <ele>1678.0</ele>
        <time>2015-08-02T11:48:43Z</time>
      </trkpt>
      <trkpt lat="40.256183" lon="-4.912450">
        <ele>1678.0</ele>
        <time>2015-08-02T11:48:44Z</time>
      </trkpt>
      <trkpt lat="40.256150" lon="-4.912333">
        <ele>1678.0</ele>
        <time>2015-08-02T11:48:45Z</time>
      </trkpt>
      <trkpt lat="40.256100" lon="-4.912317">
        <ele>1678.0</ele>
        <time>2015-08-02T11:48:46Z</time>
      </trkpt>
      <trkpt lat="40.256050" lon="-4.912350">
        <ele>1679.0</ele>
        <time>2015-08-02T11:48:47Z</time>
      </trkpt>
      <trkpt lat="40.256017" lon="-4.912450">
        <ele>1679.0</ele>
        <time>2015-08-02T11:48:48Z</time>
      </trkpt>
      <trkpt lat="40.256067" lon="-4.912583">
        <ele>1682.0</ele>
        <time>2015-08-02T11:48:49Z</time>
      </trkpt>
      <trkpt lat="40.256150" lon="-4.912683">
        <ele>1686.0</ele>
        <time>2015-08-02T11:48:50Z</time>
      </trkpt>
      <trkpt lat="40.256250" lon="-4.912733">
        <ele>1690.0</ele>
        <time>2015-08-02T11:48:51Z</time>
      </trkpt>
      <trkpt lat="40.256367" lon="-4.912750">
        <ele>1694.0</ele>
        <time>2015-08-02T11:48:52Z</time>
      </trkpt>
      <trkpt lat="40.256483" lon="-4.912750">
        <ele>1697.0</ele>
        <time>2015-08-02T11:48:53Z</time>
      </trkpt>
      <trkpt lat="40.256600" lon="-4.912750">
        <ele>1701.0</ele>
        <time>2015-08-02T11:48:54Z</time>
      </trkpt>
      <trkpt lat="40.256733" lon="-4.912733">
        <ele>1703.0</ele>
        <time>2015-08-02T11:48:55Z</time>
      </trkpt>
      <trkpt lat="40.256867" lon="-4.912683">
        <ele>1705.0</ele>
        <time>2015-08-02T11:48:56Z</time>
      </trkpt>
      <trkpt lat="40.257000" lon="-4.912617">
        <ele>1708.0</ele>
        <time>2015-08-02T11:48:57Z</time>
      </trkpt>
      <trkpt lat="40.257100" lon="-4.912500">
        <ele>1710.0</ele>
        <time>2015-08-02T11:48:58Z</time>
      </trkpt>
      <trkpt lat="40.257167" lon="-4.912350">
        <ele>1711.0</ele>
        <time>2015-08-02T11:48:59Z</time>
      </trkpt>
      <trkpt lat="40.257200" lon="-4.912183">
        <ele>1712.0</ele>
        <time>2015-08-02T11:49:00Z</time>
      </trkpt>
      <trkpt lat="40.257200" lon="-4.912050">
        <ele>1714.0</ele>
        <time>2015-08-02T11:49:01Z</time>
      </trkpt>
      <trkpt lat="40.257183" lon="-4.911917">
        <ele>1716.0</ele>
        <time>2015-08-02T11:49:02Z</time>
      </trkpt>
      <trkpt lat="40.257150" lon="-4.911833">
        <ele>1718.0</ele>
        <time>2015-08-02T11:49:03Z</time>
      </trkpt>
      <trkpt lat="40.257083" lon="-4.911800">
        <ele>1717.0</ele>
        <time>2015-08-02T11:49:04Z</time>
      </trkpt>
      <trkpt lat="40.257000" lon="-4.911850">
        <ele>1716.0</ele>
        <time>2015-08-02T11:49:05Z</time>
      </trkpt>
      <trkpt lat="40.256950" lon="-4.911933">
        <ele>1718.0</ele>
        <time>2015-08-02T11:49:06Z</time>
      </trkpt>
      <trkpt lat="40.256933" lon="-4.912050">
        <ele>1722.0</ele>
        <time>2015-08-02T11:49:07Z</time>
      </trkpt>
      <trkpt lat="40.256933" lon="-4.912100">
        <ele>1727.0</ele>
        <time>2015-08-02T11:49:08Z</time>
      </trkpt>
      <trkpt lat="40.256933" lon="-4.912150">
        <ele>1730.0</ele>
        <time>2015-08-02T11:49:09Z</time>
      </trkpt>
      <trkpt lat="40.256950" lon="-4.912183">
        <ele>1732.0</ele>
        <time>2015-08-02T11:49:10Z</time>
      </trkpt>
      <trkpt lat="40.256967" lon="-4.912250">
        <ele>1734.0</ele>
        <time>2015-08-02T11:49:11Z</time>
      </trkpt>
      <trkpt lat="40.257000" lon="-4.912333">
        <ele>1735.0</ele>
        <time>2015-08-02T11:49:12Z</time>
      </trkpt>
      <trkpt lat="40.257083" lon="-4.912417">
        <ele>1736.0</ele>
        <time>2015-08-02T11:49:13Z</time>
      </trkpt>
      <trkpt lat="40.257200" lon="-4.912483">
        <ele>1738.0</ele>
        <time>2015-08-02T11:49:14Z</time>
      </trkpt>
      <trkpt lat="40.257350" lon="-4.912483">
        <ele>1741.0</ele>
        <time>2015-08-02T11:49:15Z</time>
      </trkpt>
      <trkpt lat="40.257500" lon="-4.912433">
        <ele>1745.0</ele>
        <time>2015-08-02T11:49:16Z</time>
      </trkpt>
      <trkpt lat="40.257633" lon="-4.912333">
        <ele>1750.0</ele>
        <time>2015-08-02T11:49:17Z</time>
      </trkpt>
      <trkpt lat="40.257733" lon="-4.912200">
        <ele>1755.0</ele>
        <time>2015-08-02T11:49:18Z</time>
      </trkpt>
      <trkpt lat="40.257817" lon="-4.912083">
        <ele>1759.0</ele>
        <time>2015-08-02T11:49:19Z</time>
      </trkpt>
      <trkpt lat="40.257917" lon="-4.911967">
        <ele>1761.0</ele>
        <time>2015-08-02T11:49:20Z</time>
      </trkpt>
      <trkpt lat="40.257983" lon="-4.911850">
        <ele>1763.0</ele>
        <time>2015-08-02T11:49:21Z</time>
      </trkpt>
      <trkpt lat="40.258050" lon="-4.911700">
        <ele>1764.0</ele>
        <time>2015-08-02T11:49:22Z</time>
      </trkpt>
      <trkpt lat="40.258067" lon="-4.911550">
        <ele>1764.0</ele>
        <time>2015-08-02T11:49:23Z</time>
      </trkpt>
      <trkpt lat="40.258033" lon="-4.911417">
        <ele>1764.0</ele>
        <time>2015-08-02T11:49:24Z</time>
      </trkpt>
      <trkpt lat="40.257983" lon="-4.911300">
        <ele>1765.0</ele>
        <time>2015-08-02T11:49:25Z</time>
      </trkpt>
      <trkpt lat="40.257917" lon="-4.911250">
        <ele>1767.0</ele>
        <time>2015-08-02T11:49:26Z</time>
      </trkpt>
      <trkpt lat="40.257867" lon="-4.911233">
        <ele>1769.0</ele>
        <time>2015-08-02T11:49:27Z</time>
      </trkpt>
      <trkpt lat="40.257833" lon="-4.911250">
        <ele>1770.0</ele>
        <time>2015-08-02T11:49:28Z</time>
      </trkpt>
      <trkpt lat="40.257800" lon="-4.911300">
        <ele>1770.0</ele>
        <time>2015-08-02T11:49:29Z</time>
      </trkpt>
      <trkpt lat="40.257783" lon="-4.911367">
        <ele>1770.0</ele>
        <time>2015-08-02T11:49:30Z</time>
      </trkpt>
      <trkpt lat="40.257767" lon="-4.911467">
        <ele>1771.0</ele>
        <time>2015-08-02T11:49:31Z</time>
      </trkpt>
      <trkpt lat="40.257800" lon="-4.911567">
        <ele>1772.0</ele>
        <time>2015-08-02T11:49:32Z</time>
      </trkpt>
      <trkpt lat="40.257867" lon="-4.911700">
        <ele>1774.0</ele>
        <time>2015-08-02T11:49:33Z</time>
      </trkpt>
      <trkpt lat="40.257933" lon="-4.911750">
        <ele>1775.0</ele>
        <time>2015-08-02T11:49:34Z</time>
      </trkpt>
      <trkpt lat="40.258050" lon="-4.911817">
        <ele>1776.0</ele>
        <time>2015-08-02T11:49:35Z</time>
      </trkpt>
      <trkpt lat="40.258183" lon="-4.911867">
        <ele>1777.0</ele>
        <time>2015-08-02T11:49:36Z</time>
      </trkpt>
      <trkpt lat="40.258317" lon="-4.911883">
        <ele>1779.0</ele>
        <time>2015-08-02T11:49:37Z</time>
      </trkpt>
      <trkpt lat="40.258450" lon="-4.911867">
        <ele>1781.0</ele>
        <time>2015-08-02T11:49:38Z</time>
      </trkpt>
      <trkpt lat="40.258583" lon="-4.911800">
        <ele>1782.0</ele>
        <time>2015-08-02T11:49:39Z</time>
      </trkpt>
      <trkpt lat="40.258683" lon="-4.911700">
        <ele>1784.0</ele>
        <time>2015-08-02T11:49:40Z</time>
      </trkpt>
      <trkpt lat="40.258767" lon="-4.911550">
        <ele>1785.0</ele>
        <time>2015-08-02T11:49:41Z</time>
      </trkpt>
      <trkpt lat="40.258817" lon="-4.911383">
        <ele>1787.0</ele>
        <time>2015-08-02T11:49:42Z</time>
      </trkpt>
      <trkpt lat="40.258817" lon="-4.911233">
        <ele>1790.0</ele>
        <time>2015-08-02T11:49:43Z</time>
      </trkpt>
      <trkpt lat="40.258800" lon="-4.911100">
        <ele>1792.0</ele>
        <time>2015-08-02T11:49:44Z</time>
      </trkpt>
      <trkpt lat="40.258750" lon="-4.911000">
        <ele>1794.0</ele>
        <time>2015-08-02T11:49:45Z</time>
      </trkpt>
      <trkpt lat="40.258700" lon="-4.910933">
        <ele>1794.0</ele>
        <time>2015-08-02T11:49:46Z</time>
      </trkpt>
      <trkpt lat="40.258650" lon="-4.910917">
        <ele>1795.0</ele>
        <time>2015-08-02T11:49:47Z</time>
      </trkpt>
      <trkpt lat="40.258600" lon="-4.910917">
        <ele>1796.0</ele>
        <time>2015-08-02T11:49:48Z</time>
      </trkpt>
      <trkpt lat="40.258550" lon="-4.910950">
        <ele>1796.0</ele>
        <time>2015-08-02T11:49:49Z</time>
      </trkpt>
      <trkpt lat="40.258517" lon="-4.911017">
        <ele>1797.0</ele>
        <time>2015-08-02T11:49:50Z</time>
      </trkpt>
      <trkpt lat="40.258500" lon="-4.911100">
        <ele>1799.0</ele>
        <time>2015-08-02T11:49:51Z</time>
      </trkpt>
      <trkpt lat="40.258500" lon="-4.911200">
        <ele>1800.0</ele>
        <time>2015-08-02T11:49:52Z</time>
      </trkpt>
      <trkpt lat="40.258533" lon="-4.911300">
        <ele>1801.0</ele>
        <time>2015-08-02T11:49:53Z</time>
      </trkpt>
      <trkpt lat="40.258583" lon="-4.911400">
        <ele>1803.0</ele>
        <time>2015-08-02T11:49:54Z</time>
      </trkpt>
      <trkpt lat="40.258667" lon="-4.911500">
        <ele>1804.0</ele>
        <time>2015-08-02T11:49:55Z</time>
      </trkpt>
      <trkpt lat="40.258767" lon="-4.911583">
        <ele>1804.0</ele>
        <time>2015-08-02T11:49:56Z</time>
      </trkpt>
      <trkpt lat="40.258900" lon="-4.911633">
        <ele>1804.0</ele>
        <time>2015-08-02T11:49:57Z</time>
      </trkpt>
      <trkpt lat="40.259050" lon="-4.911633">
        <ele>1805.0</ele>
        <time>2015-08-02T11:49:58Z</time>
      </trkpt>
      <trkpt lat="40.259183" lon="-4.911550">
        <ele>1806.0</ele>
        <time>2015-08-02T11:49:59Z</time>
      </trkpt>
      <trkpt lat="40.259300" lon="-4.911417">
        <ele>1806.0</ele>
        <time>2015-08-02T11:50:00Z</time>
      </trkpt>
      <trkpt lat="40.259367" lon="-4.911250">
        <ele>1809.0</ele>
        <time>2015-08-02T11:50:01Z</time>
      </trkpt>
      <trkpt lat="40.259400" lon="-4.911117">
        <ele>1813.0</ele>
        <time>2015-08-02T11:50:02Z</time>
      </trkpt>
      <trkpt lat="40.259450" lon="-4.911000">
        <ele>1817.0</ele>
        <time>2015-08-02T11:50:03Z</time>
      </trkpt>
      <trkpt lat="40.259483" lon="-4.910883">
        <ele>1820.0</ele>
        <time>2015-08-02T11:50:04Z</time>
      </trkpt>
      <trkpt lat="40.259500" lon="-4.910783">
        <ele>1822.0</ele>
        <time>2015-08-02T11:50:05Z</time>
      </trkpt>
      <trkpt lat="40.259533" lon="-4.910667">
        <ele>1823.0</ele>
        <time>2015-08-02T11:50:06Z</time>
      </trkpt>
      <trkpt lat="40.259533" lon="-4.910550">
        <ele>1823.0</ele>
        <time>2015-08-02T11:50:07Z</time>
      </trkpt>
      <trkpt lat="40.259500" lon="-4.910450">
        <ele>1823.0</ele>
        <time>2015-08-02T11:50:08Z</time>
      </trkpt>
      <trkpt lat="40.259450" lon="-4.910400">
        <ele>1822.0</ele>
        <time>2015-08-02T11:50:09Z</time>
      </trkpt>
      <trkpt lat="40.259400" lon="-4.910433">
        <ele>1820.0</ele>
        <time>2015-08-02T11:50:10Z</time>
      </trkpt>
      <trkpt lat="40.259350" lon="-4.910533">
        <ele>1819.0</ele>
        <time>2015-08-02T11:50:11Z</time>
      </trkpt>
      <trkpt lat="40.259350" lon="-4.910667">
        <ele>1821.0</ele>
        <time>2015-08-02T11:50:12Z</time>
      </trkpt>
      <trkpt lat="40.259383" lon="-4.910783">
        <ele>1824.0</ele>
        <time>2015-08-02T11:50:13Z</time>
      </trkpt>
      <trkpt lat="40.259467" lon="-4.910917">
        <ele>1827.0</ele>
        <time>2015-08-02T11:50:14Z</time>
      </trkpt>
      <trkpt lat="40.259550" lon="-4.910967">
        <ele>1828.0</ele>
        <time>2015-08-02T11:50:15Z</time>
      </trkpt>
      <trkpt lat="40.259667" lon="-4.911033">
        <ele>1828.0</ele>
        <time>2015-08-02T11:50:16Z</time>
      </trkpt>
      <trkpt lat="40.259783" lon="-4.911067">
        <ele>1828.0</ele>
        <time>2015-08-02T11:50:17Z</time>
      </trkpt>
      <trkpt lat="40.259917" lon="-4.911083">
        <ele>1829.0</ele>
        <time>2015-08-02T11:50:18Z</time>
      </trkpt>
      <trkpt lat="40.260067" lon="-4.911050">
        <ele>1829.0</ele>
        <time>2015-08-02T11:50:19Z</time>
      </trkpt>
      <trkpt lat="40.260150" lon="-4.911000">
        <ele>1829.0</ele>
        <time>2015-08-02T11:50:20Z</time>
      </trkpt>
      <trkpt lat="40.260250" lon="-4.910917">
        <ele>1827.0</ele>
        <time>2015-08-02T11:50:21Z</time>
      </trkpt>
      <trkpt lat="40.260367" lon="-4.910800">
        <ele>1825.0</ele>
        <time>2015-08-02T11:50:22Z</time>
      </trkpt>
      <trkpt lat="40.260450" lon="-4.910650">
        <ele>1823.0</ele>
        <time>2015-08-02T11:50:23Z</time>
      </trkpt>
      <trkpt lat="40.260517" lon="-4.910483">
        <ele>1822.0</ele>
        <time>2015-08-02T11:50:24Z</time>
      </trkpt>
      <trkpt lat="40.260533" lon="-4.910317">
        <ele>1821.0</ele>
        <time>2015-08-02T11:50:25Z</time>
      </trkpt>
      <trkpt lat="40.260517" lon="-4.910183">
        <ele>1822.0</ele>
        <time>2015-08-02T11:50:26Z</time>
      </trkpt>
      <trkpt lat="40.260483" lon="-4.910050">
        <ele>1823.0</ele>
        <time>2015-08-02T11:50:27Z</time>
      </trkpt>
      <trkpt lat="40.260467" lon="-4.909950">
        <ele>1825.0</ele>
        <time>2015-08-02T11:50:28Z</time>
      </trkpt>
      <trkpt lat="40.260450" lon="-4.909850">
        <ele>1827.0</ele>
        <time>2015-08-02T11:50:29Z</time>
      </trkpt>
      <trkpt lat="40.260417" lon="-4.909767">
        <ele>1829.0</ele>
        <time>2015-08-02T11:50:30Z</time>
      </trkpt>
      <trkpt lat="40.260400" lon="-4.909667">
        <ele>1830.0</ele>
        <time>2015-08-02T11:50:31Z</time>
      </trkpt>
      <trkpt lat="40.260350" lon="-4.909567">
        <ele>1832.0</ele>
        <time>2015-08-02T11:50:32Z</time>
      </trkpt>
      <trkpt lat="40.260300" lon="-4.909517">
        <ele>1833.0</ele>
        <time>2015-08-02T11:50:33Z</time>
      </trkpt>
      <trkpt lat="40.260233" lon="-4.909533">
        <ele>1834.0</ele>
        <time>2015-08-02T11:50:34Z</time>
      </trkpt>
      <trkpt lat="40.260200" lon="-4.909600">
        <ele>1836.0</ele>
        <time>2015-08-02T11:50:35Z</time>
      </trkpt>
      <trkpt lat="40.260217" lon="-4.909700">
        <ele>1838.0</ele>
        <time>2015-08-02T11:50:36Z</time>
      </trkpt>
      <trkpt lat="40.260283" lon="-4.909800">
        <ele>1839.0</ele>
        <time>2015-08-02T11:50:37Z</time>
      </trkpt>
      <trkpt lat="40.260383" lon="-4.909900">
        <ele>1842.0</ele>
        <time>2015-08-02T11:50:38Z</time>
      </trkpt>
      <trkpt lat="40.260483" lon="-4.909967">
        <ele>1843.0</ele>
        <time>2015-08-02T11:50:39Z</time>
      </trkpt>
      <trkpt lat="40.260583" lon="-4.909983">
        <ele>1843.0</ele>
        <time>2015-08-02T11:50:40Z</time>
      </trkpt>
      <trkpt lat="40.260683" lon="-4.909983">
        <ele>1842.0</ele>
        <time>2015-08-02T11:50:41Z</time>
      </trkpt>
      <trkpt lat="40.260783" lon="-4.909950">
        <ele>1839.0</ele>
        <time>2015-08-02T11:50:42Z</time>
      </trkpt>
      <trkpt lat="40.260917" lon="-4.909900">
        <ele>1836.0</ele>
        <time>2015-08-02T11:50:43Z</time>
      </trkpt>
      <trkpt lat="40.261050" lon="-4.909783">
        <ele>1834.0</ele>
        <time>2015-08-02T11:50:44Z</time>
      </trkpt>
      <trkpt lat="40.261167" lon="-4.909633">
        <ele>1833.0</ele>
        <time>2015-08-02T11:50:45Z</time>
      </trkpt>
      <trkpt lat="40.261233" lon="-4.909433">
        <ele>1832.0</ele>
        <time>2015-08-02T11:50:46Z</time>
      </trkpt>
      <trkpt lat="40.261250" lon="-4.909250">
        <ele>1833.0</ele>
        <time>2015-08-02T11:50:47Z</time>
      </trkpt>
      <trkpt lat="40.261250" lon="-4.909067">
        <ele>1834.0</ele>
        <time>2015-08-02T11:50:48Z</time>
      </trkpt>
      <trkpt lat="40.261250" lon="-4.908900">
        <ele>1836.0</ele>
        <time>2015-08-02T11:50:49Z</time>
      </trkpt>
      <trkpt lat="40.261233" lon="-4.908717">
        <ele>1838.0</ele>
        <time>2015-08-02T11:50:50Z</time>
      </trkpt>
      <trkpt lat="40.261250" lon="-4.908550">
        <ele>1842.0</ele>
        <time>2015-08-02T11:50:51Z</time>
      </trkpt>
      <trkpt lat="40.261283" lon="-4.908383">
        <ele>1844.0</ele>
        <time>2015-08-02T11:50:52Z</time>
      </trkpt>
      <trkpt lat="40.261317" lon="-4.908217">
        <ele>1846.0</ele>
        <time>2015-08-02T11:50:53Z</time>
      </trkpt>
      <trkpt lat="40.261333" lon="-4.908050">
        <ele>1848.0</ele>
        <time>2015-08-02T11:50:54Z</time>
      </trkpt>
      <trkpt lat="40.261333" lon="-4.907933">
        <ele>1849.0</ele>
        <time>2015-08-02T11:50:55Z</time>
      </trkpt>
      <trkpt lat="40.261300" lon="-4.907833">
        <ele>1848.0</ele>
        <time>2015-08-02T11:50:56Z</time>
      </trkpt>
      <trkpt lat="40.261233" lon="-4.907783">
        <ele>1846.0</ele>
        <time>2015-08-02T11:50:57Z</time>
      </trkpt>
      <trkpt lat="40.261167" lon="-4.907783">
        <ele>1845.0</ele>
        <time>2015-08-02T11:50:58Z</time>
      </trkpt>
      <trkpt lat="40.261083" lon="-4.907833">
        <ele>1845.0</ele>
        <time>2015-08-02T11:50:59Z</time>
      </trkpt>
      <trkpt lat="40.261050" lon="-4.907867">
        <ele>1848.0</ele>
        <time>2015-08-02T11:51:00Z</time>
      </trkpt>
      <trkpt lat="40.261033" lon="-4.907933">
        <ele>1851.0</ele>
        <time>2015-08-02T11:51:01Z</time>
      </trkpt>
      <trkpt lat="40.261050" lon="-4.908017">
        <ele>1853.0</ele>
        <time>2015-08-02T11:51:02Z</time>
      </trkpt>
      <trkpt lat="40.261100" lon="-4.908100">
        <ele>1854.0</ele>
        <time>2015-08-02T11:51:03Z</time>
      </trkpt>
      <trkpt lat="40.261183" lon="-4.908167">
        <ele>1853.0</ele>
        <time>2015-08-02T11:51:04Z</time>
      </trkpt>
      <trkpt lat="40.261283" lon="-4.908250">
        <ele>1853.0</ele>
        <time>2015-08-02T11:51:05Z</time>
      </trkpt>
      <trkpt lat="40.261417" lon="-4.908300">
        <ele>1853.0</ele>
        <time>2015-08-02T11:51:06Z</time>
      </trkpt>
      <trkpt lat="40.261567" lon="-4.908317">
        <ele>1856.0</ele>
        <time>2015-08-02T11:51:07Z</time>
      </trkpt>
      <trkpt lat="40.261700" lon="-4.908283">
        <ele>1860.0</ele>
        <time>2015-08-02T11:51:08Z</time>
      </trkpt>
      <trkpt lat="40.261817" lon="-4.908217">
        <ele>1863.0</ele>
        <time>2015-08-02T11:51:09Z</time>
      </trkpt>
      <trkpt lat="40.261917" lon="-4.908133">
        <ele>1865.0</ele>
        <time>2015-08-02T11:51:10Z</time>
      </trkpt>
      <trkpt lat="40.262033" lon="-4.908017">
        <ele>1866.0</ele>
        <time>2015-08-02T11:51:11Z</time>
      </trkpt>
      <trkpt lat="40.262133" lon="-4.907867">
        <ele>1865.0</ele>
        <time>2015-08-02T11:51:12Z</time>
      </trkpt>
      <trkpt lat="40.262200" lon="-4.907683">
        <ele>1865.0</ele>
        <time>2015-08-02T11:51:13Z</time>
      </trkpt>
      <trkpt lat="40.262217" lon="-4.907500">
        <ele>1865.0</ele>
        <time>2015-08-02T11:51:14Z</time>
      </trkpt>
      <trkpt lat="40.262183" lon="-4.907333">
        <ele>1866.0</ele>
        <time>2015-08-02T11:51:15Z</time>
      </trkpt>
      <trkpt lat="40.262133" lon="-4.907233">
        <ele>1869.0</ele>
        <time>2015-08-02T11:51:16Z</time>
      </trkpt>
      <trkpt lat="40.262083" lon="-4.907200">
        <ele>1871.0</ele>
        <time>2015-08-02T11:51:17Z</time>
      </trkpt>
      <trkpt lat="40.262033" lon="-4.907200">
        <ele>1873.0</ele>
        <time>2015-08-02T11:51:18Z</time>
      </trkpt>
      <trkpt lat="40.262000" lon="-4.907200">
        <ele>1875.0</ele>
        <time>2015-08-02T11:51:19Z</time>
      </trkpt>
      <trkpt lat="40.261950" lon="-4.907183">
        <ele>1874.0</ele>
        <time>2015-08-02T11:51:20Z</time>
      </trkpt>
      <trkpt lat="40.261900" lon="-4.907183">
        <ele>1874.0</ele>
        <time>2015-08-02T11:51:21Z</time>
      </trkpt>
      <trkpt lat="40.261850" lon="-4.907217">
        <ele>1874.0</ele>
        <time>2015-08-02T11:51:22Z</time>
      </trkpt>
      <trkpt lat="40.261800" lon="-4.907250">
        <ele>1876.0</ele>
        <time>2015-08-02T11:51:23Z</time>
      </trkpt>
      <trkpt lat="40.261767" lon="-4.907283">
        <ele>1879.0</ele>
        <time>2015-08-02T11:51:24Z</time>
      </trkpt>
      <trkpt lat="40.261733" lon="-4.907300">
        <ele>1881.0</ele>
        <time>2015-08-02T11:51:25Z</time>
      </trkpt>
      <trkpt lat="40.261700" lon="-4.907317">
        <ele>1882.0</ele>
        <time>2015-08-02T11:51:26Z</time>
      </trkpt>
      <trkpt lat="40.261667" lon="-4.907333">
        <ele>1882.0</ele>
        <time>2015-08-02T11:51:27Z</time>
      </trkpt>
      <trkpt lat="40.261633" lon="-4.907367">
        <ele>1882.0</ele>
        <time>2015-08-02T11:51:28Z</time>
      </trkpt>
      <trkpt lat="40.261583" lon="-4.907400">
        <ele>1881.0</ele>
        <time>2015-08-02T11:51:29Z</time>
      </trkpt>
      <trkpt lat="40.261533" lon="-4.907450">
        <ele>1883.0</ele>
        <time>2015-08-02T11:51:30Z</time>
      </trkpt>
      <trkpt lat="40.261483" lon="-4.907483">
        <ele>1885.0</ele>
        <time>2015-08-02T11:51:31Z</time>
      </trkpt>
      <trkpt lat="40.261450" lon="-4.907517">
        <ele>1888.0</ele>
        <time>2015-08-02T11:51:32Z</time>
      </trkpt>
      <trkpt lat="40.261433" lon="-4.907550">
        <ele>1891.0</ele>
        <time>2015-08-02T11:51:33Z</time>
      </trkpt>
      <trkpt lat="40.261417" lon="-4.907583">
        <ele>1892.0</ele>
        <time>2015-08-02T11:51:34Z</time>
      </trkpt>
      <trkpt lat="40.261417" lon="-4.907617">
        <ele>1893.0</ele>
        <time>2015-08-02T11:51:35Z</time>
      </trkpt>
      <trkpt lat="40.261433" lon="-4.907667">
        <ele>1892.0</ele>
        <time>2015-08-02T11:51:36Z</time>
      </trkpt>
      <trkpt lat="40.261467" lon="-4.907750">
        <ele>1891.0</ele>
        <time>2015-08-02T11:51:37Z</time>
      </trkpt>
      <trkpt lat="40.261550" lon="-4.907850">
        <ele>1890.0</ele>
        <time>2015-08-02T11:51:38Z</time>
      </trkpt>
      <trkpt lat="40.261667" lon="-4.907933">
        <ele>1890.0</ele>
        <time>2015-08-02T11:51:39Z</time>
      </trkpt>
      <trkpt lat="40.261783" lon="-4.907983">
        <ele>1893.0</ele>
        <time>2015-08-02T11:51:40Z</time>
      </trkpt>
      <trkpt lat="40.261917" lon="-4.907983">
        <ele>1894.0</ele>
        <time>2015-08-02T11:51:41Z</time>
      </trkpt>
      <trkpt lat="40.262067" lon="-4.907933">
        <ele>1894.0</ele>
        <time>2015-08-02T11:51:42Z</time>
      </trkpt>
      <trkpt lat="40.262200" lon="-4.907850">
        <ele>1892.0</ele>
        <time>2015-08-02T11:51:43Z</time>
      </trkpt>
      <trkpt lat="40.262333" lon="-4.907717">
        <ele>1890.0</ele>
        <time>2015-08-02T11:51:44Z</time>
      </trkpt>
      <trkpt lat="40.262450" lon="-4.907550">
        <ele>1889.0</ele>
        <time>2015-08-02T11:51:45Z</time>
      </trkpt>
      <trkpt lat="40.262533" lon="-4.907350">
        <ele>1889.0</ele>
        <time>2015-08-02T11:51:46Z</time>
      </trkpt>
      <trkpt lat="40.262583" lon="-4.907183">
        <ele>1890.0</ele>
        <time>2015-08-02T11:51:47Z</time>
      </trkpt>
      <trkpt lat="40.262600" lon="-4.907033">
        <ele>1891.0</ele>
        <time>2015-08-02T11:51:48Z</time>
      </trkpt>
      <trkpt lat="40.262600" lon="-4.906917">
        <ele>1891.0</ele>
        <time>2015-08-02T11:51:49Z</time>
      </trkpt>
      <trkpt lat="40.262550" lon="-4.906800">
        <ele>1891.0</ele>
        <time>2015-08-02T11:51:50Z</time>
      </trkpt>
      <trkpt lat="40.262500" lon="-4.906733">
        <ele>1890.0</ele>
        <time>2015-08-02T11:51:51Z</time>
      </trkpt>
      <trkpt lat="40.262433" lon="-4.906683">
        <ele>1890.0</ele>
        <time>2015-08-02T11:51:52Z</time>
      </trkpt>
      <trkpt lat="40.262367" lon="-4.906667">
        <ele>1891.0</ele>
        <time>2015-08-02T11:51:53Z</time>
      </trkpt>
      <trkpt lat="40.262317" lon="-4.906667">
        <ele>1892.0</ele>
        <time>2015-08-02T11:51:54Z</time>
      </trkpt>
      <trkpt lat="40.262267" lon="-4.906667">
        <ele>1894.0</ele>
        <time>2015-08-02T11:51:55Z</time>
      </trkpt>
      <trkpt lat="40.262233" lon="-4.906650">
        <ele>1896.0</ele>
        <time>2015-08-02T11:51:56Z</time>
      </trkpt>
      <trkpt lat="40.262200" lon="-4.906617">
        <ele>1897.0</ele>
        <time>2015-08-02T11:51:57Z</time>
      </trkpt>
      <trkpt lat="40.262167" lon="-4.906600">
        <ele>1896.0</ele>
        <time>2015-08-02T11:51:58Z</time>
      </trkpt>
      <trkpt lat="40.262133" lon="-4.906600">
        <ele>1895.0</ele>
        <time>2015-08-02T11:51:59Z</time>
      </trkpt>
      <trkpt lat="40.262100" lon="-4.906617">
        <ele>1895.0</ele>
        <time>2015-08-02T11:52:00Z</time>
      </trkpt>
      <trkpt lat="40.262050" lon="-4.906633">
        <ele>1893.0</ele>
        <time>2015-08-02T11:52:01Z</time>
      </trkpt>
      <trkpt lat="40.262000" lon="-4.906667">
        <ele>1893.0</ele>
        <time>2015-08-02T11:52:02Z</time>
      </trkpt>
      <trkpt lat="40.261967" lon="-4.906700">
        <ele>1894.0</ele>
        <time>2015-08-02T11:52:03Z</time>
      </trkpt>
      <trkpt lat="40.261933" lon="-4.906700">
        <ele>1895.0</ele>
        <time>2015-08-02T11:52:04Z</time>
      </trkpt>
      <trkpt lat="40.261900" lon="-4.906700">
        <ele>1896.0</ele>
        <time>2015-08-02T11:52:05Z</time>
      </trkpt>
      <trkpt lat="40.261867" lon="-4.906683">
        <ele>1896.0</ele>
        <time>2015-08-02T11:52:06Z</time>
      </trkpt>
      <trkpt lat="40.261817" lon="-4.906683">
        <ele>1896.0</ele>
        <time>2015-08-02T11:52:07Z</time>
      </trkpt>
      <trkpt lat="40.261783" lon="-4.906683">
        <ele>1896.0</ele>
        <time>2015-08-02T11:52:08Z</time>
      </trkpt>
      <trkpt lat="40.261750" lon="-4.906717">
        <ele>1895.0</ele>
        <time>2015-08-02T11:52:09Z</time>
      </trkpt>
      <trkpt lat="40.261717" lon="-4.906750">
        <ele>1894.0</ele>
        <time>2015-08-02T11:52:10Z</time>
      </trkpt>
      <trkpt lat="40.261683" lon="-4.906783">
        <ele>1894.0</ele>
        <time>2015-08-02T11:52:11Z</time>
      </trkpt>
      <trkpt lat="40.261650" lon="-4.906800">
        <ele>1893.0</ele>
        <time>2015-08-02T11:52:12Z</time>
      </trkpt>
      <trkpt lat="40.261600" lon="-4.906817">
        <ele>1893.0</ele>
        <time>2015-08-02T11:52:13Z</time>
      </trkpt>
      <trkpt lat="40.261550" lon="-4.906833">
        <ele>1893.0</ele>
        <time>2015-08-02T11:52:14Z</time>
      </trkpt>
      <trkpt lat="40.261517" lon="-4.906833">
        <ele>1893.0</ele>
        <time>2015-08-02T11:52:15Z</time>
      </trkpt>
      <trkpt lat="40.261467" lon="-4.906850">
        <ele>1893.0</ele>
        <time>2015-08-02T11:52:16Z</time>
      </trkpt>
      <trkpt lat="40.261433" lon="-4.906850">
        <ele>1893.0</ele>
        <time>2015-08-02T11:52:17Z</time>
      </trkpt>
      <trkpt lat="40.261400" lon="-4.906850">
        <ele>1893.0</ele>
        <time>2015-08-02T11:52:18Z</time>
      </trkpt>
      <trkpt lat="40.261350" lon="-4.906867">
        <ele>1892.0</ele>
        <time>2015-08-02T11:52:19Z</time>
      </trkpt>
      <trkpt lat="40.261317" lon="-4.906867">
        <ele>1891.0</ele>
        <time>2015-08-02T11:52:20Z</time>
      </trkpt>
      <trkpt lat="40.261267" lon="-4.906883">
        <ele>1890.0</ele>
        <time>2015-08-02T11:52:21Z</time>
      </trkpt>
      <trkpt lat="40.261233" lon="-4.906900">
        <ele>1889.0</ele>
        <time>2015-08-02T11:52:22Z</time>
      </trkpt>
      <trkpt lat="40.261200" lon="-4.906900">
        <ele>1888.0</ele>
        <time>2015-08-02T11:52:23Z</time>
      </trkpt>
      <trkpt lat="40.261150" lon="-4.906900">
        <ele>1886.0</ele>
        <time>2015-08-02T11:52:24Z</time>
      </trkpt>
      <trkpt lat="40.261100" lon="-4.906867">
        <ele>1885.0</ele>
        <time>2015-08-02T11:52:25Z</time>
      </trkpt>
      <trkpt lat="40.261033" lon="-4.906833">
        <ele>1884.0</ele>
        <time>2015-08-02T11:52:26Z</time>
      </trkpt>
      <trkpt lat="40.260967" lon="-4.906817">
        <ele>1883.0</ele>
        <time>2015-08-02T11:52:27Z</time>
      </trkpt>
      <trkpt lat="40.260917" lon="-4.906800">
        <ele>1883.0</ele>
        <time>2015-08-02T11:52:28Z</time>
      </trkpt>
      <trkpt lat="40.260850" lon="-4.906800">
        <ele>1882.0</ele>
        <time>2015-08-02T11:52:29Z</time>
      </trkpt>
      <trkpt lat="40.260783" lon="-4.906783">
        <ele>1882.0</ele>
        <time>2015-08-02T11:52:30Z</time>
      </trkpt>
      <trkpt lat="40.260717" lon="-4.906767">
        <ele>1882.0</ele>
        <time>2015-08-02T11:52:31Z</time>
      </trkpt>
      <trkpt lat="40.260667" lon="-4.906717">
        <ele>1883.0</ele>
        <time>2015-08-02T11:52:32Z</time>
      </trkpt>
      <trkpt lat="40.260617" lon="-4.906700">
        <ele>1883.0</ele>
        <time>2015-08-02T11:52:33Z</time>
      </trkpt>
      <trkpt lat="40.260583" lon="-4.906683">
        <ele>1883.0</ele>
        <time>2015-08-02T11:52:34Z</time>
      </trkpt>
      <trkpt lat="40.260550" lon="-4.906683">
        <ele>1882.0</ele>
        <time>2015-08-02T11:52:35Z</time>
      </trkpt>
      <trkpt lat="40.260517" lon="-4.906700">
        <ele>1881.0</ele>
        <time>2015-08-02T11:52:36Z</time>
      </trkpt>
      <trkpt lat="40.260483" lon="-4.906700">
        <ele>1882.0</ele>
        <time>2015-08-02T11:52:37Z</time>
      </trkpt>
      <trkpt lat="40.260433" lon="-4.906717">
        <ele>1880.0</ele>
        <time>2015-08-02T11:52:38Z</time>
      </trkpt>
      <trkpt lat="40.260400" lon="-4.906733">
        <ele>1879.0</ele>
        <time>2015-08-02T11:52:39Z</time>
      </trkpt>
      <trkpt lat="40.260367" lon="-4.906750">
        <ele>1878.0</ele>
        <time>2015-08-02T11:52:40Z</time>
      </trkpt>
      <trkpt lat="40.260333" lon="-4.906783">
        <ele>1876.0</ele>
        <time>2015-08-02T11:52:41Z</time>
      </trkpt>
      <trkpt lat="40.260300" lon="-4.906817">
        <ele>1874.0</ele>
        <time>2015-08-02T11:52:42Z</time>
      </trkpt>
      <trkpt lat="40.260267" lon="-4.906867">
        <ele>1872.0</ele>
        <time>2015-08-02T11:52:43Z</time>
      </trkpt>
      <trkpt lat="40.260217" lon="-4.906900">
        <ele>1871.0</ele>
        <time>2015-08-02T11:52:44Z</time>
      </trkpt>
      <trkpt lat="40.260183" lon="-4.906950">
        <ele>1870.0</ele>
        <time>2015-08-02T11:52:45Z</time>
      </trkpt>
      <trkpt lat="40.260150" lon="-4.906983">
        <ele>1870.0</ele>
        <time>2015-08-02T11:52:46Z</time>
      </trkpt>
      <trkpt lat="40.260117" lon="-4.907033">
        <ele>1870.0</ele>
        <time>2015-08-02T11:52:47Z</time>
      </trkpt>
      <trkpt lat="40.260067" lon="-4.907067">
        <ele>1870.0</ele>
        <time>2015-08-02T11:52:48Z</time>
      </trkpt>
      <trkpt lat="40.260033" lon="-4.907083">
        <ele>1869.0</ele>
        <time>2015-08-02T11:52:49Z</time>
      </trkpt>
      <trkpt lat="40.259983" lon="-4.907117">
        <ele>1869.0</ele>
        <time>2015-08-02T11:52:50Z</time>
      </trkpt>
      <trkpt lat="40.259950" lon="-4.907133">
        <ele>1869.0</ele>
        <time>2015-08-02T11:52:51Z</time>
      </trkpt>
      <trkpt lat="40.259917" lon="-4.907150">
        <ele>1869.0</ele>
        <time>2015-08-02T11:52:52Z</time>
      </trkpt>
      <trkpt lat="40.259883" lon="-4.907167">
        <ele>1868.0</ele>
        <time>2015-08-02T11:52:53Z</time>
      </trkpt>
      <trkpt lat="40.259833" lon="-4.907183">
        <ele>1867.0</ele>
        <time>2015-08-02T11:52:54Z</time>
      </trkpt>
      <trkpt lat="40.259783" lon="-4.907200">
        <ele>1866.0</ele>
        <time>2015-08-02T11:52:55Z</time>
      </trkpt>
      <trkpt lat="40.259733" lon="-4.907233">
        <ele>1866.0</ele>
        <time>2015-08-02T11:52:56Z</time>
      </trkpt>
      <trkpt lat="40.259667" lon="-4.907283">
        <ele>1867.0</ele>
        <time>2015-08-02T11:52:57Z</time>
      </trkpt>
      <trkpt lat="40.259617" lon="-4.907317">
        <ele>1869.0</ele>
        <time>2015-08-02T11:52:58Z</time>
      </trkpt>
      <trkpt lat="40.259567" lon="-4.907350">
        <ele>1872.0</ele>
        <time>2015-08-02T11:52:59Z</time>
      </trkpt>
      <trkpt lat="40.259517" lon="-4.907350">
        <ele>1875.0</ele>
        <time>2015-08-02T11:53:00Z</time>
      </trkpt>
      <trkpt lat="40.259483" lon="-4.907367">
        <ele>1875.0</ele>
        <time>2015-08-02T11:53:01Z</time>
      </trkpt>
      <trkpt lat="40.259450" lon="-4.907383">
        <ele>1874.0</ele>
        <time>2015-08-02T11:53:02Z</time>
      </trkpt>
      <trkpt lat="40.259400" lon="-4.907417">
        <ele>1873.0</ele>
        <time>2015-08-02T11:53:03Z</time>
      </trkpt>
      <trkpt lat="40.259350" lon="-4.907467">
        <ele>1872.0</ele>
        <time>2015-08-02T11:53:04Z</time>
      </trkpt>
      <trkpt lat="40.259317" lon="-4.907533">
        <ele>1872.0</ele>
        <time>2015-08-02T11:53:05Z</time>
      </trkpt>
      <trkpt lat="40.259283" lon="-4.907583">
        <ele>1871.0</ele>
        <time>2015-08-02T11:53:06Z</time>
      </trkpt>
      <trkpt lat="40.259267" lon="-4.907617">
        <ele>1870.0</ele>
        <time>2015-08-02T11:53:07Z</time>
      </trkpt>
      <trkpt lat="40.259217" lon="-4.907650">
        <ele>1868.0</ele>
        <time>2015-08-02T11:53:08Z</time>
      </trkpt>
      <trkpt lat="40.259167" lon="-4.907667">
        <ele>1866.0</ele>
        <time>2015-08-02T11:53:09Z</time>
      </trkpt>
      <trkpt lat="40.259117" lon="-4.907700">
        <ele>1864.0</ele>
        <time>2015-08-02T11:53:10Z</time>
      </trkpt>
      <trkpt lat="40.259067" lon="-4.907733">
        <ele>1862.0</ele>
        <time>2015-08-02T11:53:11Z</time>
      </trkpt>
      <trkpt lat="40.259017" lon="-4.907783">
        <ele>1860.0</ele>
        <time>2015-08-02T11:53:12Z</time>
      </trkpt>
      <trkpt lat="40.258967" lon="-4.907817">
        <ele>1859.0</ele>
        <time>2015-08-02T11:53:13Z</time>
      </trkpt>
      <trkpt lat="40.258933" lon="-4.907850">
        <ele>1858.0</ele>
        <time>2015-08-02T11:53:14Z</time>
      </trkpt>
      <trkpt lat="40.258883" lon="-4.907867">
        <ele>1857.0</ele>
        <time>2015-08-02T11:53:15Z</time>
      </trkpt>
      <trkpt lat="40.258833" lon="-4.907850">
        <ele>1855.0</ele>
        <time>2015-08-02T11:53:16Z</time>
      </trkpt>
      <trkpt lat="40.258783" lon="-4.907850">
        <ele>1853.0</ele>
        <time>2015-08-02T11:53:17Z</time>
      </trkpt>
      <trkpt lat="40.258733" lon="-4.907833">
        <ele>1851.0</ele>
        <time>2015-08-02T11:53:18Z</time>
      </trkpt>
      <trkpt lat="40.258667" lon="-4.907833">
        <ele>1849.0</ele>
        <time>2015-08-02T11:53:19Z</time>
      </trkpt>
      <trkpt lat="40.258600" lon="-4.907817">
        <ele>1847.0</ele>
        <time>2015-08-02T11:53:20Z</time>
      </trkpt>
      <trkpt lat="40.258550" lon="-4.907800">
        <ele>1846.0</ele>
        <time>2015-08-02T11:53:21Z</time>
      </trkpt>
      <trkpt lat="40.258483" lon="-4.907783">
        <ele>1846.0</ele>
        <time>2015-08-02T11:53:22Z</time>
      </trkpt>
      <trkpt lat="40.258433" lon="-4.907783">
        <ele>1845.0</ele>
        <time>2015-08-02T11:53:23Z</time>
      </trkpt>
      <trkpt lat="40.258383" lon="-4.907783">
        <ele>1845.0</ele>
        <time>2015-08-02T11:53:24Z</time>
      </trkpt>
      <trkpt lat="40.258317" lon="-4.907800">
        <ele>1844.0</ele>
        <time>2015-08-02T11:53:25Z</time>
      </trkpt>
      <trkpt lat="40.258267" lon="-4.907817">
        <ele>1844.0</ele>
        <time>2015-08-02T11:53:26Z</time>
      </trkpt>
      <trkpt lat="40.258217" lon="-4.907850">
        <ele>1843.0</ele>
        <time>2015-08-02T11:53:27Z</time>
      </trkpt>
      <trkpt lat="40.258167" lon="-4.907867">
        <ele>1842.0</ele>
        <time>2015-08-02T11:53:28Z</time>
      </trkpt>
      <trkpt lat="40.258100" lon="-4.907900">
        <ele>1841.0</ele>
        <time>2015-08-02T11:53:29Z</time>
      </trkpt>
      <trkpt lat="40.258050" lon="-4.907950">
        <ele>1839.0</ele>
        <time>2015-08-02T11:53:30Z</time>
      </trkpt>
      <trkpt lat="40.257983" lon="-4.908000">
        <ele>1838.0</ele>
        <time>2015-08-02T11:53:31Z</time>
      </trkpt>
      <trkpt lat="40.257933" lon="-4.908033">
        <ele>1837.0</ele>
        <time>2015-08-02T11:53:32Z</time>
      </trkpt>
      <trkpt lat="40.257883" lon="-4.908083">
        <ele>1836.0</ele>
        <time>2015-08-02T11:53:33Z</time>
      </trkpt>
      <trkpt lat="40.257850" lon="-4.908133">
        <ele>1835.0</ele>
        <time>2015-08-02T11:53:34Z</time>
      </trkpt>
      <trkpt lat="40.257800" lon="-4.908167">
        <ele>1834.0</ele>
        <time>2015-08-02T11:53:35Z</time>
      </trkpt>
      <trkpt lat="40.257750" lon="-4.908200">
        <ele>1831.0</ele>
        <time>2015-08-02T11:53:36Z</time>
      </trkpt>
      <trkpt lat="40.257700" lon="-4.908233">
        <ele>1830.0</ele>
        <time>2015-08-02T11:53:37Z</time>
      </trkpt>
      <trkpt lat="40.257650" lon="-4.908267">
        <ele>1828.0</ele>
        <time>2015-08-02T11:53:38Z</time>
      </trkpt>
      <trkpt lat="40.257600" lon="-4.908300">
        <ele>1827.0</ele>
        <time>2015-08-02T11:53:39Z</time>
      </trkpt>
      <trkpt lat="40.257567" lon="-4.908350">
        <ele>1826.0</ele>
        <time>2015-08-02T11:53:40Z</time>
      </trkpt>
      <trkpt lat="40.257533" lon="-4.908400">
        <ele>1824.0</ele>
        <time>2015-08-02T11:53:41Z</time>
      </trkpt>
      <trkpt lat="40.257483" lon="-4.908450">
        <ele>1822.0</ele>
        <time>2015-08-02T11:53:42Z</time>
      </trkpt>
      <trkpt lat="40.257450" lon="-4.908500">
        <ele>1820.0</ele>
        <time>2015-08-02T11:53:43Z</time>
      </trkpt>
      <trkpt lat="40.257417" lon="-4.908550">
        <ele>1818.0</ele>
        <time>2015-08-02T11:53:44Z</time>
      </trkpt>
      <trkpt lat="40.257367" lon="-4.908617">
        <ele>1817.0</ele>
        <time>2015-08-02T11:53:45Z</time>
      </trkpt>
      <trkpt lat="40.257333" lon="-4.908667">
        <ele>1816.0</ele>
        <time>2015-08-02T11:53:46Z</time>
      </trkpt>
      <trkpt lat="40.257283" lon="-4.908717">
        <ele>1815.0</ele>
        <time>2015-08-02T11:53:47Z</time>
      </trkpt>
      <trkpt lat="40.257250" lon="-4.908750">
        <ele>1813.0</ele>
        <time>2015-08-02T11:53:48Z</time>
      </trkpt>
      <trkpt lat="40.257200" lon="-4.908783">
        <ele>1812.0</ele>
        <time>2015-08-02T11:53:49Z</time>
      </trkpt>
      <trkpt lat="40.257150" lon="-4.908800">
        <ele>1810.0</ele>
        <time>2015-08-02T11:53:50Z</time>
      </trkpt>
      <trkpt lat="40.257100" lon="-4.908817">
        <ele>1809.0</ele>
        <time>2015-08-02T11:53:51Z</time>
      </trkpt>
      <trkpt lat="40.257067" lon="-4.908850">
        <ele>1808.0</ele>
        <time>2015-08-02T11:53:52Z</time>
      </trkpt>
      <trkpt lat="40.257017" lon="-4.908867">
        <ele>1807.0</ele>
        <time>2015-08-02T11:53:53Z</time>
      </trkpt>
      <trkpt lat="40.256967" lon="-4.908900">
        <ele>1806.0</ele>
        <time>2015-08-02T11:53:54Z</time>
      </trkpt>
      <trkpt lat="40.256933" lon="-4.908933">
        <ele>1805.0</ele>
        <time>2015-08-02T11:53:55Z</time>
      </trkpt>
      <trkpt lat="40.256883" lon="-4.908967">
        <ele>1804.0</ele>
        <time>2015-08-02T11:53:56Z</time>
      </trkpt>
      <trkpt lat="40.256817" lon="-4.908983">
        <ele>1803.0</ele>
        <time>2015-08-02T11:53:57Z</time>
      </trkpt>
      <trkpt lat="40.256767" lon="-4.909017">
        <ele>1803.0</ele>
        <time>2015-08-02T11:53:58Z</time>
      </trkpt>
      <trkpt lat="40.256717" lon="-4.909050">
        <ele>1804.0</ele>
        <time>2015-08-02T11:53:59Z</time>
      </trkpt>
      <trkpt lat="40.256683" lon="-4.909067">
        <ele>1804.0</ele>
        <time>2015-08-02T11:54:00Z</time>
      </trkpt>
      <trkpt lat="40.256650" lon="-4.909083">
        <ele>1804.0</ele>
        <time>2015-08-02T11:54:01Z</time>
      </trkpt>
      <trkpt lat="40.256617" lon="-4.909100">
        <ele>1802.0</ele>
        <time>2015-08-02T11:54:02Z</time>
      </trkpt>
      <trkpt lat="40.256567" lon="-4.909117">
        <ele>1799.0</ele>
        <time>2015-08-02T11:54:03Z</time>
      </trkpt>
      <trkpt lat="40.256517" lon="-4.909150">
        <ele>1796.0</ele>
        <time>2015-08-02T11:54:04Z</time>
      </trkpt>
      <trkpt lat="40.256450" lon="-4.909183">
        <ele>1794.0</ele>
        <time>2015-08-02T11:54:05Z</time>
      </trkpt>
      <trkpt lat="40.256400" lon="-4.909233">
        <ele>1794.0</ele>
        <time>2015-08-02T11:54:06Z</time>
      </trkpt>
      <trkpt lat="40.256350" lon="-4.909283">
        <ele>1795.0</ele>
        <time>2015-08-02T11:54:07Z</time>
      </trkpt>
      <trkpt lat="40.256317" lon="-4.909300">
        <ele>1796.0</ele>
        <time>2015-08-02T11:54:08Z</time>
      </trkpt>
      <trkpt lat="40.256267" lon="-4.909317">
        <ele>1796.0</ele>
        <time>2015-08-02T11:54:09Z</time>
      </trkpt>
      <trkpt lat="40.256233" lon="-4.909317">
        <ele>1795.0</ele>
        <time>2015-08-02T11:54:10Z</time>
      </trkpt>
      <trkpt lat="40.256200" lon="-4.909317">
        <ele>1794.0</ele>
        <time>2015-08-02T11:54:11Z</time>
      </trkpt>
      <trkpt lat="40.256150" lon="-4.909317">
        <ele>1792.0</ele>
        <time>2015-08-02T11:54:12Z</time>
      </trkpt>
      <trkpt lat="40.256100" lon="-4.909333">
        <ele>1791.0</ele>
        <time>2015-08-02T11:54:13Z</time>
      </trkpt>
      <trkpt lat="40.256017" lon="-4.909383">
        <ele>1791.0</ele>
        <time>2015-08-02T11:54:14Z</time>
      </trkpt>
      <trkpt lat="40.256000" lon="-4.909400">
        <ele>1791.0</ele>
        <time>2015-08-02T11:54:15Z</time>
      </trkpt>
      <trkpt lat="40.255950" lon="-4.909450">
        <ele>1790.0</ele>
        <time>2015-08-02T11:54:16Z</time>
      </trkpt>
      <trkpt lat="40.255900" lon="-4.909483">
        <ele>1789.0</ele>
        <time>2015-08-02T11:54:17Z</time>
      </trkpt>
      <trkpt lat="40.255850" lon="-4.909517">
        <ele>1789.0</ele>
        <time>2015-08-02T11:54:18Z</time>
      </trkpt>
      <trkpt lat="40.255800" lon="-4.909550">
        <ele>1788.0</ele>
        <time>2015-08-02T11:54:19Z</time>
      </trkpt>
      <trkpt lat="40.255750" lon="-4.909600">
        <ele>1787.0</ele>
        <time>2015-08-02T11:54:20Z</time>
      </trkpt>
      <trkpt lat="40.255717" lon="-4.909633">
        <ele>1785.0</ele>
        <time>2015-08-02T11:54:21Z</time>
      </trkpt>
      <trkpt lat="40.255667" lon="-4.909683">
        <ele>1784.0</ele>
        <time>2015-08-02T11:54:22Z</time>
      </trkpt>
      <trkpt lat="40.255617" lon="-4.909717">
        <ele>1783.0</ele>
        <time>2015-08-02T11:54:23Z</time>
      </trkpt>
      <trkpt lat="40.255567" lon="-4.909767">
        <ele>1782.0</ele>
        <time>2015-08-02T11:54:24Z</time>
      </trkpt>
      <trkpt lat="40.255500" lon="-4.909800">
        <ele>1781.0</ele>
        <time>2015-08-02T11:54:25Z</time>
      </trkpt>
      <trkpt lat="40.255450" lon="-4.909850">
        <ele>1781.0</ele>
        <time>2015-08-02T11:54:26Z</time>
      </trkpt>
      <trkpt lat="40.255400" lon="-4.909883">
        <ele>1781.0</ele>
        <time>2015-08-02T11:54:27Z</time>
      </trkpt>
      <trkpt lat="40.255350" lon="-4.909900">
        <ele>1781.0</ele>
        <time>2015-08-02T11:54:28Z</time>
      </trkpt>
      <trkpt lat="40.255300" lon="-4.909917">
        <ele>1780.0</ele>
        <time>2015-08-02T11:54:29Z</time>
      </trkpt>
      <trkpt lat="40.255250" lon="-4.909917">
        <ele>1778.0</ele>
        <time>2015-08-02T11:54:30Z</time>
      </trkpt>
      <trkpt lat="40.255200" lon="-4.909933">
        <ele>1777.0</ele>
        <time>2015-08-02T11:54:31Z</time>
      </trkpt>
      <trkpt lat="40.255133" lon="-4.909950">
        <ele>1775.0</ele>
        <time>2015-08-02T11:54:32Z</time>
      </trkpt>
      <trkpt lat="40.255083" lon="-4.909967">
        <ele>1772.0</ele>
        <time>2015-08-02T11:54:33Z</time>
      </trkpt>
      <trkpt lat="40.255017" lon="-4.910000">
        <ele>1769.0</ele>
        <time>2015-08-02T11:54:34Z</time>
      </trkpt>
      <trkpt lat="40.254967" lon="-4.910033">
        <ele>1767.0</ele>
        <time>2015-08-02T11:54:35Z</time>
      </trkpt>
      <trkpt lat="40.254900" lon="-4.910083">
        <ele>1765.0</ele>
        <time>2015-08-02T11:54:36Z</time>
      </trkpt>
      <trkpt lat="40.254850" lon="-4.910133">
        <ele>1764.0</ele>
        <time>2015-08-02T11:54:37Z</time>
      </trkpt>
      <trkpt lat="40.254800" lon="-4.910183">
        <ele>1763.0</ele>
        <time>2015-08-02T11:54:38Z</time>
      </trkpt>
      <trkpt lat="40.254750" lon="-4.910233">
        <ele>1763.0</ele>
        <time>2015-08-02T11:54:39Z</time>
      </trkpt>
      <trkpt lat="40.254700" lon="-4.910283">
        <ele>1762.0</ele>
        <time>2015-08-02T11:54:40Z</time>
      </trkpt>
      <trkpt lat="40.254650" lon="-4.910317">
        <ele>1761.0</ele>
        <time>2015-08-02T11:54:41Z</time>
      </trkpt>
      <trkpt lat="40.254617" lon="-4.910350">
        <ele>1758.0</ele>
        <time>2015-08-02T11:54:42Z</time>
      </trkpt>
      <trkpt lat="40.254550" lon="-4.910400">
        <ele>1755.0</ele>
        <time>2015-08-02T11:54:43Z</time>
      </trkpt>
      <trkpt lat="40.254500" lon="-4.910433">
        <ele>1753.0</ele>
        <time>2015-08-02T11:54:44Z</time>
      </trkpt>
      <trkpt lat="40.254433" lon="-4.910467">
        <ele>1752.0</ele>
        <time>2015-08-02T11:54:45Z</time>
      </trkpt>
      <trkpt lat="40.254367" lon="-4.910517">
        <ele>1751.0</ele>
        <time>2015-08-02T11:54:46Z</time>
      </trkpt>
      <trkpt lat="40.254317" lon="-4.910550">
        <ele>1750.0</ele>
        <time>2015-08-02T11:54:47Z</time>
      </trkpt>
      <trkpt lat="40.254267" lon="-4.910600">
        <ele>1749.0</ele>
        <time>2015-08-02T11:54:48Z</time>
      </trkpt>
      <trkpt lat="40.254217" lon="-4.910650">
        <ele>1748.0</ele>
        <time>2015-08-02T11:54:49Z</time>
      </trkpt>
      <trkpt lat="40.254167" lon="-4.910700">
        <ele>1747.0</ele>
        <time>2015-08-02T11:54:50Z</time>
      </trkpt>
      <trkpt lat="40.254117" lon="-4.910767">
        <ele>1746.0</ele>
        <time>2015-08-02T11:54:51Z</time>
      </trkpt>
      <trkpt lat="40.254067" lon="-4.910833">
        <ele>1745.0</ele>
        <time>2015-08-02T11:54:52Z</time>
      </trkpt>
      <trkpt lat="40.254017" lon="-4.910900">
        <ele>1744.0</ele>
        <time>2015-08-02T11:54:53Z</time>
      </trkpt>
      <trkpt lat="40.253950" lon="-4.910950">
        <ele>1743.0</ele>
        <time>2015-08-02T11:54:54Z</time>
      </trkpt>
      <trkpt lat="40.253883" lon="-4.911017">
        <ele>1742.0</ele>
        <time>2015-08-02T11:54:55Z</time>
      </trkpt>
      <trkpt lat="40.253817" lon="-4.911067">
        <ele>1741.0</ele>
        <time>2015-08-02T11:54:56Z</time>
      </trkpt>
      <trkpt lat="40.253750" lon="-4.911117">
        <ele>1741.0</ele>
        <time>2015-08-02T11:54:57Z</time>
      </trkpt>
      <trkpt lat="40.253683" lon="-4.911167">
        <ele>1740.0</ele>
        <time>2015-08-02T11:54:58Z</time>
      </trkpt>
      <trkpt lat="40.253600" lon="-4.911217">
        <ele>1740.0</ele>
        <time>2015-08-02T11:54:59Z</time>
      </trkpt>
      <trkpt lat="40.253533" lon="-4.911250">
        <ele>1741.0</ele>
        <time>2015-08-02T11:55:00Z</time>
      </trkpt>
      <trkpt lat="40.253467" lon="-4.911300">
        <ele>1741.0</ele>
        <time>2015-08-02T11:55:01Z</time>
      </trkpt>
      <trkpt lat="40.253400" lon="-4.911350">
        <ele>1741.0</ele>
        <time>2015-08-02T11:55:02Z</time>
      </trkpt>
      <trkpt lat="40.253350" lon="-4.911417">
        <ele>1742.0</ele>
        <time>2015-08-02T11:55:03Z</time>
      </trkpt>
      <trkpt lat="40.253317" lon="-4.911467">
        <ele>1742.0</ele>
        <time>2015-08-02T11:55:04Z</time>
      </trkpt>
      <trkpt lat="40.253267" lon="-4.911500">
        <ele>1742.0</ele>
        <time>2015-08-02T11:55:05Z</time>
      </trkpt>
      <trkpt lat="40.253217" lon="-4.911533">
        <ele>1742.0</ele>
        <time>2015-08-02T11:55:06Z</time>
      </trkpt>
      <trkpt lat="40.253167" lon="-4.911583">
        <ele>1741.0</ele>
        <time>2015-08-02T11:55:07Z</time>
      </trkpt>
      <trkpt lat="40.253117" lon="-4.911633">
        <ele>1741.0</ele>
        <time>2015-08-02T11:55:08Z</time>
      </trkpt>
      <trkpt lat="40.253067" lon="-4.911717">
        <ele>1741.0</ele>
        <time>2015-08-02T11:55:09Z</time>
      </trkpt>
      <trkpt lat="40.253017" lon="-4.911783">
        <ele>1742.0</ele>
        <time>2015-08-02T11:55:10Z</time>
      </trkpt>
      <trkpt lat="40.252967" lon="-4.911833">
        <ele>1744.0</ele>
        <time>2015-08-02T11:55:11Z</time>
      </trkpt>
      <trkpt lat="40.252917" lon="-4.911867">
        <ele>1745.0</ele>
        <time>2015-08-02T11:55:12Z</time>
      </trkpt>
      <trkpt lat="40.252867" lon="-4.911900">
        <ele>1745.0</ele>
        <time>2015-08-02T11:55:13Z</time>
      </trkpt>
      <trkpt lat="40.252817" lon="-4.911917">
        <ele>1744.0</ele>
        <time>2015-08-02T11:55:14Z</time>
      </trkpt>
      <trkpt lat="40.252767" lon="-4.911967">
        <ele>1742.0</ele>
        <time>2015-08-02T11:55:15Z</time>
      </trkpt>
      <trkpt lat="40.252700" lon="-4.912000">
        <ele>1738.0</ele>
        <time>2015-08-02T11:55:16Z</time>
      </trkpt>
      <trkpt lat="40.252650" lon="-4.912067">
        <ele>1736.0</ele>
        <time>2015-08-02T11:55:17Z</time>
      </trkpt>
      <trkpt lat="40.252583" lon="-4.912117">
        <ele>1734.0</ele>
        <time>2015-08-02T11:55:18Z</time>
      </trkpt>
      <trkpt lat="40.252517" lon="-4.912167">
        <ele>1732.0</ele>
        <time>2015-08-02T11:55:19Z</time>
      </trkpt>
      <trkpt lat="40.252467" lon="-4.912217">
        <ele>1731.0</ele>
        <time>2015-08-02T11:55:20Z</time>
      </trkpt>
      <trkpt lat="40.252400" lon="-4.912250">
        <ele>1729.0</ele>
        <time>2015-08-02T11:55:21Z</time>
      </trkpt>
      <trkpt lat="40.252350" lon="-4.912267">
        <ele>1727.0</ele>
        <time>2015-08-02T11:55:22Z</time>
      </trkpt>
      <trkpt lat="40.252283" lon="-4.912300">
        <ele>1725.0</ele>
        <time>2015-08-02T11:55:23Z</time>
      </trkpt>
      <trkpt lat="40.252200" lon="-4.912333">
        <ele>1723.0</ele>
        <time>2015-08-02T11:55:24Z</time>
      </trkpt>
      <trkpt lat="40.252133" lon="-4.912367">
        <ele>1721.0</ele>
        <time>2015-08-02T11:55:25Z</time>
      </trkpt>
      <trkpt lat="40.252067" lon="-4.912400">
        <ele>1721.0</ele>
        <time>2015-08-02T11:55:26Z</time>
      </trkpt>
      <trkpt lat="40.252000" lon="-4.912433">
        <ele>1719.0</ele>
        <time>2015-08-02T11:55:27Z</time>
      </trkpt>
      <trkpt lat="40.251933" lon="-4.912450">
        <ele>1718.0</ele>
        <time>2015-08-02T11:55:28Z</time>
      </trkpt>
      <trkpt lat="40.251850" lon="-4.912483">
        <ele>1715.0</ele>
        <time>2015-08-02T11:55:29Z</time>
      </trkpt>
      <trkpt lat="40.251750" lon="-4.912533">
        <ele>1712.0</ele>
        <time>2015-08-02T11:55:30Z</time>
      </trkpt>
      <trkpt lat="40.251667" lon="-4.912583">
        <ele>1709.0</ele>
        <time>2015-08-02T11:55:31Z</time>
      </trkpt>
      <trkpt lat="40.251583" lon="-4.912617">
        <ele>1708.0</ele>
        <time>2015-08-02T11:55:32Z</time>
      </trkpt>
      <trkpt lat="40.251500" lon="-4.912650">
        <ele>1707.0</ele>
        <time>2015-08-02T11:55:33Z</time>
      </trkpt>
      <trkpt lat="40.251433" lon="-4.912683">
        <ele>1705.0</ele>
        <time>2015-08-02T11:55:34Z</time>
      </trkpt>
      <trkpt lat="40.251383" lon="-4.912717">
        <ele>1703.0</ele>
        <time>2015-08-02T11:55:35Z</time>
      </trkpt>
      <trkpt lat="40.251317" lon="-4.912783">
        <ele>1700.0</ele>
        <time>2015-08-02T11:55:36Z</time>
      </trkpt>
      <trkpt lat="40.251267" lon="-4.912850">
        <ele>1697.0</ele>
        <time>2015-08-02T11:55:37Z</time>
      </trkpt>
      <trkpt lat="40.251200" lon="-4.912917">
        <ele>1695.0</ele>
        <time>2015-08-02T11:55:38Z</time>
      </trkpt>
      <trkpt lat="40.251133" lon="-4.912967">
        <ele>1694.0</ele>
        <time>2015-08-02T11:55:39Z</time>
      </trkpt>
      <trkpt lat="40.251050" lon="-4.913000">
        <ele>1693.0</ele>
        <time>2015-08-02T11:55:40Z</time>
      </trkpt>
      <trkpt lat="40.251000" lon="-4.913050">
        <ele>1692.0</ele>
        <time>2015-08-02T11:55:41Z</time>
      </trkpt>
      <trkpt lat="40.250950" lon="-4.913117">
        <ele>1691.0</ele>
        <time>2015-08-02T11:55:42Z</time>
      </trkpt>
      <trkpt lat="40.250900" lon="-4.913200">
        <ele>1689.0</ele>
        <time>2015-08-02T11:55:43Z</time>
      </trkpt>
      <trkpt lat="40.250833" lon="-4.913267">
        <ele>1687.0</ele>
        <time>2015-08-02T11:55:44Z</time>
      </trkpt>
      <trkpt lat="40.250750" lon="-4.913317">
        <ele>1685.0</ele>
        <time>2015-08-02T11:55:45Z</time>
      </trkpt>
      <trkpt lat="40.250683" lon="-4.913350">
        <ele>1684.0</ele>
        <time>2015-08-02T11:55:46Z</time>
      </trkpt>
      <trkpt lat="40.250617" lon="-4.913400">
        <ele>1683.0</ele>
        <time>2015-08-02T11:55:47Z</time>
      </trkpt>
      <trkpt lat="40.250567" lon="-4.913433">
        <ele>1682.0</ele>
        <time>2015-08-02T11:55:48Z</time>
      </trkpt>
      <trkpt lat="40.250500" lon="-4.913483">
        <ele>1681.0</ele>
        <time>2015-08-02T11:55:49Z</time>
      </trkpt>
      <trkpt lat="40.250433" lon="-4.913533">
        <ele>1678.0</ele>
        <time>2015-08-02T11:55:50Z</time>
      </trkpt>
      <trkpt lat="40.250350" lon="-4.913583">
        <ele>1676.0</ele>
        <time>2015-08-02T11:55:51Z</time>
      </trkpt>
      <trkpt lat="40.250283" lon="-4.913633">
        <ele>1675.0</ele>
        <time>2015-08-02T11:55:52Z</time>
      </trkpt>
      <trkpt lat="40.250200" lon="-4.913683">
        <ele>1674.0</ele>
        <time>2015-08-02T11:55:53Z</time>
      </trkpt>
      <trkpt lat="40.250133" lon="-4.913733">
        <ele>1673.0</ele>
        <time>2015-08-02T11:55:54Z</time>
      </trkpt>
      <trkpt lat="40.250067" lon="-4.913783">
        <ele>1672.0</ele>
        <time>2015-08-02T11:55:55Z</time>
      </trkpt>
      <trkpt lat="40.250000" lon="-4.913833">
        <ele>1670.0</ele>
        <time>2015-08-02T11:55:56Z</time>
      </trkpt>
      <trkpt lat="40.249917" lon="-4.913900">
        <ele>1669.0</ele>
        <time>2015-08-02T11:55:57Z</time>
      </trkpt>
      <trkpt lat="40.249850" lon="-4.913950">
        <ele>1669.0</ele>
        <time>2015-08-02T11:55:58Z</time>
      </trkpt>
      <trkpt lat="40.249767" lon="-4.914017">
        <ele>1669.0</ele>
        <time>2015-08-02T11:55:59Z</time>
      </trkpt>
      <trkpt lat="40.249700" lon="-4.914067">
        <ele>1670.0</ele>
        <time>2015-08-02T11:56:00Z</time>
      </trkpt>
      <trkpt lat="40.249617" lon="-4.914117">
        <ele>1672.0</ele>
        <time>2015-08-02T11:56:01Z</time>
      </trkpt>
      <trkpt lat="40.249567" lon="-4.914167">
        <ele>1675.0</ele>
        <time>2015-08-02T11:56:02Z</time>
      </trkpt>
      <trkpt lat="40.249500" lon="-4.914200">
        <ele>1677.0</ele>
        <time>2015-08-02T11:56:03Z</time>
      </trkpt>
      <trkpt lat="40.249433" lon="-4.914233">
        <ele>1679.0</ele>
        <time>2015-08-02T11:56:04Z</time>
      </trkpt>
      <trkpt lat="40.249383" lon="-4.914267">
        <ele>1681.0</ele>
        <time>2015-08-02T11:56:05Z</time>
      </trkpt>
      <trkpt lat="40.249333" lon="-4.914300">
        <ele>1683.0</ele>
        <time>2015-08-02T11:56:06Z</time>
      </trkpt>
      <trkpt lat="40.249300" lon="-4.914367">
        <ele>1685.0</ele>
        <time>2015-08-02T11:56:07Z</time>
      </trkpt>
      <trkpt lat="40.249283" lon="-4.914500">
        <ele>1685.0</ele>
        <time>2015-08-02T11:56:08Z</time>
      </trkpt>
      <trkpt lat="40.249300" lon="-4.914600">
        <ele>1685.0</ele>
        <time>2015-08-02T11:56:09Z</time>
      </trkpt>
      <trkpt lat="40.249350" lon="-4.914733">
        <ele>1687.0</ele>
        <time>2015-08-02T11:56:10Z</time>
      </trkpt>
      <trkpt lat="40.249433" lon="-4.914817">
        <ele>1690.0</ele>
        <time>2015-08-02T11:56:11Z</time>
      </trkpt>
      <trkpt lat="40.249517" lon="-4.914867">
        <ele>1691.0</ele>
        <time>2015-08-02T11:56:12Z</time>
      </trkpt>
      <trkpt lat="40.249633" lon="-4.914850">
        <ele>1691.0</ele>
        <time>2015-08-02T11:56:13Z</time>
      </trkpt>
      <trkpt lat="40.249750" lon="-4.914800">
        <ele>1691.0</ele>
        <time>2015-08-02T11:56:14Z</time>
      </trkpt>
      <trkpt lat="40.249833" lon="-4.914683">
        <ele>1692.0</ele>
        <time>2015-08-02T11:56:15Z</time>
      </trkpt>
      <trkpt lat="40.249900" lon="-4.914567">
        <ele>1694.0</ele>
        <time>2015-08-02T11:56:16Z</time>
      </trkpt>
      <trkpt lat="40.249933" lon="-4.914433">
        <ele>1696.0</ele>
        <time>2015-08-02T11:56:17Z</time>
      </trkpt>
      <trkpt lat="40.249950" lon="-4.914300">
        <ele>1698.0</ele>
        <time>2015-08-02T11:56:18Z</time>
      </trkpt>
      <trkpt lat="40.249983" lon="-4.914167">
        <ele>1701.0</ele>
        <time>2015-08-02T11:56:19Z</time>
      </trkpt>
      <trkpt lat="40.250000" lon="-4.914033">
        <ele>1703.0</ele>
        <time>2015-08-02T11:56:20Z</time>
      </trkpt>
      <trkpt lat="40.250017" lon="-4.913917">
        <ele>1705.0</ele>
        <time>2015-08-02T11:56:21Z</time>
      </trkpt>
      <trkpt lat="40.250033" lon="-4.913800">
        <ele>1706.0</ele>
        <time>2015-08-02T11:56:22Z</time>
      </trkpt>
      <trkpt lat="40.250017" lon="-4.913717">
        <ele>1707.0</ele>
        <time>2015-08-02T11:56:23Z</time>
      </trkpt>
      <trkpt lat="40.249967" lon="-4.913667">
        <ele>1706.0</ele>
        <time>2015-08-02T11:56:24Z</time>
      </trkpt>
      <trkpt lat="40.249900" lon="-4.913633">
        <ele>1704.0</ele>
        <time>2015-08-02T11:56:25Z</time>
      </trkpt>
      <trkpt lat="40.249833" lon="-4.913650">
        <ele>1704.0</ele>
        <time>2015-08-02T11:56:26Z</time>
      </trkpt>
      <trkpt lat="40.249767" lon="-4.913717">
        <ele>1705.0</ele>
        <time>2015-08-02T11:56:27Z</time>
      </trkpt>
      <trkpt lat="40.249717" lon="-4.913800">
        <ele>1706.0</ele>
        <time>2015-08-02T11:56:28Z</time>
      </trkpt>
      <trkpt lat="40.249700" lon="-4.913883">
        <ele>1708.0</ele>
        <time>2015-08-02T11:56:29Z</time>
      </trkpt>
      <trkpt lat="40.249717" lon="-4.913983">
        <ele>1709.0</ele>
        <time>2015-08-02T11:56:30Z</time>
      </trkpt>
      <trkpt lat="40.249750" lon="-4.914100">
        <ele>1710.0</ele>
        <time>2015-08-02T11:56:31Z</time>
      </trkpt>
      <trkpt lat="40.249817" lon="-4.914183">
        <ele>1711.0</ele>
        <time>2015-08-02T11:56:32Z</time>
      </trkpt>
      <trkpt lat="40.249900" lon="-4.914250">
        <ele>1711.0</ele>
        <time>2015-08-02T11:56:33Z</time>
      </trkpt>
      <trkpt lat="40.250017" lon="-4.914250">
        <ele>1711.0</ele>
        <time>2015-08-02T11:56:34Z</time>
      </trkpt>
      <trkpt lat="40.250133" lon="-4.914200">
        <ele>1712.0</ele>
        <time>2015-08-02T11:56:35Z</time>
      </trkpt>
      <trkpt lat="40.250233" lon="-4.914117">
        <ele>1713.0</ele>
        <time>2015-08-02T11:56:36Z</time>
      </trkpt>
      <trkpt lat="40.250317" lon="-4.914000">
        <ele>1715.0</ele>
        <time>2015-08-02T11:56:37Z</time>
      </trkpt>
      <trkpt lat="40.250367" lon="-4.913867">
        <ele>1718.0</ele>
        <time>2015-08-02T11:56:38Z</time>
      </trkpt>
      <trkpt lat="40.250400" lon="-4.913733">
        <ele>1720.0</ele>
        <time>2015-08-02T11:56:39Z</time>
      </trkpt>
      <trkpt lat="40.250433" lon="-4.913600">
        <ele>1723.0</ele>
        <time>2015-08-02T11:56:40Z</time>
      </trkpt>
      <trkpt lat="40.250467" lon="-4.913483">
        <ele>1724.0</ele>
        <time>2015-08-02T11:56:41Z</time>
      </trkpt>
      <trkpt lat="40.250500" lon="-4.913383">
        <ele>1726.0</ele>
        <time>2015-08-02T11:56:42Z</time>
      </trkpt>
      <trkpt lat="40.250500" lon="-4.913283">
        <ele>1726.0</ele>
        <time>2015-08-02T11:56:43Z</time>
      </trkpt>
      <trkpt lat="40.250450" lon="-4.913167">
        <ele>1723.0</ele>
        <time>2015-08-02T11:56:44Z</time>
      </trkpt>
      <trkpt lat="40.250400" lon="-4.913117">
        <ele>1719.0</ele>
        <time>2015-08-02T11:56:45Z</time>
      </trkpt>
      <trkpt lat="40.250283" lon="-4.913050">
        <ele>1718.0</ele>
        <time>2015-08-02T11:56:46Z</time>
      </trkpt>
      <trkpt lat="40.250217" lon="-4.913050">
        <ele>1717.0</ele>
        <time>2015-08-02T11:56:47Z</time>
      </trkpt>
      <trkpt lat="40.250133" lon="-4.913100">
        <ele>1716.0</ele>
        <time>2015-08-02T11:56:48Z</time>
      </trkpt>
      <trkpt lat="40.250050" lon="-4.913183">
        <ele>1718.0</ele>
        <time>2015-08-02T11:56:49Z</time>
      </trkpt>
      <trkpt lat="40.249983" lon="-4.913267">
        <ele>1720.0</ele>
        <time>2015-08-02T11:56:50Z</time>
      </trkpt>
      <trkpt lat="40.249917" lon="-4.913317">
        <ele>1724.0</ele>
        <time>2015-08-02T11:56:51Z</time>
      </trkpt>
      <trkpt lat="40.249850" lon="-4.913367">
        <ele>1726.0</ele>
        <time>2015-08-02T11:56:52Z</time>
      </trkpt>
      <trkpt lat="40.249783" lon="-4.913400">
        <ele>1727.0</ele>
        <time>2015-08-02T11:56:53Z</time>
      </trkpt>
      <trkpt lat="40.249717" lon="-4.913450">
        <ele>1729.0</ele>
        <time>2015-08-02T11:56:54Z</time>
      </trkpt>
      <trkpt lat="40.249667" lon="-4.913517">
        <ele>1730.0</ele>
        <time>2015-08-02T11:56:55Z</time>
      </trkpt>
      <trkpt lat="40.249617" lon="-4.913600">
        <ele>1731.0</ele>
        <time>2015-08-02T11:56:56Z</time>
      </trkpt>
      <trkpt lat="40.249567" lon="-4.913683">
        <ele>1733.0</ele>
        <time>2015-08-02T11:56:57Z</time>
      </trkpt>
      <trkpt lat="40.249517" lon="-4.913767">
        <ele>1735.0</ele>
        <time>2015-08-02T11:56:58Z</time>
      </trkpt>
      <trkpt lat="40.249467" lon="-4.913833">
        <ele>1737.0</ele>
        <time>2015-08-02T11:56:59Z</time>
      </trkpt>
      <trkpt lat="40.249417" lon="-4.913883">
        <ele>1739.0</ele>
        <time>2015-08-02T11:57:00Z</time>
      </trkpt>
      <trkpt lat="40.249383" lon="-4.913933">
        <ele>1741.0</ele>
        <time>2015-08-02T11:57:01Z</time>
      </trkpt>
      <trkpt lat="40.249333" lon="-4.914000">
        <ele>1742.0</ele>
        <time>2015-08-02T11:57:02Z</time>
      </trkpt>
      <trkpt lat="40.249283" lon="-4.914067">
        <ele>1743.0</ele>
        <time>2015-08-02T11:57:03Z</time>
      </trkpt>
      <trkpt lat="40.249250" lon="-4.914150">
        <ele>1745.0</ele>
        <time>2015-08-02T11:57:04Z</time>
      </trkpt>
      <trkpt lat="40.249233" lon="-4.914233">
        <ele>1748.0</ele>
        <time>2015-08-02T11:57:05Z</time>
      </trkpt>
      <trkpt lat="40.249250" lon="-4.914350">
        <ele>1750.0</ele>
        <time>2015-08-02T11:57:06Z</time>
      </trkpt>
      <trkpt lat="40.249317" lon="-4.914450">
        <ele>1751.0</ele>
        <time>2015-08-02T11:57:07Z</time>
      </trkpt>
      <trkpt lat="40.249417" lon="-4.914517">
        <ele>1753.0</ele>
        <time>2015-08-02T11:57:08Z</time>
      </trkpt>
      <trkpt lat="40.249550" lon="-4.914533">
        <ele>1755.0</ele>
        <time>2015-08-02T11:57:09Z</time>
      </trkpt>
      <trkpt lat="40.249667" lon="-4.914483">
        <ele>1756.0</ele>
        <time>2015-08-02T11:57:10Z</time>
      </trkpt>
      <trkpt lat="40.249767" lon="-4.914383">
        <ele>1758.0</ele>
        <time>2015-08-02T11:57:11Z</time>
      </trkpt>
      <trkpt lat="40.249850" lon="-4.914250">
        <ele>1760.0</ele>
        <time>2015-08-02T11:57:12Z</time>
      </trkpt>
      <trkpt lat="40.249883" lon="-4.914117">
        <ele>1762.0</ele>
        <time>2015-08-02T11:57:13Z</time>
      </trkpt>
      <trkpt lat="40.249900" lon="-4.913983">
        <ele>1764.0</ele>
        <time>2015-08-02T11:57:14Z</time>
      </trkpt>
      <trkpt lat="40.249883" lon="-4.913850">
        <ele>1766.0</ele>
        <time>2015-08-02T11:57:15Z</time>
      </trkpt>
      <trkpt lat="40.249850" lon="-4.913750">
        <ele>1768.0</ele>
        <time>2015-08-02T11:57:16Z</time>
      </trkpt>
      <trkpt lat="40.249800" lon="-4.913667">
        <ele>1770.0</ele>
        <time>2015-08-02T11:57:17Z</time>
      </trkpt>
      <trkpt lat="40.249717" lon="-4.913650">
        <ele>1771.0</ele>
        <time>2015-08-02T11:57:18Z</time>
      </trkpt>
      <trkpt lat="40.249650" lon="-4.913700">
        <ele>1774.0</ele>
        <time>2015-08-02T11:57:19Z</time>
      </trkpt>
      <trkpt lat="40.249633" lon="-4.913783">
        <ele>1777.0</ele>
        <time>2015-08-02T11:57:20Z</time>
      </trkpt>
      <trkpt lat="40.249650" lon="-4.913883">
        <ele>1781.0</ele>
        <time>2015-08-02T11:57:21Z</time>
      </trkpt>
      <trkpt lat="40.249717" lon="-4.913983">
        <ele>1785.0</ele>
        <time>2015-08-02T11:57:22Z</time>
      </trkpt>
      <trkpt lat="40.249817" lon="-4.914050">
        <ele>1789.0</ele>
        <time>2015-08-02T11:57:23Z</time>
      </trkpt>
      <trkpt lat="40.249933" lon="-4.914050">
        <ele>1791.0</ele>
        <time>2015-08-02T11:57:24Z</time>
      </trkpt>
      <trkpt lat="40.250067" lon="-4.914000">
        <ele>1794.0</ele>
        <time>2015-08-02T11:57:25Z</time>
      </trkpt>
      <trkpt lat="40.250167" lon="-4.913917">
        <ele>1796.0</ele>
        <time>2015-08-02T11:57:26Z</time>
      </trkpt>
      <trkpt lat="40.250250" lon="-4.913767">
        <ele>1797.0</ele>
        <time>2015-08-02T11:57:27Z</time>
      </trkpt>
      <trkpt lat="40.250283" lon="-4.913617">
        <ele>1799.0</ele>
        <time>2015-08-02T11:57:28Z</time>
      </trkpt>
      <trkpt lat="40.250267" lon="-4.913467">
        <ele>1800.0</ele>
        <time>2015-08-02T11:57:29Z</time>
      </trkpt>
      <trkpt lat="40.250217" lon="-4.913367">
        <ele>1801.0</ele>
        <time>2015-08-02T11:57:30Z</time>
      </trkpt>
      <trkpt lat="40.250133" lon="-4.913317">
        <ele>1802.0</ele>
        <time>2015-08-02T11:57:31Z</time>
      </trkpt>
      <trkpt lat="40.250050" lon="-4.913317">
        <ele>1805.0</ele>
        <time>2015-08-02T11:57:32Z</time>
      </trkpt>
      <trkpt lat="40.249983" lon="-4.913333">
        <ele>1808.0</ele>
        <time>2015-08-02T11:57:33Z</time>
      </trkpt>
      <trkpt lat="40.249950" lon="-4.913383">
        <ele>1811.0</ele>
        <time>2015-08-02T11:57:34Z</time>
      </trkpt>
      <trkpt lat="40.249933" lon="-4.913433">
        <ele>1815.0</ele>
        <time>2015-08-02T11:57:35Z</time>
      </trkpt>
      <trkpt lat="40.249950" lon="-4.913500">
        <ele>1817.0</ele>
        <time>2015-08-02T11:57:36Z</time>
      </trkpt>
      <trkpt lat="40.250000" lon="-4.913583">
        <ele>1819.0</ele>
        <time>2015-08-02T11:57:37Z</time>
      </trkpt>
      <trkpt lat="40.250100" lon="-4.913650">
        <ele>1822.0</ele>
        <time>2015-08-02T11:57:38Z</time>
      </trkpt>
      <trkpt lat="40.250250" lon="-4.913683">
        <ele>1826.0</ele>
        <time>2015-08-02T11:57:39Z</time>
      </trkpt>
      <trkpt lat="40.250333" lon="-4.913650">
        <ele>1831.0</ele>
        <time>2015-08-02T11:57:40Z</time>
      </trkpt>
      <trkpt lat="40.250450" lon="-4.913583">
        <ele>1834.0</ele>
        <time>2015-08-02T11:57:41Z</time>
      </trkpt>
      <trkpt lat="40.250533" lon="-4.913467">
        <ele>1837.0</ele>
        <time>2015-08-02T11:57:42Z</time>
      </trkpt>
      <trkpt lat="40.250583" lon="-4.913317">
        <ele>1838.0</ele>
        <time>2015-08-02T11:57:43Z</time>
      </trkpt>
      <trkpt lat="40.250600" lon="-4.913167">
        <ele>1839.0</ele>
        <time>2015-08-02T11:57:44Z</time>
      </trkpt>
      <trkpt lat="40.250567" lon="-4.913033">
        <ele>1840.0</ele>
        <time>2015-08-02T11:57:45Z</time>
      </trkpt>
      <trkpt lat="40.250500" lon="-4.912950">
        <ele>1842.0</ele>
        <time>2015-08-02T11:57:46Z</time>
      </trkpt>
      <trkpt lat="40.250433" lon="-4.912900">
        <ele>1843.0</ele>
        <time>2015-08-02T11:57:47Z</time>
      </trkpt>
      <trkpt lat="40.250333" lon="-4.912900">
        <ele>1844.0</ele>
        <time>2015-08-02T11:57:48Z</time>
      </trkpt>
      <trkpt lat="40.250267" lon="-4.912950">
        <ele>1845.0</ele>
        <time>2015-08-02T11:57:49Z</time>
      </trkpt>
      <trkpt lat="40.250233" lon="-4.913017">
        <ele>1849.0</ele>
        <time>2015-08-02T11:57:50Z</time>
      </trkpt>
      <trkpt lat="40.250200" lon="-4.913100">
        <ele>1852.0</ele>
        <time>2015-08-02T11:57:51Z</time>
      </trkpt>
      <trkpt lat="40.250200" lon="-4.913183">
        <ele>1856.0</ele>
        <time>2015-08-02T11:57:52Z</time>
      </trkpt>
      <trkpt lat="40.250217" lon="-4.913283">
        <ele>1860.0</ele>
        <time>2015-08-02T11:57:53Z</time>
      </trkpt>
      <trkpt lat="40.250267" lon="-4.913367">
        <ele>1864.0</ele>
        <time>2015-08-02T11:57:54Z</time>
      </trkpt>
      <trkpt lat="40.250350" lon="-4.913433">
        <ele>1869.0</ele>
        <time>2015-08-02T11:57:55Z</time>
      </trkpt>
      <trkpt lat="40.250467" lon="-4.913467">
        <ele>1874.0</ele>
        <time>2015-08-02T11:57:56Z</time>
      </trkpt>
      <trkpt lat="40.250583" lon="-4.913417">
        <ele>1879.0</ele>
        <time>2015-08-02T11:57:57Z</time>
      </trkpt>
      <trkpt lat="40.250683" lon="-4.913317">
        <ele>1884.0</ele>
        <time>2015-08-02T11:57:58Z</time>
      </trkpt>
      <trkpt lat="40.250750" lon="-4.913167">
        <ele>1888.0</ele>
        <time>2015-08-02T11:57:59Z</time>
      </trkpt>
      <trkpt lat="40.250767" lon="-4.913000">
        <ele>1893.0</ele>
        <time>2015-08-02T11:58:00Z</time>
      </trkpt>
      <trkpt lat="40.250717" lon="-4.912867">
        <ele>1896.0</ele>
        <time>2015-08-02T11:58:01Z</time>
      </trkpt>
      <trkpt lat="40.250650" lon="-4.912767">
        <ele>1899.0</ele>
        <time>2015-08-02T11:58:02Z</time>
      </trkpt>
      <trkpt lat="40.250583" lon="-4.912717">
        <ele>1903.0</ele>
        <time>2015-08-02T11:58:03Z</time>
      </trkpt>
      <trkpt lat="40.250500" lon="-4.912683">
        <ele>1907.0</ele>
        <time>2015-08-02T11:58:04Z</time>
      </trkpt>
      <trkpt lat="40.250433" lon="-4.912700">
        <ele>1911.0</ele>
        <time>2015-08-02T11:58:05Z</time>
      </trkpt>
      <trkpt lat="40.250367" lon="-4.912783">
        <ele>1915.0</ele>
        <time>2015-08-02T11:58:06Z</time>
      </trkpt>
      <trkpt lat="40.250367" lon="-4.912867">
        <ele>1918.0</ele>
        <time>2015-08-02T11:58:07Z</time>
      </trkpt>
      <trkpt lat="40.250400" lon="-4.912967">
        <ele>1922.0</ele>
        <time>2015-08-02T11:58:08Z</time>
      </trkpt>
      <trkpt lat="40.250483" lon="-4.913050">
        <ele>1926.0</ele>
        <time>2015-08-02T11:58:09Z</time>
      </trkpt>
      <trkpt lat="40.250617" lon="-4.913067">
        <ele>1929.0</ele>
        <time>2015-08-02T11:58:10Z</time>
      </trkpt>
      <trkpt lat="40.250767" lon="-4.913000">
        <ele>1933.0</ele>
        <time>2015-08-02T11:58:11Z</time>
      </trkpt>
      <trkpt lat="40.250883" lon="-4.912867">
        <ele>1939.0</ele>
        <time>2015-08-02T11:58:12Z</time>
      </trkpt>
      <trkpt lat="40.250950" lon="-4.912700">
        <ele>1946.0</ele>
        <time>2015-08-02T11:58:13Z</time>
      </trkpt>
      <trkpt lat="40.250983" lon="-4.912567">
        <ele>1954.0</ele>
        <time>2015-08-02T11:58:14Z</time>
      </trkpt>
      <trkpt lat="40.251017" lon="-4.912450">
        <ele>1960.0</ele>
        <time>2015-08-02T11:58:15Z</time>
      </trkpt>
      <trkpt lat="40.251050" lon="-4.912350">
        <ele>1964.0</ele>
        <time>2015-08-02T11:58:16Z</time>
      </trkpt>
      <trkpt lat="40.251067" lon="-4.912250">
        <ele>1966.0</ele>
        <time>2015-08-02T11:58:17Z</time>
      </trkpt>
      <trkpt lat="40.251050" lon="-4.912117">
        <ele>1966.0</ele>
        <time>2015-08-02T11:58:18Z</time>
      </trkpt>
      <trkpt lat="40.251000" lon="-4.912000">
        <ele>1965.0</ele>
        <time>2015-08-02T11:58:19Z</time>
      </trkpt>
      <trkpt lat="40.250933" lon="-4.911917">
        <ele>1966.0</ele>
        <time>2015-08-02T11:58:20Z</time>
      </trkpt>
      <trkpt lat="40.250833" lon="-4.911883">
        <ele>1968.0</ele>
        <time>2015-08-02T11:58:21Z</time>
      </trkpt>
      <trkpt lat="40.250733" lon="-4.911933">
        <ele>1972.0</ele>
        <time>2015-08-02T11:58:22Z</time>
      </trkpt>
      <trkpt lat="40.250667" lon="-4.912033">
        <ele>1977.0</ele>
        <time>2015-08-02T11:58:23Z</time>
      </trkpt>
      <trkpt lat="40.250667" lon="-4.912100">
        <ele>1984.0</ele>
        <time>2015-08-02T11:58:24Z</time>
      </trkpt>
      <trkpt lat="40.250667" lon="-4.912183">
        <ele>1992.0</ele>
        <time>2015-08-02T11:58:25Z</time>
      </trkpt>
      <trkpt lat="40.250683" lon="-4.912250">
        <ele>1999.0</ele>
        <time>2015-08-02T11:58:26Z</time>
      </trkpt>
      <trkpt lat="40.250700" lon="-4.912300">
        <ele>2005.0</ele>
        <time>2015-08-02T11:58:27Z</time>
      </trkpt>
      <trkpt lat="40.250750" lon="-4.912350">
        <ele>2010.0</ele>
        <time>2015-08-02T11:58:28Z</time>
      </trkpt>
      <trkpt lat="40.250817" lon="-4.912400">
        <ele>2014.0</ele>
        <time>2015-08-02T11:58:29Z</time>
      </trkpt>
      <trkpt lat="40.250917" lon="-4.912417">
        <ele>2018.0</ele>
        <time>2015-08-02T11:58:30Z</time>
      </trkpt>
      <trkpt lat="40.251033" lon="-4.912400">
        <ele>2022.0</ele>
        <time>2015-08-02T11:58:31Z</time>
      </trkpt>
      <trkpt lat="40.251167" lon="-4.912367">
        <ele>2028.0</ele>
        <time>2015-08-02T11:58:32Z</time>
      </trkpt>
      <trkpt lat="40.251267" lon="-4.912300">
        <ele>2035.0</ele>
        <time>2015-08-02T11:58:33Z</time>
      </trkpt>
      <trkpt lat="40.251350" lon="-4.912217">
        <ele>2042.0</ele>
        <time>2015-08-02T11:58:34Z</time>
      </trkpt>
      <trkpt lat="40.251400" lon="-4.912117">
        <ele>2047.0</ele>
        <time>2015-08-02T11:58:35Z</time>
      </trkpt>
      <trkpt lat="40.251433" lon="-4.911983">
        <ele>2050.0</ele>
        <time>2015-08-02T11:58:36Z</time>
      </trkpt>
      <trkpt lat="40.251433" lon="-4.911817">
        <ele>2051.0</ele>
        <time>2015-08-02T11:58:37Z</time>
      </trkpt>
      <trkpt lat="40.251417" lon="-4.911650">
        <ele>2054.0</ele>
        <time>2015-08-02T11:58:38Z</time>
      </trkpt>
      <trkpt lat="40.251367" lon="-4.911533">
        <ele>2059.0</ele>
        <time>2015-08-02T11:58:39Z</time>
      </trkpt>
      <trkpt lat="40.251283" lon="-4.911450">
        <ele>2063.0</ele>
        <time>2015-08-02T11:58:40Z</time>
      </trkpt>
      <trkpt lat="40.251200" lon="-4.911417">
        <ele>2068.0</ele>
        <time>2015-08-02T11:58:41Z</time>
      </trkpt>
      <trkpt lat="40.251117" lon="-4.911433">
        <ele>2072.0</ele>
        <time>2015-08-02T11:58:42Z</time>
      </trkpt>
      <trkpt lat="40.251050" lon="-4.911467">
        <ele>2078.0</ele>
        <time>2015-08-02T11:58:43Z</time>
      </trkpt>
      <trkpt lat="40.251000" lon="-4.911533">
        <ele>2083.0</ele>
        <time>2015-08-02T11:58:44Z</time>
      </trkpt>
      <trkpt lat="40.250983" lon="-4.911600">
        <ele>2089.0</ele>
        <time>2015-08-02T11:58:45Z</time>
      </trkpt>
      <trkpt lat="40.251000" lon="-4.911683">
        <ele>2095.0</ele>
        <time>2015-08-02T11:58:46Z</time>
      </trkpt>
      <trkpt lat="40.251067" lon="-4.911750">
        <ele>2100.0</ele>
        <time>2015-08-02T11:58:47Z</time>
      </trkpt>
      <trkpt lat="40.251150" lon="-4.911783">
        <ele>2104.0</ele>
        <time>2015-08-02T11:58:48Z</time>
      </trkpt>
      <trkpt lat="40.251250" lon="-4.911800">
        <ele>2109.0</ele>
        <time>2015-08-02T11:58:49Z</time>
      </trkpt>
      <trkpt lat="40.251367" lon="-4.911750">
        <ele>2113.0</ele>
        <time>2015-08-02T11:58:50Z</time>
      </trkpt>
      <trkpt lat="40.251467" lon="-4.911667">
        <ele>2118.0</ele>
        <time>2015-08-02T11:58:51Z</time>
      </trkpt>
      <trkpt lat="40.251550" lon="-4.911517">
        <ele>2121.0</ele>
        <time>2015-08-02T11:58:52Z</time>
      </trkpt>
      <trkpt lat="40.251600" lon="-4.911350">
        <ele>2125.0</ele>
        <time>2015-08-02T11:58:53Z</time>
      </trkpt>
      <trkpt lat="40.251583" lon="-4.911167">
        <ele>2129.0</ele>
        <time>2015-08-02T11:58:54Z</time>
      </trkpt>
      <trkpt lat="40.251517" lon="-4.911017">
        <ele>2134.0</ele>
        <time>2015-08-02T11:58:55Z</time>
      </trkpt>
      <trkpt lat="40.251450" lon="-4.910933">
        <ele>2141.0</ele>
        <time>2015-08-02T11:58:56Z</time>
      </trkpt>
      <trkpt lat="40.251367" lon="-4.910883">
        <ele>2146.0</ele>
        <time>2015-08-02T11:58:57Z</time>
      </trkpt>
      <trkpt lat="40.251317" lon="-4.910883">
        <ele>2151.0</ele>
        <time>2015-08-02T11:58:58Z</time>
      </trkpt>
      <trkpt lat="40.251250" lon="-4.910883">
        <ele>2156.0</ele>
        <time>2015-08-02T11:58:59Z</time>
      </trkpt>
      <trkpt lat="40.251250" lon="-4.910883">
        <ele>2160.0</ele>
        <time>2015-08-02T11:58:59Z</time>
      </trkpt>
      <trkpt lat="40.251183" lon="-4.910933">
        <ele>2160.0</ele>
        <time>2015-08-02T11:59:00Z</time>
      </trkpt>
      <trkpt lat="40.251167" lon="-4.910967">
        <ele>2164.0</ele>
        <time>2015-08-02T11:59:01Z</time>
      </trkpt>
      <trkpt lat="40.251167" lon="-4.911050">
        <ele>2166.0</ele>
        <time>2015-08-02T11:59:02Z</time>
      </trkpt>
      <trkpt lat="40.251217" lon="-4.911167">
        <ele>2168.0</ele>
        <time>2015-08-02T11:59:03Z</time>
      </trkpt>
      <trkpt lat="40.251283" lon="-4.911217">
        <ele>2170.0</ele>
        <time>2015-08-02T11:59:04Z</time>
      </trkpt>
      <trkpt lat="40.251400" lon="-4.911233">
        <ele>2173.0</ele>
        <time>2015-08-02T11:59:05Z</time>
      </trkpt>
      <trkpt lat="40.251517" lon="-4.911183">
        <ele>2175.0</ele>
        <time>2015-08-02T11:59:06Z</time>
      </trkpt>
      <trkpt lat="40.251617" lon="-4.911067">
        <ele>2177.0</ele>
        <time>2015-08-02T11:59:07Z</time>
      </trkpt>
      <trkpt lat="40.251700" lon="-4.910900">
        <ele>2180.0</ele>
        <time>2015-08-02T11:59:08Z</time>
      </trkpt>
      <trkpt lat="40.251750" lon="-4.910700">
        <ele>2184.0</ele>
        <time>2015-08-02T11:59:09Z</time>
      </trkpt>
      <trkpt lat="40.251783" lon="-4.910500">
        <ele>2190.0</ele>
        <time>2015-08-02T11:59:10Z</time>
      </trkpt>
      <trkpt lat="40.251783" lon="-4.910333">
        <ele>2196.0</ele>
        <time>2015-08-02T11:59:11Z</time>
      </trkpt>
      <trkpt lat="40.251783" lon="-4.910200">
        <ele>2202.0</ele>
        <time>2015-08-02T11:59:12Z</time>
      </trkpt>
      <trkpt lat="40.251750" lon="-4.910067">
        <ele>2206.0</ele>
        <time>2015-08-02T11:59:13Z</time>
      </trkpt>
      <trkpt lat="40.251683" lon="-4.909983">
        <ele>2209.0</ele>
        <time>2015-08-02T11:59:14Z</time>
      </trkpt>
      <trkpt lat="40.251617" lon="-4.909950">
        <ele>2210.0</ele>
        <time>2015-08-02T11:59:15Z</time>
      </trkpt>
      <trkpt lat="40.251550" lon="-4.909967">
        <ele>2212.0</ele>
        <time>2015-08-02T11:59:16Z</time>
      </trkpt>
      <trkpt lat="40.251500" lon="-4.910000">
        <ele>2215.0</ele>
        <time>2015-08-02T11:59:17Z</time>
      </trkpt>
      <trkpt lat="40.251467" lon="-4.910017">
        <ele>2220.0</ele>
        <time>2015-08-02T11:59:18Z</time>
      </trkpt>
      <trkpt lat="40.251450" lon="-4.910050">
        <ele>2223.0</ele>
        <time>2015-08-02T11:59:19Z</time>
      </trkpt>
      <trkpt lat="40.251450" lon="-4.910100">
        <ele>2225.0</ele>
        <time>2015-08-02T11:59:20Z</time>
      </trkpt>
      <trkpt lat="40.251483" lon="-4.910167">
        <ele>2225.0</ele>
        <time>2015-08-02T11:59:21Z</time>
      </trkpt>
      <trkpt lat="40.251550" lon="-4.910233">
        <ele>2225.0</ele>
        <time>2015-08-02T11:59:22Z</time>
      </trkpt>
      <trkpt lat="40.251700" lon="-4.910217">
        <ele>2225.0</ele>
        <time>2015-08-02T11:59:23Z</time>
      </trkpt>
      <trkpt lat="40.251833" lon="-4.910133">
        <ele>2227.0</ele>
        <time>2015-08-02T11:59:24Z</time>
      </trkpt>
      <trkpt lat="40.251917" lon="-4.910050">
        <ele>2231.0</ele>
        <time>2015-08-02T11:59:25Z</time>
      </trkpt>
      <trkpt lat="40.251983" lon="-4.909917">
        <ele>2237.0</ele>
        <time>2015-08-02T11:59:26Z</time>
      </trkpt>
      <trkpt lat="40.252050" lon="-4.909767">
        <ele>2242.0</ele>
        <time>2015-08-02T11:59:27Z</time>
      </trkpt>
      <trkpt lat="40.252083" lon="-4.909667">
        <ele>2247.0</ele>
        <time>2015-08-02T11:59:28Z</time>
      </trkpt>
      <trkpt lat="40.252117" lon="-4.909517">
        <ele>2249.0</ele>
        <time>2015-08-02T11:59:29Z</time>
      </trkpt>
      <trkpt lat="40.252117" lon="-4.909367">
        <ele>2250.0</ele>
        <time>2015-08-02T11:59:30Z</time>
      </trkpt>
      <trkpt lat="40.252083" lon="-4.909217">
        <ele>2252.0</ele>
        <time>2015-08-02T11:59:31Z</time>
      </trkpt>
      <trkpt lat="40.252017" lon="-4.909117">
        <ele>2254.0</ele>
        <time>2015-08-02T11:59:32Z</time>
      </trkpt>
      <trkpt lat="40.251950" lon="-4.909050">
        <ele>2255.0</ele>
        <time>2015-08-02T11:59:33Z</time>
      </trkpt>
      <trkpt lat="40.251883" lon="-4.909050">
        <ele>2255.0</ele>
        <time>2015-08-02T11:59:34Z</time>
      </trkpt>
      <trkpt lat="40.251833" lon="-4.909083">
        <ele>2256.0</ele>
        <time>2015-08-02T11:59:35Z</time>
      </trkpt>
      <trkpt lat="40.251783" lon="-4.909133">
        <ele>2256.0</ele>
        <time>2015-08-02T11:59:36Z</time>
      </trkpt>
      <trkpt lat="40.251750" lon="-4.909200">
        <ele>2257.0</ele>
        <time>2015-08-02T11:59:37Z</time>
      </trkpt>
      <trkpt lat="40.251700" lon="-4.909250">
        <ele>2260.0</ele>
        <time>2015-08-02T11:59:38Z</time>
      </trkpt>
      <trkpt lat="40.251633" lon="-4.909283">
        <ele>2262.0</ele>
        <time>2015-08-02T11:59:39Z</time>
      </trkpt>
      <trkpt lat="40.251567" lon="-4.909283">
        <ele>2264.0</ele>
        <time>2015-08-02T11:59:40Z</time>
      </trkpt>
      <trkpt lat="40.251500" lon="-4.909283">
        <ele>2265.0</ele>
        <time>2015-08-02T11:59:41Z</time>
      </trkpt>
      <trkpt lat="40.251450" lon="-4.909300">
        <ele>2265.0</ele>
        <time>2015-08-02T11:59:42Z</time>
      </trkpt>
      <trkpt lat="40.251383" lon="-4.909333">
        <ele>2264.0</ele>
        <time>2015-08-02T11:59:43Z</time>
      </trkpt>
      <trkpt lat="40.251333" lon="-4.909383">
        <ele>2263.0</ele>
        <time>2015-08-02T11:59:44Z</time>
      </trkpt>
      <trkpt lat="40.251283" lon="-4.909450">
        <ele>2263.0</ele>
        <time>2015-08-02T11:59:45Z</time>
      </trkpt>
      <trkpt lat="40.251217" lon="-4.909500">
        <ele>2263.0</ele>
        <time>2015-08-02T11:59:46Z</time>
      </trkpt>
      <trkpt lat="40.251167" lon="-4.909533">
        <ele>2263.0</ele>
        <time>2015-08-02T11:59:47Z</time>
      </trkpt>
      <trkpt lat="40.251100" lon="-4.909583">
        <ele>2261.0</ele>
        <time>2015-08-02T11:59:48Z</time>
      </trkpt>
      <trkpt lat="40.251033" lon="-4.909633">
        <ele>2260.0</ele>
        <time>2015-08-02T11:59:49Z</time>
      </trkpt>
      <trkpt lat="40.250967" lon="-4.909700">
        <ele>2259.0</ele>
        <time>2015-08-02T11:59:50Z</time>
      </trkpt>
      <trkpt lat="40.250900" lon="-4.909750">
        <ele>2259.0</ele>
        <time>2015-08-02T11:59:51Z</time>
      </trkpt>
      <trkpt lat="40.250833" lon="-4.909817">
        <ele>2259.0</ele>
        <time>2015-08-02T11:59:52Z</time>
      </trkpt>
      <trkpt lat="40.250783" lon="-4.909867">
        <ele>2258.0</ele>
        <time>2015-08-02T11:59:53Z</time>
      </trkpt>
      <trkpt lat="40.250717" lon="-4.909900">
        <ele>2256.0</ele>
        <time>2015-08-02T11:59:54Z</time>
      </trkpt>
      <trkpt lat="40.250650" lon="-4.909933">
        <ele>2254.0</ele>
        <time>2015-08-02T11:59:55Z</time>
      </trkpt>
      <trkpt lat="40.250583" lon="-4.909983">
        <ele>2252.0</ele>
        <time>2015-08-02T11:59:56Z</time>
      </trkpt>
      <trkpt lat="40.250517" lon="-4.910050">
        <ele>2250.0</ele>
        <time>2015-08-02T11:59:57Z</time>
      </trkpt>
      <trkpt lat="40.250450" lon="-4.910133">
        <ele>2250.0</ele>
        <time>2015-08-02T11:59:58Z</time>
      </trkpt>
      <trkpt lat="40.250400" lon="-4.910183">
        <ele>2251.0</ele>
        <time>2015-08-02T11:59:59Z</time>
      </trkpt>
      <trkpt lat="40.250350" lon="-4.910233">
        <ele>2251.0</ele>
        <time>2015-08-02T12:00:00Z</time>
      </trkpt>
      <trkpt lat="40.250317" lon="-4.910267">
        <ele>2250.0</ele>
        <time>2015-08-02T12:00:01Z</time>
      </trkpt>
      <trkpt lat="40.250267" lon="-4.910317">
        <ele>2248.0</ele>
        <time>2015-08-02T12:00:02Z</time>
      </trkpt>
      <trkpt lat="40.250217" lon="-4.910383">
        <ele>2246.0</ele>
        <time>2015-08-02T12:00:03Z</time>
      </trkpt>
      <trkpt lat="40.250167" lon="-4.910450">
        <ele>2243.0</ele>
        <time>2015-08-02T12:00:04Z</time>
      </trkpt>
      <trkpt lat="40.250117" lon="-4.910517">
        <ele>2241.0</ele>
        <time>2015-08-02T12:00:05Z</time>
      </trkpt>
      <trkpt lat="40.250083" lon="-4.910567">
        <ele>2241.0</ele>
        <time>2015-08-02T12:00:06Z</time>
      </trkpt>
      <trkpt lat="40.250017" lon="-4.910600">
        <ele>2240.0</ele>
        <time>2015-08-02T12:00:07Z</time>
      </trkpt>
      <trkpt lat="40.249983" lon="-4.910633">
        <ele>2239.0</ele>
        <time>2015-08-02T12:00:08Z</time>
      </trkpt>
      <trkpt lat="40.249950" lon="-4.910667">
        <ele>2237.0</ele>
        <time>2015-08-02T12:00:09Z</time>
      </trkpt>
      <trkpt lat="40.249917" lon="-4.910717">
        <ele>2235.0</ele>
        <time>2015-08-02T12:00:10Z</time>
      </trkpt>
      <trkpt lat="40.249883" lon="-4.910783">
        <ele>2233.0</ele>
        <time>2015-08-02T12:00:11Z</time>
      </trkpt>
      <trkpt lat="40.249850" lon="-4.910850">
        <ele>2231.0</ele>
        <time>2015-08-02T12:00:12Z</time>
      </trkpt>
      <trkpt lat="40.249817" lon="-4.910900">
        <ele>2229.0</ele>
        <time>2015-08-02T12:00:13Z</time>
      </trkpt>
      <trkpt lat="40.249783" lon="-4.910967">
        <ele>2227.0</ele>
        <time>2015-08-02T12:00:14Z</time>
      </trkpt>
      <trkpt lat="40.249750" lon="-4.911033">
        <ele>2226.0</ele>
        <time>2015-08-02T12:00:15Z</time>
      </trkpt>
      <trkpt lat="40.249717" lon="-4.911083">
        <ele>2224.0</ele>
        <time>2015-08-02T12:00:16Z</time>
      </trkpt>
      <trkpt lat="40.249683" lon="-4.911150">
        <ele>2222.0</ele>
        <time>2015-08-02T12:00:17Z</time>
      </trkpt>
      <trkpt lat="40.249667" lon="-4.911217">
        <ele>2220.0</ele>
        <time>2015-08-02T12:00:18Z</time>
      </trkpt>
      <trkpt lat="40.249633" lon="-4.911300">
        <ele>2218.0</ele>
        <time>2015-08-02T12:00:19Z</time>
      </trkpt>
      <trkpt lat="40.249617" lon="-4.911350">
        <ele>2217.0</ele>
        <time>2015-08-02T12:00:20Z</time>
      </trkpt>
      <trkpt lat="40.249567" lon="-4.911400">
        <ele>2215.0</ele>
        <time>2015-08-02T12:00:21Z</time>
      </trkpt>
      <trkpt lat="40.249533" lon="-4.911450">
        <ele>2213.0</ele>
        <time>2015-08-02T12:00:22Z</time>
      </trkpt>
      <trkpt lat="40.249483" lon="-4.911500">
        <ele>2211.0</ele>
        <time>2015-08-02T12:00:23Z</time>
      </trkpt>
      <trkpt lat="40.249433" lon="-4.911550">
        <ele>2210.0</ele>
        <time>2015-08-02T12:00:24Z</time>
      </trkpt>
      <trkpt lat="40.249383" lon="-4.911600">
        <ele>2207.0</ele>
        <time>2015-08-02T12:00:25Z</time>
      </trkpt>
      <trkpt lat="40.249317" lon="-4.911650">
        <ele>2205.0</ele>
        <time>2015-08-02T12:00:26Z</time>
      </trkpt>
      <trkpt lat="40.249250" lon="-4.911700">
        <ele>2202.0</ele>
        <time>2015-08-02T12:00:27Z</time>
      </trkpt>
      <trkpt lat="40.249183" lon="-4.911750">
        <ele>2199.0</ele>
        <time>2015-08-02T12:00:28Z</time>
      </trkpt>
      <trkpt lat="40.249100" lon="-4.911817">
        <ele>2197.0</ele>
        <time>2015-08-02T12:00:29Z</time>
      </trkpt>
      <trkpt lat="40.249017" lon="-4.911883">
        <ele>2198.0</ele>
        <time>2015-08-02T12:00:30Z</time>
      </trkpt>
      <trkpt lat="40.248917" lon="-4.911933">
        <ele>2200.0</ele>
        <time>2015-08-02T12:00:31Z</time>
      </trkpt>
      <trkpt lat="40.248833" lon="-4.911967">
        <ele>2204.0</ele>
        <time>2015-08-02T12:00:32Z</time>
      </trkpt>
      <trkpt lat="40.248750" lon="-4.911983">
        <ele>2208.0</ele>
        <time>2015-08-02T12:00:33Z</time>
      </trkpt>
      <trkpt lat="40.248667" lon="-4.911983">
        <ele>2211.0</ele>
        <time>2015-08-02T12:00:34Z</time>
      </trkpt>
      <trkpt lat="40.248600" lon="-4.912000">
        <ele>2212.0</ele>
        <time>2015-08-02T12:00:35Z</time>
      </trkpt>
      <trkpt lat="40.248533" lon="-4.912017">
        <ele>2214.0</ele>
        <time>2015-08-02T12:00:36Z</time>
      </trkpt>
      <trkpt lat="40.248467" lon="-4.912033">
        <ele>2214.0</ele>
        <time>2015-08-02T12:00:37Z</time>
      </trkpt>
      <trkpt lat="40.248400" lon="-4.912067">
        <ele>2214.0</ele>
        <time>2015-08-02T12:00:38Z</time>
      </trkpt>
      <trkpt lat="40.248333" lon="-4.912100">
        <ele>2214.0</ele>
        <time>2015-08-02T12:00:39Z</time>
      </trkpt>
      <trkpt lat="40.248267" lon="-4.912150">
        <ele>2213.0</ele>
        <time>2015-08-02T12:00:40Z</time>
      </trkpt>
      <trkpt lat="40.248217" lon="-4.912200">
        <ele>2213.0</ele>
        <time>2015-08-02T12:00:41Z</time>
      </trkpt>
      <trkpt lat="40.248150" lon="-4.912250">
        <ele>2213.0</ele>
        <time>2015-08-02T12:00:42Z</time>
      </trkpt>
      <trkpt lat="40.248083" lon="-4.912283">
        <ele>2213.0</ele>
        <time>2015-08-02T12:00:43Z</time>
      </trkpt>
      <trkpt lat="40.248017" lon="-4.912300">
        <ele>2212.0</ele>
        <time>2015-08-02T12:00:44Z</time>
      </trkpt>
      <trkpt lat="40.247950" lon="-4.912317">
        <ele>2210.0</ele>
        <time>2015-08-02T12:00:45Z</time>
      </trkpt>
      <trkpt lat="40.247867" lon="-4.912333">
        <ele>2208.0</ele>
        <time>2015-08-02T12:00:46Z</time>
      </trkpt>
      <trkpt lat="40.247783" lon="-4.912350">
        <ele>2206.0</ele>
        <time>2015-08-02T12:00:47Z</time>
      </trkpt>
      <trkpt lat="40.247717" lon="-4.912383">
        <ele>2205.0</ele>
        <time>2015-08-02T12:00:48Z</time>
      </trkpt>
      <trkpt lat="40.247667" lon="-4.912417">
        <ele>2204.0</ele>
        <time>2015-08-02T12:00:49Z</time>
      </trkpt>
      <trkpt lat="40.247600" lon="-4.912450">
        <ele>2203.0</ele>
        <time>2015-08-02T12:00:50Z</time>
      </trkpt>
      <trkpt lat="40.247550" lon="-4.912483">
        <ele>2201.0</ele>
        <time>2015-08-02T12:00:51Z</time>
      </trkpt>
      <trkpt lat="40.247483" lon="-4.912517">
        <ele>2200.0</ele>
        <time>2015-08-02T12:00:52Z</time>
      </trkpt>
      <trkpt lat="40.247433" lon="-4.912550">
        <ele>2198.0</ele>
        <time>2015-08-02T12:00:53Z</time>
      </trkpt>
      <trkpt lat="40.247383" lon="-4.912583">
        <ele>2196.0</ele>
        <time>2015-08-02T12:00:54Z</time>
      </trkpt>
      <trkpt lat="40.247317" lon="-4.912600">
        <ele>2194.0</ele>
        <time>2015-08-02T12:00:55Z</time>
      </trkpt>
      <trkpt lat="40.247267" lon="-4.912650">
        <ele>2192.0</ele>
        <time>2015-08-02T12:00:56Z</time>
      </trkpt>
      <trkpt lat="40.247217" lon="-4.912683">
        <ele>2190.0</ele>
        <time>2015-08-02T12:00:57Z</time>
      </trkpt>
      <trkpt lat="40.247167" lon="-4.912750">
        <ele>2188.0</ele>
        <time>2015-08-02T12:00:58Z</time>
      </trkpt>
      <trkpt lat="40.247133" lon="-4.912800">
        <ele>2186.0</ele>
        <time>2015-08-02T12:00:59Z</time>
      </trkpt>
      <trkpt lat="40.247083" lon="-4.912867">
        <ele>2184.0</ele>
        <time>2015-08-02T12:01:00Z</time>
      </trkpt>
      <trkpt lat="40.247050" lon="-4.912917">
        <ele>2182.0</ele>
        <time>2015-08-02T12:01:01Z</time>
      </trkpt>
      <trkpt lat="40.247000" lon="-4.912983">
        <ele>2180.0</ele>
        <time>2015-08-02T12:01:02Z</time>
      </trkpt>
      <trkpt lat="40.246950" lon="-4.913017">
        <ele>2177.0</ele>
        <time>2015-08-02T12:01:03Z</time>
      </trkpt>
      <trkpt lat="40.246883" lon="-4.913067">
        <ele>2175.0</ele>
        <time>2015-08-02T12:01:04Z</time>
      </trkpt>
      <trkpt lat="40.246833" lon="-4.913100">
        <ele>2173.0</ele>
        <time>2015-08-02T12:01:05Z</time>
      </trkpt>
      <trkpt lat="40.246767" lon="-4.913133">
        <ele>2172.0</ele>
        <time>2015-08-02T12:01:06Z</time>
      </trkpt>
      <trkpt lat="40.246717" lon="-4.913167">
        <ele>2170.0</ele>
        <time>2015-08-02T12:01:07Z</time>
      </trkpt>
      <trkpt lat="40.246667" lon="-4.913217">
        <ele>2168.0</ele>
        <time>2015-08-02T12:01:08Z</time>
      </trkpt>
      <trkpt lat="40.246617" lon="-4.913267">
        <ele>2166.0</ele>
        <time>2015-08-02T12:01:09Z</time>
      </trkpt>
      <trkpt lat="40.246550" lon="-4.913317">
        <ele>2164.0</ele>
        <time>2015-08-02T12:01:10Z</time>
      </trkpt>
      <trkpt lat="40.246500" lon="-4.913350">
        <ele>2162.0</ele>
        <time>2015-08-02T12:01:11Z</time>
      </trkpt>
      <trkpt lat="40.246450" lon="-4.913400">
        <ele>2161.0</ele>
        <time>2015-08-02T12:01:12Z</time>
      </trkpt>
      <trkpt lat="40.246400" lon="-4.913433">
        <ele>2158.0</ele>
        <time>2015-08-02T12:01:13Z</time>
      </trkpt>
      <trkpt lat="40.246350" lon="-4.913483">
        <ele>2156.0</ele>
        <time>2015-08-02T12:01:14Z</time>
      </trkpt>
      <trkpt lat="40.246300" lon="-4.913517">
        <ele>2154.0</ele>
        <time>2015-08-02T12:01:15Z</time>
      </trkpt>
      <trkpt lat="40.246233" lon="-4.913567">
        <ele>2152.0</ele>
        <time>2015-08-02T12:01:16Z</time>
      </trkpt>
      <trkpt lat="40.246183" lon="-4.913600">
        <ele>2150.0</ele>
        <time>2015-08-02T12:01:17Z</time>
      </trkpt>
      <trkpt lat="40.246133" lon="-4.913650">
        <ele>2148.0</ele>
        <time>2015-08-02T12:01:18Z</time>
      </trkpt>
      <trkpt lat="40.246083" lon="-4.913683">
        <ele>2145.0</ele>
        <time>2015-08-02T12:01:19Z</time>
      </trkpt>
      <trkpt lat="40.246033" lon="-4.913717">
        <ele>2143.0</ele>
        <time>2015-08-02T12:01:20Z</time>
      </trkpt>
      <trkpt lat="40.245967" lon="-4.913767">
        <ele>2140.0</ele>
        <time>2015-08-02T12:01:21Z</time>
      </trkpt>
      <trkpt lat="40.245917" lon="-4.913800">
        <ele>2138.0</ele>
        <time>2015-08-02T12:01:22Z</time>
      </trkpt>
      <trkpt lat="40.245867" lon="-4.913833">
        <ele>2135.0</ele>
        <time>2015-08-02T12:01:23Z</time>
      </trkpt>
      <trkpt lat="40.245817" lon="-4.913883">
        <ele>2133.0</ele>
        <time>2015-08-02T12:01:24Z</time>
      </trkpt>
      <trkpt lat="40.245750" lon="-4.913917">
        <ele>2130.0</ele>
        <time>2015-08-02T12:01:25Z</time>
      </trkpt>
      <trkpt lat="40.245700" lon="-4.913950">
        <ele>2127.0</ele>
        <time>2015-08-02T12:01:26Z</time>
      </trkpt>
      <trkpt lat="40.245650" lon="-4.913983">
        <ele>2124.0</ele>
        <time>2015-08-02T12:01:27Z</time>
      </trkpt>
      <trkpt lat="40.245600" lon="-4.914017">
        <ele>2121.0</ele>
        <time>2015-08-02T12:01:28Z</time>
      </trkpt>
      <trkpt lat="40.245533" lon="-4.914050">
        <ele>2118.0</ele>
        <time>2015-08-02T12:01:29Z</time>
      </trkpt>
      <trkpt lat="40.245483" lon="-4.914083">
        <ele>2115.0</ele>
        <time>2015-08-02T12:01:30Z</time>
      </trkpt>
      <trkpt lat="40.245417" lon="-4.914133">
        <ele>2113.0</ele>
        <time>2015-08-02T12:01:31Z</time>
      </trkpt>
      <trkpt lat="40.245367" lon="-4.914150">
        <ele>2110.0</ele>
        <time>2015-08-02T12:01:32Z</time>
      </trkpt>
      <trkpt lat="40.245317" lon="-4.914167">
        <ele>2108.0</ele>
        <time>2015-08-02T12:01:33Z</time>
      </trkpt>
      <trkpt lat="40.245267" lon="-4.914183">
        <ele>2105.0</ele>
        <time>2015-08-02T12:01:34Z</time>
      </trkpt>
      <trkpt lat="40.245200" lon="-4.914233">
        <ele>2103.0</ele>
        <time>2015-08-02T12:01:35Z</time>
      </trkpt>
      <trkpt lat="40.245183" lon="-4.914250">
        <ele>2099.0</ele>
        <time>2015-08-02T12:01:36Z</time>
      </trkpt>
      <trkpt lat="40.245133" lon="-4.914283">
        <ele>2096.0</ele>
        <time>2015-08-02T12:01:37Z</time>
      </trkpt>
      <trkpt lat="40.245067" lon="-4.914317">
        <ele>2093.0</ele>
        <time>2015-08-02T12:01:38Z</time>
      </trkpt>
      <trkpt lat="40.245017" lon="-4.914367">
        <ele>2091.0</ele>
        <time>2015-08-02T12:01:39Z</time>
      </trkpt>
      <trkpt lat="40.244967" lon="-4.914417">
        <ele>2089.0</ele>
        <time>2015-08-02T12:01:40Z</time>
      </trkpt>
      <trkpt lat="40.244933" lon="-4.914450">
        <ele>2087.0</ele>
        <time>2015-08-02T12:01:41Z</time>
      </trkpt>
      <trkpt lat="40.244883" lon="-4.914500">
        <ele>2084.0</ele>
        <time>2015-08-02T12:01:42Z</time>
      </trkpt>
      <trkpt lat="40.244833" lon="-4.914533">
        <ele>2081.0</ele>
        <time>2015-08-02T12:01:43Z</time>
      </trkpt>
      <trkpt lat="40.244767" lon="-4.914567">
        <ele>2077.0</ele>
        <time>2015-08-02T12:01:44Z</time>
      </trkpt>
      <trkpt lat="40.244717" lon="-4.914600">
        <ele>2074.0</ele>
        <time>2015-08-02T12:01:45Z</time>
      </trkpt>
      <trkpt lat="40.244650" lon="-4.914650">
        <ele>2071.0</ele>
        <time>2015-08-02T12:01:46Z</time>
      </trkpt>
      <trkpt lat="40.244583" lon="-4.914700">
        <ele>2069.0</ele>
        <time>2015-08-02T12:01:47Z</time>
      </trkpt>
      <trkpt lat="40.244533" lon="-4.914733">
        <ele>2068.0</ele>
        <time>2015-08-02T12:01:48Z</time>
      </trkpt>
      <trkpt lat="40.244483" lon="-4.914767">
        <ele>2066.0</ele>
        <time>2015-08-02T12:01:49Z</time>
      </trkpt>
      <trkpt lat="40.244433" lon="-4.914783">
        <ele>2063.0</ele>
        <time>2015-08-02T12:01:50Z</time>
      </trkpt>
      <trkpt lat="40.244367" lon="-4.914817">
        <ele>2059.0</ele>
        <time>2015-08-02T12:01:51Z</time>
      </trkpt>
      <trkpt lat="40.244300" lon="-4.914867">
        <ele>2056.0</ele>
        <time>2015-08-02T12:01:52Z</time>
      </trkpt>
      <trkpt lat="40.244250" lon="-4.914917">
        <ele>2054.0</ele>
        <time>2015-08-02T12:01:53Z</time>
      </trkpt>
      <trkpt lat="40.244183" lon="-4.914983">
        <ele>2052.0</ele>
        <time>2015-08-02T12:01:54Z</time>
      </trkpt>
      <trkpt lat="40.244133" lon="-4.915033">
        <ele>2051.0</ele>
        <time>2015-08-02T12:01:55Z</time>
      </trkpt>
      <trkpt lat="40.244100" lon="-4.915083">
        <ele>2050.0</ele>
        <time>2015-08-02T12:01:56Z</time>
      </trkpt>
      <trkpt lat="40.244067" lon="-4.915133">
        <ele>2048.0</ele>
        <time>2015-08-02T12:01:57Z</time>
      </trkpt>
      <trkpt lat="40.244033" lon="-4.915183">
        <ele>2046.0</ele>
        <time>2015-08-02T12:01:58Z</time>
      </trkpt>
      <trkpt lat="40.243983" lon="-4.915250">
        <ele>2043.0</ele>
        <time>2015-08-02T12:01:59Z</time>
      </trkpt>
      <trkpt lat="40.243950" lon="-4.915333">
        <ele>2042.0</ele>
        <time>2015-08-02T12:02:00Z</time>
      </trkpt>
      <trkpt lat="40.243917" lon="-4.915400">
        <ele>2040.0</ele>
        <time>2015-08-02T12:02:01Z</time>
      </trkpt>
      <trkpt lat="40.243867" lon="-4.915467">
        <ele>2040.0</ele>
        <time>2015-08-02T12:02:02Z</time>
      </trkpt>
      <trkpt lat="40.243833" lon="-4.915533">
        <ele>2040.0</ele>
        <time>2015-08-02T12:02:03Z</time>
      </trkpt>
      <trkpt lat="40.243800" lon="-4.915583">
        <ele>2039.0</ele>
        <time>2015-08-02T12:02:04Z</time>
      </trkpt>
      <trkpt lat="40.243767" lon="-4.915650">
        <ele>2038.0</ele>
        <time>2015-08-02T12:02:05Z</time>
      </trkpt>
      <trkpt lat="40.243717" lon="-4.915717">
        <ele>2036.0</ele>
        <time>2015-08-02T12:02:06Z</time>
      </trkpt>
      <trkpt lat="40.243683" lon="-4.915783">
        <ele>2035.0</ele>
        <time>2015-08-02T12:02:07Z</time>
      </trkpt>
      <trkpt lat="40.243633" lon="-4.915867">
        <ele>2035.0</ele>
        <time>2015-08-02T12:02:08Z</time>
      </trkpt>
      <trkpt lat="40.243617" lon="-4.915950">
        <ele>2035.0</ele>
        <time>2015-08-02T12:02:09Z</time>
      </trkpt>
      <trkpt lat="40.243600" lon="-4.916033">
        <ele>2036.0</ele>
        <time>2015-08-02T12:02:10Z</time>
      </trkpt>
      <trkpt lat="40.243583" lon="-4.916100">
        <ele>2035.0</ele>
        <time>2015-08-02T12:02:11Z</time>
      </trkpt>
      <trkpt lat="40.243550" lon="-4.916167">
        <ele>2034.0</ele>
        <time>2015-08-02T12:02:12Z</time>
      </trkpt>
      <trkpt lat="40.243533" lon="-4.916233">
        <ele>2032.0</ele>
        <time>2015-08-02T12:02:13Z</time>
      </trkpt>
      <trkpt lat="40.243500" lon="-4.916317">
        <ele>2031.0</ele>
        <time>2015-08-02T12:02:14Z</time>
      </trkpt>
      <trkpt lat="40.243483" lon="-4.916383">
        <ele>2030.0</ele>
        <time>2015-08-02T12:02:15Z</time>
      </trkpt>
      <trkpt lat="40.243483" lon="-4.916467">
        <ele>2029.0</ele>
        <time>2015-08-02T12:02:16Z</time>
      </trkpt>
      <trkpt lat="40.243467" lon="-4.916550">
        <ele>2028.0</ele>
        <time>2015-08-02T12:02:17Z</time>
      </trkpt>
      <trkpt lat="40.243467" lon="-4.916633">
        <ele>2027.0</ele>
        <time>2015-08-02T12:02:18Z</time>
      </trkpt>
      <trkpt lat="40.243433" lon="-4.916733">
        <ele>2027.0</ele>
        <time>2015-08-02T12:02:19Z</time>
      </trkpt>
      <trkpt lat="40.243400" lon="-4.916817">
        <ele>2027.0</ele>
        <time>2015-08-02T12:02:20Z</time>
      </trkpt>
      <trkpt lat="40.243350" lon="-4.916867">
        <ele>2027.0</ele>
        <time>2015-08-02T12:02:21Z</time>
      </trkpt>
      <trkpt lat="40.243300" lon="-4.916917">
        <ele>2028.0</ele>
        <time>2015-08-02T12:02:22Z</time>
      </trkpt>
      <trkpt lat="40.243250" lon="-4.916950">
        <ele>2028.0</ele>
        <time>2015-08-02T12:02:23Z</time>
      </trkpt>
      <trkpt lat="40.243200" lon="-4.916950">
        <ele>2029.0</ele>
        <time>2015-08-02T12:02:24Z</time>
      </trkpt>
      <trkpt lat="40.243150" lon="-4.916950">
        <ele>2029.0</ele>
        <time>2015-08-02T12:02:25Z</time>
      </trkpt>
      <trkpt lat="40.243117" lon="-4.916950">
        <ele>2029.0</ele>
        <time>2015-08-02T12:02:26Z</time>
      </trkpt>
      <trkpt lat="40.243067" lon="-4.916950">
        <ele>2029.0</ele>
        <time>2015-08-02T12:02:27Z</time>
      </trkpt>
      <trkpt lat="40.243017" lon="-4.916967">
        <ele>2028.0</ele>
        <time>2015-08-02T12:02:28Z</time>
      </trkpt>
      <trkpt lat="40.242967" lon="-4.916983">
        <ele>2029.0</ele>
        <time>2015-08-02T12:02:29Z</time>
      </trkpt>
      <trkpt lat="40.242933" lon="-4.917000">
        <ele>2030.0</ele>
        <time>2015-08-02T12:02:30Z</time>
      </trkpt>
      <trkpt lat="40.242883" lon="-4.917000">
        <ele>2030.0</ele>
        <time>2015-08-02T12:02:31Z</time>
      </trkpt>
      <trkpt lat="40.242833" lon="-4.917017">
        <ele>2031.0</ele>
        <time>2015-08-02T12:02:32Z</time>
      </trkpt>
      <trkpt lat="40.242783" lon="-4.917017">
        <ele>2031.0</ele>
        <time>2015-08-02T12:02:33Z</time>
      </trkpt>
      <trkpt lat="40.242733" lon="-4.917033">
        <ele>2031.0</ele>
        <time>2015-08-02T12:02:34Z</time>
      </trkpt>
      <trkpt lat="40.242683" lon="-4.917067">
        <ele>2032.0</ele>
        <time>2015-08-02T12:02:35Z</time>
      </trkpt>
      <trkpt lat="40.242633" lon="-4.917100">
        <ele>2033.0</ele>
        <time>2015-08-02T12:02:36Z</time>
      </trkpt>
      <trkpt lat="40.242567" lon="-4.917133">
        <ele>2034.0</ele>
        <time>2015-08-02T12:02:37Z</time>
      </trkpt>
      <trkpt lat="40.242533" lon="-4.917150">
        <ele>2034.0</ele>
        <time>2015-08-02T12:02:38Z</time>
      </trkpt>
      <trkpt lat="40.242483" lon="-4.917183">
        <ele>2035.0</ele>
        <time>2015-08-02T12:02:39Z</time>
      </trkpt>
      <trkpt lat="40.242433" lon="-4.917233">
        <ele>2034.0</ele>
        <time>2015-08-02T12:02:40Z</time>
      </trkpt>
      <trkpt lat="40.242383" lon="-4.917267">
        <ele>2034.0</ele>
        <time>2015-08-02T12:02:41Z</time>
      </trkpt>
      <trkpt lat="40.242333" lon="-4.917317">
        <ele>2033.0</ele>
        <time>2015-08-02T12:02:42Z</time>
      </trkpt>
      <trkpt lat="40.242283" lon="-4.917350">
        <ele>2032.0</ele>
        <time>2015-08-02T12:02:43Z</time>
      </trkpt>
      <trkpt lat="40.242233" lon="-4.917400">
        <ele>2031.0</ele>
        <time>2015-08-02T12:02:44Z</time>
      </trkpt>
      <trkpt lat="40.242183" lon="-4.917450">
        <ele>2028.0</ele>
        <time>2015-08-02T12:02:45Z</time>
      </trkpt>
      <trkpt lat="40.242133" lon="-4.917500">
        <ele>2026.0</ele>
        <time>2015-08-02T12:02:46Z</time>
      </trkpt>
      <trkpt lat="40.242100" lon="-4.917533">
        <ele>2023.0</ele>
        <time>2015-08-02T12:02:47Z</time>
      </trkpt>
      <trkpt lat="40.242050" lon="-4.917583">
        <ele>2020.0</ele>
        <time>2015-08-02T12:02:48Z</time>
      </trkpt>
      <trkpt lat="40.242000" lon="-4.917633">
        <ele>2017.0</ele>
        <time>2015-08-02T12:02:49Z</time>
      </trkpt>
      <trkpt lat="40.241950" lon="-4.917683">
        <ele>2014.0</ele>
        <time>2015-08-02T12:02:50Z</time>
      </trkpt>
      <trkpt lat="40.241883" lon="-4.917717">
        <ele>2012.0</ele>
        <time>2015-08-02T12:02:51Z</time>
      </trkpt>
      <trkpt lat="40.241833" lon="-4.917767">
        <ele>2011.0</ele>
        <time>2015-08-02T12:02:52Z</time>
      </trkpt>
      <trkpt lat="40.241767" lon="-4.917800">
        <ele>2009.0</ele>
        <time>2015-08-02T12:02:53Z</time>
      </trkpt>
      <trkpt lat="40.241717" lon="-4.917817">
        <ele>2007.0</ele>
        <time>2015-08-02T12:02:54Z</time>
      </trkpt>
      <trkpt lat="40.241650" lon="-4.917833">
        <ele>2006.0</ele>
        <time>2015-08-02T12:02:55Z</time>
      </trkpt>
      <trkpt lat="40.241583" lon="-4.917850">
        <ele>2004.0</ele>
        <time>2015-08-02T12:02:56Z</time>
      </trkpt>
      <trkpt lat="40.241517" lon="-4.917883">
        <ele>2003.0</ele>
        <time>2015-08-02T12:02:57Z</time>
      </trkpt>
      <trkpt lat="40.241467" lon="-4.917933">
        <ele>2001.0</ele>
        <time>2015-08-02T12:02:58Z</time>
      </trkpt>
      <trkpt lat="40.241400" lon="-4.917983">
        <ele>2000.0</ele>
        <time>2015-08-02T12:02:59Z</time>
      </trkpt>
      <trkpt lat="40.241333" lon="-4.918033">
        <ele>1999.0</ele>
        <time>2015-08-02T12:03:00Z</time>
      </trkpt>
      <trkpt lat="40.241283" lon="-4.918067">
        <ele>1998.0</ele>
        <time>2015-08-02T12:03:01Z</time>
      </trkpt>
      <trkpt lat="40.241217" lon="-4.918100">
        <ele>1997.0</ele>
        <time>2015-08-02T12:03:02Z</time>
      </trkpt>
      <trkpt lat="40.241150" lon="-4.918117">
        <ele>1996.0</ele>
        <time>2015-08-02T12:03:03Z</time>
      </trkpt>
      <trkpt lat="40.241083" lon="-4.918150">
        <ele>1995.0</ele>
        <time>2015-08-02T12:03:04Z</time>
      </trkpt>
      <trkpt lat="40.241017" lon="-4.918150">
        <ele>1994.0</ele>
        <time>2015-08-02T12:03:05Z</time>
      </trkpt>
      <trkpt lat="40.240950" lon="-4.918167">
        <ele>1994.0</ele>
        <time>2015-08-02T12:03:06Z</time>
      </trkpt>
      <trkpt lat="40.240883" lon="-4.918183">
        <ele>1995.0</ele>
        <time>2015-08-02T12:03:07Z</time>
      </trkpt>
      <trkpt lat="40.240833" lon="-4.918200">
        <ele>1995.0</ele>
        <time>2015-08-02T12:03:08Z</time>
      </trkpt>
      <trkpt lat="40.240783" lon="-4.918217">
        <ele>1994.0</ele>
        <time>2015-08-02T12:03:09Z</time>
      </trkpt>
      <trkpt lat="40.240733" lon="-4.918250">
        <ele>1993.0</ele>
        <time>2015-08-02T12:03:10Z</time>
      </trkpt>
      <trkpt lat="40.240683" lon="-4.918267">
        <ele>1992.0</ele>
        <time>2015-08-02T12:03:11Z</time>
      </trkpt>
      <trkpt lat="40.240617" lon="-4.918283">
        <ele>1990.0</ele>
        <time>2015-08-02T12:03:12Z</time>
      </trkpt>
      <trkpt lat="40.240567" lon="-4.918317">
        <ele>1989.0</ele>
        <time>2015-08-02T12:03:13Z</time>
      </trkpt>
      <trkpt lat="40.240500" lon="-4.918350">
        <ele>1987.0</ele>
        <time>2015-08-02T12:03:14Z</time>
      </trkpt>
      <trkpt lat="40.240450" lon="-4.918383">
        <ele>1986.0</ele>
        <time>2015-08-02T12:03:15Z</time>
      </trkpt>
      <trkpt lat="40.240400" lon="-4.918433">
        <ele>1984.0</ele>
        <time>2015-08-02T12:03:16Z</time>
      </trkpt>
      <trkpt lat="40.240333" lon="-4.918483">
        <ele>1983.0</ele>
        <time>2015-08-02T12:03:17Z</time>
      </trkpt>
      <trkpt lat="40.240283" lon="-4.918550">
        <ele>1981.0</ele>
        <time>2015-08-02T12:03:18Z</time>
      </trkpt>
      <trkpt lat="40.240217" lon="-4.918600">
        <ele>1980.0</ele>
        <time>2015-08-02T12:03:19Z</time>
      </trkpt>
      <trkpt lat="40.240150" lon="-4.918683">
        <ele>1980.0</ele>
        <time>2015-08-02T12:03:20Z</time>
      </trkpt>
      <trkpt lat="40.240083" lon="-4.918750">
        <ele>1980.0</ele>
        <time>2015-08-02T12:03:21Z</time>
      </trkpt>
      <trkpt lat="40.240017" lon="-4.918817">
        <ele>1982.0</ele>
        <time>2015-08-02T12:03:22Z</time>
      </trkpt>
      <trkpt lat="40.239967" lon="-4.918833">
        <ele>1983.0</ele>
        <time>2015-08-02T12:03:23Z</time>
      </trkpt>
      <trkpt lat="40.239900" lon="-4.918850">
        <ele>1985.0</ele>
        <time>2015-08-02T12:03:24Z</time>
      </trkpt>
      <trkpt lat="40.239850" lon="-4.918850">
        <ele>1987.0</ele>
        <time>2015-08-02T12:03:25Z</time>
      </trkpt>
      <trkpt lat="40.239817" lon="-4.918850">
        <ele>1989.0</ele>
        <time>2015-08-02T12:03:26Z</time>
      </trkpt>
      <trkpt lat="40.239767" lon="-4.918867">
        <ele>1991.0</ele>
        <time>2015-08-02T12:03:27Z</time>
      </trkpt>
      <trkpt lat="40.239733" lon="-4.918883">
        <ele>1992.0</ele>
        <time>2015-08-02T12:03:28Z</time>
      </trkpt>
      <trkpt lat="40.239683" lon="-4.918917">
        <ele>1992.0</ele>
        <time>2015-08-02T12:03:29Z</time>
      </trkpt>
      <trkpt lat="40.239667" lon="-4.919000">
        <ele>1992.0</ele>
        <time>2015-08-02T12:03:30Z</time>
      </trkpt>
      <trkpt lat="40.239650" lon="-4.919100">
        <ele>1991.0</ele>
        <time>2015-08-02T12:03:31Z</time>
      </trkpt>
      <trkpt lat="40.239683" lon="-4.919233">
        <ele>1990.0</ele>
        <time>2015-08-02T12:03:32Z</time>
      </trkpt>
      <trkpt lat="40.239833" lon="-4.919417">
        <ele>1989.0</ele>
        <time>2015-08-02T12:03:33Z</time>
      </trkpt>
      <trkpt lat="40.239900" lon="-4.919467">
        <ele>1987.0</ele>
        <time>2015-08-02T12:03:34Z</time>
      </trkpt>
      <trkpt lat="40.240033" lon="-4.919533">
        <ele>1988.0</ele>
        <time>2015-08-02T12:03:35Z</time>
      </trkpt>
      <trkpt lat="40.240233" lon="-4.919517">
        <ele>1990.0</ele>
        <time>2015-08-02T12:03:36Z</time>
      </trkpt>
      <trkpt lat="40.240333" lon="-4.919483">
        <ele>1994.0</ele>
        <time>2015-08-02T12:03:37Z</time>
      </trkpt>
      <trkpt lat="40.240450" lon="-4.919417">
        <ele>1998.0</ele>
        <time>2015-08-02T12:03:38Z</time>
      </trkpt>
      <trkpt lat="40.240550" lon="-4.919350">
        <ele>2002.0</ele>
        <time>2015-08-02T12:03:39Z</time>
      </trkpt>
      <trkpt lat="40.240617" lon="-4.919300">
        <ele>2004.0</ele>
        <time>2015-08-02T12:03:40Z</time>
      </trkpt>
      <trkpt lat="40.240683" lon="-4.919233">
        <ele>2004.0</ele>
        <time>2015-08-02T12:03:41Z</time>
      </trkpt>
      <trkpt lat="40.240750" lon="-4.919150">
        <ele>2003.0</ele>
        <time>2015-08-02T12:03:42Z</time>
      </trkpt>
      <trkpt lat="40.240817" lon="-4.919033">
        <ele>2002.0</ele>
        <time>2015-08-02T12:03:43Z</time>
      </trkpt>
      <trkpt lat="40.240867" lon="-4.918900">
        <ele>2001.0</ele>
        <time>2015-08-02T12:03:44Z</time>
      </trkpt>
      <trkpt lat="40.240883" lon="-4.918767">
        <ele>2001.0</ele>
        <time>2015-08-02T12:03:45Z</time>
      </trkpt>
      <trkpt lat="40.240867" lon="-4.918650">
        <ele>2001.0</ele>
        <time>2015-08-02T12:03:46Z</time>
      </trkpt>
      <trkpt lat="40.240833" lon="-4.918567">
        <ele>2001.0</ele>
        <time>2015-08-02T12:03:47Z</time>
      </trkpt>
      <trkpt lat="40.240767" lon="-4.918517">
        <ele>2001.0</ele>
        <time>2015-08-02T12:03:48Z</time>
      </trkpt>
      <trkpt lat="40.240700" lon="-4.918500">
        <ele>2001.0</ele>
        <time>2015-08-02T12:03:49Z</time>
      </trkpt>
      <trkpt lat="40.240633" lon="-4.918500">
        <ele>2001.0</ele>
        <time>2015-08-02T12:03:50Z</time>
      </trkpt>
      <trkpt lat="40.240567" lon="-4.918567">
        <ele>2002.0</ele>
        <time>2015-08-02T12:03:51Z</time>
      </trkpt>
      <trkpt lat="40.240500" lon="-4.918650">
        <ele>2002.0</ele>
        <time>2015-08-02T12:03:52Z</time>
      </trkpt>
      <trkpt lat="40.240483" lon="-4.918767">
        <ele>2004.0</ele>
        <time>2015-08-02T12:03:53Z</time>
      </trkpt>
      <trkpt lat="40.240483" lon="-4.918883">
        <ele>2006.0</ele>
        <time>2015-08-02T12:03:54Z</time>
      </trkpt>
      <trkpt lat="40.240500" lon="-4.918983">
        <ele>2007.0</ele>
        <time>2015-08-02T12:03:55Z</time>
      </trkpt>
      <trkpt lat="40.240533" lon="-4.919100">
        <ele>2008.0</ele>
        <time>2015-08-02T12:03:56Z</time>
      </trkpt>
      <trkpt lat="40.240600" lon="-4.919200">
        <ele>2008.0</ele>
        <time>2015-08-02T12:03:57Z</time>
      </trkpt>
      <trkpt lat="40.240700" lon="-4.919317">
        <ele>2007.0</ele>
        <time>2015-08-02T12:03:58Z</time>
      </trkpt>
      <trkpt lat="40.240800" lon="-4.919400">
        <ele>2007.0</ele>
        <time>2015-08-02T12:03:59Z</time>
      </trkpt>
      <trkpt lat="40.240933" lon="-4.919450">
        <ele>2007.0</ele>
        <time>2015-08-02T12:04:00Z</time>
      </trkpt>
      <trkpt lat="40.241067" lon="-4.919467">
        <ele>2008.0</ele>
        <time>2015-08-02T12:04:01Z</time>
      </trkpt>
      <trkpt lat="40.241200" lon="-4.919467">
        <ele>2009.0</ele>
        <time>2015-08-02T12:04:02Z</time>
      </trkpt>
      <trkpt lat="40.241317" lon="-4.919467">
        <ele>2013.0</ele>
        <time>2015-08-02T12:04:03Z</time>
      </trkpt>
      <trkpt lat="40.241433" lon="-4.919450">
        <ele>2017.0</ele>
        <time>2015-08-02T12:04:04Z</time>
      </trkpt>
      <trkpt lat="40.241550" lon="-4.919467">
        <ele>2019.0</ele>
        <time>2015-08-02T12:04:05Z</time>
      </trkpt>
      <trkpt lat="40.241650" lon="-4.919500">
        <ele>2019.0</ele>
        <time>2015-08-02T12:04:06Z</time>
      </trkpt>
      <trkpt lat="40.241767" lon="-4.919533">
        <ele>2020.0</ele>
        <time>2015-08-02T12:04:07Z</time>
      </trkpt>
      <trkpt lat="40.241883" lon="-4.919567">
        <ele>2021.0</ele>
        <time>2015-08-02T12:04:08Z</time>
      </trkpt>
      <trkpt lat="40.242017" lon="-4.919550">
        <ele>2022.0</ele>
        <time>2015-08-02T12:04:09Z</time>
      </trkpt>
      <trkpt lat="40.242133" lon="-4.919483">
        <ele>2022.0</ele>
        <time>2015-08-02T12:04:10Z</time>
      </trkpt>
      <trkpt lat="40.242217" lon="-4.919383">
        <ele>2022.0</ele>
        <time>2015-08-02T12:04:11Z</time>
      </trkpt>
      <trkpt lat="40.242267" lon="-4.919233">
        <ele>2022.0</ele>
        <time>2015-08-02T12:04:12Z</time>
      </trkpt>
      <trkpt lat="40.242300" lon="-4.919100">
        <ele>2021.0</ele>
        <time>2015-08-02T12:04:13Z</time>
      </trkpt>
      <trkpt lat="40.242283" lon="-4.918967">
        <ele>2020.0</ele>
        <time>2015-08-02T12:04:14Z</time>
      </trkpt>
      <trkpt lat="40.242233" lon="-4.918883">
        <ele>2019.0</ele>
        <time>2015-08-02T12:04:15Z</time>
      </trkpt>
      <trkpt lat="40.242167" lon="-4.918833">
        <ele>2019.0</ele>
        <time>2015-08-02T12:04:16Z</time>
      </trkpt>
      <trkpt lat="40.242100" lon="-4.918833">
        <ele>2019.0</ele>
        <time>2015-08-02T12:04:17Z</time>
      </trkpt>
      <trkpt lat="40.242050" lon="-4.918850">
        <ele>2020.0</ele>
        <time>2015-08-02T12:04:18Z</time>
      </trkpt>
      <trkpt lat="40.242000" lon="-4.918917">
        <ele>2019.0</ele>
        <time>2015-08-02T12:04:19Z</time>
      </trkpt>
      <trkpt lat="40.241950" lon="-4.919017">
        <ele>2019.0</ele>
        <time>2015-08-02T12:04:20Z</time>
      </trkpt>
      <trkpt lat="40.241933" lon="-4.919133">
        <ele>2019.0</ele>
        <time>2015-08-02T12:04:21Z</time>
      </trkpt>
      <trkpt lat="40.241917" lon="-4.919250">
        <ele>2019.0</ele>
        <time>2015-08-02T12:04:22Z</time>
      </trkpt>
      <trkpt lat="40.241933" lon="-4.919383">
        <ele>2019.0</ele>
        <time>2015-08-02T12:04:23Z</time>
      </trkpt>
      <trkpt lat="40.241983" lon="-4.919517">
        <ele>2019.0</ele>
        <time>2015-08-02T12:04:24Z</time>
      </trkpt>
      <trkpt lat="40.242067" lon="-4.919633">
        <ele>2018.0</ele>
        <time>2015-08-02T12:04:25Z</time>
      </trkpt>
      <trkpt lat="40.242200" lon="-4.919717">
        <ele>2017.0</ele>
        <time>2015-08-02T12:04:26Z</time>
      </trkpt>
      <trkpt lat="40.242400" lon="-4.919800">
        <ele>2017.0</ele>
        <time>2015-08-02T12:04:27Z</time>
      </trkpt>
      <trkpt lat="40.242517" lon="-4.919833">
        <ele>2019.0</ele>
        <time>2015-08-02T12:04:28Z</time>
      </trkpt>
      <trkpt lat="40.242667" lon="-4.919817">
        <ele>2022.0</ele>
        <time>2015-08-02T12:04:29Z</time>
      </trkpt>
      <trkpt lat="40.242817" lon="-4.919783">
        <ele>2025.0</ele>
        <time>2015-08-02T12:04:30Z</time>
      </trkpt>
      <trkpt lat="40.242950" lon="-4.919750">
        <ele>2028.0</ele>
        <time>2015-08-02T12:04:31Z</time>
      </trkpt>
      <trkpt lat="40.243067" lon="-4.919700">
        <ele>2031.0</ele>
        <time>2015-08-02T12:04:32Z</time>
      </trkpt>
      <trkpt lat="40.243200" lon="-4.919683">
        <ele>2033.0</ele>
        <time>2015-08-02T12:04:33Z</time>
      </trkpt>
      <trkpt lat="40.243333" lon="-4.919667">
        <ele>2035.0</ele>
        <time>2015-08-02T12:04:34Z</time>
      </trkpt>
      <trkpt lat="40.243450" lon="-4.919633">
        <ele>2036.0</ele>
        <time>2015-08-02T12:04:35Z</time>
      </trkpt>
      <trkpt lat="40.243550" lon="-4.919600">
        <ele>2037.0</ele>
        <time>2015-08-02T12:04:36Z</time>
      </trkpt>
      <trkpt lat="40.243650" lon="-4.919550">
        <ele>2036.0</ele>
        <time>2015-08-02T12:04:37Z</time>
      </trkpt>
      <trkpt lat="40.243733" lon="-4.919483">
        <ele>2033.0</ele>
        <time>2015-08-02T12:04:38Z</time>
      </trkpt>
      <trkpt lat="40.243817" lon="-4.919367">
        <ele>2029.0</ele>
        <time>2015-08-02T12:04:39Z</time>
      </trkpt>
      <trkpt lat="40.243867" lon="-4.919233">
        <ele>2027.0</ele>
        <time>2015-08-02T12:04:40Z</time>
      </trkpt>
      <trkpt lat="40.243900" lon="-4.919083">
        <ele>2025.0</ele>
        <time>2015-08-02T12:04:41Z</time>
      </trkpt>
      <trkpt lat="40.243883" lon="-4.918950">
        <ele>2024.0</ele>
        <time>2015-08-02T12:04:42Z</time>
      </trkpt>
      <trkpt lat="40.243833" lon="-4.918867">
        <ele>2022.0</ele>
        <time>2015-08-02T12:04:43Z</time>
      </trkpt>
      <trkpt lat="40.243750" lon="-4.918833">
        <ele>2021.0</ele>
        <time>2015-08-02T12:04:44Z</time>
      </trkpt>
      <trkpt lat="40.243683" lon="-4.918833">
        <ele>2020.0</ele>
        <time>2015-08-02T12:04:45Z</time>
      </trkpt>
      <trkpt lat="40.243633" lon="-4.918900">
        <ele>2019.0</ele>
        <time>2015-08-02T12:04:46Z</time>
      </trkpt>
      <trkpt lat="40.243583" lon="-4.919000">
        <ele>2018.0</ele>
        <time>2015-08-02T12:04:47Z</time>
      </trkpt>
      <trkpt lat="40.243567" lon="-4.919133">
        <ele>2017.0</ele>
        <time>2015-08-02T12:04:48Z</time>
      </trkpt>
      <trkpt lat="40.243583" lon="-4.919283">
        <ele>2017.0</ele>
        <time>2015-08-02T12:04:49Z</time>
      </trkpt>
      <trkpt lat="40.243617" lon="-4.919417">
        <ele>2018.0</ele>
        <time>2015-08-02T12:04:50Z</time>
      </trkpt>
      <trkpt lat="40.243667" lon="-4.919533">
        <ele>2019.0</ele>
        <time>2015-08-02T12:04:51Z</time>
      </trkpt>
      <trkpt lat="40.243717" lon="-4.919650">
        <ele>2019.0</ele>
        <time>2015-08-02T12:04:52Z</time>
      </trkpt>
      <trkpt lat="40.243783" lon="-4.919767">
        <ele>2019.0</ele>
        <time>2015-08-02T12:04:53Z</time>
      </trkpt>
      <trkpt lat="40.243883" lon="-4.919900">
        <ele>2019.0</ele>
        <time>2015-08-02T12:04:54Z</time>
      </trkpt>
      <trkpt lat="40.243983" lon="-4.920017">
        <ele>2019.0</ele>
        <time>2015-08-02T12:04:55Z</time>
      </trkpt>
      <trkpt lat="40.244083" lon="-4.920117">
        <ele>2021.0</ele>
        <time>2015-08-02T12:04:56Z</time>
      </trkpt>
      <trkpt lat="40.244183" lon="-4.920217">
        <ele>2021.0</ele>
        <time>2015-08-02T12:04:57Z</time>
      </trkpt>
      <trkpt lat="40.244267" lon="-4.920300">
        <ele>2021.0</ele>
        <time>2015-08-02T12:04:58Z</time>
      </trkpt>
      <trkpt lat="40.244350" lon="-4.920367">
        <ele>2020.0</ele>
        <time>2015-08-02T12:04:59Z</time>
      </trkpt>
      <trkpt lat="40.244450" lon="-4.920417">
        <ele>2018.0</ele>
        <time>2015-08-02T12:05:00Z</time>
      </trkpt>
      <trkpt lat="40.244567" lon="-4.920450">
        <ele>2015.0</ele>
        <time>2015-08-02T12:05:01Z</time>
      </trkpt>
      <trkpt lat="40.244700" lon="-4.920450">
        <ele>2013.0</ele>
        <time>2015-08-02T12:05:02Z</time>
      </trkpt>
      <trkpt lat="40.244833" lon="-4.920433">
        <ele>2011.0</ele>
        <time>2015-08-02T12:05:03Z</time>
      </trkpt>
      <trkpt lat="40.244967" lon="-4.920400">
        <ele>2010.0</ele>
        <time>2015-08-02T12:05:04Z</time>
      </trkpt>
      <trkpt lat="40.245083" lon="-4.920350">
        <ele>2010.0</ele>
        <time>2015-08-02T12:05:05Z</time>
      </trkpt>
      <trkpt lat="40.245200" lon="-4.920317">
        <ele>2009.0</ele>
        <time>2015-08-02T12:05:06Z</time>
      </trkpt>
      <trkpt lat="40.245317" lon="-4.920283">
        <ele>2008.0</ele>
        <time>2015-08-02T12:05:07Z</time>
      </trkpt>
      <trkpt lat="40.245433" lon="-4.920233">
        <ele>2007.0</ele>
        <time>2015-08-02T12:05:08Z</time>
      </trkpt>
      <trkpt lat="40.245533" lon="-4.920167">
        <ele>2005.0</ele>
        <time>2015-08-02T12:05:09Z</time>
      </trkpt>
      <trkpt lat="40.245633" lon="-4.920067">
        <ele>2002.0</ele>
        <time>2015-08-02T12:05:10Z</time>
      </trkpt>
      <trkpt lat="40.245733" lon="-4.919933">
        <ele>1999.0</ele>
        <time>2015-08-02T12:05:11Z</time>
      </trkpt>
      <trkpt lat="40.245833" lon="-4.919800">
        <ele>1997.0</ele>
        <time>2015-08-02T12:05:12Z</time>
      </trkpt>
      <trkpt lat="40.245917" lon="-4.919683">
        <ele>1997.0</ele>
        <time>2015-08-02T12:05:13Z</time>
      </trkpt>
      <trkpt lat="40.246000" lon="-4.919567">
        <ele>1996.0</ele>
        <time>2015-08-02T12:05:14Z</time>
      </trkpt>
      <trkpt lat="40.246083" lon="-4.919450">
        <ele>1995.0</ele>
        <time>2015-08-02T12:05:15Z</time>
      </trkpt>
      <trkpt lat="40.246167" lon="-4.919350">
        <ele>1993.0</ele>
        <time>2015-08-02T12:05:16Z</time>
      </trkpt>
      <trkpt lat="40.246267" lon="-4.919233">
        <ele>1990.0</ele>
        <time>2015-08-02T12:05:17Z</time>
      </trkpt>
      <trkpt lat="40.246367" lon="-4.919133">
        <ele>1988.0</ele>
        <time>2015-08-02T12:05:18Z</time>
      </trkpt>
      <trkpt lat="40.246483" lon="-4.919017">
        <ele>1986.0</ele>
        <time>2015-08-02T12:05:19Z</time>
      </trkpt>
      <trkpt lat="40.246583" lon="-4.918917">
        <ele>1985.0</ele>
        <time>2015-08-02T12:05:20Z</time>
      </trkpt>
      <trkpt lat="40.246700" lon="-4.918800">
        <ele>1984.0</ele>
        <time>2015-08-02T12:05:21Z</time>
      </trkpt>
      <trkpt lat="40.246800" lon="-4.918700">
        <ele>1983.0</ele>
        <time>2015-08-02T12:05:22Z</time>
      </trkpt>
      <trkpt lat="40.246900" lon="-4.918617">
        <ele>1982.0</ele>
        <time>2015-08-02T12:05:23Z</time>
      </trkpt>
      <trkpt lat="40.247017" lon="-4.918517">
        <ele>1982.0</ele>
        <time>2015-08-02T12:05:24Z</time>
      </trkpt>
      <trkpt lat="40.247133" lon="-4.918417">
        <ele>1981.0</ele>
        <time>2015-08-02T12:05:25Z</time>
      </trkpt>
      <trkpt lat="40.247250" lon="-4.918333">
        <ele>1979.0</ele>
        <time>2015-08-02T12:05:26Z</time>
      </trkpt>
      <trkpt lat="40.247367" lon="-4.918233">
        <ele>1978.0</ele>
        <time>2015-08-02T12:05:27Z</time>
      </trkpt>
      <trkpt lat="40.247500" lon="-4.918133">
        <ele>1976.0</ele>
        <time>2015-08-02T12:05:28Z</time>
      </trkpt>
      <trkpt lat="40.247617" lon="-4.918033">
        <ele>1974.0</ele>
        <time>2015-08-02T12:05:29Z</time>
      </trkpt>
      <trkpt lat="40.247733" lon="-4.917950">
        <ele>1972.0</ele>
        <time>2015-08-02T12:05:30Z</time>
      </trkpt>
      <trkpt lat="40.247850" lon="-4.917850">
        <ele>1969.0</ele>
        <time>2015-08-02T12:05:31Z</time>
      </trkpt>
      <trkpt lat="40.247967" lon="-4.917750">
        <ele>1967.0</ele>
        <time>2015-08-02T12:05:32Z</time>
      </trkpt>
      <trkpt lat="40.248100" lon="-4.917633">
        <ele>1965.0</ele>
        <time>2015-08-02T12:05:33Z</time>
      </trkpt>
      <trkpt lat="40.248217" lon="-4.917533">
        <ele>1962.0</ele>
        <time>2015-08-02T12:05:34Z</time>
      </trkpt>
      <trkpt lat="40.248333" lon="-4.917433">
        <ele>1961.0</ele>
        <time>2015-08-02T12:05:35Z</time>
      </trkpt>
      <trkpt lat="40.248467" lon="-4.917350">
        <ele>1959.0</ele>
        <time>2015-08-02T12:05:36Z</time>
      </trkpt>
      <trkpt lat="40.248583" lon="-4.917267">
        <ele>1956.0</ele>
        <time>2015-08-02T12:05:37Z</time>
      </trkpt>
      <trkpt lat="40.248700" lon="-4.917167">
        <ele>1954.0</ele>
        <time>2015-08-02T12:05:38Z</time>
      </trkpt>
      <trkpt lat="40.248817" lon="-4.917083">
        <ele>1951.0</ele>
        <time>2015-08-02T12:05:39Z</time>
      </trkpt>
      <trkpt lat="40.248917" lon="-4.916983">
        <ele>1948.0</ele>
        <time>2015-08-02T12:05:40Z</time>
      </trkpt>
      <trkpt lat="40.249033" lon="-4.916867">
        <ele>1944.0</ele>
        <time>2015-08-02T12:05:41Z</time>
      </trkpt>
      <trkpt lat="40.249150" lon="-4.916750">
        <ele>1942.0</ele>
        <time>2015-08-02T12:05:42Z</time>
      </trkpt>
      <trkpt lat="40.249267" lon="-4.916633">
        <ele>1939.0</ele>
        <time>2015-08-02T12:05:43Z</time>
      </trkpt>
      <trkpt lat="40.249383" lon="-4.916533">
        <ele>1937.0</ele>
        <time>2015-08-02T12:05:44Z</time>
      </trkpt>
      <trkpt lat="40.249500" lon="-4.916433">
        <ele>1935.0</ele>
        <time>2015-08-02T12:05:45Z</time>
      </trkpt>
      <trkpt lat="40.249617" lon="-4.916333">
        <ele>1934.0</ele>
        <time>2015-08-02T12:05:46Z</time>
      </trkpt>
      <trkpt lat="40.249717" lon="-4.916217">
        <ele>1932.0</ele>
        <time>2015-08-02T12:05:47Z</time>
      </trkpt>
      <trkpt lat="40.249817" lon="-4.916100">
        <ele>1931.0</ele>
        <time>2015-08-02T12:05:48Z</time>
      </trkpt>
      <trkpt lat="40.249917" lon="-4.916000">
        <ele>1930.0</ele>
        <time>2015-08-02T12:05:49Z</time>
      </trkpt>
      <trkpt lat="40.250017" lon="-4.915900">
        <ele>1929.0</ele>
        <time>2015-08-02T12:05:50Z</time>
      </trkpt>
      <trkpt lat="40.250133" lon="-4.915800">
        <ele>1927.0</ele>
        <time>2015-08-02T12:05:51Z</time>
      </trkpt>
      <trkpt lat="40.250233" lon="-4.915717">
        <ele>1925.0</ele>
        <time>2015-08-02T12:05:52Z</time>
      </trkpt>
      <trkpt lat="40.250367" lon="-4.915633">
        <ele>1922.0</ele>
        <time>2015-08-02T12:05:53Z</time>
      </trkpt>
      <trkpt lat="40.250500" lon="-4.915550">
        <ele>1919.0</ele>
        <time>2015-08-02T12:05:54Z</time>
      </trkpt>
      <trkpt lat="40.250650" lon="-4.915467">
        <ele>1916.0</ele>
        <time>2015-08-02T12:05:55Z</time>
      </trkpt>
      <trkpt lat="40.250783" lon="-4.915400">
        <ele>1914.0</ele>
        <time>2015-08-02T12:05:56Z</time>
      </trkpt>
      <trkpt lat="40.250933" lon="-4.915317">
        <ele>1912.0</ele>
        <time>2015-08-02T12:05:57Z</time>
      </trkpt>
      <trkpt lat="40.251067" lon="-4.915233">
        <ele>1910.0</ele>
        <time>2015-08-02T12:05:58Z</time>
      </trkpt>
      <trkpt lat="40.251200" lon="-4.915150">
        <ele>1908.0</ele>
        <time>2015-08-02T12:05:59Z</time>
      </trkpt>
      <trkpt lat="40.251333" lon="-4.915050">
        <ele>1906.0</ele>
        <time>2015-08-02T12:06:00Z</time>
      </trkpt>
      <trkpt lat="40.251467" lon="-4.914967">
        <ele>1905.0</ele>
        <time>2015-08-02T12:06:01Z</time>
      </trkpt>
      <trkpt lat="40.251600" lon="-4.914883">
        <ele>1904.0</ele>
        <time>2015-08-02T12:06:02Z</time>
      </trkpt>
      <trkpt lat="40.251717" lon="-4.914800">
        <ele>1903.0</ele>
        <time>2015-08-02T12:06:03Z</time>
      </trkpt>
      <trkpt lat="40.251833" lon="-4.914717">
        <ele>1901.0</ele>
        <time>2015-08-02T12:06:04Z</time>
      </trkpt>
      <trkpt lat="40.251967" lon="-4.914633">
        <ele>1898.0</ele>
        <time>2015-08-02T12:06:05Z</time>
      </trkpt>
      <trkpt lat="40.252083" lon="-4.914533">
        <ele>1896.0</ele>
        <time>2015-08-02T12:06:06Z</time>
      </trkpt>
      <trkpt lat="40.252217" lon="-4.914450">
        <ele>1893.0</ele>
        <time>2015-08-02T12:06:07Z</time>
      </trkpt>
      <trkpt lat="40.252350" lon="-4.914367">
        <ele>1890.0</ele>
        <time>2015-08-02T12:06:08Z</time>
      </trkpt>
      <trkpt lat="40.252500" lon="-4.914283">
        <ele>1887.0</ele>
        <time>2015-08-02T12:06:09Z</time>
      </trkpt>
      <trkpt lat="40.252650" lon="-4.914200">
        <ele>1884.0</ele>
        <time>2015-08-02T12:06:10Z</time>
      </trkpt>
      <trkpt lat="40.252783" lon="-4.914117">
        <ele>1880.0</ele>
        <time>2015-08-02T12:06:11Z</time>
      </trkpt>
      <trkpt lat="40.252933" lon="-4.914017">
        <ele>1877.0</ele>
        <time>2015-08-02T12:06:12Z</time>
      </trkpt>
      <trkpt lat="40.253067" lon="-4.913933">
        <ele>1875.0</ele>
        <time>2015-08-02T12:06:13Z</time>
      </trkpt>
      <trkpt lat="40.253200" lon="-4.913833">
        <ele>1872.0</ele>
        <time>2015-08-02T12:06:14Z</time>
      </trkpt>
      <trkpt lat="40.253333" lon="-4.913750">
        <ele>1869.0</ele>
        <time>2015-08-02T12:06:15Z</time>
      </trkpt>
      <trkpt lat="40.253450" lon="-4.913650">
        <ele>1867.0</ele>
        <time>2015-08-02T12:06:16Z</time>
      </trkpt>
      <trkpt lat="40.253567" lon="-4.913567">
        <ele>1864.0</ele>
        <time>2015-08-02T12:06:17Z</time>
      </trkpt>
      <trkpt lat="40.253683" lon="-4.913467">
        <ele>1861.0</ele>
        <time>2015-08-02T12:06:18Z</time>
      </trkpt>
      <trkpt lat="40.253817" lon="-4.913400">
        <ele>1858.0</ele>
        <time>2015-08-02T12:06:19Z</time>
      </trkpt>
      <trkpt lat="40.253967" lon="-4.913333">
        <ele>1855.0</ele>
        <time>2015-08-02T12:06:20Z</time>
      </trkpt>
      <trkpt lat="40.254100" lon="-4.913267">
        <ele>1852.0</ele>
        <time>2015-08-02T12:06:21Z</time>
      </trkpt>
      <trkpt lat="40.254250" lon="-4.913200">
        <ele>1850.0</ele>
        <time>2015-08-02T12:06:22Z</time>
      </trkpt>
      <trkpt lat="40.254400" lon="-4.913133">
        <ele>1850.0</ele>
        <time>2015-08-02T12:06:23Z</time>
      </trkpt>
      <trkpt lat="40.254517" lon="-4.913083">
        <ele>1849.0</ele>
        <time>2015-08-02T12:06:24Z</time>
      </trkpt>
      <trkpt lat="40.254650" lon="-4.913050">
        <ele>1847.0</ele>
        <time>2015-08-02T12:06:25Z</time>
      </trkpt>
      <trkpt lat="40.254783" lon="-4.913033">
        <ele>1844.0</ele>
        <time>2015-08-02T12:06:26Z</time>
      </trkpt>
      <trkpt lat="40.254917" lon="-4.913017">
        <ele>1841.0</ele>
        <time>2015-08-02T12:06:27Z</time>
      </trkpt>
      <trkpt lat="40.255050" lon="-4.912983">
        <ele>1838.0</ele>
        <time>2015-08-02T12:06:28Z</time>
      </trkpt>
      <trkpt lat="40.255183" lon="-4.912967">
        <ele>1836.0</ele>
        <time>2015-08-02T12:06:29Z</time>
      </trkpt>
      <trkpt lat="40.255333" lon="-4.912933">
        <ele>1834.0</ele>
        <time>2015-08-02T12:06:30Z</time>
      </trkpt>
      <trkpt lat="40.255467" lon="-4.912917">
        <ele>1833.0</ele>
        <time>2015-08-02T12:06:31Z</time>
      </trkpt>
      <trkpt lat="40.255600" lon="-4.912917">
        <ele>1832.0</ele>
        <time>2015-08-02T12:06:32Z</time>
      </trkpt>
      <trkpt lat="40.255750" lon="-4.912900">
        <ele>1830.0</ele>
        <time>2015-08-02T12:06:33Z</time>
      </trkpt>
      <trkpt lat="40.255900" lon="-4.912900">
        <ele>1829.0</ele>
        <time>2015-08-02T12:06:34Z</time>
      </trkpt>
      <trkpt lat="40.256033" lon="-4.912883">
        <ele>1828.0</ele>
        <time>2015-08-02T12:06:35Z</time>
      </trkpt>
      <trkpt lat="40.256167" lon="-4.912867">
        <ele>1827.0</ele>
        <time>2015-08-02T12:06:36Z</time>
      </trkpt>
      <trkpt lat="40.256300" lon="-4.912833">
        <ele>1826.0</ele>
        <time>2015-08-02T12:06:37Z</time>
      </trkpt>
      <trkpt lat="40.256417" lon="-4.912817">
        <ele>1824.0</ele>
        <time>2015-08-02T12:06:38Z</time>
      </trkpt>
      <trkpt lat="40.256550" lon="-4.912817">
        <ele>1822.0</ele>
        <time>2015-08-02T12:06:39Z</time>
      </trkpt>
      <trkpt lat="40.256683" lon="-4.912800">
        <ele>1819.0</ele>
        <time>2015-08-02T12:06:40Z</time>
      </trkpt>
      <trkpt lat="40.256833" lon="-4.912783">
        <ele>1817.0</ele>
        <time>2015-08-02T12:06:41Z</time>
      </trkpt>
      <trkpt lat="40.256967" lon="-4.912767">
        <ele>1816.0</ele>
        <time>2015-08-02T12:06:42Z</time>
      </trkpt>
      <trkpt lat="40.257083" lon="-4.912733">
        <ele>1814.0</ele>
        <time>2015-08-02T12:06:43Z</time>
      </trkpt>
      <trkpt lat="40.257217" lon="-4.912700">
        <ele>1812.0</ele>
        <time>2015-08-02T12:06:44Z</time>
      </trkpt>
      <trkpt lat="40.257333" lon="-4.912667">
        <ele>1810.0</ele>
        <time>2015-08-02T12:06:45Z</time>
      </trkpt>
      <trkpt lat="40.257467" lon="-4.912633">
        <ele>1807.0</ele>
        <time>2015-08-02T12:06:46Z</time>
      </trkpt>
      <trkpt lat="40.257600" lon="-4.912600">
        <ele>1804.0</ele>
        <time>2015-08-02T12:06:47Z</time>
      </trkpt>
      <trkpt lat="40.257733" lon="-4.912550">
        <ele>1801.0</ele>
        <time>2015-08-02T12:06:48Z</time>
      </trkpt>
      <trkpt lat="40.257867" lon="-4.912500">
        <ele>1799.0</ele>
        <time>2015-08-02T12:06:49Z</time>
      </trkpt>
      <trkpt lat="40.258000" lon="-4.912450">
        <ele>1796.0</ele>
        <time>2015-08-02T12:06:50Z</time>
      </trkpt>
      <trkpt lat="40.258133" lon="-4.912400">
        <ele>1794.0</ele>
        <time>2015-08-02T12:06:51Z</time>
      </trkpt>
      <trkpt lat="40.258267" lon="-4.912350">
        <ele>1792.0</ele>
        <time>2015-08-02T12:06:52Z</time>
      </trkpt>
      <trkpt lat="40.258400" lon="-4.912317">
        <ele>1790.0</ele>
        <time>2015-08-02T12:06:53Z</time>
      </trkpt>
      <trkpt lat="40.258533" lon="-4.912267">
        <ele>1788.0</ele>
        <time>2015-08-02T12:06:54Z</time>
      </trkpt>
      <trkpt lat="40.258650" lon="-4.912217">
        <ele>1786.0</ele>
        <time>2015-08-02T12:06:55Z</time>
      </trkpt>
      <trkpt lat="40.258783" lon="-4.912167">
        <ele>1784.0</ele>
        <time>2015-08-02T12:06:56Z</time>
      </trkpt>
      <trkpt lat="40.258900" lon="-4.912100">
        <ele>1782.0</ele>
        <time>2015-08-02T12:06:57Z</time>
      </trkpt>
      <trkpt lat="40.259033" lon="-4.912050">
        <ele>1779.0</ele>
        <time>2015-08-02T12:06:58Z</time>
      </trkpt>
      <trkpt lat="40.259167" lon="-4.911983">
        <ele>1777.0</ele>
        <time>2015-08-02T12:06:59Z</time>
      </trkpt>
      <trkpt lat="40.259300" lon="-4.911917">
        <ele>1775.0</ele>
        <time>2015-08-02T12:07:00Z</time>
      </trkpt>
      <trkpt lat="40.259433" lon="-4.911833">
        <ele>1774.0</ele>
        <time>2015-08-02T12:07:01Z</time>
      </trkpt>
      <trkpt lat="40.259550" lon="-4.911700">
        <ele>1773.0</ele>
        <time>2015-08-02T12:07:02Z</time>
      </trkpt>
      <trkpt lat="40.259650" lon="-4.911550">
        <ele>1771.0</ele>
        <time>2015-08-02T12:07:03Z</time>
      </trkpt>
      <trkpt lat="40.259733" lon="-4.911383">
        <ele>1770.0</ele>
        <time>2015-08-02T12:07:04Z</time>
      </trkpt>
      <trkpt lat="40.259800" lon="-4.911217">
        <ele>1770.0</ele>
        <time>2015-08-02T12:07:05Z</time>
      </trkpt>
      <trkpt lat="40.259833" lon="-4.911033">
        <ele>1770.0</ele>
        <time>2015-08-02T12:07:06Z</time>
      </trkpt>
      <trkpt lat="40.259867" lon="-4.910883">
        <ele>1769.0</ele>
        <time>2015-08-02T12:07:07Z</time>
      </trkpt>
      <trkpt lat="40.259850" lon="-4.910717">
        <ele>1769.0</ele>
        <time>2015-08-02T12:07:08Z</time>
      </trkpt>
      <trkpt lat="40.259833" lon="-4.910583">
        <ele>1768.0</ele>
        <time>2015-08-02T12:07:09Z</time>
      </trkpt>
      <trkpt lat="40.259800" lon="-4.910450">
        <ele>1767.0</ele>
        <time>2015-08-02T12:07:10Z</time>
      </trkpt>
      <trkpt lat="40.259767" lon="-4.910367">
        <ele>1766.0</ele>
        <time>2015-08-02T12:07:11Z</time>
      </trkpt>
      <trkpt lat="40.259717" lon="-4.910283">
        <ele>1765.0</ele>
        <time>2015-08-02T12:07:12Z</time>
      </trkpt>
      <trkpt lat="40.259683" lon="-4.910217">
        <ele>1764.0</ele>
        <time>2015-08-02T12:07:13Z</time>
      </trkpt>
      <trkpt lat="40.259650" lon="-4.910167">
        <ele>1763.0</ele>
        <time>2015-08-02T12:07:14Z</time>
      </trkpt>
      <trkpt lat="40.259617" lon="-4.910117">
        <ele>1761.0</ele>
        <time>2015-08-02T12:07:15Z</time>
      </trkpt>
      <trkpt lat="40.259567" lon="-4.910050">
        <ele>1758.0</ele>
        <time>2015-08-02T12:07:16Z</time>
      </trkpt>
      <trkpt lat="40.259517" lon="-4.910000">
        <ele>1756.0</ele>
        <time>2015-08-02T12:07:17Z</time>
      </trkpt>
      <trkpt lat="40.259467" lon="-4.909950">
        <ele>1752.0</ele>
        <time>2015-08-02T12:07:18Z</time>
      </trkpt>
      <trkpt lat="40.259400" lon="-4.909917">
        <ele>1749.0</ele>
        <time>2015-08-02T12:07:19Z</time>
      </trkpt>
      <trkpt lat="40.259333" lon="-4.909867">
        <ele>1747.0</ele>
        <time>2015-08-02T12:07:20Z</time>
      </trkpt>
      <trkpt lat="40.259267" lon="-4.909833">
        <ele>1745.0</ele>
        <time>2015-08-02T12:07:21Z</time>
      </trkpt>
      <trkpt lat="40.259217" lon="-4.909800">
        <ele>1743.0</ele>
        <time>2015-08-02T12:07:22Z</time>
      </trkpt>
      <trkpt lat="40.259167" lon="-4.909750">
        <ele>1741.0</ele>
        <time>2015-08-02T12:07:23Z</time>
      </trkpt>
      <trkpt lat="40.259100" lon="-4.909717">
        <ele>1739.0</ele>
        <time>2015-08-02T12:07:24Z</time>
      </trkpt>
      <trkpt lat="40.259050" lon="-4.909683">
        <ele>1736.0</ele>
        <time>2015-08-02T12:07:25Z</time>
      </trkpt>
      <trkpt lat="40.258983" lon="-4.909650">
        <ele>1734.0</ele>
        <time>2015-08-02T12:07:26Z</time>
      </trkpt>
      <trkpt lat="40.258933" lon="-4.909617">
        <ele>1731.0</ele>
        <time>2015-08-02T12:07:27Z</time>
      </trkpt>
      <trkpt lat="40.258867" lon="-4.909583">
        <ele>1729.0</ele>
        <time>2015-08-02T12:07:28Z</time>
      </trkpt>
      <trkpt lat="40.258800" lon="-4.909533">
        <ele>1726.0</ele>
        <time>2015-08-02T12:07:29Z</time>
      </trkpt>
      <trkpt lat="40.258733" lon="-4.909483">
        <ele>1723.0</ele>
        <time>2015-08-02T12:07:30Z</time>
      </trkpt>
      <trkpt lat="40.258683" lon="-4.909433">
        <ele>1720.0</ele>
        <time>2015-08-02T12:07:31Z</time>
      </trkpt>
      <trkpt lat="40.258617" lon="-4.909367">
        <ele>1718.0</ele>
        <time>2015-08-02T12:07:32Z</time>
      </trkpt>
      <trkpt lat="40.258567" lon="-4.909300">
        <ele>1715.0</ele>
        <time>2015-08-02T12:07:33Z</time>
      </trkpt>
      <trkpt lat="40.258500" lon="-4.909250">
        <ele>1711.0</ele>
        <time>2015-08-02T12:07:34Z</time>
      </trkpt>
      <trkpt lat="40.258417" lon="-4.909217">
        <ele>1708.0</ele>
        <time>2015-08-02T12:07:35Z</time>
      </trkpt>
      <trkpt lat="40.258350" lon="-4.909200">
        <ele>1706.0</ele>
        <time>2015-08-02T12:07:36Z</time>
      </trkpt>
      <trkpt lat="40.258267" lon="-4.909167">
        <ele>1704.0</ele>
        <time>2015-08-02T12:07:37Z</time>
      </trkpt>
      <trkpt lat="40.258200" lon="-4.909117">
        <ele>1702.0</ele>
        <time>2015-08-02T12:07:38Z</time>
      </trkpt>
      <trkpt lat="40.258117" lon="-4.909050">
        <ele>1701.0</ele>
        <time>2015-08-02T12:07:39Z</time>
      </trkpt>
      <trkpt lat="40.258050" lon="-4.909000">
        <ele>1700.0</ele>
        <time>2015-08-02T12:07:40Z</time>
      </trkpt>
      <trkpt lat="40.257983" lon="-4.908950">
        <ele>1698.0</ele>
        <time>2015-08-02T12:07:41Z</time>
      </trkpt>
      <trkpt lat="40.257917" lon="-4.908917">
        <ele>1695.0</ele>
        <time>2015-08-02T12:07:42Z</time>
      </trkpt>
      <trkpt lat="40.257850" lon="-4.908867">
        <ele>1692.0</ele>
        <time>2015-08-02T12:07:43Z</time>
      </trkpt>
      <trkpt lat="40.257767" lon="-4.908850">
        <ele>1690.0</ele>
        <time>2015-08-02T12:07:44Z</time>
      </trkpt>
      <trkpt lat="40.257700" lon="-4.908833">
        <ele>1688.0</ele>
        <time>2015-08-02T12:07:45Z</time>
      </trkpt>
      <trkpt lat="40.257633" lon="-4.908833">
        <ele>1686.0</ele>
        <time>2015-08-02T12:07:46Z</time>
      </trkpt>
      <trkpt lat="40.257567" lon="-4.908833">
        <ele>1685.0</ele>
        <time>2015-08-02T12:07:47Z</time>
      </trkpt>
      <trkpt lat="40.257517" lon="-4.908833">
        <ele>1683.0</ele>
        <time>2015-08-02T12:07:48Z</time>
      </trkpt>
      <trkpt lat="40.257467" lon="-4.908833">
        <ele>1681.0</ele>
        <time>2015-08-02T12:07:49Z</time>
      </trkpt>
      <trkpt lat="40.257400" lon="-4.908850">
        <ele>1679.0</ele>
        <time>2015-08-02T12:07:50Z</time>
      </trkpt>
      <trkpt lat="40.257317" lon="-4.908850">
        <ele>1678.0</ele>
        <time>2015-08-02T12:07:51Z</time>
      </trkpt>
      <trkpt lat="40.257233" lon="-4.908833">
        <ele>1676.0</ele>
        <time>2015-08-02T12:07:52Z</time>
      </trkpt>
      <trkpt lat="40.257133" lon="-4.908817">
        <ele>1675.0</ele>
        <time>2015-08-02T12:07:53Z</time>
      </trkpt>
      <trkpt lat="40.257033" lon="-4.908783">
        <ele>1676.0</ele>
        <time>2015-08-02T12:07:54Z</time>
      </trkpt>
      <trkpt lat="40.256950" lon="-4.908717">
        <ele>1678.0</ele>
        <time>2015-08-02T12:07:55Z</time>
      </trkpt>
      <trkpt lat="40.256900" lon="-4.908617">
        <ele>1683.0</ele>
        <time>2015-08-02T12:07:56Z</time>
      </trkpt>
      <trkpt lat="40.256850" lon="-4.908533">
        <ele>1689.0</ele>
        <time>2015-08-02T12:07:57Z</time>
      </trkpt>
      <trkpt lat="40.256800" lon="-4.908467">
        <ele>1693.0</ele>
        <time>2015-08-02T12:07:58Z</time>
      </trkpt>
      <trkpt lat="40.256767" lon="-4.908450">
        <ele>1696.0</ele>
        <time>2015-08-02T12:07:59Z</time>
      </trkpt>
      <trkpt lat="40.256733" lon="-4.908433">
        <ele>1698.0</ele>
        <time>2015-08-02T12:08:00Z</time>
      </trkpt>
      <trkpt lat="40.256700" lon="-4.908450">
        <ele>1699.0</ele>
        <time>2015-08-02T12:08:01Z</time>
      </trkpt>
      <trkpt lat="40.256667" lon="-4.908500">
        <ele>1699.0</ele>
        <time>2015-08-02T12:08:02Z</time>
      </trkpt>
      <trkpt lat="40.256650" lon="-4.908600">
        <ele>1698.0</ele>
        <time>2015-08-02T12:08:03Z</time>
      </trkpt>
      <trkpt lat="40.256650" lon="-4.908717">
        <ele>1699.0</ele>
        <time>2015-08-02T12:08:04Z</time>
      </trkpt>
      <trkpt lat="40.256667" lon="-4.908867">
        <ele>1701.0</ele>
        <time>2015-08-02T12:08:05Z</time>
      </trkpt>
      <trkpt lat="40.256700" lon="-4.908983">
        <ele>1705.0</ele>
        <time>2015-08-02T12:08:06Z</time>
      </trkpt>
      <trkpt lat="40.256767" lon="-4.909083">
        <ele>1709.0</ele>
        <time>2015-08-02T12:08:07Z</time>
      </trkpt>
      <trkpt lat="40.256833" lon="-4.909167">
        <ele>1711.0</ele>
        <time>2015-08-02T12:08:08Z</time>
      </trkpt>
      <trkpt lat="40.256900" lon="-4.909200">
        <ele>1713.0</ele>
        <time>2015-08-02T12:08:09Z</time>
      </trkpt>
      <trkpt lat="40.257000" lon="-4.909250">
        <ele>1712.0</ele>
        <time>2015-08-02T12:08:10Z</time>
      </trkpt>
      <trkpt lat="40.257117" lon="-4.909267">
        <ele>1711.0</ele>
        <time>2015-08-02T12:08:11Z</time>
      </trkpt>
      <trkpt lat="40.257217" lon="-4.909267">
        <ele>1712.0</ele>
        <time>2015-08-02T12:08:12Z</time>
      </trkpt>
      <trkpt lat="40.257317" lon="-4.909233">
        <ele>1712.0</ele>
        <time>2015-08-02T12:08:13Z</time>
      </trkpt>
      <trkpt lat="40.257417" lon="-4.909183">
        <ele>1712.0</ele>
        <time>2015-08-02T12:08:14Z</time>
      </trkpt>
      <trkpt lat="40.257517" lon="-4.909117">
        <ele>1710.0</ele>
        <time>2015-08-02T12:08:15Z</time>
      </trkpt>
      <trkpt lat="40.257633" lon="-4.909033">
        <ele>1708.0</ele>
        <time>2015-08-02T12:08:16Z</time>
      </trkpt>
      <trkpt lat="40.257733" lon="-4.908917">
        <ele>1707.0</ele>
        <time>2015-08-02T12:08:17Z</time>
      </trkpt>
      <trkpt lat="40.257783" lon="-4.908767">
        <ele>1705.0</ele>
        <time>2015-08-02T12:08:18Z</time>
      </trkpt>
      <trkpt lat="40.257800" lon="-4.908600">
        <ele>1704.0</ele>
        <time>2015-08-02T12:08:19Z</time>
      </trkpt>
      <trkpt lat="40.257767" lon="-4.908467">
        <ele>1702.0</ele>
        <time>2015-08-02T12:08:20Z</time>
      </trkpt>
      <trkpt lat="40.257700" lon="-4.908367">
        <ele>1699.0</ele>
        <time>2015-08-02T12:08:21Z</time>
      </trkpt>
      <trkpt lat="40.257617" lon="-4.908317">
        <ele>1698.0</ele>
        <time>2015-08-02T12:08:22Z</time>
      </trkpt>
      <trkpt lat="40.257517" lon="-4.908317">
        <ele>1698.0</ele>
        <time>2015-08-02T12:08:23Z</time>
      </trkpt>
      <trkpt lat="40.257467" lon="-4.908333">
        <ele>1701.0</ele>
        <time>2015-08-02T12:08:24Z</time>
      </trkpt>
      <trkpt lat="40.257417" lon="-4.908383">
        <ele>1704.0</ele>
        <time>2015-08-02T12:08:25Z</time>
      </trkpt>
      <trkpt lat="40.257400" lon="-4.908383">
        <ele>1706.0</ele>
        <time>2015-08-02T12:08:26Z</time>
      </trkpt>
      <trkpt lat="40.257383" lon="-4.908367">
        <ele>1705.0</ele>
        <time>2015-08-02T12:08:27Z</time>
      </trkpt>
      <trkpt lat="40.257333" lon="-4.908333">
        <ele>1703.0</ele>
        <time>2015-08-02T12:08:28Z</time>
      </trkpt>
      <trkpt lat="40.257250" lon="-4.908300">
        <ele>1702.0</ele>
        <time>2015-08-02T12:08:29Z</time>
      </trkpt>
      <trkpt lat="40.257167" lon="-4.908317">
        <ele>1701.0</ele>
        <time>2015-08-02T12:08:30Z</time>
      </trkpt>
      <trkpt lat="40.257083" lon="-4.908333">
        <ele>1702.0</ele>
        <time>2015-08-02T12:08:31Z</time>
      </trkpt>
      <trkpt lat="40.257017" lon="-4.908350">
        <ele>1704.0</ele>
        <time>2015-08-02T12:08:32Z</time>
      </trkpt>
      <trkpt lat="40.256950" lon="-4.908350">
        <ele>1707.0</ele>
        <time>2015-08-02T12:08:33Z</time>
      </trkpt>
      <trkpt lat="40.256883" lon="-4.908317">
        <ele>1709.0</ele>
        <time>2015-08-02T12:08:34Z</time>
      </trkpt>
      <trkpt lat="40.256833" lon="-4.908300">
        <ele>1710.0</ele>
        <time>2015-08-02T12:08:35Z</time>
      </trkpt>
      <trkpt lat="40.256783" lon="-4.908283">
        <ele>1711.0</ele>
        <time>2015-08-02T12:08:36Z</time>
      </trkpt>
      <trkpt lat="40.256717" lon="-4.908300">
        <ele>1713.0</ele>
        <time>2015-08-02T12:08:37Z</time>
      </trkpt>
      <trkpt lat="40.256667" lon="-4.908367">
        <ele>1714.0</ele>
        <time>2015-08-02T12:08:38Z</time>
      </trkpt>
      <trkpt lat="40.256633" lon="-4.908467">
        <ele>1716.0</ele>
        <time>2015-08-02T12:08:39Z</time>
      </trkpt>
      <trkpt lat="40.256650" lon="-4.908567">
        <ele>1719.0</ele>
        <time>2015-08-02T12:08:40Z</time>
      </trkpt>
      <trkpt lat="40.256717" lon="-4.908683">
        <ele>1721.0</ele>
        <time>2015-08-02T12:08:41Z</time>
      </trkpt>
      <trkpt lat="40.256800" lon="-4.908750">
        <ele>1723.0</ele>
        <time>2015-08-02T12:08:42Z</time>
      </trkpt>
      <trkpt lat="40.256900" lon="-4.908783">
        <ele>1725.0</ele>
        <time>2015-08-02T12:08:43Z</time>
      </trkpt>
      <trkpt lat="40.257017" lon="-4.908767">
        <ele>1728.0</ele>
        <time>2015-08-02T12:08:44Z</time>
      </trkpt>
      <trkpt lat="40.257117" lon="-4.908683">
        <ele>1729.0</ele>
        <time>2015-08-02T12:08:45Z</time>
      </trkpt>
      <trkpt lat="40.257217" lon="-4.908583">
        <ele>1730.0</ele>
        <time>2015-08-02T12:08:46Z</time>
      </trkpt>
      <trkpt lat="40.257267" lon="-4.908433">
        <ele>1729.0</ele>
        <time>2015-08-02T12:08:47Z</time>
      </trkpt>
      <trkpt lat="40.257283" lon="-4.908267">
        <ele>1730.0</ele>
        <time>2015-08-02T12:08:48Z</time>
      </trkpt>
      <trkpt lat="40.257250" lon="-4.908117">
        <ele>1729.0</ele>
        <time>2015-08-02T12:08:49Z</time>
      </trkpt>
      <trkpt lat="40.257183" lon="-4.908000">
        <ele>1730.0</ele>
        <time>2015-08-02T12:08:50Z</time>
      </trkpt>
      <trkpt lat="40.257117" lon="-4.907900">
        <ele>1731.0</ele>
        <time>2015-08-02T12:08:51Z</time>
      </trkpt>
      <trkpt lat="40.257033" lon="-4.907817">
        <ele>1734.0</ele>
        <time>2015-08-02T12:08:52Z</time>
      </trkpt>
      <trkpt lat="40.256967" lon="-4.907733">
        <ele>1737.0</ele>
        <time>2015-08-02T12:08:53Z</time>
      </trkpt>
      <trkpt lat="40.256900" lon="-4.907650">
        <ele>1740.0</ele>
        <time>2015-08-02T12:08:54Z</time>
      </trkpt>
      <trkpt lat="40.256833" lon="-4.907600">
        <ele>1742.0</ele>
        <time>2015-08-02T12:08:55Z</time>
      </trkpt>
      <trkpt lat="40.256750" lon="-4.907533">
        <ele>1744.0</ele>
        <time>2015-08-02T12:08:56Z</time>
      </trkpt>
      <trkpt lat="40.256667" lon="-4.907483">
        <ele>1746.0</ele>
        <time>2015-08-02T12:08:57Z</time>
      </trkpt>
      <trkpt lat="40.256583" lon="-4.907450">
        <ele>1749.0</ele>
        <time>2015-08-02T12:08:58Z</time>
      </trkpt>
      <trkpt lat="40.256517" lon="-4.907433">
        <ele>1752.0</ele>
        <time>2015-08-02T12:08:59Z</time>
      </trkpt>
      <trkpt lat="40.256450" lon="-4.907450">
        <ele>1753.0</ele>
        <time>2015-08-02T12:09:00Z</time>
      </trkpt>
      <trkpt lat="40.256400" lon="-4.907500">
        <ele>1753.0</ele>
        <time>2015-08-02T12:09:01Z</time>
      </trkpt>
      <trkpt lat="40.256367" lon="-4.907583">
        <ele>1753.0</ele>
        <time>2015-08-02T12:09:02Z</time>
      </trkpt>
      <trkpt lat="40.256367" lon="-4.907683">
        <ele>1754.0</ele>
        <time>2015-08-02T12:09:03Z</time>
      </trkpt>
      <trkpt lat="40.256383" lon="-4.907767">
        <ele>1755.0</ele>
        <time>2015-08-02T12:09:04Z</time>
      </trkpt>
      <trkpt lat="40.256450" lon="-4.907883">
        <ele>1757.0</ele>
        <time>2015-08-02T12:09:05Z</time>
      </trkpt>
      <trkpt lat="40.256483" lon="-4.907950">
        <ele>1759.0</ele>
        <time>2015-08-02T12:09:06Z</time>
      </trkpt>
      <trkpt lat="40.256550" lon="-4.908033">
        <ele>1760.0</ele>
        <time>2015-08-02T12:09:07Z</time>
      </trkpt>
      <trkpt lat="40.256633" lon="-4.908100">
        <ele>1761.0</ele>
        <time>2015-08-02T12:09:08Z</time>
      </trkpt>
      <trkpt lat="40.256733" lon="-4.908150">
        <ele>1761.0</ele>
        <time>2015-08-02T12:09:09Z</time>
      </trkpt>
      <trkpt lat="40.256850" lon="-4.908167">
        <ele>1761.0</ele>
        <time>2015-08-02T12:09:10Z</time>
      </trkpt>
      <trkpt lat="40.256967" lon="-4.908150">
        <ele>1761.0</ele>
        <time>2015-08-02T12:09:11Z</time>
      </trkpt>
      <trkpt lat="40.257083" lon="-4.908083">
        <ele>1761.0</ele>
        <time>2015-08-02T12:09:12Z</time>
      </trkpt>
      <trkpt lat="40.257200" lon="-4.907983">
        <ele>1761.0</ele>
        <time>2015-08-02T12:09:13Z</time>
      </trkpt>
      <trkpt lat="40.257300" lon="-4.907867">
        <ele>1762.0</ele>
        <time>2015-08-02T12:09:14Z</time>
      </trkpt>
      <trkpt lat="40.257350" lon="-4.907717">
        <ele>1764.0</ele>
        <time>2015-08-02T12:09:15Z</time>
      </trkpt>
      <trkpt lat="40.257383" lon="-4.907567">
        <ele>1766.0</ele>
        <time>2015-08-02T12:09:16Z</time>
      </trkpt>
      <trkpt lat="40.257400" lon="-4.907417">
        <ele>1769.0</ele>
        <time>2015-08-02T12:09:17Z</time>
      </trkpt>
      <trkpt lat="40.257400" lon="-4.907300">
        <ele>1773.0</ele>
        <time>2015-08-02T12:09:18Z</time>
      </trkpt>
      <trkpt lat="40.257400" lon="-4.907167">
        <ele>1775.0</ele>
        <time>2015-08-02T12:09:19Z</time>
      </trkpt>
      <trkpt lat="40.257383" lon="-4.907017">
        <ele>1777.0</ele>
        <time>2015-08-02T12:09:20Z</time>
      </trkpt>
      <trkpt lat="40.257367" lon="-4.906917">
        <ele>1779.0</ele>
        <time>2015-08-02T12:09:21Z</time>
      </trkpt>
      <trkpt lat="40.257317" lon="-4.906783">
        <ele>1781.0</ele>
        <time>2015-08-02T12:09:22Z</time>
      </trkpt>
      <trkpt lat="40.257250" lon="-4.906650">
        <ele>1783.0</ele>
        <time>2015-08-02T12:09:23Z</time>
      </trkpt>
      <trkpt lat="40.257167" lon="-4.906567">
        <ele>1785.0</ele>
        <time>2015-08-02T12:09:24Z</time>
      </trkpt>
      <trkpt lat="40.257083" lon="-4.906517">
        <ele>1788.0</ele>
        <time>2015-08-02T12:09:25Z</time>
      </trkpt>
      <trkpt lat="40.257000" lon="-4.906517">
        <ele>1791.0</ele>
        <time>2015-08-02T12:09:26Z</time>
      </trkpt>
      <trkpt lat="40.256950" lon="-4.906550">
        <ele>1794.0</ele>
        <time>2015-08-02T12:09:27Z</time>
      </trkpt>
      <trkpt lat="40.256917" lon="-4.906600">
        <ele>1796.0</ele>
        <time>2015-08-02T12:09:28Z</time>
      </trkpt>
      <trkpt lat="40.256900" lon="-4.906667">
        <ele>1796.0</ele>
        <time>2015-08-02T12:09:29Z</time>
      </trkpt>
      <trkpt lat="40.256883" lon="-4.906767">
        <ele>1795.0</ele>
        <time>2015-08-02T12:09:30Z</time>
      </trkpt>
      <trkpt lat="40.256900" lon="-4.906867">
        <ele>1794.0</ele>
        <time>2015-08-02T12:09:31Z</time>
      </trkpt>
      <trkpt lat="40.256933" lon="-4.906983">
        <ele>1795.0</ele>
        <time>2015-08-02T12:09:32Z</time>
      </trkpt>
      <trkpt lat="40.257000" lon="-4.907100">
        <ele>1796.0</ele>
        <time>2015-08-02T12:09:33Z</time>
      </trkpt>
      <trkpt lat="40.257067" lon="-4.907183">
        <ele>1798.0</ele>
        <time>2015-08-02T12:09:34Z</time>
      </trkpt>
      <trkpt lat="40.257167" lon="-4.907250">
        <ele>1799.0</ele>
        <time>2015-08-02T12:09:35Z</time>
      </trkpt>
      <trkpt lat="40.257267" lon="-4.907300">
        <ele>1801.0</ele>
        <time>2015-08-02T12:09:36Z</time>
      </trkpt>
      <trkpt lat="40.257367" lon="-4.907333">
        <ele>1803.0</ele>
        <time>2015-08-02T12:09:37Z</time>
      </trkpt>
      <trkpt lat="40.257483" lon="-4.907367">
        <ele>1804.0</ele>
        <time>2015-08-02T12:09:38Z</time>
      </trkpt>
      <trkpt lat="40.257600" lon="-4.907367">
        <ele>1804.0</ele>
        <time>2015-08-02T12:09:39Z</time>
      </trkpt>
      <trkpt lat="40.257717" lon="-4.907333">
        <ele>1804.0</ele>
        <time>2015-08-02T12:09:40Z</time>
      </trkpt>
      <trkpt lat="40.257817" lon="-4.907233">
        <ele>1803.0</ele>
        <time>2015-08-02T12:09:41Z</time>
      </trkpt>
      <trkpt lat="40.257900" lon="-4.907100">
        <ele>1802.0</ele>
        <time>2015-08-02T12:09:42Z</time>
      </trkpt>
      <trkpt lat="40.257950" lon="-4.906933">
        <ele>1802.0</ele>
        <time>2015-08-02T12:09:43Z</time>
      </trkpt>
      <trkpt lat="40.257950" lon="-4.906783">
        <ele>1804.0</ele>
        <time>2015-08-02T12:09:44Z</time>
      </trkpt>
      <trkpt lat="40.257933" lon="-4.906633">
        <ele>1806.0</ele>
        <time>2015-08-02T12:09:45Z</time>
      </trkpt>
      <trkpt lat="40.257900" lon="-4.906500">
        <ele>1807.0</ele>
        <time>2015-08-02T12:09:46Z</time>
      </trkpt>
      <trkpt lat="40.257883" lon="-4.906383">
        <ele>1808.0</ele>
        <time>2015-08-02T12:09:47Z</time>
      </trkpt>
      <trkpt lat="40.257850" lon="-4.906250">
        <ele>1809.0</ele>
        <time>2015-08-02T12:09:48Z</time>
      </trkpt>
      <trkpt lat="40.257800" lon="-4.906117">
        <ele>1811.0</ele>
        <time>2015-08-02T12:09:49Z</time>
      </trkpt>
      <trkpt lat="40.257733" lon="-4.906017">
        <ele>1814.0</ele>
        <time>2015-08-02T12:09:50Z</time>
      </trkpt>
      <trkpt lat="40.257650" lon="-4.905950">
        <ele>1816.0</ele>
        <time>2015-08-02T12:09:51Z</time>
      </trkpt>
      <trkpt lat="40.257567" lon="-4.905900">
        <ele>1817.0</ele>
        <time>2015-08-02T12:09:52Z</time>
      </trkpt>
      <trkpt lat="40.257467" lon="-4.905867">
        <ele>1819.0</ele>
        <time>2015-08-02T12:09:53Z</time>
      </trkpt>
      <trkpt lat="40.257367" lon="-4.905817">
        <ele>1823.0</ele>
        <time>2015-08-02T12:09:54Z</time>
      </trkpt>
      <trkpt lat="40.257300" lon="-4.905800">
        <ele>1827.0</ele>
        <time>2015-08-02T12:09:55Z</time>
      </trkpt>
      <trkpt lat="40.257250" lon="-4.905817">
        <ele>1831.0</ele>
        <time>2015-08-02T12:09:56Z</time>
      </trkpt>
      <trkpt lat="40.257217" lon="-4.905850">
        <ele>1833.0</ele>
        <time>2015-08-02T12:09:57Z</time>
      </trkpt>
      <trkpt lat="40.257217" lon="-4.905967">
        <ele>1832.0</ele>
        <time>2015-08-02T12:09:58Z</time>
      </trkpt>
      <trkpt lat="40.257233" lon="-4.906050">
        <ele>1831.0</ele>
        <time>2015-08-02T12:09:59Z</time>
      </trkpt>
      <trkpt lat="40.257267" lon="-4.906150">
        <ele>1832.0</ele>
        <time>2015-08-02T12:10:00Z</time>
      </trkpt>
      <trkpt lat="40.257317" lon="-4.906233">
        <ele>1833.0</ele>
        <time>2015-08-02T12:10:01Z</time>
      </trkpt>
      <trkpt lat="40.257383" lon="-4.906300">
        <ele>1834.0</ele>
        <time>2015-08-02T12:10:02Z</time>
      </trkpt>
      <trkpt lat="40.257467" lon="-4.906333">
        <ele>1834.0</ele>
        <time>2015-08-02T12:10:03Z</time>
      </trkpt>
      <trkpt lat="40.257583" lon="-4.906350">
        <ele>1834.0</ele>
        <time>2015-08-02T12:10:04Z</time>
      </trkpt>
      <trkpt lat="40.257700" lon="-4.906333">
        <ele>1834.0</ele>
        <time>2015-08-02T12:10:05Z</time>
      </trkpt>
      <trkpt lat="40.257817" lon="-4.906283">
        <ele>1834.0</ele>
        <time>2015-08-02T12:10:06Z</time>
      </trkpt>
      <trkpt lat="40.257933" lon="-4.906217">
        <ele>1834.0</ele>
        <time>2015-08-02T12:10:07Z</time>
      </trkpt>
      <trkpt lat="40.258033" lon="-4.906117">
        <ele>1835.0</ele>
        <time>2015-08-02T12:10:08Z</time>
      </trkpt>
      <trkpt lat="40.258133" lon="-4.906000">
        <ele>1837.0</ele>
        <time>2015-08-02T12:10:09Z</time>
      </trkpt>
      <trkpt lat="40.258200" lon="-4.905883">
        <ele>1837.0</ele>
        <time>2015-08-02T12:10:10Z</time>
      </trkpt>
      <trkpt lat="40.258233" lon="-4.905733">
        <ele>1836.0</ele>
        <time>2015-08-02T12:10:11Z</time>
      </trkpt>
      <trkpt lat="40.258233" lon="-4.905567">
        <ele>1835.0</ele>
        <time>2015-08-02T12:10:12Z</time>
      </trkpt>
      <trkpt lat="40.258183" lon="-4.905417">
        <ele>1834.0</ele>
        <time>2015-08-02T12:10:13Z</time>
      </trkpt>
      <trkpt lat="40.258133" lon="-4.905267">
        <ele>1834.0</ele>
        <time>2015-08-02T12:10:14Z</time>
      </trkpt>
      <trkpt lat="40.258083" lon="-4.905117">
        <ele>1837.0</ele>
        <time>2015-08-02T12:10:15Z</time>
      </trkpt>
      <trkpt lat="40.258050" lon="-4.904983">
        <ele>1840.0</ele>
        <time>2015-08-02T12:10:16Z</time>
      </trkpt>
      <trkpt lat="40.258017" lon="-4.904867">
        <ele>1844.0</ele>
        <time>2015-08-02T12:10:17Z</time>
      </trkpt>
      <trkpt lat="40.257983" lon="-4.904767">
        <ele>1847.0</ele>
        <time>2015-08-02T12:10:18Z</time>
      </trkpt>
      <trkpt lat="40.257933" lon="-4.904650">
        <ele>1849.0</ele>
        <time>2015-08-02T12:10:19Z</time>
      </trkpt>
      <trkpt lat="40.257900" lon="-4.904550">
        <ele>1852.0</ele>
        <time>2015-08-02T12:10:20Z</time>
      </trkpt>
      <trkpt lat="40.257850" lon="-4.904433">
        <ele>1854.0</ele>
        <time>2015-08-02T12:10:21Z</time>
      </trkpt>
      <trkpt lat="40.257800" lon="-4.904367">
        <ele>1856.0</ele>
        <time>2015-08-02T12:10:22Z</time>
      </trkpt>
      <trkpt lat="40.257733" lon="-4.904300">
        <ele>1858.0</ele>
        <time>2015-08-02T12:10:23Z</time>
      </trkpt>
      <trkpt lat="40.257683" lon="-4.904300">
        <ele>1859.0</ele>
        <time>2015-08-02T12:10:24Z</time>
      </trkpt>
      <trkpt lat="40.257617" lon="-4.904317">
        <ele>1859.0</ele>
        <time>2015-08-02T12:10:25Z</time>
      </trkpt>
      <trkpt lat="40.257583" lon="-4.904350">
        <ele>1860.0</ele>
        <time>2015-08-02T12:10:26Z</time>
      </trkpt>
      <trkpt lat="40.257533" lon="-4.904433">
        <ele>1860.0</ele>
        <time>2015-08-02T12:10:27Z</time>
      </trkpt>
      <trkpt lat="40.257500" lon="-4.904533">
        <ele>1861.0</ele>
        <time>2015-08-02T12:10:28Z</time>
      </trkpt>
      <trkpt lat="40.257500" lon="-4.904600">
        <ele>1863.0</ele>
        <time>2015-08-02T12:10:29Z</time>
      </trkpt>
      <trkpt lat="40.257483" lon="-4.904700">
        <ele>1866.0</ele>
        <time>2015-08-02T12:10:30Z</time>
      </trkpt>
      <trkpt lat="40.257500" lon="-4.904783">
        <ele>1868.0</ele>
        <time>2015-08-02T12:10:31Z</time>
      </trkpt>
      <trkpt lat="40.257533" lon="-4.904883">
        <ele>1870.0</ele>
        <time>2015-08-02T12:10:32Z</time>
      </trkpt>
      <trkpt lat="40.257583" lon="-4.904967">
        <ele>1873.0</ele>
        <time>2015-08-02T12:10:33Z</time>
      </trkpt>
      <trkpt lat="40.257667" lon="-4.905050">
        <ele>1874.0</ele>
        <time>2015-08-02T12:10:34Z</time>
      </trkpt>
      <trkpt lat="40.257783" lon="-4.905100">
        <ele>1877.0</ele>
        <time>2015-08-02T12:10:35Z</time>
      </trkpt>
      <trkpt lat="40.257900" lon="-4.905100">
        <ele>1880.0</ele>
        <time>2015-08-02T12:10:36Z</time>
      </trkpt>
      <trkpt lat="40.258017" lon="-4.905050">
        <ele>1883.0</ele>
        <time>2015-08-02T12:10:37Z</time>
      </trkpt>
      <trkpt lat="40.258117" lon="-4.904950">
        <ele>1887.0</ele>
        <time>2015-08-02T12:10:38Z</time>
      </trkpt>
      <trkpt lat="40.258183" lon="-4.904817">
        <ele>1890.0</ele>
        <time>2015-08-02T12:10:39Z</time>
      </trkpt>
      <trkpt lat="40.258217" lon="-4.904683">
        <ele>1893.0</ele>
        <time>2015-08-02T12:10:40Z</time>
      </trkpt>
      <trkpt lat="40.258183" lon="-4.904550">
        <ele>1896.0</ele>
        <time>2015-08-02T12:10:41Z</time>
      </trkpt>
      <trkpt lat="40.258133" lon="-4.904450">
        <ele>1899.0</ele>
        <time>2015-08-02T12:10:42Z</time>
      </trkpt>
      <trkpt lat="40.258050" lon="-4.904400">
        <ele>1902.0</ele>
        <time>2015-08-02T12:10:43Z</time>
      </trkpt>
      <trkpt lat="40.257967" lon="-4.904383">
        <ele>1906.0</ele>
        <time>2015-08-02T12:10:44Z</time>
      </trkpt>
      <trkpt lat="40.257900" lon="-4.904417">
        <ele>1910.0</ele>
        <time>2015-08-02T12:10:45Z</time>
      </trkpt>
      <trkpt lat="40.257850" lon="-4.904500">
        <ele>1914.0</ele>
        <time>2015-08-02T12:10:46Z</time>
      </trkpt>
      <trkpt lat="40.257850" lon="-4.904650">
        <ele>1915.0</ele>
        <time>2015-08-02T12:10:47Z</time>
      </trkpt>
      <trkpt lat="40.257883" lon="-4.904767">
        <ele>1916.0</ele>
        <time>2015-08-02T12:10:48Z</time>
      </trkpt>
      <trkpt lat="40.257983" lon="-4.904883">
        <ele>1918.0</ele>
        <time>2015-08-02T12:10:49Z</time>
      </trkpt>
      <trkpt lat="40.258083" lon="-4.904950">
        <ele>1921.0</ele>
        <time>2015-08-02T12:10:50Z</time>
      </trkpt>
      <trkpt lat="40.258233" lon="-4.904950">
        <ele>1926.0</ele>
        <time>2015-08-02T12:10:51Z</time>
      </trkpt>
      <trkpt lat="40.258350" lon="-4.904883">
        <ele>1930.0</ele>
        <time>2015-08-02T12:10:52Z</time>
      </trkpt>
      <trkpt lat="40.258417" lon="-4.904833">
        <ele>1934.0</ele>
        <time>2015-08-02T12:10:53Z</time>
      </trkpt>
      <trkpt lat="40.258500" lon="-4.904733">
        <ele>1937.0</ele>
        <time>2015-08-02T12:10:54Z</time>
      </trkpt>
      <trkpt lat="40.258583" lon="-4.904600">
        <ele>1939.0</ele>
        <time>2015-08-02T12:10:55Z</time>
      </trkpt>
      <trkpt lat="40.258633" lon="-4.904450">
        <ele>1942.0</ele>
        <time>2015-08-02T12:10:56Z</time>
      </trkpt>
      <trkpt lat="40.258633" lon="-4.904300">
        <ele>1944.0</ele>
        <time>2015-08-02T12:10:57Z</time>
      </trkpt>
      <trkpt lat="40.258600" lon="-4.904167">
        <ele>1946.0</ele>
        <time>2015-08-02T12:10:58Z</time>
      </trkpt>
      <trkpt lat="40.258517" lon="-4.904067">
        <ele>1948.0</ele>
        <time>2015-08-02T12:10:59Z</time>
      </trkpt>
      <trkpt lat="40.258433" lon="-4.904017">
        <ele>1951.0</ele>
        <time>2015-08-02T12:11:00Z</time>
      </trkpt>
      <trkpt lat="40.258350" lon="-4.904050">
        <ele>1955.0</ele>
        <time>2015-08-02T12:11:01Z</time>
      </trkpt>
      <trkpt lat="40.258300" lon="-4.904133">
        <ele>1955.0</ele>
        <time>2015-08-02T12:11:02Z</time>
      </trkpt>
      <trkpt lat="40.258283" lon="-4.904233">
        <ele>1963.0</ele>
        <time>2015-08-02T12:11:03Z</time>
      </trkpt>
      <trkpt lat="40.258317" lon="-4.904350">
        <ele>1967.0</ele>
        <time>2015-08-02T12:11:04Z</time>
      </trkpt>
      <trkpt lat="40.258367" lon="-4.904467">
        <ele>1971.0</ele>
        <time>2015-08-02T12:11:05Z</time>
      </trkpt>
      <trkpt lat="40.258433" lon="-4.904583">
        <ele>1975.0</ele>
        <time>2015-08-02T12:11:06Z</time>
      </trkpt>
      <trkpt lat="40.258500" lon="-4.904667">
        <ele>1979.0</ele>
        <time>2015-08-02T12:11:07Z</time>
      </trkpt>
      <trkpt lat="40.258600" lon="-4.904717">
        <ele>1984.0</ele>
        <time>2015-08-02T12:11:08Z</time>
      </trkpt>
      <trkpt lat="40.258717" lon="-4.904750">
        <ele>1987.0</ele>
        <time>2015-08-02T12:11:09Z</time>
      </trkpt>
      <trkpt lat="40.258850" lon="-4.904733">
        <ele>1989.0</ele>
        <time>2015-08-02T12:11:10Z</time>
      </trkpt>
      <trkpt lat="40.258967" lon="-4.904667">
        <ele>1991.0</ele>
        <time>2015-08-02T12:11:11Z</time>
      </trkpt>
      <trkpt lat="40.259067" lon="-4.904550">
        <ele>1992.0</ele>
        <time>2015-08-02T12:11:12Z</time>
      </trkpt>
      <trkpt lat="40.259150" lon="-4.904417">
        <ele>1995.0</ele>
        <time>2015-08-02T12:11:13Z</time>
      </trkpt>
      <trkpt lat="40.259183" lon="-4.904267">
        <ele>1999.0</ele>
        <time>2015-08-02T12:11:14Z</time>
      </trkpt>
      <trkpt lat="40.259167" lon="-4.904133">
        <ele>2002.0</ele>
        <time>2015-08-02T12:11:15Z</time>
      </trkpt>
      <trkpt lat="40.259100" lon="-4.903967">
        <ele>2004.0</ele>
        <time>2015-08-02T12:11:16Z</time>
      </trkpt>
      <trkpt lat="40.259050" lon="-4.903933">
        <ele>2006.0</ele>
        <time>2015-08-02T12:11:17Z</time>
      </trkpt>
      <trkpt lat="40.258967" lon="-4.903900">
        <ele>2008.0</ele>
        <time>2015-08-02T12:11:18Z</time>
      </trkpt>
      <trkpt lat="40.258883" lon="-4.903950">
        <ele>2011.0</ele>
        <time>2015-08-02T12:11:19Z</time>
      </trkpt>
      <trkpt lat="40.258817" lon="-4.904017">
        <ele>2015.0</ele>
        <time>2015-08-02T12:11:20Z</time>
      </trkpt>
      <trkpt lat="40.258800" lon="-4.904117">
        <ele>2019.0</ele>
        <time>2015-08-02T12:11:21Z</time>
      </trkpt>
      <trkpt lat="40.258817" lon="-4.904217">
        <ele>2023.0</ele>
        <time>2015-08-02T12:11:22Z</time>
      </trkpt>
      <trkpt lat="40.258850" lon="-4.904333">
        <ele>2027.0</ele>
        <time>2015-08-02T12:11:23Z</time>
      </trkpt>
      <trkpt lat="40.258917" lon="-4.904450">
        <ele>2030.0</ele>
        <time>2015-08-02T12:11:24Z</time>
      </trkpt>
      <trkpt lat="40.259000" lon="-4.904533">
        <ele>2033.0</ele>
        <time>2015-08-02T12:11:25Z</time>
      </trkpt>
      <trkpt lat="40.259117" lon="-4.904600">
        <ele>2036.0</ele>
        <time>2015-08-02T12:11:26Z</time>
      </trkpt>
      <trkpt lat="40.259250" lon="-4.904583">
        <ele>2039.0</ele>
        <time>2015-08-02T12:11:27Z</time>
      </trkpt>
      <trkpt lat="40.259367" lon="-4.904517">
        <ele>2042.0</ele>
        <time>2015-08-02T12:11:28Z</time>
      </trkpt>
      <trkpt lat="40.259467" lon="-4.904400">
        <ele>2044.0</ele>
        <time>2015-08-02T12:11:29Z</time>
      </trkpt>
      <trkpt lat="40.259517" lon="-4.904233">
        <ele>2047.0</ele>
        <time>2015-08-02T12:11:30Z</time>
      </trkpt>
      <trkpt lat="40.259517" lon="-4.904133">
        <ele>2050.0</ele>
        <time>2015-08-02T12:11:31Z</time>
      </trkpt>
      <trkpt lat="40.259500" lon="-4.904000">
        <ele>2053.0</ele>
        <time>2015-08-02T12:11:32Z</time>
      </trkpt>
      <trkpt lat="40.259467" lon="-4.903900">
        <ele>2057.0</ele>
        <time>2015-08-02T12:11:33Z</time>
      </trkpt>
      <trkpt lat="40.259383" lon="-4.903833">
        <ele>2060.0</ele>
        <time>2015-08-02T12:11:34Z</time>
      </trkpt>
      <trkpt lat="40.259300" lon="-4.903817">
        <ele>2064.0</ele>
        <time>2015-08-02T12:11:35Z</time>
      </trkpt>
      <trkpt lat="40.259233" lon="-4.903867">
        <ele>2069.0</ele>
        <time>2015-08-02T12:11:36Z</time>
      </trkpt>
      <trkpt lat="40.259167" lon="-4.903950">
        <ele>2073.0</ele>
        <time>2015-08-02T12:11:37Z</time>
      </trkpt>
      <trkpt lat="40.259133" lon="-4.904067">
        <ele>2077.0</ele>
        <time>2015-08-02T12:11:38Z</time>
      </trkpt>
      <trkpt lat="40.259133" lon="-4.904183">
        <ele>2081.0</ele>
        <time>2015-08-02T12:11:39Z</time>
      </trkpt>
      <trkpt lat="40.259167" lon="-4.904300">
        <ele>2085.0</ele>
        <time>2015-08-02T12:11:40Z</time>
      </trkpt>
      <trkpt lat="40.259233" lon="-4.904433">
        <ele>2088.0</ele>
        <time>2015-08-02T12:11:41Z</time>
      </trkpt>
      <trkpt lat="40.259317" lon="-4.904483">
        <ele>2091.0</ele>
        <time>2015-08-02T12:11:42Z</time>
      </trkpt>
      <trkpt lat="40.259417" lon="-4.904533">
        <ele>2094.0</ele>
        <time>2015-08-02T12:11:43Z</time>
      </trkpt>
      <trkpt lat="40.259550" lon="-4.904533">
        <ele>2098.0</ele>
        <time>2015-08-02T12:11:44Z</time>
      </trkpt>
      <trkpt lat="40.259667" lon="-4.904483">
        <ele>2101.0</ele>
        <time>2015-08-02T12:11:45Z</time>
      </trkpt>
      <trkpt lat="40.259767" lon="-4.904400">
        <ele>2104.0</ele>
        <time>2015-08-02T12:11:46Z</time>
      </trkpt>
      <trkpt lat="40.259833" lon="-4.904283">
        <ele>2106.0</ele>
        <time>2015-08-02T12:11:47Z</time>
      </trkpt>
      <trkpt lat="40.259883" lon="-4.904150">
        <ele>2109.0</ele>
        <time>2015-08-02T12:11:48Z</time>
      </trkpt>
      <trkpt lat="40.259867" lon="-4.904000">
        <ele>2112.0</ele>
        <time>2015-08-02T12:11:49Z</time>
      </trkpt>
      <trkpt lat="40.259833" lon="-4.903867">
        <ele>2115.0</ele>
        <time>2015-08-02T12:11:50Z</time>
      </trkpt>
      <trkpt lat="40.259783" lon="-4.903800">
        <ele>2119.0</ele>
        <time>2015-08-02T12:11:51Z</time>
      </trkpt>
      <trkpt lat="40.259717" lon="-4.903733">
        <ele>2122.0</ele>
        <time>2015-08-02T12:11:52Z</time>
      </trkpt>
      <trkpt lat="40.259650" lon="-4.903717">
        <ele>2125.0</ele>
        <time>2015-08-02T12:11:53Z</time>
      </trkpt>
      <trkpt lat="40.259567" lon="-4.903750">
        <ele>2128.0</ele>
        <time>2015-08-02T12:11:54Z</time>
      </trkpt>
      <trkpt lat="40.259500" lon="-4.903850">
        <ele>2131.0</ele>
        <time>2015-08-02T12:11:55Z</time>
      </trkpt>
      <trkpt lat="40.259483" lon="-4.903967">
        <ele>2134.0</ele>
        <time>2015-08-02T12:11:56Z</time>
      </trkpt>
      <trkpt lat="40.259500" lon="-4.904100">
        <ele>2137.0</ele>
        <time>2015-08-02T12:11:57Z</time>
      </trkpt>
      <trkpt lat="40.259600" lon="-4.904217">
        <ele>2140.0</ele>
        <time>2015-08-02T12:11:58Z</time>
      </trkpt>
      <trkpt lat="40.259683" lon="-4.904267">
        <ele>2143.0</ele>
        <time>2015-08-02T12:11:59Z</time>
      </trkpt>
      <trkpt lat="40.259800" lon="-4.904300">
        <ele>2145.0</ele>
        <time>2015-08-02T12:12:00Z</time>
      </trkpt>
      <trkpt lat="40.259933" lon="-4.904267">
        <ele>2147.0</ele>
        <time>2015-08-02T12:12:01Z</time>
      </trkpt>
      <trkpt lat="40.260050" lon="-4.904217">
        <ele>2149.0</ele>
        <time>2015-08-02T12:12:02Z</time>
      </trkpt>
      <trkpt lat="40.260167" lon="-4.904100">
        <ele>2151.0</ele>
        <time>2015-08-02T12:12:03Z</time>
      </trkpt>
      <trkpt lat="40.260233" lon="-4.903950">
        <ele>2153.0</ele>
        <time>2015-08-02T12:12:04Z</time>
      </trkpt>
      <trkpt lat="40.260283" lon="-4.903800">
        <ele>2156.0</ele>
        <time>2015-08-02T12:12:05Z</time>
      </trkpt>
      <trkpt lat="40.260300" lon="-4.903650">
        <ele>2161.0</ele>
        <time>2015-08-02T12:12:06Z</time>
      </trkpt>
      <trkpt lat="40.260283" lon="-4.903533">
        <ele>2166.0</ele>
        <time>2015-08-02T12:12:07Z</time>
      </trkpt>
      <trkpt lat="40.260283" lon="-4.903433">
        <ele>2172.0</ele>
        <time>2015-08-02T12:12:08Z</time>
      </trkpt>
      <trkpt lat="40.260267" lon="-4.903350">
        <ele>2177.0</ele>
        <time>2015-08-02T12:12:09Z</time>
      </trkpt>
      <trkpt lat="40.260233" lon="-4.903267">
        <ele>2182.0</ele>
        <time>2015-08-02T12:12:10Z</time>
      </trkpt>
      <trkpt lat="40.260183" lon="-4.903233">
        <ele>2184.0</ele>
        <time>2015-08-02T12:12:11Z</time>
      </trkpt>
      <trkpt lat="40.260117" lon="-4.903217">
        <ele>2185.0</ele>
        <time>2015-08-02T12:12:12Z</time>
      </trkpt>
      <trkpt lat="40.260033" lon="-4.903250">
        <ele>2186.0</ele>
        <time>2015-08-02T12:12:13Z</time>
      </trkpt>
      <trkpt lat="40.259983" lon="-4.903317">
        <ele>2189.0</ele>
        <time>2015-08-02T12:12:14Z</time>
      </trkpt>
      <trkpt lat="40.259950" lon="-4.903450">
        <ele>2192.0</ele>
        <time>2015-08-02T12:12:15Z</time>
      </trkpt>
      <trkpt lat="40.259967" lon="-4.903550">
        <ele>2195.0</ele>
        <time>2015-08-02T12:12:16Z</time>
      </trkpt>
      <trkpt lat="40.260017" lon="-4.903667">
        <ele>2198.0</ele>
        <time>2015-08-02T12:12:17Z</time>
      </trkpt>
      <trkpt lat="40.260083" lon="-4.903767">
        <ele>2201.0</ele>
        <time>2015-08-02T12:12:18Z</time>
      </trkpt>
      <trkpt lat="40.260167" lon="-4.903850">
        <ele>2205.0</ele>
        <time>2015-08-02T12:12:19Z</time>
      </trkpt>
      <trkpt lat="40.260267" lon="-4.903900">
        <ele>2208.0</ele>
        <time>2015-08-02T12:12:20Z</time>
      </trkpt>
      <trkpt lat="40.260383" lon="-4.903950">
        <ele>2210.0</ele>
        <time>2015-08-02T12:12:21Z</time>
      </trkpt>
      <trkpt lat="40.260500" lon="-4.903950">
        <ele>2213.0</ele>
        <time>2015-08-02T12:12:22Z</time>
      </trkpt>
      <trkpt lat="40.260617" lon="-4.903933">
        <ele>2216.0</ele>
        <time>2015-08-02T12:12:23Z</time>
      </trkpt>
      <trkpt lat="40.260750" lon="-4.903883">
        <ele>2218.0</ele>
        <time>2015-08-02T12:12:24Z</time>
      </trkpt>
      <trkpt lat="40.260850" lon="-4.903800">
        <ele>2221.0</ele>
        <time>2015-08-02T12:12:25Z</time>
      </trkpt>
      <trkpt lat="40.260933" lon="-4.903700">
        <ele>2223.0</ele>
        <time>2015-08-02T12:12:26Z</time>
      </trkpt>
      <trkpt lat="40.260983" lon="-4.903567">
        <ele>2226.0</ele>
        <time>2015-08-02T12:12:27Z</time>
      </trkpt>
      <trkpt lat="40.260983" lon="-4.903433">
        <ele>2228.0</ele>
        <time>2015-08-02T12:12:28Z</time>
      </trkpt>
      <trkpt lat="40.260967" lon="-4.903317">
        <ele>2231.0</ele>
        <time>2015-08-02T12:12:29Z</time>
      </trkpt>
      <trkpt lat="40.260933" lon="-4.903217">
        <ele>2234.0</ele>
        <time>2015-08-02T12:12:30Z</time>
      </trkpt>
      <trkpt lat="40.260867" lon="-4.903167">
        <ele>2237.0</ele>
        <time>2015-08-02T12:12:31Z</time>
      </trkpt>
      <trkpt lat="40.260800" lon="-4.903150">
        <ele>2240.0</ele>
        <time>2015-08-02T12:12:32Z</time>
      </trkpt>
      <trkpt lat="40.260750" lon="-4.903167">
        <ele>2244.0</ele>
        <time>2015-08-02T12:12:33Z</time>
      </trkpt>
      <trkpt lat="40.260683" lon="-4.903200">
        <ele>2247.0</ele>
        <time>2015-08-02T12:12:34Z</time>
      </trkpt>
      <trkpt lat="40.260650" lon="-4.903250">
        <ele>2250.0</ele>
        <time>2015-08-02T12:12:35Z</time>
      </trkpt>
      <trkpt lat="40.260633" lon="-4.903333">
        <ele>2252.0</ele>
        <time>2015-08-02T12:12:36Z</time>
      </trkpt>
      <trkpt lat="40.260617" lon="-4.903450">
        <ele>2253.0</ele>
        <time>2015-08-02T12:12:37Z</time>
      </trkpt>
      <trkpt lat="40.260650" lon="-4.903583">
        <ele>2255.0</ele>
        <time>2015-08-02T12:12:38Z</time>
      </trkpt>
      <trkpt lat="40.260750" lon="-4.903733">
        <ele>2257.0</ele>
        <time>2015-08-02T12:12:39Z</time>
      </trkpt>
      <trkpt lat="40.260817" lon="-4.903800">
        <ele>2259.0</ele>
        <time>2015-08-02T12:12:40Z</time>
      </trkpt>
      <trkpt lat="40.260933" lon="-4.903850">
        <ele>2262.0</ele>
        <time>2015-08-02T12:12:41Z</time>
      </trkpt>
      <trkpt lat="40.261067" lon="-4.903867">
        <ele>2265.0</ele>
        <time>2015-08-02T12:12:42Z</time>
      </trkpt>
      <trkpt lat="40.261183" lon="-4.903833">
        <ele>2268.0</ele>
        <time>2015-08-02T12:12:43Z</time>
      </trkpt>
      <trkpt lat="40.261300" lon="-4.903750">
        <ele>2271.0</ele>
        <time>2015-08-02T12:12:44Z</time>
      </trkpt>
      <trkpt lat="40.261400" lon="-4.903650">
        <ele>2273.0</ele>
        <time>2015-08-02T12:12:45Z</time>
      </trkpt>
      <trkpt lat="40.261483" lon="-4.903517">
        <ele>2274.0</ele>
        <time>2015-08-02T12:12:46Z</time>
      </trkpt>
      <trkpt lat="40.261533" lon="-4.903367">
        <ele>2276.0</ele>
        <time>2015-08-02T12:12:47Z</time>
      </trkpt>
      <trkpt lat="40.261533" lon="-4.903217">
        <ele>2279.0</ele>
        <time>2015-08-02T12:12:48Z</time>
      </trkpt>
      <trkpt lat="40.261517" lon="-4.903100">
        <ele>2281.0</ele>
        <time>2015-08-02T12:12:49Z</time>
      </trkpt>
      <trkpt lat="40.261483" lon="-4.902983">
        <ele>2284.0</ele>
        <time>2015-08-02T12:12:50Z</time>
      </trkpt>
      <trkpt lat="40.261417" lon="-4.902917">
        <ele>2286.0</ele>
        <time>2015-08-02T12:12:51Z</time>
      </trkpt>
      <trkpt lat="40.261333" lon="-4.902883">
        <ele>2289.0</ele>
        <time>2015-08-02T12:12:52Z</time>
      </trkpt>
      <trkpt lat="40.261250" lon="-4.902917">
        <ele>2291.0</ele>
        <time>2015-08-02T12:12:53Z</time>
      </trkpt>
      <trkpt lat="40.261183" lon="-4.902983">
        <ele>2295.0</ele>
        <time>2015-08-02T12:12:54Z</time>
      </trkpt>
      <trkpt lat="40.261133" lon="-4.903067">
        <ele>2299.0</ele>
        <time>2015-08-02T12:12:55Z</time>
      </trkpt>
      <trkpt lat="40.261117" lon="-4.903183">
        <ele>2303.0</ele>
        <time>2015-08-02T12:12:56Z</time>
      </trkpt>
      <trkpt lat="40.261117" lon="-4.903283">
        <ele>2306.0</ele>
        <time>2015-08-02T12:12:57Z</time>
      </trkpt>
      <trkpt lat="40.261150" lon="-4.903417">
        <ele>2308.0</ele>
        <time>2015-08-02T12:12:58Z</time>
      </trkpt>
      <trkpt lat="40.261183" lon="-4.903533">
        <ele>2310.0</ele>
        <time>2015-08-02T12:12:59Z</time>
      </trkpt>
      <trkpt lat="40.261250" lon="-4.903650">
        <ele>2313.0</ele>
        <time>2015-08-02T12:13:00Z</time>
      </trkpt>
      <trkpt lat="40.261350" lon="-4.903733">
        <ele>2317.0</ele>
        <time>2015-08-02T12:13:01Z</time>
      </trkpt>
      <trkpt lat="40.261467" lon="-4.903783">
        <ele>2320.0</ele>
        <time>2015-08-02T12:13:02Z</time>
      </trkpt>
      <trkpt lat="40.261583" lon="-4.903783">
        <ele>2324.0</ele>
        <time>2015-08-02T12:13:03Z</time>
      </trkpt>
      <trkpt lat="40.261683" lon="-4.903767">
        <ele>2328.0</ele>
        <time>2015-08-02T12:13:04Z</time>
      </trkpt>
      <trkpt lat="40.261783" lon="-4.903717">
        <ele>2331.0</ele>
        <time>2015-08-02T12:13:05Z</time>
      </trkpt>
      <trkpt lat="40.261883" lon="-4.903650">
        <ele>2333.0</ele>
        <time>2015-08-02T12:13:06Z</time>
      </trkpt>
      <trkpt lat="40.261967" lon="-4.903550">
        <ele>2334.0</ele>
        <time>2015-08-02T12:13:07Z</time>
      </trkpt>
      <trkpt lat="40.262050" lon="-4.903433">
        <ele>2336.0</ele>
        <time>2015-08-02T12:13:08Z</time>
      </trkpt>
      <trkpt lat="40.262067" lon="-4.903300">
        <ele>2337.0</ele>
        <time>2015-08-02T12:13:09Z</time>
      </trkpt>
      <trkpt lat="40.262067" lon="-4.903167">
        <ele>2339.0</ele>
        <time>2015-08-02T12:13:10Z</time>
      </trkpt>
      <trkpt lat="40.262017" lon="-4.903050">
        <ele>2339.0</ele>
        <time>2015-08-02T12:13:11Z</time>
      </trkpt>
      <trkpt lat="40.261933" lon="-4.903000">
        <ele>2341.0</ele>
        <time>2015-08-02T12:13:12Z</time>
      </trkpt>
      <trkpt lat="40.261850" lon="-4.903000">
        <ele>2344.0</ele>
        <time>2015-08-02T12:13:13Z</time>
      </trkpt>
      <trkpt lat="40.261750" lon="-4.903067">
        <ele>2348.0</ele>
        <time>2015-08-02T12:13:14Z</time>
      </trkpt>
      <trkpt lat="40.261717" lon="-4.903133">
        <ele>2351.0</ele>
        <time>2015-08-02T12:13:15Z</time>
      </trkpt>
      <trkpt lat="40.261683" lon="-4.903233">
        <ele>2355.0</ele>
        <time>2015-08-02T12:13:16Z</time>
      </trkpt>
      <trkpt lat="40.261650" lon="-4.903333">
        <ele>2357.0</ele>
        <time>2015-08-02T12:13:17Z</time>
      </trkpt>
      <trkpt lat="40.261650" lon="-4.903450">
        <ele>2360.0</ele>
        <time>2015-08-02T12:13:18Z</time>
      </trkpt>
      <trkpt lat="40.261650" lon="-4.903550">
        <ele>2362.0</ele>
        <time>2015-08-02T12:13:19Z</time>
      </trkpt>
      <trkpt lat="40.261650" lon="-4.903650">
        <ele>2365.0</ele>
        <time>2015-08-02T12:13:20Z</time>
      </trkpt>
      <trkpt lat="40.261683" lon="-4.903767">
        <ele>2367.0</ele>
        <time>2015-08-02T12:13:21Z</time>
      </trkpt>
      <trkpt lat="40.261717" lon="-4.903867">
        <ele>2369.0</ele>
        <time>2015-08-02T12:13:22Z</time>
      </trkpt>
      <trkpt lat="40.261783" lon="-4.903950">
        <ele>2371.0</ele>
        <time>2015-08-02T12:13:23Z</time>
      </trkpt>
      <trkpt lat="40.261850" lon="-4.904050">
        <ele>2373.0</ele>
        <time>2015-08-02T12:13:24Z</time>
      </trkpt>
      <trkpt lat="40.261933" lon="-4.904133">
        <ele>2375.0</ele>
        <time>2015-08-02T12:13:25Z</time>
      </trkpt>
      <trkpt lat="40.262017" lon="-4.904183">
        <ele>2378.0</ele>
        <time>2015-08-02T12:13:26Z</time>
      </trkpt>
      <trkpt lat="40.262133" lon="-4.904200">
        <ele>2380.0</ele>
        <time>2015-08-02T12:13:27Z</time>
      </trkpt>
      <trkpt lat="40.262233" lon="-4.904150">
        <ele>2380.0</ele>
        <time>2015-08-02T12:13:28Z</time>
      </trkpt>
      <trkpt lat="40.262350" lon="-4.904083">
        <ele>2381.0</ele>
        <time>2015-08-02T12:13:29Z</time>
      </trkpt>
      <trkpt lat="40.262450" lon="-4.903983">
        <ele>2382.0</ele>
        <time>2015-08-02T12:13:30Z</time>
      </trkpt>
      <trkpt lat="40.262517" lon="-4.903867">
        <ele>2384.0</ele>
        <time>2015-08-02T12:13:31Z</time>
      </trkpt>
      <trkpt lat="40.262567" lon="-4.903733">
        <ele>2386.0</ele>
        <time>2015-08-02T12:13:32Z</time>
      </trkpt>
      <trkpt lat="40.262600" lon="-4.903583">
        <ele>2388.0</ele>
        <time>2015-08-02T12:13:33Z</time>
      </trkpt>
      <trkpt lat="40.262617" lon="-4.903433">
        <ele>2390.0</ele>
        <time>2015-08-02T12:13:34Z</time>
      </trkpt>
      <trkpt lat="40.262633" lon="-4.903300">
        <ele>2393.0</ele>
        <time>2015-08-02T12:13:35Z</time>
      </trkpt>
      <trkpt lat="40.262667" lon="-4.903167">
        <ele>2396.0</ele>
        <time>2015-08-02T12:13:36Z</time>
      </trkpt>
      <trkpt lat="40.262667" lon="-4.903050">
        <ele>2398.0</ele>
        <time>2015-08-02T12:13:37Z</time>
      </trkpt>
      <trkpt lat="40.262683" lon="-4.902917">
        <ele>2401.0</ele>
        <time>2015-08-02T12:13:38Z</time>
      </trkpt>
      <trkpt lat="40.262683" lon="-4.902783">
        <ele>2403.0</ele>
        <time>2015-08-02T12:13:39Z</time>
      </trkpt>
      <trkpt lat="40.262683" lon="-4.902667">
        <ele>2405.0</ele>
        <time>2015-08-02T12:13:40Z</time>
      </trkpt>
      <trkpt lat="40.262667" lon="-4.902533">
        <ele>2406.0</ele>
        <time>2015-08-02T12:13:41Z</time>
      </trkpt>
      <trkpt lat="40.262633" lon="-4.902433">
        <ele>2406.0</ele>
        <time>2015-08-02T12:13:42Z</time>
      </trkpt>
      <trkpt lat="40.262567" lon="-4.902367">
        <ele>2407.0</ele>
        <time>2015-08-02T12:13:43Z</time>
      </trkpt>
      <trkpt lat="40.262500" lon="-4.902350">
        <ele>2408.0</ele>
        <time>2015-08-02T12:13:44Z</time>
      </trkpt>
      <trkpt lat="40.262400" lon="-4.902367">
        <ele>2408.0</ele>
        <time>2015-08-02T12:13:45Z</time>
      </trkpt>
      <trkpt lat="40.262300" lon="-4.902433">
        <ele>2409.0</ele>
        <time>2015-08-02T12:13:46Z</time>
      </trkpt>
      <trkpt lat="40.262250" lon="-4.902500">
        <ele>2411.0</ele>
        <time>2015-08-02T12:13:47Z</time>
      </trkpt>
      <trkpt lat="40.262200" lon="-4.902600">
        <ele>2413.0</ele>
        <time>2015-08-02T12:13:48Z</time>
      </trkpt>
      <trkpt lat="40.262183" lon="-4.902717">
        <ele>2417.0</ele>
        <time>2015-08-02T12:13:49Z</time>
      </trkpt>
      <trkpt lat="40.262183" lon="-4.902833">
        <ele>2420.0</ele>
        <time>2015-08-02T12:13:50Z</time>
      </trkpt>
      <trkpt lat="40.262200" lon="-4.902950">
        <ele>2422.0</ele>
        <time>2015-08-02T12:13:51Z</time>
      </trkpt>
      <trkpt lat="40.262233" lon="-4.903050">
        <ele>2423.0</ele>
        <time>2015-08-02T12:13:52Z</time>
      </trkpt>
      <trkpt lat="40.262300" lon="-4.903150">
        <ele>2423.0</ele>
        <time>2015-08-02T12:13:53Z</time>
      </trkpt>
      <trkpt lat="40.262383" lon="-4.903233">
        <ele>2423.0</ele>
        <time>2015-08-02T12:13:54Z</time>
      </trkpt>
      <trkpt lat="40.262483" lon="-4.903283">
        <ele>2423.0</ele>
        <time>2015-08-02T12:13:55Z</time>
      </trkpt>
      <trkpt lat="40.262583" lon="-4.903317">
        <ele>2424.0</ele>
        <time>2015-08-02T12:13:56Z</time>
      </trkpt>
      <trkpt lat="40.262700" lon="-4.903283">
        <ele>2425.0</ele>
        <time>2015-08-02T12:13:57Z</time>
      </trkpt>
      <trkpt lat="40.262783" lon="-4.903217">
        <ele>2425.0</ele>
        <time>2015-08-02T12:13:58Z</time>
      </trkpt>
      <trkpt lat="40.262883" lon="-4.903150">
        <ele>2425.0</ele>
        <time>2015-08-02T12:13:59Z</time>
      </trkpt>
      <trkpt lat="40.262967" lon="-4.903050">
        <ele>2424.0</ele>
        <time>2015-08-02T12:14:00Z</time>
      </trkpt>
      <trkpt lat="40.263033" lon="-4.902933">
        <ele>2426.0</ele>
        <time>2015-08-02T12:14:01Z</time>
      </trkpt>
      <trkpt lat="40.263100" lon="-4.902817">
        <ele>2427.0</ele>
        <time>2015-08-02T12:14:02Z</time>
      </trkpt>
      <trkpt lat="40.263150" lon="-4.902700">
        <ele>2428.0</ele>
        <time>2015-08-02T12:14:03Z</time>
      </trkpt>
      <trkpt lat="40.263217" lon="-4.902583">
        <ele>2429.0</ele>
        <time>2015-08-02T12:14:04Z</time>
      </trkpt>
      <trkpt lat="40.263250" lon="-4.902450">
        <ele>2431.0</ele>
        <time>2015-08-02T12:14:05Z</time>
      </trkpt>
      <trkpt lat="40.263267" lon="-4.902333">
        <ele>2431.0</ele>
        <time>2015-08-02T12:14:06Z</time>
      </trkpt>
      <trkpt lat="40.263250" lon="-4.902183">
        <ele>2431.0</ele>
        <time>2015-08-02T12:14:07Z</time>
      </trkpt>
      <trkpt lat="40.263200" lon="-4.902067">
        <ele>2431.0</ele>
        <time>2015-08-02T12:14:08Z</time>
      </trkpt>
      <trkpt lat="40.263150" lon="-4.901967">
        <ele>2432.0</ele>
        <time>2015-08-02T12:14:09Z</time>
      </trkpt>
      <trkpt lat="40.263083" lon="-4.901900">
        <ele>2432.0</ele>
        <time>2015-08-02T12:14:10Z</time>
      </trkpt>
      <trkpt lat="40.263017" lon="-4.901850">
        <ele>2432.0</ele>
        <time>2015-08-02T12:14:11Z</time>
      </trkpt>
      <trkpt lat="40.262917" lon="-4.901833">
        <ele>2431.0</ele>
        <time>2015-08-02T12:14:12Z</time>
      </trkpt>
      <trkpt lat="40.262833" lon="-4.901817">
        <ele>2432.0</ele>
        <time>2015-08-02T12:14:13Z</time>
      </trkpt>
      <trkpt lat="40.262750" lon="-4.901833">
        <ele>2433.0</ele>
        <time>2015-08-02T12:14:14Z</time>
      </trkpt>
      <trkpt lat="40.262667" lon="-4.901867">
        <ele>2434.0</ele>
        <time>2015-08-02T12:14:15Z</time>
      </trkpt>
      <trkpt lat="40.262583" lon="-4.901933">
        <ele>2435.0</ele>
        <time>2015-08-02T12:14:16Z</time>
      </trkpt>
      <trkpt lat="40.262517" lon="-4.902000">
        <ele>2437.0</ele>
        <time>2015-08-02T12:14:17Z</time>
      </trkpt>
      <trkpt lat="40.262467" lon="-4.902050">
        <ele>2438.0</ele>
        <time>2015-08-02T12:14:18Z</time>
      </trkpt>
      <trkpt lat="40.262417" lon="-4.902117">
        <ele>2440.0</ele>
        <time>2015-08-02T12:14:19Z</time>
      </trkpt>
      <trkpt lat="40.262417" lon="-4.902233">
        <ele>2440.0</ele>
        <time>2015-08-02T12:14:20Z</time>
      </trkpt>
      <trkpt lat="40.262450" lon="-4.902300">
        <ele>2439.0</ele>
        <time>2015-08-02T12:14:21Z</time>
      </trkpt>
      <trkpt lat="40.262517" lon="-4.902400">
        <ele>2436.0</ele>
        <time>2015-08-02T12:14:22Z</time>
      </trkpt>
      <trkpt lat="40.262617" lon="-4.902467">
        <ele>2435.0</ele>
        <time>2015-08-02T12:14:23Z</time>
      </trkpt>
      <trkpt lat="40.262750" lon="-4.902500">
        <ele>2435.0</ele>
        <time>2015-08-02T12:14:24Z</time>
      </trkpt>
      <trkpt lat="40.262833" lon="-4.902500">
        <ele>2436.0</ele>
        <time>2015-08-02T12:14:25Z</time>
      </trkpt>
      <trkpt lat="40.262950" lon="-4.902450">
        <ele>2436.0</ele>
        <time>2015-08-02T12:14:26Z</time>
      </trkpt>
      <trkpt lat="40.263067" lon="-4.902383">
        <ele>2435.0</ele>
        <time>2015-08-02T12:14:27Z</time>
      </trkpt>
      <trkpt lat="40.263183" lon="-4.902300">
        <ele>2435.0</ele>
        <time>2015-08-02T12:14:28Z</time>
      </trkpt>
      <trkpt lat="40.263283" lon="-4.902200">
        <ele>2435.0</ele>
        <time>2015-08-02T12:14:29Z</time>
      </trkpt>
      <trkpt lat="40.263383" lon="-4.902083">
        <ele>2436.0</ele>
        <time>2015-08-02T12:14:30Z</time>
      </trkpt>
      <trkpt lat="40.263467" lon="-4.901917">
        <ele>2438.0</ele>
        <time>2015-08-02T12:14:31Z</time>
      </trkpt>
      <trkpt lat="40.263500" lon="-4.901817">
        <ele>2441.0</ele>
        <time>2015-08-02T12:14:32Z</time>
      </trkpt>
      <trkpt lat="40.263550" lon="-4.901717">
        <ele>2444.0</ele>
        <time>2015-08-02T12:14:33Z</time>
      </trkpt>
      <trkpt lat="40.263600" lon="-4.901617">
        <ele>2446.0</ele>
        <time>2015-08-02T12:14:34Z</time>
      </trkpt>
      <trkpt lat="40.263650" lon="-4.901517">
        <ele>2449.0</ele>
        <time>2015-08-02T12:14:35Z</time>
      </trkpt>
      <trkpt lat="40.263700" lon="-4.901417">
        <ele>2451.0</ele>
        <time>2015-08-02T12:14:36Z</time>
      </trkpt>
      <trkpt lat="40.263700" lon="-4.901317">
        <ele>2453.0</ele>
        <time>2015-08-02T12:14:37Z</time>
      </trkpt>
      <trkpt lat="40.263683" lon="-4.901200">
        <ele>2453.0</ele>
        <time>2015-08-02T12:14:38Z</time>
      </trkpt>
      <trkpt lat="40.263617" lon="-4.901117">
        <ele>2453.0</ele>
        <time>2015-08-02T12:14:39Z</time>
      </trkpt>
      <trkpt lat="40.263533" lon="-4.901067">
        <ele>2455.0</ele>
        <time>2015-08-02T12:14:40Z</time>
      </trkpt>
      <trkpt lat="40.263450" lon="-4.901050">
        <ele>2456.0</ele>
        <time>2015-08-02T12:14:41Z</time>
      </trkpt>
      <trkpt lat="40.263400" lon="-4.901083">
        <ele>2458.0</ele>
        <time>2015-08-02T12:14:42Z</time>
      </trkpt>
      <trkpt lat="40.263367" lon="-4.901133">
        <ele>2459.0</ele>
        <time>2015-08-02T12:14:43Z</time>
      </trkpt>
      <trkpt lat="40.263350" lon="-4.901233">
        <ele>2458.0</ele>
        <time>2015-08-02T12:14:44Z</time>
      </trkpt>
      <trkpt lat="40.263367" lon="-4.901300">
        <ele>2458.0</ele>
        <time>2015-08-02T12:14:45Z</time>
      </trkpt>
      <trkpt lat="40.263400" lon="-4.901400">
        <ele>2457.0</ele>
        <time>2015-08-02T12:14:46Z</time>
      </trkpt>
      <trkpt lat="40.263467" lon="-4.901483">
        <ele>2458.0</ele>
        <time>2015-08-02T12:14:47Z</time>
      </trkpt>
      <trkpt lat="40.263533" lon="-4.901550">
        <ele>2460.0</ele>
        <time>2015-08-02T12:14:48Z</time>
      </trkpt>
      <trkpt lat="40.263617" lon="-4.901583">
        <ele>2462.0</ele>
        <time>2015-08-02T12:14:49Z</time>
      </trkpt>
      <trkpt lat="40.263700" lon="-4.901600">
        <ele>2462.0</ele>
        <time>2015-08-02T12:14:50Z</time>
      </trkpt>
      <trkpt lat="40.263783" lon="-4.901617">
        <ele>2462.0</ele>
        <time>2015-08-02T12:14:51Z</time>
      </trkpt>
      <trkpt lat="40.263900" lon="-4.901617">
        <ele>2461.0</ele>
        <time>2015-08-02T12:14:52Z</time>
      </trkpt>
      <trkpt lat="40.264017" lon="-4.901600">
        <ele>2461.0</ele>
        <time>2015-08-02T12:14:53Z</time>
      </trkpt>
      <trkpt lat="40.264133" lon="-4.901550">
        <ele>2461.0</ele>
        <time>2015-08-02T12:14:54Z</time>
      </trkpt>
      <trkpt lat="40.264250" lon="-4.901450">
        <ele>2461.0</ele>
        <time>2015-08-02T12:14:55Z</time>
      </trkpt>
      <trkpt lat="40.264350" lon="-4.901317">
        <ele>2462.0</ele>
        <time>2015-08-02T12:14:56Z</time>
      </trkpt>
      <trkpt lat="40.264417" lon="-4.901183">
        <ele>2462.0</ele>
        <time>2015-08-02T12:14:57Z</time>
      </trkpt>
      <trkpt lat="40.264467" lon="-4.901033">
        <ele>2463.0</ele>
        <time>2015-08-02T12:14:58Z</time>
      </trkpt>
      <trkpt lat="40.264500" lon="-4.900883">
        <ele>2465.0</ele>
        <time>2015-08-02T12:14:59Z</time>
      </trkpt>
      <trkpt lat="40.264517" lon="-4.900750">
        <ele>2466.0</ele>
        <time>2015-08-02T12:15:00Z</time>
      </trkpt>
      <trkpt lat="40.264533" lon="-4.900600">
        <ele>2467.0</ele>
        <time>2015-08-02T12:15:01Z</time>
      </trkpt>
      <trkpt lat="40.264550" lon="-4.900467">
        <ele>2467.0</ele>
        <time>2015-08-02T12:15:02Z</time>
      </trkpt>
      <trkpt lat="40.264567" lon="-4.900333">
        <ele>2468.0</ele>
        <time>2015-08-02T12:15:03Z</time>
      </trkpt>
      <trkpt lat="40.264600" lon="-4.900217">
        <ele>2471.0</ele>
        <time>2015-08-02T12:15:04Z</time>
      </trkpt>
      <trkpt lat="40.264633" lon="-4.900117">
        <ele>2474.0</ele>
        <time>2015-08-02T12:15:05Z</time>
      </trkpt>
      <trkpt lat="40.264650" lon="-4.900017">
        <ele>2475.0</ele>
        <time>2015-08-02T12:15:06Z</time>
      </trkpt>
      <trkpt lat="40.264667" lon="-4.899917">
        <ele>2474.0</ele>
        <time>2015-08-02T12:15:07Z</time>
      </trkpt>
      <trkpt lat="40.264650" lon="-4.899783">
        <ele>2472.0</ele>
        <time>2015-08-02T12:15:08Z</time>
      </trkpt>
      <trkpt lat="40.264633" lon="-4.899633">
        <ele>2471.0</ele>
        <time>2015-08-02T12:15:09Z</time>
      </trkpt>
      <trkpt lat="40.264617" lon="-4.899467">
        <ele>2471.0</ele>
        <time>2015-08-02T12:15:10Z</time>
      </trkpt>
      <trkpt lat="40.264600" lon="-4.899317">
        <ele>2474.0</ele>
        <time>2015-08-02T12:15:11Z</time>
      </trkpt>
      <trkpt lat="40.264583" lon="-4.899183">
        <ele>2478.0</ele>
        <time>2015-08-02T12:15:12Z</time>
      </trkpt>
      <trkpt lat="40.264567" lon="-4.899050">
        <ele>2481.0</ele>
        <time>2015-08-02T12:15:13Z</time>
      </trkpt>
      <trkpt lat="40.264583" lon="-4.898917">
        <ele>2483.0</ele>
        <time>2015-08-02T12:15:14Z</time>
      </trkpt>
      <trkpt lat="40.264617" lon="-4.898767">
        <ele>2485.0</ele>
        <time>2015-08-02T12:15:15Z</time>
      </trkpt>
      <trkpt lat="40.264683" lon="-4.898617">
        <ele>2485.0</ele>
        <time>2015-08-02T12:15:16Z</time>
      </trkpt>
      <trkpt lat="40.264800" lon="-4.898483">
        <ele>2488.0</ele>
        <time>2015-08-02T12:15:17Z</time>
      </trkpt>
      <trkpt lat="40.264917" lon="-4.898400">
        <ele>2491.0</ele>
        <time>2015-08-02T12:15:18Z</time>
      </trkpt>
      <trkpt lat="40.265050" lon="-4.898383">
        <ele>2495.0</ele>
        <time>2015-08-02T12:15:19Z</time>
      </trkpt>
      <trkpt lat="40.265200" lon="-4.898433">
        <ele>2497.0</ele>
        <time>2015-08-02T12:15:20Z</time>
      </trkpt>
      <trkpt lat="40.265267" lon="-4.898483">
        <ele>2500.0</ele>
        <time>2015-08-02T12:15:21Z</time>
      </trkpt>
      <trkpt lat="40.265350" lon="-4.898567">
        <ele>2501.0</ele>
        <time>2015-08-02T12:15:22Z</time>
      </trkpt>
      <trkpt lat="40.265383" lon="-4.898650">
        <ele>2503.0</ele>
        <time>2015-08-02T12:15:23Z</time>
      </trkpt>
      <trkpt lat="40.265417" lon="-4.898733">
        <ele>2504.0</ele>
        <time>2015-08-02T12:15:24Z</time>
      </trkpt>
      <trkpt lat="40.265417" lon="-4.898817">
        <ele>2505.0</ele>
        <time>2015-08-02T12:15:25Z</time>
      </trkpt>
      <trkpt lat="40.265400" lon="-4.898900">
        <ele>2506.0</ele>
        <time>2015-08-02T12:15:26Z</time>
      </trkpt>
      <trkpt lat="40.265350" lon="-4.898933">
        <ele>2507.0</ele>
        <time>2015-08-02T12:15:27Z</time>
      </trkpt>
      <trkpt lat="40.265300" lon="-4.898933">
        <ele>2507.0</ele>
        <time>2015-08-02T12:15:28Z</time>
      </trkpt>
      <trkpt lat="40.265217" lon="-4.898850">
        <ele>2506.0</ele>
        <time>2015-08-02T12:15:29Z</time>
      </trkpt>
      <trkpt lat="40.265183" lon="-4.898783">
        <ele>2506.0</ele>
        <time>2015-08-02T12:15:30Z</time>
      </trkpt>
      <trkpt lat="40.265133" lon="-4.898650">
        <ele>2507.0</ele>
        <time>2015-08-02T12:15:31Z</time>
      </trkpt>
      <trkpt lat="40.265133" lon="-4.898500">
        <ele>2510.0</ele>
        <time>2015-08-02T12:15:32Z</time>
      </trkpt>
      <trkpt lat="40.265150" lon="-4.898350">
        <ele>2511.0</ele>
        <time>2015-08-02T12:15:33Z</time>
      </trkpt>
      <trkpt lat="40.265183" lon="-4.898200">
        <ele>2513.0</ele>
        <time>2015-08-02T12:15:34Z</time>
      </trkpt>
      <trkpt lat="40.265200" lon="-4.898050">
        <ele>2515.0</ele>
        <time>2015-08-02T12:15:35Z</time>
      </trkpt>
      <trkpt lat="40.265233" lon="-4.897917">
        <ele>2517.0</ele>
        <time>2015-08-02T12:15:36Z</time>
      </trkpt>
      <trkpt lat="40.265300" lon="-4.897783">
        <ele>2519.0</ele>
        <time>2015-08-02T12:15:37Z</time>
      </trkpt>
      <trkpt lat="40.265383" lon="-4.897667">
        <ele>2520.0</ele>
        <time>2015-08-02T12:15:38Z</time>
      </trkpt>
      <trkpt lat="40.265500" lon="-4.897550">
        <ele>2521.0</ele>
        <time>2015-08-02T12:15:39Z</time>
      </trkpt>
      <trkpt lat="40.265600" lon="-4.897483">
        <ele>2524.0</ele>
        <time>2015-08-02T12:15:40Z</time>
      </trkpt>
      <trkpt lat="40.265717" lon="-4.897467">
        <ele>2526.0</ele>
        <time>2015-08-02T12:15:41Z</time>
      </trkpt>
      <trkpt lat="40.265800" lon="-4.897467">
        <ele>2528.0</ele>
        <time>2015-08-02T12:15:42Z</time>
      </trkpt>
      <trkpt lat="40.265883" lon="-4.897500">
        <ele>2528.0</ele>
        <time>2015-08-02T12:15:43Z</time>
      </trkpt>
      <trkpt lat="40.265950" lon="-4.897533">
        <ele>2528.0</ele>
        <time>2015-08-02T12:15:44Z</time>
      </trkpt>
      <trkpt lat="40.266017" lon="-4.897600">
        <ele>2527.0</ele>
        <time>2015-08-02T12:15:45Z</time>
      </trkpt>
      <trkpt lat="40.266050" lon="-4.897667">
        <ele>2526.0</ele>
        <time>2015-08-02T12:15:46Z</time>
      </trkpt>
      <trkpt lat="40.266067" lon="-4.897750">
        <ele>2526.0</ele>
        <time>2015-08-02T12:15:47Z</time>
      </trkpt>
      <trkpt lat="40.266083" lon="-4.897833">
        <ele>2526.0</ele>
        <time>2015-08-02T12:15:48Z</time>
      </trkpt>
      <trkpt lat="40.266083" lon="-4.897933">
        <ele>2526.0</ele>
        <time>2015-08-02T12:15:49Z</time>
      </trkpt>
      <trkpt lat="40.266050" lon="-4.898017">
        <ele>2528.0</ele>
        <time>2015-08-02T12:15:50Z</time>
      </trkpt>
      <trkpt lat="40.266017" lon="-4.898083">
        <ele>2530.0</ele>
        <time>2015-08-02T12:15:51Z</time>
      </trkpt>
      <trkpt lat="40.265967" lon="-4.898117">
        <ele>2531.0</ele>
        <time>2015-08-02T12:15:52Z</time>
      </trkpt>
      <trkpt lat="40.265900" lon="-4.898117">
        <ele>2532.0</ele>
        <time>2015-08-02T12:15:53Z</time>
      </trkpt>
      <trkpt lat="40.265850" lon="-4.898100">
        <ele>2533.0</ele>
        <time>2015-08-02T12:15:54Z</time>
      </trkpt>
      <trkpt lat="40.265783" lon="-4.898050">
        <ele>2533.0</ele>
        <time>2015-08-02T12:15:55Z</time>
      </trkpt>
      <trkpt lat="40.265717" lon="-4.897983">
        <ele>2533.0</ele>
        <time>2015-08-02T12:15:56Z</time>
      </trkpt>
      <trkpt lat="40.265667" lon="-4.897900">
        <ele>2534.0</ele>
        <time>2015-08-02T12:15:57Z</time>
      </trkpt>
      <trkpt lat="40.265617" lon="-4.897783">
        <ele>2536.0</ele>
        <time>2015-08-02T12:15:58Z</time>
      </trkpt>
      <trkpt lat="40.265583" lon="-4.897683">
        <ele>2538.0</ele>
        <time>2015-08-02T12:15:59Z</time>
      </trkpt>
      <trkpt lat="40.265550" lon="-4.897583">
        <ele>2540.0</ele>
        <time>2015-08-02T12:16:00Z</time>
      </trkpt>
      <trkpt lat="40.265517" lon="-4.897467">
        <ele>2541.0</ele>
        <time>2015-08-02T12:16:01Z</time>
      </trkpt>
      <trkpt lat="40.265483" lon="-4.897350">
        <ele>2542.0</ele>
        <time>2015-08-02T12:16:02Z</time>
      </trkpt>
      <trkpt lat="40.265467" lon="-4.897217">
        <ele>2543.0</ele>
        <time>2015-08-02T12:16:03Z</time>
      </trkpt>
      <trkpt lat="40.265433" lon="-4.897067">
        <ele>2544.0</ele>
        <time>2015-08-02T12:16:04Z</time>
      </trkpt>
      <trkpt lat="40.265417" lon="-4.896933">
        <ele>2545.0</ele>
        <time>2015-08-02T12:16:05Z</time>
      </trkpt>
      <trkpt lat="40.265400" lon="-4.896783">
        <ele>2546.0</ele>
        <time>2015-08-02T12:16:06Z</time>
      </trkpt>
      <trkpt lat="40.265400" lon="-4.896633">
        <ele>2548.0</ele>
        <time>2015-08-02T12:16:07Z</time>
      </trkpt>
      <trkpt lat="40.265433" lon="-4.896500">
        <ele>2548.0</ele>
        <time>2015-08-02T12:16:08Z</time>
      </trkpt>
      <trkpt lat="40.265483" lon="-4.896367">
        <ele>2548.0</ele>
        <time>2015-08-02T12:16:09Z</time>
      </trkpt>
      <trkpt lat="40.265567" lon="-4.896250">
        <ele>2547.0</ele>
        <time>2015-08-02T12:16:10Z</time>
      </trkpt>
      <trkpt lat="40.265650" lon="-4.896150">
        <ele>2547.0</ele>
        <time>2015-08-02T12:16:11Z</time>
      </trkpt>
      <trkpt lat="40.265750" lon="-4.896067">
        <ele>2548.0</ele>
        <time>2015-08-02T12:16:12Z</time>
      </trkpt>
      <trkpt lat="40.265833" lon="-4.895967">
        <ele>2548.0</ele>
        <time>2015-08-02T12:16:13Z</time>
      </trkpt>
      <trkpt lat="40.265917" lon="-4.895867">
        <ele>2549.0</ele>
        <time>2015-08-02T12:16:14Z</time>
      </trkpt>
      <trkpt lat="40.266000" lon="-4.895750">
        <ele>2549.0</ele>
        <time>2015-08-02T12:16:15Z</time>
      </trkpt>
      <trkpt lat="40.266067" lon="-4.895650">
        <ele>2549.0</ele>
        <time>2015-08-02T12:16:16Z</time>
      </trkpt>
      <trkpt lat="40.266133" lon="-4.895517">
        <ele>2549.0</ele>
        <time>2015-08-02T12:16:17Z</time>
      </trkpt>
      <trkpt lat="40.266183" lon="-4.895383">
        <ele>2548.0</ele>
        <time>2015-08-02T12:16:18Z</time>
      </trkpt>
      <trkpt lat="40.266233" lon="-4.895250">
        <ele>2547.0</ele>
        <time>2015-08-02T12:16:19Z</time>
      </trkpt>
      <trkpt lat="40.266300" lon="-4.895100">
        <ele>2545.0</ele>
        <time>2015-08-02T12:16:20Z</time>
      </trkpt>
      <trkpt lat="40.266350" lon="-4.894950">
        <ele>2544.0</ele>
        <time>2015-08-02T12:16:21Z</time>
      </trkpt>
      <trkpt lat="40.266400" lon="-4.894783">
        <ele>2544.0</ele>
        <time>2015-08-02T12:16:22Z</time>
      </trkpt>
      <trkpt lat="40.266467" lon="-4.894617">
        <ele>2543.0</ele>
        <time>2015-08-02T12:16:23Z</time>
      </trkpt>
      <trkpt lat="40.266517" lon="-4.894467">
        <ele>2541.0</ele>
        <time>2015-08-02T12:16:24Z</time>
      </trkpt>
      <trkpt lat="40.266567" lon="-4.894317">
        <ele>2539.0</ele>
        <time>2015-08-02T12:16:25Z</time>
      </trkpt>
      <trkpt lat="40.266633" lon="-4.894150">
        <ele>2536.0</ele>
        <time>2015-08-02T12:16:26Z</time>
      </trkpt>
      <trkpt lat="40.266733" lon="-4.893933">
        <ele>2533.0</ele>
        <time>2015-08-02T12:16:27Z</time>
      </trkpt>
      <trkpt lat="40.266783" lon="-4.893800">
        <ele>2531.0</ele>
        <time>2015-08-02T12:16:28Z</time>
      </trkpt>
      <trkpt lat="40.266867" lon="-4.893633">
        <ele>2530.0</ele>
        <time>2015-08-02T12:16:29Z</time>
      </trkpt>
      <trkpt lat="40.266950" lon="-4.893467">
        <ele>2529.0</ele>
        <time>2015-08-02T12:16:30Z</time>
      </trkpt>
      <trkpt lat="40.267033" lon="-4.893317">
        <ele>2530.0</ele>
        <time>2015-08-02T12:16:31Z</time>
      </trkpt>
      <trkpt lat="40.267100" lon="-4.893167">
        <ele>2531.0</ele>
        <time>2015-08-02T12:16:32Z</time>
      </trkpt>
      <trkpt lat="40.267167" lon="-4.893033">
        <ele>2531.0</ele>
        <time>2015-08-02T12:16:33Z</time>
      </trkpt>
      <trkpt lat="40.267233" lon="-4.892883">
        <ele>2530.0</ele>
        <time>2015-08-02T12:16:34Z</time>
      </trkpt>
      <trkpt lat="40.267283" lon="-4.892733">
        <ele>2527.0</ele>
        <time>2015-08-02T12:16:35Z</time>
      </trkpt>
      <trkpt lat="40.267333" lon="-4.892567">
        <ele>2522.0</ele>
        <time>2015-08-02T12:16:36Z</time>
      </trkpt>
      <trkpt lat="40.267383" lon="-4.892383">
        <ele>2518.0</ele>
        <time>2015-08-02T12:16:37Z</time>
      </trkpt>
      <trkpt lat="40.267450" lon="-4.892183">
        <ele>2513.0</ele>
        <time>2015-08-02T12:16:38Z</time>
      </trkpt>
      <trkpt lat="40.267500" lon="-4.891983">
        <ele>2510.0</ele>
        <time>2015-08-02T12:16:39Z</time>
      </trkpt>
      <trkpt lat="40.267583" lon="-4.891800">
        <ele>2507.0</ele>
        <time>2015-08-02T12:16:40Z</time>
      </trkpt>
      <trkpt lat="40.267650" lon="-4.891633">
        <ele>2505.0</ele>
        <time>2015-08-02T12:16:41Z</time>
      </trkpt>
      <trkpt lat="40.267700" lon="-4.891467">
        <ele>2502.0</ele>
        <time>2015-08-02T12:16:42Z</time>
      </trkpt>
      <trkpt lat="40.267750" lon="-4.891300">
        <ele>2498.0</ele>
        <time>2015-08-02T12:16:43Z</time>
      </trkpt>
      <trkpt lat="40.267783" lon="-4.891117">
        <ele>2493.0</ele>
        <time>2015-08-02T12:16:44Z</time>
      </trkpt>
      <trkpt lat="40.267833" lon="-4.890933">
        <ele>2489.0</ele>
        <time>2015-08-02T12:16:45Z</time>
      </trkpt>
      <trkpt lat="40.267917" lon="-4.890700">
        <ele>2484.0</ele>
        <time>2015-08-02T12:16:46Z</time>
      </trkpt>
      <trkpt lat="40.267967" lon="-4.890567">
        <ele>2480.0</ele>
        <time>2015-08-02T12:16:47Z</time>
      </trkpt>
      <trkpt lat="40.268033" lon="-4.890383">
        <ele>2477.0</ele>
        <time>2015-08-02T12:16:48Z</time>
      </trkpt>
      <trkpt lat="40.268100" lon="-4.890200">
        <ele>2474.0</ele>
        <time>2015-08-02T12:16:49Z</time>
      </trkpt>
      <trkpt lat="40.268150" lon="-4.890017">
        <ele>2471.0</ele>
        <time>2015-08-02T12:16:50Z</time>
      </trkpt>
      <trkpt lat="40.268217" lon="-4.889833">
        <ele>2468.0</ele>
        <time>2015-08-02T12:16:51Z</time>
      </trkpt>
      <trkpt lat="40.268267" lon="-4.889633">
        <ele>2465.0</ele>
        <time>2015-08-02T12:16:52Z</time>
      </trkpt>
      <trkpt lat="40.268333" lon="-4.889450">
        <ele>2462.0</ele>
        <time>2015-08-02T12:16:53Z</time>
      </trkpt>
      <trkpt lat="40.268400" lon="-4.889267">
        <ele>2458.0</ele>
        <time>2015-08-02T12:16:54Z</time>
      </trkpt>
      <trkpt lat="40.268467" lon="-4.889067">
        <ele>2455.0</ele>
        <time>2015-08-02T12:16:55Z</time>
      </trkpt>
      <trkpt lat="40.268550" lon="-4.888850">
        <ele>2452.0</ele>
        <time>2015-08-02T12:16:56Z</time>
      </trkpt>
      <trkpt lat="40.268617" lon="-4.888633">
        <ele>2449.0</ele>
        <time>2015-08-02T12:16:57Z</time>
      </trkpt>
      <trkpt lat="40.268683" lon="-4.888433">
        <ele>2447.0</ele>
        <time>2015-08-02T12:16:58Z</time>
      </trkpt>
      <trkpt lat="40.268750" lon="-4.888217">
        <ele>2446.0</ele>
        <time>2015-08-02T12:16:59Z</time>
      </trkpt>
      <trkpt lat="40.268817" lon="-4.888017">
        <ele>2444.0</ele>
        <time>2015-08-02T12:17:00Z</time>
      </trkpt>
      <trkpt lat="40.268883" lon="-4.887800">
        <ele>2442.0</ele>
        <time>2015-08-02T12:17:01Z</time>
      </trkpt>
      <trkpt lat="40.268933" lon="-4.887600">
        <ele>2439.0</ele>
        <time>2015-08-02T12:17:02Z</time>
      </trkpt>
      <trkpt lat="40.269000" lon="-4.887400">
        <ele>2436.0</ele>
        <time>2015-08-02T12:17:03Z</time>
      </trkpt>
      <trkpt lat="40.269067" lon="-4.887183">
        <ele>2434.0</ele>
        <time>2015-08-02T12:17:04Z</time>
      </trkpt>
      <trkpt lat="40.269117" lon="-4.886983">
        <ele>2432.0</ele>
        <time>2015-08-02T12:17:05Z</time>
      </trkpt>
      <trkpt lat="40.269167" lon="-4.886800">
        <ele>2431.0</ele>
        <time>2015-08-02T12:17:06Z</time>
      </trkpt>
      <trkpt lat="40.269217" lon="-4.886617">
        <ele>2431.0</ele>
        <time>2015-08-02T12:17:07Z</time>
      </trkpt>
      <trkpt lat="40.269267" lon="-4.886433">
        <ele>2429.0</ele>
        <time>2015-08-02T12:17:08Z</time>
      </trkpt>
      <trkpt lat="40.269333" lon="-4.886267">
        <ele>2426.0</ele>
        <time>2015-08-02T12:17:09Z</time>
      </trkpt>
      <trkpt lat="40.269383" lon="-4.886083">
        <ele>2422.0</ele>
        <time>2015-08-02T12:17:10Z</time>
      </trkpt>
      <trkpt lat="40.269450" lon="-4.885883">
        <ele>2418.0</ele>
        <time>2015-08-02T12:17:11Z</time>
      </trkpt>
      <trkpt lat="40.269500" lon="-4.885700">
        <ele>2414.0</ele>
        <time>2015-08-02T12:17:12Z</time>
      </trkpt>
      <trkpt lat="40.269550" lon="-4.885500">
        <ele>2411.0</ele>
        <time>2015-08-02T12:17:13Z</time>
      </trkpt>
      <trkpt lat="40.269583" lon="-4.885300">
        <ele>2408.0</ele>
        <time>2015-08-02T12:17:14Z</time>
      </trkpt>
      <trkpt lat="40.269633" lon="-4.885100">
        <ele>2406.0</ele>
        <time>2015-08-02T12:17:15Z</time>
      </trkpt>
      <trkpt lat="40.269683" lon="-4.884917">
        <ele>2404.0</ele>
        <time>2015-08-02T12:17:16Z</time>
      </trkpt>
      <trkpt lat="40.269733" lon="-4.884733">
        <ele>2403.0</ele>
        <time>2015-08-02T12:17:17Z</time>
      </trkpt>
      <trkpt lat="40.269783" lon="-4.884550">
        <ele>2401.0</ele>
        <time>2015-08-02T12:17:18Z</time>
      </trkpt>
      <trkpt lat="40.269833" lon="-4.884367">
        <ele>2399.0</ele>
        <time>2015-08-02T12:17:19Z</time>
      </trkpt>
      <trkpt lat="40.269867" lon="-4.884183">
        <ele>2397.0</ele>
        <time>2015-08-02T12:17:20Z</time>
      </trkpt>
      <trkpt lat="40.269917" lon="-4.884017">
        <ele>2395.0</ele>
        <time>2015-08-02T12:17:21Z</time>
      </trkpt>
      <trkpt lat="40.269983" lon="-4.883833">
        <ele>2393.0</ele>
        <time>2015-08-02T12:17:22Z</time>
      </trkpt>
      <trkpt lat="40.270033" lon="-4.883650">
        <ele>2391.0</ele>
        <time>2015-08-02T12:17:23Z</time>
      </trkpt>
      <trkpt lat="40.270100" lon="-4.883483">
        <ele>2390.0</ele>
        <time>2015-08-02T12:17:24Z</time>
      </trkpt>
      <trkpt lat="40.270183" lon="-4.883317">
        <ele>2389.0</ele>
        <time>2015-08-02T12:17:25Z</time>
      </trkpt>
      <trkpt lat="40.270250" lon="-4.883133">
        <ele>2387.0</ele>
        <time>2015-08-02T12:17:26Z</time>
      </trkpt>
      <trkpt lat="40.270333" lon="-4.882967">
        <ele>2386.0</ele>
        <time>2015-08-02T12:17:27Z</time>
      </trkpt>
      <trkpt lat="40.270417" lon="-4.882817">
        <ele>2384.0</ele>
        <time>2015-08-02T12:17:28Z</time>
      </trkpt>
      <trkpt lat="40.270517" lon="-4.882650">
        <ele>2383.0</ele>
        <time>2015-08-02T12:17:29Z</time>
      </trkpt>
      <trkpt lat="40.270617" lon="-4.882483">
        <ele>2382.0</ele>
        <time>2015-08-02T12:17:30Z</time>
      </trkpt>
      <trkpt lat="40.270717" lon="-4.882333">
        <ele>2382.0</ele>
        <time>2015-08-02T12:17:31Z</time>
      </trkpt>
      <trkpt lat="40.270800" lon="-4.882167">
        <ele>2382.0</ele>
        <time>2015-08-02T12:17:32Z</time>
      </trkpt>
      <trkpt lat="40.270900" lon="-4.882017">
        <ele>2382.0</ele>
        <time>2015-08-02T12:17:33Z</time>
      </trkpt>
      <trkpt lat="40.271000" lon="-4.881867">
        <ele>2381.0</ele>
        <time>2015-08-02T12:17:34Z</time>
      </trkpt>
      <trkpt lat="40.271100" lon="-4.881717">
        <ele>2380.0</ele>
        <time>2015-08-02T12:17:35Z</time>
      </trkpt>
      <trkpt lat="40.271200" lon="-4.881550">
        <ele>2380.0</ele>
        <time>2015-08-02T12:17:36Z</time>
      </trkpt>
      <trkpt lat="40.271283" lon="-4.881383">
        <ele>2380.0</ele>
        <time>2015-08-02T12:17:37Z</time>
      </trkpt>
      <trkpt lat="40.271367" lon="-4.881200">
        <ele>2379.0</ele>
        <time>2015-08-02T12:17:38Z</time>
      </trkpt>
      <trkpt lat="40.271450" lon="-4.881050">
        <ele>2380.0</ele>
        <time>2015-08-02T12:17:39Z</time>
      </trkpt>
      <trkpt lat="40.271550" lon="-4.880900">
        <ele>2379.0</ele>
        <time>2015-08-02T12:17:40Z</time>
      </trkpt>
      <trkpt lat="40.271650" lon="-4.880733">
        <ele>2378.0</ele>
        <time>2015-08-02T12:17:41Z</time>
      </trkpt>
      <trkpt lat="40.271750" lon="-4.880583">
        <ele>2376.0</ele>
        <time>2015-08-02T12:17:42Z</time>
      </trkpt>
      <trkpt lat="40.271850" lon="-4.880417">
        <ele>2375.0</ele>
        <time>2015-08-02T12:17:43Z</time>
      </trkpt>
      <trkpt lat="40.271933" lon="-4.880250">
        <ele>2374.0</ele>
        <time>2015-08-02T12:17:44Z</time>
      </trkpt>
      <trkpt lat="40.272033" lon="-4.880083">
        <ele>2374.0</ele>
        <time>2015-08-02T12:17:45Z</time>
      </trkpt>
      <trkpt lat="40.272117" lon="-4.879917">
        <ele>2373.0</ele>
        <time>2015-08-02T12:17:46Z</time>
      </trkpt>
      <trkpt lat="40.272200" lon="-4.879767">
        <ele>2373.0</ele>
        <time>2015-08-02T12:17:47Z</time>
      </trkpt>
      <trkpt lat="40.272300" lon="-4.879600">
        <ele>2373.0</ele>
        <time>2015-08-02T12:17:48Z</time>
      </trkpt>
      <trkpt lat="40.272383" lon="-4.879450">
        <ele>2372.0</ele>
        <time>2015-08-02T12:17:49Z</time>
      </trkpt>
      <trkpt lat="40.272467" lon="-4.879283">
        <ele>2371.0</ele>
        <time>2015-08-02T12:17:50Z</time>
      </trkpt>
      <trkpt lat="40.272567" lon="-4.879133">
        <ele>2370.0</ele>
        <time>2015-08-02T12:17:51Z</time>
      </trkpt>
      <trkpt lat="40.272667" lon="-4.878967">
        <ele>2368.0</ele>
        <time>2015-08-02T12:17:52Z</time>
      </trkpt>
      <trkpt lat="40.272767" lon="-4.878800">
        <ele>2367.0</ele>
        <time>2015-08-02T12:17:53Z</time>
      </trkpt>
      <trkpt lat="40.272867" lon="-4.878633">
        <ele>2366.0</ele>
        <time>2015-08-02T12:17:54Z</time>
      </trkpt>
      <trkpt lat="40.272967" lon="-4.878450">
        <ele>2367.0</ele>
        <time>2015-08-02T12:17:55Z</time>
      </trkpt>
      <trkpt lat="40.273067" lon="-4.878267">
        <ele>2369.0</ele>
        <time>2015-08-02T12:17:56Z</time>
      </trkpt>
      <trkpt lat="40.273150" lon="-4.878100">
        <ele>2372.0</ele>
        <time>2015-08-02T12:17:57Z</time>
      </trkpt>
      <trkpt lat="40.273233" lon="-4.877933">
        <ele>2375.0</ele>
        <time>2015-08-02T12:17:58Z</time>
      </trkpt>
      <trkpt lat="40.273283" lon="-4.877783">
        <ele>2378.0</ele>
        <time>2015-08-02T12:17:59Z</time>
      </trkpt>
      <trkpt lat="40.273350" lon="-4.877667">
        <ele>2379.0</ele>
        <time>2015-08-02T12:18:00Z</time>
      </trkpt>
      <trkpt lat="40.273433" lon="-4.877533">
        <ele>2378.0</ele>
        <time>2015-08-02T12:18:01Z</time>
      </trkpt>
      <trkpt lat="40.273517" lon="-4.877417">
        <ele>2377.0</ele>
        <time>2015-08-02T12:18:02Z</time>
      </trkpt>
      <trkpt lat="40.273617" lon="-4.877300">
        <ele>2376.0</ele>
        <time>2015-08-02T12:18:03Z</time>
      </trkpt>
      <trkpt lat="40.273717" lon="-4.877167">
        <ele>2376.0</ele>
        <time>2015-08-02T12:18:04Z</time>
      </trkpt>
      <trkpt lat="40.273833" lon="-4.877083">
        <ele>2378.0</ele>
        <time>2015-08-02T12:18:05Z</time>
      </trkpt>
      <trkpt lat="40.274000" lon="-4.877017">
        <ele>2381.0</ele>
        <time>2015-08-02T12:18:06Z</time>
      </trkpt>
      <trkpt lat="40.274067" lon="-4.877017">
        <ele>2383.0</ele>
        <time>2015-08-02T12:18:07Z</time>
      </trkpt>
      <trkpt lat="40.274150" lon="-4.877067">
        <ele>2384.0</ele>
        <time>2015-08-02T12:18:08Z</time>
      </trkpt>
      <trkpt lat="40.274217" lon="-4.877133">
        <ele>2385.0</ele>
        <time>2015-08-02T12:18:09Z</time>
      </trkpt>
      <trkpt lat="40.274267" lon="-4.877200">
        <ele>2386.0</ele>
        <time>2015-08-02T12:18:10Z</time>
      </trkpt>
      <trkpt lat="40.274300" lon="-4.877283">
        <ele>2388.0</ele>
        <time>2015-08-02T12:18:11Z</time>
      </trkpt>
      <trkpt lat="40.274333" lon="-4.877333">
        <ele>2392.0</ele>
        <time>2015-08-02T12:18:12Z</time>
      </trkpt>
      <trkpt lat="40.274367" lon="-4.877383">
        <ele>2394.0</ele>
        <time>2015-08-02T12:18:13Z</time>
      </trkpt>
      <trkpt lat="40.274400" lon="-4.877433">
        <ele>2396.0</ele>
        <time>2015-08-02T12:18:14Z</time>
      </trkpt>
      <trkpt lat="40.274417" lon="-4.877483">
        <ele>2398.0</ele>
        <time>2015-08-02T12:18:15Z</time>
      </trkpt>
      <trkpt lat="40.274417" lon="-4.877550">
        <ele>2399.0</ele>
        <time>2015-08-02T12:18:16Z</time>
      </trkpt>
      <trkpt lat="40.274367" lon="-4.877600">
        <ele>2399.0</ele>
        <time>2015-08-02T12:18:17Z</time>
      </trkpt>
      <trkpt lat="40.274250" lon="-4.877633">
        <ele>2400.0</ele>
        <time>2015-08-02T12:18:18Z</time>
      </trkpt>
      <trkpt lat="40.274217" lon="-4.877617">
        <ele>2403.0</ele>
        <time>2015-08-02T12:18:19Z</time>
      </trkpt>
      <trkpt lat="40.274150" lon="-4.877567">
        <ele>2406.0</ele>
        <time>2015-08-02T12:18:20Z</time>
      </trkpt>
      <trkpt lat="40.274083" lon="-4.877483">
        <ele>2408.0</ele>
        <time>2015-08-02T12:18:21Z</time>
      </trkpt>
      <trkpt lat="40.274033" lon="-4.877383">
        <ele>2409.0</ele>
        <time>2015-08-02T12:18:22Z</time>
      </trkpt>
      <trkpt lat="40.274000" lon="-4.877233">
        <ele>2409.0</ele>
        <time>2015-08-02T12:18:23Z</time>
      </trkpt>
      <trkpt lat="40.273983" lon="-4.877067">
        <ele>2409.0</ele>
        <time>2015-08-02T12:18:24Z</time>
      </trkpt>
      <trkpt lat="40.274000" lon="-4.876867">
        <ele>2409.0</ele>
        <time>2015-08-02T12:18:25Z</time>
      </trkpt>
      <trkpt lat="40.274033" lon="-4.876667">
        <ele>2409.0</ele>
        <time>2015-08-02T12:18:26Z</time>
      </trkpt>
      <trkpt lat="40.274100" lon="-4.876483">
        <ele>2409.0</ele>
        <time>2015-08-02T12:18:27Z</time>
      </trkpt>
      <trkpt lat="40.274183" lon="-4.876333">
        <ele>2409.0</ele>
        <time>2015-08-02T12:18:28Z</time>
      </trkpt>
      <trkpt lat="40.274300" lon="-4.876200">
        <ele>2409.0</ele>
        <time>2015-08-02T12:18:29Z</time>
      </trkpt>
      <trkpt lat="40.274417" lon="-4.876083">
        <ele>2410.0</ele>
        <time>2015-08-02T12:18:30Z</time>
      </trkpt>
      <trkpt lat="40.274517" lon="-4.876000">
        <ele>2411.0</ele>
        <time>2015-08-02T12:18:31Z</time>
      </trkpt>
      <trkpt lat="40.274633" lon="-4.875917">
        <ele>2412.0</ele>
        <time>2015-08-02T12:18:32Z</time>
      </trkpt>
      <trkpt lat="40.274733" lon="-4.875867">
        <ele>2413.0</ele>
        <time>2015-08-02T12:18:33Z</time>
      </trkpt>
      <trkpt lat="40.274833" lon="-4.875833">
        <ele>2413.0</ele>
        <time>2015-08-02T12:18:34Z</time>
      </trkpt>
      <trkpt lat="40.274933" lon="-4.875833">
        <ele>2411.0</ele>
        <time>2015-08-02T12:18:35Z</time>
      </trkpt>
      <trkpt lat="40.275050" lon="-4.875867">
        <ele>2410.0</ele>
        <time>2015-08-02T12:18:36Z</time>
      </trkpt>
      <trkpt lat="40.275133" lon="-4.875917">
        <ele>2410.0</ele>
        <time>2015-08-02T12:18:37Z</time>
      </trkpt>
      <trkpt lat="40.275217" lon="-4.875983">
        <ele>2410.0</ele>
        <time>2015-08-02T12:18:38Z</time>
      </trkpt>
      <trkpt lat="40.275300" lon="-4.876050">
        <ele>2411.0</ele>
        <time>2015-08-02T12:18:39Z</time>
      </trkpt>
      <trkpt lat="40.275383" lon="-4.876083">
        <ele>2412.0</ele>
        <time>2015-08-02T12:18:40Z</time>
      </trkpt>
      <trkpt lat="40.275467" lon="-4.876133">
        <ele>2412.0</ele>
        <time>2015-08-02T12:18:41Z</time>
      </trkpt>
      <trkpt lat="40.275550" lon="-4.876183">
        <ele>2412.0</ele>
        <time>2015-08-02T12:18:42Z</time>
      </trkpt>
      <trkpt lat="40.275617" lon="-4.876267">
        <ele>2411.0</ele>
        <time>2015-08-02T12:18:43Z</time>
      </trkpt>
      <trkpt lat="40.275683" lon="-4.876400">
        <ele>2412.0</ele>
        <time>2015-08-02T12:18:44Z</time>
      </trkpt>
      <trkpt lat="40.275733" lon="-4.876483">
        <ele>2412.0</ele>
        <time>2015-08-02T12:18:45Z</time>
      </trkpt>
      <trkpt lat="40.275783" lon="-4.876600">
        <ele>2414.0</ele>
        <time>2015-08-02T12:18:46Z</time>
      </trkpt>
      <trkpt lat="40.275817" lon="-4.876717">
        <ele>2417.0</ele>
        <time>2015-08-02T12:18:47Z</time>
      </trkpt>
      <trkpt lat="40.275833" lon="-4.876833">
        <ele>2420.0</ele>
        <time>2015-08-02T12:18:48Z</time>
      </trkpt>
      <trkpt lat="40.275850" lon="-4.876933">
        <ele>2422.0</ele>
        <time>2015-08-02T12:18:49Z</time>
      </trkpt>
      <trkpt lat="40.275867" lon="-4.877033">
        <ele>2424.0</ele>
        <time>2015-08-02T12:18:50Z</time>
      </trkpt>
      <trkpt lat="40.275867" lon="-4.877133">
        <ele>2427.0</ele>
        <time>2015-08-02T12:18:51Z</time>
      </trkpt>
      <trkpt lat="40.275867" lon="-4.877183">
        <ele>2429.0</ele>
        <time>2015-08-02T12:18:52Z</time>
      </trkpt>
      <trkpt lat="40.275833" lon="-4.877217">
        <ele>2431.0</ele>
        <time>2015-08-02T12:18:53Z</time>
      </trkpt>
      <trkpt lat="40.275800" lon="-4.877250">
        <ele>2431.0</ele>
        <time>2015-08-02T12:18:54Z</time>
      </trkpt>
      <trkpt lat="40.275733" lon="-4.877267">
        <ele>2430.0</ele>
        <time>2015-08-02T12:18:55Z</time>
      </trkpt>
      <trkpt lat="40.275667" lon="-4.877267">
        <ele>2429.0</ele>
        <time>2015-08-02T12:18:56Z</time>
      </trkpt>
      <trkpt lat="40.275583" lon="-4.877267">
        <ele>2428.0</ele>
        <time>2015-08-02T12:18:57Z</time>
      </trkpt>
      <trkpt lat="40.275517" lon="-4.877250">
        <ele>2427.0</ele>
        <time>2015-08-02T12:18:58Z</time>
      </trkpt>
      <trkpt lat="40.275417" lon="-4.877200">
        <ele>2428.0</ele>
        <time>2015-08-02T12:18:59Z</time>
      </trkpt>
      <trkpt lat="40.275367" lon="-4.877167">
        <ele>2428.0</ele>
        <time>2015-08-02T12:19:00Z</time>
      </trkpt>
      <trkpt lat="40.275300" lon="-4.877100">
        <ele>2428.0</ele>
        <time>2015-08-02T12:19:01Z</time>
      </trkpt>
      <trkpt lat="40.275233" lon="-4.877000">
        <ele>2427.0</ele>
        <time>2015-08-02T12:19:02Z</time>
      </trkpt>
      <trkpt lat="40.275167" lon="-4.876867">
        <ele>2426.0</ele>
        <time>2015-08-02T12:19:03Z</time>
      </trkpt>
      <trkpt lat="40.275117" lon="-4.876717">
        <ele>2425.0</ele>
        <time>2015-08-02T12:19:04Z</time>
      </trkpt>
      <trkpt lat="40.275083" lon="-4.876567">
        <ele>2425.0</ele>
        <time>2015-08-02T12:19:05Z</time>
      </trkpt>
      <trkpt lat="40.275050" lon="-4.876400">
        <ele>2425.0</ele>
        <time>2015-08-02T12:19:06Z</time>
      </trkpt>
      <trkpt lat="40.275033" lon="-4.876233">
        <ele>2426.0</ele>
        <time>2015-08-02T12:19:07Z</time>
      </trkpt>
      <trkpt lat="40.275033" lon="-4.876067">
        <ele>2426.0</ele>
        <time>2015-08-02T12:19:08Z</time>
      </trkpt>
      <trkpt lat="40.275050" lon="-4.875900">
        <ele>2426.0</ele>
        <time>2015-08-02T12:19:09Z</time>
      </trkpt>
      <trkpt lat="40.275083" lon="-4.875733">
        <ele>2425.0</ele>
        <time>2015-08-02T12:19:10Z</time>
      </trkpt>
      <trkpt lat="40.275117" lon="-4.875567">
        <ele>2424.0</ele>
        <time>2015-08-02T12:19:11Z</time>
      </trkpt>
      <trkpt lat="40.275167" lon="-4.875400">
        <ele>2425.0</ele>
        <time>2015-08-02T12:19:12Z</time>
      </trkpt>
      <trkpt lat="40.275200" lon="-4.875233">
        <ele>2426.0</ele>
        <time>2015-08-02T12:19:13Z</time>
      </trkpt>
      <trkpt lat="40.275233" lon="-4.875083">
        <ele>2428.0</ele>
        <time>2015-08-02T12:19:14Z</time>
      </trkpt>
      <trkpt lat="40.275267" lon="-4.874950">
        <ele>2428.0</ele>
        <time>2015-08-02T12:19:15Z</time>
      </trkpt>
      <trkpt lat="40.275317" lon="-4.874817">
        <ele>2427.0</ele>
        <time>2015-08-02T12:19:16Z</time>
      </trkpt>
      <trkpt lat="40.275367" lon="-4.874683">
        <ele>2426.0</ele>
        <time>2015-08-02T12:19:17Z</time>
      </trkpt>
      <trkpt lat="40.275417" lon="-4.874550">
        <ele>2424.0</ele>
        <time>2015-08-02T12:19:18Z</time>
      </trkpt>
      <trkpt lat="40.275467" lon="-4.874417">
        <ele>2423.0</ele>
        <time>2015-08-02T12:19:19Z</time>
      </trkpt>
      <trkpt lat="40.275517" lon="-4.874283">
        <ele>2422.0</ele>
        <time>2015-08-02T12:19:20Z</time>
      </trkpt>
      <trkpt lat="40.275550" lon="-4.874150">
        <ele>2421.0</ele>
        <time>2015-08-02T12:19:21Z</time>
      </trkpt>
      <trkpt lat="40.275600" lon="-4.874033">
        <ele>2420.0</ele>
        <time>2015-08-02T12:19:22Z</time>
      </trkpt>
      <trkpt lat="40.275633" lon="-4.873900">
        <ele>2419.0</ele>
        <time>2015-08-02T12:19:23Z</time>
      </trkpt>
      <trkpt lat="40.275667" lon="-4.873750">
        <ele>2418.0</ele>
        <time>2015-08-02T12:19:24Z</time>
      </trkpt>
      <trkpt lat="40.275700" lon="-4.873600">
        <ele>2416.0</ele>
        <time>2015-08-02T12:19:25Z</time>
      </trkpt>
      <trkpt lat="40.275733" lon="-4.873433">
        <ele>2416.0</ele>
        <time>2015-08-02T12:19:26Z</time>
      </trkpt>
      <trkpt lat="40.275767" lon="-4.873267">
        <ele>2415.0</ele>
        <time>2015-08-02T12:19:27Z</time>
      </trkpt>
      <trkpt lat="40.275800" lon="-4.873117">
        <ele>2415.0</ele>
        <time>2015-08-02T12:19:28Z</time>
      </trkpt>
      <trkpt lat="40.275833" lon="-4.872950">
        <ele>2416.0</ele>
        <time>2015-08-02T12:19:29Z</time>
      </trkpt>
      <trkpt lat="40.275867" lon="-4.872800">
        <ele>2418.0</ele>
        <time>2015-08-02T12:19:30Z</time>
      </trkpt>
      <trkpt lat="40.275900" lon="-4.872650">
        <ele>2418.0</ele>
        <time>2015-08-02T12:19:31Z</time>
      </trkpt>
      <trkpt lat="40.275917" lon="-4.872500">
        <ele>2418.0</ele>
        <time>2015-08-02T12:19:32Z</time>
      </trkpt>
      <trkpt lat="40.275950" lon="-4.872333">
        <ele>2417.0</ele>
        <time>2015-08-02T12:19:33Z</time>
      </trkpt>
      <trkpt lat="40.276000" lon="-4.872167">
        <ele>2417.0</ele>
        <time>2015-08-02T12:19:34Z</time>
      </trkpt>
      <trkpt lat="40.276033" lon="-4.871983">
        <ele>2416.0</ele>
        <time>2015-08-02T12:19:35Z</time>
      </trkpt>
      <trkpt lat="40.276067" lon="-4.871800">
        <ele>2417.0</ele>
        <time>2015-08-02T12:19:36Z</time>
      </trkpt>
      <trkpt lat="40.276117" lon="-4.871633">
        <ele>2417.0</ele>
        <time>2015-08-02T12:19:37Z</time>
      </trkpt>
      <trkpt lat="40.276167" lon="-4.871467">
        <ele>2417.0</ele>
        <time>2015-08-02T12:19:38Z</time>
      </trkpt>
      <trkpt lat="40.276233" lon="-4.871333">
        <ele>2416.0</ele>
        <time>2015-08-02T12:19:39Z</time>
      </trkpt>
      <trkpt lat="40.276300" lon="-4.871183">
        <ele>2415.0</ele>
        <time>2015-08-02T12:19:40Z</time>
      </trkpt>
      <trkpt lat="40.276367" lon="-4.871033">
        <ele>2414.0</ele>
        <time>2015-08-02T12:19:41Z</time>
      </trkpt>
      <trkpt lat="40.276417" lon="-4.870883">
        <ele>2412.0</ele>
        <time>2015-08-02T12:19:42Z</time>
      </trkpt>
      <trkpt lat="40.276433" lon="-4.870733">
        <ele>2411.0</ele>
        <time>2015-08-02T12:19:43Z</time>
      </trkpt>
      <trkpt lat="40.276467" lon="-4.870583">
        <ele>2408.0</ele>
        <time>2015-08-02T12:19:44Z</time>
      </trkpt>
      <trkpt lat="40.276500" lon="-4.870433">
        <ele>2406.0</ele>
        <time>2015-08-02T12:19:45Z</time>
      </trkpt>
      <trkpt lat="40.276533" lon="-4.870267">
        <ele>2403.0</ele>
        <time>2015-08-02T12:19:46Z</time>
      </trkpt>
      <trkpt lat="40.276567" lon="-4.870100">
        <ele>2399.0</ele>
        <time>2015-08-02T12:19:47Z</time>
      </trkpt>
      <trkpt lat="40.276600" lon="-4.869933">
        <ele>2397.0</ele>
        <time>2015-08-02T12:19:48Z</time>
      </trkpt>
      <trkpt lat="40.276617" lon="-4.869783">
        <ele>2394.0</ele>
        <time>2015-08-02T12:19:49Z</time>
      </trkpt>
      <trkpt lat="40.276633" lon="-4.869633">
        <ele>2391.0</ele>
        <time>2015-08-02T12:19:50Z</time>
      </trkpt>
      <trkpt lat="40.276667" lon="-4.869500">
        <ele>2389.0</ele>
        <time>2015-08-02T12:19:51Z</time>
      </trkpt>
      <trkpt lat="40.276683" lon="-4.869350">
        <ele>2386.0</ele>
        <time>2015-08-02T12:19:52Z</time>
      </trkpt>
      <trkpt lat="40.276717" lon="-4.869217">
        <ele>2383.0</ele>
        <time>2015-08-02T12:19:53Z</time>
      </trkpt>
      <trkpt lat="40.276750" lon="-4.869067">
        <ele>2379.0</ele>
        <time>2015-08-02T12:19:54Z</time>
      </trkpt>
      <trkpt lat="40.276783" lon="-4.868917">
        <ele>2375.0</ele>
        <time>2015-08-02T12:19:55Z</time>
      </trkpt>
      <trkpt lat="40.276817" lon="-4.868750">
        <ele>2371.0</ele>
        <time>2015-08-02T12:19:56Z</time>
      </trkpt>
      <trkpt lat="40.276850" lon="-4.868567">
        <ele>2366.0</ele>
        <time>2015-08-02T12:19:57Z</time>
      </trkpt>
      <trkpt lat="40.276883" lon="-4.868400">
        <ele>2363.0</ele>
        <time>2015-08-02T12:19:58Z</time>
      </trkpt>
      <trkpt lat="40.276950" lon="-4.868250">
        <ele>2360.0</ele>
        <time>2015-08-02T12:19:59Z</time>
      </trkpt>
      <trkpt lat="40.277000" lon="-4.868083">
        <ele>2357.0</ele>
        <time>2015-08-02T12:20:00Z</time>
      </trkpt>
      <trkpt lat="40.277050" lon="-4.867933">
        <ele>2355.0</ele>
        <time>2015-08-02T12:20:01Z</time>
      </trkpt>
      <trkpt lat="40.277117" lon="-4.867767">
        <ele>2353.0</ele>
        <time>2015-08-02T12:20:02Z</time>
      </trkpt>
      <trkpt lat="40.277200" lon="-4.867617">
        <ele>2351.0</ele>
        <time>2015-08-02T12:20:03Z</time>
      </trkpt>
      <trkpt lat="40.277283" lon="-4.867467">
        <ele>2350.0</ele>
        <time>2015-08-02T12:20:04Z</time>
      </trkpt>
      <trkpt lat="40.277383" lon="-4.867333">
        <ele>2347.0</ele>
        <time>2015-08-02T12:20:05Z</time>
      </trkpt>
      <trkpt lat="40.277467" lon="-4.867183">
        <ele>2345.0</ele>
        <time>2015-08-02T12:20:06Z</time>
      </trkpt>
      <trkpt lat="40.277550" lon="-4.867033">
        <ele>2344.0</ele>
        <time>2015-08-02T12:20:07Z</time>
      </trkpt>
      <trkpt lat="40.277633" lon="-4.866883">
        <ele>2341.0</ele>
        <time>2015-08-02T12:20:08Z</time>
      </trkpt>
      <trkpt lat="40.277700" lon="-4.866733">
        <ele>2339.0</ele>
        <time>2015-08-02T12:20:09Z</time>
      </trkpt>
      <trkpt lat="40.277783" lon="-4.866567">
        <ele>2335.0</ele>
        <time>2015-08-02T12:20:10Z</time>
      </trkpt>
      <trkpt lat="40.277850" lon="-4.866400">
        <ele>2330.0</ele>
        <time>2015-08-02T12:20:11Z</time>
      </trkpt>
      <trkpt lat="40.277917" lon="-4.866233">
        <ele>2326.0</ele>
        <time>2015-08-02T12:20:12Z</time>
      </trkpt>
      <trkpt lat="40.277983" lon="-4.866067">
        <ele>2322.0</ele>
        <time>2015-08-02T12:20:13Z</time>
      </trkpt>
      <trkpt lat="40.278050" lon="-4.865883">
        <ele>2319.0</ele>
        <time>2015-08-02T12:20:14Z</time>
      </trkpt>
      <trkpt lat="40.278117" lon="-4.865700">
        <ele>2316.0</ele>
        <time>2015-08-02T12:20:15Z</time>
      </trkpt>
      <trkpt lat="40.278167" lon="-4.865550">
        <ele>2315.0</ele>
        <time>2015-08-02T12:20:16Z</time>
      </trkpt>
      <trkpt lat="40.278217" lon="-4.865383">
        <ele>2312.0</ele>
        <time>2015-08-02T12:20:17Z</time>
      </trkpt>
      <trkpt lat="40.278267" lon="-4.865217">
        <ele>2309.0</ele>
        <time>2015-08-02T12:20:18Z</time>
      </trkpt>
      <trkpt lat="40.278300" lon="-4.865050">
        <ele>2305.0</ele>
        <time>2015-08-02T12:20:19Z</time>
      </trkpt>
      <trkpt lat="40.278350" lon="-4.864850">
        <ele>2301.0</ele>
        <time>2015-08-02T12:20:20Z</time>
      </trkpt>
      <trkpt lat="40.278383" lon="-4.864650">
        <ele>2298.0</ele>
        <time>2015-08-02T12:20:21Z</time>
      </trkpt>
      <trkpt lat="40.278417" lon="-4.864450">
        <ele>2296.0</ele>
        <time>2015-08-02T12:20:22Z</time>
      </trkpt>
      <trkpt lat="40.278433" lon="-4.864267">
        <ele>2294.0</ele>
        <time>2015-08-02T12:20:23Z</time>
      </trkpt>
      <trkpt lat="40.278467" lon="-4.864083">
        <ele>2293.0</ele>
        <time>2015-08-02T12:20:24Z</time>
      </trkpt>
      <trkpt lat="40.278517" lon="-4.863900">
        <ele>2290.0</ele>
        <time>2015-08-02T12:20:25Z</time>
      </trkpt>
      <trkpt lat="40.278550" lon="-4.863717">
        <ele>2286.0</ele>
        <time>2015-08-02T12:20:26Z</time>
      </trkpt>
      <trkpt lat="40.278583" lon="-4.863517">
        <ele>2282.0</ele>
        <time>2015-08-02T12:20:27Z</time>
      </trkpt>
      <trkpt lat="40.278617" lon="-4.863300">
        <ele>2279.0</ele>
        <time>2015-08-02T12:20:28Z</time>
      </trkpt>
      <trkpt lat="40.278667" lon="-4.863100">
        <ele>2276.0</ele>
        <time>2015-08-02T12:20:29Z</time>
      </trkpt>
      <trkpt lat="40.278717" lon="-4.862900">
        <ele>2274.0</ele>
        <time>2015-08-02T12:20:30Z</time>
      </trkpt>
      <trkpt lat="40.278767" lon="-4.862717">
        <ele>2272.0</ele>
        <time>2015-08-02T12:20:31Z</time>
      </trkpt>
      <trkpt lat="40.278833" lon="-4.862533">
        <ele>2269.0</ele>
        <time>2015-08-02T12:20:32Z</time>
      </trkpt>
      <trkpt lat="40.278883" lon="-4.862367">
        <ele>2266.0</ele>
        <time>2015-08-02T12:20:33Z</time>
      </trkpt>
      <trkpt lat="40.278950" lon="-4.862167">
        <ele>2263.0</ele>
        <time>2015-08-02T12:20:34Z</time>
      </trkpt>
      <trkpt lat="40.279000" lon="-4.861983">
        <ele>2260.0</ele>
        <time>2015-08-02T12:20:35Z</time>
      </trkpt>
      <trkpt lat="40.279067" lon="-4.861800">
        <ele>2258.0</ele>
        <time>2015-08-02T12:20:36Z</time>
      </trkpt>
      <trkpt lat="40.279133" lon="-4.861617">
        <ele>2257.0</ele>
        <time>2015-08-02T12:20:37Z</time>
      </trkpt>
      <trkpt lat="40.279200" lon="-4.861467">
        <ele>2255.0</ele>
        <time>2015-08-02T12:20:38Z</time>
      </trkpt>
      <trkpt lat="40.279267" lon="-4.861300">
        <ele>2253.0</ele>
        <time>2015-08-02T12:20:39Z</time>
      </trkpt>
      <trkpt lat="40.279350" lon="-4.861133">
        <ele>2249.0</ele>
        <time>2015-08-02T12:20:40Z</time>
      </trkpt>
      <trkpt lat="40.279417" lon="-4.860950">
        <ele>2246.0</ele>
        <time>2015-08-02T12:20:41Z</time>
      </trkpt>
      <trkpt lat="40.279483" lon="-4.860783">
        <ele>2244.0</ele>
        <time>2015-08-02T12:20:42Z</time>
      </trkpt>
      <trkpt lat="40.279550" lon="-4.860617">
        <ele>2242.0</ele>
        <time>2015-08-02T12:20:43Z</time>
      </trkpt>
      <trkpt lat="40.279633" lon="-4.860450">
        <ele>2240.0</ele>
        <time>2015-08-02T12:20:44Z</time>
      </trkpt>
      <trkpt lat="40.279700" lon="-4.860267">
        <ele>2238.0</ele>
        <time>2015-08-02T12:20:45Z</time>
      </trkpt>
      <trkpt lat="40.279767" lon="-4.860100">
        <ele>2236.0</ele>
        <time>2015-08-02T12:20:46Z</time>
      </trkpt>
      <trkpt lat="40.279833" lon="-4.859933">
        <ele>2235.0</ele>
        <time>2015-08-02T12:20:47Z</time>
      </trkpt>
      <trkpt lat="40.279900" lon="-4.859767">
        <ele>2232.0</ele>
        <time>2015-08-02T12:20:48Z</time>
      </trkpt>
      <trkpt lat="40.279967" lon="-4.859583">
        <ele>2229.0</ele>
        <time>2015-08-02T12:20:49Z</time>
      </trkpt>
      <trkpt lat="40.280033" lon="-4.859400">
        <ele>2226.0</ele>
        <time>2015-08-02T12:20:50Z</time>
      </trkpt>
      <trkpt lat="40.280100" lon="-4.859217">
        <ele>2223.0</ele>
        <time>2015-08-02T12:20:51Z</time>
      </trkpt>
      <trkpt lat="40.280167" lon="-4.859033">
        <ele>2221.0</ele>
        <time>2015-08-02T12:20:52Z</time>
      </trkpt>
      <trkpt lat="40.280200" lon="-4.858850">
        <ele>2218.0</ele>
        <time>2015-08-02T12:20:53Z</time>
      </trkpt>
      <trkpt lat="40.280250" lon="-4.858667">
        <ele>2217.0</ele>
        <time>2015-08-02T12:20:54Z</time>
      </trkpt>
      <trkpt lat="40.280283" lon="-4.858500">
        <ele>2216.0</ele>
        <time>2015-08-02T12:20:55Z</time>
      </trkpt>
      <trkpt lat="40.280333" lon="-4.858333">
        <ele>2215.0</ele>
        <time>2015-08-02T12:20:56Z</time>
      </trkpt>
      <trkpt lat="40.280383" lon="-4.858183">
        <ele>2213.0</ele>
        <time>2015-08-02T12:20:57Z</time>
      </trkpt>
      <trkpt lat="40.280450" lon="-4.858000">
        <ele>2210.0</ele>
        <time>2015-08-02T12:20:58Z</time>
      </trkpt>
      <trkpt lat="40.280500" lon="-4.857817">
        <ele>2207.0</ele>
        <time>2015-08-02T12:20:59Z</time>
      </trkpt>
      <trkpt lat="40.280550" lon="-4.857617">
        <ele>2206.0</ele>
        <time>2015-08-02T12:21:00Z</time>
      </trkpt>
      <trkpt lat="40.280600" lon="-4.857433">
        <ele>2204.0</ele>
        <time>2015-08-02T12:21:01Z</time>
      </trkpt>
      <trkpt lat="40.280650" lon="-4.857267">
        <ele>2203.0</ele>
        <time>2015-08-02T12:21:02Z</time>
      </trkpt>
      <trkpt lat="40.280700" lon="-4.857117">
        <ele>2202.0</ele>
        <time>2015-08-02T12:21:03Z</time>
      </trkpt>
      <trkpt lat="40.280767" lon="-4.856967">
        <ele>2201.0</ele>
        <time>2015-08-02T12:21:04Z</time>
      </trkpt>
      <trkpt lat="40.280833" lon="-4.856817">
        <ele>2198.0</ele>
        <time>2015-08-02T12:21:05Z</time>
      </trkpt>
      <trkpt lat="40.280883" lon="-4.856650">
        <ele>2194.0</ele>
        <time>2015-08-02T12:21:06Z</time>
      </trkpt>
      <trkpt lat="40.280950" lon="-4.856467">
        <ele>2191.0</ele>
        <time>2015-08-02T12:21:07Z</time>
      </trkpt>
      <trkpt lat="40.281000" lon="-4.856283">
        <ele>2188.0</ele>
        <time>2015-08-02T12:21:08Z</time>
      </trkpt>
      <trkpt lat="40.281050" lon="-4.856117">
        <ele>2187.0</ele>
        <time>2015-08-02T12:21:09Z</time>
      </trkpt>
      <trkpt lat="40.281100" lon="-4.855950">
        <ele>2185.0</ele>
        <time>2015-08-02T12:21:10Z</time>
      </trkpt>
      <trkpt lat="40.281150" lon="-4.855783">
        <ele>2183.0</ele>
        <time>2015-08-02T12:21:11Z</time>
      </trkpt>
      <trkpt lat="40.281217" lon="-4.855617">
        <ele>2180.0</ele>
        <time>2015-08-02T12:21:12Z</time>
      </trkpt>
      <trkpt lat="40.281267" lon="-4.855450">
        <ele>2177.0</ele>
        <time>2015-08-02T12:21:13Z</time>
      </trkpt>
      <trkpt lat="40.281333" lon="-4.855267">
        <ele>2174.0</ele>
        <time>2015-08-02T12:21:14Z</time>
      </trkpt>
      <trkpt lat="40.281383" lon="-4.855067">
        <ele>2171.0</ele>
        <time>2015-08-02T12:21:15Z</time>
      </trkpt>
      <trkpt lat="40.281433" lon="-4.854883">
        <ele>2169.0</ele>
        <time>2015-08-02T12:21:16Z</time>
      </trkpt>
      <trkpt lat="40.281500" lon="-4.854700">
        <ele>2168.0</ele>
        <time>2015-08-02T12:21:17Z</time>
      </trkpt>
      <trkpt lat="40.281567" lon="-4.854517">
        <ele>2167.0</ele>
        <time>2015-08-02T12:21:18Z</time>
      </trkpt>
      <trkpt lat="40.281617" lon="-4.854350">
        <ele>2166.0</ele>
        <time>2015-08-02T12:21:19Z</time>
      </trkpt>
      <trkpt lat="40.281667" lon="-4.854167">
        <ele>2163.0</ele>
        <time>2015-08-02T12:21:20Z</time>
      </trkpt>
      <trkpt lat="40.281700" lon="-4.853967">
        <ele>2160.0</ele>
        <time>2015-08-02T12:21:21Z</time>
      </trkpt>
      <trkpt lat="40.281733" lon="-4.853783">
        <ele>2157.0</ele>
        <time>2015-08-02T12:21:22Z</time>
      </trkpt>
      <trkpt lat="40.281783" lon="-4.853600">
        <ele>2155.0</ele>
        <time>2015-08-02T12:21:23Z</time>
      </trkpt>
      <trkpt lat="40.281850" lon="-4.853433">
        <ele>2154.0</ele>
        <time>2015-08-02T12:21:24Z</time>
      </trkpt>
      <trkpt lat="40.281917" lon="-4.853283">
        <ele>2154.0</ele>
        <time>2015-08-02T12:21:25Z</time>
      </trkpt>
      <trkpt lat="40.281967" lon="-4.853150">
        <ele>2152.0</ele>
        <time>2015-08-02T12:21:26Z</time>
      </trkpt>
      <trkpt lat="40.282017" lon="-4.853000">
        <ele>2149.0</ele>
        <time>2015-08-02T12:21:27Z</time>
      </trkpt>
      <trkpt lat="40.282050" lon="-4.852833">
        <ele>2146.0</ele>
        <time>2015-08-02T12:21:28Z</time>
      </trkpt>
      <trkpt lat="40.282100" lon="-4.852667">
        <ele>2142.0</ele>
        <time>2015-08-02T12:21:29Z</time>
      </trkpt>
      <trkpt lat="40.282150" lon="-4.852500">
        <ele>2139.0</ele>
        <time>2015-08-02T12:21:30Z</time>
      </trkpt>
      <trkpt lat="40.282217" lon="-4.852317">
        <ele>2136.0</ele>
        <time>2015-08-02T12:21:31Z</time>
      </trkpt>
      <trkpt lat="40.282283" lon="-4.852150">
        <ele>2135.0</ele>
        <time>2015-08-02T12:21:32Z</time>
      </trkpt>
      <trkpt lat="40.282350" lon="-4.852000">
        <ele>2134.0</ele>
        <time>2015-08-02T12:21:33Z</time>
      </trkpt>
      <trkpt lat="40.282417" lon="-4.851850">
        <ele>2132.0</ele>
        <time>2015-08-02T12:21:34Z</time>
      </trkpt>
      <trkpt lat="40.282483" lon="-4.851700">
        <ele>2130.0</ele>
        <time>2015-08-02T12:21:35Z</time>
      </trkpt>
      <trkpt lat="40.282550" lon="-4.851550">
        <ele>2128.0</ele>
        <time>2015-08-02T12:21:36Z</time>
      </trkpt>
      <trkpt lat="40.282633" lon="-4.851383">
        <ele>2126.0</ele>
        <time>2015-08-02T12:21:37Z</time>
      </trkpt>
      <trkpt lat="40.282717" lon="-4.851233">
        <ele>2123.0</ele>
        <time>2015-08-02T12:21:38Z</time>
      </trkpt>
      <trkpt lat="40.282800" lon="-4.851083">
        <ele>2121.0</ele>
        <time>2015-08-02T12:21:39Z</time>
      </trkpt>
      <trkpt lat="40.282883" lon="-4.850933">
        <ele>2119.0</ele>
        <time>2015-08-02T12:21:40Z</time>
      </trkpt>
      <trkpt lat="40.282967" lon="-4.850783">
        <ele>2118.0</ele>
        <time>2015-08-02T12:21:41Z</time>
      </trkpt>
      <trkpt lat="40.283050" lon="-4.850633">
        <ele>2116.0</ele>
        <time>2015-08-02T12:21:42Z</time>
      </trkpt>
      <trkpt lat="40.283133" lon="-4.850483">
        <ele>2115.0</ele>
        <time>2015-08-02T12:21:43Z</time>
      </trkpt>
      <trkpt lat="40.283200" lon="-4.850333">
        <ele>2114.0</ele>
        <time>2015-08-02T12:21:44Z</time>
      </trkpt>
      <trkpt lat="40.283283" lon="-4.850183">
        <ele>2112.0</ele>
        <time>2015-08-02T12:21:45Z</time>
      </trkpt>
      <trkpt lat="40.283350" lon="-4.850017">
        <ele>2110.0</ele>
        <time>2015-08-02T12:21:46Z</time>
      </trkpt>
      <trkpt lat="40.283400" lon="-4.849850">
        <ele>2108.0</ele>
        <time>2015-08-02T12:21:47Z</time>
      </trkpt>
      <trkpt lat="40.283450" lon="-4.849683">
        <ele>2106.0</ele>
        <time>2015-08-02T12:21:48Z</time>
      </trkpt>
      <trkpt lat="40.283500" lon="-4.849500">
        <ele>2104.0</ele>
        <time>2015-08-02T12:21:49Z</time>
      </trkpt>
      <trkpt lat="40.283567" lon="-4.849333">
        <ele>2102.0</ele>
        <time>2015-08-02T12:21:50Z</time>
      </trkpt>
      <trkpt lat="40.283633" lon="-4.849167">
        <ele>2100.0</ele>
        <time>2015-08-02T12:21:51Z</time>
      </trkpt>
      <trkpt lat="40.283700" lon="-4.849017">
        <ele>2097.0</ele>
        <time>2015-08-02T12:21:52Z</time>
      </trkpt>
      <trkpt lat="40.283750" lon="-4.848850">
        <ele>2094.0</ele>
        <time>2015-08-02T12:21:53Z</time>
      </trkpt>
      <trkpt lat="40.283817" lon="-4.848667">
        <ele>2091.0</ele>
        <time>2015-08-02T12:21:54Z</time>
      </trkpt>
      <trkpt lat="40.283867" lon="-4.848483">
        <ele>2086.0</ele>
        <time>2015-08-02T12:21:55Z</time>
      </trkpt>
      <trkpt lat="40.283933" lon="-4.848300">
        <ele>2083.0</ele>
        <time>2015-08-02T12:21:56Z</time>
      </trkpt>
      <trkpt lat="40.283983" lon="-4.848100">
        <ele>2080.0</ele>
        <time>2015-08-02T12:21:57Z</time>
      </trkpt>
      <trkpt lat="40.284050" lon="-4.847917">
        <ele>2077.0</ele>
        <time>2015-08-02T12:21:58Z</time>
      </trkpt>
      <trkpt lat="40.284083" lon="-4.847733">
        <ele>2074.0</ele>
        <time>2015-08-02T12:21:59Z</time>
      </trkpt>
      <trkpt lat="40.284117" lon="-4.847533">
        <ele>2071.0</ele>
        <time>2015-08-02T12:22:00Z</time>
      </trkpt>
      <trkpt lat="40.284133" lon="-4.847350">
        <ele>2068.0</ele>
        <time>2015-08-02T12:22:01Z</time>
      </trkpt>
      <trkpt lat="40.284150" lon="-4.847167">
        <ele>2065.0</ele>
        <time>2015-08-02T12:22:02Z</time>
      </trkpt>
      <trkpt lat="40.284167" lon="-4.846983">
        <ele>2063.0</ele>
        <time>2015-08-02T12:22:03Z</time>
      </trkpt>
      <trkpt lat="40.284200" lon="-4.846817">
        <ele>2062.0</ele>
        <time>2015-08-02T12:22:04Z</time>
      </trkpt>
      <trkpt lat="40.284217" lon="-4.846650">
        <ele>2061.0</ele>
        <time>2015-08-02T12:22:05Z</time>
      </trkpt>
      <trkpt lat="40.284233" lon="-4.846483">
        <ele>2059.0</ele>
        <time>2015-08-02T12:22:06Z</time>
      </trkpt>
      <trkpt lat="40.284250" lon="-4.846317">
        <ele>2055.0</ele>
        <time>2015-08-02T12:22:07Z</time>
      </trkpt>
      <trkpt lat="40.284283" lon="-4.846133">
        <ele>2052.0</ele>
        <time>2015-08-02T12:22:08Z</time>
      </trkpt>
      <trkpt lat="40.284333" lon="-4.845950">
        <ele>2049.0</ele>
        <time>2015-08-02T12:22:09Z</time>
      </trkpt>
      <trkpt lat="40.284367" lon="-4.845767">
        <ele>2047.0</ele>
        <time>2015-08-02T12:22:10Z</time>
      </trkpt>
      <trkpt lat="40.284417" lon="-4.845600">
        <ele>2046.0</ele>
        <time>2015-08-02T12:22:11Z</time>
      </trkpt>
      <trkpt lat="40.284450" lon="-4.845433">
        <ele>2044.0</ele>
        <time>2015-08-02T12:22:12Z</time>
      </trkpt>
      <trkpt lat="40.284500" lon="-4.845267">
        <ele>2043.0</ele>
        <time>2015-08-02T12:22:13Z</time>
      </trkpt>
      <trkpt lat="40.284550" lon="-4.845100">
        <ele>2040.0</ele>
        <time>2015-08-02T12:22:14Z</time>
      </trkpt>
      <trkpt lat="40.284617" lon="-4.844933">
        <ele>2037.0</ele>
        <time>2015-08-02T12:22:15Z</time>
      </trkpt>
      <trkpt lat="40.284683" lon="-4.844767">
        <ele>2033.0</ele>
        <time>2015-08-02T12:22:16Z</time>
      </trkpt>
      <trkpt lat="40.284750" lon="-4.844600">
        <ele>2030.0</ele>
        <time>2015-08-02T12:22:17Z</time>
      </trkpt>
      <trkpt lat="40.284817" lon="-4.844433">
        <ele>2028.0</ele>
        <time>2015-08-02T12:22:18Z</time>
      </trkpt>
      <trkpt lat="40.284883" lon="-4.844283">
        <ele>2026.0</ele>
        <time>2015-08-02T12:22:19Z</time>
      </trkpt>
      <trkpt lat="40.284950" lon="-4.844117">
        <ele>2024.0</ele>
        <time>2015-08-02T12:22:20Z</time>
      </trkpt>
      <trkpt lat="40.285017" lon="-4.843967">
        <ele>2022.0</ele>
        <time>2015-08-02T12:22:21Z</time>
      </trkpt>
      <trkpt lat="40.285083" lon="-4.843800">
        <ele>2019.0</ele>
        <time>2015-08-02T12:22:22Z</time>
      </trkpt>
      <trkpt lat="40.285150" lon="-4.843633">
        <ele>2016.0</ele>
        <time>2015-08-02T12:22:23Z</time>
      </trkpt>
      <trkpt lat="40.285217" lon="-4.843467">
        <ele>2014.0</ele>
        <time>2015-08-02T12:22:24Z</time>
      </trkpt>
      <trkpt lat="40.285283" lon="-4.843300">
        <ele>2013.0</ele>
        <time>2015-08-02T12:22:25Z</time>
      </trkpt>
      <trkpt lat="40.285350" lon="-4.843167">
        <ele>2012.0</ele>
        <time>2015-08-02T12:22:26Z</time>
      </trkpt>
      <trkpt lat="40.285417" lon="-4.843017">
        <ele>2011.0</ele>
        <time>2015-08-02T12:22:27Z</time>
      </trkpt>
      <trkpt lat="40.285483" lon="-4.842883">
        <ele>2008.0</ele>
        <time>2015-08-02T12:22:28Z</time>
      </trkpt>
      <trkpt lat="40.285567" lon="-4.842717">
        <ele>2005.0</ele>
        <time>2015-08-02T12:22:29Z</time>
      </trkpt>
      <trkpt lat="40.285667" lon="-4.842550">
        <ele>2001.0</ele>
        <time>2015-08-02T12:22:30Z</time>
      </trkpt>
      <trkpt lat="40.285750" lon="-4.842383">
        <ele>1997.0</ele>
        <time>2015-08-02T12:22:31Z</time>
      </trkpt>
      <trkpt lat="40.285833" lon="-4.842200">
        <ele>1995.0</ele>
        <time>2015-08-02T12:22:32Z</time>
      </trkpt>
      <trkpt lat="40.285917" lon="-4.842017">
        <ele>1993.0</ele>
        <time>2015-08-02T12:22:33Z</time>
      </trkpt>
      <trkpt lat="40.286000" lon="-4.841850">
        <ele>1992.0</ele>
        <time>2015-08-02T12:22:34Z</time>
      </trkpt>
      <trkpt lat="40.286083" lon="-4.841683">
        <ele>1990.0</ele>
        <time>2015-08-02T12:22:35Z</time>
      </trkpt>
      <trkpt lat="40.286150" lon="-4.841500">
        <ele>1988.0</ele>
        <time>2015-08-02T12:22:36Z</time>
      </trkpt>
      <trkpt lat="40.286233" lon="-4.841317">
        <ele>1985.0</ele>
        <time>2015-08-02T12:22:37Z</time>
      </trkpt>
      <trkpt lat="40.286300" lon="-4.841133">
        <ele>1982.0</ele>
        <time>2015-08-02T12:22:38Z</time>
      </trkpt>
      <trkpt lat="40.286383" lon="-4.840950">
        <ele>1981.0</ele>
        <time>2015-08-02T12:22:39Z</time>
      </trkpt>
      <trkpt lat="40.286450" lon="-4.840767">
        <ele>1981.0</ele>
        <time>2015-08-02T12:22:40Z</time>
      </trkpt>
      <trkpt lat="40.286517" lon="-4.840600">
        <ele>1981.0</ele>
        <time>2015-08-02T12:22:41Z</time>
      </trkpt>
      <trkpt lat="40.286567" lon="-4.840450">
        <ele>1980.0</ele>
        <time>2015-08-02T12:22:42Z</time>
      </trkpt>
      <trkpt lat="40.286633" lon="-4.840283">
        <ele>1977.0</ele>
        <time>2015-08-02T12:22:43Z</time>
      </trkpt>
      <trkpt lat="40.286700" lon="-4.840117">
        <ele>1974.0</ele>
        <time>2015-08-02T12:22:44Z</time>
      </trkpt>
      <trkpt lat="40.286750" lon="-4.839933">
        <ele>1972.0</ele>
        <time>2015-08-02T12:22:45Z</time>
      </trkpt>
      <trkpt lat="40.286800" lon="-4.839750">
        <ele>1969.0</ele>
        <time>2015-08-02T12:22:46Z</time>
      </trkpt>
      <trkpt lat="40.286850" lon="-4.839567">
        <ele>1967.0</ele>
        <time>2015-08-02T12:22:47Z</time>
      </trkpt>
      <trkpt lat="40.286900" lon="-4.839400">
        <ele>1967.0</ele>
        <time>2015-08-02T12:22:48Z</time>
      </trkpt>
      <trkpt lat="40.286950" lon="-4.839250">
        <ele>1967.0</ele>
        <time>2015-08-02T12:22:49Z</time>
      </trkpt>
      <trkpt lat="40.287000" lon="-4.839133">
        <ele>1967.0</ele>
        <time>2015-08-02T12:22:50Z</time>
      </trkpt>
      <trkpt lat="40.287050" lon="-4.839000">
        <ele>1965.0</ele>
        <time>2015-08-02T12:22:51Z</time>
      </trkpt>
      <trkpt lat="40.287100" lon="-4.838867">
        <ele>1963.0</ele>
        <time>2015-08-02T12:22:52Z</time>
      </trkpt>
      <trkpt lat="40.287150" lon="-4.838717">
        <ele>1959.0</ele>
        <time>2015-08-02T12:22:53Z</time>
      </trkpt>
      <trkpt lat="40.287217" lon="-4.838567">
        <ele>1956.0</ele>
        <time>2015-08-02T12:22:54Z</time>
      </trkpt>
      <trkpt lat="40.287267" lon="-4.838400">
        <ele>1955.0</ele>
        <time>2015-08-02T12:22:55Z</time>
      </trkpt>
      <trkpt lat="40.287333" lon="-4.838250">
        <ele>1954.0</ele>
        <time>2015-08-02T12:22:56Z</time>
      </trkpt>
      <trkpt lat="40.287383" lon="-4.838117">
        <ele>1952.0</ele>
        <time>2015-08-02T12:22:57Z</time>
      </trkpt>
      <trkpt lat="40.287450" lon="-4.837983">
        <ele>1951.0</ele>
        <time>2015-08-02T12:22:58Z</time>
      </trkpt>
      <trkpt lat="40.287500" lon="-4.837833">
        <ele>1949.0</ele>
        <time>2015-08-02T12:22:59Z</time>
      </trkpt>
      <trkpt lat="40.287567" lon="-4.837683">
        <ele>1947.0</ele>
        <time>2015-08-02T12:23:00Z</time>
      </trkpt>
      <trkpt lat="40.287617" lon="-4.837550">
        <ele>1945.0</ele>
        <time>2015-08-02T12:23:01Z</time>
      </trkpt>
      <trkpt lat="40.287667" lon="-4.837400">
        <ele>1943.0</ele>
        <time>2015-08-02T12:23:02Z</time>
      </trkpt>
      <trkpt lat="40.287700" lon="-4.837250">
        <ele>1941.0</ele>
        <time>2015-08-02T12:23:03Z</time>
      </trkpt>
      <trkpt lat="40.287750" lon="-4.837117">
        <ele>1939.0</ele>
        <time>2015-08-02T12:23:04Z</time>
      </trkpt>
      <trkpt lat="40.287800" lon="-4.836950">
        <ele>1936.0</ele>
        <time>2015-08-02T12:23:05Z</time>
      </trkpt>
      <trkpt lat="40.287833" lon="-4.836783">
        <ele>1933.0</ele>
        <time>2015-08-02T12:23:06Z</time>
      </trkpt>
      <trkpt lat="40.287867" lon="-4.836600">
        <ele>1932.0</ele>
        <time>2015-08-02T12:23:07Z</time>
      </trkpt>
      <trkpt lat="40.287900" lon="-4.836450">
        <ele>1931.0</ele>
        <time>2015-08-02T12:23:08Z</time>
      </trkpt>
      <trkpt lat="40.287933" lon="-4.836300">
        <ele>1931.0</ele>
        <time>2015-08-02T12:23:09Z</time>
      </trkpt>
      <trkpt lat="40.287967" lon="-4.836167">
        <ele>1930.0</ele>
        <time>2015-08-02T12:23:10Z</time>
      </trkpt>
      <trkpt lat="40.288000" lon="-4.836017">
        <ele>1929.0</ele>
        <time>2015-08-02T12:23:11Z</time>
      </trkpt>
      <trkpt lat="40.288050" lon="-4.835867">
        <ele>1926.0</ele>
        <time>2015-08-02T12:23:12Z</time>
      </trkpt>
      <trkpt lat="40.288100" lon="-4.835717">
        <ele>1923.0</ele>
        <time>2015-08-02T12:23:13Z</time>
      </trkpt>
      <trkpt lat="40.288150" lon="-4.835550">
        <ele>1921.0</ele>
        <time>2015-08-02T12:23:14Z</time>
      </trkpt>
      <trkpt lat="40.288200" lon="-4.835400">
        <ele>1919.0</ele>
        <time>2015-08-02T12:23:15Z</time>
      </trkpt>
      <trkpt lat="40.288250" lon="-4.835250">
        <ele>1917.0</ele>
        <time>2015-08-02T12:23:16Z</time>
      </trkpt>
      <trkpt lat="40.288300" lon="-4.835100">
        <ele>1916.0</ele>
        <time>2015-08-02T12:23:17Z</time>
      </trkpt>
      <trkpt lat="40.288367" lon="-4.834950">
        <ele>1914.0</ele>
        <time>2015-08-02T12:23:18Z</time>
      </trkpt>
      <trkpt lat="40.288450" lon="-4.834800">
        <ele>1913.0</ele>
        <time>2015-08-02T12:23:19Z</time>
      </trkpt>
      <trkpt lat="40.288533" lon="-4.834650">
        <ele>1911.0</ele>
        <time>2015-08-02T12:23:20Z</time>
      </trkpt>
      <trkpt lat="40.288600" lon="-4.834500">
        <ele>1910.0</ele>
        <time>2015-08-02T12:23:21Z</time>
      </trkpt>
      <trkpt lat="40.288683" lon="-4.834350">
        <ele>1909.0</ele>
        <time>2015-08-02T12:23:22Z</time>
      </trkpt>
      <trkpt lat="40.288767" lon="-4.834200">
        <ele>1909.0</ele>
        <time>2015-08-02T12:23:23Z</time>
      </trkpt>
      <trkpt lat="40.288833" lon="-4.834050">
        <ele>1908.0</ele>
        <time>2015-08-02T12:23:24Z</time>
      </trkpt>
      <trkpt lat="40.288917" lon="-4.833917">
        <ele>1908.0</ele>
        <time>2015-08-02T12:23:25Z</time>
      </trkpt>
      <trkpt lat="40.288983" lon="-4.833767">
        <ele>1906.0</ele>
        <time>2015-08-02T12:23:26Z</time>
      </trkpt>
      <trkpt lat="40.289050" lon="-4.833617">
        <ele>1905.0</ele>
        <time>2015-08-02T12:23:27Z</time>
      </trkpt>
      <trkpt lat="40.289117" lon="-4.833467">
        <ele>1904.0</ele>
        <time>2015-08-02T12:23:28Z</time>
      </trkpt>
      <trkpt lat="40.289167" lon="-4.833300">
        <ele>1903.0</ele>
        <time>2015-08-02T12:23:29Z</time>
      </trkpt>
      <trkpt lat="40.289233" lon="-4.833150">
        <ele>1902.0</ele>
        <time>2015-08-02T12:23:30Z</time>
      </trkpt>
      <trkpt lat="40.289300" lon="-4.833000">
        <ele>1900.0</ele>
        <time>2015-08-02T12:23:31Z</time>
      </trkpt>
      <trkpt lat="40.289350" lon="-4.832867">
        <ele>1899.0</ele>
        <time>2015-08-02T12:23:32Z</time>
      </trkpt>
      <trkpt lat="40.289433" lon="-4.832717">
        <ele>1897.0</ele>
        <time>2015-08-02T12:23:33Z</time>
      </trkpt>
      <trkpt lat="40.289500" lon="-4.832567">
        <ele>1895.0</ele>
        <time>2015-08-02T12:23:34Z</time>
      </trkpt>
      <trkpt lat="40.289567" lon="-4.832417">
        <ele>1894.0</ele>
        <time>2015-08-02T12:23:35Z</time>
      </trkpt>
      <trkpt lat="40.289633" lon="-4.832267">
        <ele>1893.0</ele>
        <time>2015-08-02T12:23:36Z</time>
      </trkpt>
      <trkpt lat="40.289700" lon="-4.832100">
        <ele>1892.0</ele>
        <time>2015-08-02T12:23:37Z</time>
      </trkpt>
      <trkpt lat="40.289767" lon="-4.831967">
        <ele>1891.0</ele>
        <time>2015-08-02T12:23:38Z</time>
      </trkpt>
      <trkpt lat="40.289833" lon="-4.831817">
        <ele>1890.0</ele>
        <time>2015-08-02T12:23:39Z</time>
      </trkpt>
      <trkpt lat="40.289883" lon="-4.831683">
        <ele>1889.0</ele>
        <time>2015-08-02T12:23:40Z</time>
      </trkpt>
      <trkpt lat="40.289933" lon="-4.831533">
        <ele>1887.0</ele>
        <time>2015-08-02T12:23:41Z</time>
      </trkpt>
      <trkpt lat="40.289983" lon="-4.831400">
        <ele>1885.0</ele>
        <time>2015-08-02T12:23:42Z</time>
      </trkpt>
      <trkpt lat="40.290067" lon="-4.831250">
        <ele>1882.0</ele>
        <time>2015-08-02T12:23:43Z</time>
      </trkpt>
      <trkpt lat="40.290133" lon="-4.831083">
        <ele>1879.0</ele>
        <time>2015-08-02T12:23:44Z</time>
      </trkpt>
      <trkpt lat="40.290200" lon="-4.830917">
        <ele>1877.0</ele>
        <time>2015-08-02T12:23:45Z</time>
      </trkpt>
      <trkpt lat="40.290250" lon="-4.830767">
        <ele>1876.0</ele>
        <time>2015-08-02T12:23:46Z</time>
      </trkpt>
      <trkpt lat="40.290300" lon="-4.830617">
        <ele>1876.0</ele>
        <time>2015-08-02T12:23:47Z</time>
      </trkpt>
      <trkpt lat="40.290367" lon="-4.830483">
        <ele>1876.0</ele>
        <time>2015-08-02T12:23:48Z</time>
      </trkpt>
      <trkpt lat="40.290433" lon="-4.830350">
        <ele>1876.0</ele>
        <time>2015-08-02T12:23:49Z</time>
      </trkpt>
      <trkpt lat="40.290500" lon="-4.830217">
        <ele>1875.0</ele>
        <time>2015-08-02T12:23:50Z</time>
      </trkpt>
      <trkpt lat="40.290533" lon="-4.830050">
        <ele>1874.0</ele>
        <time>2015-08-02T12:23:51Z</time>
      </trkpt>
      <trkpt lat="40.290583" lon="-4.829900">
        <ele>1873.0</ele>
        <time>2015-08-02T12:23:52Z</time>
      </trkpt>
      <trkpt lat="40.290650" lon="-4.829733">
        <ele>1874.0</ele>
        <time>2015-08-02T12:23:53Z</time>
      </trkpt>
      <trkpt lat="40.290733" lon="-4.829583">
        <ele>1874.0</ele>
        <time>2015-08-02T12:23:54Z</time>
      </trkpt>
      <trkpt lat="40.290833" lon="-4.829433">
        <ele>1875.0</ele>
        <time>2015-08-02T12:23:55Z</time>
      </trkpt>
      <trkpt lat="40.290917" lon="-4.829317">
        <ele>1876.0</ele>
        <time>2015-08-02T12:23:56Z</time>
      </trkpt>
      <trkpt lat="40.291000" lon="-4.829183">
        <ele>1877.0</ele>
        <time>2015-08-02T12:23:57Z</time>
      </trkpt>
      <trkpt lat="40.291050" lon="-4.829050">
        <ele>1877.0</ele>
        <time>2015-08-02T12:23:58Z</time>
      </trkpt>
      <trkpt lat="40.291100" lon="-4.828917">
        <ele>1876.0</ele>
        <time>2015-08-02T12:23:59Z</time>
      </trkpt>
      <trkpt lat="40.291133" lon="-4.828800">
        <ele>1876.0</ele>
        <time>2015-08-02T12:24:00Z</time>
      </trkpt>
      <trkpt lat="40.291150" lon="-4.828683">
        <ele>1876.0</ele>
        <time>2015-08-02T12:24:01Z</time>
      </trkpt>
      <trkpt lat="40.291133" lon="-4.828583">
        <ele>1876.0</ele>
        <time>2015-08-02T12:24:02Z</time>
      </trkpt>
      <trkpt lat="40.291117" lon="-4.828517">
        <ele>1875.0</ele>
        <time>2015-08-02T12:24:03Z</time>
      </trkpt>
      <trkpt lat="40.291083" lon="-4.828467">
        <ele>1873.0</ele>
        <time>2015-08-02T12:24:04Z</time>
      </trkpt>
      <trkpt lat="40.291033" lon="-4.828450">
        <ele>1871.0</ele>
        <time>2015-08-02T12:24:05Z</time>
      </trkpt>
      <trkpt lat="40.290983" lon="-4.828467">
        <ele>1870.0</ele>
        <time>2015-08-02T12:24:06Z</time>
      </trkpt>
      <trkpt lat="40.290950" lon="-4.828500">
        <ele>1869.0</ele>
        <time>2015-08-02T12:24:07Z</time>
      </trkpt>
      <trkpt lat="40.290933" lon="-4.828567">
        <ele>1868.0</ele>
        <time>2015-08-02T12:24:08Z</time>
      </trkpt>
      <trkpt lat="40.290917" lon="-4.828633">
        <ele>1867.0</ele>
        <time>2015-08-02T12:24:09Z</time>
      </trkpt>
      <trkpt lat="40.290917" lon="-4.828717">
        <ele>1866.0</ele>
        <time>2015-08-02T12:24:10Z</time>
      </trkpt>
      <trkpt lat="40.290950" lon="-4.828800">
        <ele>1865.0</ele>
        <time>2015-08-02T12:24:11Z</time>
      </trkpt>
      <trkpt lat="40.290983" lon="-4.828883">
        <ele>1864.0</ele>
        <time>2015-08-02T12:24:12Z</time>
      </trkpt>
      <trkpt lat="40.291050" lon="-4.829017">
        <ele>1862.0</ele>
        <time>2015-08-02T12:24:13Z</time>
      </trkpt>
      <trkpt lat="40.291100" lon="-4.829083">
        <ele>1860.0</ele>
        <time>2015-08-02T12:24:14Z</time>
      </trkpt>
      <trkpt lat="40.291200" lon="-4.829167">
        <ele>1859.0</ele>
        <time>2015-08-02T12:24:15Z</time>
      </trkpt>
      <trkpt lat="40.291333" lon="-4.829250">
        <ele>1858.0</ele>
        <time>2015-08-02T12:24:16Z</time>
      </trkpt>
      <trkpt lat="40.291467" lon="-4.829300">
        <ele>1857.0</ele>
        <time>2015-08-02T12:24:17Z</time>
      </trkpt>
      <trkpt lat="40.291650" lon="-4.829317">
        <ele>1856.0</ele>
        <time>2015-08-02T12:24:18Z</time>
      </trkpt>
      <trkpt lat="40.291750" lon="-4.829300">
        <ele>1857.0</ele>
        <time>2015-08-02T12:24:19Z</time>
      </trkpt>
      <trkpt lat="40.291867" lon="-4.829250">
        <ele>1856.0</ele>
        <time>2015-08-02T12:24:20Z</time>
      </trkpt>
      <trkpt lat="40.291983" lon="-4.829167">
        <ele>1856.0</ele>
        <time>2015-08-02T12:24:21Z</time>
      </trkpt>
      <trkpt lat="40.292100" lon="-4.829067">
        <ele>1855.0</ele>
        <time>2015-08-02T12:24:22Z</time>
      </trkpt>
      <trkpt lat="40.292200" lon="-4.828950">
        <ele>1854.0</ele>
        <time>2015-08-02T12:24:23Z</time>
      </trkpt>
      <trkpt lat="40.292300" lon="-4.828833">
        <ele>1854.0</ele>
        <time>2015-08-02T12:24:24Z</time>
      </trkpt>
      <trkpt lat="40.292383" lon="-4.828683">
        <ele>1853.0</ele>
        <time>2015-08-02T12:24:25Z</time>
      </trkpt>
      <trkpt lat="40.292467" lon="-4.828550">
        <ele>1853.0</ele>
        <time>2015-08-02T12:24:26Z</time>
      </trkpt>
      <trkpt lat="40.292550" lon="-4.828400">
        <ele>1854.0</ele>
        <time>2015-08-02T12:24:27Z</time>
      </trkpt>
      <trkpt lat="40.292633" lon="-4.828267">
        <ele>1855.0</ele>
        <time>2015-08-02T12:24:28Z</time>
      </trkpt>
      <trkpt lat="40.292733" lon="-4.828150">
        <ele>1856.0</ele>
        <time>2015-08-02T12:24:29Z</time>
      </trkpt>
      <trkpt lat="40.292833" lon="-4.828017">
        <ele>1856.0</ele>
        <time>2015-08-02T12:24:30Z</time>
      </trkpt>
      <trkpt lat="40.292917" lon="-4.827900">
        <ele>1856.0</ele>
        <time>2015-08-02T12:24:31Z</time>
      </trkpt>
      <trkpt lat="40.293000" lon="-4.827767">
        <ele>1856.0</ele>
        <time>2015-08-02T12:24:32Z</time>
      </trkpt>
      <trkpt lat="40.293083" lon="-4.827633">
        <ele>1857.0</ele>
        <time>2015-08-02T12:24:33Z</time>
      </trkpt>
      <trkpt lat="40.293167" lon="-4.827517">
        <ele>1858.0</ele>
        <time>2015-08-02T12:24:34Z</time>
      </trkpt>
      <trkpt lat="40.293250" lon="-4.827400">
        <ele>1858.0</ele>
        <time>2015-08-02T12:24:35Z</time>
      </trkpt>
      <trkpt lat="40.293333" lon="-4.827283">
        <ele>1858.0</ele>
        <time>2015-08-02T12:24:36Z</time>
      </trkpt>
      <trkpt lat="40.293417" lon="-4.827167">
        <ele>1857.0</ele>
        <time>2015-08-02T12:24:37Z</time>
      </trkpt>
      <trkpt lat="40.293500" lon="-4.827050">
        <ele>1857.0</ele>
        <time>2015-08-02T12:24:38Z</time>
      </trkpt>
      <trkpt lat="40.293567" lon="-4.826933">
        <ele>1856.0</ele>
        <time>2015-08-02T12:24:39Z</time>
      </trkpt>
      <trkpt lat="40.293633" lon="-4.826800">
        <ele>1854.0</ele>
        <time>2015-08-02T12:24:40Z</time>
      </trkpt>
      <trkpt lat="40.293683" lon="-4.826667">
        <ele>1853.0</ele>
        <time>2015-08-02T12:24:41Z</time>
      </trkpt>
      <trkpt lat="40.293700" lon="-4.826533">
        <ele>1850.0</ele>
        <time>2015-08-02T12:24:42Z</time>
      </trkpt>
      <trkpt lat="40.293717" lon="-4.826383">
        <ele>1848.0</ele>
        <time>2015-08-02T12:24:43Z</time>
      </trkpt>
      <trkpt lat="40.293717" lon="-4.826233">
        <ele>1845.0</ele>
        <time>2015-08-02T12:24:44Z</time>
      </trkpt>
      <trkpt lat="40.293700" lon="-4.826083">
        <ele>1844.0</ele>
        <time>2015-08-02T12:24:45Z</time>
      </trkpt>
      <trkpt lat="40.293683" lon="-4.825950">
        <ele>1844.0</ele>
        <time>2015-08-02T12:24:46Z</time>
      </trkpt>
      <trkpt lat="40.293683" lon="-4.825833">
        <ele>1844.0</ele>
        <time>2015-08-02T12:24:47Z</time>
      </trkpt>
      <trkpt lat="40.293667" lon="-4.825700">
        <ele>1843.0</ele>
        <time>2015-08-02T12:24:48Z</time>
      </trkpt>
      <trkpt lat="40.293667" lon="-4.825567">
        <ele>1841.0</ele>
        <time>2015-08-02T12:24:49Z</time>
      </trkpt>
      <trkpt lat="40.293650" lon="-4.825417">
        <ele>1839.0</ele>
        <time>2015-08-02T12:24:50Z</time>
      </trkpt>
      <trkpt lat="40.293650" lon="-4.825267">
        <ele>1837.0</ele>
        <time>2015-08-02T12:24:51Z</time>
      </trkpt>
      <trkpt lat="40.293667" lon="-4.825117">
        <ele>1836.0</ele>
        <time>2015-08-02T12:24:52Z</time>
      </trkpt>
      <trkpt lat="40.293667" lon="-4.824983">
        <ele>1834.0</ele>
        <time>2015-08-02T12:24:53Z</time>
      </trkpt>
      <trkpt lat="40.293667" lon="-4.824833">
        <ele>1833.0</ele>
        <time>2015-08-02T12:24:54Z</time>
      </trkpt>
      <trkpt lat="40.293667" lon="-4.824700">
        <ele>1830.0</ele>
        <time>2015-08-02T12:24:55Z</time>
      </trkpt>
      <trkpt lat="40.293683" lon="-4.824550">
        <ele>1828.0</ele>
        <time>2015-08-02T12:24:56Z</time>
      </trkpt>
      <trkpt lat="40.293700" lon="-4.824383">
        <ele>1825.0</ele>
        <time>2015-08-02T12:24:57Z</time>
      </trkpt>
      <trkpt lat="40.293717" lon="-4.824233">
        <ele>1823.0</ele>
        <time>2015-08-02T12:24:58Z</time>
      </trkpt>
      <trkpt lat="40.293750" lon="-4.824083">
        <ele>1822.0</ele>
        <time>2015-08-02T12:24:59Z</time>
      </trkpt>
      <trkpt lat="40.293750" lon="-4.823933">
        <ele>1820.0</ele>
        <time>2015-08-02T12:25:00Z</time>
      </trkpt>
      <trkpt lat="40.293750" lon="-4.823783">
        <ele>1817.0</ele>
        <time>2015-08-02T12:25:01Z</time>
      </trkpt>
      <trkpt lat="40.293750" lon="-4.823650">
        <ele>1815.0</ele>
        <time>2015-08-02T12:25:02Z</time>
      </trkpt>
      <trkpt lat="40.293750" lon="-4.823517">
        <ele>1814.0</ele>
        <time>2015-08-02T12:25:03Z</time>
      </trkpt>
      <trkpt lat="40.293750" lon="-4.823383">
        <ele>1813.0</ele>
        <time>2015-08-02T12:25:04Z</time>
      </trkpt>
      <trkpt lat="40.293767" lon="-4.823250">
        <ele>1812.0</ele>
        <time>2015-08-02T12:25:05Z</time>
      </trkpt>
      <trkpt lat="40.293783" lon="-4.823117">
        <ele>1810.0</ele>
        <time>2015-08-02T12:25:06Z</time>
      </trkpt>
      <trkpt lat="40.293783" lon="-4.823000">
        <ele>1809.0</ele>
        <time>2015-08-02T12:25:07Z</time>
      </trkpt>
      <trkpt lat="40.293783" lon="-4.822883">
        <ele>1807.0</ele>
        <time>2015-08-02T12:25:08Z</time>
      </trkpt>
      <trkpt lat="40.293800" lon="-4.822750">
        <ele>1805.0</ele>
        <time>2015-08-02T12:25:09Z</time>
      </trkpt>
      <trkpt lat="40.293833" lon="-4.822617">
        <ele>1803.0</ele>
        <time>2015-08-02T12:25:10Z</time>
      </trkpt>
      <trkpt lat="40.293867" lon="-4.822483">
        <ele>1800.0</ele>
        <time>2015-08-02T12:25:11Z</time>
      </trkpt>
      <trkpt lat="40.293900" lon="-4.822333">
        <ele>1798.0</ele>
        <time>2015-08-02T12:25:12Z</time>
      </trkpt>
      <trkpt lat="40.293933" lon="-4.822200">
        <ele>1797.0</ele>
        <time>2015-08-02T12:25:13Z</time>
      </trkpt>
      <trkpt lat="40.293967" lon="-4.822067">
        <ele>1795.0</ele>
        <time>2015-08-02T12:25:14Z</time>
      </trkpt>
      <trkpt lat="40.294000" lon="-4.821933">
        <ele>1793.0</ele>
        <time>2015-08-02T12:25:15Z</time>
      </trkpt>
      <trkpt lat="40.294033" lon="-4.821817">
        <ele>1790.0</ele>
        <time>2015-08-02T12:25:16Z</time>
      </trkpt>
      <trkpt lat="40.294067" lon="-4.821667">
        <ele>1786.0</ele>
        <time>2015-08-02T12:25:17Z</time>
      </trkpt>
      <trkpt lat="40.294100" lon="-4.821517">
        <ele>1782.0</ele>
        <time>2015-08-02T12:25:18Z</time>
      </trkpt>
      <trkpt lat="40.294133" lon="-4.821367">
        <ele>1779.0</ele>
        <time>2015-08-02T12:25:19Z</time>
      </trkpt>
      <trkpt lat="40.294167" lon="-4.821200">
        <ele>1777.0</ele>
        <time>2015-08-02T12:25:20Z</time>
      </trkpt>
      <trkpt lat="40.294200" lon="-4.821050">
        <ele>1775.0</ele>
        <time>2015-08-02T12:25:21Z</time>
      </trkpt>
      <trkpt lat="40.294233" lon="-4.820883">
        <ele>1774.0</ele>
        <time>2015-08-02T12:25:22Z</time>
      </trkpt>
      <trkpt lat="40.294250" lon="-4.820750">
        <ele>1773.0</ele>
        <time>2015-08-02T12:25:23Z</time>
      </trkpt>
      <trkpt lat="40.294267" lon="-4.820600">
        <ele>1772.0</ele>
        <time>2015-08-02T12:25:24Z</time>
      </trkpt>
      <trkpt lat="40.294283" lon="-4.820450">
        <ele>1771.0</ele>
        <time>2015-08-02T12:25:25Z</time>
      </trkpt>
      <trkpt lat="40.294300" lon="-4.820300">
        <ele>1769.0</ele>
        <time>2015-08-02T12:25:26Z</time>
      </trkpt>
      <trkpt lat="40.294333" lon="-4.820133">
        <ele>1766.0</ele>
        <time>2015-08-02T12:25:27Z</time>
      </trkpt>
      <trkpt lat="40.294367" lon="-4.819967">
        <ele>1765.0</ele>
        <time>2015-08-02T12:25:28Z</time>
      </trkpt>
      <trkpt lat="40.294417" lon="-4.819800">
        <ele>1763.0</ele>
        <time>2015-08-02T12:25:29Z</time>
      </trkpt>
      <trkpt lat="40.294483" lon="-4.819650">
        <ele>1762.0</ele>
        <time>2015-08-02T12:25:30Z</time>
      </trkpt>
      <trkpt lat="40.294533" lon="-4.819500">
        <ele>1760.0</ele>
        <time>2015-08-02T12:25:31Z</time>
      </trkpt>
      <trkpt lat="40.294600" lon="-4.819350">
        <ele>1758.0</ele>
        <time>2015-08-02T12:25:32Z</time>
      </trkpt>
      <trkpt lat="40.294683" lon="-4.819200">
        <ele>1756.0</ele>
        <time>2015-08-02T12:25:33Z</time>
      </trkpt>
      <trkpt lat="40.294750" lon="-4.819033">
        <ele>1753.0</ele>
        <time>2015-08-02T12:25:34Z</time>
      </trkpt>
      <trkpt lat="40.294833" lon="-4.818867">
        <ele>1751.0</ele>
        <time>2015-08-02T12:25:35Z</time>
      </trkpt>
      <trkpt lat="40.294933" lon="-4.818700">
        <ele>1750.0</ele>
        <time>2015-08-02T12:25:36Z</time>
      </trkpt>
      <trkpt lat="40.295017" lon="-4.818550">
        <ele>1750.0</ele>
        <time>2015-08-02T12:25:37Z</time>
      </trkpt>
      <trkpt lat="40.295083" lon="-4.818400">
        <ele>1750.0</ele>
        <time>2015-08-02T12:25:38Z</time>
      </trkpt>
      <trkpt lat="40.295167" lon="-4.818250">
        <ele>1749.0</ele>
        <time>2015-08-02T12:25:39Z</time>
      </trkpt>
      <trkpt lat="40.295233" lon="-4.818100">
        <ele>1747.0</ele>
        <time>2015-08-02T12:25:40Z</time>
      </trkpt>
      <trkpt lat="40.295317" lon="-4.817933">
        <ele>1745.0</ele>
        <time>2015-08-02T12:25:41Z</time>
      </trkpt>
      <trkpt lat="40.295383" lon="-4.817767">
        <ele>1743.0</ele>
        <time>2015-08-02T12:25:42Z</time>
      </trkpt>
      <trkpt lat="40.295450" lon="-4.817583">
        <ele>1741.0</ele>
        <time>2015-08-02T12:25:43Z</time>
      </trkpt>
      <trkpt lat="40.295517" lon="-4.817400">
        <ele>1741.0</ele>
        <time>2015-08-02T12:25:44Z</time>
      </trkpt>
      <trkpt lat="40.295583" lon="-4.817233">
        <ele>1740.0</ele>
        <time>2015-08-02T12:25:45Z</time>
      </trkpt>
      <trkpt lat="40.295633" lon="-4.817050">
        <ele>1740.0</ele>
        <time>2015-08-02T12:25:46Z</time>
      </trkpt>
      <trkpt lat="40.295683" lon="-4.816883">
        <ele>1739.0</ele>
        <time>2015-08-02T12:25:47Z</time>
      </trkpt>
      <trkpt lat="40.295733" lon="-4.816700">
        <ele>1738.0</ele>
        <time>2015-08-02T12:25:48Z</time>
      </trkpt>
      <trkpt lat="40.295783" lon="-4.816533">
        <ele>1736.0</ele>
        <time>2015-08-02T12:25:49Z</time>
      </trkpt>
      <trkpt lat="40.295833" lon="-4.816333">
        <ele>1734.0</ele>
        <time>2015-08-02T12:25:50Z</time>
      </trkpt>
      <trkpt lat="40.295883" lon="-4.816133">
        <ele>1732.0</ele>
        <time>2015-08-02T12:25:51Z</time>
      </trkpt>
      <trkpt lat="40.295933" lon="-4.815950">
        <ele>1731.0</ele>
        <time>2015-08-02T12:25:52Z</time>
      </trkpt>
      <trkpt lat="40.295983" lon="-4.815750">
        <ele>1730.0</ele>
        <time>2015-08-02T12:25:53Z</time>
      </trkpt>
      <trkpt lat="40.296050" lon="-4.815583">
        <ele>1730.0</ele>
        <time>2015-08-02T12:25:54Z</time>
      </trkpt>
      <trkpt lat="40.296117" lon="-4.815400">
        <ele>1729.0</ele>
        <time>2015-08-02T12:25:55Z</time>
      </trkpt>
      <trkpt lat="40.296200" lon="-4.815233">
        <ele>1727.0</ele>
        <time>2015-08-02T12:25:56Z</time>
      </trkpt>
      <trkpt lat="40.296283" lon="-4.815050">
        <ele>1725.0</ele>
        <time>2015-08-02T12:25:57Z</time>
      </trkpt>
      <trkpt lat="40.296367" lon="-4.814867">
        <ele>1724.0</ele>
        <time>2015-08-02T12:25:58Z</time>
      </trkpt>
      <trkpt lat="40.296450" lon="-4.814683">
        <ele>1724.0</ele>
        <time>2015-08-02T12:25:59Z</time>
      </trkpt>
      <trkpt lat="40.296533" lon="-4.814500">
        <ele>1724.0</ele>
        <time>2015-08-02T12:26:00Z</time>
      </trkpt>
      <trkpt lat="40.296617" lon="-4.814333">
        <ele>1726.0</ele>
        <time>2015-08-02T12:26:01Z</time>
      </trkpt>
      <trkpt lat="40.296700" lon="-4.814167">
        <ele>1727.0</ele>
        <time>2015-08-02T12:26:02Z</time>
      </trkpt>
      <trkpt lat="40.296783" lon="-4.814000">
        <ele>1728.0</ele>
        <time>2015-08-02T12:26:03Z</time>
      </trkpt>
      <trkpt lat="40.296883" lon="-4.813850">
        <ele>1728.0</ele>
        <time>2015-08-02T12:26:04Z</time>
      </trkpt>
      <trkpt lat="40.296967" lon="-4.813683">
        <ele>1729.0</ele>
        <time>2015-08-02T12:26:05Z</time>
      </trkpt>
      <trkpt lat="40.297067" lon="-4.813517">
        <ele>1730.0</ele>
        <time>2015-08-02T12:26:06Z</time>
      </trkpt>
      <trkpt lat="40.297150" lon="-4.813350">
        <ele>1731.0</ele>
        <time>2015-08-02T12:26:07Z</time>
      </trkpt>
      <trkpt lat="40.297233" lon="-4.813183">
        <ele>1732.0</ele>
        <time>2015-08-02T12:26:08Z</time>
      </trkpt>
      <trkpt lat="40.297267" lon="-4.813000">
        <ele>1733.0</ele>
        <time>2015-08-02T12:26:09Z</time>
      </trkpt>
      <trkpt lat="40.297283" lon="-4.812833">
        <ele>1732.0</ele>
        <time>2015-08-02T12:26:10Z</time>
      </trkpt>
      <trkpt lat="40.297267" lon="-4.812667">
        <ele>1732.0</ele>
        <time>2015-08-02T12:26:11Z</time>
      </trkpt>
      <trkpt lat="40.297217" lon="-4.812517">
        <ele>1733.0</ele>
        <time>2015-08-02T12:26:12Z</time>
      </trkpt>
      <trkpt lat="40.297150" lon="-4.812417">
        <ele>1735.0</ele>
        <time>2015-08-02T12:26:13Z</time>
      </trkpt>
      <trkpt lat="40.297083" lon="-4.812350">
        <ele>1738.0</ele>
        <time>2015-08-02T12:26:14Z</time>
      </trkpt>
      <trkpt lat="40.297033" lon="-4.812317">
        <ele>1741.0</ele>
        <time>2015-08-02T12:26:15Z</time>
      </trkpt>
      <trkpt lat="40.297000" lon="-4.812283">
        <ele>1742.0</ele>
        <time>2015-08-02T12:26:16Z</time>
      </trkpt>
      <trkpt lat="40.296983" lon="-4.812250">
        <ele>1743.0</ele>
        <time>2015-08-02T12:26:17Z</time>
      </trkpt>
      <trkpt lat="40.296950" lon="-4.812250">
        <ele>1742.0</ele>
        <time>2015-08-02T12:26:18Z</time>
      </trkpt>
      <trkpt lat="40.296917" lon="-4.812267">
        <ele>1739.0</ele>
        <time>2015-08-02T12:26:19Z</time>
      </trkpt>
      <trkpt lat="40.296883" lon="-4.812317">
        <ele>1737.0</ele>
        <time>2015-08-02T12:26:20Z</time>
      </trkpt>
      <trkpt lat="40.296850" lon="-4.812383">
        <ele>1735.0</ele>
        <time>2015-08-02T12:26:21Z</time>
      </trkpt>
      <trkpt lat="40.296850" lon="-4.812467">
        <ele>1734.0</ele>
        <time>2015-08-02T12:26:22Z</time>
      </trkpt>
      <trkpt lat="40.296867" lon="-4.812550">
        <ele>1733.0</ele>
        <time>2015-08-02T12:26:23Z</time>
      </trkpt>
      <trkpt lat="40.296917" lon="-4.812650">
        <ele>1733.0</ele>
        <time>2015-08-02T12:26:24Z</time>
      </trkpt>
      <trkpt lat="40.297017" lon="-4.812733">
        <ele>1734.0</ele>
        <time>2015-08-02T12:26:25Z</time>
      </trkpt>
      <trkpt lat="40.297117" lon="-4.812783">
        <ele>1735.0</ele>
        <time>2015-08-02T12:26:26Z</time>
      </trkpt>
      <trkpt lat="40.297217" lon="-4.812800">
        <ele>1737.0</ele>
        <time>2015-08-02T12:26:27Z</time>
      </trkpt>
      <trkpt lat="40.297317" lon="-4.812833">
        <ele>1739.0</ele>
        <time>2015-08-02T12:26:28Z</time>
      </trkpt>
      <trkpt lat="40.297417" lon="-4.812850">
        <ele>1740.0</ele>
        <time>2015-08-02T12:26:29Z</time>
      </trkpt>
      <trkpt lat="40.297533" lon="-4.812867">
        <ele>1739.0</ele>
        <time>2015-08-02T12:26:30Z</time>
      </trkpt>
      <trkpt lat="40.297650" lon="-4.812867">
        <ele>1739.0</ele>
        <time>2015-08-02T12:26:31Z</time>
      </trkpt>
      <trkpt lat="40.297783" lon="-4.812833">
        <ele>1739.0</ele>
        <time>2015-08-02T12:26:32Z</time>
      </trkpt>
      <trkpt lat="40.297917" lon="-4.812783">
        <ele>1739.0</ele>
        <time>2015-08-02T12:26:33Z</time>
      </trkpt>
      <trkpt lat="40.298050" lon="-4.812683">
        <ele>1740.0</ele>
        <time>2015-08-02T12:26:34Z</time>
      </trkpt>
      <trkpt lat="40.298167" lon="-4.812600">
        <ele>1740.0</ele>
        <time>2015-08-02T12:26:35Z</time>
      </trkpt>
      <trkpt lat="40.298283" lon="-4.812500">
        <ele>1740.0</ele>
        <time>2015-08-02T12:26:36Z</time>
      </trkpt>
      <trkpt lat="40.298400" lon="-4.812383">
        <ele>1739.0</ele>
        <time>2015-08-02T12:26:37Z</time>
      </trkpt>
      <trkpt lat="40.298533" lon="-4.812283">
        <ele>1739.0</ele>
        <time>2015-08-02T12:26:38Z</time>
      </trkpt>
      <trkpt lat="40.298633" lon="-4.812133">
        <ele>1738.0</ele>
        <time>2015-08-02T12:26:39Z</time>
      </trkpt>
      <trkpt lat="40.298750" lon="-4.811933">
        <ele>1737.0</ele>
        <time>2015-08-02T12:26:40Z</time>
      </trkpt>
      <trkpt lat="40.298817" lon="-4.811800">
        <ele>1736.0</ele>
        <time>2015-08-02T12:26:41Z</time>
      </trkpt>
      <trkpt lat="40.298883" lon="-4.811617">
        <ele>1736.0</ele>
        <time>2015-08-02T12:26:42Z</time>
      </trkpt>
      <trkpt lat="40.298950" lon="-4.811433">
        <ele>1737.0</ele>
        <time>2015-08-02T12:26:43Z</time>
      </trkpt>
      <trkpt lat="40.299017" lon="-4.811267">
        <ele>1738.0</ele>
        <time>2015-08-02T12:26:44Z</time>
      </trkpt>
      <trkpt lat="40.299067" lon="-4.811083">
        <ele>1739.0</ele>
        <time>2015-08-02T12:26:45Z</time>
      </trkpt>
      <trkpt lat="40.299133" lon="-4.810917">
        <ele>1739.0</ele>
        <time>2015-08-02T12:26:46Z</time>
      </trkpt>
      <trkpt lat="40.299217" lon="-4.810750">
        <ele>1739.0</ele>
        <time>2015-08-02T12:26:47Z</time>
      </trkpt>
      <trkpt lat="40.299283" lon="-4.810583">
        <ele>1739.0</ele>
        <time>2015-08-02T12:26:48Z</time>
      </trkpt>
      <trkpt lat="40.299350" lon="-4.810400">
        <ele>1738.0</ele>
        <time>2015-08-02T12:26:49Z</time>
      </trkpt>
      <trkpt lat="40.299400" lon="-4.810217">
        <ele>1738.0</ele>
        <time>2015-08-02T12:26:50Z</time>
      </trkpt>
      <trkpt lat="40.299433" lon="-4.810033">
        <ele>1737.0</ele>
        <time>2015-08-02T12:26:51Z</time>
      </trkpt>
      <trkpt lat="40.299450" lon="-4.809867">
        <ele>1735.0</ele>
        <time>2015-08-02T12:26:52Z</time>
      </trkpt>
      <trkpt lat="40.299467" lon="-4.809683">
        <ele>1733.0</ele>
        <time>2015-08-02T12:26:53Z</time>
      </trkpt>
      <trkpt lat="40.299483" lon="-4.809483">
        <ele>1732.0</ele>
        <time>2015-08-02T12:26:54Z</time>
      </trkpt>
      <trkpt lat="40.299500" lon="-4.809283">
        <ele>1732.0</ele>
        <time>2015-08-02T12:26:55Z</time>
      </trkpt>
      <trkpt lat="40.299550" lon="-4.809100">
        <ele>1732.0</ele>
        <time>2015-08-02T12:26:56Z</time>
      </trkpt>
      <trkpt lat="40.299583" lon="-4.808917">
        <ele>1732.0</ele>
        <time>2015-08-02T12:26:57Z</time>
      </trkpt>
      <trkpt lat="40.299650" lon="-4.808750">
        <ele>1732.0</ele>
        <time>2015-08-02T12:26:58Z</time>
      </trkpt>
      <trkpt lat="40.299700" lon="-4.808583">
        <ele>1732.0</ele>
        <time>2015-08-02T12:26:59Z</time>
      </trkpt>
      <trkpt lat="40.299783" lon="-4.808417">
        <ele>1732.0</ele>
        <time>2015-08-02T12:27:00Z</time>
      </trkpt>
      <trkpt lat="40.299883" lon="-4.808267">
        <ele>1731.0</ele>
        <time>2015-08-02T12:27:01Z</time>
      </trkpt>
      <trkpt lat="40.299967" lon="-4.808100">
        <ele>1732.0</ele>
        <time>2015-08-02T12:27:02Z</time>
      </trkpt>
      <trkpt lat="40.300050" lon="-4.807967">
        <ele>1734.0</ele>
        <time>2015-08-02T12:27:03Z</time>
      </trkpt>
      <trkpt lat="40.300117" lon="-4.807817">
        <ele>1736.0</ele>
        <time>2015-08-02T12:27:04Z</time>
      </trkpt>
      <trkpt lat="40.300183" lon="-4.807667">
        <ele>1737.0</ele>
        <time>2015-08-02T12:27:05Z</time>
      </trkpt>
      <trkpt lat="40.300250" lon="-4.807500">
        <ele>1737.0</ele>
        <time>2015-08-02T12:27:06Z</time>
      </trkpt>
      <trkpt lat="40.300333" lon="-4.807350">
        <ele>1738.0</ele>
        <time>2015-08-02T12:27:07Z</time>
      </trkpt>
      <trkpt lat="40.300417" lon="-4.807183">
        <ele>1739.0</ele>
        <time>2015-08-02T12:27:08Z</time>
      </trkpt>
      <trkpt lat="40.300467" lon="-4.807000">
        <ele>1740.0</ele>
        <time>2015-08-02T12:27:09Z</time>
      </trkpt>
      <trkpt lat="40.300500" lon="-4.806817">
        <ele>1742.0</ele>
        <time>2015-08-02T12:27:10Z</time>
      </trkpt>
      <trkpt lat="40.300550" lon="-4.806633">
        <ele>1745.0</ele>
        <time>2015-08-02T12:27:11Z</time>
      </trkpt>
      <trkpt lat="40.300617" lon="-4.806467">
        <ele>1748.0</ele>
        <time>2015-08-02T12:27:12Z</time>
      </trkpt>
      <trkpt lat="40.300717" lon="-4.806317">
        <ele>1750.0</ele>
        <time>2015-08-02T12:27:13Z</time>
      </trkpt>
      <trkpt lat="40.300817" lon="-4.806217">
        <ele>1751.0</ele>
        <time>2015-08-02T12:27:14Z</time>
      </trkpt>
      <trkpt lat="40.300933" lon="-4.806150">
        <ele>1752.0</ele>
        <time>2015-08-02T12:27:15Z</time>
      </trkpt>
      <trkpt lat="40.301050" lon="-4.806150">
        <ele>1753.0</ele>
        <time>2015-08-02T12:27:16Z</time>
      </trkpt>
      <trkpt lat="40.301167" lon="-4.806200">
        <ele>1752.0</ele>
        <time>2015-08-02T12:27:17Z</time>
      </trkpt>
      <trkpt lat="40.301267" lon="-4.806283">
        <ele>1751.0</ele>
        <time>2015-08-02T12:27:18Z</time>
      </trkpt>
      <trkpt lat="40.301333" lon="-4.806400">
        <ele>1751.0</ele>
        <time>2015-08-02T12:27:19Z</time>
      </trkpt>
      <trkpt lat="40.301383" lon="-4.806533">
        <ele>1751.0</ele>
        <time>2015-08-02T12:27:20Z</time>
      </trkpt>
      <trkpt lat="40.301400" lon="-4.806650">
        <ele>1752.0</ele>
        <time>2015-08-02T12:27:21Z</time>
      </trkpt>
      <trkpt lat="40.301350" lon="-4.806733">
        <ele>1756.0</ele>
        <time>2015-08-02T12:27:22Z</time>
      </trkpt>
      <trkpt lat="40.301283" lon="-4.806717">
        <ele>1758.0</ele>
        <time>2015-08-02T12:27:23Z</time>
      </trkpt>
      <trkpt lat="40.301200" lon="-4.806633">
        <ele>1759.0</ele>
        <time>2015-08-02T12:27:24Z</time>
      </trkpt>
      <trkpt lat="40.301167" lon="-4.806467">
        <ele>1760.0</ele>
        <time>2015-08-02T12:27:25Z</time>
      </trkpt>
      <trkpt lat="40.301150" lon="-4.806283">
        <ele>1763.0</ele>
        <time>2015-08-02T12:27:26Z</time>
      </trkpt>
      <trkpt lat="40.301167" lon="-4.806117">
        <ele>1767.0</ele>
        <time>2015-08-02T12:27:27Z</time>
      </trkpt>
      <trkpt lat="40.301183" lon="-4.805983">
        <ele>1771.0</ele>
        <time>2015-08-02T12:27:28Z</time>
      </trkpt>
      <trkpt lat="40.301183" lon="-4.805850">
        <ele>1773.0</ele>
        <time>2015-08-02T12:27:29Z</time>
      </trkpt>
      <trkpt lat="40.301200" lon="-4.805717">
        <ele>1774.0</ele>
        <time>2015-08-02T12:27:30Z</time>
      </trkpt>
      <trkpt lat="40.301233" lon="-4.805567">
        <ele>1774.0</ele>
        <time>2015-08-02T12:27:31Z</time>
      </trkpt>
      <trkpt lat="40.301300" lon="-4.805417">
        <ele>1773.0</ele>
        <time>2015-08-02T12:27:32Z</time>
      </trkpt>
      <trkpt lat="40.301400" lon="-4.805283">
        <ele>1774.0</ele>
        <time>2015-08-02T12:27:33Z</time>
      </trkpt>
      <trkpt lat="40.301483" lon="-4.805167">
        <ele>1776.0</ele>
        <time>2015-08-02T12:27:34Z</time>
      </trkpt>
      <trkpt lat="40.301583" lon="-4.805050">
        <ele>1779.0</ele>
        <time>2015-08-02T12:27:35Z</time>
      </trkpt>
      <trkpt lat="40.301667" lon="-4.804950">
        <ele>1782.0</ele>
        <time>2015-08-02T12:27:36Z</time>
      </trkpt>
      <trkpt lat="40.301750" lon="-4.804833">
        <ele>1784.0</ele>
        <time>2015-08-02T12:27:37Z</time>
      </trkpt>
      <trkpt lat="40.301817" lon="-4.804717">
        <ele>1786.0</ele>
        <time>2015-08-02T12:27:38Z</time>
      </trkpt>
      <trkpt lat="40.301850" lon="-4.804583">
        <ele>1789.0</ele>
        <time>2015-08-02T12:27:39Z</time>
      </trkpt>
      <trkpt lat="40.301867" lon="-4.804433">
        <ele>1791.0</ele>
        <time>2015-08-02T12:27:40Z</time>
      </trkpt>
      <trkpt lat="40.301867" lon="-4.804300">
        <ele>1793.0</ele>
        <time>2015-08-02T12:27:41Z</time>
      </trkpt>
      <trkpt lat="40.301833" lon="-4.804183">
        <ele>1795.0</ele>
        <time>2015-08-02T12:27:42Z</time>
      </trkpt>
      <trkpt lat="40.301767" lon="-4.804100">
        <ele>1798.0</ele>
        <time>2015-08-02T12:27:43Z</time>
      </trkpt>
      <trkpt lat="40.301700" lon="-4.804067">
        <ele>1800.0</ele>
        <time>2015-08-02T12:27:44Z</time>
      </trkpt>
      <trkpt lat="40.301650" lon="-4.804100">
        <ele>1801.0</ele>
        <time>2015-08-02T12:27:45Z</time>
      </trkpt>
      <trkpt lat="40.301617" lon="-4.804183">
        <ele>1801.0</ele>
        <time>2015-08-02T12:27:46Z</time>
      </trkpt>
      <trkpt lat="40.301633" lon="-4.804317">
        <ele>1802.0</ele>
        <time>2015-08-02T12:27:47Z</time>
      </trkpt>
      <trkpt lat="40.301717" lon="-4.804433">
        <ele>1802.0</ele>
        <time>2015-08-02T12:27:48Z</time>
      </trkpt>
      <trkpt lat="40.301850" lon="-4.804533">
        <ele>1804.0</ele>
        <time>2015-08-02T12:27:49Z</time>
      </trkpt>
      <trkpt lat="40.301967" lon="-4.804583">
        <ele>1809.0</ele>
        <time>2015-08-02T12:27:50Z</time>
      </trkpt>
      <trkpt lat="40.302050" lon="-4.804633">
        <ele>1815.0</ele>
        <time>2015-08-02T12:27:51Z</time>
      </trkpt>
      <trkpt lat="40.302100" lon="-4.804683">
        <ele>1818.0</ele>
        <time>2015-08-02T12:27:52Z</time>
      </trkpt>
      <trkpt lat="40.302167" lon="-4.804717">
        <ele>1820.0</ele>
        <time>2015-08-02T12:27:53Z</time>
      </trkpt>
      <trkpt lat="40.302250" lon="-4.804767">
        <ele>1820.0</ele>
        <time>2015-08-02T12:27:54Z</time>
      </trkpt>
      <trkpt lat="40.302350" lon="-4.804800">
        <ele>1819.0</ele>
        <time>2015-08-02T12:27:55Z</time>
      </trkpt>
      <trkpt lat="40.302467" lon="-4.804833">
        <ele>1819.0</ele>
        <time>2015-08-02T12:27:56Z</time>
      </trkpt>
      <trkpt lat="40.302617" lon="-4.804850">
        <ele>1820.0</ele>
        <time>2015-08-02T12:27:57Z</time>
      </trkpt>
      <trkpt lat="40.302750" lon="-4.804833">
        <ele>1822.0</ele>
        <time>2015-08-02T12:27:58Z</time>
      </trkpt>
      <trkpt lat="40.302867" lon="-4.804783">
        <ele>1826.0</ele>
        <time>2015-08-02T12:27:59Z</time>
      </trkpt>
      <trkpt lat="40.302967" lon="-4.804717">
        <ele>1829.0</ele>
        <time>2015-08-02T12:28:00Z</time>
      </trkpt>
      <trkpt lat="40.303067" lon="-4.804633">
        <ele>1831.0</ele>
        <time>2015-08-02T12:28:01Z</time>
      </trkpt>
      <trkpt lat="40.303133" lon="-4.804533">
        <ele>1833.0</ele>
        <time>2015-08-02T12:28:02Z</time>
      </trkpt>
      <trkpt lat="40.303200" lon="-4.804367">
        <ele>1833.0</ele>
        <time>2015-08-02T12:28:03Z</time>
      </trkpt>
      <trkpt lat="40.303217" lon="-4.804267">
        <ele>1834.0</ele>
        <time>2015-08-02T12:28:04Z</time>
      </trkpt>
      <trkpt lat="40.303217" lon="-4.804133">
        <ele>1836.0</ele>
        <time>2015-08-02T12:28:05Z</time>
      </trkpt>
      <trkpt lat="40.303183" lon="-4.804000">
        <ele>1838.0</ele>
        <time>2015-08-02T12:28:06Z</time>
      </trkpt>
      <trkpt lat="40.303150" lon="-4.803950">
        <ele>1841.0</ele>
        <time>2015-08-02T12:28:07Z</time>
      </trkpt>
      <trkpt lat="40.303100" lon="-4.803900">
        <ele>1843.0</ele>
        <time>2015-08-02T12:28:08Z</time>
      </trkpt>
      <trkpt lat="40.303033" lon="-4.803900">
        <ele>1844.0</ele>
        <time>2015-08-02T12:28:09Z</time>
      </trkpt>
      <trkpt lat="40.303000" lon="-4.803933">
        <ele>1845.0</ele>
        <time>2015-08-02T12:28:10Z</time>
      </trkpt>
      <trkpt lat="40.302967" lon="-4.803983">
        <ele>1847.0</ele>
        <time>2015-08-02T12:28:11Z</time>
      </trkpt>
      <trkpt lat="40.302967" lon="-4.804050">
        <ele>1849.0</ele>
        <time>2015-08-02T12:28:12Z</time>
      </trkpt>
      <trkpt lat="40.303000" lon="-4.804117">
        <ele>1851.0</ele>
        <time>2015-08-02T12:28:13Z</time>
      </trkpt>
      <trkpt lat="40.303050" lon="-4.804183">
        <ele>1852.0</ele>
        <time>2015-08-02T12:28:14Z</time>
      </trkpt>
      <trkpt lat="40.303133" lon="-4.804233">
        <ele>1852.0</ele>
        <time>2015-08-02T12:28:15Z</time>
      </trkpt>
      <trkpt lat="40.303233" lon="-4.804267">
        <ele>1853.0</ele>
        <time>2015-08-02T12:28:16Z</time>
      </trkpt>
      <trkpt lat="40.303350" lon="-4.804267">
        <ele>1854.0</ele>
        <time>2015-08-02T12:28:17Z</time>
      </trkpt>
      <trkpt lat="40.303467" lon="-4.804267">
        <ele>1855.0</ele>
        <time>2015-08-02T12:28:18Z</time>
      </trkpt>
      <trkpt lat="40.303583" lon="-4.804250">
        <ele>1857.0</ele>
        <time>2015-08-02T12:28:19Z</time>
      </trkpt>
      <trkpt lat="40.303700" lon="-4.804233">
        <ele>1858.0</ele>
        <time>2015-08-02T12:28:20Z</time>
      </trkpt>
      <trkpt lat="40.303817" lon="-4.804233">
        <ele>1860.0</ele>
        <time>2015-08-02T12:28:21Z</time>
      </trkpt>
      <trkpt lat="40.303933" lon="-4.804250">
        <ele>1862.0</ele>
        <time>2015-08-02T12:28:22Z</time>
      </trkpt>
      <trkpt lat="40.304050" lon="-4.804267">
        <ele>1863.0</ele>
        <time>2015-08-02T12:28:23Z</time>
      </trkpt>
      <trkpt lat="40.304167" lon="-4.804267">
        <ele>1865.0</ele>
        <time>2015-08-02T12:28:24Z</time>
      </trkpt>
      <trkpt lat="40.304283" lon="-4.804217">
        <ele>1866.0</ele>
        <time>2015-08-02T12:28:25Z</time>
      </trkpt>
      <trkpt lat="40.304417" lon="-4.804133">
        <ele>1867.0</ele>
        <time>2015-08-02T12:28:26Z</time>
      </trkpt>
      <trkpt lat="40.304517" lon="-4.804017">
        <ele>1869.0</ele>
        <time>2015-08-02T12:28:27Z</time>
      </trkpt>
      <trkpt lat="40.304617" lon="-4.803900">
        <ele>1871.0</ele>
        <time>2015-08-02T12:28:28Z</time>
      </trkpt>
      <trkpt lat="40.304700" lon="-4.803767">
        <ele>1875.0</ele>
        <time>2015-08-02T12:28:29Z</time>
      </trkpt>
      <trkpt lat="40.304783" lon="-4.803667">
        <ele>1879.0</ele>
        <time>2015-08-02T12:28:30Z</time>
      </trkpt>
      <trkpt lat="40.304867" lon="-4.803583">
        <ele>1883.0</ele>
        <time>2015-08-02T12:28:31Z</time>
      </trkpt>
      <trkpt lat="40.304933" lon="-4.803500">
        <ele>1885.0</ele>
        <time>2015-08-02T12:28:32Z</time>
      </trkpt>
      <trkpt lat="40.305000" lon="-4.803400">
        <ele>1886.0</ele>
        <time>2015-08-02T12:28:33Z</time>
      </trkpt>
      <trkpt lat="40.305033" lon="-4.803283">
        <ele>1885.0</ele>
        <time>2015-08-02T12:28:34Z</time>
      </trkpt>
      <trkpt lat="40.305033" lon="-4.803167">
        <ele>1885.0</ele>
        <time>2015-08-02T12:28:35Z</time>
      </trkpt>
      <trkpt lat="40.305000" lon="-4.803067">
        <ele>1886.0</ele>
        <time>2015-08-02T12:28:36Z</time>
      </trkpt>
      <trkpt lat="40.304950" lon="-4.803000">
        <ele>1887.0</ele>
        <time>2015-08-02T12:28:37Z</time>
      </trkpt>
      <trkpt lat="40.304883" lon="-4.803000">
        <ele>1888.0</ele>
        <time>2015-08-02T12:28:38Z</time>
      </trkpt>
      <trkpt lat="40.304833" lon="-4.803050">
        <ele>1889.0</ele>
        <time>2015-08-02T12:28:39Z</time>
      </trkpt>
      <trkpt lat="40.304800" lon="-4.803133">
        <ele>1890.0</ele>
        <time>2015-08-02T12:28:40Z</time>
      </trkpt>
      <trkpt lat="40.304800" lon="-4.803250">
        <ele>1891.0</ele>
        <time>2015-08-02T12:28:41Z</time>
      </trkpt>
      <trkpt lat="40.304800" lon="-4.803367">
        <ele>1892.0</ele>
        <time>2015-08-02T12:28:42Z</time>
      </trkpt>
      <trkpt lat="40.304817" lon="-4.803483">
        <ele>1895.0</ele>
        <time>2015-08-02T12:28:43Z</time>
      </trkpt>
      <trkpt lat="40.304867" lon="-4.803583">
        <ele>1898.0</ele>
        <time>2015-08-02T12:28:44Z</time>
      </trkpt>
      <trkpt lat="40.304933" lon="-4.803650">
        <ele>1900.0</ele>
        <time>2015-08-02T12:28:45Z</time>
      </trkpt>
      <trkpt lat="40.305017" lon="-4.803717">
        <ele>1901.0</ele>
        <time>2015-08-02T12:28:46Z</time>
      </trkpt>
      <trkpt lat="40.305150" lon="-4.803750">
        <ele>1901.0</ele>
        <time>2015-08-02T12:28:47Z</time>
      </trkpt>
      <trkpt lat="40.305233" lon="-4.803783">
        <ele>1902.0</ele>
        <time>2015-08-02T12:28:48Z</time>
      </trkpt>
      <trkpt lat="40.305350" lon="-4.803800">
        <ele>1904.0</ele>
        <time>2015-08-02T12:28:49Z</time>
      </trkpt>
      <trkpt lat="40.305483" lon="-4.803800">
        <ele>1906.0</ele>
        <time>2015-08-02T12:28:50Z</time>
      </trkpt>
      <trkpt lat="40.305600" lon="-4.803767">
        <ele>1909.0</ele>
        <time>2015-08-02T12:28:51Z</time>
      </trkpt>
      <trkpt lat="40.305700" lon="-4.803700">
        <ele>1911.0</ele>
        <time>2015-08-02T12:28:52Z</time>
      </trkpt>
      <trkpt lat="40.305800" lon="-4.803633">
        <ele>1912.0</ele>
        <time>2015-08-02T12:28:53Z</time>
      </trkpt>
      <trkpt lat="40.305883" lon="-4.803533">
        <ele>1912.0</ele>
        <time>2015-08-02T12:28:54Z</time>
      </trkpt>
      <trkpt lat="40.305950" lon="-4.803417">
        <ele>1913.0</ele>
        <time>2015-08-02T12:28:55Z</time>
      </trkpt>
      <trkpt lat="40.305983" lon="-4.803300">
        <ele>1913.0</ele>
        <time>2015-08-02T12:28:56Z</time>
      </trkpt>
      <trkpt lat="40.306000" lon="-4.803167">
        <ele>1915.0</ele>
        <time>2015-08-02T12:28:57Z</time>
      </trkpt>
      <trkpt lat="40.306000" lon="-4.803067">
        <ele>1916.0</ele>
        <time>2015-08-02T12:28:58Z</time>
      </trkpt>
      <trkpt lat="40.305983" lon="-4.802983">
        <ele>1916.0</ele>
        <time>2015-08-02T12:28:59Z</time>
      </trkpt>
      <trkpt lat="40.305933" lon="-4.802917">
        <ele>1917.0</ele>
        <time>2015-08-02T12:29:00Z</time>
      </trkpt>
      <trkpt lat="40.305883" lon="-4.802883">
        <ele>1917.0</ele>
        <time>2015-08-02T12:29:01Z</time>
      </trkpt>
      <trkpt lat="40.305817" lon="-4.802883">
        <ele>1917.0</ele>
        <time>2015-08-02T12:29:02Z</time>
      </trkpt>
      <trkpt lat="40.305767" lon="-4.802917">
        <ele>1918.0</ele>
        <time>2015-08-02T12:29:03Z</time>
      </trkpt>
      <trkpt lat="40.305700" lon="-4.802950">
        <ele>1919.0</ele>
        <time>2015-08-02T12:29:04Z</time>
      </trkpt>
      <trkpt lat="40.305650" lon="-4.803000">
        <ele>1921.0</ele>
        <time>2015-08-02T12:29:05Z</time>
      </trkpt>
      <trkpt lat="40.305617" lon="-4.803067">
        <ele>1922.0</ele>
        <time>2015-08-02T12:29:06Z</time>
      </trkpt>
      <trkpt lat="40.305583" lon="-4.803117">
        <ele>1923.0</ele>
        <time>2015-08-02T12:29:07Z</time>
      </trkpt>
      <trkpt lat="40.305550" lon="-4.803200">
        <ele>1924.0</ele>
        <time>2015-08-02T12:29:08Z</time>
      </trkpt>
      <trkpt lat="40.305550" lon="-4.803300">
        <ele>1925.0</ele>
        <time>2015-08-02T12:29:09Z</time>
      </trkpt>
      <trkpt lat="40.305583" lon="-4.803417">
        <ele>1925.0</ele>
        <time>2015-08-02T12:29:10Z</time>
      </trkpt>
      <trkpt lat="40.305633" lon="-4.803517">
        <ele>1927.0</ele>
        <time>2015-08-02T12:29:11Z</time>
      </trkpt>
      <trkpt lat="40.305717" lon="-4.803617">
        <ele>1929.0</ele>
        <time>2015-08-02T12:29:12Z</time>
      </trkpt>
      <trkpt lat="40.305783" lon="-4.803700">
        <ele>1931.0</ele>
        <time>2015-08-02T12:29:13Z</time>
      </trkpt>
      <trkpt lat="40.305867" lon="-4.803783">
        <ele>1934.0</ele>
        <time>2015-08-02T12:29:14Z</time>
      </trkpt>
      <trkpt lat="40.305933" lon="-4.803850">
        <ele>1937.0</ele>
        <time>2015-08-02T12:29:15Z</time>
      </trkpt>
      <trkpt lat="40.305983" lon="-4.803950">
        <ele>1939.0</ele>
        <time>2015-08-02T12:29:16Z</time>
      </trkpt>
      <trkpt lat="40.306050" lon="-4.804033">
        <ele>1941.0</ele>
        <time>2015-08-02T12:29:17Z</time>
      </trkpt>
      <trkpt lat="40.306133" lon="-4.804117">
        <ele>1943.0</ele>
        <time>2015-08-02T12:29:18Z</time>
      </trkpt>
      <trkpt lat="40.306217" lon="-4.804167">
        <ele>1945.0</ele>
        <time>2015-08-02T12:29:19Z</time>
      </trkpt>
      <trkpt lat="40.306317" lon="-4.804217">
        <ele>1947.0</ele>
        <time>2015-08-02T12:29:20Z</time>
      </trkpt>
      <trkpt lat="40.306433" lon="-4.804200">
        <ele>1950.0</ele>
        <time>2015-08-02T12:29:21Z</time>
      </trkpt>
      <trkpt lat="40.306533" lon="-4.804150">
        <ele>1952.0</ele>
        <time>2015-08-02T12:29:22Z</time>
      </trkpt>
      <trkpt lat="40.306633" lon="-4.804083">
        <ele>1954.0</ele>
        <time>2015-08-02T12:29:23Z</time>
      </trkpt>
      <trkpt lat="40.306717" lon="-4.803983">
        <ele>1957.0</ele>
        <time>2015-08-02T12:29:24Z</time>
      </trkpt>
      <trkpt lat="40.306783" lon="-4.803867">
        <ele>1959.0</ele>
        <time>2015-08-02T12:29:25Z</time>
      </trkpt>
      <trkpt lat="40.306833" lon="-4.803733">
        <ele>1960.0</ele>
        <time>2015-08-02T12:29:26Z</time>
      </trkpt>
      <trkpt lat="40.306850" lon="-4.803600">
        <ele>1960.0</ele>
        <time>2015-08-02T12:29:27Z</time>
      </trkpt>
      <trkpt lat="40.306817" lon="-4.803467">
        <ele>1958.0</ele>
        <time>2015-08-02T12:29:28Z</time>
      </trkpt>
      <trkpt lat="40.306750" lon="-4.803350">
        <ele>1957.0</ele>
        <time>2015-08-02T12:29:29Z</time>
      </trkpt>
      <trkpt lat="40.306667" lon="-4.803267">
        <ele>1959.0</ele>
        <time>2015-08-02T12:29:30Z</time>
      </trkpt>
      <trkpt lat="40.306583" lon="-4.803250">
        <ele>1962.0</ele>
        <time>2015-08-02T12:29:31Z</time>
      </trkpt>
      <trkpt lat="40.306500" lon="-4.803283">
        <ele>1965.0</ele>
        <time>2015-08-02T12:29:32Z</time>
      </trkpt>
      <trkpt lat="40.306450" lon="-4.803317">
        <ele>1966.0</ele>
        <time>2015-08-02T12:29:33Z</time>
      </trkpt>
      <trkpt lat="40.306400" lon="-4.803350">
        <ele>1968.0</ele>
        <time>2015-08-02T12:29:34Z</time>
      </trkpt>
      <trkpt lat="40.306350" lon="-4.803383">
        <ele>1969.0</ele>
        <time>2015-08-02T12:29:35Z</time>
      </trkpt>
      <trkpt lat="40.306283" lon="-4.803433">
        <ele>1971.0</ele>
        <time>2015-08-02T12:29:36Z</time>
      </trkpt>
      <trkpt lat="40.306233" lon="-4.803483">
        <ele>1973.0</ele>
        <time>2015-08-02T12:29:37Z</time>
      </trkpt>
      <trkpt lat="40.306183" lon="-4.803550">
        <ele>1975.0</ele>
        <time>2015-08-02T12:29:38Z</time>
      </trkpt>
      <trkpt lat="40.306167" lon="-4.803617">
        <ele>1977.0</ele>
        <time>2015-08-02T12:29:39Z</time>
      </trkpt>
      <trkpt lat="40.306150" lon="-4.803700">
        <ele>1979.0</ele>
        <time>2015-08-02T12:29:40Z</time>
      </trkpt>
      <trkpt lat="40.306167" lon="-4.803800">
        <ele>1980.0</ele>
        <time>2015-08-02T12:29:41Z</time>
      </trkpt>
      <trkpt lat="40.306200" lon="-4.803900">
        <ele>1983.0</ele>
        <time>2015-08-02T12:29:42Z</time>
      </trkpt>
      <trkpt lat="40.306267" lon="-4.804000">
        <ele>1985.0</ele>
        <time>2015-08-02T12:29:43Z</time>
      </trkpt>
      <trkpt lat="40.306333" lon="-4.804067">
        <ele>1989.0</ele>
        <time>2015-08-02T12:29:44Z</time>
      </trkpt>
      <trkpt lat="40.306417" lon="-4.804117">
        <ele>1991.0</ele>
        <time>2015-08-02T12:29:45Z</time>
      </trkpt>
      <trkpt lat="40.306517" lon="-4.804167">
        <ele>1993.0</ele>
        <time>2015-08-02T12:29:46Z</time>
      </trkpt>
      <trkpt lat="40.306617" lon="-4.804200">
        <ele>1997.0</ele>
        <time>2015-08-02T12:29:47Z</time>
      </trkpt>
      <trkpt lat="40.306717" lon="-4.804250">
        <ele>2001.0</ele>
        <time>2015-08-02T12:29:48Z</time>
      </trkpt>
      <trkpt lat="40.306783" lon="-4.804300">
        <ele>2005.0</ele>
        <time>2015-08-02T12:29:49Z</time>
      </trkpt>
      <trkpt lat="40.306850" lon="-4.804367">
        <ele>2009.0</ele>
        <time>2015-08-02T12:29:50Z</time>
      </trkpt>
      <trkpt lat="40.306900" lon="-4.804433">
        <ele>2014.0</ele>
        <time>2015-08-02T12:29:51Z</time>
      </trkpt>
      <trkpt lat="40.306950" lon="-4.804500">
        <ele>2019.0</ele>
        <time>2015-08-02T12:29:52Z</time>
      </trkpt>
      <trkpt lat="40.307017" lon="-4.804567">
        <ele>2024.0</ele>
        <time>2015-08-02T12:29:53Z</time>
      </trkpt>
      <trkpt lat="40.307100" lon="-4.804633">
        <ele>2030.0</ele>
        <time>2015-08-02T12:29:54Z</time>
      </trkpt>
      <trkpt lat="40.307183" lon="-4.804667">
        <ele>2037.0</ele>
        <time>2015-08-02T12:29:55Z</time>
      </trkpt>
      <trkpt lat="40.307267" lon="-4.804667">
        <ele>2044.0</ele>
        <time>2015-08-02T12:29:56Z</time>
      </trkpt>
      <trkpt lat="40.307350" lon="-4.804650">
        <ele>2049.0</ele>
        <time>2015-08-02T12:29:57Z</time>
      </trkpt>
      <trkpt lat="40.307433" lon="-4.804600">
        <ele>2052.0</ele>
        <time>2015-08-02T12:29:58Z</time>
      </trkpt>
      <trkpt lat="40.307550" lon="-4.804517">
        <ele>2054.0</ele>
        <time>2015-08-02T12:29:59Z</time>
      </trkpt>
      <trkpt lat="40.307633" lon="-4.804417">
        <ele>2056.0</ele>
        <time>2015-08-02T12:30:00Z</time>
      </trkpt>
      <trkpt lat="40.307717" lon="-4.804267">
        <ele>2061.0</ele>
        <time>2015-08-02T12:30:01Z</time>
      </trkpt>
      <trkpt lat="40.307767" lon="-4.804117">
        <ele>2065.0</ele>
        <time>2015-08-02T12:30:02Z</time>
      </trkpt>
      <trkpt lat="40.307767" lon="-4.803933">
        <ele>2068.0</ele>
        <time>2015-08-02T12:30:03Z</time>
      </trkpt>
      <trkpt lat="40.307750" lon="-4.803750">
        <ele>2070.0</ele>
        <time>2015-08-02T12:30:04Z</time>
      </trkpt>
      <trkpt lat="40.307717" lon="-4.803567">
        <ele>2074.0</ele>
        <time>2015-08-02T12:30:05Z</time>
      </trkpt>
      <trkpt lat="40.307683" lon="-4.803417">
        <ele>2078.0</ele>
        <time>2015-08-02T12:30:06Z</time>
      </trkpt>
      <trkpt lat="40.307617" lon="-4.803300">
        <ele>2082.0</ele>
        <time>2015-08-02T12:30:07Z</time>
      </trkpt>
      <trkpt lat="40.307550" lon="-4.803217">
        <ele>2086.0</ele>
        <time>2015-08-02T12:30:08Z</time>
      </trkpt>
      <trkpt lat="40.307467" lon="-4.803150">
        <ele>2089.0</ele>
        <time>2015-08-02T12:30:09Z</time>
      </trkpt>
      <trkpt lat="40.307367" lon="-4.803117">
        <ele>2092.0</ele>
        <time>2015-08-02T12:30:10Z</time>
      </trkpt>
      <trkpt lat="40.307267" lon="-4.803117">
        <ele>2095.0</ele>
        <time>2015-08-02T12:30:11Z</time>
      </trkpt>
      <trkpt lat="40.307200" lon="-4.803167">
        <ele>2099.0</ele>
        <time>2015-08-02T12:30:12Z</time>
      </trkpt>
      <trkpt lat="40.307183" lon="-4.803250">
        <ele>2102.0</ele>
        <time>2015-08-02T12:30:13Z</time>
      </trkpt>
      <trkpt lat="40.307200" lon="-4.803350">
        <ele>2103.0</ele>
        <time>2015-08-02T12:30:14Z</time>
      </trkpt>
      <trkpt lat="40.307267" lon="-4.803450">
        <ele>2103.0</ele>
        <time>2015-08-02T12:30:15Z</time>
      </trkpt>
      <trkpt lat="40.307350" lon="-4.803533">
        <ele>2107.0</ele>
        <time>2015-08-02T12:30:16Z</time>
      </trkpt>
      <trkpt lat="40.307450" lon="-4.803600">
        <ele>2113.0</ele>
        <time>2015-08-02T12:30:17Z</time>
      </trkpt>
      <trkpt lat="40.307533" lon="-4.803617">
        <ele>2121.0</ele>
        <time>2015-08-02T12:30:18Z</time>
      </trkpt>
      <trkpt lat="40.307617" lon="-4.803650">
        <ele>2127.0</ele>
        <time>2015-08-02T12:30:19Z</time>
      </trkpt>
      <trkpt lat="40.307683" lon="-4.803683">
        <ele>2132.0</ele>
        <time>2015-08-02T12:30:20Z</time>
      </trkpt>
      <trkpt lat="40.307767" lon="-4.803733">
        <ele>2136.0</ele>
        <time>2015-08-02T12:30:21Z</time>
      </trkpt>
      <trkpt lat="40.307850" lon="-4.803783">
        <ele>2139.0</ele>
        <time>2015-08-02T12:30:22Z</time>
      </trkpt>
      <trkpt lat="40.307933" lon="-4.803833">
        <ele>2143.0</ele>
        <time>2015-08-02T12:30:23Z</time>
      </trkpt>
      <trkpt lat="40.308033" lon="-4.803900">
        <ele>2147.0</ele>
        <time>2015-08-02T12:30:24Z</time>
      </trkpt>
      <trkpt lat="40.308150" lon="-4.803933">
        <ele>2151.0</ele>
        <time>2015-08-02T12:30:25Z</time>
      </trkpt>
      <trkpt lat="40.308267" lon="-4.803967">
        <ele>2154.0</ele>
        <time>2015-08-02T12:30:26Z</time>
      </trkpt>
      <trkpt lat="40.308383" lon="-4.803967">
        <ele>2158.0</ele>
        <time>2015-08-02T12:30:27Z</time>
      </trkpt>
      <trkpt lat="40.308500" lon="-4.803967">
        <ele>2162.0</ele>
        <time>2015-08-02T12:30:28Z</time>
      </trkpt>
      <trkpt lat="40.308600" lon="-4.803950">
        <ele>2167.0</ele>
        <time>2015-08-02T12:30:29Z</time>
      </trkpt>
      <trkpt lat="40.308717" lon="-4.803900">
        <ele>2172.0</ele>
        <time>2015-08-02T12:30:30Z</time>
      </trkpt>
      <trkpt lat="40.308817" lon="-4.803800">
        <ele>2177.0</ele>
        <time>2015-08-02T12:30:31Z</time>
      </trkpt>
      <trkpt lat="40.308900" lon="-4.803667">
        <ele>2184.0</ele>
        <time>2015-08-02T12:30:32Z</time>
      </trkpt>
      <trkpt lat="40.308933" lon="-4.803533">
        <ele>2191.0</ele>
        <time>2015-08-02T12:30:33Z</time>
      </trkpt>
      <trkpt lat="40.308933" lon="-4.803383">
        <ele>2197.0</ele>
        <time>2015-08-02T12:30:34Z</time>
      </trkpt>
      <trkpt lat="40.308900" lon="-4.803250">
        <ele>2203.0</ele>
        <time>2015-08-02T12:30:35Z</time>
      </trkpt>
      <trkpt lat="40.308833" lon="-4.803133">
        <ele>2207.0</ele>
        <time>2015-08-02T12:30:36Z</time>
      </trkpt>
      <trkpt lat="40.308750" lon="-4.803033">
        <ele>2211.0</ele>
        <time>2015-08-02T12:30:37Z</time>
      </trkpt>
      <trkpt lat="40.308650" lon="-4.802983">
        <ele>2218.0</ele>
        <time>2015-08-02T12:30:38Z</time>
      </trkpt>
      <trkpt lat="40.308567" lon="-4.802983">
        <ele>2224.0</ele>
        <time>2015-08-02T12:30:39Z</time>
      </trkpt>
      <trkpt lat="40.308500" lon="-4.803083">
        <ele>2230.0</ele>
        <time>2015-08-02T12:30:40Z</time>
      </trkpt>
      <trkpt lat="40.308500" lon="-4.803117">
        <ele>2235.0</ele>
        <time>2015-08-02T12:30:41Z</time>
      </trkpt>
      <trkpt lat="40.308550" lon="-4.803183">
        <ele>2238.0</ele>
        <time>2015-08-02T12:30:42Z</time>
      </trkpt>
      <trkpt lat="40.308617" lon="-4.803217">
        <ele>2241.0</ele>
        <time>2015-08-02T12:30:43Z</time>
      </trkpt>
      <trkpt lat="40.308733" lon="-4.803233">
        <ele>2242.0</ele>
        <time>2015-08-02T12:30:44Z</time>
      </trkpt>
      <trkpt lat="40.308867" lon="-4.803183">
        <ele>2243.0</ele>
        <time>2015-08-02T12:30:45Z</time>
      </trkpt>
      <trkpt lat="40.309000" lon="-4.803100">
        <ele>2246.0</ele>
        <time>2015-08-02T12:30:46Z</time>
      </trkpt>
      <trkpt lat="40.309117" lon="-4.802983">
        <ele>2255.0</ele>
        <time>2015-08-02T12:30:47Z</time>
      </trkpt>
      <trkpt lat="40.309200" lon="-4.802917">
        <ele>2265.0</ele>
        <time>2015-08-02T12:30:48Z</time>
      </trkpt>
      <trkpt lat="40.309267" lon="-4.802867">
        <ele>2274.0</ele>
        <time>2015-08-02T12:30:49Z</time>
      </trkpt>
      <trkpt lat="40.309333" lon="-4.802833">
        <ele>2281.0</ele>
        <time>2015-08-02T12:30:50Z</time>
      </trkpt>
      <trkpt lat="40.309400" lon="-4.802800">
        <ele>2286.0</ele>
        <time>2015-08-02T12:30:51Z</time>
      </trkpt>
      <trkpt lat="40.309483" lon="-4.802733">
        <ele>2290.0</ele>
        <time>2015-08-02T12:30:52Z</time>
      </trkpt>
      <trkpt lat="40.309567" lon="-4.802617">
        <ele>2294.0</ele>
        <time>2015-08-02T12:30:53Z</time>
      </trkpt>
      <trkpt lat="40.309633" lon="-4.802483">
        <ele>2299.0</ele>
        <time>2015-08-02T12:30:54Z</time>
      </trkpt>
      <trkpt lat="40.309683" lon="-4.802317">
        <ele>2305.0</ele>
        <time>2015-08-02T12:30:55Z</time>
      </trkpt>
      <trkpt lat="40.309667" lon="-4.802167">
        <ele>2311.0</ele>
        <time>2015-08-02T12:30:56Z</time>
      </trkpt>
      <trkpt lat="40.309600" lon="-4.802033">
        <ele>2317.0</ele>
        <time>2015-08-02T12:30:57Z</time>
      </trkpt>
      <trkpt lat="40.309500" lon="-4.801950">
        <ele>2322.0</ele>
        <time>2015-08-02T12:30:58Z</time>
      </trkpt>
      <trkpt lat="40.309417" lon="-4.801933">
        <ele>2328.0</ele>
        <time>2015-08-02T12:30:59Z</time>
      </trkpt>
      <trkpt lat="40.309333" lon="-4.801967">
        <ele>2335.0</ele>
        <time>2015-08-02T12:31:00Z</time>
      </trkpt>
      <trkpt lat="40.309283" lon="-4.802033">
        <ele>2343.0</ele>
        <time>2015-08-02T12:31:01Z</time>
      </trkpt>
      <trkpt lat="40.309267" lon="-4.802117">
        <ele>2350.0</ele>
        <time>2015-08-02T12:31:02Z</time>
      </trkpt>
      <trkpt lat="40.309283" lon="-4.802217">
        <ele>2356.0</ele>
        <time>2015-08-02T12:31:03Z</time>
      </trkpt>
      <trkpt lat="40.309350" lon="-4.802317">
        <ele>2359.0</ele>
        <time>2015-08-02T12:31:04Z</time>
      </trkpt>
      <trkpt lat="40.309467" lon="-4.802383">
        <ele>2364.0</ele>
        <time>2015-08-02T12:31:05Z</time>
      </trkpt>
      <trkpt lat="40.309567" lon="-4.802417">
        <ele>2370.0</ele>
        <time>2015-08-02T12:31:06Z</time>
      </trkpt>
      <trkpt lat="40.309683" lon="-4.802417">
        <ele>2379.0</ele>
        <time>2015-08-02T12:31:07Z</time>
      </trkpt>
      <trkpt lat="40.309767" lon="-4.802400">
        <ele>2387.0</ele>
        <time>2015-08-02T12:31:08Z</time>
      </trkpt>
      <trkpt lat="40.309867" lon="-4.802400">
        <ele>2394.0</ele>
        <time>2015-08-02T12:31:09Z</time>
      </trkpt>
      <trkpt lat="40.309950" lon="-4.802400">
        <ele>2399.0</ele>
        <time>2015-08-02T12:31:10Z</time>
      </trkpt>
      <trkpt lat="40.310050" lon="-4.802400">
        <ele>2404.0</ele>
        <time>2015-08-02T12:31:11Z</time>
      </trkpt>
      <trkpt lat="40.310167" lon="-4.802350">
        <ele>2409.0</ele>
        <time>2015-08-02T12:31:12Z</time>
      </trkpt>
      <trkpt lat="40.310267" lon="-4.802250">
        <ele>2413.0</ele>
        <time>2015-08-02T12:31:13Z</time>
      </trkpt>
      <trkpt lat="40.310333" lon="-4.802100">
        <ele>2417.0</ele>
        <time>2015-08-02T12:31:14Z</time>
      </trkpt>
      <trkpt lat="40.310383" lon="-4.801933">
        <ele>2423.0</ele>
        <time>2015-08-02T12:31:15Z</time>
      </trkpt>
      <trkpt lat="40.310383" lon="-4.801750">
        <ele>2430.0</ele>
        <time>2015-08-02T12:31:16Z</time>
      </trkpt>
      <trkpt lat="40.310350" lon="-4.801600">
        <ele>2437.0</ele>
        <time>2015-08-02T12:31:17Z</time>
      </trkpt>
      <trkpt lat="40.310283" lon="-4.801500">
        <ele>2443.0</ele>
        <time>2015-08-02T12:31:18Z</time>
      </trkpt>
      <trkpt lat="40.310217" lon="-4.801433">
        <ele>2448.0</ele>
        <time>2015-08-02T12:31:19Z</time>
      </trkpt>
      <trkpt lat="40.310133" lon="-4.801417">
        <ele>2452.0</ele>
        <time>2015-08-02T12:31:20Z</time>
      </trkpt>
      <trkpt lat="40.310050" lon="-4.801433">
        <ele>2455.0</ele>
        <time>2015-08-02T12:31:21Z</time>
      </trkpt>
      <trkpt lat="40.309983" lon="-4.801500">
        <ele>2461.0</ele>
        <time>2015-08-02T12:31:22Z</time>
      </trkpt>
      <trkpt lat="40.309933" lon="-4.801600">
        <ele>2467.0</ele>
        <time>2015-08-02T12:31:23Z</time>
      </trkpt>
      <trkpt lat="40.309917" lon="-4.801717">
        <ele>2472.0</ele>
        <time>2015-08-02T12:31:24Z</time>
      </trkpt>
      <trkpt lat="40.309950" lon="-4.801850">
        <ele>2477.0</ele>
        <time>2015-08-02T12:31:25Z</time>
      </trkpt>
      <trkpt lat="40.310017" lon="-4.801950">
        <ele>2481.0</ele>
        <time>2015-08-02T12:31:26Z</time>
      </trkpt>
      <trkpt lat="40.310133" lon="-4.802000">
        <ele>2484.0</ele>
        <time>2015-08-02T12:31:27Z</time>
      </trkpt>
      <trkpt lat="40.310233" lon="-4.802033">
        <ele>2488.0</ele>
        <time>2015-08-02T12:31:28Z</time>
      </trkpt>
      <trkpt lat="40.310367" lon="-4.802033">
        <ele>2493.0</ele>
        <time>2015-08-02T12:31:29Z</time>
      </trkpt>
      <trkpt lat="40.310483" lon="-4.802000">
        <ele>2499.0</ele>
        <time>2015-08-02T12:31:30Z</time>
      </trkpt>
      <trkpt lat="40.310600" lon="-4.801933">
        <ele>2504.0</ele>
        <time>2015-08-02T12:31:31Z</time>
      </trkpt>
      <trkpt lat="40.310700" lon="-4.801850">
        <ele>2510.0</ele>
        <time>2015-08-02T12:31:32Z</time>
      </trkpt>
      <trkpt lat="40.310800" lon="-4.801750">
        <ele>2517.0</ele>
        <time>2015-08-02T12:31:33Z</time>
      </trkpt>
      <trkpt lat="40.310867" lon="-4.801633">
        <ele>2524.0</ele>
        <time>2015-08-02T12:31:34Z</time>
      </trkpt>
      <trkpt lat="40.310900" lon="-4.801483">
        <ele>2530.0</ele>
        <time>2015-08-02T12:31:35Z</time>
      </trkpt>
      <trkpt lat="40.310883" lon="-4.801333">
        <ele>2534.0</ele>
        <time>2015-08-02T12:31:36Z</time>
      </trkpt>
      <trkpt lat="40.310850" lon="-4.801183">
        <ele>2539.0</ele>
        <time>2015-08-02T12:31:37Z</time>
      </trkpt>
      <trkpt lat="40.310767" lon="-4.801083">
        <ele>2546.0</ele>
        <time>2015-08-02T12:31:38Z</time>
      </trkpt>
      <trkpt lat="40.310667" lon="-4.801050">
        <ele>2552.0</ele>
        <time>2015-08-02T12:31:39Z</time>
      </trkpt>
      <trkpt lat="40.310600" lon="-4.801083">
        <ele>2558.0</ele>
        <time>2015-08-02T12:31:40Z</time>
      </trkpt>
      <trkpt lat="40.310550" lon="-4.801167">
        <ele>2565.0</ele>
        <time>2015-08-02T12:31:41Z</time>
      </trkpt>
      <trkpt lat="40.310567" lon="-4.801283">
        <ele>2570.0</ele>
        <time>2015-08-02T12:31:42Z</time>
      </trkpt>
      <trkpt lat="40.310600" lon="-4.801417">
        <ele>2575.0</ele>
        <time>2015-08-02T12:31:43Z</time>
      </trkpt>
      <trkpt lat="40.310650" lon="-4.801517">
        <ele>2580.0</ele>
        <time>2015-08-02T12:31:44Z</time>
      </trkpt>
      <trkpt lat="40.310750" lon="-4.801617">
        <ele>2585.0</ele>
        <time>2015-08-02T12:31:45Z</time>
      </trkpt>
      <trkpt lat="40.310867" lon="-4.801667">
        <ele>2589.0</ele>
        <time>2015-08-02T12:31:46Z</time>
      </trkpt>
      <trkpt lat="40.311000" lon="-4.801650">
        <ele>2594.0</ele>
        <time>2015-08-02T12:31:47Z</time>
      </trkpt>
      <trkpt lat="40.311133" lon="-4.801567">
        <ele>2599.0</ele>
        <time>2015-08-02T12:31:48Z</time>
      </trkpt>
      <trkpt lat="40.311250" lon="-4.801483">
        <ele>2605.0</ele>
        <time>2015-08-02T12:31:49Z</time>
      </trkpt>
      <trkpt lat="40.311367" lon="-4.801383">
        <ele>2613.0</ele>
        <time>2015-08-02T12:31:50Z</time>
      </trkpt>
      <trkpt lat="40.311450" lon="-4.801267">
        <ele>2620.0</ele>
        <time>2015-08-02T12:31:51Z</time>
      </trkpt>
      <trkpt lat="40.311500" lon="-4.801133">
        <ele>2626.0</ele>
        <time>2015-08-02T12:31:52Z</time>
      </trkpt>
      <trkpt lat="40.311517" lon="-4.800950">
        <ele>2631.0</ele>
        <time>2015-08-02T12:31:53Z</time>
      </trkpt>
      <trkpt lat="40.311500" lon="-4.800800">
        <ele>2636.0</ele>
        <time>2015-08-02T12:31:54Z</time>
      </trkpt>
      <trkpt lat="40.311467" lon="-4.800650">
        <ele>2642.0</ele>
        <time>2015-08-02T12:31:55Z</time>
      </trkpt>
      <trkpt lat="40.311417" lon="-4.800550">
        <ele>2648.0</ele>
        <time>2015-08-02T12:31:56Z</time>
      </trkpt>
      <trkpt lat="40.311333" lon="-4.800500">
        <ele>2655.0</ele>
        <time>2015-08-02T12:31:57Z</time>
      </trkpt>
      <trkpt lat="40.311267" lon="-4.800517">
        <ele>2660.0</ele>
        <time>2015-08-02T12:31:58Z</time>
      </trkpt>
      <trkpt lat="40.311233" lon="-4.800583">
        <ele>2665.0</ele>
        <time>2015-08-02T12:31:59Z</time>
      </trkpt>
      <trkpt lat="40.311217" lon="-4.800700">
        <ele>2670.0</ele>
        <time>2015-08-02T12:32:00Z</time>
      </trkpt>
      <trkpt lat="40.311250" lon="-4.800783">
        <ele>2673.0</ele>
        <time>2015-08-02T12:32:01Z</time>
      </trkpt>
      <trkpt lat="40.311333" lon="-4.800883">
        <ele>2676.0</ele>
        <time>2015-08-02T12:32:02Z</time>
      </trkpt>
      <trkpt lat="40.311450" lon="-4.800950">
        <ele>2678.0</ele>
        <time>2015-08-02T12:32:03Z</time>
      </trkpt>
      <trkpt lat="40.311600" lon="-4.800983">
        <ele>2682.0</ele>
        <time>2015-08-02T12:32:04Z</time>
      </trkpt>
      <trkpt lat="40.311750" lon="-4.800983">
        <ele>2688.0</ele>
        <time>2015-08-02T12:32:05Z</time>
      </trkpt>
      <trkpt lat="40.311883" lon="-4.800917">
        <ele>2695.0</ele>
        <time>2015-08-02T12:32:06Z</time>
      </trkpt>
      <trkpt lat="40.311983" lon="-4.800817">
        <ele>2701.0</ele>
        <time>2015-08-02T12:32:07Z</time>
      </trkpt>
      <trkpt lat="40.312083" lon="-4.800683">
        <ele>2706.0</ele>
        <time>2015-08-02T12:32:08Z</time>
      </trkpt>
      <trkpt lat="40.312183" lon="-4.800533">
        <ele>2711.0</ele>
        <time>2015-08-02T12:32:09Z</time>
      </trkpt>
      <trkpt lat="40.312250" lon="-4.800367">
        <ele>2716.0</ele>
        <time>2015-08-02T12:32:10Z</time>
      </trkpt>
      <trkpt lat="40.312333" lon="-4.800217">
        <ele>2719.0</ele>
        <time>2015-08-02T12:32:11Z</time>
      </trkpt>
      <trkpt lat="40.312383" lon="-4.800033">
        <ele>2723.0</ele>
        <time>2015-08-02T12:32:12Z</time>
      </trkpt>
      <trkpt lat="40.312417" lon="-4.799867">
        <ele>2726.0</ele>
        <time>2015-08-02T12:32:13Z</time>
      </trkpt>
      <trkpt lat="40.312417" lon="-4.799700">
        <ele>2729.0</ele>
        <time>2015-08-02T12:32:14Z</time>
      </trkpt>
      <trkpt lat="40.312367" lon="-4.799583">
        <ele>2732.0</ele>
        <time>2015-08-02T12:32:15Z</time>
      </trkpt>
      <trkpt lat="40.312317" lon="-4.799517">
        <ele>2732.0</ele>
        <time>2015-08-02T12:32:16Z</time>
      </trkpt>
      <trkpt lat="40.312250" lon="-4.799500">
        <ele>2733.0</ele>
        <time>2015-08-02T12:32:17Z</time>
      </trkpt>
      <trkpt lat="40.312183" lon="-4.799533">
        <ele>2735.0</ele>
        <time>2015-08-02T12:32:18Z</time>
      </trkpt>
      <trkpt lat="40.312150" lon="-4.799583">
        <ele>2738.0</ele>
        <time>2015-08-02T12:32:19Z</time>
      </trkpt>
      <trkpt lat="40.312133" lon="-4.799683">
        <ele>2742.0</ele>
        <time>2015-08-02T12:32:20Z</time>
      </trkpt>
      <trkpt lat="40.312167" lon="-4.799783">
        <ele>2746.0</ele>
        <time>2015-08-02T12:32:21Z</time>
      </trkpt>
      <trkpt lat="40.312217" lon="-4.799867">
        <ele>2750.0</ele>
        <time>2015-08-02T12:32:22Z</time>
      </trkpt>
      <trkpt lat="40.312283" lon="-4.799950">
        <ele>2755.0</ele>
        <time>2015-08-02T12:32:23Z</time>
      </trkpt>
      <trkpt lat="40.312383" lon="-4.800000">
        <ele>2760.0</ele>
        <time>2015-08-02T12:32:24Z</time>
      </trkpt>
      <trkpt lat="40.312467" lon="-4.800000">
        <ele>2765.0</ele>
        <time>2015-08-02T12:32:25Z</time>
      </trkpt>
      <trkpt lat="40.312583" lon="-4.799967">
        <ele>2768.0</ele>
        <time>2015-08-02T12:32:26Z</time>
      </trkpt>
      <trkpt lat="40.312700" lon="-4.799917">
        <ele>2769.0</ele>
        <time>2015-08-02T12:32:27Z</time>
      </trkpt>
      <trkpt lat="40.312817" lon="-4.799817">
        <ele>2769.0</ele>
        <time>2015-08-02T12:32:28Z</time>
      </trkpt>
      <trkpt lat="40.312950" lon="-4.799667">
        <ele>2768.0</ele>
        <time>2015-08-02T12:32:29Z</time>
      </trkpt>
      <trkpt lat="40.313083" lon="-4.799433">
        <ele>2767.0</ele>
        <time>2015-08-02T12:32:30Z</time>
      </trkpt>
      <trkpt lat="40.313117" lon="-4.799283">
        <ele>2766.0</ele>
        <time>2015-08-02T12:32:31Z</time>
      </trkpt>
      <trkpt lat="40.313167" lon="-4.799083">
        <ele>2768.0</ele>
        <time>2015-08-02T12:32:32Z</time>
      </trkpt>
      <trkpt lat="40.313183" lon="-4.798900">
        <ele>2771.0</ele>
        <time>2015-08-02T12:32:33Z</time>
      </trkpt>
      <trkpt lat="40.313217" lon="-4.798733">
        <ele>2773.0</ele>
        <time>2015-08-02T12:32:34Z</time>
      </trkpt>
      <trkpt lat="40.313250" lon="-4.798600">
        <ele>2775.0</ele>
        <time>2015-08-02T12:32:35Z</time>
      </trkpt>
      <trkpt lat="40.313300" lon="-4.798467">
        <ele>2776.0</ele>
        <time>2015-08-02T12:32:36Z</time>
      </trkpt>
      <trkpt lat="40.313333" lon="-4.798317">
        <ele>2775.0</ele>
        <time>2015-08-02T12:32:37Z</time>
      </trkpt>
      <trkpt lat="40.313367" lon="-4.798167">
        <ele>2774.0</ele>
        <time>2015-08-02T12:32:38Z</time>
      </trkpt>
      <trkpt lat="40.313383" lon="-4.798000">
        <ele>2773.0</ele>
        <time>2015-08-02T12:32:39Z</time>
      </trkpt>
      <trkpt lat="40.313383" lon="-4.797850">
        <ele>2773.0</ele>
        <time>2015-08-02T12:32:40Z</time>
      </trkpt>
      <trkpt lat="40.313383" lon="-4.797700">
        <ele>2773.0</ele>
        <time>2015-08-02T12:32:41Z</time>
      </trkpt>
      <trkpt lat="40.313383" lon="-4.797550">
        <ele>2773.0</ele>
        <time>2015-08-02T12:32:42Z</time>
      </trkpt>
      <trkpt lat="40.313367" lon="-4.797400">
        <ele>2773.0</ele>
        <time>2015-08-02T12:32:43Z</time>
      </trkpt>
      <trkpt lat="40.313333" lon="-4.797267">
        <ele>2773.0</ele>
        <time>2015-08-02T12:32:44Z</time>
      </trkpt>
      <trkpt lat="40.313317" lon="-4.797133">
        <ele>2775.0</ele>
        <time>2015-08-02T12:32:45Z</time>
      </trkpt>
      <trkpt lat="40.313300" lon="-4.796983">
        <ele>2776.0</ele>
        <time>2015-08-02T12:32:46Z</time>
      </trkpt>
      <trkpt lat="40.313300" lon="-4.796850">
        <ele>2777.0</ele>
        <time>2015-08-02T12:32:47Z</time>
      </trkpt>
      <trkpt lat="40.313300" lon="-4.796700">
        <ele>2778.0</ele>
        <time>2015-08-02T12:32:48Z</time>
      </trkpt>
      <trkpt lat="40.313283" lon="-4.796533">
        <ele>2777.0</ele>
        <time>2015-08-02T12:32:49Z</time>
      </trkpt>
      <trkpt lat="40.313283" lon="-4.796367">
        <ele>2777.0</ele>
        <time>2015-08-02T12:32:50Z</time>
      </trkpt>
      <trkpt lat="40.313283" lon="-4.796183">
        <ele>2778.0</ele>
        <time>2015-08-02T12:32:51Z</time>
      </trkpt>
      <trkpt lat="40.313300" lon="-4.796017">
        <ele>2781.0</ele>
        <time>2015-08-02T12:32:52Z</time>
      </trkpt>
      <trkpt lat="40.313317" lon="-4.795867">
        <ele>2784.0</ele>
        <time>2015-08-02T12:32:53Z</time>
      </trkpt>
      <trkpt lat="40.313350" lon="-4.795717">
        <ele>2785.0</ele>
        <time>2015-08-02T12:32:54Z</time>
      </trkpt>
      <trkpt lat="40.313367" lon="-4.795567">
        <ele>2785.0</ele>
        <time>2015-08-02T12:32:55Z</time>
      </trkpt>
      <trkpt lat="40.313400" lon="-4.795417">
        <ele>2784.0</ele>
        <time>2015-08-02T12:32:56Z</time>
      </trkpt>
      <trkpt lat="40.313417" lon="-4.795250">
        <ele>2782.0</ele>
        <time>2015-08-02T12:32:57Z</time>
      </trkpt>
      <trkpt lat="40.313433" lon="-4.795083">
        <ele>2779.0</ele>
        <time>2015-08-02T12:32:58Z</time>
      </trkpt>
      <trkpt lat="40.313433" lon="-4.794917">
        <ele>2778.0</ele>
        <time>2015-08-02T12:32:59Z</time>
      </trkpt>
      <trkpt lat="40.313417" lon="-4.794750">
        <ele>2776.0</ele>
        <time>2015-08-02T12:33:00Z</time>
      </trkpt>
      <trkpt lat="40.313400" lon="-4.794617">
        <ele>2775.0</ele>
        <time>2015-08-02T12:33:01Z</time>
      </trkpt>
      <trkpt lat="40.313383" lon="-4.794467">
        <ele>2772.0</ele>
        <time>2015-08-02T12:33:02Z</time>
      </trkpt>
      <trkpt lat="40.313367" lon="-4.794317">
        <ele>2770.0</ele>
        <time>2015-08-02T12:33:03Z</time>
      </trkpt>
      <trkpt lat="40.313350" lon="-4.794167">
        <ele>2767.0</ele>
        <time>2015-08-02T12:33:04Z</time>
      </trkpt>
      <trkpt lat="40.313317" lon="-4.794000">
        <ele>2766.0</ele>
        <time>2015-08-02T12:33:05Z</time>
      </trkpt>
      <trkpt lat="40.313300" lon="-4.793867">
        <ele>2766.0</ele>
        <time>2015-08-02T12:33:06Z</time>
      </trkpt>
      <trkpt lat="40.313283" lon="-4.793733">
        <ele>2766.0</ele>
        <time>2015-08-02T12:33:07Z</time>
      </trkpt>
      <trkpt lat="40.313283" lon="-4.793617">
        <ele>2766.0</ele>
        <time>2015-08-02T12:33:08Z</time>
      </trkpt>
      <trkpt lat="40.313283" lon="-4.793483">
        <ele>2764.0</ele>
        <time>2015-08-02T12:33:09Z</time>
      </trkpt>
      <trkpt lat="40.313283" lon="-4.793333">
        <ele>2761.0</ele>
        <time>2015-08-02T12:33:10Z</time>
      </trkpt>
      <trkpt lat="40.313283" lon="-4.793183">
        <ele>2758.0</ele>
        <time>2015-08-02T12:33:11Z</time>
      </trkpt>
      <trkpt lat="40.313267" lon="-4.793017">
        <ele>2756.0</ele>
        <time>2015-08-02T12:33:12Z</time>
      </trkpt>
      <trkpt lat="40.313267" lon="-4.792867">
        <ele>2754.0</ele>
        <time>2015-08-02T12:33:13Z</time>
      </trkpt>
      <trkpt lat="40.313250" lon="-4.792717">
        <ele>2752.0</ele>
        <time>2015-08-02T12:33:14Z</time>
      </trkpt>
      <trkpt lat="40.313233" lon="-4.792550">
        <ele>2750.0</ele>
        <time>2015-08-02T12:33:15Z</time>
      </trkpt>
      <trkpt lat="40.313217" lon="-4.792367">
        <ele>2749.0</ele>
        <time>2015-08-02T12:33:16Z</time>
      </trkpt>
      <trkpt lat="40.313183" lon="-4.792200">
        <ele>2748.0</ele>
        <time>2015-08-02T12:33:17Z</time>
      </trkpt>
      <trkpt lat="40.313150" lon="-4.792050">
        <ele>2749.0</ele>
        <time>2015-08-02T12:33:18Z</time>
      </trkpt>
      <trkpt lat="40.313117" lon="-4.791933">
        <ele>2749.0</ele>
        <time>2015-08-02T12:33:19Z</time>
      </trkpt>
      <trkpt lat="40.313083" lon="-4.791817">
        <ele>2748.0</ele>
        <time>2015-08-02T12:33:20Z</time>
      </trkpt>
      <trkpt lat="40.313067" lon="-4.791700">
        <ele>2746.0</ele>
        <time>2015-08-02T12:33:21Z</time>
      </trkpt>
      <trkpt lat="40.313033" lon="-4.791567">
        <ele>2743.0</ele>
        <time>2015-08-02T12:33:22Z</time>
      </trkpt>
      <trkpt lat="40.313017" lon="-4.791417">
        <ele>2740.0</ele>
        <time>2015-08-02T12:33:23Z</time>
      </trkpt>
      <trkpt lat="40.312967" lon="-4.791250">
        <ele>2738.0</ele>
        <time>2015-08-02T12:33:24Z</time>
      </trkpt>
      <trkpt lat="40.312933" lon="-4.791083">
        <ele>2737.0</ele>
        <time>2015-08-02T12:33:25Z</time>
      </trkpt>
      <trkpt lat="40.312883" lon="-4.790933">
        <ele>2738.0</ele>
        <time>2015-08-02T12:33:26Z</time>
      </trkpt>
      <trkpt lat="40.312867" lon="-4.790800">
        <ele>2740.0</ele>
        <time>2015-08-02T12:33:27Z</time>
      </trkpt>
      <trkpt lat="40.312850" lon="-4.790650">
        <ele>2741.0</ele>
        <time>2015-08-02T12:33:28Z</time>
      </trkpt>
      <trkpt lat="40.312850" lon="-4.790517">
        <ele>2740.0</ele>
        <time>2015-08-02T12:33:29Z</time>
      </trkpt>
      <trkpt lat="40.312833" lon="-4.790367">
        <ele>2738.0</ele>
        <time>2015-08-02T12:33:30Z</time>
      </trkpt>
      <trkpt lat="40.312800" lon="-4.790217">
        <ele>2735.0</ele>
        <time>2015-08-02T12:33:31Z</time>
      </trkpt>
      <trkpt lat="40.312767" lon="-4.790067">
        <ele>2732.0</ele>
        <time>2015-08-02T12:33:32Z</time>
      </trkpt>
      <trkpt lat="40.312717" lon="-4.789900">
        <ele>2730.0</ele>
        <time>2015-08-02T12:33:33Z</time>
      </trkpt>
      <trkpt lat="40.312700" lon="-4.789717">
        <ele>2728.0</ele>
        <time>2015-08-02T12:33:34Z</time>
      </trkpt>
      <trkpt lat="40.312683" lon="-4.789533">
        <ele>2727.0</ele>
        <time>2015-08-02T12:33:35Z</time>
      </trkpt>
      <trkpt lat="40.312667" lon="-4.789367">
        <ele>2725.0</ele>
        <time>2015-08-02T12:33:36Z</time>
      </trkpt>
      <trkpt lat="40.312650" lon="-4.789183">
        <ele>2723.0</ele>
        <time>2015-08-02T12:33:37Z</time>
      </trkpt>
      <trkpt lat="40.312650" lon="-4.789000">
        <ele>2721.0</ele>
        <time>2015-08-02T12:33:38Z</time>
      </trkpt>
      <trkpt lat="40.312667" lon="-4.788817">
        <ele>2719.0</ele>
        <time>2015-08-02T12:33:39Z</time>
      </trkpt>
      <trkpt lat="40.312700" lon="-4.788617">
        <ele>2718.0</ele>
        <time>2015-08-02T12:33:40Z</time>
      </trkpt>
      <trkpt lat="40.312717" lon="-4.788417">
        <ele>2717.0</ele>
        <time>2015-08-02T12:33:41Z</time>
      </trkpt>
      <trkpt lat="40.312717" lon="-4.788200">
        <ele>2716.0</ele>
        <time>2015-08-02T12:33:42Z</time>
      </trkpt>
      <trkpt lat="40.312717" lon="-4.788017">
        <ele>2715.0</ele>
        <time>2015-08-02T12:33:43Z</time>
      </trkpt>
      <trkpt lat="40.312717" lon="-4.787833">
        <ele>2714.0</ele>
        <time>2015-08-02T12:33:44Z</time>
      </trkpt>
      <trkpt lat="40.312750" lon="-4.787650">
        <ele>2713.0</ele>
        <time>2015-08-02T12:33:45Z</time>
      </trkpt>
      <trkpt lat="40.312767" lon="-4.787467">
        <ele>2711.0</ele>
        <time>2015-08-02T12:33:46Z</time>
      </trkpt>
      <trkpt lat="40.312783" lon="-4.787267">
        <ele>2709.0</ele>
        <time>2015-08-02T12:33:47Z</time>
      </trkpt>
      <trkpt lat="40.312767" lon="-4.787050">
        <ele>2706.0</ele>
        <time>2015-08-02T12:33:48Z</time>
      </trkpt>
      <trkpt lat="40.312750" lon="-4.786850">
        <ele>2704.0</ele>
        <time>2015-08-02T12:33:49Z</time>
      </trkpt>
      <trkpt lat="40.312733" lon="-4.786650">
        <ele>2703.0</ele>
        <time>2015-08-02T12:33:50Z</time>
      </trkpt>
      <trkpt lat="40.312733" lon="-4.786467">
        <ele>2702.0</ele>
        <time>2015-08-02T12:33:51Z</time>
      </trkpt>
      <trkpt lat="40.312717" lon="-4.786317">
        <ele>2701.0</ele>
        <time>2015-08-02T12:33:52Z</time>
      </trkpt>
      <trkpt lat="40.312717" lon="-4.786167">
        <ele>2699.0</ele>
        <time>2015-08-02T12:33:53Z</time>
      </trkpt>
      <trkpt lat="40.312683" lon="-4.786000">
        <ele>2695.0</ele>
        <time>2015-08-02T12:33:54Z</time>
      </trkpt>
      <trkpt lat="40.312667" lon="-4.785833">
        <ele>2690.0</ele>
        <time>2015-08-02T12:33:55Z</time>
      </trkpt>
      <trkpt lat="40.312617" lon="-4.785650">
        <ele>2686.0</ele>
        <time>2015-08-02T12:33:56Z</time>
      </trkpt>
      <trkpt lat="40.312583" lon="-4.785483">
        <ele>2682.0</ele>
        <time>2015-08-02T12:33:57Z</time>
      </trkpt>
      <trkpt lat="40.312550" lon="-4.785317">
        <ele>2679.0</ele>
        <time>2015-08-02T12:33:58Z</time>
      </trkpt>
      <trkpt lat="40.312500" lon="-4.785150">
        <ele>2675.0</ele>
        <time>2015-08-02T12:33:59Z</time>
      </trkpt>
      <trkpt lat="40.312467" lon="-4.784967">
        <ele>2671.0</ele>
        <time>2015-08-02T12:34:00Z</time>
      </trkpt>
      <trkpt lat="40.312417" lon="-4.784783">
        <ele>2667.0</ele>
        <time>2015-08-02T12:34:01Z</time>
      </trkpt>
      <trkpt lat="40.312367" lon="-4.784600">
        <ele>2663.0</ele>
        <time>2015-08-02T12:34:02Z</time>
      </trkpt>
      <trkpt lat="40.312333" lon="-4.784400">
        <ele>2660.0</ele>
        <time>2015-08-02T12:34:03Z</time>
      </trkpt>
      <trkpt lat="40.312317" lon="-4.784217">
        <ele>2658.0</ele>
        <time>2015-08-02T12:34:04Z</time>
      </trkpt>
      <trkpt lat="40.312300" lon="-4.784017">
        <ele>2655.0</ele>
        <time>2015-08-02T12:34:05Z</time>
      </trkpt>
      <trkpt lat="40.312300" lon="-4.783817">
        <ele>2652.0</ele>
        <time>2015-08-02T12:34:06Z</time>
      </trkpt>
      <trkpt lat="40.312283" lon="-4.783633">
        <ele>2649.0</ele>
        <time>2015-08-02T12:34:07Z</time>
      </trkpt>
      <trkpt lat="40.312267" lon="-4.783433">
        <ele>2646.0</ele>
        <time>2015-08-02T12:34:08Z</time>
      </trkpt>
      <trkpt lat="40.312250" lon="-4.783233">
        <ele>2643.0</ele>
        <time>2015-08-02T12:34:09Z</time>
      </trkpt>
      <trkpt lat="40.312217" lon="-4.783050">
        <ele>2640.0</ele>
        <time>2015-08-02T12:34:10Z</time>
      </trkpt>
      <trkpt lat="40.312167" lon="-4.782867">
        <ele>2638.0</ele>
        <time>2015-08-02T12:34:11Z</time>
      </trkpt>
      <trkpt lat="40.312133" lon="-4.782683">
        <ele>2635.0</ele>
        <time>2015-08-02T12:34:12Z</time>
      </trkpt>
      <trkpt lat="40.312083" lon="-4.782500">
        <ele>2632.0</ele>
        <time>2015-08-02T12:34:13Z</time>
      </trkpt>
      <trkpt lat="40.312050" lon="-4.782317">
        <ele>2629.0</ele>
        <time>2015-08-02T12:34:14Z</time>
      </trkpt>
      <trkpt lat="40.312000" lon="-4.782117">
        <ele>2626.0</ele>
        <time>2015-08-02T12:34:15Z</time>
      </trkpt>
      <trkpt lat="40.311950" lon="-4.781933">
        <ele>2623.0</ele>
        <time>2015-08-02T12:34:16Z</time>
      </trkpt>
      <trkpt lat="40.311883" lon="-4.781750">
        <ele>2619.0</ele>
        <time>2015-08-02T12:34:17Z</time>
      </trkpt>
      <trkpt lat="40.311817" lon="-4.781583">
        <ele>2615.0</ele>
        <time>2015-08-02T12:34:18Z</time>
      </trkpt>
      <trkpt lat="40.311750" lon="-4.781417">
        <ele>2611.0</ele>
        <time>2015-08-02T12:34:19Z</time>
      </trkpt>
      <trkpt lat="40.311683" lon="-4.781233">
        <ele>2607.0</ele>
        <time>2015-08-02T12:34:20Z</time>
      </trkpt>
      <trkpt lat="40.311617" lon="-4.781067">
        <ele>2603.0</ele>
        <time>2015-08-02T12:34:21Z</time>
      </trkpt>
      <trkpt lat="40.311550" lon="-4.780900">
        <ele>2600.0</ele>
        <time>2015-08-02T12:34:22Z</time>
      </trkpt>
      <trkpt lat="40.311483" lon="-4.780767">
        <ele>2599.0</ele>
        <time>2015-08-02T12:34:23Z</time>
      </trkpt>
      <trkpt lat="40.311417" lon="-4.780633">
        <ele>2597.0</ele>
        <time>2015-08-02T12:34:24Z</time>
      </trkpt>
      <trkpt lat="40.311350" lon="-4.780500">
        <ele>2596.0</ele>
        <time>2015-08-02T12:34:25Z</time>
      </trkpt>
      <trkpt lat="40.311300" lon="-4.780367">
        <ele>2594.0</ele>
        <time>2015-08-02T12:34:26Z</time>
      </trkpt>
      <trkpt lat="40.311267" lon="-4.780200">
        <ele>2592.0</ele>
        <time>2015-08-02T12:34:27Z</time>
      </trkpt>
      <trkpt lat="40.311233" lon="-4.780033">
        <ele>2590.0</ele>
        <time>2015-08-02T12:34:28Z</time>
      </trkpt>
      <trkpt lat="40.311183" lon="-4.779883">
        <ele>2587.0</ele>
        <time>2015-08-02T12:34:29Z</time>
      </trkpt>
      <trkpt lat="40.311133" lon="-4.779350">
        <ele>2583.0</ele>
        <time>2015-08-02T12:34:32Z</time>
      </trkpt>
      <trkpt lat="40.311150" lon="-4.779167">
        <ele>2579.0</ele>
        <time>2015-08-02T12:34:33Z</time>
      </trkpt>
      <trkpt lat="40.311167" lon="-4.778983">
        <ele>2576.0</ele>
        <time>2015-08-02T12:34:34Z</time>
      </trkpt>
      <trkpt lat="40.311167" lon="-4.778817">
        <ele>2575.0</ele>
        <time>2015-08-02T12:34:35Z</time>
      </trkpt>
      <trkpt lat="40.311150" lon="-4.778683">
        <ele>2573.0</ele>
        <time>2015-08-02T12:34:36Z</time>
      </trkpt>
      <trkpt lat="40.311117" lon="-4.778550">
        <ele>2572.0</ele>
        <time>2015-08-02T12:34:37Z</time>
      </trkpt>
      <trkpt lat="40.311083" lon="-4.778433">
        <ele>2570.0</ele>
        <time>2015-08-02T12:34:38Z</time>
      </trkpt>
      <trkpt lat="40.311033" lon="-4.778283">
        <ele>2568.0</ele>
        <time>2015-08-02T12:34:39Z</time>
      </trkpt>
      <trkpt lat="40.310983" lon="-4.778183">
        <ele>2567.0</ele>
        <time>2015-08-02T12:34:40Z</time>
      </trkpt>
      <trkpt lat="40.310933" lon="-4.778083">
        <ele>2565.0</ele>
        <time>2015-08-02T12:34:41Z</time>
      </trkpt>
      <trkpt lat="40.310883" lon="-4.777983">
        <ele>2563.0</ele>
        <time>2015-08-02T12:34:42Z</time>
      </trkpt>
      <trkpt lat="40.310833" lon="-4.777883">
        <ele>2562.0</ele>
        <time>2015-08-02T12:34:43Z</time>
      </trkpt>
      <trkpt lat="40.310767" lon="-4.777767">
        <ele>2560.0</ele>
        <time>2015-08-02T12:34:44Z</time>
      </trkpt>
      <trkpt lat="40.310617" lon="-4.777417">
        <ele>2555.0</ele>
        <time>2015-08-02T12:34:47Z</time>
      </trkpt>
      <trkpt lat="40.310567" lon="-4.777300">
        <ele>2553.0</ele>
        <time>2015-08-02T12:34:48Z</time>
      </trkpt>
      <trkpt lat="40.310517" lon="-4.777167">
        <ele>2552.0</ele>
        <time>2015-08-02T12:34:49Z</time>
      </trkpt>
      <trkpt lat="40.310350" lon="-4.776650">
        <ele>2546.0</ele>
        <time>2015-08-02T12:34:53Z</time>
      </trkpt>
      <trkpt lat="40.310333" lon="-4.776517">
        <ele>2545.0</ele>
        <time>2015-08-02T12:34:54Z</time>
      </trkpt>
      <trkpt lat="40.310300" lon="-4.776400">
        <ele>2543.0</ele>
        <time>2015-08-02T12:34:55Z</time>
      </trkpt>
      <trkpt lat="40.310267" lon="-4.776267">
        <ele>2541.0</ele>
        <time>2015-08-02T12:34:56Z</time>
      </trkpt>
      <trkpt lat="40.310250" lon="-4.776133">
        <ele>2539.0</ele>
        <time>2015-08-02T12:34:57Z</time>
      </trkpt>
      <trkpt lat="40.310217" lon="-4.776000">
        <ele>2536.0</ele>
        <time>2015-08-02T12:34:58Z</time>
      </trkpt>
      <trkpt lat="40.310200" lon="-4.775850">
        <ele>2535.0</ele>
        <time>2015-08-02T12:34:59Z</time>
      </trkpt>
      <trkpt lat="40.310200" lon="-4.775700">
        <ele>2533.0</ele>
        <time>2015-08-02T12:35:00Z</time>
      </trkpt>
      <trkpt lat="40.310183" lon="-4.775550">
        <ele>2531.0</ele>
        <time>2015-08-02T12:35:01Z</time>
      </trkpt>
      <trkpt lat="40.310183" lon="-4.775400">
        <ele>2529.0</ele>
        <time>2015-08-02T12:35:02Z</time>
      </trkpt>
      <trkpt lat="40.310183" lon="-4.775267">
        <ele>2527.0</ele>
        <time>2015-08-02T12:35:03Z</time>
      </trkpt>
      <trkpt lat="40.310183" lon="-4.775117">
        <ele>2525.0</ele>
        <time>2015-08-02T12:35:04Z</time>
      </trkpt>
      <trkpt lat="40.310200" lon="-4.774950">
        <ele>2523.0</ele>
        <time>2015-08-02T12:35:05Z</time>
      </trkpt>
      <trkpt lat="40.310217" lon="-4.774800">
        <ele>2521.0</ele>
        <time>2015-08-02T12:35:06Z</time>
      </trkpt>
      <trkpt lat="40.310250" lon="-4.774633">
        <ele>2519.0</ele>
        <time>2015-08-02T12:35:07Z</time>
      </trkpt>
      <trkpt lat="40.310300" lon="-4.774467">
        <ele>2518.0</ele>
        <time>2015-08-02T12:35:08Z</time>
      </trkpt>
      <trkpt lat="40.310333" lon="-4.774317">
        <ele>2518.0</ele>
        <time>2015-08-02T12:35:09Z</time>
      </trkpt>
      <trkpt lat="40.310367" lon="-4.774150">
        <ele>2516.0</ele>
        <time>2015-08-02T12:35:10Z</time>
      </trkpt>
      <trkpt lat="40.310383" lon="-4.774000">
        <ele>2515.0</ele>
        <time>2015-08-02T12:35:11Z</time>
      </trkpt>
      <trkpt lat="40.310417" lon="-4.773850">
        <ele>2513.0</ele>
        <time>2015-08-02T12:35:12Z</time>
      </trkpt>
      <trkpt lat="40.310433" lon="-4.773683">
        <ele>2510.0</ele>
        <time>2015-08-02T12:35:13Z</time>
      </trkpt>
      <trkpt lat="40.310467" lon="-4.773517">
        <ele>2508.0</ele>
        <time>2015-08-02T12:35:14Z</time>
      </trkpt>
      <trkpt lat="40.310483" lon="-4.773350">
        <ele>2506.0</ele>
        <time>2015-08-02T12:35:15Z</time>
      </trkpt>
      <trkpt lat="40.310517" lon="-4.773200">
        <ele>2505.0</ele>
        <time>2015-08-02T12:35:16Z</time>
      </trkpt>
      <trkpt lat="40.310533" lon="-4.773033">
        <ele>2503.0</ele>
        <time>2015-08-02T12:35:17Z</time>
      </trkpt>
      <trkpt lat="40.310550" lon="-4.772867">
        <ele>2500.0</ele>
        <time>2015-08-02T12:35:18Z</time>
      </trkpt>
      <trkpt lat="40.310550" lon="-4.772700">
        <ele>2497.0</ele>
        <time>2015-08-02T12:35:19Z</time>
      </trkpt>
      <trkpt lat="40.310517" lon="-4.772550">
        <ele>2495.0</ele>
        <time>2015-08-02T12:35:20Z</time>
      </trkpt>
      <trkpt lat="40.310500" lon="-4.772383">
        <ele>2493.0</ele>
        <time>2015-08-02T12:35:21Z</time>
      </trkpt>
      <trkpt lat="40.310483" lon="-4.772217">
        <ele>2492.0</ele>
        <time>2015-08-02T12:35:22Z</time>
      </trkpt>
      <trkpt lat="40.310450" lon="-4.772067">
        <ele>2491.0</ele>
        <time>2015-08-02T12:35:23Z</time>
      </trkpt>
      <trkpt lat="40.310417" lon="-4.771933">
        <ele>2489.0</ele>
        <time>2015-08-02T12:35:24Z</time>
      </trkpt>
      <trkpt lat="40.310383" lon="-4.771800">
        <ele>2488.0</ele>
        <time>2015-08-02T12:35:25Z</time>
      </trkpt>
      <trkpt lat="40.310350" lon="-4.771667">
        <ele>2486.0</ele>
        <time>2015-08-02T12:35:26Z</time>
      </trkpt>
      <trkpt lat="40.310333" lon="-4.771517">
        <ele>2483.0</ele>
        <time>2015-08-02T12:35:27Z</time>
      </trkpt>
      <trkpt lat="40.310317" lon="-4.771350">
        <ele>2481.0</ele>
        <time>2015-08-02T12:35:28Z</time>
      </trkpt>
      <trkpt lat="40.310300" lon="-4.771183">
        <ele>2479.0</ele>
        <time>2015-08-02T12:35:29Z</time>
      </trkpt>
      <trkpt lat="40.310283" lon="-4.771033">
        <ele>2476.0</ele>
        <time>2015-08-02T12:35:30Z</time>
      </trkpt>
      <trkpt lat="40.310267" lon="-4.770867">
        <ele>2473.0</ele>
        <time>2015-08-02T12:35:31Z</time>
      </trkpt>
      <trkpt lat="40.310250" lon="-4.770700">
        <ele>2471.0</ele>
        <time>2015-08-02T12:35:32Z</time>
      </trkpt>
      <trkpt lat="40.310267" lon="-4.770533">
        <ele>2469.0</ele>
        <time>2015-08-02T12:35:33Z</time>
      </trkpt>
      <trkpt lat="40.310283" lon="-4.770350">
        <ele>2467.0</ele>
        <time>2015-08-02T12:35:34Z</time>
      </trkpt>
      <trkpt lat="40.310300" lon="-4.770200">
        <ele>2467.0</ele>
        <time>2015-08-02T12:35:35Z</time>
      </trkpt>
      <trkpt lat="40.310333" lon="-4.770033">
        <ele>2467.0</ele>
        <time>2015-08-02T12:35:36Z</time>
      </trkpt>
      <trkpt lat="40.310350" lon="-4.769883">
        <ele>2466.0</ele>
        <time>2015-08-02T12:35:37Z</time>
      </trkpt>
      <trkpt lat="40.310367" lon="-4.769700">
        <ele>2464.0</ele>
        <time>2015-08-02T12:35:38Z</time>
      </trkpt>
      <trkpt lat="40.310400" lon="-4.769517">
        <ele>2462.0</ele>
        <time>2015-08-02T12:35:39Z</time>
      </trkpt>
      <trkpt lat="40.310417" lon="-4.769333">
        <ele>2462.0</ele>
        <time>2015-08-02T12:35:40Z</time>
      </trkpt>
      <trkpt lat="40.310450" lon="-4.769167">
        <ele>2463.0</ele>
        <time>2015-08-02T12:35:41Z</time>
      </trkpt>
      <trkpt lat="40.310500" lon="-4.769017">
        <ele>2464.0</ele>
        <time>2015-08-02T12:35:42Z</time>
      </trkpt>
      <trkpt lat="40.310550" lon="-4.768867">
        <ele>2463.0</ele>
        <time>2015-08-02T12:35:43Z</time>
      </trkpt>
      <trkpt lat="40.310583" lon="-4.768717">
        <ele>2461.0</ele>
        <time>2015-08-02T12:35:44Z</time>
      </trkpt>
      <trkpt lat="40.310650" lon="-4.768567">
        <ele>2459.0</ele>
        <time>2015-08-02T12:35:45Z</time>
      </trkpt>
      <trkpt lat="40.310700" lon="-4.768400">
        <ele>2456.0</ele>
        <time>2015-08-02T12:35:46Z</time>
      </trkpt>
      <trkpt lat="40.310767" lon="-4.768233">
        <ele>2454.0</ele>
        <time>2015-08-02T12:35:47Z</time>
      </trkpt>
      <trkpt lat="40.310817" lon="-4.768067">
        <ele>2452.0</ele>
        <time>2015-08-02T12:35:48Z</time>
      </trkpt>
      <trkpt lat="40.310850" lon="-4.767900">
        <ele>2451.0</ele>
        <time>2015-08-02T12:35:49Z</time>
      </trkpt>
      <trkpt lat="40.310883" lon="-4.767733">
        <ele>2452.0</ele>
        <time>2015-08-02T12:35:50Z</time>
      </trkpt>
      <trkpt lat="40.310900" lon="-4.767583">
        <ele>2451.0</ele>
        <time>2015-08-02T12:35:51Z</time>
      </trkpt>
      <trkpt lat="40.310933" lon="-4.767433">
        <ele>2450.0</ele>
        <time>2015-08-02T12:35:52Z</time>
      </trkpt>
      <trkpt lat="40.310967" lon="-4.767283">
        <ele>2449.0</ele>
        <time>2015-08-02T12:35:53Z</time>
      </trkpt>
      <trkpt lat="40.311017" lon="-4.767117">
        <ele>2447.0</ele>
        <time>2015-08-02T12:35:54Z</time>
      </trkpt>
      <trkpt lat="40.311050" lon="-4.766950">
        <ele>2446.0</ele>
        <time>2015-08-02T12:35:55Z</time>
      </trkpt>
      <trkpt lat="40.311083" lon="-4.766767">
        <ele>2446.0</ele>
        <time>2015-08-02T12:35:56Z</time>
      </trkpt>
      <trkpt lat="40.311117" lon="-4.766600">
        <ele>2447.0</ele>
        <time>2015-08-02T12:35:57Z</time>
      </trkpt>
      <trkpt lat="40.311117" lon="-4.766433">
        <ele>2447.0</ele>
        <time>2015-08-02T12:35:58Z</time>
      </trkpt>
      <trkpt lat="40.311133" lon="-4.766283">
        <ele>2447.0</ele>
        <time>2015-08-02T12:35:59Z</time>
      </trkpt>
      <trkpt lat="40.311133" lon="-4.766133">
        <ele>2446.0</ele>
        <time>2015-08-02T12:36:00Z</time>
      </trkpt>
      <trkpt lat="40.311150" lon="-4.765983">
        <ele>2444.0</ele>
        <time>2015-08-02T12:36:01Z</time>
      </trkpt>
      <trkpt lat="40.311167" lon="-4.765833">
        <ele>2442.0</ele>
        <time>2015-08-02T12:36:02Z</time>
      </trkpt>
      <trkpt lat="40.311183" lon="-4.765667">
        <ele>2440.0</ele>
        <time>2015-08-02T12:36:03Z</time>
      </trkpt>
      <trkpt lat="40.311217" lon="-4.765500">
        <ele>2438.0</ele>
        <time>2015-08-02T12:36:04Z</time>
      </trkpt>
      <trkpt lat="40.311233" lon="-4.765333">
        <ele>2437.0</ele>
        <time>2015-08-02T12:36:05Z</time>
      </trkpt>
      <trkpt lat="40.311267" lon="-4.765167">
        <ele>2436.0</ele>
        <time>2015-08-02T12:36:06Z</time>
      </trkpt>
      <trkpt lat="40.311283" lon="-4.765017">
        <ele>2434.0</ele>
        <time>2015-08-02T12:36:07Z</time>
      </trkpt>
      <trkpt lat="40.311300" lon="-4.764833">
        <ele>2432.0</ele>
        <time>2015-08-02T12:36:08Z</time>
      </trkpt>
      <trkpt lat="40.311317" lon="-4.764667">
        <ele>2430.0</ele>
        <time>2015-08-02T12:36:09Z</time>
      </trkpt>
      <trkpt lat="40.311333" lon="-4.764500">
        <ele>2429.0</ele>
        <time>2015-08-02T12:36:10Z</time>
      </trkpt>
      <trkpt lat="40.311333" lon="-4.764317">
        <ele>2427.0</ele>
        <time>2015-08-02T12:36:11Z</time>
      </trkpt>
      <trkpt lat="40.311350" lon="-4.764150">
        <ele>2427.0</ele>
        <time>2015-08-02T12:36:12Z</time>
      </trkpt>
      <trkpt lat="40.311350" lon="-4.763983">
        <ele>2426.0</ele>
        <time>2015-08-02T12:36:13Z</time>
      </trkpt>
      <trkpt lat="40.311350" lon="-4.763800">
        <ele>2426.0</ele>
        <time>2015-08-02T12:36:14Z</time>
      </trkpt>
      <trkpt lat="40.311367" lon="-4.763633">
        <ele>2426.0</ele>
        <time>2015-08-02T12:36:15Z</time>
      </trkpt>
      <trkpt lat="40.311367" lon="-4.763467">
        <ele>2426.0</ele>
        <time>2015-08-02T12:36:16Z</time>
      </trkpt>
      <trkpt lat="40.311367" lon="-4.763300">
        <ele>2425.0</ele>
        <time>2015-08-02T12:36:17Z</time>
      </trkpt>
      <trkpt lat="40.311350" lon="-4.763117">
        <ele>2424.0</ele>
        <time>2015-08-02T12:36:18Z</time>
      </trkpt>
      <trkpt lat="40.311333" lon="-4.762950">
        <ele>2423.0</ele>
        <time>2015-08-02T12:36:19Z</time>
      </trkpt>
      <trkpt lat="40.311333" lon="-4.762767">
        <ele>2423.0</ele>
        <time>2015-08-02T12:36:20Z</time>
      </trkpt>
      <trkpt lat="40.311317" lon="-4.762583">
        <ele>2423.0</ele>
        <time>2015-08-02T12:36:21Z</time>
      </trkpt>
      <trkpt lat="40.311317" lon="-4.762400">
        <ele>2424.0</ele>
        <time>2015-08-02T12:36:22Z</time>
      </trkpt>
      <trkpt lat="40.311300" lon="-4.762217">
        <ele>2423.0</ele>
        <time>2015-08-02T12:36:23Z</time>
      </trkpt>
      <trkpt lat="40.311300" lon="-4.762050">
        <ele>2423.0</ele>
        <time>2015-08-02T12:36:24Z</time>
      </trkpt>
      <trkpt lat="40.311283" lon="-4.761867">
        <ele>2422.0</ele>
        <time>2015-08-02T12:36:25Z</time>
      </trkpt>
      <trkpt lat="40.311283" lon="-4.761683">
        <ele>2420.0</ele>
        <time>2015-08-02T12:36:26Z</time>
      </trkpt>
      <trkpt lat="40.311300" lon="-4.761500">
        <ele>2419.0</ele>
        <time>2015-08-02T12:36:27Z</time>
      </trkpt>
      <trkpt lat="40.311300" lon="-4.761300">
        <ele>2418.0</ele>
        <time>2015-08-02T12:36:28Z</time>
      </trkpt>
      <trkpt lat="40.311317" lon="-4.761100">
        <ele>2418.0</ele>
        <time>2015-08-02T12:36:29Z</time>
      </trkpt>
      <trkpt lat="40.311317" lon="-4.760917">
        <ele>2418.0</ele>
        <time>2015-08-02T12:36:30Z</time>
      </trkpt>
      <trkpt lat="40.311317" lon="-4.760733">
        <ele>2419.0</ele>
        <time>2015-08-02T12:36:31Z</time>
      </trkpt>
      <trkpt lat="40.311317" lon="-4.760567">
        <ele>2418.0</ele>
        <time>2015-08-02T12:36:32Z</time>
      </trkpt>
      <trkpt lat="40.311333" lon="-4.760400">
        <ele>2416.0</ele>
        <time>2015-08-02T12:36:33Z</time>
      </trkpt>
      <trkpt lat="40.311350" lon="-4.760217">
        <ele>2414.0</ele>
        <time>2015-08-02T12:36:34Z</time>
      </trkpt>
      <trkpt lat="40.311367" lon="-4.760033">
        <ele>2412.0</ele>
        <time>2015-08-02T12:36:35Z</time>
      </trkpt>
      <trkpt lat="40.311367" lon="-4.759833">
        <ele>2410.0</ele>
        <time>2015-08-02T12:36:36Z</time>
      </trkpt>
      <trkpt lat="40.311383" lon="-4.759633">
        <ele>2408.0</ele>
        <time>2015-08-02T12:36:37Z</time>
      </trkpt>
      <trkpt lat="40.311400" lon="-4.759450">
        <ele>2407.0</ele>
        <time>2015-08-02T12:36:38Z</time>
      </trkpt>
      <trkpt lat="40.311433" lon="-4.759267">
        <ele>2405.0</ele>
        <time>2015-08-02T12:36:39Z</time>
      </trkpt>
      <trkpt lat="40.311483" lon="-4.759067">
        <ele>2403.0</ele>
        <time>2015-08-02T12:36:40Z</time>
      </trkpt>
      <trkpt lat="40.311517" lon="-4.758883">
        <ele>2401.0</ele>
        <time>2015-08-02T12:36:41Z</time>
      </trkpt>
      <trkpt lat="40.311550" lon="-4.758700">
        <ele>2399.0</ele>
        <time>2015-08-02T12:36:42Z</time>
      </trkpt>
      <trkpt lat="40.311567" lon="-4.758483">
        <ele>2396.0</ele>
        <time>2015-08-02T12:36:43Z</time>
      </trkpt>
      <trkpt lat="40.311600" lon="-4.758283">
        <ele>2394.0</ele>
        <time>2015-08-02T12:36:44Z</time>
      </trkpt>
      <trkpt lat="40.311650" lon="-4.758100">
        <ele>2393.0</ele>
        <time>2015-08-02T12:36:45Z</time>
      </trkpt>
      <trkpt lat="40.311700" lon="-4.757933">
        <ele>2392.0</ele>
        <time>2015-08-02T12:36:46Z</time>
      </trkpt>
      <trkpt lat="40.311767" lon="-4.757767">
        <ele>2392.0</ele>
        <time>2015-08-02T12:36:47Z</time>
      </trkpt>
      <trkpt lat="40.311817" lon="-4.757600">
        <ele>2390.0</ele>
        <time>2015-08-02T12:36:48Z</time>
      </trkpt>
      <trkpt lat="40.311850" lon="-4.757417">
        <ele>2388.0</ele>
        <time>2015-08-02T12:36:49Z</time>
      </trkpt>
      <trkpt lat="40.311867" lon="-4.757250">
        <ele>2386.0</ele>
        <time>2015-08-02T12:36:50Z</time>
      </trkpt>
      <trkpt lat="40.311883" lon="-4.757067">
        <ele>2384.0</ele>
        <time>2015-08-02T12:36:51Z</time>
      </trkpt>
      <trkpt lat="40.311900" lon="-4.756883">
        <ele>2382.0</ele>
        <time>2015-08-02T12:36:52Z</time>
      </trkpt>
      <trkpt lat="40.311900" lon="-4.756667">
        <ele>2381.0</ele>
        <time>2015-08-02T12:36:53Z</time>
      </trkpt>
      <trkpt lat="40.311900" lon="-4.756467">
        <ele>2381.0</ele>
        <time>2015-08-02T12:36:54Z</time>
      </trkpt>
      <trkpt lat="40.311883" lon="-4.756283">
        <ele>2381.0</ele>
        <time>2015-08-02T12:36:55Z</time>
      </trkpt>
      <trkpt lat="40.311867" lon="-4.756100">
        <ele>2382.0</ele>
        <time>2015-08-02T12:36:56Z</time>
      </trkpt>
      <trkpt lat="40.311850" lon="-4.755933">
        <ele>2382.0</ele>
        <time>2015-08-02T12:36:57Z</time>
      </trkpt>
      <trkpt lat="40.311833" lon="-4.755750">
        <ele>2383.0</ele>
        <time>2015-08-02T12:36:58Z</time>
      </trkpt>
      <trkpt lat="40.311800" lon="-4.755567">
        <ele>2383.0</ele>
        <time>2015-08-02T12:36:59Z</time>
      </trkpt>
      <trkpt lat="40.311767" lon="-4.755383">
        <ele>2383.0</ele>
        <time>2015-08-02T12:37:00Z</time>
      </trkpt>
      <trkpt lat="40.311733" lon="-4.755200">
        <ele>2383.0</ele>
        <time>2015-08-02T12:37:01Z</time>
      </trkpt>
      <trkpt lat="40.311700" lon="-4.755033">
        <ele>2383.0</ele>
        <time>2015-08-02T12:37:02Z</time>
      </trkpt>
      <trkpt lat="40.311667" lon="-4.754850">
        <ele>2384.0</ele>
        <time>2015-08-02T12:37:03Z</time>
      </trkpt>
      <trkpt lat="40.311617" lon="-4.754683">
        <ele>2384.0</ele>
        <time>2015-08-02T12:37:04Z</time>
      </trkpt>
      <trkpt lat="40.311567" lon="-4.754517">
        <ele>2385.0</ele>
        <time>2015-08-02T12:37:05Z</time>
      </trkpt>
      <trkpt lat="40.311517" lon="-4.754367">
        <ele>2384.0</ele>
        <time>2015-08-02T12:37:06Z</time>
      </trkpt>
      <trkpt lat="40.311467" lon="-4.754200">
        <ele>2383.0</ele>
        <time>2015-08-02T12:37:07Z</time>
      </trkpt>
      <trkpt lat="40.311417" lon="-4.754017">
        <ele>2382.0</ele>
        <time>2015-08-02T12:37:08Z</time>
      </trkpt>
      <trkpt lat="40.311383" lon="-4.753850">
        <ele>2382.0</ele>
        <time>2015-08-02T12:37:09Z</time>
      </trkpt>
      <trkpt lat="40.311333" lon="-4.753683">
        <ele>2382.0</ele>
        <time>2015-08-02T12:37:10Z</time>
      </trkpt>
      <trkpt lat="40.311283" lon="-4.753533">
        <ele>2381.0</ele>
        <time>2015-08-02T12:37:11Z</time>
      </trkpt>
      <trkpt lat="40.311233" lon="-4.753400">
        <ele>2380.0</ele>
        <time>2015-08-02T12:37:12Z</time>
      </trkpt>
      <trkpt lat="40.311183" lon="-4.753267">
        <ele>2377.0</ele>
        <time>2015-08-02T12:37:13Z</time>
      </trkpt>
      <trkpt lat="40.311117" lon="-4.753100">
        <ele>2373.0</ele>
        <time>2015-08-02T12:37:14Z</time>
      </trkpt>
      <trkpt lat="40.311067" lon="-4.752933">
        <ele>2371.0</ele>
        <time>2015-08-02T12:37:15Z</time>
      </trkpt>
      <trkpt lat="40.311017" lon="-4.752767">
        <ele>2370.0</ele>
        <time>2015-08-02T12:37:16Z</time>
      </trkpt>
      <trkpt lat="40.310950" lon="-4.752617">
        <ele>2369.0</ele>
        <time>2015-08-02T12:37:17Z</time>
      </trkpt>
      <trkpt lat="40.310883" lon="-4.752517">
        <ele>2367.0</ele>
        <time>2015-08-02T12:37:18Z</time>
      </trkpt>
      <trkpt lat="40.310817" lon="-4.752417">
        <ele>2364.0</ele>
        <time>2015-08-02T12:37:19Z</time>
      </trkpt>
      <trkpt lat="40.310750" lon="-4.752350">
        <ele>2361.0</ele>
        <time>2015-08-02T12:37:20Z</time>
      </trkpt>
      <trkpt lat="40.310667" lon="-4.752283">
        <ele>2357.0</ele>
        <time>2015-08-02T12:37:21Z</time>
      </trkpt>
      <trkpt lat="40.310583" lon="-4.752250">
        <ele>2353.0</ele>
        <time>2015-08-02T12:37:22Z</time>
      </trkpt>
      <trkpt lat="40.310500" lon="-4.752233">
        <ele>2349.0</ele>
        <time>2015-08-02T12:37:23Z</time>
      </trkpt>
      <trkpt lat="40.310433" lon="-4.752217">
        <ele>2346.0</ele>
        <time>2015-08-02T12:37:24Z</time>
      </trkpt>
      <trkpt lat="40.310367" lon="-4.752217">
        <ele>2345.0</ele>
        <time>2015-08-02T12:37:25Z</time>
      </trkpt>
      <trkpt lat="40.310300" lon="-4.752250">
        <ele>2344.0</ele>
        <time>2015-08-02T12:37:26Z</time>
      </trkpt>
      <trkpt lat="40.310267" lon="-4.752267">
        <ele>2343.0</ele>
        <time>2015-08-02T12:37:27Z</time>
      </trkpt>
      <trkpt lat="40.310233" lon="-4.752317">
        <ele>2341.0</ele>
        <time>2015-08-02T12:37:28Z</time>
      </trkpt>
      <trkpt lat="40.310200" lon="-4.752350">
        <ele>2339.0</ele>
        <time>2015-08-02T12:37:29Z</time>
      </trkpt>
      <trkpt lat="40.310183" lon="-4.752400">
        <ele>2336.0</ele>
        <time>2015-08-02T12:37:30Z</time>
      </trkpt>
      <trkpt lat="40.310150" lon="-4.752467">
        <ele>2333.0</ele>
        <time>2015-08-02T12:37:31Z</time>
      </trkpt>
      <trkpt lat="40.310117" lon="-4.752533">
        <ele>2330.0</ele>
        <time>2015-08-02T12:37:32Z</time>
      </trkpt>
      <trkpt lat="40.310117" lon="-4.752617">
        <ele>2327.0</ele>
        <time>2015-08-02T12:37:33Z</time>
      </trkpt>
      <trkpt lat="40.310117" lon="-4.752683">
        <ele>2325.0</ele>
        <time>2015-08-02T12:37:34Z</time>
      </trkpt>
      <trkpt lat="40.310133" lon="-4.752767">
        <ele>2322.0</ele>
        <time>2015-08-02T12:37:35Z</time>
      </trkpt>
      <trkpt lat="40.310167" lon="-4.752867">
        <ele>2318.0</ele>
        <time>2015-08-02T12:37:36Z</time>
      </trkpt>
      <trkpt lat="40.310217" lon="-4.752950">
        <ele>2315.0</ele>
        <time>2015-08-02T12:37:37Z</time>
      </trkpt>
      <trkpt lat="40.310233" lon="-4.753033">
        <ele>2313.0</ele>
        <time>2015-08-02T12:37:38Z</time>
      </trkpt>
      <trkpt lat="40.310250" lon="-4.753100">
        <ele>2310.0</ele>
        <time>2015-08-02T12:37:39Z</time>
      </trkpt>
      <trkpt lat="40.310283" lon="-4.753183">
        <ele>2306.0</ele>
        <time>2015-08-02T12:37:40Z</time>
      </trkpt>
      <trkpt lat="40.310333" lon="-4.753250">
        <ele>2302.0</ele>
        <time>2015-08-02T12:37:41Z</time>
      </trkpt>
      <trkpt lat="40.310383" lon="-4.753333">
        <ele>2297.0</ele>
        <time>2015-08-02T12:37:42Z</time>
      </trkpt>
      <trkpt lat="40.310467" lon="-4.753400">
        <ele>2294.0</ele>
        <time>2015-08-02T12:37:43Z</time>
      </trkpt>
      <trkpt lat="40.310533" lon="-4.753467">
        <ele>2291.0</ele>
        <time>2015-08-02T12:37:44Z</time>
      </trkpt>
      <trkpt lat="40.310617" lon="-4.753517">
        <ele>2289.0</ele>
        <time>2015-08-02T12:37:45Z</time>
      </trkpt>
      <trkpt lat="40.310717" lon="-4.753533">
        <ele>2286.0</ele>
        <time>2015-08-02T12:37:46Z</time>
      </trkpt>
      <trkpt lat="40.310817" lon="-4.753517">
        <ele>2282.0</ele>
        <time>2015-08-02T12:37:47Z</time>
      </trkpt>
      <trkpt lat="40.310933" lon="-4.753483">
        <ele>2278.0</ele>
        <time>2015-08-02T12:37:48Z</time>
      </trkpt>
      <trkpt lat="40.311067" lon="-4.753433">
        <ele>2274.0</ele>
        <time>2015-08-02T12:37:49Z</time>
      </trkpt>
      <trkpt lat="40.311183" lon="-4.753367">
        <ele>2271.0</ele>
        <time>2015-08-02T12:37:50Z</time>
      </trkpt>
      <trkpt lat="40.311300" lon="-4.753300">
        <ele>2269.0</ele>
        <time>2015-08-02T12:37:51Z</time>
      </trkpt>
      <trkpt lat="40.311417" lon="-4.753200">
        <ele>2265.0</ele>
        <time>2015-08-02T12:37:52Z</time>
      </trkpt>
      <trkpt lat="40.311517" lon="-4.753083">
        <ele>2261.0</ele>
        <time>2015-08-02T12:37:53Z</time>
      </trkpt>
      <trkpt lat="40.311633" lon="-4.752950">
        <ele>2257.0</ele>
        <time>2015-08-02T12:37:54Z</time>
      </trkpt>
      <trkpt lat="40.311733" lon="-4.752783">
        <ele>2254.0</ele>
        <time>2015-08-02T12:37:55Z</time>
      </trkpt>
      <trkpt lat="40.311817" lon="-4.752633">
        <ele>2251.0</ele>
        <time>2015-08-02T12:37:56Z</time>
      </trkpt>
      <trkpt lat="40.311900" lon="-4.752450">
        <ele>2248.0</ele>
        <time>2015-08-02T12:37:57Z</time>
      </trkpt>
      <trkpt lat="40.311967" lon="-4.752283">
        <ele>2245.0</ele>
        <time>2015-08-02T12:37:58Z</time>
      </trkpt>
      <trkpt lat="40.312033" lon="-4.752100">
        <ele>2241.0</ele>
        <time>2015-08-02T12:37:59Z</time>
      </trkpt>
      <trkpt lat="40.312083" lon="-4.751917">
        <ele>2236.0</ele>
        <time>2015-08-02T12:38:00Z</time>
      </trkpt>
      <trkpt lat="40.312133" lon="-4.751733">
        <ele>2232.0</ele>
        <time>2015-08-02T12:38:01Z</time>
      </trkpt>
      <trkpt lat="40.312183" lon="-4.751533">
        <ele>2227.0</ele>
        <time>2015-08-02T12:38:02Z</time>
      </trkpt>
      <trkpt lat="40.312217" lon="-4.751317">
        <ele>2222.0</ele>
        <time>2015-08-02T12:38:03Z</time>
      </trkpt>
      <trkpt lat="40.312267" lon="-4.751117">
        <ele>2218.0</ele>
        <time>2015-08-02T12:38:04Z</time>
      </trkpt>
      <trkpt lat="40.312317" lon="-4.750900">
        <ele>2215.0</ele>
        <time>2015-08-02T12:38:05Z</time>
      </trkpt>
      <trkpt lat="40.312367" lon="-4.750700">
        <ele>2212.0</ele>
        <time>2015-08-02T12:38:06Z</time>
      </trkpt>
      <trkpt lat="40.312433" lon="-4.750517">
        <ele>2210.0</ele>
        <time>2015-08-02T12:38:07Z</time>
      </trkpt>
      <trkpt lat="40.312483" lon="-4.750333">
        <ele>2206.0</ele>
        <time>2015-08-02T12:38:08Z</time>
      </trkpt>
      <trkpt lat="40.312550" lon="-4.750150">
        <ele>2202.0</ele>
        <time>2015-08-02T12:38:09Z</time>
      </trkpt>
      <trkpt lat="40.312600" lon="-4.749950">
        <ele>2198.0</ele>
        <time>2015-08-02T12:38:10Z</time>
      </trkpt>
      <trkpt lat="40.312650" lon="-4.749750">
        <ele>2194.0</ele>
        <time>2015-08-02T12:38:11Z</time>
      </trkpt>
      <trkpt lat="40.312700" lon="-4.749533">
        <ele>2192.0</ele>
        <time>2015-08-02T12:38:12Z</time>
      </trkpt>
      <trkpt lat="40.312733" lon="-4.749333">
        <ele>2190.0</ele>
        <time>2015-08-02T12:38:13Z</time>
      </trkpt>
      <trkpt lat="40.312767" lon="-4.749167">
        <ele>2189.0</ele>
        <time>2015-08-02T12:38:14Z</time>
      </trkpt>
      <trkpt lat="40.312783" lon="-4.749000">
        <ele>2187.0</ele>
        <time>2015-08-02T12:38:15Z</time>
      </trkpt>
      <trkpt lat="40.312833" lon="-4.748833">
        <ele>2185.0</ele>
        <time>2015-08-02T12:38:16Z</time>
      </trkpt>
      <trkpt lat="40.312883" lon="-4.748667">
        <ele>2184.0</ele>
        <time>2015-08-02T12:38:17Z</time>
      </trkpt>
      <trkpt lat="40.312950" lon="-4.748517">
        <ele>2183.0</ele>
        <time>2015-08-02T12:38:18Z</time>
      </trkpt>
      <trkpt lat="40.313000" lon="-4.748383">
        <ele>2182.0</ele>
        <time>2015-08-02T12:38:19Z</time>
      </trkpt>
      <trkpt lat="40.313033" lon="-4.748250">
        <ele>2179.0</ele>
        <time>2015-08-02T12:38:20Z</time>
      </trkpt>
      <trkpt lat="40.313083" lon="-4.748117">
        <ele>2175.0</ele>
        <time>2015-08-02T12:38:21Z</time>
      </trkpt>
      <trkpt lat="40.313133" lon="-4.747967">
        <ele>2170.0</ele>
        <time>2015-08-02T12:38:22Z</time>
      </trkpt>
      <trkpt lat="40.313200" lon="-4.747817">
        <ele>2164.0</ele>
        <time>2015-08-02T12:38:23Z</time>
      </trkpt>
      <trkpt lat="40.313300" lon="-4.747650">
        <ele>2160.0</ele>
        <time>2015-08-02T12:38:24Z</time>
      </trkpt>
      <trkpt lat="40.313383" lon="-4.747467">
        <ele>2157.0</ele>
        <time>2015-08-02T12:38:25Z</time>
      </trkpt>
      <trkpt lat="40.313450" lon="-4.747283">
        <ele>2154.0</ele>
        <time>2015-08-02T12:38:26Z</time>
      </trkpt>
      <trkpt lat="40.313517" lon="-4.747117">
        <ele>2153.0</ele>
        <time>2015-08-02T12:38:27Z</time>
      </trkpt>
      <trkpt lat="40.313583" lon="-4.746950">
        <ele>2153.0</ele>
        <time>2015-08-02T12:38:28Z</time>
      </trkpt>
      <trkpt lat="40.313650" lon="-4.746783">
        <ele>2152.0</ele>
        <time>2015-08-02T12:38:29Z</time>
      </trkpt>
      <trkpt lat="40.313717" lon="-4.746650">
        <ele>2151.0</ele>
        <time>2015-08-02T12:38:30Z</time>
      </trkpt>
      <trkpt lat="40.313783" lon="-4.746500">
        <ele>2148.0</ele>
        <time>2015-08-02T12:38:31Z</time>
      </trkpt>
      <trkpt lat="40.313850" lon="-4.746350">
        <ele>2146.0</ele>
        <time>2015-08-02T12:38:32Z</time>
      </trkpt>
      <trkpt lat="40.313900" lon="-4.746200">
        <ele>2143.0</ele>
        <time>2015-08-02T12:38:33Z</time>
      </trkpt>
      <trkpt lat="40.313967" lon="-4.746033">
        <ele>2140.0</ele>
        <time>2015-08-02T12:38:34Z</time>
      </trkpt>
      <trkpt lat="40.314033" lon="-4.745867">
        <ele>2137.0</ele>
        <time>2015-08-02T12:38:35Z</time>
      </trkpt>
      <trkpt lat="40.314083" lon="-4.745700">
        <ele>2135.0</ele>
        <time>2015-08-02T12:38:36Z</time>
      </trkpt>
      <trkpt lat="40.314133" lon="-4.745517">
        <ele>2133.0</ele>
        <time>2015-08-02T12:38:37Z</time>
      </trkpt>
      <trkpt lat="40.314150" lon="-4.745333">
        <ele>2132.0</ele>
        <time>2015-08-02T12:38:38Z</time>
      </trkpt>
      <trkpt lat="40.314183" lon="-4.745183">
        <ele>2132.0</ele>
        <time>2015-08-02T12:38:39Z</time>
      </trkpt>
      <trkpt lat="40.314217" lon="-4.745033">
        <ele>2131.0</ele>
        <time>2015-08-02T12:38:40Z</time>
      </trkpt>
      <trkpt lat="40.314267" lon="-4.744900">
        <ele>2128.0</ele>
        <time>2015-08-02T12:38:41Z</time>
      </trkpt>
      <trkpt lat="40.314300" lon="-4.744750">
        <ele>2125.0</ele>
        <time>2015-08-02T12:38:42Z</time>
      </trkpt>
      <trkpt lat="40.314350" lon="-4.744583">
        <ele>2120.0</ele>
        <time>2015-08-02T12:38:43Z</time>
      </trkpt>
      <trkpt lat="40.314400" lon="-4.744417">
        <ele>2116.0</ele>
        <time>2015-08-02T12:38:44Z</time>
      </trkpt>
      <trkpt lat="40.314450" lon="-4.744233">
        <ele>2112.0</ele>
        <time>2015-08-02T12:38:45Z</time>
      </trkpt>
      <trkpt lat="40.314500" lon="-4.744050">
        <ele>2108.0</ele>
        <time>2015-08-02T12:38:46Z</time>
      </trkpt>
      <trkpt lat="40.314550" lon="-4.743867">
        <ele>2106.0</ele>
        <time>2015-08-02T12:38:47Z</time>
      </trkpt>
      <trkpt lat="40.314600" lon="-4.743700">
        <ele>2104.0</ele>
        <time>2015-08-02T12:38:48Z</time>
      </trkpt>
      <trkpt lat="40.314667" lon="-4.743533">
        <ele>2103.0</ele>
        <time>2015-08-02T12:38:49Z</time>
      </trkpt>
      <trkpt lat="40.314717" lon="-4.743383">
        <ele>2101.0</ele>
        <time>2015-08-02T12:38:50Z</time>
      </trkpt>
      <trkpt lat="40.314767" lon="-4.743233">
        <ele>2098.0</ele>
        <time>2015-08-02T12:38:51Z</time>
      </trkpt>
      <trkpt lat="40.314817" lon="-4.743083">
        <ele>2095.0</ele>
        <time>2015-08-02T12:38:52Z</time>
      </trkpt>
      <trkpt lat="40.314867" lon="-4.742917">
        <ele>2092.0</ele>
        <time>2015-08-02T12:38:53Z</time>
      </trkpt>
      <trkpt lat="40.314917" lon="-4.742750">
        <ele>2090.0</ele>
        <time>2015-08-02T12:38:54Z</time>
      </trkpt>
      <trkpt lat="40.314983" lon="-4.742583">
        <ele>2088.0</ele>
        <time>2015-08-02T12:38:55Z</time>
      </trkpt>
      <trkpt lat="40.315050" lon="-4.742417">
        <ele>2086.0</ele>
        <time>2015-08-02T12:38:56Z</time>
      </trkpt>
      <trkpt lat="40.315117" lon="-4.742267">
        <ele>2085.0</ele>
        <time>2015-08-02T12:38:57Z</time>
      </trkpt>
      <trkpt lat="40.315200" lon="-4.742117">
        <ele>2084.0</ele>
        <time>2015-08-02T12:38:58Z</time>
      </trkpt>
      <trkpt lat="40.315267" lon="-4.741983">
        <ele>2083.0</ele>
        <time>2015-08-02T12:38:59Z</time>
      </trkpt>
      <trkpt lat="40.315333" lon="-4.741850">
        <ele>2081.0</ele>
        <time>2015-08-02T12:39:00Z</time>
      </trkpt>
      <trkpt lat="40.315400" lon="-4.741717">
        <ele>2078.0</ele>
        <time>2015-08-02T12:39:01Z</time>
      </trkpt>
      <trkpt lat="40.315483" lon="-4.741567">
        <ele>2074.0</ele>
        <time>2015-08-02T12:39:02Z</time>
      </trkpt>
      <trkpt lat="40.315583" lon="-4.741417">
        <ele>2072.0</ele>
        <time>2015-08-02T12:39:03Z</time>
      </trkpt>
      <trkpt lat="40.315667" lon="-4.741267">
        <ele>2070.0</ele>
        <time>2015-08-02T12:39:04Z</time>
      </trkpt>
      <trkpt lat="40.315767" lon="-4.741150">
        <ele>2069.0</ele>
        <time>2015-08-02T12:39:05Z</time>
      </trkpt>
      <trkpt lat="40.315850" lon="-4.741017">
        <ele>2068.0</ele>
        <time>2015-08-02T12:39:06Z</time>
      </trkpt>
      <trkpt lat="40.315950" lon="-4.740900">
        <ele>2066.0</ele>
        <time>2015-08-02T12:39:07Z</time>
      </trkpt>
      <trkpt lat="40.316033" lon="-4.740767">
        <ele>2063.0</ele>
        <time>2015-08-02T12:39:08Z</time>
      </trkpt>
      <trkpt lat="40.316117" lon="-4.740633">
        <ele>2059.0</ele>
        <time>2015-08-02T12:39:09Z</time>
      </trkpt>
      <trkpt lat="40.316217" lon="-4.740483">
        <ele>2055.0</ele>
        <time>2015-08-02T12:39:10Z</time>
      </trkpt>
      <trkpt lat="40.316317" lon="-4.740333">
        <ele>2052.0</ele>
        <time>2015-08-02T12:39:11Z</time>
      </trkpt>
      <trkpt lat="40.316433" lon="-4.740200">
        <ele>2051.0</ele>
        <time>2015-08-02T12:39:12Z</time>
      </trkpt>
      <trkpt lat="40.316550" lon="-4.740083">
        <ele>2051.0</ele>
        <time>2015-08-02T12:39:13Z</time>
      </trkpt>
      <trkpt lat="40.316650" lon="-4.739983">
        <ele>2051.0</ele>
        <time>2015-08-02T12:39:14Z</time>
      </trkpt>
      <trkpt lat="40.316733" lon="-4.739867">
        <ele>2050.0</ele>
        <time>2015-08-02T12:39:15Z</time>
      </trkpt>
      <trkpt lat="40.316833" lon="-4.739733">
        <ele>2047.0</ele>
        <time>2015-08-02T12:39:16Z</time>
      </trkpt>
      <trkpt lat="40.316917" lon="-4.739600">
        <ele>2045.0</ele>
        <time>2015-08-02T12:39:17Z</time>
      </trkpt>
      <trkpt lat="40.317000" lon="-4.739467">
        <ele>2042.0</ele>
        <time>2015-08-02T12:39:18Z</time>
      </trkpt>
      <trkpt lat="40.317117" lon="-4.739333">
        <ele>2040.0</ele>
        <time>2015-08-02T12:39:19Z</time>
      </trkpt>
      <trkpt lat="40.317217" lon="-4.739217">
        <ele>2038.0</ele>
        <time>2015-08-02T12:39:20Z</time>
      </trkpt>
      <trkpt lat="40.317333" lon="-4.739100">
        <ele>2036.0</ele>
        <time>2015-08-02T12:39:21Z</time>
      </trkpt>
      <trkpt lat="40.317433" lon="-4.739000">
        <ele>2035.0</ele>
        <time>2015-08-02T12:39:22Z</time>
      </trkpt>
      <trkpt lat="40.317533" lon="-4.738900">
        <ele>2033.0</ele>
        <time>2015-08-02T12:39:23Z</time>
      </trkpt>
      <trkpt lat="40.317633" lon="-4.738800">
        <ele>2031.0</ele>
        <time>2015-08-02T12:39:24Z</time>
      </trkpt>
      <trkpt lat="40.317750" lon="-4.738717">
        <ele>2028.0</ele>
        <time>2015-08-02T12:39:25Z</time>
      </trkpt>
      <trkpt lat="40.317850" lon="-4.738617">
        <ele>2025.0</ele>
        <time>2015-08-02T12:39:26Z</time>
      </trkpt>
      <trkpt lat="40.317967" lon="-4.738500">
        <ele>2022.0</ele>
        <time>2015-08-02T12:39:27Z</time>
      </trkpt>
      <trkpt lat="40.318083" lon="-4.738383">
        <ele>2018.0</ele>
        <time>2015-08-02T12:39:28Z</time>
      </trkpt>
      <trkpt lat="40.318200" lon="-4.738267">
        <ele>2015.0</ele>
        <time>2015-08-02T12:39:29Z</time>
      </trkpt>
      <trkpt lat="40.318317" lon="-4.738133">
        <ele>2013.0</ele>
        <time>2015-08-02T12:39:30Z</time>
      </trkpt>
      <trkpt lat="40.318417" lon="-4.738000">
        <ele>2011.0</ele>
        <time>2015-08-02T12:39:31Z</time>
      </trkpt>
      <trkpt lat="40.318517" lon="-4.737867">
        <ele>2009.0</ele>
        <time>2015-08-02T12:39:32Z</time>
      </trkpt>
      <trkpt lat="40.318617" lon="-4.737750">
        <ele>2007.0</ele>
        <time>2015-08-02T12:39:33Z</time>
      </trkpt>
      <trkpt lat="40.318717" lon="-4.737617">
        <ele>2004.0</ele>
        <time>2015-08-02T12:39:34Z</time>
      </trkpt>
      <trkpt lat="40.318817" lon="-4.737467">
        <ele>2001.0</ele>
        <time>2015-08-02T12:39:35Z</time>
      </trkpt>
      <trkpt lat="40.318900" lon="-4.737317">
        <ele>1999.0</ele>
        <time>2015-08-02T12:39:36Z</time>
      </trkpt>
      <trkpt lat="40.318983" lon="-4.737167">
        <ele>1997.0</ele>
        <time>2015-08-02T12:39:37Z</time>
      </trkpt>
      <trkpt lat="40.319067" lon="-4.737033">
        <ele>1996.0</ele>
        <time>2015-08-02T12:39:38Z</time>
      </trkpt>
      <trkpt lat="40.319150" lon="-4.736900">
        <ele>1994.0</ele>
        <time>2015-08-02T12:39:39Z</time>
      </trkpt>
      <trkpt lat="40.319250" lon="-4.736767">
        <ele>1992.0</ele>
        <time>2015-08-02T12:39:40Z</time>
      </trkpt>
      <trkpt lat="40.319350" lon="-4.736617">
        <ele>1990.0</ele>
        <time>2015-08-02T12:39:41Z</time>
      </trkpt>
      <trkpt lat="40.319433" lon="-4.736467">
        <ele>1989.0</ele>
        <time>2015-08-02T12:39:42Z</time>
      </trkpt>
      <trkpt lat="40.319533" lon="-4.736333">
        <ele>1988.0</ele>
        <time>2015-08-02T12:39:43Z</time>
      </trkpt>
      <trkpt lat="40.319633" lon="-4.736217">
        <ele>1987.0</ele>
        <time>2015-08-02T12:39:44Z</time>
      </trkpt>
      <trkpt lat="40.319733" lon="-4.736100">
        <ele>1986.0</ele>
        <time>2015-08-02T12:39:45Z</time>
      </trkpt>
      <trkpt lat="40.319833" lon="-4.736000">
        <ele>1984.0</ele>
        <time>2015-08-02T12:39:46Z</time>
      </trkpt>
      <trkpt lat="40.319933" lon="-4.735900">
        <ele>1982.0</ele>
        <time>2015-08-02T12:39:47Z</time>
      </trkpt>
      <trkpt lat="40.320050" lon="-4.735783">
        <ele>1979.0</ele>
        <time>2015-08-02T12:39:48Z</time>
      </trkpt>
      <trkpt lat="40.320167" lon="-4.735667">
        <ele>1978.0</ele>
        <time>2015-08-02T12:39:49Z</time>
      </trkpt>
      <trkpt lat="40.320267" lon="-4.735567">
        <ele>1977.0</ele>
        <time>2015-08-02T12:39:50Z</time>
      </trkpt>
      <trkpt lat="40.320383" lon="-4.735467">
        <ele>1976.0</ele>
        <time>2015-08-02T12:39:51Z</time>
      </trkpt>
      <trkpt lat="40.320467" lon="-4.735350">
        <ele>1974.0</ele>
        <time>2015-08-02T12:39:52Z</time>
      </trkpt>
      <trkpt lat="40.320567" lon="-4.735217">
        <ele>1973.0</ele>
        <time>2015-08-02T12:39:53Z</time>
      </trkpt>
      <trkpt lat="40.320667" lon="-4.735100">
        <ele>1971.0</ele>
        <time>2015-08-02T12:39:54Z</time>
      </trkpt>
      <trkpt lat="40.320783" lon="-4.734983">
        <ele>1970.0</ele>
        <time>2015-08-02T12:39:55Z</time>
      </trkpt>
      <trkpt lat="40.320883" lon="-4.734867">
        <ele>1968.0</ele>
        <time>2015-08-02T12:39:56Z</time>
      </trkpt>
      <trkpt lat="40.320983" lon="-4.734767">
        <ele>1967.0</ele>
        <time>2015-08-02T12:39:57Z</time>
      </trkpt>
      <trkpt lat="40.321083" lon="-4.734633">
        <ele>1966.0</ele>
        <time>2015-08-02T12:39:58Z</time>
      </trkpt>
      <trkpt lat="40.321183" lon="-4.734517">
        <ele>1964.0</ele>
        <time>2015-08-02T12:39:59Z</time>
      </trkpt>
      <trkpt lat="40.321283" lon="-4.734383">
        <ele>1962.0</ele>
        <time>2015-08-02T12:40:00Z</time>
      </trkpt>
      <trkpt lat="40.321383" lon="-4.734250">
        <ele>1960.0</ele>
        <time>2015-08-02T12:40:01Z</time>
      </trkpt>
      <trkpt lat="40.321483" lon="-4.734133">
        <ele>1958.0</ele>
        <time>2015-08-02T12:40:02Z</time>
      </trkpt>
      <trkpt lat="40.321583" lon="-4.734000">
        <ele>1957.0</ele>
        <time>2015-08-02T12:40:03Z</time>
      </trkpt>
      <trkpt lat="40.321700" lon="-4.733867">
        <ele>1956.0</ele>
        <time>2015-08-02T12:40:04Z</time>
      </trkpt>
      <trkpt lat="40.321800" lon="-4.733750">
        <ele>1955.0</ele>
        <time>2015-08-02T12:40:05Z</time>
      </trkpt>
      <trkpt lat="40.321900" lon="-4.733617">
        <ele>1955.0</ele>
        <time>2015-08-02T12:40:06Z</time>
      </trkpt>
      <trkpt lat="40.322000" lon="-4.733500">
        <ele>1954.0</ele>
        <time>2015-08-02T12:40:07Z</time>
      </trkpt>
      <trkpt lat="40.322083" lon="-4.733383">
        <ele>1953.0</ele>
        <time>2015-08-02T12:40:08Z</time>
      </trkpt>
      <trkpt lat="40.322167" lon="-4.733267">
        <ele>1952.0</ele>
        <time>2015-08-02T12:40:09Z</time>
      </trkpt>
      <trkpt lat="40.322233" lon="-4.733133">
        <ele>1949.0</ele>
        <time>2015-08-02T12:40:10Z</time>
      </trkpt>
      <trkpt lat="40.322333" lon="-4.733000">
        <ele>1945.0</ele>
        <time>2015-08-02T12:40:11Z</time>
      </trkpt>
      <trkpt lat="40.322417" lon="-4.732850">
        <ele>1942.0</ele>
        <time>2015-08-02T12:40:12Z</time>
      </trkpt>
      <trkpt lat="40.322533" lon="-4.732700">
        <ele>1941.0</ele>
        <time>2015-08-02T12:40:13Z</time>
      </trkpt>
      <trkpt lat="40.322617" lon="-4.732567">
        <ele>1940.0</ele>
        <time>2015-08-02T12:40:14Z</time>
      </trkpt>
      <trkpt lat="40.322717" lon="-4.732433">
        <ele>1940.0</ele>
        <time>2015-08-02T12:40:15Z</time>
      </trkpt>
      <trkpt lat="40.322800" lon="-4.732317">
        <ele>1938.0</ele>
        <time>2015-08-02T12:40:16Z</time>
      </trkpt>
      <trkpt lat="40.322900" lon="-4.732167">
        <ele>1935.0</ele>
        <time>2015-08-02T12:40:17Z</time>
      </trkpt>
      <trkpt lat="40.322983" lon="-4.732033">
        <ele>1932.0</ele>
        <time>2015-08-02T12:40:18Z</time>
      </trkpt>
      <trkpt lat="40.323083" lon="-4.731883">
        <ele>1930.0</ele>
        <time>2015-08-02T12:40:19Z</time>
      </trkpt>
      <trkpt lat="40.323183" lon="-4.731733">
        <ele>1929.0</ele>
        <time>2015-08-02T12:40:20Z</time>
      </trkpt>
      <trkpt lat="40.323267" lon="-4.731600">
        <ele>1928.0</ele>
        <time>2015-08-02T12:40:21Z</time>
      </trkpt>
      <trkpt lat="40.323367" lon="-4.731467">
        <ele>1927.0</ele>
        <time>2015-08-02T12:40:22Z</time>
      </trkpt>
      <trkpt lat="40.323450" lon="-4.731350">
        <ele>1925.0</ele>
        <time>2015-08-02T12:40:23Z</time>
      </trkpt>
      <trkpt lat="40.323550" lon="-4.731217">
        <ele>1922.0</ele>
        <time>2015-08-02T12:40:24Z</time>
      </trkpt>
      <trkpt lat="40.323633" lon="-4.731083">
        <ele>1919.0</ele>
        <time>2015-08-02T12:40:25Z</time>
      </trkpt>
      <trkpt lat="40.323717" lon="-4.730950">
        <ele>1916.0</ele>
        <time>2015-08-02T12:40:26Z</time>
      </trkpt>
      <trkpt lat="40.323783" lon="-4.730800">
        <ele>1915.0</ele>
        <time>2015-08-02T12:40:27Z</time>
      </trkpt>
      <trkpt lat="40.323833" lon="-4.730633">
        <ele>1913.0</ele>
        <time>2015-08-02T12:40:28Z</time>
      </trkpt>
      <trkpt lat="40.323867" lon="-4.730483">
        <ele>1912.0</ele>
        <time>2015-08-02T12:40:29Z</time>
      </trkpt>
      <trkpt lat="40.323900" lon="-4.730333">
        <ele>1911.0</ele>
        <time>2015-08-02T12:40:30Z</time>
      </trkpt>
      <trkpt lat="40.323900" lon="-4.730183">
        <ele>1910.0</ele>
        <time>2015-08-02T12:40:31Z</time>
      </trkpt>
      <trkpt lat="40.323900" lon="-4.730033">
        <ele>1909.0</ele>
        <time>2015-08-02T12:40:32Z</time>
      </trkpt>
      <trkpt lat="40.323883" lon="-4.729900">
        <ele>1906.0</ele>
        <time>2015-08-02T12:40:33Z</time>
      </trkpt>
      <trkpt lat="40.323867" lon="-4.729750">
        <ele>1905.0</ele>
        <time>2015-08-02T12:40:34Z</time>
      </trkpt>
      <trkpt lat="40.323833" lon="-4.729600">
        <ele>1903.0</ele>
        <time>2015-08-02T12:40:35Z</time>
      </trkpt>
      <trkpt lat="40.323833" lon="-4.729467">
        <ele>1902.0</ele>
        <time>2015-08-02T12:40:36Z</time>
      </trkpt>
      <trkpt lat="40.323833" lon="-4.729317">
        <ele>1901.0</ele>
        <time>2015-08-02T12:40:37Z</time>
      </trkpt>
      <trkpt lat="40.323833" lon="-4.729167">
        <ele>1899.0</ele>
        <time>2015-08-02T12:40:38Z</time>
      </trkpt>
      <trkpt lat="40.323850" lon="-4.729017">
        <ele>1898.0</ele>
        <time>2015-08-02T12:40:39Z</time>
      </trkpt>
      <trkpt lat="40.323867" lon="-4.728850">
        <ele>1896.0</ele>
        <time>2015-08-02T12:40:40Z</time>
      </trkpt>
      <trkpt lat="40.323883" lon="-4.728700">
        <ele>1895.0</ele>
        <time>2015-08-02T12:40:41Z</time>
      </trkpt>
      <trkpt lat="40.323917" lon="-4.728550">
        <ele>1894.0</ele>
        <time>2015-08-02T12:40:42Z</time>
      </trkpt>
      <trkpt lat="40.323933" lon="-4.728400">
        <ele>1893.0</ele>
        <time>2015-08-02T12:40:43Z</time>
      </trkpt>
      <trkpt lat="40.323950" lon="-4.728233">
        <ele>1891.0</ele>
        <time>2015-08-02T12:40:44Z</time>
      </trkpt>
      <trkpt lat="40.323967" lon="-4.728083">
        <ele>1890.0</ele>
        <time>2015-08-02T12:40:45Z</time>
      </trkpt>
      <trkpt lat="40.323983" lon="-4.727933">
        <ele>1888.0</ele>
        <time>2015-08-02T12:40:46Z</time>
      </trkpt>
      <trkpt lat="40.323983" lon="-4.727767">
        <ele>1886.0</ele>
        <time>2015-08-02T12:40:47Z</time>
      </trkpt>
      <trkpt lat="40.324000" lon="-4.727600">
        <ele>1884.0</ele>
        <time>2015-08-02T12:40:48Z</time>
      </trkpt>
      <trkpt lat="40.324000" lon="-4.727450">
        <ele>1883.0</ele>
        <time>2015-08-02T12:40:49Z</time>
      </trkpt>
      <trkpt lat="40.324017" lon="-4.727283">
        <ele>1882.0</ele>
        <time>2015-08-02T12:40:50Z</time>
      </trkpt>
      <trkpt lat="40.324017" lon="-4.727133">
        <ele>1882.0</ele>
        <time>2015-08-02T12:40:51Z</time>
      </trkpt>
      <trkpt lat="40.324017" lon="-4.726983">
        <ele>1880.0</ele>
        <time>2015-08-02T12:40:52Z</time>
      </trkpt>
      <trkpt lat="40.324017" lon="-4.726817">
        <ele>1879.0</ele>
        <time>2015-08-02T12:40:53Z</time>
      </trkpt>
      <trkpt lat="40.324033" lon="-4.726667">
        <ele>1877.0</ele>
        <time>2015-08-02T12:40:54Z</time>
      </trkpt>
      <trkpt lat="40.324033" lon="-4.726500">
        <ele>1875.0</ele>
        <time>2015-08-02T12:40:55Z</time>
      </trkpt>
      <trkpt lat="40.324033" lon="-4.726350">
        <ele>1874.0</ele>
        <time>2015-08-02T12:40:56Z</time>
      </trkpt>
      <trkpt lat="40.324033" lon="-4.726200">
        <ele>1872.0</ele>
        <time>2015-08-02T12:40:57Z</time>
      </trkpt>
      <trkpt lat="40.324033" lon="-4.726050">
        <ele>1871.0</ele>
        <time>2015-08-02T12:40:58Z</time>
      </trkpt>
      <trkpt lat="40.324033" lon="-4.725900">
        <ele>1868.0</ele>
        <time>2015-08-02T12:40:59Z</time>
      </trkpt>
      <trkpt lat="40.324033" lon="-4.725750">
        <ele>1866.0</ele>
        <time>2015-08-02T12:41:00Z</time>
      </trkpt>
      <trkpt lat="40.324050" lon="-4.725583">
        <ele>1864.0</ele>
        <time>2015-08-02T12:41:01Z</time>
      </trkpt>
      <trkpt lat="40.324050" lon="-4.725417">
        <ele>1862.0</ele>
        <time>2015-08-02T12:41:02Z</time>
      </trkpt>
      <trkpt lat="40.324050" lon="-4.725250">
        <ele>1860.0</ele>
        <time>2015-08-02T12:41:03Z</time>
      </trkpt>
      <trkpt lat="40.324050" lon="-4.725100">
        <ele>1859.0</ele>
        <time>2015-08-02T12:41:04Z</time>
      </trkpt>
      <trkpt lat="40.324050" lon="-4.724967">
        <ele>1857.0</ele>
        <time>2015-08-02T12:41:05Z</time>
      </trkpt>
      <trkpt lat="40.324050" lon="-4.724817">
        <ele>1855.0</ele>
        <time>2015-08-02T12:41:06Z</time>
      </trkpt>
      <trkpt lat="40.324050" lon="-4.724667">
        <ele>1853.0</ele>
        <time>2015-08-02T12:41:07Z</time>
      </trkpt>
      <trkpt lat="40.324067" lon="-4.724517">
        <ele>1851.0</ele>
        <time>2015-08-02T12:41:08Z</time>
      </trkpt>
      <trkpt lat="40.324050" lon="-4.724350">
        <ele>1848.0</ele>
        <time>2015-08-02T12:41:09Z</time>
      </trkpt>
      <trkpt lat="40.324050" lon="-4.724200">
        <ele>1847.0</ele>
        <time>2015-08-02T12:41:10Z</time>
      </trkpt>
      <trkpt lat="40.324033" lon="-4.724050">
        <ele>1845.0</ele>
        <time>2015-08-02T12:41:11Z</time>
      </trkpt>
      <trkpt lat="40.324033" lon="-4.723900">
        <ele>1844.0</ele>
        <time>2015-08-02T12:41:12Z</time>
      </trkpt>
      <trkpt lat="40.324033" lon="-4.723767">
        <ele>1843.0</ele>
        <time>2015-08-02T12:41:13Z</time>
      </trkpt>
      <trkpt lat="40.324017" lon="-4.723617">
        <ele>1841.0</ele>
        <time>2015-08-02T12:41:14Z</time>
      </trkpt>
      <trkpt lat="40.324017" lon="-4.723483">
        <ele>1838.0</ele>
        <time>2015-08-02T12:41:15Z</time>
      </trkpt>
      <trkpt lat="40.324000" lon="-4.723350">
        <ele>1834.0</ele>
        <time>2015-08-02T12:41:16Z</time>
      </trkpt>
      <trkpt lat="40.323983" lon="-4.723200">
        <ele>1831.0</ele>
        <time>2015-08-02T12:41:17Z</time>
      </trkpt>
      <trkpt lat="40.323950" lon="-4.723050">
        <ele>1828.0</ele>
        <time>2015-08-02T12:41:18Z</time>
      </trkpt>
      <trkpt lat="40.323917" lon="-4.722900">
        <ele>1826.0</ele>
        <time>2015-08-02T12:41:19Z</time>
      </trkpt>
      <trkpt lat="40.323883" lon="-4.722767">
        <ele>1824.0</ele>
        <time>2015-08-02T12:41:20Z</time>
      </trkpt>
      <trkpt lat="40.323867" lon="-4.722633">
        <ele>1822.0</ele>
        <time>2015-08-02T12:41:21Z</time>
      </trkpt>
      <trkpt lat="40.323850" lon="-4.722483">
        <ele>1820.0</ele>
        <time>2015-08-02T12:41:22Z</time>
      </trkpt>
      <trkpt lat="40.323833" lon="-4.722333">
        <ele>1817.0</ele>
        <time>2015-08-02T12:41:23Z</time>
      </trkpt>
      <trkpt lat="40.323833" lon="-4.722183">
        <ele>1813.0</ele>
        <time>2015-08-02T12:41:24Z</time>
      </trkpt>
      <trkpt lat="40.323833" lon="-4.722000">
        <ele>1809.0</ele>
        <time>2015-08-02T12:41:25Z</time>
      </trkpt>
      <trkpt lat="40.323833" lon="-4.721833">
        <ele>1806.0</ele>
        <time>2015-08-02T12:41:26Z</time>
      </trkpt>
      <trkpt lat="40.323833" lon="-4.721667">
        <ele>1804.0</ele>
        <time>2015-08-02T12:41:27Z</time>
      </trkpt>
      <trkpt lat="40.323833" lon="-4.721500">
        <ele>1801.0</ele>
        <time>2015-08-02T12:41:28Z</time>
      </trkpt>
      <trkpt lat="40.323833" lon="-4.721317">
        <ele>1798.0</ele>
        <time>2015-08-02T12:41:29Z</time>
      </trkpt>
      <trkpt lat="40.323833" lon="-4.721150">
        <ele>1796.0</ele>
        <time>2015-08-02T12:41:30Z</time>
      </trkpt>
      <trkpt lat="40.323833" lon="-4.720983">
        <ele>1794.0</ele>
        <time>2015-08-02T12:41:31Z</time>
      </trkpt>
      <trkpt lat="40.323850" lon="-4.720817">
        <ele>1792.0</ele>
        <time>2015-08-02T12:41:32Z</time>
      </trkpt>
      <trkpt lat="40.323867" lon="-4.720650">
        <ele>1791.0</ele>
        <time>2015-08-02T12:41:33Z</time>
      </trkpt>
      <trkpt lat="40.323883" lon="-4.720500">
        <ele>1788.0</ele>
        <time>2015-08-02T12:41:34Z</time>
      </trkpt>
      <trkpt lat="40.323900" lon="-4.720350">
        <ele>1785.0</ele>
        <time>2015-08-02T12:41:35Z</time>
      </trkpt>
      <trkpt lat="40.323933" lon="-4.720183">
        <ele>1782.0</ele>
        <time>2015-08-02T12:41:36Z</time>
      </trkpt>
      <trkpt lat="40.323950" lon="-4.720017">
        <ele>1780.0</ele>
        <time>2015-08-02T12:41:37Z</time>
      </trkpt>
      <trkpt lat="40.323983" lon="-4.719850">
        <ele>1778.0</ele>
        <time>2015-08-02T12:41:38Z</time>
      </trkpt>
      <trkpt lat="40.324017" lon="-4.719700">
        <ele>1777.0</ele>
        <time>2015-08-02T12:41:39Z</time>
      </trkpt>
      <trkpt lat="40.324050" lon="-4.719550">
        <ele>1775.0</ele>
        <time>2015-08-02T12:41:40Z</time>
      </trkpt>
      <trkpt lat="40.324083" lon="-4.719400">
        <ele>1773.0</ele>
        <time>2015-08-02T12:41:41Z</time>
      </trkpt>
      <trkpt lat="40.324100" lon="-4.719233">
        <ele>1771.0</ele>
        <time>2015-08-02T12:41:42Z</time>
      </trkpt>
      <trkpt lat="40.324133" lon="-4.719083">
        <ele>1769.0</ele>
        <time>2015-08-02T12:41:43Z</time>
      </trkpt>
      <trkpt lat="40.324150" lon="-4.718917">
        <ele>1768.0</ele>
        <time>2015-08-02T12:41:44Z</time>
      </trkpt>
      <trkpt lat="40.324183" lon="-4.718767">
        <ele>1766.0</ele>
        <time>2015-08-02T12:41:45Z</time>
      </trkpt>
      <trkpt lat="40.324217" lon="-4.718600">
        <ele>1765.0</ele>
        <time>2015-08-02T12:41:46Z</time>
      </trkpt>
      <trkpt lat="40.324250" lon="-4.718450">
        <ele>1763.0</ele>
        <time>2015-08-02T12:41:47Z</time>
      </trkpt>
      <trkpt lat="40.324267" lon="-4.718300">
        <ele>1762.0</ele>
        <time>2015-08-02T12:41:48Z</time>
      </trkpt>
      <trkpt lat="40.324300" lon="-4.718133">
        <ele>1760.0</ele>
        <time>2015-08-02T12:41:49Z</time>
      </trkpt>
      <trkpt lat="40.324317" lon="-4.717983">
        <ele>1759.0</ele>
        <time>2015-08-02T12:41:50Z</time>
      </trkpt>
      <trkpt lat="40.324350" lon="-4.717833">
        <ele>1758.0</ele>
        <time>2015-08-02T12:41:51Z</time>
      </trkpt>
      <trkpt lat="40.324383" lon="-4.717667">
        <ele>1756.0</ele>
        <time>2015-08-02T12:41:52Z</time>
      </trkpt>
      <trkpt lat="40.324417" lon="-4.717517">
        <ele>1754.0</ele>
        <time>2015-08-02T12:41:53Z</time>
      </trkpt>
      <trkpt lat="40.324450" lon="-4.717367">
        <ele>1753.0</ele>
        <time>2015-08-02T12:41:54Z</time>
      </trkpt>
      <trkpt lat="40.324467" lon="-4.717200">
        <ele>1751.0</ele>
        <time>2015-08-02T12:41:55Z</time>
      </trkpt>
      <trkpt lat="40.324500" lon="-4.717033">
        <ele>1749.0</ele>
        <time>2015-08-02T12:41:56Z</time>
      </trkpt>
      <trkpt lat="40.324517" lon="-4.716883">
        <ele>1747.0</ele>
        <time>2015-08-02T12:41:57Z</time>
      </trkpt>
      <trkpt lat="40.324550" lon="-4.716733">
        <ele>1745.0</ele>
        <time>2015-08-02T12:41:58Z</time>
      </trkpt>
      <trkpt lat="40.324583" lon="-4.716583">
        <ele>1743.0</ele>
        <time>2015-08-02T12:41:59Z</time>
      </trkpt>
      <trkpt lat="40.324617" lon="-4.716417">
        <ele>1741.0</ele>
        <time>2015-08-02T12:42:00Z</time>
      </trkpt>
      <trkpt lat="40.324650" lon="-4.716250">
        <ele>1739.0</ele>
        <time>2015-08-02T12:42:01Z</time>
      </trkpt>
      <trkpt lat="40.324667" lon="-4.716100">
        <ele>1737.0</ele>
        <time>2015-08-02T12:42:02Z</time>
      </trkpt>
      <trkpt lat="40.324700" lon="-4.715917">
        <ele>1734.0</ele>
        <time>2015-08-02T12:42:03Z</time>
      </trkpt>
      <trkpt lat="40.324733" lon="-4.715750">
        <ele>1732.0</ele>
        <time>2015-08-02T12:42:04Z</time>
      </trkpt>
      <trkpt lat="40.324767" lon="-4.715583">
        <ele>1730.0</ele>
        <time>2015-08-02T12:42:05Z</time>
      </trkpt>
      <trkpt lat="40.324800" lon="-4.715417">
        <ele>1728.0</ele>
        <time>2015-08-02T12:42:06Z</time>
      </trkpt>
      <trkpt lat="40.324833" lon="-4.715250">
        <ele>1727.0</ele>
        <time>2015-08-02T12:42:07Z</time>
      </trkpt>
      <trkpt lat="40.324867" lon="-4.715100">
        <ele>1725.0</ele>
        <time>2015-08-02T12:42:08Z</time>
      </trkpt>
      <trkpt lat="40.324867" lon="-4.714933">
        <ele>1723.0</ele>
        <time>2015-08-02T12:42:09Z</time>
      </trkpt>
      <trkpt lat="40.324883" lon="-4.714783">
        <ele>1721.0</ele>
        <time>2015-08-02T12:42:10Z</time>
      </trkpt>
      <trkpt lat="40.324900" lon="-4.714617">
        <ele>1719.0</ele>
        <time>2015-08-02T12:42:11Z</time>
      </trkpt>
      <trkpt lat="40.324917" lon="-4.714450">
        <ele>1717.0</ele>
        <time>2015-08-02T12:42:12Z</time>
      </trkpt>
      <trkpt lat="40.324933" lon="-4.714283">
        <ele>1715.0</ele>
        <time>2015-08-02T12:42:13Z</time>
      </trkpt>
      <trkpt lat="40.324967" lon="-4.714117">
        <ele>1714.0</ele>
        <time>2015-08-02T12:42:14Z</time>
      </trkpt>
      <trkpt lat="40.325000" lon="-4.713950">
        <ele>1713.0</ele>
        <time>2015-08-02T12:42:15Z</time>
      </trkpt>
      <trkpt lat="40.325050" lon="-4.713800">
        <ele>1712.0</ele>
        <time>2015-08-02T12:42:16Z</time>
      </trkpt>
      <trkpt lat="40.325117" lon="-4.713667">
        <ele>1711.0</ele>
        <time>2015-08-02T12:42:17Z</time>
      </trkpt>
      <trkpt lat="40.325183" lon="-4.713533">
        <ele>1710.0</ele>
        <time>2015-08-02T12:42:18Z</time>
      </trkpt>
      <trkpt lat="40.325233" lon="-4.713400">
        <ele>1707.0</ele>
        <time>2015-08-02T12:42:19Z</time>
      </trkpt>
      <trkpt lat="40.325300" lon="-4.713250">
        <ele>1705.0</ele>
        <time>2015-08-02T12:42:20Z</time>
      </trkpt>
      <trkpt lat="40.325350" lon="-4.713083">
        <ele>1703.0</ele>
        <time>2015-08-02T12:42:21Z</time>
      </trkpt>
      <trkpt lat="40.325400" lon="-4.712933">
        <ele>1701.0</ele>
        <time>2015-08-02T12:42:22Z</time>
      </trkpt>
      <trkpt lat="40.325450" lon="-4.712783">
        <ele>1701.0</ele>
        <time>2015-08-02T12:42:23Z</time>
      </trkpt>
      <trkpt lat="40.325517" lon="-4.712667">
        <ele>1701.0</ele>
        <time>2015-08-02T12:42:24Z</time>
      </trkpt>
      <trkpt lat="40.325567" lon="-4.712533">
        <ele>1699.0</ele>
        <time>2015-08-02T12:42:25Z</time>
      </trkpt>
      <trkpt lat="40.325633" lon="-4.712400">
        <ele>1696.0</ele>
        <time>2015-08-02T12:42:26Z</time>
      </trkpt>
      <trkpt lat="40.325683" lon="-4.712250">
        <ele>1692.0</ele>
        <time>2015-08-02T12:42:27Z</time>
      </trkpt>
      <trkpt lat="40.325733" lon="-4.712083">
        <ele>1689.0</ele>
        <time>2015-08-02T12:42:28Z</time>
      </trkpt>
      <trkpt lat="40.325767" lon="-4.711917">
        <ele>1687.0</ele>
        <time>2015-08-02T12:42:29Z</time>
      </trkpt>
      <trkpt lat="40.325817" lon="-4.711750">
        <ele>1685.0</ele>
        <time>2015-08-02T12:42:30Z</time>
      </trkpt>
      <trkpt lat="40.325850" lon="-4.711600">
        <ele>1684.0</ele>
        <time>2015-08-02T12:42:31Z</time>
      </trkpt>
      <trkpt lat="40.325900" lon="-4.711483">
        <ele>1683.0</ele>
        <time>2015-08-02T12:42:32Z</time>
      </trkpt>
      <trkpt lat="40.325933" lon="-4.711350">
        <ele>1681.0</ele>
        <time>2015-08-02T12:42:33Z</time>
      </trkpt>
      <trkpt lat="40.325967" lon="-4.711217">
        <ele>1677.0</ele>
        <time>2015-08-02T12:42:34Z</time>
      </trkpt>
      <trkpt lat="40.326000" lon="-4.711050">
        <ele>1673.0</ele>
        <time>2015-08-02T12:42:35Z</time>
      </trkpt>
      <trkpt lat="40.326033" lon="-4.710883">
        <ele>1670.0</ele>
        <time>2015-08-02T12:42:36Z</time>
      </trkpt>
      <trkpt lat="40.326050" lon="-4.710717">
        <ele>1668.0</ele>
        <time>2015-08-02T12:42:37Z</time>
      </trkpt>
      <trkpt lat="40.326067" lon="-4.710567">
        <ele>1666.0</ele>
        <time>2015-08-02T12:42:38Z</time>
      </trkpt>
      <trkpt lat="40.326083" lon="-4.710417">
        <ele>1665.0</ele>
        <time>2015-08-02T12:42:39Z</time>
      </trkpt>
      <trkpt lat="40.326100" lon="-4.710267">
        <ele>1664.0</ele>
        <time>2015-08-02T12:42:40Z</time>
      </trkpt>
      <trkpt lat="40.326117" lon="-4.710133">
        <ele>1661.0</ele>
        <time>2015-08-02T12:42:41Z</time>
      </trkpt>
      <trkpt lat="40.326150" lon="-4.709983">
        <ele>1659.0</ele>
        <time>2015-08-02T12:42:42Z</time>
      </trkpt>
      <trkpt lat="40.326183" lon="-4.709833">
        <ele>1656.0</ele>
        <time>2015-08-02T12:42:43Z</time>
      </trkpt>
      <trkpt lat="40.326217" lon="-4.709683">
        <ele>1653.0</ele>
        <time>2015-08-02T12:42:44Z</time>
      </trkpt>
      <trkpt lat="40.326283" lon="-4.709533">
        <ele>1649.0</ele>
        <time>2015-08-02T12:42:45Z</time>
      </trkpt>
      <trkpt lat="40.326333" lon="-4.709383">
        <ele>1646.0</ele>
        <time>2015-08-02T12:42:46Z</time>
      </trkpt>
      <trkpt lat="40.326383" lon="-4.709233">
        <ele>1643.0</ele>
        <time>2015-08-02T12:42:47Z</time>
      </trkpt>
      <trkpt lat="40.326433" lon="-4.709067">
        <ele>1640.0</ele>
        <time>2015-08-02T12:42:48Z</time>
      </trkpt>
      <trkpt lat="40.326467" lon="-4.708917">
        <ele>1636.0</ele>
        <time>2015-08-02T12:42:49Z</time>
      </trkpt>
      <trkpt lat="40.326500" lon="-4.708750">
        <ele>1633.0</ele>
        <time>2015-08-02T12:42:50Z</time>
      </trkpt>
      <trkpt lat="40.326550" lon="-4.708583">
        <ele>1630.0</ele>
        <time>2015-08-02T12:42:51Z</time>
      </trkpt>
      <trkpt lat="40.326617" lon="-4.708433">
        <ele>1628.0</ele>
        <time>2015-08-02T12:42:52Z</time>
      </trkpt>
      <trkpt lat="40.326667" lon="-4.708300">
        <ele>1625.0</ele>
        <time>2015-08-02T12:42:53Z</time>
      </trkpt>
      <trkpt lat="40.326717" lon="-4.708150">
        <ele>1622.0</ele>
        <time>2015-08-02T12:42:54Z</time>
      </trkpt>
      <trkpt lat="40.326767" lon="-4.708017">
        <ele>1618.0</ele>
        <time>2015-08-02T12:42:55Z</time>
      </trkpt>
      <trkpt lat="40.326800" lon="-4.707850">
        <ele>1613.0</ele>
        <time>2015-08-02T12:42:56Z</time>
      </trkpt>
      <trkpt lat="40.326850" lon="-4.707667">
        <ele>1610.0</ele>
        <time>2015-08-02T12:42:57Z</time>
      </trkpt>
      <trkpt lat="40.326900" lon="-4.707483">
        <ele>1607.0</ele>
        <time>2015-08-02T12:42:58Z</time>
      </trkpt>
      <trkpt lat="40.326933" lon="-4.707317">
        <ele>1606.0</ele>
        <time>2015-08-02T12:42:59Z</time>
      </trkpt>
      <trkpt lat="40.326983" lon="-4.707167">
        <ele>1604.0</ele>
        <time>2015-08-02T12:43:00Z</time>
      </trkpt>
      <trkpt lat="40.327017" lon="-4.707000">
        <ele>1602.0</ele>
        <time>2015-08-02T12:43:01Z</time>
      </trkpt>
      <trkpt lat="40.327050" lon="-4.706833">
        <ele>1599.0</ele>
        <time>2015-08-02T12:43:02Z</time>
      </trkpt>
      <trkpt lat="40.327083" lon="-4.706667">
        <ele>1596.0</ele>
        <time>2015-08-02T12:43:03Z</time>
      </trkpt>
      <trkpt lat="40.327117" lon="-4.706483">
        <ele>1593.0</ele>
        <time>2015-08-02T12:43:04Z</time>
      </trkpt>
      <trkpt lat="40.327167" lon="-4.706283">
        <ele>1591.0</ele>
        <time>2015-08-02T12:43:05Z</time>
      </trkpt>
      <trkpt lat="40.327217" lon="-4.706083">
        <ele>1591.0</ele>
        <time>2015-08-02T12:43:06Z</time>
      </trkpt>
      <trkpt lat="40.327267" lon="-4.705900">
        <ele>1594.0</ele>
        <time>2015-08-02T12:43:07Z</time>
      </trkpt>
      <trkpt lat="40.327333" lon="-4.705733">
        <ele>1596.0</ele>
        <time>2015-08-02T12:43:08Z</time>
      </trkpt>
      <trkpt lat="40.327383" lon="-4.705567">
        <ele>1598.0</ele>
        <time>2015-08-02T12:43:09Z</time>
      </trkpt>
      <trkpt lat="40.327433" lon="-4.705383">
        <ele>1601.0</ele>
        <time>2015-08-02T12:43:10Z</time>
      </trkpt>
      <trkpt lat="40.327483" lon="-4.705200">
        <ele>1605.0</ele>
        <time>2015-08-02T12:43:11Z</time>
      </trkpt>
      <trkpt lat="40.327550" lon="-4.705050">
        <ele>1609.0</ele>
        <time>2015-08-02T12:43:12Z</time>
      </trkpt>
      <trkpt lat="40.327633" lon="-4.704917">
        <ele>1613.0</ele>
        <time>2015-08-02T12:43:13Z</time>
      </trkpt>
      <trkpt lat="40.327733" lon="-4.704767">
        <ele>1617.0</ele>
        <time>2015-08-02T12:43:14Z</time>
      </trkpt>
      <trkpt lat="40.327767" lon="-4.704667">
        <ele>1621.0</ele>
        <time>2015-08-02T12:43:15Z</time>
      </trkpt>
      <trkpt lat="40.327800" lon="-4.704517">
        <ele>1622.0</ele>
        <time>2015-08-02T12:43:16Z</time>
      </trkpt>
      <trkpt lat="40.327817" lon="-4.704383">
        <ele>1624.0</ele>
        <time>2015-08-02T12:43:17Z</time>
      </trkpt>
      <trkpt lat="40.327817" lon="-4.704233">
        <ele>1626.0</ele>
        <time>2015-08-02T12:43:18Z</time>
      </trkpt>
      <trkpt lat="40.327800" lon="-4.704100">
        <ele>1628.0</ele>
        <time>2015-08-02T12:43:19Z</time>
      </trkpt>
      <trkpt lat="40.327767" lon="-4.703983">
        <ele>1629.0</ele>
        <time>2015-08-02T12:43:20Z</time>
      </trkpt>
      <trkpt lat="40.327717" lon="-4.703867">
        <ele>1629.0</ele>
        <time>2015-08-02T12:43:21Z</time>
      </trkpt>
      <trkpt lat="40.327633" lon="-4.703783">
        <ele>1630.0</ele>
        <time>2015-08-02T12:43:22Z</time>
      </trkpt>
      <trkpt lat="40.327567" lon="-4.703733">
        <ele>1631.0</ele>
        <time>2015-08-02T12:43:23Z</time>
      </trkpt>
      <trkpt lat="40.327500" lon="-4.703717">
        <ele>1632.0</ele>
        <time>2015-08-02T12:43:24Z</time>
      </trkpt>
      <trkpt lat="40.327450" lon="-4.703733">
        <ele>1633.0</ele>
        <time>2015-08-02T12:43:25Z</time>
      </trkpt>
      <trkpt lat="40.327417" lon="-4.703783">
        <ele>1634.0</ele>
        <time>2015-08-02T12:43:26Z</time>
      </trkpt>
      <trkpt lat="40.327417" lon="-4.703850">
        <ele>1636.0</ele>
        <time>2015-08-02T12:43:27Z</time>
      </trkpt>
      <trkpt lat="40.327467" lon="-4.703900">
        <ele>1638.0</ele>
        <time>2015-08-02T12:43:28Z</time>
      </trkpt>
      <trkpt lat="40.327533" lon="-4.703933">
        <ele>1641.0</ele>
        <time>2015-08-02T12:43:29Z</time>
      </trkpt>
      <trkpt lat="40.327633" lon="-4.703933">
        <ele>1644.0</ele>
        <time>2015-08-02T12:43:30Z</time>
      </trkpt>
      <trkpt lat="40.327733" lon="-4.703917">
        <ele>1647.0</ele>
        <time>2015-08-02T12:43:31Z</time>
      </trkpt>
      <trkpt lat="40.327817" lon="-4.703917">
        <ele>1650.0</ele>
        <time>2015-08-02T12:43:32Z</time>
      </trkpt>
      <trkpt lat="40.327867" lon="-4.703933">
        <ele>1653.0</ele>
        <time>2015-08-02T12:43:33Z</time>
      </trkpt>
      <trkpt lat="40.327933" lon="-4.703950">
        <ele>1655.0</ele>
        <time>2015-08-02T12:43:34Z</time>
      </trkpt>
      <trkpt lat="40.328000" lon="-4.703967">
        <ele>1658.0</ele>
        <time>2015-08-02T12:43:35Z</time>
      </trkpt>
      <trkpt lat="40.328083" lon="-4.703917">
        <ele>1659.0</ele>
        <time>2015-08-02T12:43:36Z</time>
      </trkpt>
      <trkpt lat="40.328167" lon="-4.703850">
        <ele>1660.0</ele>
        <time>2015-08-02T12:43:37Z</time>
      </trkpt>
      <trkpt lat="40.328233" lon="-4.703750">
        <ele>1661.0</ele>
        <time>2015-08-02T12:43:38Z</time>
      </trkpt>
      <trkpt lat="40.328300" lon="-4.703617">
        <ele>1662.0</ele>
        <time>2015-08-02T12:43:39Z</time>
      </trkpt>
      <trkpt lat="40.328333" lon="-4.703467">
        <ele>1663.0</ele>
        <time>2015-08-02T12:43:40Z</time>
      </trkpt>
      <trkpt lat="40.328317" lon="-4.703317">
        <ele>1664.0</ele>
        <time>2015-08-02T12:43:41Z</time>
      </trkpt>
      <trkpt lat="40.328250" lon="-4.703150">
        <ele>1665.0</ele>
        <time>2015-08-02T12:43:42Z</time>
      </trkpt>
      <trkpt lat="40.328200" lon="-4.703083">
        <ele>1667.0</ele>
        <time>2015-08-02T12:43:43Z</time>
      </trkpt>
      <trkpt lat="40.328117" lon="-4.703050">
        <ele>1668.0</ele>
        <time>2015-08-02T12:43:44Z</time>
      </trkpt>
      <trkpt lat="40.328033" lon="-4.703050">
        <ele>1670.0</ele>
        <time>2015-08-02T12:43:45Z</time>
      </trkpt>
      <trkpt lat="40.327950" lon="-4.703050">
        <ele>1672.0</ele>
        <time>2015-08-02T12:43:46Z</time>
      </trkpt>
      <trkpt lat="40.327883" lon="-4.703050">
        <ele>1675.0</ele>
        <time>2015-08-02T12:43:47Z</time>
      </trkpt>
      <trkpt lat="40.327817" lon="-4.703050">
        <ele>1678.0</ele>
        <time>2015-08-02T12:43:48Z</time>
      </trkpt>
      <trkpt lat="40.327767" lon="-4.703050">
        <ele>1679.0</ele>
        <time>2015-08-02T12:43:49Z</time>
      </trkpt>
      <trkpt lat="40.327733" lon="-4.703067">
        <ele>1679.0</ele>
        <time>2015-08-02T12:43:50Z</time>
      </trkpt>
      <trkpt lat="40.327717" lon="-4.703083">
        <ele>1679.0</ele>
        <time>2015-08-02T12:43:51Z</time>
      </trkpt>
      <trkpt lat="40.327700" lon="-4.703133">
        <ele>1679.0</ele>
        <time>2015-08-02T12:43:52Z</time>
      </trkpt>
      <trkpt lat="40.327717" lon="-4.703200">
        <ele>1678.0</ele>
        <time>2015-08-02T12:43:53Z</time>
      </trkpt>
      <trkpt lat="40.327767" lon="-4.703250">
        <ele>1679.0</ele>
        <time>2015-08-02T12:43:54Z</time>
      </trkpt>
      <trkpt lat="40.327833" lon="-4.703300">
        <ele>1678.0</ele>
        <time>2015-08-02T12:43:55Z</time>
      </trkpt>
      <trkpt lat="40.327933" lon="-4.703317">
        <ele>1677.0</ele>
        <time>2015-08-02T12:43:56Z</time>
      </trkpt>
      <trkpt lat="40.328050" lon="-4.703250">
        <ele>1676.0</ele>
        <time>2015-08-02T12:43:57Z</time>
      </trkpt>
      <trkpt lat="40.328150" lon="-4.703167">
        <ele>1677.0</ele>
        <time>2015-08-02T12:43:58Z</time>
      </trkpt>
      <trkpt lat="40.328267" lon="-4.703067">
        <ele>1679.0</ele>
        <time>2015-08-02T12:43:59Z</time>
      </trkpt>
      <trkpt lat="40.328350" lon="-4.702967">
        <ele>1683.0</ele>
        <time>2015-08-02T12:44:00Z</time>
      </trkpt>
      <trkpt lat="40.328433" lon="-4.702867">
        <ele>1686.0</ele>
        <time>2015-08-02T12:44:01Z</time>
      </trkpt>
      <trkpt lat="40.328500" lon="-4.702767">
        <ele>1687.0</ele>
        <time>2015-08-02T12:44:02Z</time>
      </trkpt>
      <trkpt lat="40.328583" lon="-4.702667">
        <ele>1688.0</ele>
        <time>2015-08-02T12:44:03Z</time>
      </trkpt>
      <trkpt lat="40.328650" lon="-4.702550">
        <ele>1689.0</ele>
        <time>2015-08-02T12:44:04Z</time>
      </trkpt>
      <trkpt lat="40.328717" lon="-4.702450">
        <ele>1690.0</ele>
        <time>2015-08-02T12:44:05Z</time>
      </trkpt>
      <trkpt lat="40.328767" lon="-4.702350">
        <ele>1692.0</ele>
        <time>2015-08-02T12:44:06Z</time>
      </trkpt>
      <trkpt lat="40.328800" lon="-4.702217">
        <ele>1692.0</ele>
        <time>2015-08-02T12:44:07Z</time>
      </trkpt>
      <trkpt lat="40.328817" lon="-4.702067">
        <ele>1691.0</ele>
        <time>2015-08-02T12:44:08Z</time>
      </trkpt>
      <trkpt lat="40.328817" lon="-4.701917">
        <ele>1691.0</ele>
        <time>2015-08-02T12:44:09Z</time>
      </trkpt>
      <trkpt lat="40.328800" lon="-4.701750">
        <ele>1690.0</ele>
        <time>2015-08-02T12:44:10Z</time>
      </trkpt>
      <trkpt lat="40.328767" lon="-4.701600">
        <ele>1690.0</ele>
        <time>2015-08-02T12:44:11Z</time>
      </trkpt>
      <trkpt lat="40.328717" lon="-4.701467">
        <ele>1691.0</ele>
        <time>2015-08-02T12:44:12Z</time>
      </trkpt>
      <trkpt lat="40.328650" lon="-4.701350">
        <ele>1691.0</ele>
        <time>2015-08-02T12:44:13Z</time>
      </trkpt>
      <trkpt lat="40.328583" lon="-4.701283">
        <ele>1690.0</ele>
        <time>2015-08-02T12:44:14Z</time>
      </trkpt>
      <trkpt lat="40.328500" lon="-4.701250">
        <ele>1690.0</ele>
        <time>2015-08-02T12:44:15Z</time>
      </trkpt>
      <trkpt lat="40.328417" lon="-4.701233">
        <ele>1690.0</ele>
        <time>2015-08-02T12:44:16Z</time>
      </trkpt>
      <trkpt lat="40.328367" lon="-4.701250">
        <ele>1690.0</ele>
        <time>2015-08-02T12:44:17Z</time>
      </trkpt>
      <trkpt lat="40.328317" lon="-4.701283">
        <ele>1690.0</ele>
        <time>2015-08-02T12:44:18Z</time>
      </trkpt>
      <trkpt lat="40.328317" lon="-4.701300">
        <ele>1690.0</ele>
        <time>2015-08-02T12:44:19Z</time>
      </trkpt>
      <trkpt lat="40.328333" lon="-4.701350">
        <ele>1689.0</ele>
        <time>2015-08-02T12:44:20Z</time>
      </trkpt>
      <trkpt lat="40.328383" lon="-4.701400">
        <ele>1689.0</ele>
        <time>2015-08-02T12:44:21Z</time>
      </trkpt>
      <trkpt lat="40.328433" lon="-4.701450">
        <ele>1685.0</ele>
        <time>2015-08-02T12:44:22Z</time>
      </trkpt>
      <trkpt lat="40.328517" lon="-4.701500">
        <ele>1685.0</ele>
        <time>2015-08-02T12:44:23Z</time>
      </trkpt>
      <trkpt lat="40.328617" lon="-4.701533">
        <ele>1684.0</ele>
        <time>2015-08-02T12:44:24Z</time>
      </trkpt>
      <trkpt lat="40.328700" lon="-4.701533">
        <ele>1683.0</ele>
        <time>2015-08-02T12:44:25Z</time>
      </trkpt>
      <trkpt lat="40.328783" lon="-4.701550">
        <ele>1683.0</ele>
        <time>2015-08-02T12:44:26Z</time>
      </trkpt>
      <trkpt lat="40.328867" lon="-4.701550">
        <ele>1682.0</ele>
        <time>2015-08-02T12:44:27Z</time>
      </trkpt>
      <trkpt lat="40.328950" lon="-4.701550">
        <ele>1682.0</ele>
        <time>2015-08-02T12:44:28Z</time>
      </trkpt>
      <trkpt lat="40.329033" lon="-4.701567">
        <ele>1681.0</ele>
        <time>2015-08-02T12:44:29Z</time>
      </trkpt>
      <trkpt lat="40.329117" lon="-4.701583">
        <ele>1681.0</ele>
        <time>2015-08-02T12:44:30Z</time>
      </trkpt>
      <trkpt lat="40.329200" lon="-4.701600">
        <ele>1681.0</ele>
        <time>2015-08-02T12:44:31Z</time>
      </trkpt>
      <trkpt lat="40.329283" lon="-4.701600">
        <ele>1681.0</ele>
        <time>2015-08-02T12:44:32Z</time>
      </trkpt>
      <trkpt lat="40.329383" lon="-4.701600">
        <ele>1683.0</ele>
        <time>2015-08-02T12:44:33Z</time>
      </trkpt>
      <trkpt lat="40.329467" lon="-4.701600">
        <ele>1686.0</ele>
        <time>2015-08-02T12:44:34Z</time>
      </trkpt>
      <trkpt lat="40.329550" lon="-4.701600">
        <ele>1689.0</ele>
        <time>2015-08-02T12:44:35Z</time>
      </trkpt>
      <trkpt lat="40.329633" lon="-4.701617">
        <ele>1691.0</ele>
        <time>2015-08-02T12:44:36Z</time>
      </trkpt>
      <trkpt lat="40.329683" lon="-4.701633">
        <ele>1693.0</ele>
        <time>2015-08-02T12:44:37Z</time>
      </trkpt>
      <trkpt lat="40.329767" lon="-4.701667">
        <ele>1696.0</ele>
        <time>2015-08-02T12:44:38Z</time>
      </trkpt>
      <trkpt lat="40.329833" lon="-4.701700">
        <ele>1699.0</ele>
        <time>2015-08-02T12:44:39Z</time>
      </trkpt>
      <trkpt lat="40.329917" lon="-4.701717">
        <ele>1702.0</ele>
        <time>2015-08-02T12:44:40Z</time>
      </trkpt>
      <trkpt lat="40.330000" lon="-4.701733">
        <ele>1705.0</ele>
        <time>2015-08-02T12:44:41Z</time>
      </trkpt>
      <trkpt lat="40.330067" lon="-4.701750">
        <ele>1709.0</ele>
        <time>2015-08-02T12:44:42Z</time>
      </trkpt>
      <trkpt lat="40.330117" lon="-4.701800">
        <ele>1712.0</ele>
        <time>2015-08-02T12:44:43Z</time>
      </trkpt>
      <trkpt lat="40.330183" lon="-4.701867">
        <ele>1715.0</ele>
        <time>2015-08-02T12:44:44Z</time>
      </trkpt>
      <trkpt lat="40.330233" lon="-4.701917">
        <ele>1718.0</ele>
        <time>2015-08-02T12:44:45Z</time>
      </trkpt>
      <trkpt lat="40.330317" lon="-4.701950">
        <ele>1721.0</ele>
        <time>2015-08-02T12:44:46Z</time>
      </trkpt>
      <trkpt lat="40.330417" lon="-4.701933">
        <ele>1724.0</ele>
        <time>2015-08-02T12:44:47Z</time>
      </trkpt>
      <trkpt lat="40.330550" lon="-4.701883">
        <ele>1726.0</ele>
        <time>2015-08-02T12:44:48Z</time>
      </trkpt>
      <trkpt lat="40.330650" lon="-4.701767">
        <ele>1730.0</ele>
        <time>2015-08-02T12:44:49Z</time>
      </trkpt>
      <trkpt lat="40.330750" lon="-4.701600">
        <ele>1733.0</ele>
        <time>2015-08-02T12:44:50Z</time>
      </trkpt>
      <trkpt lat="40.330783" lon="-4.701433">
        <ele>1738.0</ele>
        <time>2015-08-02T12:44:51Z</time>
      </trkpt>
      <trkpt lat="40.330783" lon="-4.701267">
        <ele>1743.0</ele>
        <time>2015-08-02T12:44:52Z</time>
      </trkpt>
      <trkpt lat="40.330733" lon="-4.701133">
        <ele>1748.0</ele>
        <time>2015-08-02T12:44:53Z</time>
      </trkpt>
      <trkpt lat="40.330650" lon="-4.701067">
        <ele>1752.0</ele>
        <time>2015-08-02T12:44:54Z</time>
      </trkpt>
      <trkpt lat="40.330550" lon="-4.701033">
        <ele>1755.0</ele>
        <time>2015-08-02T12:44:55Z</time>
      </trkpt>
      <trkpt lat="40.330467" lon="-4.701067">
        <ele>1758.0</ele>
        <time>2015-08-02T12:44:56Z</time>
      </trkpt>
      <trkpt lat="40.330417" lon="-4.701117">
        <ele>1763.0</ele>
        <time>2015-08-02T12:44:57Z</time>
      </trkpt>
      <trkpt lat="40.330417" lon="-4.701217">
        <ele>1766.0</ele>
        <time>2015-08-02T12:44:58Z</time>
      </trkpt>
      <trkpt lat="40.330483" lon="-4.701283">
        <ele>1768.0</ele>
        <time>2015-08-02T12:44:59Z</time>
      </trkpt>
      <trkpt lat="40.330600" lon="-4.701317">
        <ele>1770.0</ele>
        <time>2015-08-02T12:45:00Z</time>
      </trkpt>
      <trkpt lat="40.330733" lon="-4.701267">
        <ele>1772.0</ele>
        <time>2015-08-02T12:45:01Z</time>
      </trkpt>
      <trkpt lat="40.330867" lon="-4.701133">
        <ele>1776.0</ele>
        <time>2015-08-02T12:45:02Z</time>
      </trkpt>
      <trkpt lat="40.330967" lon="-4.700983">
        <ele>1782.0</ele>
        <time>2015-08-02T12:45:03Z</time>
      </trkpt>
      <trkpt lat="40.331017" lon="-4.700767">
        <ele>1788.0</ele>
        <time>2015-08-02T12:45:04Z</time>
      </trkpt>
      <trkpt lat="40.331000" lon="-4.700650">
        <ele>1794.0</ele>
        <time>2015-08-02T12:45:05Z</time>
      </trkpt>
      <trkpt lat="40.330967" lon="-4.700533">
        <ele>1798.0</ele>
        <time>2015-08-02T12:45:06Z</time>
      </trkpt>
      <trkpt lat="40.330900" lon="-4.700433">
        <ele>1801.0</ele>
        <time>2015-08-02T12:45:07Z</time>
      </trkpt>
      <trkpt lat="40.330800" lon="-4.700367">
        <ele>1805.0</ele>
        <time>2015-08-02T12:45:08Z</time>
      </trkpt>
      <trkpt lat="40.330717" lon="-4.700350">
        <ele>1809.0</ele>
        <time>2015-08-02T12:45:09Z</time>
      </trkpt>
      <trkpt lat="40.330650" lon="-4.700367">
        <ele>1814.0</ele>
        <time>2015-08-02T12:45:10Z</time>
      </trkpt>
      <trkpt lat="40.330617" lon="-4.700433">
        <ele>1817.0</ele>
        <time>2015-08-02T12:45:11Z</time>
      </trkpt>
      <trkpt lat="40.330633" lon="-4.700567">
        <ele>1821.0</ele>
        <time>2015-08-02T12:45:12Z</time>
      </trkpt>
      <trkpt lat="40.330650" lon="-4.700617">
        <ele>1824.0</ele>
        <time>2015-08-02T12:45:13Z</time>
      </trkpt>
      <trkpt lat="40.330717" lon="-4.700667">
        <ele>1828.0</ele>
        <time>2015-08-02T12:45:14Z</time>
      </trkpt>
      <trkpt lat="40.330817" lon="-4.700683">
        <ele>1831.0</ele>
        <time>2015-08-02T12:45:15Z</time>
      </trkpt>
      <trkpt lat="40.330950" lon="-4.700667">
        <ele>1833.0</ele>
        <time>2015-08-02T12:45:16Z</time>
      </trkpt>
      <trkpt lat="40.331067" lon="-4.700600">
        <ele>1836.0</ele>
        <time>2015-08-02T12:45:17Z</time>
      </trkpt>
      <trkpt lat="40.331183" lon="-4.700517">
        <ele>1840.0</ele>
        <time>2015-08-02T12:45:18Z</time>
      </trkpt>
      <trkpt lat="40.331267" lon="-4.700417">
        <ele>1844.0</ele>
        <time>2015-08-02T12:45:19Z</time>
      </trkpt>
      <trkpt lat="40.331350" lon="-4.700300">
        <ele>1849.0</ele>
        <time>2015-08-02T12:45:20Z</time>
      </trkpt>
      <trkpt lat="40.331417" lon="-4.700150">
        <ele>1853.0</ele>
        <time>2015-08-02T12:45:21Z</time>
      </trkpt>
      <trkpt lat="40.331450" lon="-4.700000">
        <ele>1858.0</ele>
        <time>2015-08-02T12:45:22Z</time>
      </trkpt>
      <trkpt lat="40.331450" lon="-4.699817">
        <ele>1863.0</ele>
        <time>2015-08-02T12:45:23Z</time>
      </trkpt>
      <trkpt lat="40.331433" lon="-4.699667">
        <ele>1870.0</ele>
        <time>2015-08-02T12:45:24Z</time>
      </trkpt>
      <trkpt lat="40.331417" lon="-4.699550">
        <ele>1875.0</ele>
        <time>2015-08-02T12:45:25Z</time>
      </trkpt>
      <trkpt lat="40.331383" lon="-4.699467">
        <ele>1879.0</ele>
        <time>2015-08-02T12:45:26Z</time>
      </trkpt>
      <trkpt lat="40.331317" lon="-4.699400">
        <ele>1881.0</ele>
        <time>2015-08-02T12:45:27Z</time>
      </trkpt>
      <trkpt lat="40.331233" lon="-4.699350">
        <ele>1885.0</ele>
        <time>2015-08-02T12:45:28Z</time>
      </trkpt>
      <trkpt lat="40.331150" lon="-4.699350">
        <ele>1889.0</ele>
        <time>2015-08-02T12:45:29Z</time>
      </trkpt>
      <trkpt lat="40.331083" lon="-4.699417">
        <ele>1892.0</ele>
        <time>2015-08-02T12:45:30Z</time>
      </trkpt>
      <trkpt lat="40.331067" lon="-4.699500">
        <ele>1895.0</ele>
        <time>2015-08-02T12:45:31Z</time>
      </trkpt>
      <trkpt lat="40.331083" lon="-4.699617">
        <ele>1897.0</ele>
        <time>2015-08-02T12:45:32Z</time>
      </trkpt>
      <trkpt lat="40.331167" lon="-4.699767">
        <ele>1900.0</ele>
        <time>2015-08-02T12:45:33Z</time>
      </trkpt>
      <trkpt lat="40.331250" lon="-4.699817">
        <ele>1904.0</ele>
        <time>2015-08-02T12:45:34Z</time>
      </trkpt>
      <trkpt lat="40.331383" lon="-4.699817">
        <ele>1907.0</ele>
        <time>2015-08-02T12:45:35Z</time>
      </trkpt>
      <trkpt lat="40.331517" lon="-4.699750">
        <ele>1909.0</ele>
        <time>2015-08-02T12:45:36Z</time>
      </trkpt>
      <trkpt lat="40.331633" lon="-4.699617">
        <ele>1914.0</ele>
        <time>2015-08-02T12:45:37Z</time>
      </trkpt>
      <trkpt lat="40.331717" lon="-4.699467">
        <ele>1920.0</ele>
        <time>2015-08-02T12:45:38Z</time>
      </trkpt>
      <trkpt lat="40.331800" lon="-4.699350">
        <ele>1928.0</ele>
        <time>2015-08-02T12:45:39Z</time>
      </trkpt>
      <trkpt lat="40.331867" lon="-4.699267">
        <ele>1936.0</ele>
        <time>2015-08-02T12:45:40Z</time>
      </trkpt>
      <trkpt lat="40.331950" lon="-4.699200">
        <ele>1941.0</ele>
        <time>2015-08-02T12:45:41Z</time>
      </trkpt>
      <trkpt lat="40.332000" lon="-4.699117">
        <ele>1945.0</ele>
        <time>2015-08-02T12:45:42Z</time>
      </trkpt>
      <trkpt lat="40.332033" lon="-4.699000">
        <ele>1949.0</ele>
        <time>2015-08-02T12:45:43Z</time>
      </trkpt>
      <trkpt lat="40.332017" lon="-4.698867">
        <ele>1951.0</ele>
        <time>2015-08-02T12:45:44Z</time>
      </trkpt>
      <trkpt lat="40.331933" lon="-4.698733">
        <ele>1954.0</ele>
        <time>2015-08-02T12:45:45Z</time>
      </trkpt>
      <trkpt lat="40.331867" lon="-4.698683">
        <ele>1958.0</ele>
        <time>2015-08-02T12:45:46Z</time>
      </trkpt>
      <trkpt lat="40.331767" lon="-4.698700">
        <ele>1962.0</ele>
        <time>2015-08-02T12:45:47Z</time>
      </trkpt>
      <trkpt lat="40.331700" lon="-4.698767">
        <ele>1965.0</ele>
        <time>2015-08-02T12:45:48Z</time>
      </trkpt>
      <trkpt lat="40.331650" lon="-4.698867">
        <ele>1969.0</ele>
        <time>2015-08-02T12:45:49Z</time>
      </trkpt>
      <trkpt lat="40.331667" lon="-4.698983">
        <ele>1974.0</ele>
        <time>2015-08-02T12:45:50Z</time>
      </trkpt>
      <trkpt lat="40.331700" lon="-4.699083">
        <ele>1980.0</ele>
        <time>2015-08-02T12:45:51Z</time>
      </trkpt>
      <trkpt lat="40.331750" lon="-4.699150">
        <ele>1985.0</ele>
        <time>2015-08-02T12:45:52Z</time>
      </trkpt>
      <trkpt lat="40.331833" lon="-4.699217">
        <ele>1989.0</ele>
        <time>2015-08-02T12:45:53Z</time>
      </trkpt>
      <trkpt lat="40.331933" lon="-4.699233">
        <ele>1992.0</ele>
        <time>2015-08-02T12:45:54Z</time>
      </trkpt>
      <trkpt lat="40.332050" lon="-4.699233">
        <ele>1995.0</ele>
        <time>2015-08-02T12:45:55Z</time>
      </trkpt>
      <trkpt lat="40.332167" lon="-4.699167">
        <ele>1998.0</ele>
        <time>2015-08-02T12:45:56Z</time>
      </trkpt>
      <trkpt lat="40.332267" lon="-4.699033">
        <ele>2001.0</ele>
        <time>2015-08-02T12:45:57Z</time>
      </trkpt>
      <trkpt lat="40.332317" lon="-4.698883">
        <ele>2006.0</ele>
        <time>2015-08-02T12:45:58Z</time>
      </trkpt>
      <trkpt lat="40.332333" lon="-4.698733">
        <ele>2014.0</ele>
        <time>2015-08-02T12:45:59Z</time>
      </trkpt>
      <trkpt lat="40.332317" lon="-4.698633">
        <ele>2021.0</ele>
        <time>2015-08-02T12:46:00Z</time>
      </trkpt>
      <trkpt lat="40.332317" lon="-4.698533">
        <ele>2028.0</ele>
        <time>2015-08-02T12:46:01Z</time>
      </trkpt>
      <trkpt lat="40.332317" lon="-4.698433">
        <ele>2032.0</ele>
        <time>2015-08-02T12:46:02Z</time>
      </trkpt>
      <trkpt lat="40.332283" lon="-4.698333">
        <ele>2035.0</ele>
        <time>2015-08-02T12:46:03Z</time>
      </trkpt>
      <trkpt lat="40.332217" lon="-4.698217">
        <ele>2036.0</ele>
        <time>2015-08-02T12:46:04Z</time>
      </trkpt>
      <trkpt lat="40.332150" lon="-4.698183">
        <ele>2037.0</ele>
        <time>2015-08-02T12:46:05Z</time>
      </trkpt>
      <trkpt lat="40.332033" lon="-4.698200">
        <ele>2039.0</ele>
        <time>2015-08-02T12:46:06Z</time>
      </trkpt>
      <trkpt lat="40.331967" lon="-4.698233">
        <ele>2041.0</ele>
        <time>2015-08-02T12:46:07Z</time>
      </trkpt>
      <trkpt lat="40.331900" lon="-4.698333">
        <ele>2044.0</ele>
        <time>2015-08-02T12:46:08Z</time>
      </trkpt>
      <trkpt lat="40.331883" lon="-4.698467">
        <ele>2047.0</ele>
        <time>2015-08-02T12:46:09Z</time>
      </trkpt>
      <trkpt lat="40.331883" lon="-4.698600">
        <ele>2050.0</ele>
        <time>2015-08-02T12:46:10Z</time>
      </trkpt>
      <trkpt lat="40.331917" lon="-4.698733">
        <ele>2056.0</ele>
        <time>2015-08-02T12:46:11Z</time>
      </trkpt>
      <trkpt lat="40.331933" lon="-4.698833">
        <ele>2062.0</ele>
        <time>2015-08-02T12:46:12Z</time>
      </trkpt>
      <trkpt lat="40.331967" lon="-4.698933">
        <ele>2067.0</ele>
        <time>2015-08-02T12:46:13Z</time>
      </trkpt>
      <trkpt lat="40.332000" lon="-4.699017">
        <ele>2071.0</ele>
        <time>2015-08-02T12:46:14Z</time>
      </trkpt>
      <trkpt lat="40.332083" lon="-4.699067">
        <ele>2074.0</ele>
        <time>2015-08-02T12:46:15Z</time>
      </trkpt>
      <trkpt lat="40.332183" lon="-4.699083">
        <ele>2076.0</ele>
        <time>2015-08-02T12:46:16Z</time>
      </trkpt>
      <trkpt lat="40.332317" lon="-4.699050">
        <ele>2079.0</ele>
        <time>2015-08-02T12:46:17Z</time>
      </trkpt>
      <trkpt lat="40.332433" lon="-4.698967">
        <ele>2084.0</ele>
        <time>2015-08-02T12:46:18Z</time>
      </trkpt>
      <trkpt lat="40.332533" lon="-4.698883">
        <ele>2090.0</ele>
        <time>2015-08-02T12:46:19Z</time>
      </trkpt>
      <trkpt lat="40.332600" lon="-4.698800">
        <ele>2096.0</ele>
        <time>2015-08-02T12:46:20Z</time>
      </trkpt>
      <trkpt lat="40.332667" lon="-4.698717">
        <ele>2101.0</ele>
        <time>2015-08-02T12:46:21Z</time>
      </trkpt>
      <trkpt lat="40.332700" lon="-4.698617">
        <ele>2105.0</ele>
        <time>2015-08-02T12:46:22Z</time>
      </trkpt>
      <trkpt lat="40.332717" lon="-4.698483">
        <ele>2109.0</ele>
        <time>2015-08-02T12:46:23Z</time>
      </trkpt>
      <trkpt lat="40.332700" lon="-4.698350">
        <ele>2114.0</ele>
        <time>2015-08-02T12:46:24Z</time>
      </trkpt>
      <trkpt lat="40.332667" lon="-4.698217">
        <ele>2119.0</ele>
        <time>2015-08-02T12:46:25Z</time>
      </trkpt>
      <trkpt lat="40.332600" lon="-4.698133">
        <ele>2124.0</ele>
        <time>2015-08-02T12:46:26Z</time>
      </trkpt>
      <trkpt lat="40.332517" lon="-4.698100">
        <ele>2127.0</ele>
        <time>2015-08-02T12:46:27Z</time>
      </trkpt>
      <trkpt lat="40.332433" lon="-4.698133">
        <ele>2128.0</ele>
        <time>2015-08-02T12:46:28Z</time>
      </trkpt>
      <trkpt lat="40.332350" lon="-4.698233">
        <ele>2128.0</ele>
        <time>2015-08-02T12:46:29Z</time>
      </trkpt>
      <trkpt lat="40.332300" lon="-4.698367">
        <ele>2130.0</ele>
        <time>2015-08-02T12:46:30Z</time>
      </trkpt>
      <trkpt lat="40.332283" lon="-4.698517">
        <ele>2134.0</ele>
        <time>2015-08-02T12:46:31Z</time>
      </trkpt>
      <trkpt lat="40.332317" lon="-4.698650">
        <ele>2139.0</ele>
        <time>2015-08-02T12:46:32Z</time>
      </trkpt>
      <trkpt lat="40.332350" lon="-4.698750">
        <ele>2145.0</ele>
        <time>2015-08-02T12:46:33Z</time>
      </trkpt>
      <trkpt lat="40.332417" lon="-4.698833">
        <ele>2151.0</ele>
        <time>2015-08-02T12:46:34Z</time>
      </trkpt>
      <trkpt lat="40.332417" lon="-4.698833">
        <ele>2151.0</ele>
        <time>2015-08-02T12:46:34Z</time>
      </trkpt>
      <trkpt lat="40.332483" lon="-4.698883">
        <ele>2155.0</ele>
        <time>2015-08-02T12:46:35Z</time>
      </trkpt>
      <trkpt lat="40.332583" lon="-4.698917">
        <ele>2157.0</ele>
        <time>2015-08-02T12:46:36Z</time>
      </trkpt>
      <trkpt lat="40.332700" lon="-4.698917">
        <ele>2158.0</ele>
        <time>2015-08-02T12:46:37Z</time>
      </trkpt>
      <trkpt lat="40.332833" lon="-4.698850">
        <ele>2159.0</ele>
        <time>2015-08-02T12:46:38Z</time>
      </trkpt>
      <trkpt lat="40.332950" lon="-4.698717">
        <ele>2162.0</ele>
        <time>2015-08-02T12:46:39Z</time>
      </trkpt>
      <trkpt lat="40.333033" lon="-4.698567">
        <ele>2167.0</ele>
        <time>2015-08-02T12:46:40Z</time>
      </trkpt>
      <trkpt lat="40.333083" lon="-4.698417">
        <ele>2173.0</ele>
        <time>2015-08-02T12:46:41Z</time>
      </trkpt>
      <trkpt lat="40.333133" lon="-4.698283">
        <ele>2179.0</ele>
        <time>2015-08-02T12:46:42Z</time>
      </trkpt>
      <trkpt lat="40.333150" lon="-4.698167">
        <ele>2186.0</ele>
        <time>2015-08-02T12:46:43Z</time>
      </trkpt>
      <trkpt lat="40.333117" lon="-4.698067">
        <ele>2191.0</ele>
        <time>2015-08-02T12:46:44Z</time>
      </trkpt>
      <trkpt lat="40.333067" lon="-4.697967">
        <ele>2194.0</ele>
        <time>2015-08-02T12:46:45Z</time>
      </trkpt>
      <trkpt lat="40.332983" lon="-4.697917">
        <ele>2196.0</ele>
        <time>2015-08-02T12:46:46Z</time>
      </trkpt>
      <trkpt lat="40.332883" lon="-4.697883">
        <ele>2199.0</ele>
        <time>2015-08-02T12:46:47Z</time>
      </trkpt>
      <trkpt lat="40.332783" lon="-4.697883">
        <ele>2203.0</ele>
        <time>2015-08-02T12:46:48Z</time>
      </trkpt>
      <trkpt lat="40.332683" lon="-4.697933">
        <ele>2206.0</ele>
        <time>2015-08-02T12:46:49Z</time>
      </trkpt>
      <trkpt lat="40.332600" lon="-4.698050">
        <ele>2208.0</ele>
        <time>2015-08-02T12:46:50Z</time>
      </trkpt>
      <trkpt lat="40.332583" lon="-4.698150">
        <ele>2209.0</ele>
        <time>2015-08-02T12:46:51Z</time>
      </trkpt>
      <trkpt lat="40.332600" lon="-4.698283">
        <ele>2211.0</ele>
        <time>2015-08-02T12:46:52Z</time>
      </trkpt>
      <trkpt lat="40.332633" lon="-4.698433">
        <ele>2213.0</ele>
        <time>2015-08-02T12:46:53Z</time>
      </trkpt>
      <trkpt lat="40.332717" lon="-4.698550">
        <ele>2217.0</ele>
        <time>2015-08-02T12:46:54Z</time>
      </trkpt>
      <trkpt lat="40.332800" lon="-4.698617">
        <ele>2220.0</ele>
        <time>2015-08-02T12:46:55Z</time>
      </trkpt>
      <trkpt lat="40.332917" lon="-4.698667">
        <ele>2224.0</ele>
        <time>2015-08-02T12:46:56Z</time>
      </trkpt>
      <trkpt lat="40.333050" lon="-4.698667">
        <ele>2227.0</ele>
        <time>2015-08-02T12:46:57Z</time>
      </trkpt>
      <trkpt lat="40.333150" lon="-4.698650">
        <ele>2230.0</ele>
        <time>2015-08-02T12:46:58Z</time>
      </trkpt>
      <trkpt lat="40.333267" lon="-4.698600">
        <ele>2233.0</ele>
        <time>2015-08-02T12:46:59Z</time>
      </trkpt>
      <trkpt lat="40.333367" lon="-4.698517">
        <ele>2236.0</ele>
        <time>2015-08-02T12:47:00Z</time>
      </trkpt>
      <trkpt lat="40.333467" lon="-4.698400">
        <ele>2239.0</ele>
        <time>2015-08-02T12:47:01Z</time>
      </trkpt>
      <trkpt lat="40.333517" lon="-4.698250">
        <ele>2243.0</ele>
        <time>2015-08-02T12:47:02Z</time>
      </trkpt>
      <trkpt lat="40.333550" lon="-4.698100">
        <ele>2247.0</ele>
        <time>2015-08-02T12:47:03Z</time>
      </trkpt>
      <trkpt lat="40.333533" lon="-4.697967">
        <ele>2252.0</ele>
        <time>2015-08-02T12:47:04Z</time>
      </trkpt>
      <trkpt lat="40.333500" lon="-4.697850">
        <ele>2256.0</ele>
        <time>2015-08-02T12:47:05Z</time>
      </trkpt>
      <trkpt lat="40.333450" lon="-4.697783">
        <ele>2259.0</ele>
        <time>2015-08-02T12:47:06Z</time>
      </trkpt>
      <trkpt lat="40.333383" lon="-4.697750">
        <ele>2261.0</ele>
        <time>2015-08-02T12:47:07Z</time>
      </trkpt>
      <trkpt lat="40.333300" lon="-4.697733">
        <ele>2262.0</ele>
        <time>2015-08-02T12:47:08Z</time>
      </trkpt>
      <trkpt lat="40.333200" lon="-4.697783">
        <ele>2263.0</ele>
        <time>2015-08-02T12:47:09Z</time>
      </trkpt>
      <trkpt lat="40.333117" lon="-4.697867">
        <ele>2265.0</ele>
        <time>2015-08-02T12:47:10Z</time>
      </trkpt>
      <trkpt lat="40.333100" lon="-4.698000">
        <ele>2268.0</ele>
        <time>2015-08-02T12:47:11Z</time>
      </trkpt>
      <trkpt lat="40.333117" lon="-4.698133">
        <ele>2271.0</ele>
        <time>2015-08-02T12:47:12Z</time>
      </trkpt>
      <trkpt lat="40.333167" lon="-4.698250">
        <ele>2275.0</ele>
        <time>2015-08-02T12:47:13Z</time>
      </trkpt>
      <trkpt lat="40.333233" lon="-4.698350">
        <ele>2279.0</ele>
        <time>2015-08-02T12:47:14Z</time>
      </trkpt>
      <trkpt lat="40.333317" lon="-4.698417">
        <ele>2284.0</ele>
        <time>2015-08-02T12:47:15Z</time>
      </trkpt>
      <trkpt lat="40.333400" lon="-4.698483">
        <ele>2287.0</ele>
        <time>2015-08-02T12:47:16Z</time>
      </trkpt>
      <trkpt lat="40.333500" lon="-4.698500">
        <ele>2289.0</ele>
        <time>2015-08-02T12:47:17Z</time>
      </trkpt>
      <trkpt lat="40.333600" lon="-4.698500">
        <ele>2291.0</ele>
        <time>2015-08-02T12:47:18Z</time>
      </trkpt>
      <trkpt lat="40.333717" lon="-4.698483">
        <ele>2294.0</ele>
        <time>2015-08-02T12:47:19Z</time>
      </trkpt>
      <trkpt lat="40.333817" lon="-4.698400">
        <ele>2297.0</ele>
        <time>2015-08-02T12:47:20Z</time>
      </trkpt>
      <trkpt lat="40.333900" lon="-4.698283">
        <ele>2300.0</ele>
        <time>2015-08-02T12:47:21Z</time>
      </trkpt>
      <trkpt lat="40.333950" lon="-4.698133">
        <ele>2304.0</ele>
        <time>2015-08-02T12:47:22Z</time>
      </trkpt>
      <trkpt lat="40.333933" lon="-4.698000">
        <ele>2308.0</ele>
        <time>2015-08-02T12:47:23Z</time>
      </trkpt>
      <trkpt lat="40.333883" lon="-4.697867">
        <ele>2312.0</ele>
        <time>2015-08-02T12:47:24Z</time>
      </trkpt>
      <trkpt lat="40.333833" lon="-4.697817">
        <ele>2314.0</ele>
        <time>2015-08-02T12:47:25Z</time>
      </trkpt>
      <trkpt lat="40.333750" lon="-4.697800">
        <ele>2315.0</ele>
        <time>2015-08-02T12:47:26Z</time>
      </trkpt>
      <trkpt lat="40.333667" lon="-4.697833">
        <ele>2315.0</ele>
        <time>2015-08-02T12:47:27Z</time>
      </trkpt>
      <trkpt lat="40.333583" lon="-4.697933">
        <ele>2316.0</ele>
        <time>2015-08-02T12:47:28Z</time>
      </trkpt>
      <trkpt lat="40.333550" lon="-4.698067">
        <ele>2318.0</ele>
        <time>2015-08-02T12:47:29Z</time>
      </trkpt>
      <trkpt lat="40.333533" lon="-4.698217">
        <ele>2320.0</ele>
        <time>2015-08-02T12:47:30Z</time>
      </trkpt>
      <trkpt lat="40.333567" lon="-4.698367">
        <ele>2323.0</ele>
        <time>2015-08-02T12:47:31Z</time>
      </trkpt>
      <trkpt lat="40.333633" lon="-4.698467">
        <ele>2326.0</ele>
        <time>2015-08-02T12:47:32Z</time>
      </trkpt>
      <trkpt lat="40.333717" lon="-4.698550">
        <ele>2328.0</ele>
        <time>2015-08-02T12:47:33Z</time>
      </trkpt>
      <trkpt lat="40.333833" lon="-4.698583">
        <ele>2330.0</ele>
        <time>2015-08-02T12:47:34Z</time>
      </trkpt>
      <trkpt lat="40.333967" lon="-4.698600">
        <ele>2332.0</ele>
        <time>2015-08-02T12:47:35Z</time>
      </trkpt>
      <trkpt lat="40.334083" lon="-4.698600">
        <ele>2335.0</ele>
        <time>2015-08-02T12:47:36Z</time>
      </trkpt>
      <trkpt lat="40.334183" lon="-4.698567">
        <ele>2339.0</ele>
        <time>2015-08-02T12:47:37Z</time>
      </trkpt>
      <trkpt lat="40.334283" lon="-4.698517">
        <ele>2341.0</ele>
        <time>2015-08-02T12:47:38Z</time>
      </trkpt>
      <trkpt lat="40.334367" lon="-4.698417">
        <ele>2341.0</ele>
        <time>2015-08-02T12:47:39Z</time>
      </trkpt>
      <trkpt lat="40.334400" lon="-4.698267">
        <ele>2340.0</ele>
        <time>2015-08-02T12:47:40Z</time>
      </trkpt>
      <trkpt lat="40.334417" lon="-4.698083">
        <ele>2340.0</ele>
        <time>2015-08-02T12:47:41Z</time>
      </trkpt>
      <trkpt lat="40.334383" lon="-4.697933">
        <ele>2342.0</ele>
        <time>2015-08-02T12:47:42Z</time>
      </trkpt>
      <trkpt lat="40.334333" lon="-4.697800">
        <ele>2345.0</ele>
        <time>2015-08-02T12:47:43Z</time>
      </trkpt>
      <trkpt lat="40.334283" lon="-4.697683">
        <ele>2349.0</ele>
        <time>2015-08-02T12:47:44Z</time>
      </trkpt>
      <trkpt lat="40.334217" lon="-4.697600">
        <ele>2354.0</ele>
        <time>2015-08-02T12:47:45Z</time>
      </trkpt>
      <trkpt lat="40.334150" lon="-4.697533">
        <ele>2358.0</ele>
        <time>2015-08-02T12:47:46Z</time>
      </trkpt>
      <trkpt lat="40.334083" lon="-4.697517">
        <ele>2361.0</ele>
        <time>2015-08-02T12:47:47Z</time>
      </trkpt>
      <trkpt lat="40.334033" lon="-4.697567">
        <ele>2361.0</ele>
        <time>2015-08-02T12:47:48Z</time>
      </trkpt>
      <trkpt lat="40.333983" lon="-4.697667">
        <ele>2359.0</ele>
        <time>2015-08-02T12:47:49Z</time>
      </trkpt>
      <trkpt lat="40.333933" lon="-4.697783">
        <ele>2358.0</ele>
        <time>2015-08-02T12:47:50Z</time>
      </trkpt>
      <trkpt lat="40.333900" lon="-4.697933">
        <ele>2359.0</ele>
        <time>2015-08-02T12:47:51Z</time>
      </trkpt>
      <trkpt lat="40.333917" lon="-4.698083">
        <ele>2362.0</ele>
        <time>2015-08-02T12:47:52Z</time>
      </trkpt>
      <trkpt lat="40.333967" lon="-4.698217">
        <ele>2365.0</ele>
        <time>2015-08-02T12:47:53Z</time>
      </trkpt>
      <trkpt lat="40.334050" lon="-4.698317">
        <ele>2367.0</ele>
        <time>2015-08-02T12:47:54Z</time>
      </trkpt>
      <trkpt lat="40.334150" lon="-4.698383">
        <ele>2369.0</ele>
        <time>2015-08-02T12:47:55Z</time>
      </trkpt>
      <trkpt lat="40.334267" lon="-4.698433">
        <ele>2372.0</ele>
        <time>2015-08-02T12:47:56Z</time>
      </trkpt>
      <trkpt lat="40.334383" lon="-4.698467">
        <ele>2374.0</ele>
        <time>2015-08-02T12:47:57Z</time>
      </trkpt>
      <trkpt lat="40.334483" lon="-4.698467">
        <ele>2375.0</ele>
        <time>2015-08-02T12:47:58Z</time>
      </trkpt>
      <trkpt lat="40.334600" lon="-4.698433">
        <ele>2376.0</ele>
        <time>2015-08-02T12:47:59Z</time>
      </trkpt>
      <trkpt lat="40.334700" lon="-4.698350">
        <ele>2377.0</ele>
        <time>2015-08-02T12:48:00Z</time>
      </trkpt>
      <trkpt lat="40.334783" lon="-4.698233">
        <ele>2376.0</ele>
        <time>2015-08-02T12:48:01Z</time>
      </trkpt>
      <trkpt lat="40.334833" lon="-4.698083">
        <ele>2375.0</ele>
        <time>2015-08-02T12:48:02Z</time>
      </trkpt>
      <trkpt lat="40.334833" lon="-4.697933">
        <ele>2376.0</ele>
        <time>2015-08-02T12:48:03Z</time>
      </trkpt>
      <trkpt lat="40.334800" lon="-4.697783">
        <ele>2379.0</ele>
        <time>2015-08-02T12:48:04Z</time>
      </trkpt>
      <trkpt lat="40.334767" lon="-4.697683">
        <ele>2382.0</ele>
        <time>2015-08-02T12:48:05Z</time>
      </trkpt>
      <trkpt lat="40.334733" lon="-4.697567">
        <ele>2385.0</ele>
        <time>2015-08-02T12:48:06Z</time>
      </trkpt>
      <trkpt lat="40.334683" lon="-4.697500">
        <ele>2386.0</ele>
        <time>2015-08-02T12:48:07Z</time>
      </trkpt>
      <trkpt lat="40.334617" lon="-4.697450">
        <ele>2387.0</ele>
        <time>2015-08-02T12:48:08Z</time>
      </trkpt>
      <trkpt lat="40.334533" lon="-4.697450">
        <ele>2388.0</ele>
        <time>2015-08-02T12:48:09Z</time>
      </trkpt>
      <trkpt lat="40.334450" lon="-4.697500">
        <ele>2389.0</ele>
        <time>2015-08-02T12:48:10Z</time>
      </trkpt>
      <trkpt lat="40.334383" lon="-4.697567">
        <ele>2391.0</ele>
        <time>2015-08-02T12:48:11Z</time>
      </trkpt>
      <trkpt lat="40.334317" lon="-4.697650">
        <ele>2394.0</ele>
        <time>2015-08-02T12:48:12Z</time>
      </trkpt>
      <trkpt lat="40.334300" lon="-4.697733">
        <ele>2398.0</ele>
        <time>2015-08-02T12:48:13Z</time>
      </trkpt>
      <trkpt lat="40.334283" lon="-4.697817">
        <ele>2399.0</ele>
        <time>2015-08-02T12:48:14Z</time>
      </trkpt>
      <trkpt lat="40.334283" lon="-4.697917">
        <ele>2400.0</ele>
        <time>2015-08-02T12:48:15Z</time>
      </trkpt>
      <trkpt lat="40.334317" lon="-4.698017">
        <ele>2401.0</ele>
        <time>2015-08-02T12:48:16Z</time>
      </trkpt>
      <trkpt lat="40.334350" lon="-4.698117">
        <ele>2402.0</ele>
        <time>2015-08-02T12:48:17Z</time>
      </trkpt>
      <trkpt lat="40.334417" lon="-4.698233">
        <ele>2403.0</ele>
        <time>2015-08-02T12:48:18Z</time>
      </trkpt>
      <trkpt lat="40.334483" lon="-4.698317">
        <ele>2405.0</ele>
        <time>2015-08-02T12:48:19Z</time>
      </trkpt>
      <trkpt lat="40.334567" lon="-4.698400">
        <ele>2407.0</ele>
        <time>2015-08-02T12:48:20Z</time>
      </trkpt>
      <trkpt lat="40.334667" lon="-4.698450">
        <ele>2409.0</ele>
        <time>2015-08-02T12:48:21Z</time>
      </trkpt>
      <trkpt lat="40.334750" lon="-4.698500">
        <ele>2411.0</ele>
        <time>2015-08-02T12:48:22Z</time>
      </trkpt>
      <trkpt lat="40.334850" lon="-4.698517">
        <ele>2412.0</ele>
        <time>2015-08-02T12:48:23Z</time>
      </trkpt>
      <trkpt lat="40.334950" lon="-4.698533">
        <ele>2412.0</ele>
        <time>2015-08-02T12:48:24Z</time>
      </trkpt>
      <trkpt lat="40.335050" lon="-4.698517">
        <ele>2412.0</ele>
        <time>2015-08-02T12:48:25Z</time>
      </trkpt>
      <trkpt lat="40.335167" lon="-4.698483">
        <ele>2412.0</ele>
        <time>2015-08-02T12:48:26Z</time>
      </trkpt>
      <trkpt lat="40.335283" lon="-4.698417">
        <ele>2412.0</ele>
        <time>2015-08-02T12:48:27Z</time>
      </trkpt>
      <trkpt lat="40.335367" lon="-4.698333">
        <ele>2413.0</ele>
        <time>2015-08-02T12:48:28Z</time>
      </trkpt>
      <trkpt lat="40.335433" lon="-4.698233">
        <ele>2413.0</ele>
        <time>2015-08-02T12:48:29Z</time>
      </trkpt>
      <trkpt lat="40.335483" lon="-4.698150">
        <ele>2413.0</ele>
        <time>2015-08-02T12:48:30Z</time>
      </trkpt>
      <trkpt lat="40.335533" lon="-4.698050">
        <ele>2413.0</ele>
        <time>2015-08-02T12:48:31Z</time>
      </trkpt>
      <trkpt lat="40.335583" lon="-4.697933">
        <ele>2413.0</ele>
        <time>2015-08-02T12:48:32Z</time>
      </trkpt>
      <trkpt lat="40.335583" lon="-4.697800">
        <ele>2413.0</ele>
        <time>2015-08-02T12:48:33Z</time>
      </trkpt>
      <trkpt lat="40.335567" lon="-4.697683">
        <ele>2413.0</ele>
        <time>2015-08-02T12:48:34Z</time>
      </trkpt>
      <trkpt lat="40.335517" lon="-4.697567">
        <ele>2413.0</ele>
        <time>2015-08-02T12:48:35Z</time>
      </trkpt>
      <trkpt lat="40.335450" lon="-4.697483">
        <ele>2413.0</ele>
        <time>2015-08-02T12:48:36Z</time>
      </trkpt>
      <trkpt lat="40.335383" lon="-4.697417">
        <ele>2414.0</ele>
        <time>2015-08-02T12:48:37Z</time>
      </trkpt>
      <trkpt lat="40.335317" lon="-4.697333">
        <ele>2415.0</ele>
        <time>2015-08-02T12:48:38Z</time>
      </trkpt>
      <trkpt lat="40.335267" lon="-4.697267">
        <ele>2416.0</ele>
        <time>2015-08-02T12:48:39Z</time>
      </trkpt>
      <trkpt lat="40.335200" lon="-4.697200">
        <ele>2416.0</ele>
        <time>2015-08-02T12:48:40Z</time>
      </trkpt>
      <trkpt lat="40.335133" lon="-4.697167">
        <ele>2416.0</ele>
        <time>2015-08-02T12:48:41Z</time>
      </trkpt>
      <trkpt lat="40.335067" lon="-4.697167">
        <ele>2414.0</ele>
        <time>2015-08-02T12:48:42Z</time>
      </trkpt>
      <trkpt lat="40.334967" lon="-4.697183">
        <ele>2413.0</ele>
        <time>2015-08-02T12:48:43Z</time>
      </trkpt>
      <trkpt lat="40.334883" lon="-4.697217">
        <ele>2413.0</ele>
        <time>2015-08-02T12:48:44Z</time>
      </trkpt>
      <trkpt lat="40.334783" lon="-4.697250">
        <ele>2414.0</ele>
        <time>2015-08-02T12:48:45Z</time>
      </trkpt>
      <trkpt lat="40.334717" lon="-4.697300">
        <ele>2416.0</ele>
        <time>2015-08-02T12:48:46Z</time>
      </trkpt>
      <trkpt lat="40.334650" lon="-4.697367">
        <ele>2417.0</ele>
        <time>2015-08-02T12:48:47Z</time>
      </trkpt>
      <trkpt lat="40.334617" lon="-4.697450">
        <ele>2417.0</ele>
        <time>2015-08-02T12:48:48Z</time>
      </trkpt>
      <trkpt lat="40.334583" lon="-4.697567">
        <ele>2416.0</ele>
        <time>2015-08-02T12:48:49Z</time>
      </trkpt>
      <trkpt lat="40.334567" lon="-4.697683">
        <ele>2416.0</ele>
        <time>2015-08-02T12:48:50Z</time>
      </trkpt>
      <trkpt lat="40.334567" lon="-4.697800">
        <ele>2417.0</ele>
        <time>2015-08-02T12:48:51Z</time>
      </trkpt>
      <trkpt lat="40.334583" lon="-4.697917">
        <ele>2418.0</ele>
        <time>2015-08-02T12:48:52Z</time>
      </trkpt>
      <trkpt lat="40.334617" lon="-4.698017">
        <ele>2418.0</ele>
        <time>2015-08-02T12:48:53Z</time>
      </trkpt>
      <trkpt lat="40.334650" lon="-4.698133">
        <ele>2419.0</ele>
        <time>2015-08-02T12:48:54Z</time>
      </trkpt>
      <trkpt lat="40.334700" lon="-4.698233">
        <ele>2420.0</ele>
        <time>2015-08-02T12:48:55Z</time>
      </trkpt>
      <trkpt lat="40.334767" lon="-4.698317">
        <ele>2421.0</ele>
        <time>2015-08-02T12:48:56Z</time>
      </trkpt>
      <trkpt lat="40.334833" lon="-4.698400">
        <ele>2421.0</ele>
        <time>2015-08-02T12:48:57Z</time>
      </trkpt>
      <trkpt lat="40.334917" lon="-4.698467">
        <ele>2421.0</ele>
        <time>2015-08-02T12:48:58Z</time>
      </trkpt>
      <trkpt lat="40.335017" lon="-4.698517">
        <ele>2422.0</ele>
        <time>2015-08-02T12:48:59Z</time>
      </trkpt>
      <trkpt lat="40.335133" lon="-4.698533">
        <ele>2421.0</ele>
        <time>2015-08-02T12:49:00Z</time>
      </trkpt>
      <trkpt lat="40.335233" lon="-4.698550">
        <ele>2421.0</ele>
        <time>2015-08-02T12:49:01Z</time>
      </trkpt>
      <trkpt lat="40.335350" lon="-4.698533">
        <ele>2421.0</ele>
        <time>2015-08-02T12:49:02Z</time>
      </trkpt>
      <trkpt lat="40.335450" lon="-4.698517">
        <ele>2421.0</ele>
        <time>2015-08-02T12:49:03Z</time>
      </trkpt>
      <trkpt lat="40.335567" lon="-4.698467">
        <ele>2420.0</ele>
        <time>2015-08-02T12:49:04Z</time>
      </trkpt>
      <trkpt lat="40.335667" lon="-4.698400">
        <ele>2420.0</ele>
        <time>2015-08-02T12:49:05Z</time>
      </trkpt>
      <trkpt lat="40.335767" lon="-4.698317">
        <ele>2420.0</ele>
        <time>2015-08-02T12:49:06Z</time>
      </trkpt>
      <trkpt lat="40.335867" lon="-4.698217">
        <ele>2420.0</ele>
        <time>2015-08-02T12:49:07Z</time>
      </trkpt>
      <trkpt lat="40.335950" lon="-4.698117">
        <ele>2420.0</ele>
        <time>2015-08-02T12:49:08Z</time>
      </trkpt>
      <trkpt lat="40.336017" lon="-4.698000">
        <ele>2420.0</ele>
        <time>2015-08-02T12:49:09Z</time>
      </trkpt>
      <trkpt lat="40.336067" lon="-4.697867">
        <ele>2419.0</ele>
        <time>2015-08-02T12:49:10Z</time>
      </trkpt>
      <trkpt lat="40.336117" lon="-4.697733">
        <ele>2418.0</ele>
        <time>2015-08-02T12:49:11Z</time>
      </trkpt>
      <trkpt lat="40.336150" lon="-4.697617">
        <ele>2416.0</ele>
        <time>2015-08-02T12:49:12Z</time>
      </trkpt>
      <trkpt lat="40.336167" lon="-4.697483">
        <ele>2414.0</ele>
        <time>2015-08-02T12:49:13Z</time>
      </trkpt>
      <trkpt lat="40.336183" lon="-4.697333">
        <ele>2411.0</ele>
        <time>2015-08-02T12:49:14Z</time>
      </trkpt>
      <trkpt lat="40.336200" lon="-4.697183">
        <ele>2410.0</ele>
        <time>2015-08-02T12:49:15Z</time>
      </trkpt>
      <trkpt lat="40.336200" lon="-4.697050">
        <ele>2410.0</ele>
        <time>2015-08-02T12:49:16Z</time>
      </trkpt>
      <trkpt lat="40.336200" lon="-4.696933">
        <ele>2411.0</ele>
        <time>2015-08-02T12:49:17Z</time>
      </trkpt>
      <trkpt lat="40.336183" lon="-4.696833">
        <ele>2410.0</ele>
        <time>2015-08-02T12:49:18Z</time>
      </trkpt>
      <trkpt lat="40.336133" lon="-4.696733">
        <ele>2408.0</ele>
        <time>2015-08-02T12:49:19Z</time>
      </trkpt>
      <trkpt lat="40.336083" lon="-4.696633">
        <ele>2407.0</ele>
        <time>2015-08-02T12:49:20Z</time>
      </trkpt>
      <trkpt lat="40.336033" lon="-4.696533">
        <ele>2407.0</ele>
        <time>2015-08-02T12:49:21Z</time>
      </trkpt>
      <trkpt lat="40.336000" lon="-4.696417">
        <ele>2407.0</ele>
        <time>2015-08-02T12:49:22Z</time>
      </trkpt>
      <trkpt lat="40.335967" lon="-4.696317">
        <ele>2406.0</ele>
        <time>2015-08-02T12:49:23Z</time>
      </trkpt>
      <trkpt lat="40.335933" lon="-4.696233">
        <ele>2405.0</ele>
        <time>2015-08-02T12:49:24Z</time>
      </trkpt>
      <trkpt lat="40.335883" lon="-4.696133">
        <ele>2403.0</ele>
        <time>2015-08-02T12:49:25Z</time>
      </trkpt>
      <trkpt lat="40.335833" lon="-4.696050">
        <ele>2401.0</ele>
        <time>2015-08-02T12:49:26Z</time>
      </trkpt>
      <trkpt lat="40.335783" lon="-4.695933">
        <ele>2399.0</ele>
        <time>2015-08-02T12:49:27Z</time>
      </trkpt>
      <trkpt lat="40.335733" lon="-4.695833">
        <ele>2399.0</ele>
        <time>2015-08-02T12:49:28Z</time>
      </trkpt>
      <trkpt lat="40.335700" lon="-4.695733">
        <ele>2398.0</ele>
        <time>2015-08-02T12:49:29Z</time>
      </trkpt>
      <trkpt lat="40.335650" lon="-4.695633">
        <ele>2396.0</ele>
        <time>2015-08-02T12:49:30Z</time>
      </trkpt>
      <trkpt lat="40.335583" lon="-4.695533">
        <ele>2395.0</ele>
        <time>2015-08-02T12:49:31Z</time>
      </trkpt>
      <trkpt lat="40.335517" lon="-4.695400">
        <ele>2394.0</ele>
        <time>2015-08-02T12:49:32Z</time>
      </trkpt>
      <trkpt lat="40.335483" lon="-4.695267">
        <ele>2395.0</ele>
        <time>2015-08-02T12:49:33Z</time>
      </trkpt>
      <trkpt lat="40.335450" lon="-4.695133">
        <ele>2397.0</ele>
        <time>2015-08-02T12:49:34Z</time>
      </trkpt>
      <trkpt lat="40.335433" lon="-4.695000">
        <ele>2400.0</ele>
        <time>2015-08-02T12:49:35Z</time>
      </trkpt>
      <trkpt lat="40.335417" lon="-4.694867">
        <ele>2402.0</ele>
        <time>2015-08-02T12:49:36Z</time>
      </trkpt>
      <trkpt lat="40.335417" lon="-4.694750">
        <ele>2403.0</ele>
        <time>2015-08-02T12:49:37Z</time>
      </trkpt>
      <trkpt lat="40.335417" lon="-4.694617">
        <ele>2403.0</ele>
        <time>2015-08-02T12:49:38Z</time>
      </trkpt>
      <trkpt lat="40.335417" lon="-4.694483">
        <ele>2402.0</ele>
        <time>2015-08-02T12:49:39Z</time>
      </trkpt>
      <trkpt lat="40.335383" lon="-4.694367">
        <ele>2400.0</ele>
        <time>2015-08-02T12:49:40Z</time>
      </trkpt>
      <trkpt lat="40.335333" lon="-4.694250">
        <ele>2399.0</ele>
        <time>2015-08-02T12:49:41Z</time>
      </trkpt>
      <trkpt lat="40.335267" lon="-4.694133">
        <ele>2398.0</ele>
        <time>2015-08-02T12:49:42Z</time>
      </trkpt>
      <trkpt lat="40.335200" lon="-4.694050">
        <ele>2398.0</ele>
        <time>2015-08-02T12:49:43Z</time>
      </trkpt>
      <trkpt lat="40.335133" lon="-4.693967">
        <ele>2399.0</ele>
        <time>2015-08-02T12:49:44Z</time>
      </trkpt>
      <trkpt lat="40.335067" lon="-4.693883">
        <ele>2402.0</ele>
        <time>2015-08-02T12:49:45Z</time>
      </trkpt>
      <trkpt lat="40.335000" lon="-4.693800">
        <ele>2404.0</ele>
        <time>2015-08-02T12:49:46Z</time>
      </trkpt>
      <trkpt lat="40.334933" lon="-4.693733">
        <ele>2406.0</ele>
        <time>2015-08-02T12:49:47Z</time>
      </trkpt>
      <trkpt lat="40.334883" lon="-4.693667">
        <ele>2408.0</ele>
        <time>2015-08-02T12:49:48Z</time>
      </trkpt>
      <trkpt lat="40.334817" lon="-4.693617">
        <ele>2409.0</ele>
        <time>2015-08-02T12:49:49Z</time>
      </trkpt>
      <trkpt lat="40.334750" lon="-4.693583">
        <ele>2410.0</ele>
        <time>2015-08-02T12:49:50Z</time>
      </trkpt>
      <trkpt lat="40.334700" lon="-4.693567">
        <ele>2410.0</ele>
        <time>2015-08-02T12:49:51Z</time>
      </trkpt>
      <trkpt lat="40.334617" lon="-4.693550">
        <ele>2410.0</ele>
        <time>2015-08-02T12:49:52Z</time>
      </trkpt>
      <trkpt lat="40.334533" lon="-4.693550">
        <ele>2411.0</ele>
        <time>2015-08-02T12:49:53Z</time>
      </trkpt>
      <trkpt lat="40.334450" lon="-4.693533">
        <ele>2413.0</ele>
        <time>2015-08-02T12:49:54Z</time>
      </trkpt>
      <trkpt lat="40.334367" lon="-4.693550">
        <ele>2414.0</ele>
        <time>2015-08-02T12:49:55Z</time>
      </trkpt>
      <trkpt lat="40.334300" lon="-4.693567">
        <ele>2416.0</ele>
        <time>2015-08-02T12:49:56Z</time>
      </trkpt>
      <trkpt lat="40.334217" lon="-4.693617">
        <ele>2417.0</ele>
        <time>2015-08-02T12:49:57Z</time>
      </trkpt>
      <trkpt lat="40.334150" lon="-4.693667">
        <ele>2418.0</ele>
        <time>2015-08-02T12:49:58Z</time>
      </trkpt>
      <trkpt lat="40.334083" lon="-4.693733">
        <ele>2419.0</ele>
        <time>2015-08-02T12:49:59Z</time>
      </trkpt>
      <trkpt lat="40.334033" lon="-4.693817">
        <ele>2420.0</ele>
        <time>2015-08-02T12:50:00Z</time>
      </trkpt>
      <trkpt lat="40.334000" lon="-4.693933">
        <ele>2421.0</ele>
        <time>2015-08-02T12:50:01Z</time>
      </trkpt>
      <trkpt lat="40.333983" lon="-4.694050">
        <ele>2421.0</ele>
        <time>2015-08-02T12:50:02Z</time>
      </trkpt>
      <trkpt lat="40.334000" lon="-4.694183">
        <ele>2421.0</ele>
        <time>2015-08-02T12:50:03Z</time>
      </trkpt>
      <trkpt lat="40.334033" lon="-4.694300">
        <ele>2422.0</ele>
        <time>2015-08-02T12:50:04Z</time>
      </trkpt>
      <trkpt lat="40.334083" lon="-4.694417">
        <ele>2422.0</ele>
        <time>2015-08-02T12:50:05Z</time>
      </trkpt>
      <trkpt lat="40.334167" lon="-4.694517">
        <ele>2421.0</ele>
        <time>2015-08-02T12:50:06Z</time>
      </trkpt>
      <trkpt lat="40.334267" lon="-4.694600">
        <ele>2421.0</ele>
        <time>2015-08-02T12:50:07Z</time>
      </trkpt>
      <trkpt lat="40.334367" lon="-4.694667">
        <ele>2421.0</ele>
        <time>2015-08-02T12:50:08Z</time>
      </trkpt>
      <trkpt lat="40.334450" lon="-4.694717">
        <ele>2423.0</ele>
        <time>2015-08-02T12:50:09Z</time>
      </trkpt>
      <trkpt lat="40.334550" lon="-4.694750">
        <ele>2424.0</ele>
        <time>2015-08-02T12:50:10Z</time>
      </trkpt>
      <trkpt lat="40.334633" lon="-4.694767">
        <ele>2424.0</ele>
        <time>2015-08-02T12:50:11Z</time>
      </trkpt>
      <trkpt lat="40.334717" lon="-4.694733">
        <ele>2423.0</ele>
        <time>2015-08-02T12:50:12Z</time>
      </trkpt>
      <trkpt lat="40.334817" lon="-4.694683">
        <ele>2421.0</ele>
        <time>2015-08-02T12:50:13Z</time>
      </trkpt>
      <trkpt lat="40.334883" lon="-4.694600">
        <ele>2420.0</ele>
        <time>2015-08-02T12:50:14Z</time>
      </trkpt>
      <trkpt lat="40.334950" lon="-4.694483">
        <ele>2419.0</ele>
        <time>2015-08-02T12:50:15Z</time>
      </trkpt>
      <trkpt lat="40.334967" lon="-4.694333">
        <ele>2419.0</ele>
        <time>2015-08-02T12:50:16Z</time>
      </trkpt>
      <trkpt lat="40.334950" lon="-4.694200">
        <ele>2420.0</ele>
        <time>2015-08-02T12:50:17Z</time>
      </trkpt>
      <trkpt lat="40.334950" lon="-4.694083">
        <ele>2422.0</ele>
        <time>2015-08-02T12:50:18Z</time>
      </trkpt>
      <trkpt lat="40.334950" lon="-4.693950">
        <ele>2423.0</ele>
        <time>2015-08-02T12:50:19Z</time>
      </trkpt>
      <trkpt lat="40.334950" lon="-4.693817">
        <ele>2425.0</ele>
        <time>2015-08-02T12:50:20Z</time>
      </trkpt>
      <trkpt lat="40.334933" lon="-4.693683">
        <ele>2426.0</ele>
        <time>2015-08-02T12:50:21Z</time>
      </trkpt>
      <trkpt lat="40.334900" lon="-4.693517">
        <ele>2427.0</ele>
        <time>2015-08-02T12:50:22Z</time>
      </trkpt>
      <trkpt lat="40.334867" lon="-4.693417">
        <ele>2428.0</ele>
        <time>2015-08-02T12:50:23Z</time>
      </trkpt>
      <trkpt lat="40.334817" lon="-4.693300">
        <ele>2430.0</ele>
        <time>2015-08-02T12:50:24Z</time>
      </trkpt>
      <trkpt lat="40.334767" lon="-4.693167">
        <ele>2432.0</ele>
        <time>2015-08-02T12:50:25Z</time>
      </trkpt>
      <trkpt lat="40.334733" lon="-4.693050">
        <ele>2433.0</ele>
        <time>2015-08-02T12:50:26Z</time>
      </trkpt>
      <trkpt lat="40.334700" lon="-4.692950">
        <ele>2434.0</ele>
        <time>2015-08-02T12:50:27Z</time>
      </trkpt>
      <trkpt lat="40.334650" lon="-4.692833">
        <ele>2434.0</ele>
        <time>2015-08-02T12:50:28Z</time>
      </trkpt>
      <trkpt lat="40.334583" lon="-4.692750">
        <ele>2434.0</ele>
        <time>2015-08-02T12:50:29Z</time>
      </trkpt>
      <trkpt lat="40.334517" lon="-4.692683">
        <ele>2433.0</ele>
        <time>2015-08-02T12:50:30Z</time>
      </trkpt>
      <trkpt lat="40.334433" lon="-4.692633">
        <ele>2434.0</ele>
        <time>2015-08-02T12:50:31Z</time>
      </trkpt>
      <trkpt lat="40.334367" lon="-4.692583">
        <ele>2434.0</ele>
        <time>2015-08-02T12:50:32Z</time>
      </trkpt>
      <trkpt lat="40.334300" lon="-4.692550">
        <ele>2434.0</ele>
        <time>2015-08-02T12:50:33Z</time>
      </trkpt>
      <trkpt lat="40.334217" lon="-4.692550">
        <ele>2434.0</ele>
        <time>2015-08-02T12:50:34Z</time>
      </trkpt>
      <trkpt lat="40.334133" lon="-4.692567">
        <ele>2434.0</ele>
        <time>2015-08-02T12:50:35Z</time>
      </trkpt>
      <trkpt lat="40.334067" lon="-4.692617">
        <ele>2435.0</ele>
        <time>2015-08-02T12:50:36Z</time>
      </trkpt>
      <trkpt lat="40.334000" lon="-4.692667">
        <ele>2434.0</ele>
        <time>2015-08-02T12:50:37Z</time>
      </trkpt>
      <trkpt lat="40.333933" lon="-4.692733">
        <ele>2434.0</ele>
        <time>2015-08-02T12:50:38Z</time>
      </trkpt>
      <trkpt lat="40.333867" lon="-4.692817">
        <ele>2434.0</ele>
        <time>2015-08-02T12:50:39Z</time>
      </trkpt>
      <trkpt lat="40.333833" lon="-4.692917">
        <ele>2435.0</ele>
        <time>2015-08-02T12:50:40Z</time>
      </trkpt>
      <trkpt lat="40.333817" lon="-4.693050">
        <ele>2436.0</ele>
        <time>2015-08-02T12:50:41Z</time>
      </trkpt>
      <trkpt lat="40.333833" lon="-4.693150">
        <ele>2437.0</ele>
        <time>2015-08-02T12:50:42Z</time>
      </trkpt>
      <trkpt lat="40.333867" lon="-4.693267">
        <ele>2438.0</ele>
        <time>2015-08-02T12:50:43Z</time>
      </trkpt>
      <trkpt lat="40.333917" lon="-4.693350">
        <ele>2439.0</ele>
        <time>2015-08-02T12:50:44Z</time>
      </trkpt>
      <trkpt lat="40.334000" lon="-4.693417">
        <ele>2439.0</ele>
        <time>2015-08-02T12:50:45Z</time>
      </trkpt>
      <trkpt lat="40.334083" lon="-4.693467">
        <ele>2439.0</ele>
        <time>2015-08-02T12:50:46Z</time>
      </trkpt>
      <trkpt lat="40.334183" lon="-4.693483">
        <ele>2439.0</ele>
        <time>2015-08-02T12:50:47Z</time>
      </trkpt>
      <trkpt lat="40.334283" lon="-4.693483">
        <ele>2439.0</ele>
        <time>2015-08-02T12:50:48Z</time>
      </trkpt>
      <trkpt lat="40.334383" lon="-4.693467">
        <ele>2439.0</ele>
        <time>2015-08-02T12:50:49Z</time>
      </trkpt>
      <trkpt lat="40.334483" lon="-4.693417">
        <ele>2440.0</ele>
        <time>2015-08-02T12:50:50Z</time>
      </trkpt>
      <trkpt lat="40.334583" lon="-4.693350">
        <ele>2441.0</ele>
        <time>2015-08-02T12:50:51Z</time>
      </trkpt>
      <trkpt lat="40.334683" lon="-4.693267">
        <ele>2442.0</ele>
        <time>2015-08-02T12:50:52Z</time>
      </trkpt>
      <trkpt lat="40.334767" lon="-4.693167">
        <ele>2443.0</ele>
        <time>2015-08-02T12:50:53Z</time>
      </trkpt>
      <trkpt lat="40.334850" lon="-4.693083">
        <ele>2444.0</ele>
        <time>2015-08-02T12:50:54Z</time>
      </trkpt>
      <trkpt lat="40.334917" lon="-4.693000">
        <ele>2446.0</ele>
        <time>2015-08-02T12:50:55Z</time>
      </trkpt>
      <trkpt lat="40.334950" lon="-4.692900">
        <ele>2447.0</ele>
        <time>2015-08-02T12:50:56Z</time>
      </trkpt>
      <trkpt lat="40.334967" lon="-4.692783">
        <ele>2446.0</ele>
        <time>2015-08-02T12:50:57Z</time>
      </trkpt>
      <trkpt lat="40.334967" lon="-4.692667">
        <ele>2444.0</ele>
        <time>2015-08-02T12:50:58Z</time>
      </trkpt>
      <trkpt lat="40.334933" lon="-4.692550">
        <ele>2444.0</ele>
        <time>2015-08-02T12:50:59Z</time>
      </trkpt>
      <trkpt lat="40.334900" lon="-4.692433">
        <ele>2444.0</ele>
        <time>2015-08-02T12:51:00Z</time>
      </trkpt>
      <trkpt lat="40.334850" lon="-4.692333">
        <ele>2444.0</ele>
        <time>2015-08-02T12:51:01Z</time>
      </trkpt>
      <trkpt lat="40.334783" lon="-4.692250">
        <ele>2444.0</ele>
        <time>2015-08-02T12:51:02Z</time>
      </trkpt>
      <trkpt lat="40.334700" lon="-4.692183">
        <ele>2443.0</ele>
        <time>2015-08-02T12:51:03Z</time>
      </trkpt>
      <trkpt lat="40.334617" lon="-4.692150">
        <ele>2443.0</ele>
        <time>2015-08-02T12:51:04Z</time>
      </trkpt>
      <trkpt lat="40.334533" lon="-4.692150">
        <ele>2444.0</ele>
        <time>2015-08-02T12:51:05Z</time>
      </trkpt>
      <trkpt lat="40.334450" lon="-4.692150">
        <ele>2445.0</ele>
        <time>2015-08-02T12:51:06Z</time>
      </trkpt>
      <trkpt lat="40.334367" lon="-4.692150">
        <ele>2446.0</ele>
        <time>2015-08-02T12:51:07Z</time>
      </trkpt>
      <trkpt lat="40.334300" lon="-4.692183">
        <ele>2446.0</ele>
        <time>2015-08-02T12:51:08Z</time>
      </trkpt>
      <trkpt lat="40.334217" lon="-4.692217">
        <ele>2446.0</ele>
        <time>2015-08-02T12:51:09Z</time>
      </trkpt>
      <trkpt lat="40.334150" lon="-4.692267">
        <ele>2447.0</ele>
        <time>2015-08-02T12:51:10Z</time>
      </trkpt>
      <trkpt lat="40.334100" lon="-4.692333">
        <ele>2446.0</ele>
        <time>2015-08-02T12:51:11Z</time>
      </trkpt>
      <trkpt lat="40.334050" lon="-4.692417">
        <ele>2446.0</ele>
        <time>2015-08-02T12:51:12Z</time>
      </trkpt>
      <trkpt lat="40.333983" lon="-4.692550">
        <ele>2445.0</ele>
        <time>2015-08-02T12:51:13Z</time>
      </trkpt>
      <trkpt lat="40.333967" lon="-4.692617">
        <ele>2444.0</ele>
        <time>2015-08-02T12:51:14Z</time>
      </trkpt>
      <trkpt lat="40.333933" lon="-4.692733">
        <ele>2443.0</ele>
        <time>2015-08-02T12:51:15Z</time>
      </trkpt>
      <trkpt lat="40.333883" lon="-4.692833">
        <ele>2442.0</ele>
        <time>2015-08-02T12:51:16Z</time>
      </trkpt>
      <trkpt lat="40.333833" lon="-4.692917">
        <ele>2442.0</ele>
        <time>2015-08-02T12:51:17Z</time>
      </trkpt>
      <trkpt lat="40.333783" lon="-4.692983">
        <ele>2441.0</ele>
        <time>2015-08-02T12:51:18Z</time>
      </trkpt>
      <trkpt lat="40.333717" lon="-4.693033">
        <ele>2440.0</ele>
        <time>2015-08-02T12:51:19Z</time>
      </trkpt>
      <trkpt lat="40.333633" lon="-4.693050">
        <ele>2438.0</ele>
        <time>2015-08-02T12:51:20Z</time>
      </trkpt>
      <trkpt lat="40.333550" lon="-4.693050">
        <ele>2436.0</ele>
        <time>2015-08-02T12:51:21Z</time>
      </trkpt>
      <trkpt lat="40.333450" lon="-4.693050">
        <ele>2435.0</ele>
        <time>2015-08-02T12:51:22Z</time>
      </trkpt>
      <trkpt lat="40.333367" lon="-4.693033">
        <ele>2434.0</ele>
        <time>2015-08-02T12:51:23Z</time>
      </trkpt>
      <trkpt lat="40.333300" lon="-4.692983">
        <ele>2433.0</ele>
        <time>2015-08-02T12:51:24Z</time>
      </trkpt>
      <trkpt lat="40.333233" lon="-4.692933">
        <ele>2432.0</ele>
        <time>2015-08-02T12:51:25Z</time>
      </trkpt>
      <trkpt lat="40.333167" lon="-4.692850">
        <ele>2430.0</ele>
        <time>2015-08-02T12:51:26Z</time>
      </trkpt>
      <trkpt lat="40.333100" lon="-4.692767">
        <ele>2428.0</ele>
        <time>2015-08-02T12:51:27Z</time>
      </trkpt>
      <trkpt lat="40.333033" lon="-4.692667">
        <ele>2426.0</ele>
        <time>2015-08-02T12:51:28Z</time>
      </trkpt>
      <trkpt lat="40.332967" lon="-4.692583">
        <ele>2425.0</ele>
        <time>2015-08-02T12:51:29Z</time>
      </trkpt>
      <trkpt lat="40.332900" lon="-4.692483">
        <ele>2424.0</ele>
        <time>2015-08-02T12:51:30Z</time>
      </trkpt>
      <trkpt lat="40.332850" lon="-4.692383">
        <ele>2422.0</ele>
        <time>2015-08-02T12:51:31Z</time>
      </trkpt>
      <trkpt lat="40.332833" lon="-4.692267">
        <ele>2421.0</ele>
        <time>2015-08-02T12:51:32Z</time>
      </trkpt>
      <trkpt lat="40.332817" lon="-4.692133">
        <ele>2418.0</ele>
        <time>2015-08-02T12:51:33Z</time>
      </trkpt>
      <trkpt lat="40.332817" lon="-4.692017">
        <ele>2416.0</ele>
        <time>2015-08-02T12:51:34Z</time>
      </trkpt>
      <trkpt lat="40.332800" lon="-4.691900">
        <ele>2414.0</ele>
        <time>2015-08-02T12:51:35Z</time>
      </trkpt>
      <trkpt lat="40.332783" lon="-4.691800">
        <ele>2411.0</ele>
        <time>2015-08-02T12:51:36Z</time>
      </trkpt>
      <trkpt lat="40.332733" lon="-4.691717">
        <ele>2407.0</ele>
        <time>2015-08-02T12:51:37Z</time>
      </trkpt>
      <trkpt lat="40.332683" lon="-4.691617">
        <ele>2403.0</ele>
        <time>2015-08-02T12:51:38Z</time>
      </trkpt>
      <trkpt lat="40.332633" lon="-4.691533">
        <ele>2399.0</ele>
        <time>2015-08-02T12:51:39Z</time>
      </trkpt>
      <trkpt lat="40.332550" lon="-4.691433">
        <ele>2395.0</ele>
        <time>2015-08-02T12:51:40Z</time>
      </trkpt>
      <trkpt lat="40.332483" lon="-4.691367">
        <ele>2391.0</ele>
        <time>2015-08-02T12:51:41Z</time>
      </trkpt>
      <trkpt lat="40.332400" lon="-4.691283">
        <ele>2388.0</ele>
        <time>2015-08-02T12:51:42Z</time>
      </trkpt>
      <trkpt lat="40.332333" lon="-4.691183">
        <ele>2384.0</ele>
        <time>2015-08-02T12:51:43Z</time>
      </trkpt>
      <trkpt lat="40.332283" lon="-4.691083">
        <ele>2380.0</ele>
        <time>2015-08-02T12:51:44Z</time>
      </trkpt>
      <trkpt lat="40.332217" lon="-4.690983">
        <ele>2376.0</ele>
        <time>2015-08-02T12:51:45Z</time>
      </trkpt>
      <trkpt lat="40.332133" lon="-4.690900">
        <ele>2372.0</ele>
        <time>2015-08-02T12:51:46Z</time>
      </trkpt>
      <trkpt lat="40.332050" lon="-4.690817">
        <ele>2368.0</ele>
        <time>2015-08-02T12:51:47Z</time>
      </trkpt>
      <trkpt lat="40.331967" lon="-4.690733">
        <ele>2365.0</ele>
        <time>2015-08-02T12:51:48Z</time>
      </trkpt>
      <trkpt lat="40.331883" lon="-4.690650">
        <ele>2363.0</ele>
        <time>2015-08-02T12:51:49Z</time>
      </trkpt>
      <trkpt lat="40.331800" lon="-4.690567">
        <ele>2361.0</ele>
        <time>2015-08-02T12:51:50Z</time>
      </trkpt>
      <trkpt lat="40.331733" lon="-4.690500">
        <ele>2359.0</ele>
        <time>2015-08-02T12:51:51Z</time>
      </trkpt>
      <trkpt lat="40.331667" lon="-4.690417">
        <ele>2357.0</ele>
        <time>2015-08-02T12:51:52Z</time>
      </trkpt>
      <trkpt lat="40.331600" lon="-4.690333">
        <ele>2354.0</ele>
        <time>2015-08-02T12:51:53Z</time>
      </trkpt>
      <trkpt lat="40.331517" lon="-4.690250">
        <ele>2352.0</ele>
        <time>2015-08-02T12:51:54Z</time>
      </trkpt>
      <trkpt lat="40.331433" lon="-4.690183">
        <ele>2350.0</ele>
        <time>2015-08-02T12:51:55Z</time>
      </trkpt>
      <trkpt lat="40.331350" lon="-4.690117">
        <ele>2349.0</ele>
        <time>2015-08-02T12:51:56Z</time>
      </trkpt>
      <trkpt lat="40.331283" lon="-4.690067">
        <ele>2348.0</ele>
        <time>2015-08-02T12:51:57Z</time>
      </trkpt>
      <trkpt lat="40.331217" lon="-4.690000">
        <ele>2347.0</ele>
        <time>2015-08-02T12:51:58Z</time>
      </trkpt>
      <trkpt lat="40.331150" lon="-4.689917">
        <ele>2346.0</ele>
        <time>2015-08-02T12:51:59Z</time>
      </trkpt>
      <trkpt lat="40.331100" lon="-4.689833">
        <ele>2345.0</ele>
        <time>2015-08-02T12:52:00Z</time>
      </trkpt>
      <trkpt lat="40.331067" lon="-4.689767">
        <ele>2345.0</ele>
        <time>2015-08-02T12:52:01Z</time>
      </trkpt>
      <trkpt lat="40.331017" lon="-4.689700">
        <ele>2343.0</ele>
        <time>2015-08-02T12:52:02Z</time>
      </trkpt>
      <trkpt lat="40.330967" lon="-4.689633">
        <ele>2341.0</ele>
        <time>2015-08-02T12:52:03Z</time>
      </trkpt>
      <trkpt lat="40.330917" lon="-4.689567">
        <ele>2339.0</ele>
        <time>2015-08-02T12:52:04Z</time>
      </trkpt>
      <trkpt lat="40.330883" lon="-4.689467">
        <ele>2337.0</ele>
        <time>2015-08-02T12:52:05Z</time>
      </trkpt>
      <trkpt lat="40.330833" lon="-4.689367">
        <ele>2336.0</ele>
        <time>2015-08-02T12:52:06Z</time>
      </trkpt>
      <trkpt lat="40.330800" lon="-4.689283">
        <ele>2335.0</ele>
        <time>2015-08-02T12:52:07Z</time>
      </trkpt>
      <trkpt lat="40.330783" lon="-4.689200">
        <ele>2334.0</ele>
        <time>2015-08-02T12:52:08Z</time>
      </trkpt>
      <trkpt lat="40.330750" lon="-4.689133">
        <ele>2333.0</ele>
        <time>2015-08-02T12:52:09Z</time>
      </trkpt>
      <trkpt lat="40.330717" lon="-4.689067">
        <ele>2332.0</ele>
        <time>2015-08-02T12:52:10Z</time>
      </trkpt>
      <trkpt lat="40.330700" lon="-4.689017">
        <ele>2330.0</ele>
        <time>2015-08-02T12:52:11Z</time>
      </trkpt>
      <trkpt lat="40.330667" lon="-4.688950">
        <ele>2327.0</ele>
        <time>2015-08-02T12:52:12Z</time>
      </trkpt>
      <trkpt lat="40.330633" lon="-4.688867">
        <ele>2324.0</ele>
        <time>2015-08-02T12:52:13Z</time>
      </trkpt>
      <trkpt lat="40.330583" lon="-4.688783">
        <ele>2322.0</ele>
        <time>2015-08-02T12:52:14Z</time>
      </trkpt>
      <trkpt lat="40.330533" lon="-4.688717">
        <ele>2320.0</ele>
        <time>2015-08-02T12:52:15Z</time>
      </trkpt>
      <trkpt lat="40.330467" lon="-4.688667">
        <ele>2318.0</ele>
        <time>2015-08-02T12:52:16Z</time>
      </trkpt>
      <trkpt lat="40.330400" lon="-4.688633">
        <ele>2317.0</ele>
        <time>2015-08-02T12:52:17Z</time>
      </trkpt>
      <trkpt lat="40.330350" lon="-4.688600">
        <ele>2317.0</ele>
        <time>2015-08-02T12:52:18Z</time>
      </trkpt>
      <trkpt lat="40.330317" lon="-4.688567">
        <ele>2316.0</ele>
        <time>2015-08-02T12:52:19Z</time>
      </trkpt>
      <trkpt lat="40.330267" lon="-4.688517">
        <ele>2314.0</ele>
        <time>2015-08-02T12:52:20Z</time>
      </trkpt>
      <trkpt lat="40.330217" lon="-4.688467">
        <ele>2312.0</ele>
        <time>2015-08-02T12:52:21Z</time>
      </trkpt>
      <trkpt lat="40.330150" lon="-4.688417">
        <ele>2311.0</ele>
        <time>2015-08-02T12:52:22Z</time>
      </trkpt>
      <trkpt lat="40.330083" lon="-4.688383">
        <ele>2310.0</ele>
        <time>2015-08-02T12:52:23Z</time>
      </trkpt>
      <trkpt lat="40.330017" lon="-4.688350">
        <ele>2309.0</ele>
        <time>2015-08-02T12:52:24Z</time>
      </trkpt>
      <trkpt lat="40.329950" lon="-4.688317">
        <ele>2309.0</ele>
        <time>2015-08-02T12:52:25Z</time>
      </trkpt>
      <trkpt lat="40.329900" lon="-4.688283">
        <ele>2308.0</ele>
        <time>2015-08-02T12:52:26Z</time>
      </trkpt>
      <trkpt lat="40.329850" lon="-4.688267">
        <ele>2306.0</ele>
        <time>2015-08-02T12:52:27Z</time>
      </trkpt>
      <trkpt lat="40.329800" lon="-4.688267">
        <ele>2302.0</ele>
        <time>2015-08-02T12:52:28Z</time>
      </trkpt>
      <trkpt lat="40.329750" lon="-4.688283">
        <ele>2298.0</ele>
        <time>2015-08-02T12:52:29Z</time>
      </trkpt>
      <trkpt lat="40.329700" lon="-4.688300">
        <ele>2294.0</ele>
        <time>2015-08-02T12:52:30Z</time>
      </trkpt>
      <trkpt lat="40.329633" lon="-4.688317">
        <ele>2291.0</ele>
        <time>2015-08-02T12:52:31Z</time>
      </trkpt>
      <trkpt lat="40.329550" lon="-4.688317">
        <ele>2288.0</ele>
        <time>2015-08-02T12:52:32Z</time>
      </trkpt>
      <trkpt lat="40.329483" lon="-4.688317">
        <ele>2285.0</ele>
        <time>2015-08-02T12:52:33Z</time>
      </trkpt>
      <trkpt lat="40.329417" lon="-4.688300">
        <ele>2283.0</ele>
        <time>2015-08-02T12:52:34Z</time>
      </trkpt>
      <trkpt lat="40.329350" lon="-4.688267">
        <ele>2280.0</ele>
        <time>2015-08-02T12:52:35Z</time>
      </trkpt>
      <trkpt lat="40.329283" lon="-4.688250">
        <ele>2277.0</ele>
        <time>2015-08-02T12:52:36Z</time>
      </trkpt>
      <trkpt lat="40.329217" lon="-4.688217">
        <ele>2274.0</ele>
        <time>2015-08-02T12:52:37Z</time>
      </trkpt>
      <trkpt lat="40.329133" lon="-4.688217">
        <ele>2273.0</ele>
        <time>2015-08-02T12:52:38Z</time>
      </trkpt>
      <trkpt lat="40.329083" lon="-4.688217">
        <ele>2271.0</ele>
        <time>2015-08-02T12:52:39Z</time>
      </trkpt>
      <trkpt lat="40.329017" lon="-4.688217">
        <ele>2269.0</ele>
        <time>2015-08-02T12:52:40Z</time>
      </trkpt>
      <trkpt lat="40.328967" lon="-4.688217">
        <ele>2267.0</ele>
        <time>2015-08-02T12:52:41Z</time>
      </trkpt>
      <trkpt lat="40.328917" lon="-4.688200">
        <ele>2265.0</ele>
        <time>2015-08-02T12:52:42Z</time>
      </trkpt>
      <trkpt lat="40.328850" lon="-4.688167">
        <ele>2263.0</ele>
        <time>2015-08-02T12:52:43Z</time>
      </trkpt>
      <trkpt lat="40.328783" lon="-4.688133">
        <ele>2262.0</ele>
        <time>2015-08-02T12:52:44Z</time>
      </trkpt>
      <trkpt lat="40.328717" lon="-4.688117">
        <ele>2261.0</ele>
        <time>2015-08-02T12:52:45Z</time>
      </trkpt>
      <trkpt lat="40.328650" lon="-4.688100">
        <ele>2260.0</ele>
        <time>2015-08-02T12:52:46Z</time>
      </trkpt>
      <trkpt lat="40.328583" lon="-4.688083">
        <ele>2258.0</ele>
        <time>2015-08-02T12:52:47Z</time>
      </trkpt>
      <trkpt lat="40.328500" lon="-4.688067">
        <ele>2255.0</ele>
        <time>2015-08-02T12:52:48Z</time>
      </trkpt>
      <trkpt lat="40.328417" lon="-4.688067">
        <ele>2252.0</ele>
        <time>2015-08-02T12:52:49Z</time>
      </trkpt>
      <trkpt lat="40.328333" lon="-4.688067">
        <ele>2250.0</ele>
        <time>2015-08-02T12:52:50Z</time>
      </trkpt>
      <trkpt lat="40.328250" lon="-4.688050">
        <ele>2250.0</ele>
        <time>2015-08-02T12:52:51Z</time>
      </trkpt>
      <trkpt lat="40.328167" lon="-4.688017">
        <ele>2250.0</ele>
        <time>2015-08-02T12:52:52Z</time>
      </trkpt>
      <trkpt lat="40.328083" lon="-4.687967">
        <ele>2249.0</ele>
        <time>2015-08-02T12:52:53Z</time>
      </trkpt>
      <trkpt lat="40.328017" lon="-4.687933">
        <ele>2249.0</ele>
        <time>2015-08-02T12:52:54Z</time>
      </trkpt>
      <trkpt lat="40.327950" lon="-4.687883">
        <ele>2249.0</ele>
        <time>2015-08-02T12:52:55Z</time>
      </trkpt>
      <trkpt lat="40.327867" lon="-4.687833">
        <ele>2248.0</ele>
        <time>2015-08-02T12:52:56Z</time>
      </trkpt>
      <trkpt lat="40.327783" lon="-4.687783">
        <ele>2247.0</ele>
        <time>2015-08-02T12:52:57Z</time>
      </trkpt>
      <trkpt lat="40.327700" lon="-4.687717">
        <ele>2246.0</ele>
        <time>2015-08-02T12:52:58Z</time>
      </trkpt>
      <trkpt lat="40.327617" lon="-4.687633">
        <ele>2245.0</ele>
        <time>2015-08-02T12:52:59Z</time>
      </trkpt>
      <trkpt lat="40.327517" lon="-4.687567">
        <ele>2245.0</ele>
        <time>2015-08-02T12:53:00Z</time>
      </trkpt>
      <trkpt lat="40.327417" lon="-4.687500">
        <ele>2246.0</ele>
        <time>2015-08-02T12:53:01Z</time>
      </trkpt>
      <trkpt lat="40.327350" lon="-4.687450">
        <ele>2248.0</ele>
        <time>2015-08-02T12:53:02Z</time>
      </trkpt>
      <trkpt lat="40.327267" lon="-4.687417">
        <ele>2249.0</ele>
        <time>2015-08-02T12:53:03Z</time>
      </trkpt>
      <trkpt lat="40.327217" lon="-4.687367">
        <ele>2249.0</ele>
        <time>2015-08-02T12:53:04Z</time>
      </trkpt>
      <trkpt lat="40.327150" lon="-4.687333">
        <ele>2248.0</ele>
        <time>2015-08-02T12:53:05Z</time>
      </trkpt>
      <trkpt lat="40.327083" lon="-4.687283">
        <ele>2247.0</ele>
        <time>2015-08-02T12:53:06Z</time>
      </trkpt>
      <trkpt lat="40.327000" lon="-4.687233">
        <ele>2244.0</ele>
        <time>2015-08-02T12:53:07Z</time>
      </trkpt>
      <trkpt lat="40.326917" lon="-4.687167">
        <ele>2242.0</ele>
        <time>2015-08-02T12:53:08Z</time>
      </trkpt>
      <trkpt lat="40.326817" lon="-4.687100">
        <ele>2241.0</ele>
        <time>2015-08-02T12:53:09Z</time>
      </trkpt>
      <trkpt lat="40.326717" lon="-4.687033">
        <ele>2239.0</ele>
        <time>2015-08-02T12:53:10Z</time>
      </trkpt>
      <trkpt lat="40.326633" lon="-4.686967">
        <ele>2239.0</ele>
        <time>2015-08-02T12:53:11Z</time>
      </trkpt>
      <trkpt lat="40.326550" lon="-4.686933">
        <ele>2239.0</ele>
        <time>2015-08-02T12:53:12Z</time>
      </trkpt>
      <trkpt lat="40.326467" lon="-4.686883">
        <ele>2238.0</ele>
        <time>2015-08-02T12:53:13Z</time>
      </trkpt>
      <trkpt lat="40.326383" lon="-4.686817">
        <ele>2237.0</ele>
        <time>2015-08-02T12:53:14Z</time>
      </trkpt>
      <trkpt lat="40.326317" lon="-4.686733">
        <ele>2234.0</ele>
        <time>2015-08-02T12:53:15Z</time>
      </trkpt>
      <trkpt lat="40.326250" lon="-4.686650">
        <ele>2233.0</ele>
        <time>2015-08-02T12:53:16Z</time>
      </trkpt>
      <trkpt lat="40.326183" lon="-4.686600">
        <ele>2231.0</ele>
        <time>2015-08-02T12:53:17Z</time>
      </trkpt>
      <trkpt lat="40.326117" lon="-4.686550">
        <ele>2230.0</ele>
        <time>2015-08-02T12:53:18Z</time>
      </trkpt>
      <trkpt lat="40.326033" lon="-4.686517">
        <ele>2228.0</ele>
        <time>2015-08-02T12:53:19Z</time>
      </trkpt>
      <trkpt lat="40.325967" lon="-4.686467">
        <ele>2225.0</ele>
        <time>2015-08-02T12:53:20Z</time>
      </trkpt>
      <trkpt lat="40.325883" lon="-4.686400">
        <ele>2223.0</ele>
        <time>2015-08-02T12:53:21Z</time>
      </trkpt>
      <trkpt lat="40.325800" lon="-4.686333">
        <ele>2221.0</ele>
        <time>2015-08-02T12:53:22Z</time>
      </trkpt>
      <trkpt lat="40.325717" lon="-4.686267">
        <ele>2221.0</ele>
        <time>2015-08-02T12:53:23Z</time>
      </trkpt>
      <trkpt lat="40.325617" lon="-4.686217">
        <ele>2222.0</ele>
        <time>2015-08-02T12:53:24Z</time>
      </trkpt>
      <trkpt lat="40.325550" lon="-4.686167">
        <ele>2222.0</ele>
        <time>2015-08-02T12:53:25Z</time>
      </trkpt>
      <trkpt lat="40.325467" lon="-4.686117">
        <ele>2223.0</ele>
        <time>2015-08-02T12:53:26Z</time>
      </trkpt>
      <trkpt lat="40.325400" lon="-4.686067">
        <ele>2224.0</ele>
        <time>2015-08-02T12:53:27Z</time>
      </trkpt>
      <trkpt lat="40.325333" lon="-4.686017">
        <ele>2224.0</ele>
        <time>2015-08-02T12:53:28Z</time>
      </trkpt>
      <trkpt lat="40.325267" lon="-4.685983">
        <ele>2223.0</ele>
        <time>2015-08-02T12:53:29Z</time>
      </trkpt>
      <trkpt lat="40.325183" lon="-4.685950">
        <ele>2222.0</ele>
        <time>2015-08-02T12:53:30Z</time>
      </trkpt>
      <trkpt lat="40.325100" lon="-4.685917">
        <ele>2222.0</ele>
        <time>2015-08-02T12:53:31Z</time>
      </trkpt>
      <trkpt lat="40.325033" lon="-4.685867">
        <ele>2223.0</ele>
        <time>2015-08-02T12:53:32Z</time>
      </trkpt>
      <trkpt lat="40.324967" lon="-4.685850">
        <ele>2224.0</ele>
        <time>2015-08-02T12:53:33Z</time>
      </trkpt>
      <trkpt lat="40.324900" lon="-4.685817">
        <ele>2225.0</ele>
        <time>2015-08-02T12:53:34Z</time>
      </trkpt>
      <trkpt lat="40.324850" lon="-4.685817">
        <ele>2225.0</ele>
        <time>2015-08-02T12:53:35Z</time>
      </trkpt>
      <trkpt lat="40.324767" lon="-4.685800">
        <ele>2224.0</ele>
        <time>2015-08-02T12:53:36Z</time>
      </trkpt>
      <trkpt lat="40.324700" lon="-4.685783">
        <ele>2223.0</ele>
        <time>2015-08-02T12:53:37Z</time>
      </trkpt>
      <trkpt lat="40.324617" lon="-4.685750">
        <ele>2222.0</ele>
        <time>2015-08-02T12:53:38Z</time>
      </trkpt>
      <trkpt lat="40.324533" lon="-4.685733">
        <ele>2223.0</ele>
        <time>2015-08-02T12:53:39Z</time>
      </trkpt>
      <trkpt lat="40.324467" lon="-4.685717">
        <ele>2224.0</ele>
        <time>2015-08-02T12:53:40Z</time>
      </trkpt>
      <trkpt lat="40.324417" lon="-4.685717">
        <ele>2225.0</ele>
        <time>2015-08-02T12:53:41Z</time>
      </trkpt>
      <trkpt lat="40.324383" lon="-4.685717">
        <ele>2225.0</ele>
        <time>2015-08-02T12:53:42Z</time>
      </trkpt>
      <trkpt lat="40.324333" lon="-4.685700">
        <ele>2225.0</ele>
        <time>2015-08-02T12:53:43Z</time>
      </trkpt>
      <trkpt lat="40.324283" lon="-4.685667">
        <ele>2223.0</ele>
        <time>2015-08-02T12:53:44Z</time>
      </trkpt>
      <trkpt lat="40.324233" lon="-4.685650">
        <ele>2222.0</ele>
        <time>2015-08-02T12:53:45Z</time>
      </trkpt>
      <trkpt lat="40.324183" lon="-4.685633">
        <ele>2220.0</ele>
        <time>2015-08-02T12:53:46Z</time>
      </trkpt>
      <trkpt lat="40.324133" lon="-4.685633">
        <ele>2217.0</ele>
        <time>2015-08-02T12:53:47Z</time>
      </trkpt>
      <trkpt lat="40.324017" lon="-4.685667">
        <ele>2215.0</ele>
        <time>2015-08-02T12:53:48Z</time>
      </trkpt>
      <trkpt lat="40.323983" lon="-4.685667">
        <ele>2213.0</ele>
        <time>2015-08-02T12:53:49Z</time>
      </trkpt>
      <trkpt lat="40.323917" lon="-4.685683">
        <ele>2213.0</ele>
        <time>2015-08-02T12:53:50Z</time>
      </trkpt>
      <trkpt lat="40.323850" lon="-4.685700">
        <ele>2212.0</ele>
        <time>2015-08-02T12:53:51Z</time>
      </trkpt>
      <trkpt lat="40.323800" lon="-4.685717">
        <ele>2212.0</ele>
        <time>2015-08-02T12:53:52Z</time>
      </trkpt>
      <trkpt lat="40.323733" lon="-4.685750">
        <ele>2211.0</ele>
        <time>2015-08-02T12:53:53Z</time>
      </trkpt>
      <trkpt lat="40.323683" lon="-4.685767">
        <ele>2210.0</ele>
        <time>2015-08-02T12:53:54Z</time>
      </trkpt>
      <trkpt lat="40.323617" lon="-4.685783">
        <ele>2208.0</ele>
        <time>2015-08-02T12:53:55Z</time>
      </trkpt>
      <trkpt lat="40.323567" lon="-4.685800">
        <ele>2206.0</ele>
        <time>2015-08-02T12:53:56Z</time>
      </trkpt>
      <trkpt lat="40.323483" lon="-4.685800">
        <ele>2204.0</ele>
        <time>2015-08-02T12:53:57Z</time>
      </trkpt>
      <trkpt lat="40.323417" lon="-4.685800">
        <ele>2203.0</ele>
        <time>2015-08-02T12:53:58Z</time>
      </trkpt>
      <trkpt lat="40.323350" lon="-4.685817">
        <ele>2202.0</ele>
        <time>2015-08-02T12:53:59Z</time>
      </trkpt>
      <trkpt lat="40.323267" lon="-4.685817">
        <ele>2201.0</ele>
        <time>2015-08-02T12:54:00Z</time>
      </trkpt>
      <trkpt lat="40.323200" lon="-4.685817">
        <ele>2200.0</ele>
        <time>2015-08-02T12:54:01Z</time>
      </trkpt>
      <trkpt lat="40.323117" lon="-4.685833">
        <ele>2199.0</ele>
        <time>2015-08-02T12:54:02Z</time>
      </trkpt>
      <trkpt lat="40.323050" lon="-4.685833">
        <ele>2198.0</ele>
        <time>2015-08-02T12:54:03Z</time>
      </trkpt>
      <trkpt lat="40.322983" lon="-4.685833">
        <ele>2197.0</ele>
        <time>2015-08-02T12:54:04Z</time>
      </trkpt>
      <trkpt lat="40.322900" lon="-4.685817">
        <ele>2195.0</ele>
        <time>2015-08-02T12:54:05Z</time>
      </trkpt>
      <trkpt lat="40.322817" lon="-4.685817">
        <ele>2194.0</ele>
        <time>2015-08-02T12:54:06Z</time>
      </trkpt>
      <trkpt lat="40.322733" lon="-4.685800">
        <ele>2193.0</ele>
        <time>2015-08-02T12:54:07Z</time>
      </trkpt>
      <trkpt lat="40.322650" lon="-4.685783">
        <ele>2193.0</ele>
        <time>2015-08-02T12:54:08Z</time>
      </trkpt>
      <trkpt lat="40.322567" lon="-4.685767">
        <ele>2193.0</ele>
        <time>2015-08-02T12:54:09Z</time>
      </trkpt>
      <trkpt lat="40.322483" lon="-4.685750">
        <ele>2193.0</ele>
        <time>2015-08-02T12:54:10Z</time>
      </trkpt>
      <trkpt lat="40.322417" lon="-4.685733">
        <ele>2193.0</ele>
        <time>2015-08-02T12:54:11Z</time>
      </trkpt>
      <trkpt lat="40.322333" lon="-4.685717">
        <ele>2192.0</ele>
        <time>2015-08-02T12:54:12Z</time>
      </trkpt>
      <trkpt lat="40.322267" lon="-4.685683">
        <ele>2191.0</ele>
        <time>2015-08-02T12:54:13Z</time>
      </trkpt>
      <trkpt lat="40.322167" lon="-4.685650">
        <ele>2191.0</ele>
        <time>2015-08-02T12:54:14Z</time>
      </trkpt>
      <trkpt lat="40.322083" lon="-4.685617">
        <ele>2190.0</ele>
        <time>2015-08-02T12:54:15Z</time>
      </trkpt>
      <trkpt lat="40.322017" lon="-4.685583">
        <ele>2191.0</ele>
        <time>2015-08-02T12:54:16Z</time>
      </trkpt>
      <trkpt lat="40.321933" lon="-4.685550">
        <ele>2191.0</ele>
        <time>2015-08-02T12:54:17Z</time>
      </trkpt>
      <trkpt lat="40.321850" lon="-4.685517">
        <ele>2191.0</ele>
        <time>2015-08-02T12:54:18Z</time>
      </trkpt>
      <trkpt lat="40.321783" lon="-4.685483">
        <ele>2191.0</ele>
        <time>2015-08-02T12:54:19Z</time>
      </trkpt>
      <trkpt lat="40.321700" lon="-4.685450">
        <ele>2190.0</ele>
        <time>2015-08-02T12:54:20Z</time>
      </trkpt>
      <trkpt lat="40.321633" lon="-4.685433">
        <ele>2189.0</ele>
        <time>2015-08-02T12:54:21Z</time>
      </trkpt>
      <trkpt lat="40.321550" lon="-4.685417">
        <ele>2188.0</ele>
        <time>2015-08-02T12:54:22Z</time>
      </trkpt>
      <trkpt lat="40.321450" lon="-4.685400">
        <ele>2187.0</ele>
        <time>2015-08-02T12:54:23Z</time>
      </trkpt>
      <trkpt lat="40.321367" lon="-4.685383">
        <ele>2187.0</ele>
        <time>2015-08-02T12:54:24Z</time>
      </trkpt>
      <trkpt lat="40.321300" lon="-4.685350">
        <ele>2186.0</ele>
        <time>2015-08-02T12:54:25Z</time>
      </trkpt>
      <trkpt lat="40.321233" lon="-4.685333">
        <ele>2185.0</ele>
        <time>2015-08-02T12:54:26Z</time>
      </trkpt>
      <trkpt lat="40.321150" lon="-4.685317">
        <ele>2184.0</ele>
        <time>2015-08-02T12:54:27Z</time>
      </trkpt>
      <trkpt lat="40.321083" lon="-4.685300">
        <ele>2182.0</ele>
        <time>2015-08-02T12:54:28Z</time>
      </trkpt>
      <trkpt lat="40.321000" lon="-4.685283">
        <ele>2181.0</ele>
        <time>2015-08-02T12:54:29Z</time>
      </trkpt>
      <trkpt lat="40.320900" lon="-4.685250">
        <ele>2179.0</ele>
        <time>2015-08-02T12:54:30Z</time>
      </trkpt>
      <trkpt lat="40.320817" lon="-4.685233">
        <ele>2177.0</ele>
        <time>2015-08-02T12:54:31Z</time>
      </trkpt>
      <trkpt lat="40.320733" lon="-4.685217">
        <ele>2176.0</ele>
        <time>2015-08-02T12:54:32Z</time>
      </trkpt>
      <trkpt lat="40.320667" lon="-4.685217">
        <ele>2174.0</ele>
        <time>2015-08-02T12:54:33Z</time>
      </trkpt>
      <trkpt lat="40.320583" lon="-4.685233">
        <ele>2173.0</ele>
        <time>2015-08-02T12:54:34Z</time>
      </trkpt>
      <trkpt lat="40.320517" lon="-4.685217">
        <ele>2172.0</ele>
        <time>2015-08-02T12:54:35Z</time>
      </trkpt>
      <trkpt lat="40.320433" lon="-4.685200">
        <ele>2172.0</ele>
        <time>2015-08-02T12:54:36Z</time>
      </trkpt>
      <trkpt lat="40.320367" lon="-4.685183">
        <ele>2171.0</ele>
        <time>2015-08-02T12:54:37Z</time>
      </trkpt>
      <trkpt lat="40.320283" lon="-4.685150">
        <ele>2169.0</ele>
        <time>2015-08-02T12:54:38Z</time>
      </trkpt>
      <trkpt lat="40.320217" lon="-4.685117">
        <ele>2168.0</ele>
        <time>2015-08-02T12:54:39Z</time>
      </trkpt>
      <trkpt lat="40.320133" lon="-4.685083">
        <ele>2167.0</ele>
        <time>2015-08-02T12:54:40Z</time>
      </trkpt>
      <trkpt lat="40.320050" lon="-4.685083">
        <ele>2166.0</ele>
        <time>2015-08-02T12:54:41Z</time>
      </trkpt>
      <trkpt lat="40.319983" lon="-4.685067">
        <ele>2166.0</ele>
        <time>2015-08-02T12:54:42Z</time>
      </trkpt>
      <trkpt lat="40.319917" lon="-4.685050">
        <ele>2166.0</ele>
        <time>2015-08-02T12:54:43Z</time>
      </trkpt>
      <trkpt lat="40.319850" lon="-4.685033">
        <ele>2166.0</ele>
        <time>2015-08-02T12:54:44Z</time>
      </trkpt>
      <trkpt lat="40.319783" lon="-4.685033">
        <ele>2164.0</ele>
        <time>2015-08-02T12:54:45Z</time>
      </trkpt>
      <trkpt lat="40.319700" lon="-4.685050">
        <ele>2162.0</ele>
        <time>2015-08-02T12:54:46Z</time>
      </trkpt>
      <trkpt lat="40.319633" lon="-4.685083">
        <ele>2160.0</ele>
        <time>2015-08-02T12:54:47Z</time>
      </trkpt>
      <trkpt lat="40.319550" lon="-4.685117">
        <ele>2159.0</ele>
        <time>2015-08-02T12:54:48Z</time>
      </trkpt>
      <trkpt lat="40.319483" lon="-4.685150">
        <ele>2158.0</ele>
        <time>2015-08-02T12:54:49Z</time>
      </trkpt>
      <trkpt lat="40.319417" lon="-4.685167">
        <ele>2157.0</ele>
        <time>2015-08-02T12:54:50Z</time>
      </trkpt>
      <trkpt lat="40.319350" lon="-4.685200">
        <ele>2156.0</ele>
        <time>2015-08-02T12:54:51Z</time>
      </trkpt>
      <trkpt lat="40.319283" lon="-4.685217">
        <ele>2154.0</ele>
        <time>2015-08-02T12:54:52Z</time>
      </trkpt>
      <trkpt lat="40.319217" lon="-4.685233">
        <ele>2151.0</ele>
        <time>2015-08-02T12:54:53Z</time>
      </trkpt>
      <trkpt lat="40.319133" lon="-4.685233">
        <ele>2149.0</ele>
        <time>2015-08-02T12:54:54Z</time>
      </trkpt>
      <trkpt lat="40.319050" lon="-4.685250">
        <ele>2147.0</ele>
        <time>2015-08-02T12:54:55Z</time>
      </trkpt>
      <trkpt lat="40.318967" lon="-4.685250">
        <ele>2146.0</ele>
        <time>2015-08-02T12:54:56Z</time>
      </trkpt>
      <trkpt lat="40.318900" lon="-4.685233">
        <ele>2145.0</ele>
        <time>2015-08-02T12:54:57Z</time>
      </trkpt>
      <trkpt lat="40.318817" lon="-4.685233">
        <ele>2144.0</ele>
        <time>2015-08-02T12:54:58Z</time>
      </trkpt>
      <trkpt lat="40.318750" lon="-4.685217">
        <ele>2141.0</ele>
        <time>2015-08-02T12:54:59Z</time>
      </trkpt>
      <trkpt lat="40.318683" lon="-4.685183">
        <ele>2139.0</ele>
        <time>2015-08-02T12:55:00Z</time>
      </trkpt>
      <trkpt lat="40.318600" lon="-4.685167">
        <ele>2137.0</ele>
        <time>2015-08-02T12:55:01Z</time>
      </trkpt>
      <trkpt lat="40.318517" lon="-4.685133">
        <ele>2135.0</ele>
        <time>2015-08-02T12:55:02Z</time>
      </trkpt>
      <trkpt lat="40.318450" lon="-4.685117">
        <ele>2133.0</ele>
        <time>2015-08-02T12:55:03Z</time>
      </trkpt>
      <trkpt lat="40.318367" lon="-4.685083">
        <ele>2132.0</ele>
        <time>2015-08-02T12:55:04Z</time>
      </trkpt>
      <trkpt lat="40.318300" lon="-4.685033">
        <ele>2132.0</ele>
        <time>2015-08-02T12:55:05Z</time>
      </trkpt>
      <trkpt lat="40.318250" lon="-4.684983">
        <ele>2131.0</ele>
        <time>2015-08-02T12:55:06Z</time>
      </trkpt>
      <trkpt lat="40.318200" lon="-4.684950">
        <ele>2130.0</ele>
        <time>2015-08-02T12:55:07Z</time>
      </trkpt>
      <trkpt lat="40.318133" lon="-4.684917">
        <ele>2128.0</ele>
        <time>2015-08-02T12:55:08Z</time>
      </trkpt>
      <trkpt lat="40.318083" lon="-4.684900">
        <ele>2125.0</ele>
        <time>2015-08-02T12:55:09Z</time>
      </trkpt>
      <trkpt lat="40.318017" lon="-4.684867">
        <ele>2123.0</ele>
        <time>2015-08-02T12:55:10Z</time>
      </trkpt>
      <trkpt lat="40.317950" lon="-4.684833">
        <ele>2120.0</ele>
        <time>2015-08-02T12:55:11Z</time>
      </trkpt>
      <trkpt lat="40.317867" lon="-4.684800">
        <ele>2118.0</ele>
        <time>2015-08-02T12:55:12Z</time>
      </trkpt>
      <trkpt lat="40.317800" lon="-4.684783">
        <ele>2117.0</ele>
        <time>2015-08-02T12:55:13Z</time>
      </trkpt>
      <trkpt lat="40.317733" lon="-4.684750">
        <ele>2116.0</ele>
        <time>2015-08-02T12:55:14Z</time>
      </trkpt>
      <trkpt lat="40.317667" lon="-4.684733">
        <ele>2114.0</ele>
        <time>2015-08-02T12:55:15Z</time>
      </trkpt>
      <trkpt lat="40.317600" lon="-4.684717">
        <ele>2112.0</ele>
        <time>2015-08-02T12:55:16Z</time>
      </trkpt>
      <trkpt lat="40.317533" lon="-4.684700">
        <ele>2110.0</ele>
        <time>2015-08-02T12:55:17Z</time>
      </trkpt>
      <trkpt lat="40.317467" lon="-4.684700">
        <ele>2108.0</ele>
        <time>2015-08-02T12:55:18Z</time>
      </trkpt>
      <trkpt lat="40.317383" lon="-4.684700">
        <ele>2106.0</ele>
        <time>2015-08-02T12:55:19Z</time>
      </trkpt>
      <trkpt lat="40.317317" lon="-4.684717">
        <ele>2104.0</ele>
        <time>2015-08-02T12:55:20Z</time>
      </trkpt>
      <trkpt lat="40.317250" lon="-4.684717">
        <ele>2103.0</ele>
        <time>2015-08-02T12:55:21Z</time>
      </trkpt>
      <trkpt lat="40.317183" lon="-4.684733">
        <ele>2101.0</ele>
        <time>2015-08-02T12:55:22Z</time>
      </trkpt>
      <trkpt lat="40.317100" lon="-4.684750">
        <ele>2099.0</ele>
        <time>2015-08-02T12:55:23Z</time>
      </trkpt>
      <trkpt lat="40.317033" lon="-4.684750">
        <ele>2097.0</ele>
        <time>2015-08-02T12:55:24Z</time>
      </trkpt>
      <trkpt lat="40.316950" lon="-4.684733">
        <ele>2095.0</ele>
        <time>2015-08-02T12:55:25Z</time>
      </trkpt>
      <trkpt lat="40.316883" lon="-4.684733">
        <ele>2093.0</ele>
        <time>2015-08-02T12:55:26Z</time>
      </trkpt>
      <trkpt lat="40.316800" lon="-4.684733">
        <ele>2092.0</ele>
        <time>2015-08-02T12:55:27Z</time>
      </trkpt>
      <trkpt lat="40.316717" lon="-4.684717">
        <ele>2090.0</ele>
        <time>2015-08-02T12:55:28Z</time>
      </trkpt>
      <trkpt lat="40.316633" lon="-4.684683">
        <ele>2089.0</ele>
        <time>2015-08-02T12:55:29Z</time>
      </trkpt>
      <trkpt lat="40.316567" lon="-4.684667">
        <ele>2089.0</ele>
        <time>2015-08-02T12:55:30Z</time>
      </trkpt>
      <trkpt lat="40.316483" lon="-4.684650">
        <ele>2087.0</ele>
        <time>2015-08-02T12:55:31Z</time>
      </trkpt>
      <trkpt lat="40.316417" lon="-4.684617">
        <ele>2086.0</ele>
        <time>2015-08-02T12:55:32Z</time>
      </trkpt>
      <trkpt lat="40.316333" lon="-4.684583">
        <ele>2085.0</ele>
        <time>2015-08-02T12:55:33Z</time>
      </trkpt>
      <trkpt lat="40.316250" lon="-4.684550">
        <ele>2083.0</ele>
        <time>2015-08-02T12:55:34Z</time>
      </trkpt>
      <trkpt lat="40.316167" lon="-4.684500">
        <ele>2082.0</ele>
        <time>2015-08-02T12:55:35Z</time>
      </trkpt>
      <trkpt lat="40.316067" lon="-4.684467">
        <ele>2082.0</ele>
        <time>2015-08-02T12:55:36Z</time>
      </trkpt>
      <trkpt lat="40.315983" lon="-4.684450">
        <ele>2082.0</ele>
        <time>2015-08-02T12:55:37Z</time>
      </trkpt>
      <trkpt lat="40.315900" lon="-4.684450">
        <ele>2082.0</ele>
        <time>2015-08-02T12:55:38Z</time>
      </trkpt>
      <trkpt lat="40.315817" lon="-4.684433">
        <ele>2083.0</ele>
        <time>2015-08-02T12:55:39Z</time>
      </trkpt>
      <trkpt lat="40.315750" lon="-4.684433">
        <ele>2084.0</ele>
        <time>2015-08-02T12:55:40Z</time>
      </trkpt>
      <trkpt lat="40.315667" lon="-4.684417">
        <ele>2083.0</ele>
        <time>2015-08-02T12:55:41Z</time>
      </trkpt>
      <trkpt lat="40.315600" lon="-4.684383">
        <ele>2083.0</ele>
        <time>2015-08-02T12:55:42Z</time>
      </trkpt>
      <trkpt lat="40.315533" lon="-4.684367">
        <ele>2082.0</ele>
        <time>2015-08-02T12:55:43Z</time>
      </trkpt>
      <trkpt lat="40.315467" lon="-4.684333">
        <ele>2082.0</ele>
        <time>2015-08-02T12:55:44Z</time>
      </trkpt>
      <trkpt lat="40.315400" lon="-4.684300">
        <ele>2082.0</ele>
        <time>2015-08-02T12:55:45Z</time>
      </trkpt>
      <trkpt lat="40.315317" lon="-4.684267">
        <ele>2081.0</ele>
        <time>2015-08-02T12:55:46Z</time>
      </trkpt>
      <trkpt lat="40.315250" lon="-4.684233">
        <ele>2079.0</ele>
        <time>2015-08-02T12:55:47Z</time>
      </trkpt>
      <trkpt lat="40.315167" lon="-4.684200">
        <ele>2078.0</ele>
        <time>2015-08-02T12:55:48Z</time>
      </trkpt>
      <trkpt lat="40.315100" lon="-4.684167">
        <ele>2077.0</ele>
        <time>2015-08-02T12:55:49Z</time>
      </trkpt>
      <trkpt lat="40.315033" lon="-4.684133">
        <ele>2076.0</ele>
        <time>2015-08-02T12:55:50Z</time>
      </trkpt>
      <trkpt lat="40.314967" lon="-4.684117">
        <ele>2075.0</ele>
        <time>2015-08-02T12:55:51Z</time>
      </trkpt>
      <trkpt lat="40.314883" lon="-4.684100">
        <ele>2073.0</ele>
        <time>2015-08-02T12:55:52Z</time>
      </trkpt>
      <trkpt lat="40.314817" lon="-4.684067">
        <ele>2071.0</ele>
        <time>2015-08-02T12:55:53Z</time>
      </trkpt>
      <trkpt lat="40.314733" lon="-4.684033">
        <ele>2069.0</ele>
        <time>2015-08-02T12:55:54Z</time>
      </trkpt>
      <trkpt lat="40.314667" lon="-4.684017">
        <ele>2067.0</ele>
        <time>2015-08-02T12:55:55Z</time>
      </trkpt>
      <trkpt lat="40.314583" lon="-4.683983">
        <ele>2066.0</ele>
        <time>2015-08-02T12:55:56Z</time>
      </trkpt>
      <trkpt lat="40.314500" lon="-4.683983">
        <ele>2064.0</ele>
        <time>2015-08-02T12:55:57Z</time>
      </trkpt>
      <trkpt lat="40.314417" lon="-4.683983">
        <ele>2063.0</ele>
        <time>2015-08-02T12:55:58Z</time>
      </trkpt>
      <trkpt lat="40.314350" lon="-4.683967">
        <ele>2061.0</ele>
        <time>2015-08-02T12:55:59Z</time>
      </trkpt>
      <trkpt lat="40.314283" lon="-4.683967">
        <ele>2060.0</ele>
        <time>2015-08-02T12:56:00Z</time>
      </trkpt>
      <trkpt lat="40.314217" lon="-4.683950">
        <ele>2057.0</ele>
        <time>2015-08-02T12:56:01Z</time>
      </trkpt>
      <trkpt lat="40.314133" lon="-4.683917">
        <ele>2054.0</ele>
        <time>2015-08-02T12:56:02Z</time>
      </trkpt>
      <trkpt lat="40.314067" lon="-4.683917">
        <ele>2052.0</ele>
        <time>2015-08-02T12:56:03Z</time>
      </trkpt>
      <trkpt lat="40.313967" lon="-4.683900">
        <ele>2049.0</ele>
        <time>2015-08-02T12:56:04Z</time>
      </trkpt>
      <trkpt lat="40.313900" lon="-4.683883">
        <ele>2047.0</ele>
        <time>2015-08-02T12:56:05Z</time>
      </trkpt>
      <trkpt lat="40.313817" lon="-4.683850">
        <ele>2045.0</ele>
        <time>2015-08-02T12:56:06Z</time>
      </trkpt>
      <trkpt lat="40.313767" lon="-4.683833">
        <ele>2043.0</ele>
        <time>2015-08-02T12:56:07Z</time>
      </trkpt>
      <trkpt lat="40.313700" lon="-4.683800">
        <ele>2040.0</ele>
        <time>2015-08-02T12:56:08Z</time>
      </trkpt>
      <trkpt lat="40.313633" lon="-4.683783">
        <ele>2036.0</ele>
        <time>2015-08-02T12:56:09Z</time>
      </trkpt>
      <trkpt lat="40.313550" lon="-4.683767">
        <ele>2032.0</ele>
        <time>2015-08-02T12:56:10Z</time>
      </trkpt>
      <trkpt lat="40.313467" lon="-4.683750">
        <ele>2029.0</ele>
        <time>2015-08-02T12:56:11Z</time>
      </trkpt>
      <trkpt lat="40.313400" lon="-4.683717">
        <ele>2027.0</ele>
        <time>2015-08-02T12:56:12Z</time>
      </trkpt>
      <trkpt lat="40.313333" lon="-4.683667">
        <ele>2026.0</ele>
        <time>2015-08-02T12:56:13Z</time>
      </trkpt>
      <trkpt lat="40.313267" lon="-4.683633">
        <ele>2024.0</ele>
        <time>2015-08-02T12:56:14Z</time>
      </trkpt>
      <trkpt lat="40.313200" lon="-4.683600">
        <ele>2022.0</ele>
        <time>2015-08-02T12:56:15Z</time>
      </trkpt>
      <trkpt lat="40.313133" lon="-4.683567">
        <ele>2019.0</ele>
        <time>2015-08-02T12:56:16Z</time>
      </trkpt>
      <trkpt lat="40.313067" lon="-4.683533">
        <ele>2016.0</ele>
        <time>2015-08-02T12:56:17Z</time>
      </trkpt>
      <trkpt lat="40.313000" lon="-4.683500">
        <ele>2012.0</ele>
        <time>2015-08-02T12:56:18Z</time>
      </trkpt>
      <trkpt lat="40.312917" lon="-4.683450">
        <ele>2010.0</ele>
        <time>2015-08-02T12:56:19Z</time>
      </trkpt>
      <trkpt lat="40.312850" lon="-4.683417">
        <ele>2007.0</ele>
        <time>2015-08-02T12:56:20Z</time>
      </trkpt>
      <trkpt lat="40.312783" lon="-4.683417">
        <ele>2004.0</ele>
        <time>2015-08-02T12:56:21Z</time>
      </trkpt>
      <trkpt lat="40.312700" lon="-4.683417">
        <ele>2001.0</ele>
        <time>2015-08-02T12:56:22Z</time>
      </trkpt>
      <trkpt lat="40.312633" lon="-4.683433">
        <ele>1999.0</ele>
        <time>2015-08-02T12:56:23Z</time>
      </trkpt>
      <trkpt lat="40.312550" lon="-4.683433">
        <ele>1996.0</ele>
        <time>2015-08-02T12:56:24Z</time>
      </trkpt>
      <trkpt lat="40.312483" lon="-4.683450">
        <ele>1994.0</ele>
        <time>2015-08-02T12:56:25Z</time>
      </trkpt>
      <trkpt lat="40.312417" lon="-4.683467">
        <ele>1992.0</ele>
        <time>2015-08-02T12:56:26Z</time>
      </trkpt>
      <trkpt lat="40.312350" lon="-4.683483">
        <ele>1989.0</ele>
        <time>2015-08-02T12:56:27Z</time>
      </trkpt>
      <trkpt lat="40.312267" lon="-4.683500">
        <ele>1986.0</ele>
        <time>2015-08-02T12:56:28Z</time>
      </trkpt>
      <trkpt lat="40.312200" lon="-4.683500">
        <ele>1984.0</ele>
        <time>2015-08-02T12:56:29Z</time>
      </trkpt>
      <trkpt lat="40.312117" lon="-4.683500">
        <ele>1981.0</ele>
        <time>2015-08-02T12:56:30Z</time>
      </trkpt>
      <trkpt lat="40.312033" lon="-4.683483">
        <ele>1979.0</ele>
        <time>2015-08-02T12:56:31Z</time>
      </trkpt>
      <trkpt lat="40.311950" lon="-4.683450">
        <ele>1977.0</ele>
        <time>2015-08-02T12:56:32Z</time>
      </trkpt>
      <trkpt lat="40.311883" lon="-4.683417">
        <ele>1976.0</ele>
        <time>2015-08-02T12:56:33Z</time>
      </trkpt>
      <trkpt lat="40.311817" lon="-4.683383">
        <ele>1974.0</ele>
        <time>2015-08-02T12:56:34Z</time>
      </trkpt>
      <trkpt lat="40.311750" lon="-4.683350">
        <ele>1971.0</ele>
        <time>2015-08-02T12:56:35Z</time>
      </trkpt>
      <trkpt lat="40.311667" lon="-4.683317">
        <ele>1970.0</ele>
        <time>2015-08-02T12:56:36Z</time>
      </trkpt>
      <trkpt lat="40.311600" lon="-4.683283">
        <ele>1968.0</ele>
        <time>2015-08-02T12:56:37Z</time>
      </trkpt>
      <trkpt lat="40.311517" lon="-4.683250">
        <ele>1965.0</ele>
        <time>2015-08-02T12:56:38Z</time>
      </trkpt>
      <trkpt lat="40.311450" lon="-4.683233">
        <ele>1963.0</ele>
        <time>2015-08-02T12:56:39Z</time>
      </trkpt>
      <trkpt lat="40.311367" lon="-4.683200">
        <ele>1961.0</ele>
        <time>2015-08-02T12:56:40Z</time>
      </trkpt>
      <trkpt lat="40.311300" lon="-4.683183">
        <ele>1959.0</ele>
        <time>2015-08-02T12:56:41Z</time>
      </trkpt>
      <trkpt lat="40.311233" lon="-4.683167">
        <ele>1956.0</ele>
        <time>2015-08-02T12:56:42Z</time>
      </trkpt>
      <trkpt lat="40.311167" lon="-4.683150">
        <ele>1954.0</ele>
        <time>2015-08-02T12:56:43Z</time>
      </trkpt>
      <trkpt lat="40.311100" lon="-4.683133">
        <ele>1951.0</ele>
        <time>2015-08-02T12:56:44Z</time>
      </trkpt>
      <trkpt lat="40.311033" lon="-4.683117">
        <ele>1948.0</ele>
        <time>2015-08-02T12:56:45Z</time>
      </trkpt>
      <trkpt lat="40.310950" lon="-4.683083">
        <ele>1944.0</ele>
        <time>2015-08-02T12:56:46Z</time>
      </trkpt>
      <trkpt lat="40.310883" lon="-4.683050">
        <ele>1940.0</ele>
        <time>2015-08-02T12:56:47Z</time>
      </trkpt>
      <trkpt lat="40.310800" lon="-4.683050">
        <ele>1937.0</ele>
        <time>2015-08-02T12:56:48Z</time>
      </trkpt>
      <trkpt lat="40.310717" lon="-4.683033">
        <ele>1934.0</ele>
        <time>2015-08-02T12:56:49Z</time>
      </trkpt>
      <trkpt lat="40.310633" lon="-4.683050">
        <ele>1932.0</ele>
        <time>2015-08-02T12:56:50Z</time>
      </trkpt>
      <trkpt lat="40.310550" lon="-4.683050">
        <ele>1929.0</ele>
        <time>2015-08-02T12:56:51Z</time>
      </trkpt>
      <trkpt lat="40.310467" lon="-4.683050">
        <ele>1928.0</ele>
        <time>2015-08-02T12:56:52Z</time>
      </trkpt>
      <trkpt lat="40.310400" lon="-4.683067">
        <ele>1926.0</ele>
        <time>2015-08-02T12:56:53Z</time>
      </trkpt>
      <trkpt lat="40.310333" lon="-4.683067">
        <ele>1924.0</ele>
        <time>2015-08-02T12:56:54Z</time>
      </trkpt>
      <trkpt lat="40.310267" lon="-4.683083">
        <ele>1921.0</ele>
        <time>2015-08-02T12:56:55Z</time>
      </trkpt>
      <trkpt lat="40.310183" lon="-4.683083">
        <ele>1918.0</ele>
        <time>2015-08-02T12:56:56Z</time>
      </trkpt>
      <trkpt lat="40.310100" lon="-4.683083">
        <ele>1915.0</ele>
        <time>2015-08-02T12:56:57Z</time>
      </trkpt>
      <trkpt lat="40.310000" lon="-4.683067">
        <ele>1913.0</ele>
        <time>2015-08-02T12:56:58Z</time>
      </trkpt>
      <trkpt lat="40.309917" lon="-4.683050">
        <ele>1912.0</ele>
        <time>2015-08-02T12:56:59Z</time>
      </trkpt>
      <trkpt lat="40.309833" lon="-4.683017">
        <ele>1911.0</ele>
        <time>2015-08-02T12:57:00Z</time>
      </trkpt>
      <trkpt lat="40.309750" lon="-4.682983">
        <ele>1910.0</ele>
        <time>2015-08-02T12:57:01Z</time>
      </trkpt>
      <trkpt lat="40.309683" lon="-4.682950">
        <ele>1909.0</ele>
        <time>2015-08-02T12:57:02Z</time>
      </trkpt>
      <trkpt lat="40.309600" lon="-4.682917">
        <ele>1907.0</ele>
        <time>2015-08-02T12:57:03Z</time>
      </trkpt>
      <trkpt lat="40.309517" lon="-4.682917">
        <ele>1906.0</ele>
        <time>2015-08-02T12:57:04Z</time>
      </trkpt>
      <trkpt lat="40.309450" lon="-4.682917">
        <ele>1904.0</ele>
        <time>2015-08-02T12:57:05Z</time>
      </trkpt>
      <trkpt lat="40.309367" lon="-4.682900">
        <ele>1903.0</ele>
        <time>2015-08-02T12:57:06Z</time>
      </trkpt>
      <trkpt lat="40.309283" lon="-4.682900">
        <ele>1901.0</ele>
        <time>2015-08-02T12:57:07Z</time>
      </trkpt>
      <trkpt lat="40.309217" lon="-4.682883">
        <ele>1900.0</ele>
        <time>2015-08-02T12:57:08Z</time>
      </trkpt>
      <trkpt lat="40.309150" lon="-4.682883">
        <ele>1898.0</ele>
        <time>2015-08-02T12:57:09Z</time>
      </trkpt>
      <trkpt lat="40.309083" lon="-4.682900">
        <ele>1896.0</ele>
        <time>2015-08-02T12:57:10Z</time>
      </trkpt>
      <trkpt lat="40.309017" lon="-4.682900">
        <ele>1893.0</ele>
        <time>2015-08-02T12:57:11Z</time>
      </trkpt>
      <trkpt lat="40.308950" lon="-4.682917">
        <ele>1890.0</ele>
        <time>2015-08-02T12:57:12Z</time>
      </trkpt>
      <trkpt lat="40.308883" lon="-4.682933">
        <ele>1887.0</ele>
        <time>2015-08-02T12:57:13Z</time>
      </trkpt>
      <trkpt lat="40.308800" lon="-4.682933">
        <ele>1884.0</ele>
        <time>2015-08-02T12:57:14Z</time>
      </trkpt>
      <trkpt lat="40.308733" lon="-4.682933">
        <ele>1882.0</ele>
        <time>2015-08-02T12:57:15Z</time>
      </trkpt>
      <trkpt lat="40.308667" lon="-4.682933">
        <ele>1880.0</ele>
        <time>2015-08-02T12:57:16Z</time>
      </trkpt>
      <trkpt lat="40.308600" lon="-4.682917">
        <ele>1877.0</ele>
        <time>2015-08-02T12:57:17Z</time>
      </trkpt>
      <trkpt lat="40.308533" lon="-4.682900">
        <ele>1874.0</ele>
        <time>2015-08-02T12:57:18Z</time>
      </trkpt>
      <trkpt lat="40.308467" lon="-4.682883">
        <ele>1871.0</ele>
        <time>2015-08-02T12:57:19Z</time>
      </trkpt>
      <trkpt lat="40.308400" lon="-4.682867">
        <ele>1867.0</ele>
        <time>2015-08-02T12:57:20Z</time>
      </trkpt>
      <trkpt lat="40.308317" lon="-4.682833">
        <ele>1865.0</ele>
        <time>2015-08-02T12:57:21Z</time>
      </trkpt>
      <trkpt lat="40.308250" lon="-4.682817">
        <ele>1862.0</ele>
        <time>2015-08-02T12:57:22Z</time>
      </trkpt>
      <trkpt lat="40.308183" lon="-4.682800">
        <ele>1860.0</ele>
        <time>2015-08-02T12:57:23Z</time>
      </trkpt>
      <trkpt lat="40.308100" lon="-4.682783">
        <ele>1857.0</ele>
        <time>2015-08-02T12:57:24Z</time>
      </trkpt>
      <trkpt lat="40.308033" lon="-4.682783">
        <ele>1854.0</ele>
        <time>2015-08-02T12:57:25Z</time>
      </trkpt>
      <trkpt lat="40.307967" lon="-4.682783">
        <ele>1850.0</ele>
        <time>2015-08-02T12:57:26Z</time>
      </trkpt>
      <trkpt lat="40.307900" lon="-4.682783">
        <ele>1846.0</ele>
        <time>2015-08-02T12:57:27Z</time>
      </trkpt>
      <trkpt lat="40.307817" lon="-4.682783">
        <ele>1842.0</ele>
        <time>2015-08-02T12:57:28Z</time>
      </trkpt>
      <trkpt lat="40.307733" lon="-4.682800">
        <ele>1839.0</ele>
        <time>2015-08-02T12:57:29Z</time>
      </trkpt>
      <trkpt lat="40.307650" lon="-4.682817">
        <ele>1836.0</ele>
        <time>2015-08-02T12:57:30Z</time>
      </trkpt>
      <trkpt lat="40.307583" lon="-4.682833">
        <ele>1834.0</ele>
        <time>2015-08-02T12:57:31Z</time>
      </trkpt>
      <trkpt lat="40.307517" lon="-4.682850">
        <ele>1831.0</ele>
        <time>2015-08-02T12:57:32Z</time>
      </trkpt>
      <trkpt lat="40.307450" lon="-4.682850">
        <ele>1828.0</ele>
        <time>2015-08-02T12:57:33Z</time>
      </trkpt>
      <trkpt lat="40.307383" lon="-4.682850">
        <ele>1824.0</ele>
        <time>2015-08-02T12:57:34Z</time>
      </trkpt>
      <trkpt lat="40.307300" lon="-4.682850">
        <ele>1820.0</ele>
        <time>2015-08-02T12:57:35Z</time>
      </trkpt>
      <trkpt lat="40.307217" lon="-4.682850">
        <ele>1817.0</ele>
        <time>2015-08-02T12:57:36Z</time>
      </trkpt>
      <trkpt lat="40.307150" lon="-4.682833">
        <ele>1814.0</ele>
        <time>2015-08-02T12:57:37Z</time>
      </trkpt>
      <trkpt lat="40.307067" lon="-4.682817">
        <ele>1811.0</ele>
        <time>2015-08-02T12:57:38Z</time>
      </trkpt>
      <trkpt lat="40.306983" lon="-4.682817">
        <ele>1809.0</ele>
        <time>2015-08-02T12:57:39Z</time>
      </trkpt>
      <trkpt lat="40.306917" lon="-4.682817">
        <ele>1806.0</ele>
        <time>2015-08-02T12:57:40Z</time>
      </trkpt>
      <trkpt lat="40.306850" lon="-4.682817">
        <ele>1802.0</ele>
        <time>2015-08-02T12:57:41Z</time>
      </trkpt>
      <trkpt lat="40.306767" lon="-4.682817">
        <ele>1799.0</ele>
        <time>2015-08-02T12:57:42Z</time>
      </trkpt>
      <trkpt lat="40.306683" lon="-4.682817">
        <ele>1795.0</ele>
        <time>2015-08-02T12:57:43Z</time>
      </trkpt>
      <trkpt lat="40.306600" lon="-4.682800">
        <ele>1792.0</ele>
        <time>2015-08-02T12:57:44Z</time>
      </trkpt>
      <trkpt lat="40.306533" lon="-4.682800">
        <ele>1790.0</ele>
        <time>2015-08-02T12:57:45Z</time>
      </trkpt>
      <trkpt lat="40.306450" lon="-4.682800">
        <ele>1787.0</ele>
        <time>2015-08-02T12:57:46Z</time>
      </trkpt>
      <trkpt lat="40.306383" lon="-4.682817">
        <ele>1785.0</ele>
        <time>2015-08-02T12:57:47Z</time>
      </trkpt>
      <trkpt lat="40.306317" lon="-4.682800">
        <ele>1783.0</ele>
        <time>2015-08-02T12:57:48Z</time>
      </trkpt>
      <trkpt lat="40.306250" lon="-4.682750">
        <ele>1781.0</ele>
        <time>2015-08-02T12:57:49Z</time>
      </trkpt>
      <trkpt lat="40.306183" lon="-4.682683">
        <ele>1778.0</ele>
        <time>2015-08-02T12:57:50Z</time>
      </trkpt>
      <trkpt lat="40.306133" lon="-4.682583">
        <ele>1774.0</ele>
        <time>2015-08-02T12:57:51Z</time>
      </trkpt>
      <trkpt lat="40.306083" lon="-4.682467">
        <ele>1771.0</ele>
        <time>2015-08-02T12:57:52Z</time>
      </trkpt>
      <trkpt lat="40.306050" lon="-4.682333">
        <ele>1769.0</ele>
        <time>2015-08-02T12:57:53Z</time>
      </trkpt>
      <trkpt lat="40.306033" lon="-4.682200">
        <ele>1766.0</ele>
        <time>2015-08-02T12:57:54Z</time>
      </trkpt>
      <trkpt lat="40.306033" lon="-4.682050">
        <ele>1763.0</ele>
        <time>2015-08-02T12:57:55Z</time>
      </trkpt>
      <trkpt lat="40.306033" lon="-4.681883">
        <ele>1761.0</ele>
        <time>2015-08-02T12:57:56Z</time>
      </trkpt>
      <trkpt lat="40.306050" lon="-4.681733">
        <ele>1760.0</ele>
        <time>2015-08-02T12:57:57Z</time>
      </trkpt>
      <trkpt lat="40.306067" lon="-4.681583">
        <ele>1758.0</ele>
        <time>2015-08-02T12:57:58Z</time>
      </trkpt>
      <trkpt lat="40.306100" lon="-4.681433">
        <ele>1755.0</ele>
        <time>2015-08-02T12:57:59Z</time>
      </trkpt>
      <trkpt lat="40.306150" lon="-4.681283">
        <ele>1752.0</ele>
        <time>2015-08-02T12:58:00Z</time>
      </trkpt>
      <trkpt lat="40.306200" lon="-4.681133">
        <ele>1749.0</ele>
        <time>2015-08-02T12:58:01Z</time>
      </trkpt>
      <trkpt lat="40.306267" lon="-4.680967">
        <ele>1746.0</ele>
        <time>2015-08-02T12:58:02Z</time>
      </trkpt>
      <trkpt lat="40.306317" lon="-4.680817">
        <ele>1744.0</ele>
        <time>2015-08-02T12:58:03Z</time>
      </trkpt>
      <trkpt lat="40.306383" lon="-4.680667">
        <ele>1743.0</ele>
        <time>2015-08-02T12:58:04Z</time>
      </trkpt>
      <trkpt lat="40.306433" lon="-4.680517">
        <ele>1741.0</ele>
        <time>2015-08-02T12:58:05Z</time>
      </trkpt>
      <trkpt lat="40.306483" lon="-4.680367">
        <ele>1740.0</ele>
        <time>2015-08-02T12:58:06Z</time>
      </trkpt>
      <trkpt lat="40.306550" lon="-4.680217">
        <ele>1738.0</ele>
        <time>2015-08-02T12:58:07Z</time>
      </trkpt>
      <trkpt lat="40.306633" lon="-4.680067">
        <ele>1736.0</ele>
        <time>2015-08-02T12:58:08Z</time>
      </trkpt>
      <trkpt lat="40.306717" lon="-4.679933">
        <ele>1735.0</ele>
        <time>2015-08-02T12:58:09Z</time>
      </trkpt>
      <trkpt lat="40.306800" lon="-4.679800">
        <ele>1733.0</ele>
        <time>2015-08-02T12:58:10Z</time>
      </trkpt>
      <trkpt lat="40.306867" lon="-4.679667">
        <ele>1732.0</ele>
        <time>2015-08-02T12:58:11Z</time>
      </trkpt>
      <trkpt lat="40.306933" lon="-4.679533">
        <ele>1731.0</ele>
        <time>2015-08-02T12:58:12Z</time>
      </trkpt>
      <trkpt lat="40.307017" lon="-4.679400">
        <ele>1730.0</ele>
        <time>2015-08-02T12:58:13Z</time>
      </trkpt>
      <trkpt lat="40.307100" lon="-4.679283">
        <ele>1728.0</ele>
        <time>2015-08-02T12:58:14Z</time>
      </trkpt>
      <trkpt lat="40.307217" lon="-4.679150">
        <ele>1727.0</ele>
        <time>2015-08-02T12:58:15Z</time>
      </trkpt>
      <trkpt lat="40.307300" lon="-4.679067">
        <ele>1725.0</ele>
        <time>2015-08-02T12:58:16Z</time>
      </trkpt>
      <trkpt lat="40.307400" lon="-4.678983">
        <ele>1723.0</ele>
        <time>2015-08-02T12:58:17Z</time>
      </trkpt>
      <trkpt lat="40.307500" lon="-4.678883">
        <ele>1721.0</ele>
        <time>2015-08-02T12:58:18Z</time>
      </trkpt>
      <trkpt lat="40.307617" lon="-4.678783">
        <ele>1720.0</ele>
        <time>2015-08-02T12:58:19Z</time>
      </trkpt>
      <trkpt lat="40.307733" lon="-4.678717">
        <ele>1719.0</ele>
        <time>2015-08-02T12:58:20Z</time>
      </trkpt>
      <trkpt lat="40.307850" lon="-4.678667">
        <ele>1717.0</ele>
        <time>2015-08-02T12:58:21Z</time>
      </trkpt>
      <trkpt lat="40.307967" lon="-4.678600">
        <ele>1714.0</ele>
        <time>2015-08-02T12:58:22Z</time>
      </trkpt>
      <trkpt lat="40.308083" lon="-4.678533">
        <ele>1711.0</ele>
        <time>2015-08-02T12:58:23Z</time>
      </trkpt>
      <trkpt lat="40.308200" lon="-4.678433">
        <ele>1708.0</ele>
        <time>2015-08-02T12:58:24Z</time>
      </trkpt>
      <trkpt lat="40.308333" lon="-4.678333">
        <ele>1705.0</ele>
        <time>2015-08-02T12:58:25Z</time>
      </trkpt>
      <trkpt lat="40.308467" lon="-4.678250">
        <ele>1703.0</ele>
        <time>2015-08-02T12:58:26Z</time>
      </trkpt>
      <trkpt lat="40.308583" lon="-4.678183">
        <ele>1701.0</ele>
        <time>2015-08-02T12:58:27Z</time>
      </trkpt>
      <trkpt lat="40.308717" lon="-4.678117">
        <ele>1700.0</ele>
        <time>2015-08-02T12:58:28Z</time>
      </trkpt>
      <trkpt lat="40.308833" lon="-4.678050">
        <ele>1698.0</ele>
        <time>2015-08-02T12:58:29Z</time>
      </trkpt>
      <trkpt lat="40.308967" lon="-4.677967">
        <ele>1697.0</ele>
        <time>2015-08-02T12:58:30Z</time>
      </trkpt>
      <trkpt lat="40.309083" lon="-4.677900">
        <ele>1695.0</ele>
        <time>2015-08-02T12:58:31Z</time>
      </trkpt>
      <trkpt lat="40.309200" lon="-4.677833">
        <ele>1693.0</ele>
        <time>2015-08-02T12:58:32Z</time>
      </trkpt>
      <trkpt lat="40.309317" lon="-4.677750">
        <ele>1690.0</ele>
        <time>2015-08-02T12:58:33Z</time>
      </trkpt>
      <trkpt lat="40.309433" lon="-4.677667">
        <ele>1687.0</ele>
        <time>2015-08-02T12:58:34Z</time>
      </trkpt>
      <trkpt lat="40.309567" lon="-4.677583">
        <ele>1683.0</ele>
        <time>2015-08-02T12:58:35Z</time>
      </trkpt>
      <trkpt lat="40.309683" lon="-4.677500">
        <ele>1680.0</ele>
        <time>2015-08-02T12:58:36Z</time>
      </trkpt>
      <trkpt lat="40.309817" lon="-4.677433">
        <ele>1677.0</ele>
        <time>2015-08-02T12:58:37Z</time>
      </trkpt>
      <trkpt lat="40.309933" lon="-4.677367">
        <ele>1674.0</ele>
        <time>2015-08-02T12:58:38Z</time>
      </trkpt>
      <trkpt lat="40.310050" lon="-4.677300">
        <ele>1670.0</ele>
        <time>2015-08-02T12:58:39Z</time>
      </trkpt>
      <trkpt lat="40.310167" lon="-4.677233">
        <ele>1666.0</ele>
        <time>2015-08-02T12:58:40Z</time>
      </trkpt>
      <trkpt lat="40.310300" lon="-4.677167">
        <ele>1662.0</ele>
        <time>2015-08-02T12:58:41Z</time>
      </trkpt>
      <trkpt lat="40.310417" lon="-4.677067">
        <ele>1659.0</ele>
        <time>2015-08-02T12:58:42Z</time>
      </trkpt>
      <trkpt lat="40.310550" lon="-4.676983">
        <ele>1656.0</ele>
        <time>2015-08-02T12:58:43Z</time>
      </trkpt>
      <trkpt lat="40.310667" lon="-4.676917">
        <ele>1654.0</ele>
        <time>2015-08-02T12:58:44Z</time>
      </trkpt>
      <trkpt lat="40.310800" lon="-4.676867">
        <ele>1652.0</ele>
        <time>2015-08-02T12:58:45Z</time>
      </trkpt>
      <trkpt lat="40.310933" lon="-4.676817">
        <ele>1649.0</ele>
        <time>2015-08-02T12:58:46Z</time>
      </trkpt>
      <trkpt lat="40.311050" lon="-4.676767">
        <ele>1646.0</ele>
        <time>2015-08-02T12:58:47Z</time>
      </trkpt>
      <trkpt lat="40.311183" lon="-4.676683">
        <ele>1643.0</ele>
        <time>2015-08-02T12:58:48Z</time>
      </trkpt>
      <trkpt lat="40.311333" lon="-4.676600">
        <ele>1639.0</ele>
        <time>2015-08-02T12:58:49Z</time>
      </trkpt>
      <trkpt lat="40.311467" lon="-4.676517">
        <ele>1637.0</ele>
        <time>2015-08-02T12:58:50Z</time>
      </trkpt>
      <trkpt lat="40.311583" lon="-4.676433">
        <ele>1634.0</ele>
        <time>2015-08-02T12:58:51Z</time>
      </trkpt>
      <trkpt lat="40.311700" lon="-4.676350">
        <ele>1632.0</ele>
        <time>2015-08-02T12:58:52Z</time>
      </trkpt>
      <trkpt lat="40.311817" lon="-4.676267">
        <ele>1629.0</ele>
        <time>2015-08-02T12:58:53Z</time>
      </trkpt>
      <trkpt lat="40.311917" lon="-4.676183">
        <ele>1626.0</ele>
        <time>2015-08-02T12:58:54Z</time>
      </trkpt>
      <trkpt lat="40.312017" lon="-4.676083">
        <ele>1623.0</ele>
        <time>2015-08-02T12:58:55Z</time>
      </trkpt>
      <trkpt lat="40.312117" lon="-4.675967">
        <ele>1619.0</ele>
        <time>2015-08-02T12:58:56Z</time>
      </trkpt>
      <trkpt lat="40.312217" lon="-4.675850">
        <ele>1616.0</ele>
        <time>2015-08-02T12:58:57Z</time>
      </trkpt>
      <trkpt lat="40.312333" lon="-4.675750">
        <ele>1613.0</ele>
        <time>2015-08-02T12:58:58Z</time>
      </trkpt>
      <trkpt lat="40.312433" lon="-4.675650">
        <ele>1611.0</ele>
        <time>2015-08-02T12:58:59Z</time>
      </trkpt>
      <trkpt lat="40.312550" lon="-4.675567">
        <ele>1609.0</ele>
        <time>2015-08-02T12:59:00Z</time>
      </trkpt>
      <trkpt lat="40.312650" lon="-4.675483">
        <ele>1605.0</ele>
        <time>2015-08-02T12:59:01Z</time>
      </trkpt>
      <trkpt lat="40.312767" lon="-4.675400">
        <ele>1602.0</ele>
        <time>2015-08-02T12:59:02Z</time>
      </trkpt>
      <trkpt lat="40.312883" lon="-4.675333">
        <ele>1598.0</ele>
        <time>2015-08-02T12:59:03Z</time>
      </trkpt>
      <trkpt lat="40.313017" lon="-4.675267">
        <ele>1595.0</ele>
        <time>2015-08-02T12:59:04Z</time>
      </trkpt>
      <trkpt lat="40.313133" lon="-4.675200">
        <ele>1593.0</ele>
        <time>2015-08-02T12:59:05Z</time>
      </trkpt>
      <trkpt lat="40.313250" lon="-4.675150">
        <ele>1591.0</ele>
        <time>2015-08-02T12:59:06Z</time>
      </trkpt>
      <trkpt lat="40.313367" lon="-4.675117">
        <ele>1589.0</ele>
        <time>2015-08-02T12:59:07Z</time>
      </trkpt>
      <trkpt lat="40.313483" lon="-4.675067">
        <ele>1587.0</ele>
        <time>2015-08-02T12:59:08Z</time>
      </trkpt>
      <trkpt lat="40.313600" lon="-4.675017">
        <ele>1584.0</ele>
        <time>2015-08-02T12:59:09Z</time>
      </trkpt>
      <trkpt lat="40.313717" lon="-4.674967">
        <ele>1580.0</ele>
        <time>2015-08-02T12:59:10Z</time>
      </trkpt>
      <trkpt lat="40.313850" lon="-4.674917">
        <ele>1577.0</ele>
        <time>2015-08-02T12:59:11Z</time>
      </trkpt>
      <trkpt lat="40.313967" lon="-4.674867">
        <ele>1574.0</ele>
        <time>2015-08-02T12:59:12Z</time>
      </trkpt>
      <trkpt lat="40.314083" lon="-4.674817">
        <ele>1570.0</ele>
        <time>2015-08-02T12:59:13Z</time>
      </trkpt>
      <trkpt lat="40.314200" lon="-4.674767">
        <ele>1567.0</ele>
        <time>2015-08-02T12:59:14Z</time>
      </trkpt>
      <trkpt lat="40.314333" lon="-4.674700">
        <ele>1563.0</ele>
        <time>2015-08-02T12:59:15Z</time>
      </trkpt>
      <trkpt lat="40.314467" lon="-4.674650">
        <ele>1561.0</ele>
        <time>2015-08-02T12:59:16Z</time>
      </trkpt>
      <trkpt lat="40.314600" lon="-4.674583">
        <ele>1559.0</ele>
        <time>2015-08-02T12:59:17Z</time>
      </trkpt>
      <trkpt lat="40.314717" lon="-4.674517">
        <ele>1559.0</ele>
        <time>2015-08-02T12:59:18Z</time>
      </trkpt>
      <trkpt lat="40.314833" lon="-4.674467">
        <ele>1558.0</ele>
        <time>2015-08-02T12:59:19Z</time>
      </trkpt>
      <trkpt lat="40.314950" lon="-4.674400">
        <ele>1557.0</ele>
        <time>2015-08-02T12:59:20Z</time>
      </trkpt>
      <trkpt lat="40.315067" lon="-4.674350">
        <ele>1556.0</ele>
        <time>2015-08-02T12:59:21Z</time>
      </trkpt>
      <trkpt lat="40.315200" lon="-4.674283">
        <ele>1553.0</ele>
        <time>2015-08-02T12:59:22Z</time>
      </trkpt>
      <trkpt lat="40.315317" lon="-4.674233">
        <ele>1550.0</ele>
        <time>2015-08-02T12:59:23Z</time>
      </trkpt>
      <trkpt lat="40.315467" lon="-4.674183">
        <ele>1547.0</ele>
        <time>2015-08-02T12:59:24Z</time>
      </trkpt>
      <trkpt lat="40.315600" lon="-4.674150">
        <ele>1545.0</ele>
        <time>2015-08-02T12:59:25Z</time>
      </trkpt>
      <trkpt lat="40.315733" lon="-4.674100">
        <ele>1543.0</ele>
        <time>2015-08-02T12:59:26Z</time>
      </trkpt>
      <trkpt lat="40.315867" lon="-4.674067">
        <ele>1541.0</ele>
        <time>2015-08-02T12:59:27Z</time>
      </trkpt>
      <trkpt lat="40.316000" lon="-4.674050">
        <ele>1539.0</ele>
        <time>2015-08-02T12:59:28Z</time>
      </trkpt>
      <trkpt lat="40.316133" lon="-4.674033">
        <ele>1537.0</ele>
        <time>2015-08-02T12:59:29Z</time>
      </trkpt>
      <trkpt lat="40.316267" lon="-4.674000">
        <ele>1535.0</ele>
        <time>2015-08-02T12:59:30Z</time>
      </trkpt>
      <trkpt lat="40.316400" lon="-4.673983">
        <ele>1532.0</ele>
        <time>2015-08-02T12:59:31Z</time>
      </trkpt>
      <trkpt lat="40.316533" lon="-4.673967">
        <ele>1529.0</ele>
        <time>2015-08-02T12:59:32Z</time>
      </trkpt>
      <trkpt lat="40.316667" lon="-4.673933">
        <ele>1525.0</ele>
        <time>2015-08-02T12:59:33Z</time>
      </trkpt>
      <trkpt lat="40.316817" lon="-4.673917">
        <ele>1523.0</ele>
        <time>2015-08-02T12:59:34Z</time>
      </trkpt>
      <trkpt lat="40.316950" lon="-4.673900">
        <ele>1521.0</ele>
        <time>2015-08-02T12:59:35Z</time>
      </trkpt>
      <trkpt lat="40.317100" lon="-4.673867">
        <ele>1519.0</ele>
        <time>2015-08-02T12:59:36Z</time>
      </trkpt>
      <trkpt lat="40.317233" lon="-4.673850">
        <ele>1516.0</ele>
        <time>2015-08-02T12:59:37Z</time>
      </trkpt>
      <trkpt lat="40.317367" lon="-4.673817">
        <ele>1513.0</ele>
        <time>2015-08-02T12:59:38Z</time>
      </trkpt>
      <trkpt lat="40.317483" lon="-4.673783">
        <ele>1510.0</ele>
        <time>2015-08-02T12:59:39Z</time>
      </trkpt>
      <trkpt lat="40.317617" lon="-4.673750">
        <ele>1507.0</ele>
        <time>2015-08-02T12:59:40Z</time>
      </trkpt>
      <trkpt lat="40.317750" lon="-4.673717">
        <ele>1504.0</ele>
        <time>2015-08-02T12:59:41Z</time>
      </trkpt>
      <trkpt lat="40.317883" lon="-4.673683">
        <ele>1500.0</ele>
        <time>2015-08-02T12:59:42Z</time>
      </trkpt>
      <trkpt lat="40.318000" lon="-4.673633">
        <ele>1498.0</ele>
        <time>2015-08-02T12:59:43Z</time>
      </trkpt>
      <trkpt lat="40.318133" lon="-4.673600">
        <ele>1496.0</ele>
        <time>2015-08-02T12:59:44Z</time>
      </trkpt>
      <trkpt lat="40.318267" lon="-4.673550">
        <ele>1495.0</ele>
        <time>2015-08-02T12:59:45Z</time>
      </trkpt>
      <trkpt lat="40.318400" lon="-4.673500">
        <ele>1493.0</ele>
        <time>2015-08-02T12:59:46Z</time>
      </trkpt>
      <trkpt lat="40.318517" lon="-4.673450">
        <ele>1490.0</ele>
        <time>2015-08-02T12:59:47Z</time>
      </trkpt>
      <trkpt lat="40.318650" lon="-4.673417">
        <ele>1488.0</ele>
        <time>2015-08-02T12:59:48Z</time>
      </trkpt>
      <trkpt lat="40.318783" lon="-4.673383">
        <ele>1485.0</ele>
        <time>2015-08-02T12:59:49Z</time>
      </trkpt>
      <trkpt lat="40.318917" lon="-4.673350">
        <ele>1483.0</ele>
        <time>2015-08-02T12:59:50Z</time>
      </trkpt>
      <trkpt lat="40.319050" lon="-4.673333">
        <ele>1480.0</ele>
        <time>2015-08-02T12:59:51Z</time>
      </trkpt>
      <trkpt lat="40.319167" lon="-4.673300">
        <ele>1478.0</ele>
        <time>2015-08-02T12:59:52Z</time>
      </trkpt>
      <trkpt lat="40.319300" lon="-4.673267">
        <ele>1475.0</ele>
        <time>2015-08-02T12:59:53Z</time>
      </trkpt>
      <trkpt lat="40.319433" lon="-4.673233">
        <ele>1473.0</ele>
        <time>2015-08-02T12:59:54Z</time>
      </trkpt>
      <trkpt lat="40.319567" lon="-4.673200">
        <ele>1471.0</ele>
        <time>2015-08-02T12:59:55Z</time>
      </trkpt>
      <trkpt lat="40.319700" lon="-4.673167">
        <ele>1469.0</ele>
        <time>2015-08-02T12:59:56Z</time>
      </trkpt>
      <trkpt lat="40.319833" lon="-4.673133">
        <ele>1467.0</ele>
        <time>2015-08-02T12:59:57Z</time>
      </trkpt>
      <trkpt lat="40.319967" lon="-4.673117">
        <ele>1464.0</ele>
        <time>2015-08-02T12:59:58Z</time>
      </trkpt>
      <trkpt lat="40.320100" lon="-4.673083">
        <ele>1462.0</ele>
        <time>2015-08-02T12:59:59Z</time>
      </trkpt>
      <trkpt lat="40.320233" lon="-4.673067">
        <ele>1459.0</ele>
        <time>2015-08-02T13:00:00Z</time>
      </trkpt>
      <trkpt lat="40.320367" lon="-4.673033">
        <ele>1457.0</ele>
        <time>2015-08-02T13:00:01Z</time>
      </trkpt>
      <trkpt lat="40.320500" lon="-4.673017">
        <ele>1456.0</ele>
        <time>2015-08-02T13:00:02Z</time>
      </trkpt>
      <trkpt lat="40.320617" lon="-4.673000">
        <ele>1454.0</ele>
        <time>2015-08-02T13:00:03Z</time>
      </trkpt>
      <trkpt lat="40.320750" lon="-4.672983">
        <ele>1451.0</ele>
        <time>2015-08-02T13:00:04Z</time>
      </trkpt>
      <trkpt lat="40.320883" lon="-4.672967">
        <ele>1448.0</ele>
        <time>2015-08-02T13:00:05Z</time>
      </trkpt>
      <trkpt lat="40.321017" lon="-4.672950">
        <ele>1446.0</ele>
        <time>2015-08-02T13:00:06Z</time>
      </trkpt>
      <trkpt lat="40.321150" lon="-4.672933">
        <ele>1445.0</ele>
        <time>2015-08-02T13:00:07Z</time>
      </trkpt>
      <trkpt lat="40.321283" lon="-4.672917">
        <ele>1444.0</ele>
        <time>2015-08-02T13:00:08Z</time>
      </trkpt>
      <trkpt lat="40.321400" lon="-4.672900">
        <ele>1443.0</ele>
        <time>2015-08-02T13:00:09Z</time>
      </trkpt>
      <trkpt lat="40.321533" lon="-4.672850">
        <ele>1441.0</ele>
        <time>2015-08-02T13:00:10Z</time>
      </trkpt>
      <trkpt lat="40.321650" lon="-4.672783">
        <ele>1439.0</ele>
        <time>2015-08-02T13:00:11Z</time>
      </trkpt>
      <trkpt lat="40.321767" lon="-4.672683">
        <ele>1437.0</ele>
        <time>2015-08-02T13:00:12Z</time>
      </trkpt>
      <trkpt lat="40.321883" lon="-4.672550">
        <ele>1435.0</ele>
        <time>2015-08-02T13:00:13Z</time>
      </trkpt>
      <trkpt lat="40.321967" lon="-4.672417">
        <ele>1434.0</ele>
        <time>2015-08-02T13:00:14Z</time>
      </trkpt>
      <trkpt lat="40.322033" lon="-4.672283">
        <ele>1433.0</ele>
        <time>2015-08-02T13:00:15Z</time>
      </trkpt>
      <trkpt lat="40.322083" lon="-4.672133">
        <ele>1432.0</ele>
        <time>2015-08-02T13:00:16Z</time>
      </trkpt>
      <trkpt lat="40.322117" lon="-4.671983">
        <ele>1430.0</ele>
        <time>2015-08-02T13:00:17Z</time>
      </trkpt>
      <trkpt lat="40.322117" lon="-4.671833">
        <ele>1428.0</ele>
        <time>2015-08-02T13:00:18Z</time>
      </trkpt>
      <trkpt lat="40.322117" lon="-4.671683">
        <ele>1426.0</ele>
        <time>2015-08-02T13:00:19Z</time>
      </trkpt>
      <trkpt lat="40.322100" lon="-4.671550">
        <ele>1424.0</ele>
        <time>2015-08-02T13:00:20Z</time>
      </trkpt>
      <trkpt lat="40.322067" lon="-4.671400">
        <ele>1422.0</ele>
        <time>2015-08-02T13:00:21Z</time>
      </trkpt>
      <trkpt lat="40.322017" lon="-4.671283">
        <ele>1421.0</ele>
        <time>2015-08-02T13:00:22Z</time>
      </trkpt>
      <trkpt lat="40.321983" lon="-4.671167">
        <ele>1420.0</ele>
        <time>2015-08-02T13:00:23Z</time>
      </trkpt>
      <trkpt lat="40.321933" lon="-4.671050">
        <ele>1420.0</ele>
        <time>2015-08-02T13:00:24Z</time>
      </trkpt>
      <trkpt lat="40.321900" lon="-4.670950">
        <ele>1420.0</ele>
        <time>2015-08-02T13:00:25Z</time>
      </trkpt>
      <trkpt lat="40.321850" lon="-4.670850">
        <ele>1418.0</ele>
        <time>2015-08-02T13:00:26Z</time>
      </trkpt>
      <trkpt lat="40.321817" lon="-4.670750">
        <ele>1416.0</ele>
        <time>2015-08-02T13:00:27Z</time>
      </trkpt>
      <trkpt lat="40.321767" lon="-4.670650">
        <ele>1413.0</ele>
        <time>2015-08-02T13:00:28Z</time>
      </trkpt>
      <trkpt lat="40.321717" lon="-4.670550">
        <ele>1411.0</ele>
        <time>2015-08-02T13:00:29Z</time>
      </trkpt>
      <trkpt lat="40.321667" lon="-4.670450">
        <ele>1409.0</ele>
        <time>2015-08-02T13:00:30Z</time>
      </trkpt>
      <trkpt lat="40.321617" lon="-4.670350">
        <ele>1406.0</ele>
        <time>2015-08-02T13:00:31Z</time>
      </trkpt>
      <trkpt lat="40.321567" lon="-4.670267">
        <ele>1404.0</ele>
        <time>2015-08-02T13:00:32Z</time>
      </trkpt>
      <trkpt lat="40.321517" lon="-4.670167">
        <ele>1402.0</ele>
        <time>2015-08-02T13:00:33Z</time>
      </trkpt>
      <trkpt lat="40.321467" lon="-4.670067">
        <ele>1399.0</ele>
        <time>2015-08-02T13:00:34Z</time>
      </trkpt>
      <trkpt lat="40.321433" lon="-4.669967">
        <ele>1397.0</ele>
        <time>2015-08-02T13:00:35Z</time>
      </trkpt>
      <trkpt lat="40.321383" lon="-4.669850">
        <ele>1395.0</ele>
        <time>2015-08-02T13:00:36Z</time>
      </trkpt>
      <trkpt lat="40.321350" lon="-4.669733">
        <ele>1393.0</ele>
        <time>2015-08-02T13:00:37Z</time>
      </trkpt>
      <trkpt lat="40.321300" lon="-4.669633">
        <ele>1390.0</ele>
        <time>2015-08-02T13:00:38Z</time>
      </trkpt>
      <trkpt lat="40.321267" lon="-4.669533">
        <ele>1388.0</ele>
        <time>2015-08-02T13:00:39Z</time>
      </trkpt>
      <trkpt lat="40.321217" lon="-4.669450">
        <ele>1386.0</ele>
        <time>2015-08-02T13:00:40Z</time>
      </trkpt>
      <trkpt lat="40.321167" lon="-4.669350">
        <ele>1384.0</ele>
        <time>2015-08-02T13:00:41Z</time>
      </trkpt>
      <trkpt lat="40.321117" lon="-4.669250">
        <ele>1381.0</ele>
        <time>2015-08-02T13:00:42Z</time>
      </trkpt>
      <trkpt lat="40.321067" lon="-4.669133">
        <ele>1379.0</ele>
        <time>2015-08-02T13:00:43Z</time>
      </trkpt>
      <trkpt lat="40.321033" lon="-4.669017">
        <ele>1377.0</ele>
        <time>2015-08-02T13:00:44Z</time>
      </trkpt>
      <trkpt lat="40.321000" lon="-4.668883">
        <ele>1375.0</ele>
        <time>2015-08-02T13:00:45Z</time>
      </trkpt>
      <trkpt lat="40.320967" lon="-4.668750">
        <ele>1373.0</ele>
        <time>2015-08-02T13:00:46Z</time>
      </trkpt>
      <trkpt lat="40.320933" lon="-4.668633">
        <ele>1371.0</ele>
        <time>2015-08-02T13:00:47Z</time>
      </trkpt>
      <trkpt lat="40.320900" lon="-4.668517">
        <ele>1369.0</ele>
        <time>2015-08-02T13:00:48Z</time>
      </trkpt>
      <trkpt lat="40.320850" lon="-4.668400">
        <ele>1367.0</ele>
        <time>2015-08-02T13:00:49Z</time>
      </trkpt>
      <trkpt lat="40.320817" lon="-4.668283">
        <ele>1365.0</ele>
        <time>2015-08-02T13:00:50Z</time>
      </trkpt>
      <trkpt lat="40.320767" lon="-4.668183">
        <ele>1362.0</ele>
        <time>2015-08-02T13:00:51Z</time>
      </trkpt>
      <trkpt lat="40.320717" lon="-4.668083">
        <ele>1359.0</ele>
        <time>2015-08-02T13:00:52Z</time>
      </trkpt>
      <trkpt lat="40.320650" lon="-4.667967">
        <ele>1357.0</ele>
        <time>2015-08-02T13:00:53Z</time>
      </trkpt>
      <trkpt lat="40.320600" lon="-4.667867">
        <ele>1356.0</ele>
        <time>2015-08-02T13:00:54Z</time>
      </trkpt>
      <trkpt lat="40.320550" lon="-4.667783">
        <ele>1354.0</ele>
        <time>2015-08-02T13:00:55Z</time>
      </trkpt>
      <trkpt lat="40.320500" lon="-4.667683">
        <ele>1352.0</ele>
        <time>2015-08-02T13:00:56Z</time>
      </trkpt>
      <trkpt lat="40.320450" lon="-4.667583">
        <ele>1350.0</ele>
        <time>2015-08-02T13:00:57Z</time>
      </trkpt>
      <trkpt lat="40.320400" lon="-4.667483">
        <ele>1348.0</ele>
        <time>2015-08-02T13:00:58Z</time>
      </trkpt>
      <trkpt lat="40.320350" lon="-4.667367">
        <ele>1345.0</ele>
        <time>2015-08-02T13:00:59Z</time>
      </trkpt>
      <trkpt lat="40.320283" lon="-4.667267">
        <ele>1343.0</ele>
        <time>2015-08-02T13:01:00Z</time>
      </trkpt>
      <trkpt lat="40.320233" lon="-4.667200">
        <ele>1341.0</ele>
        <time>2015-08-02T13:01:01Z</time>
      </trkpt>
      <trkpt lat="40.320167" lon="-4.667133">
        <ele>1339.0</ele>
        <time>2015-08-02T13:01:02Z</time>
      </trkpt>
      <trkpt lat="40.320100" lon="-4.667067">
        <ele>1336.0</ele>
        <time>2015-08-02T13:01:03Z</time>
      </trkpt>
      <trkpt lat="40.320033" lon="-4.667000">
        <ele>1334.0</ele>
        <time>2015-08-02T13:01:04Z</time>
      </trkpt>
      <trkpt lat="40.319967" lon="-4.666933">
        <ele>1332.0</ele>
        <time>2015-08-02T13:01:05Z</time>
      </trkpt>
      <trkpt lat="40.319900" lon="-4.666850">
        <ele>1329.0</ele>
        <time>2015-08-02T13:01:06Z</time>
      </trkpt>
      <trkpt lat="40.319850" lon="-4.666750">
        <ele>1327.0</ele>
        <time>2015-08-02T13:01:07Z</time>
      </trkpt>
      <trkpt lat="40.319800" lon="-4.666650">
        <ele>1325.0</ele>
        <time>2015-08-02T13:01:08Z</time>
      </trkpt>
      <trkpt lat="40.319750" lon="-4.666517">
        <ele>1323.0</ele>
        <time>2015-08-02T13:01:09Z</time>
      </trkpt>
      <trkpt lat="40.319717" lon="-4.666383">
        <ele>1321.0</ele>
        <time>2015-08-02T13:01:10Z</time>
      </trkpt>
      <trkpt lat="40.319683" lon="-4.666267">
        <ele>1320.0</ele>
        <time>2015-08-02T13:01:11Z</time>
      </trkpt>
      <trkpt lat="40.319650" lon="-4.666133">
        <ele>1319.0</ele>
        <time>2015-08-02T13:01:12Z</time>
      </trkpt>
      <trkpt lat="40.319633" lon="-4.666017">
        <ele>1318.0</ele>
        <time>2015-08-02T13:01:13Z</time>
      </trkpt>
      <trkpt lat="40.319600" lon="-4.665883">
        <ele>1316.0</ele>
        <time>2015-08-02T13:01:14Z</time>
      </trkpt>
      <trkpt lat="40.319583" lon="-4.665750">
        <ele>1314.0</ele>
        <time>2015-08-02T13:01:15Z</time>
      </trkpt>
      <trkpt lat="40.319533" lon="-4.665617">
        <ele>1312.0</ele>
        <time>2015-08-02T13:01:16Z</time>
      </trkpt>
      <trkpt lat="40.319500" lon="-4.665517">
        <ele>1310.0</ele>
        <time>2015-08-02T13:01:17Z</time>
      </trkpt>
      <trkpt lat="40.319467" lon="-4.665400">
        <ele>1307.0</ele>
        <time>2015-08-02T13:01:18Z</time>
      </trkpt>
      <trkpt lat="40.319433" lon="-4.665267">
        <ele>1303.0</ele>
        <time>2015-08-02T13:01:19Z</time>
      </trkpt>
      <trkpt lat="40.319383" lon="-4.665133">
        <ele>1299.0</ele>
        <time>2015-08-02T13:01:20Z</time>
      </trkpt>
      <trkpt lat="40.319333" lon="-4.665000">
        <ele>1296.0</ele>
        <time>2015-08-02T13:01:21Z</time>
      </trkpt>
      <trkpt lat="40.319283" lon="-4.664883">
        <ele>1292.0</ele>
        <time>2015-08-02T13:01:22Z</time>
      </trkpt>
      <trkpt lat="40.319217" lon="-4.664750">
        <ele>1290.0</ele>
        <time>2015-08-02T13:01:23Z</time>
      </trkpt>
      <trkpt lat="40.319167" lon="-4.664617">
        <ele>1289.0</ele>
        <time>2015-08-02T13:01:24Z</time>
      </trkpt>
      <trkpt lat="40.319150" lon="-4.664483">
        <ele>1288.0</ele>
        <time>2015-08-02T13:01:25Z</time>
      </trkpt>
      <trkpt lat="40.319133" lon="-4.664350">
        <ele>1287.0</ele>
        <time>2015-08-02T13:01:26Z</time>
      </trkpt>
      <trkpt lat="40.319117" lon="-4.664217">
        <ele>1285.0</ele>
        <time>2015-08-02T13:01:27Z</time>
      </trkpt>
      <trkpt lat="40.319100" lon="-4.664083">
        <ele>1282.0</ele>
        <time>2015-08-02T13:01:28Z</time>
      </trkpt>
      <trkpt lat="40.319067" lon="-4.663867">
        <ele>1278.0</ele>
        <time>2015-08-02T13:01:29Z</time>
      </trkpt>
      <trkpt lat="40.319050" lon="-4.663783">
        <ele>1274.0</ele>
        <time>2015-08-02T13:01:30Z</time>
      </trkpt>
      <trkpt lat="40.319017" lon="-4.663633">
        <ele>1270.0</ele>
        <time>2015-08-02T13:01:31Z</time>
      </trkpt>
      <trkpt lat="40.318967" lon="-4.663483">
        <ele>1267.0</ele>
        <time>2015-08-02T13:01:32Z</time>
      </trkpt>
      <trkpt lat="40.318917" lon="-4.663333">
        <ele>1265.0</ele>
        <time>2015-08-02T13:01:33Z</time>
      </trkpt>
      <trkpt lat="40.318867" lon="-4.663200">
        <ele>1263.0</ele>
        <time>2015-08-02T13:01:34Z</time>
      </trkpt>
      <trkpt lat="40.318817" lon="-4.663083">
        <ele>1261.0</ele>
        <time>2015-08-02T13:01:35Z</time>
      </trkpt>
      <trkpt lat="40.318767" lon="-4.662950">
        <ele>1258.0</ele>
        <time>2015-08-02T13:01:36Z</time>
      </trkpt>
      <trkpt lat="40.318717" lon="-4.662817">
        <ele>1255.0</ele>
        <time>2015-08-02T13:01:37Z</time>
      </trkpt>
      <trkpt lat="40.318667" lon="-4.662683">
        <ele>1253.0</ele>
        <time>2015-08-02T13:01:38Z</time>
      </trkpt>
      <trkpt lat="40.318617" lon="-4.662567">
        <ele>1250.0</ele>
        <time>2015-08-02T13:01:39Z</time>
      </trkpt>
      <trkpt lat="40.318567" lon="-4.662450">
        <ele>1247.0</ele>
        <time>2015-08-02T13:01:40Z</time>
      </trkpt>
      <trkpt lat="40.318517" lon="-4.662317">
        <ele>1243.0</ele>
        <time>2015-08-02T13:01:41Z</time>
      </trkpt>
      <trkpt lat="40.318467" lon="-4.662200">
        <ele>1239.0</ele>
        <time>2015-08-02T13:01:42Z</time>
      </trkpt>
      <trkpt lat="40.318417" lon="-4.662067">
        <ele>1235.0</ele>
        <time>2015-08-02T13:01:43Z</time>
      </trkpt>
      <trkpt lat="40.318367" lon="-4.661950">
        <ele>1231.0</ele>
        <time>2015-08-02T13:01:44Z</time>
      </trkpt>
      <trkpt lat="40.318317" lon="-4.661817">
        <ele>1227.0</ele>
        <time>2015-08-02T13:01:45Z</time>
      </trkpt>
      <trkpt lat="40.318267" lon="-4.661683">
        <ele>1223.0</ele>
        <time>2015-08-02T13:01:46Z</time>
      </trkpt>
      <trkpt lat="40.318217" lon="-4.661550">
        <ele>1220.0</ele>
        <time>2015-08-02T13:01:47Z</time>
      </trkpt>
      <trkpt lat="40.318183" lon="-4.661417">
        <ele>1216.0</ele>
        <time>2015-08-02T13:01:48Z</time>
      </trkpt>
      <trkpt lat="40.318167" lon="-4.661267">
        <ele>1212.0</ele>
        <time>2015-08-02T13:01:49Z</time>
      </trkpt>
      <trkpt lat="40.318150" lon="-4.661117">
        <ele>1208.0</ele>
        <time>2015-08-02T13:01:50Z</time>
      </trkpt>
      <trkpt lat="40.318133" lon="-4.660950">
        <ele>1205.0</ele>
        <time>2015-08-02T13:01:51Z</time>
      </trkpt>
      <trkpt lat="40.318117" lon="-4.660800">
        <ele>1202.0</ele>
        <time>2015-08-02T13:01:52Z</time>
      </trkpt>
      <trkpt lat="40.318083" lon="-4.660667">
        <ele>1198.0</ele>
        <time>2015-08-02T13:01:53Z</time>
      </trkpt>
      <trkpt lat="40.318033" lon="-4.660517">
        <ele>1193.0</ele>
        <time>2015-08-02T13:01:54Z</time>
      </trkpt>
      <trkpt lat="40.317983" lon="-4.660383">
        <ele>1188.0</ele>
        <time>2015-08-02T13:01:55Z</time>
      </trkpt>
      <trkpt lat="40.317950" lon="-4.660233">
        <ele>1183.0</ele>
        <time>2015-08-02T13:01:56Z</time>
      </trkpt>
      <trkpt lat="40.317917" lon="-4.660067">
        <ele>1178.0</ele>
        <time>2015-08-02T13:01:57Z</time>
      </trkpt>
      <trkpt lat="40.317900" lon="-4.659900">
        <ele>1174.0</ele>
        <time>2015-08-02T13:01:58Z</time>
      </trkpt>
      <trkpt lat="40.317883" lon="-4.659733">
        <ele>1171.0</ele>
        <time>2015-08-02T13:01:59Z</time>
      </trkpt>
      <trkpt lat="40.317867" lon="-4.659567">
        <ele>1167.0</ele>
        <time>2015-08-02T13:02:00Z</time>
      </trkpt>
      <trkpt lat="40.317850" lon="-4.659400">
        <ele>1164.0</ele>
        <time>2015-08-02T13:02:01Z</time>
      </trkpt>
      <trkpt lat="40.317833" lon="-4.659217">
        <ele>1160.0</ele>
        <time>2015-08-02T13:02:02Z</time>
      </trkpt>
      <trkpt lat="40.317833" lon="-4.659050">
        <ele>1157.0</ele>
        <time>2015-08-02T13:02:03Z</time>
      </trkpt>
      <trkpt lat="40.317817" lon="-4.658883">
        <ele>1154.0</ele>
        <time>2015-08-02T13:02:04Z</time>
      </trkpt>
      <trkpt lat="40.317800" lon="-4.658717">
        <ele>1152.0</ele>
        <time>2015-08-02T13:02:05Z</time>
      </trkpt>
      <trkpt lat="40.317767" lon="-4.658567">
        <ele>1149.0</ele>
        <time>2015-08-02T13:02:06Z</time>
      </trkpt>
      <trkpt lat="40.317733" lon="-4.658417">
        <ele>1146.0</ele>
        <time>2015-08-02T13:02:07Z</time>
      </trkpt>
      <trkpt lat="40.317717" lon="-4.658250">
        <ele>1143.0</ele>
        <time>2015-08-02T13:02:08Z</time>
      </trkpt>
      <trkpt lat="40.317683" lon="-4.658100">
        <ele>1140.0</ele>
        <time>2015-08-02T13:02:09Z</time>
      </trkpt>
      <trkpt lat="40.317667" lon="-4.657933">
        <ele>1137.0</ele>
        <time>2015-08-02T13:02:10Z</time>
      </trkpt>
      <trkpt lat="40.317650" lon="-4.657767">
        <ele>1134.0</ele>
        <time>2015-08-02T13:02:11Z</time>
      </trkpt>
      <trkpt lat="40.317617" lon="-4.657617">
        <ele>1131.0</ele>
        <time>2015-08-02T13:02:12Z</time>
      </trkpt>
      <trkpt lat="40.317600" lon="-4.657450">
        <ele>1129.0</ele>
        <time>2015-08-02T13:02:13Z</time>
      </trkpt>
      <trkpt lat="40.317567" lon="-4.657300">
        <ele>1126.0</ele>
        <time>2015-08-02T13:02:14Z</time>
      </trkpt>
      <trkpt lat="40.317533" lon="-4.657150">
        <ele>1124.0</ele>
        <time>2015-08-02T13:02:15Z</time>
      </trkpt>
      <trkpt lat="40.317500" lon="-4.657000">
        <ele>1122.0</ele>
        <time>2015-08-02T13:02:16Z</time>
      </trkpt>
      <trkpt lat="40.317467" lon="-4.656850">
        <ele>1121.0</ele>
        <time>2015-08-02T13:02:17Z</time>
      </trkpt>
      <trkpt lat="40.317450" lon="-4.656700">
        <ele>1120.0</ele>
        <time>2015-08-02T13:02:18Z</time>
      </trkpt>
      <trkpt lat="40.317433" lon="-4.656550">
        <ele>1118.0</ele>
        <time>2015-08-02T13:02:19Z</time>
      </trkpt>
      <trkpt lat="40.317417" lon="-4.656400">
        <ele>1116.0</ele>
        <time>2015-08-02T13:02:20Z</time>
      </trkpt>
      <trkpt lat="40.317417" lon="-4.656233">
        <ele>1113.0</ele>
        <time>2015-08-02T13:02:21Z</time>
      </trkpt>
      <trkpt lat="40.317400" lon="-4.656083">
        <ele>1111.0</ele>
        <time>2015-08-02T13:02:22Z</time>
      </trkpt>
      <trkpt lat="40.317383" lon="-4.655933">
        <ele>1108.0</ele>
        <time>2015-08-02T13:02:23Z</time>
      </trkpt>
      <trkpt lat="40.317350" lon="-4.655783">
        <ele>1105.0</ele>
        <time>2015-08-02T13:02:24Z</time>
      </trkpt>
      <trkpt lat="40.317333" lon="-4.655650">
        <ele>1102.0</ele>
        <time>2015-08-02T13:02:25Z</time>
      </trkpt>
      <trkpt lat="40.317317" lon="-4.655500">
        <ele>1099.0</ele>
        <time>2015-08-02T13:02:26Z</time>
      </trkpt>
      <trkpt lat="40.317283" lon="-4.655350">
        <ele>1095.0</ele>
        <time>2015-08-02T13:02:27Z</time>
      </trkpt>
      <trkpt lat="40.317250" lon="-4.655200">
        <ele>1091.0</ele>
        <time>2015-08-02T13:02:28Z</time>
      </trkpt>
      <trkpt lat="40.317217" lon="-4.655067">
        <ele>1088.0</ele>
        <time>2015-08-02T13:02:29Z</time>
      </trkpt>
      <trkpt lat="40.317167" lon="-4.654917">
        <ele>1084.0</ele>
        <time>2015-08-02T13:02:30Z</time>
      </trkpt>
      <trkpt lat="40.317133" lon="-4.654767">
        <ele>1080.0</ele>
        <time>2015-08-02T13:02:31Z</time>
      </trkpt>
      <trkpt lat="40.317100" lon="-4.654617">
        <ele>1076.0</ele>
        <time>2015-08-02T13:02:32Z</time>
      </trkpt>
      <trkpt lat="40.317050" lon="-4.654467">
        <ele>1070.0</ele>
        <time>2015-08-02T13:02:33Z</time>
      </trkpt>
      <trkpt lat="40.317017" lon="-4.654317">
        <ele>1065.0</ele>
        <time>2015-08-02T13:02:34Z</time>
      </trkpt>
      <trkpt lat="40.316950" lon="-4.654150">
        <ele>1060.0</ele>
        <time>2015-08-02T13:02:35Z</time>
      </trkpt>
      <trkpt lat="40.316900" lon="-4.654000">
        <ele>1055.0</ele>
        <time>2015-08-02T13:02:36Z</time>
      </trkpt>
      <trkpt lat="40.316833" lon="-4.653833">
        <ele>1051.0</ele>
        <time>2015-08-02T13:02:37Z</time>
      </trkpt>
      <trkpt lat="40.316783" lon="-4.653683">
        <ele>1049.0</ele>
        <time>2015-08-02T13:02:38Z</time>
      </trkpt>
      <trkpt lat="40.316733" lon="-4.653533">
        <ele>1047.0</ele>
        <time>2015-08-02T13:02:39Z</time>
      </trkpt>
      <trkpt lat="40.316667" lon="-4.653417">
        <ele>1045.0</ele>
        <time>2015-08-02T13:02:40Z</time>
      </trkpt>
      <trkpt lat="40.316600" lon="-4.653300">
        <ele>1044.0</ele>
        <time>2015-08-02T13:02:41Z</time>
      </trkpt>
      <trkpt lat="40.316550" lon="-4.653200">
        <ele>1041.0</ele>
        <time>2015-08-02T13:02:42Z</time>
      </trkpt>
      <trkpt lat="40.316483" lon="-4.653083">
        <ele>1038.0</ele>
        <time>2015-08-02T13:02:43Z</time>
      </trkpt>
      <trkpt lat="40.316433" lon="-4.652967">
        <ele>1036.0</ele>
        <time>2015-08-02T13:02:44Z</time>
      </trkpt>
      <trkpt lat="40.316383" lon="-4.652850">
        <ele>1033.0</ele>
        <time>2015-08-02T13:02:45Z</time>
      </trkpt>
      <trkpt lat="40.316333" lon="-4.652733">
        <ele>1029.0</ele>
        <time>2015-08-02T13:02:46Z</time>
      </trkpt>
      <trkpt lat="40.316267" lon="-4.652600">
        <ele>1025.0</ele>
        <time>2015-08-02T13:02:47Z</time>
      </trkpt>
      <trkpt lat="40.316200" lon="-4.652483">
        <ele>1021.0</ele>
        <time>2015-08-02T13:02:48Z</time>
      </trkpt>
      <trkpt lat="40.316150" lon="-4.652367">
        <ele>1018.0</ele>
        <time>2015-08-02T13:02:49Z</time>
      </trkpt>
      <trkpt lat="40.316083" lon="-4.652233">
        <ele>1014.0</ele>
        <time>2015-08-02T13:02:50Z</time>
      </trkpt>
      <trkpt lat="40.316000" lon="-4.652100">
        <ele>1012.0</ele>
        <time>2015-08-02T13:02:51Z</time>
      </trkpt>
      <trkpt lat="40.315917" lon="-4.651967">
        <ele>1010.0</ele>
        <time>2015-08-02T13:02:52Z</time>
      </trkpt>
      <trkpt lat="40.315850" lon="-4.651833">
        <ele>1010.0</ele>
        <time>2015-08-02T13:02:53Z</time>
      </trkpt>
      <trkpt lat="40.315783" lon="-4.651717">
        <ele>1010.0</ele>
        <time>2015-08-02T13:02:54Z</time>
      </trkpt>
      <trkpt lat="40.315733" lon="-4.651583">
        <ele>1009.0</ele>
        <time>2015-08-02T13:02:55Z</time>
      </trkpt>
      <trkpt lat="40.315667" lon="-4.651467">
        <ele>1007.0</ele>
        <time>2015-08-02T13:02:56Z</time>
      </trkpt>
      <trkpt lat="40.315600" lon="-4.651350">
        <ele>1005.0</ele>
        <time>2015-08-02T13:02:57Z</time>
      </trkpt>
      <trkpt lat="40.315517" lon="-4.651233">
        <ele>1002.0</ele>
        <time>2015-08-02T13:02:58Z</time>
      </trkpt>
      <trkpt lat="40.315450" lon="-4.651117">
        <ele>999.0</ele>
        <time>2015-08-02T13:02:59Z</time>
      </trkpt>
      <trkpt lat="40.315367" lon="-4.651000">
        <ele>997.0</ele>
        <time>2015-08-02T13:03:00Z</time>
      </trkpt>
      <trkpt lat="40.315300" lon="-4.650900">
        <ele>995.0</ele>
        <time>2015-08-02T13:03:01Z</time>
      </trkpt>
      <trkpt lat="40.315233" lon="-4.650817">
        <ele>994.0</ele>
        <time>2015-08-02T13:03:02Z</time>
      </trkpt>
      <trkpt lat="40.315167" lon="-4.650717">
        <ele>993.0</ele>
        <time>2015-08-02T13:03:03Z</time>
      </trkpt>
      <trkpt lat="40.315100" lon="-4.650617">
        <ele>992.0</ele>
        <time>2015-08-02T13:03:04Z</time>
      </trkpt>
      <trkpt lat="40.315033" lon="-4.650533">
        <ele>990.0</ele>
        <time>2015-08-02T13:03:05Z</time>
      </trkpt>
      <trkpt lat="40.314967" lon="-4.650433">
        <ele>987.0</ele>
        <time>2015-08-02T13:03:06Z</time>
      </trkpt>
      <trkpt lat="40.314883" lon="-4.650333">
        <ele>985.0</ele>
        <time>2015-08-02T13:03:07Z</time>
      </trkpt>
      <trkpt lat="40.314817" lon="-4.650233">
        <ele>983.0</ele>
        <time>2015-08-02T13:03:08Z</time>
      </trkpt>
      <trkpt lat="40.314750" lon="-4.650133">
        <ele>982.0</ele>
        <time>2015-08-02T13:03:09Z</time>
      </trkpt>
      <trkpt lat="40.314683" lon="-4.650017">
        <ele>980.0</ele>
        <time>2015-08-02T13:03:10Z</time>
      </trkpt>
      <trkpt lat="40.314633" lon="-4.649917">
        <ele>978.0</ele>
        <time>2015-08-02T13:03:11Z</time>
      </trkpt>
      <trkpt lat="40.314567" lon="-4.649817">
        <ele>976.0</ele>
        <time>2015-08-02T13:03:12Z</time>
      </trkpt>
      <trkpt lat="40.314500" lon="-4.649717">
        <ele>974.0</ele>
        <time>2015-08-02T13:03:13Z</time>
      </trkpt>
      <trkpt lat="40.314433" lon="-4.649583">
        <ele>973.0</ele>
        <time>2015-08-02T13:03:14Z</time>
      </trkpt>
      <trkpt lat="40.314367" lon="-4.649433">
        <ele>973.0</ele>
        <time>2015-08-02T13:03:15Z</time>
      </trkpt>
      <trkpt lat="40.314300" lon="-4.649300">
        <ele>975.0</ele>
        <time>2015-08-02T13:03:16Z</time>
      </trkpt>
      <trkpt lat="40.314233" lon="-4.649167">
        <ele>978.0</ele>
        <time>2015-08-02T13:03:17Z</time>
      </trkpt>
      <trkpt lat="40.314150" lon="-4.649050">
        <ele>983.0</ele>
        <time>2015-08-02T13:03:18Z</time>
      </trkpt>
      <trkpt lat="40.314083" lon="-4.648950">
        <ele>988.0</ele>
        <time>2015-08-02T13:03:19Z</time>
      </trkpt>
      <trkpt lat="40.314033" lon="-4.648867">
        <ele>995.0</ele>
        <time>2015-08-02T13:03:20Z</time>
      </trkpt>
      <trkpt lat="40.314000" lon="-4.648800">
        <ele>1001.0</ele>
        <time>2015-08-02T13:03:21Z</time>
      </trkpt>
      <trkpt lat="40.313950" lon="-4.648783">
        <ele>1004.0</ele>
        <time>2015-08-02T13:03:22Z</time>
      </trkpt>
      <trkpt lat="40.313900" lon="-4.648817">
        <ele>1007.0</ele>
        <time>2015-08-02T13:03:23Z</time>
      </trkpt>
      <trkpt lat="40.313850" lon="-4.648850">
        <ele>1010.0</ele>
        <time>2015-08-02T13:03:24Z</time>
      </trkpt>
      <trkpt lat="40.313817" lon="-4.648917">
        <ele>1015.0</ele>
        <time>2015-08-02T13:03:25Z</time>
      </trkpt>
      <trkpt lat="40.313833" lon="-4.648983">
        <ele>1019.0</ele>
        <time>2015-08-02T13:03:26Z</time>
      </trkpt>
      <trkpt lat="40.313867" lon="-4.649067">
        <ele>1023.0</ele>
        <time>2015-08-02T13:03:27Z</time>
      </trkpt>
      <trkpt lat="40.313950" lon="-4.649083">
        <ele>1024.0</ele>
        <time>2015-08-02T13:03:28Z</time>
      </trkpt>
      <trkpt lat="40.314050" lon="-4.649067">
        <ele>1023.0</ele>
        <time>2015-08-02T13:03:29Z</time>
      </trkpt>
      <trkpt lat="40.314167" lon="-4.648983">
        <ele>1023.0</ele>
        <time>2015-08-02T13:03:30Z</time>
      </trkpt>
      <trkpt lat="40.314267" lon="-4.648850">
        <ele>1025.0</ele>
        <time>2015-08-02T13:03:31Z</time>
      </trkpt>
      <trkpt lat="40.314350" lon="-4.648717">
        <ele>1028.0</ele>
        <time>2015-08-02T13:03:32Z</time>
      </trkpt>
      <trkpt lat="40.314417" lon="-4.648583">
        <ele>1032.0</ele>
        <time>2015-08-02T13:03:33Z</time>
      </trkpt>
      <trkpt lat="40.314483" lon="-4.648450">
        <ele>1035.0</ele>
        <time>2015-08-02T13:03:34Z</time>
      </trkpt>
      <trkpt lat="40.314550" lon="-4.648300">
        <ele>1039.0</ele>
        <time>2015-08-02T13:03:35Z</time>
      </trkpt>
      <trkpt lat="40.314600" lon="-4.648133">
        <ele>1043.0</ele>
        <time>2015-08-02T13:03:36Z</time>
      </trkpt>
      <trkpt lat="40.314633" lon="-4.647967">
        <ele>1047.0</ele>
        <time>2015-08-02T13:03:37Z</time>
      </trkpt>
      <trkpt lat="40.314633" lon="-4.647783">
        <ele>1050.0</ele>
        <time>2015-08-02T13:03:38Z</time>
      </trkpt>
      <trkpt lat="40.314583" lon="-4.647617">
        <ele>1053.0</ele>
        <time>2015-08-02T13:03:39Z</time>
      </trkpt>
      <trkpt lat="40.314550" lon="-4.647483">
        <ele>1059.0</ele>
        <time>2015-08-02T13:03:40Z</time>
      </trkpt>
      <trkpt lat="40.314517" lon="-4.647367">
        <ele>1066.0</ele>
        <time>2015-08-02T13:03:41Z</time>
      </trkpt>
      <trkpt lat="40.314517" lon="-4.647267">
        <ele>1070.0</ele>
        <time>2015-08-02T13:03:42Z</time>
      </trkpt>
      <trkpt lat="40.314500" lon="-4.647183">
        <ele>1073.0</ele>
        <time>2015-08-02T13:03:43Z</time>
      </trkpt>
      <trkpt lat="40.314450" lon="-4.647117">
        <ele>1074.0</ele>
        <time>2015-08-02T13:03:44Z</time>
      </trkpt>
      <trkpt lat="40.314383" lon="-4.647067">
        <ele>1073.0</ele>
        <time>2015-08-02T13:03:45Z</time>
      </trkpt>
      <trkpt lat="40.314317" lon="-4.647033">
        <ele>1074.0</ele>
        <time>2015-08-02T13:03:46Z</time>
      </trkpt>
      <trkpt lat="40.314233" lon="-4.647050">
        <ele>1075.0</ele>
        <time>2015-08-02T13:03:47Z</time>
      </trkpt>
      <trkpt lat="40.314200" lon="-4.647133">
        <ele>1077.0</ele>
        <time>2015-08-02T13:03:48Z</time>
      </trkpt>
      <trkpt lat="40.314200" lon="-4.647233">
        <ele>1077.0</ele>
        <time>2015-08-02T13:03:49Z</time>
      </trkpt>
      <trkpt lat="40.314250" lon="-4.647350">
        <ele>1077.0</ele>
        <time>2015-08-02T13:03:50Z</time>
      </trkpt>
      <trkpt lat="40.314350" lon="-4.647450">
        <ele>1079.0</ele>
        <time>2015-08-02T13:03:51Z</time>
      </trkpt>
      <trkpt lat="40.314467" lon="-4.647500">
        <ele>1084.0</ele>
        <time>2015-08-02T13:03:52Z</time>
      </trkpt>
      <trkpt lat="40.314600" lon="-4.647517">
        <ele>1091.0</ele>
        <time>2015-08-02T13:03:53Z</time>
      </trkpt>
      <trkpt lat="40.314700" lon="-4.647517">
        <ele>1099.0</ele>
        <time>2015-08-02T13:03:54Z</time>
      </trkpt>
      <trkpt lat="40.314800" lon="-4.647517">
        <ele>1105.0</ele>
        <time>2015-08-02T13:03:55Z</time>
      </trkpt>
      <trkpt lat="40.314900" lon="-4.647550">
        <ele>1109.0</ele>
        <time>2015-08-02T13:03:56Z</time>
      </trkpt>
      <trkpt lat="40.315000" lon="-4.647583">
        <ele>1113.0</ele>
        <time>2015-08-02T13:03:57Z</time>
      </trkpt>
      <trkpt lat="40.315117" lon="-4.647583">
        <ele>1116.0</ele>
        <time>2015-08-02T13:03:58Z</time>
      </trkpt>
      <trkpt lat="40.315233" lon="-4.647533">
        <ele>1119.0</ele>
        <time>2015-08-02T13:03:59Z</time>
      </trkpt>
      <trkpt lat="40.315333" lon="-4.647450">
        <ele>1121.0</ele>
        <time>2015-08-02T13:04:00Z</time>
      </trkpt>
      <trkpt lat="40.315417" lon="-4.647333">
        <ele>1123.0</ele>
        <time>2015-08-02T13:04:01Z</time>
      </trkpt>
      <trkpt lat="40.315483" lon="-4.647200">
        <ele>1125.0</ele>
        <time>2015-08-02T13:04:02Z</time>
      </trkpt>
      <trkpt lat="40.315517" lon="-4.647050">
        <ele>1127.0</ele>
        <time>2015-08-02T13:04:03Z</time>
      </trkpt>
      <trkpt lat="40.315550" lon="-4.646900">
        <ele>1130.0</ele>
        <time>2015-08-02T13:04:04Z</time>
      </trkpt>
      <trkpt lat="40.315533" lon="-4.646783">
        <ele>1133.0</ele>
        <time>2015-08-02T13:04:05Z</time>
      </trkpt>
      <trkpt lat="40.315500" lon="-4.646667">
        <ele>1136.0</ele>
        <time>2015-08-02T13:04:06Z</time>
      </trkpt>
      <trkpt lat="40.315450" lon="-4.646583">
        <ele>1139.0</ele>
        <time>2015-08-02T13:04:07Z</time>
      </trkpt>
      <trkpt lat="40.315383" lon="-4.646533">
        <ele>1143.0</ele>
        <time>2015-08-02T13:04:08Z</time>
      </trkpt>
      <trkpt lat="40.315333" lon="-4.646550">
        <ele>1145.0</ele>
        <time>2015-08-02T13:04:09Z</time>
      </trkpt>
      <trkpt lat="40.315283" lon="-4.646617">
        <ele>1147.0</ele>
        <time>2015-08-02T13:04:10Z</time>
      </trkpt>
      <trkpt lat="40.315267" lon="-4.646717">
        <ele>1149.0</ele>
        <time>2015-08-02T13:04:11Z</time>
      </trkpt>
      <trkpt lat="40.315283" lon="-4.646850">
        <ele>1152.0</ele>
        <time>2015-08-02T13:04:12Z</time>
      </trkpt>
      <trkpt lat="40.315350" lon="-4.646983">
        <ele>1157.0</ele>
        <time>2015-08-02T13:04:13Z</time>
      </trkpt>
      <trkpt lat="40.315417" lon="-4.647083">
        <ele>1164.0</ele>
        <time>2015-08-02T13:04:14Z</time>
      </trkpt>
      <trkpt lat="40.315467" lon="-4.647133">
        <ele>1170.0</ele>
        <time>2015-08-02T13:04:15Z</time>
      </trkpt>
      <trkpt lat="40.315483" lon="-4.647167">
        <ele>1174.0</ele>
        <time>2015-08-02T13:04:16Z</time>
      </trkpt>
      <trkpt lat="40.315483" lon="-4.647200">
        <ele>1174.0</ele>
        <time>2015-08-02T13:04:17Z</time>
      </trkpt>
      <trkpt lat="40.315500" lon="-4.647233">
        <ele>1173.0</ele>
        <time>2015-08-02T13:04:18Z</time>
      </trkpt>
      <trkpt lat="40.315550" lon="-4.647283">
        <ele>1173.0</ele>
        <time>2015-08-02T13:04:19Z</time>
      </trkpt>
      <trkpt lat="40.315633" lon="-4.647317">
        <ele>1171.0</ele>
        <time>2015-08-02T13:04:20Z</time>
      </trkpt>
      <trkpt lat="40.315750" lon="-4.647333">
        <ele>1167.0</ele>
        <time>2015-08-02T13:04:21Z</time>
      </trkpt>
      <trkpt lat="40.315883" lon="-4.647283">
        <ele>1165.0</ele>
        <time>2015-08-02T13:04:22Z</time>
      </trkpt>
      <trkpt lat="40.316000" lon="-4.647167">
        <ele>1165.0</ele>
        <time>2015-08-02T13:04:23Z</time>
      </trkpt>
      <trkpt lat="40.316083" lon="-4.647033">
        <ele>1165.0</ele>
        <time>2015-08-02T13:04:24Z</time>
      </trkpt>
      <trkpt lat="40.316150" lon="-4.646867">
        <ele>1165.0</ele>
        <time>2015-08-02T13:04:25Z</time>
      </trkpt>
      <trkpt lat="40.316200" lon="-4.646717">
        <ele>1166.0</ele>
        <time>2015-08-02T13:04:26Z</time>
      </trkpt>
      <trkpt lat="40.316233" lon="-4.646567">
        <ele>1166.0</ele>
        <time>2015-08-02T13:04:27Z</time>
      </trkpt>
      <trkpt lat="40.316250" lon="-4.646450">
        <ele>1166.0</ele>
        <time>2015-08-02T13:04:28Z</time>
      </trkpt>
      <trkpt lat="40.316267" lon="-4.646300">
        <ele>1166.0</ele>
        <time>2015-08-02T13:04:29Z</time>
      </trkpt>
      <trkpt lat="40.316283" lon="-4.646150">
        <ele>1166.0</ele>
        <time>2015-08-02T13:04:30Z</time>
      </trkpt>
      <trkpt lat="40.316317" lon="-4.645983">
        <ele>1167.0</ele>
        <time>2015-08-02T13:04:31Z</time>
      </trkpt>
      <trkpt lat="40.316350" lon="-4.645833">
        <ele>1169.0</ele>
        <time>2015-08-02T13:04:32Z</time>
      </trkpt>
      <trkpt lat="40.316383" lon="-4.645667">
        <ele>1173.0</ele>
        <time>2015-08-02T13:04:33Z</time>
      </trkpt>
      <trkpt lat="40.316450" lon="-4.645517">
        <ele>1176.0</ele>
        <time>2015-08-02T13:04:34Z</time>
      </trkpt>
      <trkpt lat="40.316517" lon="-4.645383">
        <ele>1180.0</ele>
        <time>2015-08-02T13:04:35Z</time>
      </trkpt>
      <trkpt lat="40.316600" lon="-4.645250">
        <ele>1183.0</ele>
        <time>2015-08-02T13:04:36Z</time>
      </trkpt>
      <trkpt lat="40.316683" lon="-4.645100">
        <ele>1186.0</ele>
        <time>2015-08-02T13:04:37Z</time>
      </trkpt>
      <trkpt lat="40.316733" lon="-4.644933">
        <ele>1189.0</ele>
        <time>2015-08-02T13:04:38Z</time>
      </trkpt>
      <trkpt lat="40.316750" lon="-4.644783">
        <ele>1192.0</ele>
        <time>2015-08-02T13:04:39Z</time>
      </trkpt>
      <trkpt lat="40.316733" lon="-4.644617">
        <ele>1194.0</ele>
        <time>2015-08-02T13:04:40Z</time>
      </trkpt>
      <trkpt lat="40.316683" lon="-4.644467">
        <ele>1197.0</ele>
        <time>2015-08-02T13:04:41Z</time>
      </trkpt>
      <trkpt lat="40.316650" lon="-4.644400">
        <ele>1200.0</ele>
        <time>2015-08-02T13:04:42Z</time>
      </trkpt>
      <trkpt lat="40.316600" lon="-4.644333">
        <ele>1201.0</ele>
        <time>2015-08-02T13:04:43Z</time>
      </trkpt>
      <trkpt lat="40.316550" lon="-4.644317">
        <ele>1203.0</ele>
        <time>2015-08-02T13:04:44Z</time>
      </trkpt>
      <trkpt lat="40.316500" lon="-4.644317">
        <ele>1205.0</ele>
        <time>2015-08-02T13:04:45Z</time>
      </trkpt>
      <trkpt lat="40.316450" lon="-4.644367">
        <ele>1208.0</ele>
        <time>2015-08-02T13:04:46Z</time>
      </trkpt>
      <trkpt lat="40.316450" lon="-4.644433">
        <ele>1210.0</ele>
        <time>2015-08-02T13:04:47Z</time>
      </trkpt>
      <trkpt lat="40.316483" lon="-4.644533">
        <ele>1212.0</ele>
        <time>2015-08-02T13:04:48Z</time>
      </trkpt>
      <trkpt lat="40.316567" lon="-4.644617">
        <ele>1214.0</ele>
        <time>2015-08-02T13:04:49Z</time>
      </trkpt>
      <trkpt lat="40.316667" lon="-4.644683">
        <ele>1218.0</ele>
        <time>2015-08-02T13:04:50Z</time>
      </trkpt>
      <trkpt lat="40.316783" lon="-4.644733">
        <ele>1222.0</ele>
        <time>2015-08-02T13:04:51Z</time>
      </trkpt>
      <trkpt lat="40.316900" lon="-4.644767">
        <ele>1224.0</ele>
        <time>2015-08-02T13:04:52Z</time>
      </trkpt>
      <trkpt lat="40.317017" lon="-4.644800">
        <ele>1227.0</ele>
        <time>2015-08-02T13:04:53Z</time>
      </trkpt>
      <trkpt lat="40.317133" lon="-4.644817">
        <ele>1230.0</ele>
        <time>2015-08-02T13:04:54Z</time>
      </trkpt>
      <trkpt lat="40.317233" lon="-4.644850">
        <ele>1233.0</ele>
        <time>2015-08-02T13:04:55Z</time>
      </trkpt>
      <trkpt lat="40.317350" lon="-4.644833">
        <ele>1235.0</ele>
        <time>2015-08-02T13:04:56Z</time>
      </trkpt>
      <trkpt lat="40.317483" lon="-4.644783">
        <ele>1235.0</ele>
        <time>2015-08-02T13:04:57Z</time>
      </trkpt>
      <trkpt lat="40.317583" lon="-4.644667">
        <ele>1236.0</ele>
        <time>2015-08-02T13:04:58Z</time>
      </trkpt>
      <trkpt lat="40.317650" lon="-4.644500">
        <ele>1237.0</ele>
        <time>2015-08-02T13:04:59Z</time>
      </trkpt>
      <trkpt lat="40.317683" lon="-4.644333">
        <ele>1238.0</ele>
        <time>2015-08-02T13:05:00Z</time>
      </trkpt>
      <trkpt lat="40.317683" lon="-4.644183">
        <ele>1240.0</ele>
        <time>2015-08-02T13:05:01Z</time>
      </trkpt>
      <trkpt lat="40.317667" lon="-4.644033">
        <ele>1243.0</ele>
        <time>2015-08-02T13:05:02Z</time>
      </trkpt>
      <trkpt lat="40.317633" lon="-4.643917">
        <ele>1245.0</ele>
        <time>2015-08-02T13:05:03Z</time>
      </trkpt>
      <trkpt lat="40.317583" lon="-4.643800">
        <ele>1248.0</ele>
        <time>2015-08-02T13:05:04Z</time>
      </trkpt>
      <trkpt lat="40.317533" lon="-4.643717">
        <ele>1251.0</ele>
        <time>2015-08-02T13:05:05Z</time>
      </trkpt>
      <trkpt lat="40.317483" lon="-4.643700">
        <ele>1254.0</ele>
        <time>2015-08-02T13:05:06Z</time>
      </trkpt>
      <trkpt lat="40.317467" lon="-4.643733">
        <ele>1257.0</ele>
        <time>2015-08-02T13:05:07Z</time>
      </trkpt>
      <trkpt lat="40.317483" lon="-4.643817">
        <ele>1258.0</ele>
        <time>2015-08-02T13:05:08Z</time>
      </trkpt>
      <trkpt lat="40.317550" lon="-4.643900">
        <ele>1261.0</ele>
        <time>2015-08-02T13:05:09Z</time>
      </trkpt>
      <trkpt lat="40.317667" lon="-4.643967">
        <ele>1263.0</ele>
        <time>2015-08-02T13:05:10Z</time>
      </trkpt>
      <trkpt lat="40.317817" lon="-4.643983">
        <ele>1264.0</ele>
        <time>2015-08-02T13:05:11Z</time>
      </trkpt>
      <trkpt lat="40.317967" lon="-4.643950">
        <ele>1266.0</ele>
        <time>2015-08-02T13:05:12Z</time>
      </trkpt>
      <trkpt lat="40.318100" lon="-4.643850">
        <ele>1269.0</ele>
        <time>2015-08-02T13:05:13Z</time>
      </trkpt>
      <trkpt lat="40.318217" lon="-4.643717">
        <ele>1272.0</ele>
        <time>2015-08-02T13:05:14Z</time>
      </trkpt>
      <trkpt lat="40.318267" lon="-4.643567">
        <ele>1276.0</ele>
        <time>2015-08-02T13:05:15Z</time>
      </trkpt>
      <trkpt lat="40.318300" lon="-4.643450">
        <ele>1278.0</ele>
        <time>2015-08-02T13:05:16Z</time>
      </trkpt>
      <trkpt lat="40.318317" lon="-4.643317">
        <ele>1279.0</ele>
        <time>2015-08-02T13:05:17Z</time>
      </trkpt>
      <trkpt lat="40.318317" lon="-4.643167">
        <ele>1279.0</ele>
        <time>2015-08-02T13:05:18Z</time>
      </trkpt>
      <trkpt lat="40.318317" lon="-4.643017">
        <ele>1280.0</ele>
        <time>2015-08-02T13:05:19Z</time>
      </trkpt>
      <trkpt lat="40.318300" lon="-4.642867">
        <ele>1283.0</ele>
        <time>2015-08-02T13:05:20Z</time>
      </trkpt>
      <trkpt lat="40.318267" lon="-4.642767">
        <ele>1286.0</ele>
        <time>2015-08-02T13:05:21Z</time>
      </trkpt>
      <trkpt lat="40.318217" lon="-4.642717">
        <ele>1288.0</ele>
        <time>2015-08-02T13:05:22Z</time>
      </trkpt>
      <trkpt lat="40.318183" lon="-4.642700">
        <ele>1289.0</ele>
        <time>2015-08-02T13:05:23Z</time>
      </trkpt>
      <trkpt lat="40.318150" lon="-4.642717">
        <ele>1291.0</ele>
        <time>2015-08-02T13:05:24Z</time>
      </trkpt>
      <trkpt lat="40.318133" lon="-4.642767">
        <ele>1292.0</ele>
        <time>2015-08-02T13:05:25Z</time>
      </trkpt>
      <trkpt lat="40.318150" lon="-4.642833">
        <ele>1293.0</ele>
        <time>2015-08-02T13:05:26Z</time>
      </trkpt>
      <trkpt lat="40.318167" lon="-4.642933">
        <ele>1295.0</ele>
        <time>2015-08-02T13:05:27Z</time>
      </trkpt>
      <trkpt lat="40.318233" lon="-4.643033">
        <ele>1297.0</ele>
        <time>2015-08-02T13:05:28Z</time>
      </trkpt>
      <trkpt lat="40.318300" lon="-4.643117">
        <ele>1301.0</ele>
        <time>2015-08-02T13:05:29Z</time>
      </trkpt>
      <trkpt lat="40.318400" lon="-4.643200">
        <ele>1305.0</ele>
        <time>2015-08-02T13:05:30Z</time>
      </trkpt>
      <trkpt lat="40.318500" lon="-4.643233">
        <ele>1309.0</ele>
        <time>2015-08-02T13:05:31Z</time>
      </trkpt>
      <trkpt lat="40.318600" lon="-4.643250">
        <ele>1313.0</ele>
        <time>2015-08-02T13:05:32Z</time>
      </trkpt>
      <trkpt lat="40.318717" lon="-4.643217">
        <ele>1314.0</ele>
        <time>2015-08-02T13:05:33Z</time>
      </trkpt>
      <trkpt lat="40.318850" lon="-4.643167">
        <ele>1314.0</ele>
        <time>2015-08-02T13:05:34Z</time>
      </trkpt>
      <trkpt lat="40.318950" lon="-4.643083">
        <ele>1315.0</ele>
        <time>2015-08-02T13:05:35Z</time>
      </trkpt>
      <trkpt lat="40.319050" lon="-4.642950">
        <ele>1315.0</ele>
        <time>2015-08-02T13:05:36Z</time>
      </trkpt>
      <trkpt lat="40.319083" lon="-4.642783">
        <ele>1314.0</ele>
        <time>2015-08-02T13:05:37Z</time>
      </trkpt>
      <trkpt lat="40.319100" lon="-4.642600">
        <ele>1315.0</ele>
        <time>2015-08-02T13:05:38Z</time>
      </trkpt>
      <trkpt lat="40.319100" lon="-4.642450">
        <ele>1316.0</ele>
        <time>2015-08-02T13:05:39Z</time>
      </trkpt>
      <trkpt lat="40.319100" lon="-4.642300">
        <ele>1318.0</ele>
        <time>2015-08-02T13:05:40Z</time>
      </trkpt>
      <trkpt lat="40.319100" lon="-4.642150">
        <ele>1319.0</ele>
        <time>2015-08-02T13:05:41Z</time>
      </trkpt>
      <trkpt lat="40.319083" lon="-4.642000">
        <ele>1320.0</ele>
        <time>2015-08-02T13:05:42Z</time>
      </trkpt>
      <trkpt lat="40.319100" lon="-4.641850">
        <ele>1321.0</ele>
        <time>2015-08-02T13:05:43Z</time>
      </trkpt>
      <trkpt lat="40.319117" lon="-4.641700">
        <ele>1323.0</ele>
        <time>2015-08-02T13:05:44Z</time>
      </trkpt>
      <trkpt lat="40.319150" lon="-4.641533">
        <ele>1324.0</ele>
        <time>2015-08-02T13:05:45Z</time>
      </trkpt>
      <trkpt lat="40.319200" lon="-4.641383">
        <ele>1326.0</ele>
        <time>2015-08-02T13:05:46Z</time>
      </trkpt>
      <trkpt lat="40.319250" lon="-4.641217">
        <ele>1328.0</ele>
        <time>2015-08-02T13:05:47Z</time>
      </trkpt>
      <trkpt lat="40.319283" lon="-4.641050">
        <ele>1329.0</ele>
        <time>2015-08-02T13:05:48Z</time>
      </trkpt>
      <trkpt lat="40.319317" lon="-4.640900">
        <ele>1330.0</ele>
        <time>2015-08-02T13:05:49Z</time>
      </trkpt>
      <trkpt lat="40.319317" lon="-4.640767">
        <ele>1330.0</ele>
        <time>2015-08-02T13:05:50Z</time>
      </trkpt>
      <trkpt lat="40.319283" lon="-4.640667">
        <ele>1329.0</ele>
        <time>2015-08-02T13:05:51Z</time>
      </trkpt>
      <trkpt lat="40.319233" lon="-4.640600">
        <ele>1328.0</ele>
        <time>2015-08-02T13:05:52Z</time>
      </trkpt>
      <trkpt lat="40.319167" lon="-4.640567">
        <ele>1328.0</ele>
        <time>2015-08-02T13:05:53Z</time>
      </trkpt>
      <trkpt lat="40.319083" lon="-4.640550">
        <ele>1329.0</ele>
        <time>2015-08-02T13:05:54Z</time>
      </trkpt>
      <trkpt lat="40.319017" lon="-4.640567">
        <ele>1332.0</ele>
        <time>2015-08-02T13:05:55Z</time>
      </trkpt>
      <trkpt lat="40.318967" lon="-4.640583">
        <ele>1335.0</ele>
        <time>2015-08-02T13:05:56Z</time>
      </trkpt>
      <trkpt lat="40.318933" lon="-4.640600">
        <ele>1338.0</ele>
        <time>2015-08-02T13:05:57Z</time>
      </trkpt>
      <trkpt lat="40.318933" lon="-4.640650">
        <ele>1340.0</ele>
        <time>2015-08-02T13:05:58Z</time>
      </trkpt>
      <trkpt lat="40.318917" lon="-4.640700">
        <ele>1342.0</ele>
        <time>2015-08-02T13:05:59Z</time>
      </trkpt>
      <trkpt lat="40.318933" lon="-4.640767">
        <ele>1343.0</ele>
        <time>2015-08-02T13:06:00Z</time>
      </trkpt>
      <trkpt lat="40.318950" lon="-4.640850">
        <ele>1343.0</ele>
        <time>2015-08-02T13:06:01Z</time>
      </trkpt>
      <trkpt lat="40.319000" lon="-4.640933">
        <ele>1344.0</ele>
        <time>2015-08-02T13:06:02Z</time>
      </trkpt>
      <trkpt lat="40.319100" lon="-4.641000">
        <ele>1345.0</ele>
        <time>2015-08-02T13:06:03Z</time>
      </trkpt>
      <trkpt lat="40.319217" lon="-4.641050">
        <ele>1346.0</ele>
        <time>2015-08-02T13:06:04Z</time>
      </trkpt>
      <trkpt lat="40.319367" lon="-4.641050">
        <ele>1348.0</ele>
        <time>2015-08-02T13:06:05Z</time>
      </trkpt>
      <trkpt lat="40.319500" lon="-4.641050">
        <ele>1351.0</ele>
        <time>2015-08-02T13:06:06Z</time>
      </trkpt>
      <trkpt lat="40.319617" lon="-4.641033">
        <ele>1355.0</ele>
        <time>2015-08-02T13:06:07Z</time>
      </trkpt>
      <trkpt lat="40.319733" lon="-4.641017">
        <ele>1359.0</ele>
        <time>2015-08-02T13:06:08Z</time>
      </trkpt>
      <trkpt lat="40.319850" lon="-4.640967">
        <ele>1361.0</ele>
        <time>2015-08-02T13:06:09Z</time>
      </trkpt>
      <trkpt lat="40.319950" lon="-4.640883">
        <ele>1363.0</ele>
        <time>2015-08-02T13:06:10Z</time>
      </trkpt>
      <trkpt lat="40.320033" lon="-4.640767">
        <ele>1363.0</ele>
        <time>2015-08-02T13:06:11Z</time>
      </trkpt>
      <trkpt lat="40.320100" lon="-4.640600">
        <ele>1363.0</ele>
        <time>2015-08-02T13:06:12Z</time>
      </trkpt>
      <trkpt lat="40.320133" lon="-4.640433">
        <ele>1364.0</ele>
        <time>2015-08-02T13:06:13Z</time>
      </trkpt>
      <trkpt lat="40.320133" lon="-4.640283">
        <ele>1367.0</ele>
        <time>2015-08-02T13:06:14Z</time>
      </trkpt>
      <trkpt lat="40.320117" lon="-4.640150">
        <ele>1369.0</ele>
        <time>2015-08-02T13:06:15Z</time>
      </trkpt>
      <trkpt lat="40.320083" lon="-4.640050">
        <ele>1370.0</ele>
        <time>2015-08-02T13:06:16Z</time>
      </trkpt>
      <trkpt lat="40.320050" lon="-4.639950">
        <ele>1372.0</ele>
        <time>2015-08-02T13:06:17Z</time>
      </trkpt>
      <trkpt lat="40.320000" lon="-4.639900">
        <ele>1373.0</ele>
        <time>2015-08-02T13:06:18Z</time>
      </trkpt>
      <trkpt lat="40.319950" lon="-4.639867">
        <ele>1374.0</ele>
        <time>2015-08-02T13:06:19Z</time>
      </trkpt>
      <trkpt lat="40.319917" lon="-4.639867">
        <ele>1375.0</ele>
        <time>2015-08-02T13:06:20Z</time>
      </trkpt>
      <trkpt lat="40.319883" lon="-4.639917">
        <ele>1375.0</ele>
        <time>2015-08-02T13:06:21Z</time>
      </trkpt>
      <trkpt lat="40.319850" lon="-4.639967">
        <ele>1376.0</ele>
        <time>2015-08-02T13:06:22Z</time>
      </trkpt>
      <trkpt lat="40.319850" lon="-4.640033">
        <ele>1376.0</ele>
        <time>2015-08-02T13:06:23Z</time>
      </trkpt>
      <trkpt lat="40.319883" lon="-4.640117">
        <ele>1378.0</ele>
        <time>2015-08-02T13:06:24Z</time>
      </trkpt>
      <trkpt lat="40.319933" lon="-4.640200">
        <ele>1379.0</ele>
        <time>2015-08-02T13:06:25Z</time>
      </trkpt>
      <trkpt lat="40.320017" lon="-4.640283">
        <ele>1381.0</ele>
        <time>2015-08-02T13:06:26Z</time>
      </trkpt>
      <trkpt lat="40.320117" lon="-4.640350">
        <ele>1383.0</ele>
        <time>2015-08-02T13:06:27Z</time>
      </trkpt>
      <trkpt lat="40.320250" lon="-4.640400">
        <ele>1386.0</ele>
        <time>2015-08-02T13:06:28Z</time>
      </trkpt>
      <trkpt lat="40.320383" lon="-4.640417">
        <ele>1390.0</ele>
        <time>2015-08-02T13:06:29Z</time>
      </trkpt>
      <trkpt lat="40.320500" lon="-4.640383">
        <ele>1393.0</ele>
        <time>2015-08-02T13:06:30Z</time>
      </trkpt>
      <trkpt lat="40.320633" lon="-4.640317">
        <ele>1395.0</ele>
        <time>2015-08-02T13:06:31Z</time>
      </trkpt>
      <trkpt lat="40.320750" lon="-4.640183">
        <ele>1396.0</ele>
        <time>2015-08-02T13:06:32Z</time>
      </trkpt>
      <trkpt lat="40.320817" lon="-4.640033">
        <ele>1397.0</ele>
        <time>2015-08-02T13:06:33Z</time>
      </trkpt>
      <trkpt lat="40.320833" lon="-4.639850">
        <ele>1397.0</ele>
        <time>2015-08-02T13:06:34Z</time>
      </trkpt>
      <trkpt lat="40.320817" lon="-4.639700">
        <ele>1397.0</ele>
        <time>2015-08-02T13:06:35Z</time>
      </trkpt>
      <trkpt lat="40.320750" lon="-4.639600">
        <ele>1398.0</ele>
        <time>2015-08-02T13:06:36Z</time>
      </trkpt>
      <trkpt lat="40.320683" lon="-4.639517">
        <ele>1398.0</ele>
        <time>2015-08-02T13:06:37Z</time>
      </trkpt>
      <trkpt lat="40.320600" lon="-4.639467">
        <ele>1400.0</ele>
        <time>2015-08-02T13:06:38Z</time>
      </trkpt>
      <trkpt lat="40.320533" lon="-4.639417">
        <ele>1403.0</ele>
        <time>2015-08-02T13:06:39Z</time>
      </trkpt>
      <trkpt lat="40.320483" lon="-4.639400">
        <ele>1406.0</ele>
        <time>2015-08-02T13:06:40Z</time>
      </trkpt>
      <trkpt lat="40.320417" lon="-4.639400">
        <ele>1407.0</ele>
        <time>2015-08-02T13:06:41Z</time>
      </trkpt>
      <trkpt lat="40.320367" lon="-4.639433">
        <ele>1408.0</ele>
        <time>2015-08-02T13:06:42Z</time>
      </trkpt>
      <trkpt lat="40.320333" lon="-4.639500">
        <ele>1409.0</ele>
        <time>2015-08-02T13:06:43Z</time>
      </trkpt>
      <trkpt lat="40.320317" lon="-4.639600">
        <ele>1412.0</ele>
        <time>2015-08-02T13:06:44Z</time>
      </trkpt>
      <trkpt lat="40.320350" lon="-4.639717">
        <ele>1414.0</ele>
        <time>2015-08-02T13:06:45Z</time>
      </trkpt>
      <trkpt lat="40.320400" lon="-4.639817">
        <ele>1417.0</ele>
        <time>2015-08-02T13:06:46Z</time>
      </trkpt>
      <trkpt lat="40.320500" lon="-4.639917">
        <ele>1419.0</ele>
        <time>2015-08-02T13:06:47Z</time>
      </trkpt>
      <trkpt lat="40.320617" lon="-4.640000">
        <ele>1422.0</ele>
        <time>2015-08-02T13:06:48Z</time>
      </trkpt>
      <trkpt lat="40.320750" lon="-4.640033">
        <ele>1426.0</ele>
        <time>2015-08-02T13:06:49Z</time>
      </trkpt>
      <trkpt lat="40.320883" lon="-4.640017">
        <ele>1429.0</ele>
        <time>2015-08-02T13:06:50Z</time>
      </trkpt>
      <trkpt lat="40.321017" lon="-4.639967">
        <ele>1431.0</ele>
        <time>2015-08-02T13:06:51Z</time>
      </trkpt>
      <trkpt lat="40.321150" lon="-4.639867">
        <ele>1431.0</ele>
        <time>2015-08-02T13:06:52Z</time>
      </trkpt>
      <trkpt lat="40.321250" lon="-4.639717">
        <ele>1432.0</ele>
        <time>2015-08-02T13:06:53Z</time>
      </trkpt>
      <trkpt lat="40.321333" lon="-4.639550">
        <ele>1434.0</ele>
        <time>2015-08-02T13:06:54Z</time>
      </trkpt>
      <trkpt lat="40.321367" lon="-4.639400">
        <ele>1437.0</ele>
        <time>2015-08-02T13:06:55Z</time>
      </trkpt>
      <trkpt lat="40.321367" lon="-4.639250">
        <ele>1438.0</ele>
        <time>2015-08-02T13:06:56Z</time>
      </trkpt>
      <trkpt lat="40.321333" lon="-4.639117">
        <ele>1440.0</ele>
        <time>2015-08-02T13:06:57Z</time>
      </trkpt>
      <trkpt lat="40.321283" lon="-4.639017">
        <ele>1443.0</ele>
        <time>2015-08-02T13:06:58Z</time>
      </trkpt>
      <trkpt lat="40.321233" lon="-4.638917">
        <ele>1446.0</ele>
        <time>2015-08-02T13:06:59Z</time>
      </trkpt>
      <trkpt lat="40.321167" lon="-4.638850">
        <ele>1449.0</ele>
        <time>2015-08-02T13:07:00Z</time>
      </trkpt>
      <trkpt lat="40.321117" lon="-4.638850">
        <ele>1451.0</ele>
        <time>2015-08-02T13:07:01Z</time>
      </trkpt>
      <trkpt lat="40.321067" lon="-4.638900">
        <ele>1451.0</ele>
        <time>2015-08-02T13:07:02Z</time>
      </trkpt>
      <trkpt lat="40.321067" lon="-4.639000">
        <ele>1450.0</ele>
        <time>2015-08-02T13:07:03Z</time>
      </trkpt>
      <trkpt lat="40.321083" lon="-4.639117">
        <ele>1451.0</ele>
        <time>2015-08-02T13:07:04Z</time>
      </trkpt>
      <trkpt lat="40.321133" lon="-4.639250">
        <ele>1453.0</ele>
        <time>2015-08-02T13:07:05Z</time>
      </trkpt>
      <trkpt lat="40.321200" lon="-4.639350">
        <ele>1455.0</ele>
        <time>2015-08-02T13:07:06Z</time>
      </trkpt>
      <trkpt lat="40.321267" lon="-4.639450">
        <ele>1459.0</ele>
        <time>2015-08-02T13:07:07Z</time>
      </trkpt>
      <trkpt lat="40.321333" lon="-4.639517">
        <ele>1462.0</ele>
        <time>2015-08-02T13:07:08Z</time>
      </trkpt>
      <trkpt lat="40.321417" lon="-4.639550">
        <ele>1464.0</ele>
        <time>2015-08-02T13:07:09Z</time>
      </trkpt>
      <trkpt lat="40.321517" lon="-4.639583">
        <ele>1464.0</ele>
        <time>2015-08-02T13:07:10Z</time>
      </trkpt>
      <trkpt lat="40.321650" lon="-4.639583">
        <ele>1464.0</ele>
        <time>2015-08-02T13:07:11Z</time>
      </trkpt>
      <trkpt lat="40.321800" lon="-4.639517">
        <ele>1465.0</ele>
        <time>2015-08-02T13:07:12Z</time>
      </trkpt>
      <trkpt lat="40.321933" lon="-4.639433">
        <ele>1467.0</ele>
        <time>2015-08-02T13:07:13Z</time>
      </trkpt>
      <trkpt lat="40.322033" lon="-4.639317">
        <ele>1470.0</ele>
        <time>2015-08-02T13:07:14Z</time>
      </trkpt>
      <trkpt lat="40.322133" lon="-4.639200">
        <ele>1472.0</ele>
        <time>2015-08-02T13:07:15Z</time>
      </trkpt>
      <trkpt lat="40.322217" lon="-4.639083">
        <ele>1472.0</ele>
        <time>2015-08-02T13:07:16Z</time>
      </trkpt>
      <trkpt lat="40.322283" lon="-4.638967">
        <ele>1473.0</ele>
        <time>2015-08-02T13:07:17Z</time>
      </trkpt>
      <trkpt lat="40.322350" lon="-4.638833">
        <ele>1473.0</ele>
        <time>2015-08-02T13:07:18Z</time>
      </trkpt>
      <trkpt lat="40.322383" lon="-4.638700">
        <ele>1472.0</ele>
        <time>2015-08-02T13:07:19Z</time>
      </trkpt>
      <trkpt lat="40.322400" lon="-4.638550">
        <ele>1471.0</ele>
        <time>2015-08-02T13:07:20Z</time>
      </trkpt>
      <trkpt lat="40.322367" lon="-4.638400">
        <ele>1470.0</ele>
        <time>2015-08-02T13:07:21Z</time>
      </trkpt>
      <trkpt lat="40.322317" lon="-4.638267">
        <ele>1470.0</ele>
        <time>2015-08-02T13:07:22Z</time>
      </trkpt>
      <trkpt lat="40.322250" lon="-4.638167">
        <ele>1471.0</ele>
        <time>2015-08-02T13:07:23Z</time>
      </trkpt>
      <trkpt lat="40.322183" lon="-4.638083">
        <ele>1473.0</ele>
        <time>2015-08-02T13:07:24Z</time>
      </trkpt>
      <trkpt lat="40.322133" lon="-4.638000">
        <ele>1476.0</ele>
        <time>2015-08-02T13:07:25Z</time>
      </trkpt>
      <trkpt lat="40.322067" lon="-4.637917">
        <ele>1479.0</ele>
        <time>2015-08-02T13:07:26Z</time>
      </trkpt>
      <trkpt lat="40.322033" lon="-4.637850">
        <ele>1483.0</ele>
        <time>2015-08-02T13:07:27Z</time>
      </trkpt>
      <trkpt lat="40.322017" lon="-4.637767">
        <ele>1486.0</ele>
        <time>2015-08-02T13:07:28Z</time>
      </trkpt>
      <trkpt lat="40.321983" lon="-4.637700">
        <ele>1488.0</ele>
        <time>2015-08-02T13:07:29Z</time>
      </trkpt>
      <trkpt lat="40.321950" lon="-4.637650">
        <ele>1488.0</ele>
        <time>2015-08-02T13:07:30Z</time>
      </trkpt>
      <trkpt lat="40.321900" lon="-4.637600">
        <ele>1488.0</ele>
        <time>2015-08-02T13:07:31Z</time>
      </trkpt>
      <trkpt lat="40.321850" lon="-4.637583">
        <ele>1488.0</ele>
        <time>2015-08-02T13:07:32Z</time>
      </trkpt>
      <trkpt lat="40.321783" lon="-4.637600">
        <ele>1487.0</ele>
        <time>2015-08-02T13:07:33Z</time>
      </trkpt>
      <trkpt lat="40.321767" lon="-4.637667">
        <ele>1487.0</ele>
        <time>2015-08-02T13:07:34Z</time>
      </trkpt>
      <trkpt lat="40.321767" lon="-4.637767">
        <ele>1488.0</ele>
        <time>2015-08-02T13:07:35Z</time>
      </trkpt>
      <trkpt lat="40.321817" lon="-4.637850">
        <ele>1489.0</ele>
        <time>2015-08-02T13:07:36Z</time>
      </trkpt>
      <trkpt lat="40.321917" lon="-4.637900">
        <ele>1491.0</ele>
        <time>2015-08-02T13:07:37Z</time>
      </trkpt>
      <trkpt lat="40.322017" lon="-4.637917">
        <ele>1492.0</ele>
        <time>2015-08-02T13:07:38Z</time>
      </trkpt>
      <trkpt lat="40.322133" lon="-4.637883">
        <ele>1493.0</ele>
        <time>2015-08-02T13:07:39Z</time>
      </trkpt>
      <trkpt lat="40.322250" lon="-4.637850">
        <ele>1493.0</ele>
        <time>2015-08-02T13:07:40Z</time>
      </trkpt>
      <trkpt lat="40.322367" lon="-4.637800">
        <ele>1493.0</ele>
        <time>2015-08-02T13:07:41Z</time>
      </trkpt>
      <trkpt lat="40.322500" lon="-4.637717">
        <ele>1491.0</ele>
        <time>2015-08-02T13:07:42Z</time>
      </trkpt>
      <trkpt lat="40.322633" lon="-4.637617">
        <ele>1490.0</ele>
        <time>2015-08-02T13:07:43Z</time>
      </trkpt>
      <trkpt lat="40.322750" lon="-4.637500">
        <ele>1491.0</ele>
        <time>2015-08-02T13:07:44Z</time>
      </trkpt>
      <trkpt lat="40.322867" lon="-4.637367">
        <ele>1492.0</ele>
        <time>2015-08-02T13:07:45Z</time>
      </trkpt>
      <trkpt lat="40.322967" lon="-4.637233">
        <ele>1494.0</ele>
        <time>2015-08-02T13:07:46Z</time>
      </trkpt>
      <trkpt lat="40.323067" lon="-4.637100">
        <ele>1495.0</ele>
        <time>2015-08-02T13:07:47Z</time>
      </trkpt>
      <trkpt lat="40.323167" lon="-4.636983">
        <ele>1496.0</ele>
        <time>2015-08-02T13:07:48Z</time>
      </trkpt>
      <trkpt lat="40.323250" lon="-4.636867">
        <ele>1498.0</ele>
        <time>2015-08-02T13:07:49Z</time>
      </trkpt>
      <trkpt lat="40.323333" lon="-4.636750">
        <ele>1498.0</ele>
        <time>2015-08-02T13:07:50Z</time>
      </trkpt>
      <trkpt lat="40.323400" lon="-4.636617">
        <ele>1498.0</ele>
        <time>2015-08-02T13:07:51Z</time>
      </trkpt>
      <trkpt lat="40.323433" lon="-4.636467">
        <ele>1498.0</ele>
        <time>2015-08-02T13:07:52Z</time>
      </trkpt>
      <trkpt lat="40.323467" lon="-4.636300">
        <ele>1497.0</ele>
        <time>2015-08-02T13:07:53Z</time>
      </trkpt>
      <trkpt lat="40.323467" lon="-4.636133">
        <ele>1497.0</ele>
        <time>2015-08-02T13:07:54Z</time>
      </trkpt>
      <trkpt lat="40.323467" lon="-4.635967">
        <ele>1497.0</ele>
        <time>2015-08-02T13:07:55Z</time>
      </trkpt>
      <trkpt lat="40.323450" lon="-4.635800">
        <ele>1498.0</ele>
        <time>2015-08-02T13:07:56Z</time>
      </trkpt>
      <trkpt lat="40.323433" lon="-4.635650">
        <ele>1498.0</ele>
        <time>2015-08-02T13:07:57Z</time>
      </trkpt>
      <trkpt lat="40.323417" lon="-4.635500">
        <ele>1498.0</ele>
        <time>2015-08-02T13:07:58Z</time>
      </trkpt>
      <trkpt lat="40.323400" lon="-4.635333">
        <ele>1498.0</ele>
        <time>2015-08-02T13:07:59Z</time>
      </trkpt>
      <trkpt lat="40.323400" lon="-4.635167">
        <ele>1496.0</ele>
        <time>2015-08-02T13:08:00Z</time>
      </trkpt>
      <trkpt lat="40.323383" lon="-4.635000">
        <ele>1495.0</ele>
        <time>2015-08-02T13:08:01Z</time>
      </trkpt>
      <trkpt lat="40.323383" lon="-4.634817">
        <ele>1495.0</ele>
        <time>2015-08-02T13:08:02Z</time>
      </trkpt>
      <trkpt lat="40.323367" lon="-4.634650">
        <ele>1495.0</ele>
        <time>2015-08-02T13:08:03Z</time>
      </trkpt>
      <trkpt lat="40.323350" lon="-4.634500">
        <ele>1495.0</ele>
        <time>2015-08-02T13:08:04Z</time>
      </trkpt>
      <trkpt lat="40.323333" lon="-4.634350">
        <ele>1495.0</ele>
        <time>2015-08-02T13:08:05Z</time>
      </trkpt>
      <trkpt lat="40.323333" lon="-4.634183">
        <ele>1495.0</ele>
        <time>2015-08-02T13:08:06Z</time>
      </trkpt>
      <trkpt lat="40.323317" lon="-4.634033">
        <ele>1496.0</ele>
        <time>2015-08-02T13:08:07Z</time>
      </trkpt>
      <trkpt lat="40.323317" lon="-4.633867">
        <ele>1495.0</ele>
        <time>2015-08-02T13:08:08Z</time>
      </trkpt>
      <trkpt lat="40.323300" lon="-4.633683">
        <ele>1495.0</ele>
        <time>2015-08-02T13:08:09Z</time>
      </trkpt>
      <trkpt lat="40.323283" lon="-4.633517">
        <ele>1496.0</ele>
        <time>2015-08-02T13:08:10Z</time>
      </trkpt>
      <trkpt lat="40.323267" lon="-4.633333">
        <ele>1498.0</ele>
        <time>2015-08-02T13:08:11Z</time>
      </trkpt>
      <trkpt lat="40.323250" lon="-4.633150">
        <ele>1500.0</ele>
        <time>2015-08-02T13:08:12Z</time>
      </trkpt>
      <trkpt lat="40.323250" lon="-4.632983">
        <ele>1504.0</ele>
        <time>2015-08-02T13:08:13Z</time>
      </trkpt>
      <trkpt lat="40.323267" lon="-4.632817">
        <ele>1507.0</ele>
        <time>2015-08-02T13:08:14Z</time>
      </trkpt>
      <trkpt lat="40.323300" lon="-4.632667">
        <ele>1508.0</ele>
        <time>2015-08-02T13:08:15Z</time>
      </trkpt>
      <trkpt lat="40.323317" lon="-4.632500">
        <ele>1510.0</ele>
        <time>2015-08-02T13:08:16Z</time>
      </trkpt>
      <trkpt lat="40.323317" lon="-4.632350">
        <ele>1510.0</ele>
        <time>2015-08-02T13:08:17Z</time>
      </trkpt>
      <trkpt lat="40.323267" lon="-4.632233">
        <ele>1510.0</ele>
        <time>2015-08-02T13:08:18Z</time>
      </trkpt>
      <trkpt lat="40.323183" lon="-4.632183">
        <ele>1510.0</ele>
        <time>2015-08-02T13:08:19Z</time>
      </trkpt>
      <trkpt lat="40.323100" lon="-4.632200">
        <ele>1513.0</ele>
        <time>2015-08-02T13:08:20Z</time>
      </trkpt>
      <trkpt lat="40.323033" lon="-4.632217">
        <ele>1517.0</ele>
        <time>2015-08-02T13:08:21Z</time>
      </trkpt>
      <trkpt lat="40.322983" lon="-4.632233">
        <ele>1523.0</ele>
        <time>2015-08-02T13:08:22Z</time>
      </trkpt>
      <trkpt lat="40.322950" lon="-4.632217">
        <ele>1528.0</ele>
        <time>2015-08-02T13:08:23Z</time>
      </trkpt>
      <trkpt lat="40.322917" lon="-4.632200">
        <ele>1533.0</ele>
        <time>2015-08-02T13:08:24Z</time>
      </trkpt>
      <trkpt lat="40.322883" lon="-4.632217">
        <ele>1537.0</ele>
        <time>2015-08-02T13:08:25Z</time>
      </trkpt>
      <trkpt lat="40.322900" lon="-4.632267">
        <ele>1538.0</ele>
        <time>2015-08-02T13:08:26Z</time>
      </trkpt>
      <trkpt lat="40.322933" lon="-4.632367">
        <ele>1539.0</ele>
        <time>2015-08-02T13:08:27Z</time>
      </trkpt>
      <trkpt lat="40.323000" lon="-4.632450">
        <ele>1540.0</ele>
        <time>2015-08-02T13:08:28Z</time>
      </trkpt>
      <trkpt lat="40.323100" lon="-4.632500">
        <ele>1541.0</ele>
        <time>2015-08-02T13:08:29Z</time>
      </trkpt>
      <trkpt lat="40.323217" lon="-4.632483">
        <ele>1542.0</ele>
        <time>2015-08-02T13:08:30Z</time>
      </trkpt>
      <trkpt lat="40.323333" lon="-4.632417">
        <ele>1542.0</ele>
        <time>2015-08-02T13:08:31Z</time>
      </trkpt>
      <trkpt lat="40.323433" lon="-4.632317">
        <ele>1542.0</ele>
        <time>2015-08-02T13:08:32Z</time>
      </trkpt>
      <trkpt lat="40.323517" lon="-4.632200">
        <ele>1543.0</ele>
        <time>2015-08-02T13:08:33Z</time>
      </trkpt>
      <trkpt lat="40.323583" lon="-4.632067">
        <ele>1545.0</ele>
        <time>2015-08-02T13:08:34Z</time>
      </trkpt>
      <trkpt lat="40.323633" lon="-4.631933">
        <ele>1547.0</ele>
        <time>2015-08-02T13:08:35Z</time>
      </trkpt>
      <trkpt lat="40.323700" lon="-4.631783">
        <ele>1548.0</ele>
        <time>2015-08-02T13:08:36Z</time>
      </trkpt>
      <trkpt lat="40.323767" lon="-4.631650">
        <ele>1549.0</ele>
        <time>2015-08-02T13:08:37Z</time>
      </trkpt>
      <trkpt lat="40.323850" lon="-4.631500">
        <ele>1551.0</ele>
        <time>2015-08-02T13:08:38Z</time>
      </trkpt>
      <trkpt lat="40.323933" lon="-4.631383">
        <ele>1553.0</ele>
        <time>2015-08-02T13:08:39Z</time>
      </trkpt>
      <trkpt lat="40.324017" lon="-4.631267">
        <ele>1556.0</ele>
        <time>2015-08-02T13:08:40Z</time>
      </trkpt>
      <trkpt lat="40.324067" lon="-4.631133">
        <ele>1558.0</ele>
        <time>2015-08-02T13:08:41Z</time>
      </trkpt>
      <trkpt lat="40.324083" lon="-4.631000">
        <ele>1560.0</ele>
        <time>2015-08-02T13:08:42Z</time>
      </trkpt>
      <trkpt lat="40.324083" lon="-4.630867">
        <ele>1562.0</ele>
        <time>2015-08-02T13:08:43Z</time>
      </trkpt>
      <trkpt lat="40.324100" lon="-4.630717">
        <ele>1565.0</ele>
        <time>2015-08-02T13:08:44Z</time>
      </trkpt>
      <trkpt lat="40.324150" lon="-4.630567">
        <ele>1570.0</ele>
        <time>2015-08-02T13:08:45Z</time>
      </trkpt>
      <trkpt lat="40.324183" lon="-4.630433">
        <ele>1575.0</ele>
        <time>2015-08-02T13:08:46Z</time>
      </trkpt>
      <trkpt lat="40.324200" lon="-4.630317">
        <ele>1580.0</ele>
        <time>2015-08-02T13:08:47Z</time>
      </trkpt>
      <trkpt lat="40.324217" lon="-4.630200">
        <ele>1583.0</ele>
        <time>2015-08-02T13:08:48Z</time>
      </trkpt>
      <trkpt lat="40.324217" lon="-4.630083">
        <ele>1586.0</ele>
        <time>2015-08-02T13:08:49Z</time>
      </trkpt>
      <trkpt lat="40.324183" lon="-4.630000">
        <ele>1589.0</ele>
        <time>2015-08-02T13:08:50Z</time>
      </trkpt>
      <trkpt lat="40.324150" lon="-4.629950">
        <ele>1593.0</ele>
        <time>2015-08-02T13:08:51Z</time>
      </trkpt>
      <trkpt lat="40.324100" lon="-4.629950">
        <ele>1597.0</ele>
        <time>2015-08-02T13:08:52Z</time>
      </trkpt>
      <trkpt lat="40.324067" lon="-4.630017">
        <ele>1603.0</ele>
        <time>2015-08-02T13:08:53Z</time>
      </trkpt>
      <trkpt lat="40.324067" lon="-4.630100">
        <ele>1610.0</ele>
        <time>2015-08-02T13:08:54Z</time>
      </trkpt>
      <trkpt lat="40.324117" lon="-4.630167">
        <ele>1616.0</ele>
        <time>2015-08-02T13:08:55Z</time>
      </trkpt>
      <trkpt lat="40.324200" lon="-4.630233">
        <ele>1622.0</ele>
        <time>2015-08-02T13:08:56Z</time>
      </trkpt>
      <trkpt lat="40.324317" lon="-4.630267">
        <ele>1625.0</ele>
        <time>2015-08-02T13:08:57Z</time>
      </trkpt>
      <trkpt lat="40.324433" lon="-4.630300">
        <ele>1628.0</ele>
        <time>2015-08-02T13:08:58Z</time>
      </trkpt>
      <trkpt lat="40.324583" lon="-4.630283">
        <ele>1631.0</ele>
        <time>2015-08-02T13:08:59Z</time>
      </trkpt>
      <trkpt lat="40.324733" lon="-4.630233">
        <ele>1634.0</ele>
        <time>2015-08-02T13:09:00Z</time>
      </trkpt>
      <trkpt lat="40.324867" lon="-4.630133">
        <ele>1638.0</ele>
        <time>2015-08-02T13:09:01Z</time>
      </trkpt>
      <trkpt lat="40.324967" lon="-4.629983">
        <ele>1641.0</ele>
        <time>2015-08-02T13:09:02Z</time>
      </trkpt>
      <trkpt lat="40.325017" lon="-4.629833">
        <ele>1645.0</ele>
        <time>2015-08-02T13:09:03Z</time>
      </trkpt>
      <trkpt lat="40.325050" lon="-4.629683">
        <ele>1649.0</ele>
        <time>2015-08-02T13:09:04Z</time>
      </trkpt>
      <trkpt lat="40.325067" lon="-4.629567">
        <ele>1653.0</ele>
        <time>2015-08-02T13:09:05Z</time>
      </trkpt>
      <trkpt lat="40.325050" lon="-4.629450">
        <ele>1657.0</ele>
        <time>2015-08-02T13:09:06Z</time>
      </trkpt>
      <trkpt lat="40.325017" lon="-4.629350">
        <ele>1660.0</ele>
        <time>2015-08-02T13:09:07Z</time>
      </trkpt>
      <trkpt lat="40.324983" lon="-4.629267">
        <ele>1664.0</ele>
        <time>2015-08-02T13:09:08Z</time>
      </trkpt>
      <trkpt lat="40.324950" lon="-4.629183">
        <ele>1669.0</ele>
        <time>2015-08-02T13:09:09Z</time>
      </trkpt>
      <trkpt lat="40.324933" lon="-4.629133">
        <ele>1674.0</ele>
        <time>2015-08-02T13:09:10Z</time>
      </trkpt>
      <trkpt lat="40.324900" lon="-4.629100">
        <ele>1678.0</ele>
        <time>2015-08-02T13:09:11Z</time>
      </trkpt>
      <trkpt lat="40.324900" lon="-4.629117">
        <ele>1681.0</ele>
        <time>2015-08-02T13:09:12Z</time>
      </trkpt>
      <trkpt lat="40.324900" lon="-4.629200">
        <ele>1682.0</ele>
        <time>2015-08-02T13:09:13Z</time>
      </trkpt>
      <trkpt lat="40.324967" lon="-4.629350">
        <ele>1684.0</ele>
        <time>2015-08-02T13:09:14Z</time>
      </trkpt>
      <trkpt lat="40.325017" lon="-4.629383">
        <ele>1688.0</ele>
        <time>2015-08-02T13:09:15Z</time>
      </trkpt>
      <trkpt lat="40.325133" lon="-4.629433">
        <ele>1692.0</ele>
        <time>2015-08-02T13:09:16Z</time>
      </trkpt>
      <trkpt lat="40.325283" lon="-4.629433">
        <ele>1697.0</ele>
        <time>2015-08-02T13:09:17Z</time>
      </trkpt>
      <trkpt lat="40.325417" lon="-4.629350">
        <ele>1699.0</ele>
        <time>2015-08-02T13:09:18Z</time>
      </trkpt>
      <trkpt lat="40.325550" lon="-4.629233">
        <ele>1700.0</ele>
        <time>2015-08-02T13:09:19Z</time>
      </trkpt>
      <trkpt lat="40.325667" lon="-4.629083">
        <ele>1703.0</ele>
        <time>2015-08-02T13:09:20Z</time>
      </trkpt>
      <trkpt lat="40.325733" lon="-4.628917">
        <ele>1707.0</ele>
        <time>2015-08-02T13:09:21Z</time>
      </trkpt>
      <trkpt lat="40.325783" lon="-4.628767">
        <ele>1712.0</ele>
        <time>2015-08-02T13:09:22Z</time>
      </trkpt>
      <trkpt lat="40.325817" lon="-4.628633">
        <ele>1716.0</ele>
        <time>2015-08-02T13:09:23Z</time>
      </trkpt>
      <trkpt lat="40.325850" lon="-4.628500">
        <ele>1720.0</ele>
        <time>2015-08-02T13:09:24Z</time>
      </trkpt>
      <trkpt lat="40.325883" lon="-4.628383">
        <ele>1724.0</ele>
        <time>2015-08-02T13:09:25Z</time>
      </trkpt>
      <trkpt lat="40.325883" lon="-4.628283">
        <ele>1726.0</ele>
        <time>2015-08-02T13:09:26Z</time>
      </trkpt>
      <trkpt lat="40.325850" lon="-4.628167">
        <ele>1728.0</ele>
        <time>2015-08-02T13:09:27Z</time>
      </trkpt>
      <trkpt lat="40.325800" lon="-4.628150">
        <ele>1730.0</ele>
        <time>2015-08-02T13:09:28Z</time>
      </trkpt>
      <trkpt lat="40.325750" lon="-4.628133">
        <ele>1734.0</ele>
        <time>2015-08-02T13:09:29Z</time>
      </trkpt>
      <trkpt lat="40.325733" lon="-4.628133">
        <ele>1738.0</ele>
        <time>2015-08-02T13:09:30Z</time>
      </trkpt>
      <trkpt lat="40.325717" lon="-4.628150">
        <ele>1743.0</ele>
        <time>2015-08-02T13:09:31Z</time>
      </trkpt>
      <trkpt lat="40.325750" lon="-4.628183">
        <ele>1746.0</ele>
        <time>2015-08-02T13:09:32Z</time>
      </trkpt>
      <trkpt lat="40.325867" lon="-4.628267">
        <ele>1752.0</ele>
        <time>2015-08-02T13:09:34Z</time>
      </trkpt>
      <trkpt lat="40.325983" lon="-4.628300">
        <ele>1754.0</ele>
        <time>2015-08-02T13:09:35Z</time>
      </trkpt>
      <trkpt lat="40.326117" lon="-4.628317">
        <ele>1757.0</ele>
        <time>2015-08-02T13:09:36Z</time>
      </trkpt>
      <trkpt lat="40.326250" lon="-4.628283">
        <ele>1760.0</ele>
        <time>2015-08-02T13:09:37Z</time>
      </trkpt>
      <trkpt lat="40.326400" lon="-4.628200">
        <ele>1762.0</ele>
        <time>2015-08-02T13:09:38Z</time>
      </trkpt>
      <trkpt lat="40.326550" lon="-4.628100">
        <ele>1763.0</ele>
        <time>2015-08-02T13:09:39Z</time>
      </trkpt>
      <trkpt lat="40.326683" lon="-4.628000">
        <ele>1766.0</ele>
        <time>2015-08-02T13:09:40Z</time>
      </trkpt>
      <trkpt lat="40.326783" lon="-4.627900">
        <ele>1771.0</ele>
        <time>2015-08-02T13:09:41Z</time>
      </trkpt>
      <trkpt lat="40.326883" lon="-4.627767">
        <ele>1774.0</ele>
        <time>2015-08-02T13:09:42Z</time>
      </trkpt>
      <trkpt lat="40.326950" lon="-4.627617">
        <ele>1777.0</ele>
        <time>2015-08-02T13:09:43Z</time>
      </trkpt>
      <trkpt lat="40.327000" lon="-4.627467">
        <ele>1779.0</ele>
        <time>2015-08-02T13:09:44Z</time>
      </trkpt>
      <trkpt lat="40.327033" lon="-4.627317">
        <ele>1782.0</ele>
        <time>2015-08-02T13:09:45Z</time>
      </trkpt>
      <trkpt lat="40.327050" lon="-4.627183">
        <ele>1786.0</ele>
        <time>2015-08-02T13:09:46Z</time>
      </trkpt>
      <trkpt lat="40.327033" lon="-4.627067">
        <ele>1789.0</ele>
        <time>2015-08-02T13:09:47Z</time>
      </trkpt>
      <trkpt lat="40.327017" lon="-4.626950">
        <ele>1793.0</ele>
        <time>2015-08-02T13:09:48Z</time>
      </trkpt>
      <trkpt lat="40.327000" lon="-4.626867">
        <ele>1797.0</ele>
        <time>2015-08-02T13:09:49Z</time>
      </trkpt>
      <trkpt lat="40.326983" lon="-4.626783">
        <ele>1802.0</ele>
        <time>2015-08-02T13:09:50Z</time>
      </trkpt>
      <trkpt lat="40.326967" lon="-4.626717">
        <ele>1807.0</ele>
        <time>2015-08-02T13:09:51Z</time>
      </trkpt>
      <trkpt lat="40.326950" lon="-4.626633">
        <ele>1810.0</ele>
        <time>2015-08-02T13:09:52Z</time>
      </trkpt>
      <trkpt lat="40.326933" lon="-4.626567">
        <ele>1812.0</ele>
        <time>2015-08-02T13:09:53Z</time>
      </trkpt>
      <trkpt lat="40.326917" lon="-4.626517">
        <ele>1814.0</ele>
        <time>2015-08-02T13:09:54Z</time>
      </trkpt>
      <trkpt lat="40.326883" lon="-4.626517">
        <ele>1816.0</ele>
        <time>2015-08-02T13:09:55Z</time>
      </trkpt>
      <trkpt lat="40.326867" lon="-4.626550">
        <ele>1817.0</ele>
        <time>2015-08-02T13:09:56Z</time>
      </trkpt>
      <trkpt lat="40.326900" lon="-4.626633">
        <ele>1819.0</ele>
        <time>2015-08-02T13:09:57Z</time>
      </trkpt>
      <trkpt lat="40.326950" lon="-4.626717">
        <ele>1821.0</ele>
        <time>2015-08-02T13:09:58Z</time>
      </trkpt>
      <trkpt lat="40.327067" lon="-4.626800">
        <ele>1823.0</ele>
        <time>2015-08-02T13:09:59Z</time>
      </trkpt>
      <trkpt lat="40.327200" lon="-4.626833">
        <ele>1824.0</ele>
        <time>2015-08-02T13:10:00Z</time>
      </trkpt>
      <trkpt lat="40.327367" lon="-4.626833">
        <ele>1827.0</ele>
        <time>2015-08-02T13:10:01Z</time>
      </trkpt>
      <trkpt lat="40.327533" lon="-4.626767">
        <ele>1829.0</ele>
        <time>2015-08-02T13:10:02Z</time>
      </trkpt>
      <trkpt lat="40.327683" lon="-4.626633">
        <ele>1831.0</ele>
        <time>2015-08-02T13:10:03Z</time>
      </trkpt>
      <trkpt lat="40.327783" lon="-4.626467">
        <ele>1833.0</ele>
        <time>2015-08-02T13:10:04Z</time>
      </trkpt>
      <trkpt lat="40.327867" lon="-4.626317">
        <ele>1837.0</ele>
        <time>2015-08-02T13:10:05Z</time>
      </trkpt>
      <trkpt lat="40.327950" lon="-4.626200">
        <ele>1843.0</ele>
        <time>2015-08-02T13:10:06Z</time>
      </trkpt>
      <trkpt lat="40.328017" lon="-4.626117">
        <ele>1849.0</ele>
        <time>2015-08-02T13:10:07Z</time>
      </trkpt>
      <trkpt lat="40.328100" lon="-4.626017">
        <ele>1852.0</ele>
        <time>2015-08-02T13:10:08Z</time>
      </trkpt>
      <trkpt lat="40.328167" lon="-4.625900">
        <ele>1855.0</ele>
        <time>2015-08-02T13:10:09Z</time>
      </trkpt>
      <trkpt lat="40.328200" lon="-4.625767">
        <ele>1856.0</ele>
        <time>2015-08-02T13:10:10Z</time>
      </trkpt>
      <trkpt lat="40.328217" lon="-4.625617">
        <ele>1858.0</ele>
        <time>2015-08-02T13:10:11Z</time>
      </trkpt>
      <trkpt lat="40.328200" lon="-4.625483">
        <ele>1861.0</ele>
        <time>2015-08-02T13:10:12Z</time>
      </trkpt>
      <trkpt lat="40.328133" lon="-4.625400">
        <ele>1863.0</ele>
        <time>2015-08-02T13:10:13Z</time>
      </trkpt>
      <trkpt lat="40.328067" lon="-4.625367">
        <ele>1867.0</ele>
        <time>2015-08-02T13:10:14Z</time>
      </trkpt>
      <trkpt lat="40.328017" lon="-4.625383">
        <ele>1872.0</ele>
        <time>2015-08-02T13:10:15Z</time>
      </trkpt>
      <trkpt lat="40.328000" lon="-4.625417">
        <ele>1877.0</ele>
        <time>2015-08-02T13:10:16Z</time>
      </trkpt>
      <trkpt lat="40.328000" lon="-4.625467">
        <ele>1882.0</ele>
        <time>2015-08-02T13:10:17Z</time>
      </trkpt>
      <trkpt lat="40.328033" lon="-4.625533">
        <ele>1884.0</ele>
        <time>2015-08-02T13:10:18Z</time>
      </trkpt>
      <trkpt lat="40.328100" lon="-4.625617">
        <ele>1887.0</ele>
        <time>2015-08-02T13:10:19Z</time>
      </trkpt>
      <trkpt lat="40.328183" lon="-4.625683">
        <ele>1889.0</ele>
        <time>2015-08-02T13:10:20Z</time>
      </trkpt>
      <trkpt lat="40.328300" lon="-4.625733">
        <ele>1892.0</ele>
        <time>2015-08-02T13:10:21Z</time>
      </trkpt>
      <trkpt lat="40.328433" lon="-4.625750">
        <ele>1894.0</ele>
        <time>2015-08-02T13:10:22Z</time>
      </trkpt>
      <trkpt lat="40.328600" lon="-4.625733">
        <ele>1894.0</ele>
        <time>2015-08-02T13:10:23Z</time>
      </trkpt>
      <trkpt lat="40.328767" lon="-4.625650">
        <ele>1895.0</ele>
        <time>2015-08-02T13:10:24Z</time>
      </trkpt>
      <trkpt lat="40.328900" lon="-4.625550">
        <ele>1896.0</ele>
        <time>2015-08-02T13:10:25Z</time>
      </trkpt>
      <trkpt lat="40.329017" lon="-4.625400">
        <ele>1898.0</ele>
        <time>2015-08-02T13:10:26Z</time>
      </trkpt>
      <trkpt lat="40.329100" lon="-4.625250">
        <ele>1901.0</ele>
        <time>2015-08-02T13:10:27Z</time>
      </trkpt>
      <trkpt lat="40.329150" lon="-4.625083">
        <ele>1904.0</ele>
        <time>2015-08-02T13:10:28Z</time>
      </trkpt>
      <trkpt lat="40.329167" lon="-4.624933">
        <ele>1908.0</ele>
        <time>2015-08-02T13:10:29Z</time>
      </trkpt>
      <trkpt lat="40.329167" lon="-4.624783">
        <ele>1912.0</ele>
        <time>2015-08-02T13:10:30Z</time>
      </trkpt>
      <trkpt lat="40.329150" lon="-4.624667">
        <ele>1917.0</ele>
        <time>2015-08-02T13:10:31Z</time>
      </trkpt>
      <trkpt lat="40.329117" lon="-4.624583">
        <ele>1921.0</ele>
        <time>2015-08-02T13:10:32Z</time>
      </trkpt>
      <trkpt lat="40.329083" lon="-4.624533">
        <ele>1925.0</ele>
        <time>2015-08-02T13:10:33Z</time>
      </trkpt>
      <trkpt lat="40.329050" lon="-4.624533">
        <ele>1929.0</ele>
        <time>2015-08-02T13:10:34Z</time>
      </trkpt>
      <trkpt lat="40.329017" lon="-4.624583">
        <ele>1932.0</ele>
        <time>2015-08-02T13:10:35Z</time>
      </trkpt>
      <trkpt lat="40.329017" lon="-4.624683">
        <ele>1933.0</ele>
        <time>2015-08-02T13:10:36Z</time>
      </trkpt>
      <trkpt lat="40.329050" lon="-4.624817">
        <ele>1936.0</ele>
        <time>2015-08-02T13:10:37Z</time>
      </trkpt>
      <trkpt lat="40.329133" lon="-4.624917">
        <ele>1938.0</ele>
        <time>2015-08-02T13:10:38Z</time>
      </trkpt>
      <trkpt lat="40.329250" lon="-4.625000">
        <ele>1940.0</ele>
        <time>2015-08-02T13:10:39Z</time>
      </trkpt>
      <trkpt lat="40.329367" lon="-4.625033">
        <ele>1944.0</ele>
        <time>2015-08-02T13:10:40Z</time>
      </trkpt>
      <trkpt lat="40.329517" lon="-4.625017">
        <ele>1947.0</ele>
        <time>2015-08-02T13:10:41Z</time>
      </trkpt>
      <trkpt lat="40.329667" lon="-4.624983">
        <ele>1950.0</ele>
        <time>2015-08-02T13:10:42Z</time>
      </trkpt>
      <trkpt lat="40.329817" lon="-4.624900">
        <ele>1950.0</ele>
        <time>2015-08-02T13:10:43Z</time>
      </trkpt>
      <trkpt lat="40.329950" lon="-4.624783">
        <ele>1951.0</ele>
        <time>2015-08-02T13:10:44Z</time>
      </trkpt>
      <trkpt lat="40.330050" lon="-4.624617">
        <ele>1953.0</ele>
        <time>2015-08-02T13:10:45Z</time>
      </trkpt>
      <trkpt lat="40.330117" lon="-4.624450">
        <ele>1956.0</ele>
        <time>2015-08-02T13:10:46Z</time>
      </trkpt>
      <trkpt lat="40.330150" lon="-4.624300">
        <ele>1960.0</ele>
        <time>2015-08-02T13:10:47Z</time>
      </trkpt>
      <trkpt lat="40.330167" lon="-4.624167">
        <ele>1965.0</ele>
        <time>2015-08-02T13:10:48Z</time>
      </trkpt>
      <trkpt lat="40.330183" lon="-4.624033">
        <ele>1970.0</ele>
        <time>2015-08-02T13:10:49Z</time>
      </trkpt>
      <trkpt lat="40.330200" lon="-4.623900">
        <ele>1974.0</ele>
        <time>2015-08-02T13:10:50Z</time>
      </trkpt>
      <trkpt lat="40.330200" lon="-4.623767">
        <ele>1977.0</ele>
        <time>2015-08-02T13:10:51Z</time>
      </trkpt>
      <trkpt lat="40.330200" lon="-4.623633">
        <ele>1979.0</ele>
        <time>2015-08-02T13:10:52Z</time>
      </trkpt>
      <trkpt lat="40.330167" lon="-4.623500">
        <ele>1981.0</ele>
        <time>2015-08-02T13:10:53Z</time>
      </trkpt>
      <trkpt lat="40.330133" lon="-4.623400">
        <ele>1983.0</ele>
        <time>2015-08-02T13:10:54Z</time>
      </trkpt>
      <trkpt lat="40.330100" lon="-4.623317">
        <ele>1986.0</ele>
        <time>2015-08-02T13:10:55Z</time>
      </trkpt>
      <trkpt lat="40.330050" lon="-4.623267">
        <ele>1990.0</ele>
        <time>2015-08-02T13:10:56Z</time>
      </trkpt>
      <trkpt lat="40.330017" lon="-4.623233">
        <ele>1993.0</ele>
        <time>2015-08-02T13:10:57Z</time>
      </trkpt>
      <trkpt lat="40.329967" lon="-4.623250">
        <ele>1995.0</ele>
        <time>2015-08-02T13:10:58Z</time>
      </trkpt>
      <trkpt lat="40.329950" lon="-4.623317">
        <ele>1997.0</ele>
        <time>2015-08-02T13:10:59Z</time>
      </trkpt>
      <trkpt lat="40.329950" lon="-4.623433">
        <ele>1996.0</ele>
        <time>2015-08-02T13:11:00Z</time>
      </trkpt>
      <trkpt lat="40.330017" lon="-4.623550">
        <ele>1996.0</ele>
        <time>2015-08-02T13:11:01Z</time>
      </trkpt>
      <trkpt lat="40.330117" lon="-4.623633">
        <ele>1998.0</ele>
        <time>2015-08-02T13:11:02Z</time>
      </trkpt>
      <trkpt lat="40.330250" lon="-4.623667">
        <ele>2000.0</ele>
        <time>2015-08-02T13:11:03Z</time>
      </trkpt>
      <trkpt lat="40.330400" lon="-4.623650">
        <ele>2002.0</ele>
        <time>2015-08-02T13:11:04Z</time>
      </trkpt>
      <trkpt lat="40.330550" lon="-4.623600">
        <ele>2004.0</ele>
        <time>2015-08-02T13:11:05Z</time>
      </trkpt>
      <trkpt lat="40.330700" lon="-4.623533">
        <ele>2006.0</ele>
        <time>2015-08-02T13:11:06Z</time>
      </trkpt>
      <trkpt lat="40.330817" lon="-4.623433">
        <ele>2008.0</ele>
        <time>2015-08-02T13:11:07Z</time>
      </trkpt>
      <trkpt lat="40.330933" lon="-4.623317">
        <ele>2011.0</ele>
        <time>2015-08-02T13:11:08Z</time>
      </trkpt>
      <trkpt lat="40.331050" lon="-4.623183">
        <ele>2012.0</ele>
        <time>2015-08-02T13:11:09Z</time>
      </trkpt>
      <trkpt lat="40.331150" lon="-4.623033">
        <ele>2014.0</ele>
        <time>2015-08-02T13:11:10Z</time>
      </trkpt>
      <trkpt lat="40.331233" lon="-4.622883">
        <ele>2016.0</ele>
        <time>2015-08-02T13:11:11Z</time>
      </trkpt>
      <trkpt lat="40.331300" lon="-4.622733">
        <ele>2018.0</ele>
        <time>2015-08-02T13:11:12Z</time>
      </trkpt>
      <trkpt lat="40.331333" lon="-4.622583">
        <ele>2020.0</ele>
        <time>2015-08-02T13:11:13Z</time>
      </trkpt>
      <trkpt lat="40.331317" lon="-4.622450">
        <ele>2021.0</ele>
        <time>2015-08-02T13:11:14Z</time>
      </trkpt>
      <trkpt lat="40.331267" lon="-4.622333">
        <ele>2023.0</ele>
        <time>2015-08-02T13:11:15Z</time>
      </trkpt>
      <trkpt lat="40.331217" lon="-4.622250">
        <ele>2026.0</ele>
        <time>2015-08-02T13:11:16Z</time>
      </trkpt>
      <trkpt lat="40.331183" lon="-4.622183">
        <ele>2030.0</ele>
        <time>2015-08-02T13:11:17Z</time>
      </trkpt>
      <trkpt lat="40.331150" lon="-4.622150">
        <ele>2034.0</ele>
        <time>2015-08-02T13:11:18Z</time>
      </trkpt>
      <trkpt lat="40.331117" lon="-4.622133">
        <ele>2037.0</ele>
        <time>2015-08-02T13:11:19Z</time>
      </trkpt>
      <trkpt lat="40.331083" lon="-4.622150">
        <ele>2040.0</ele>
        <time>2015-08-02T13:11:20Z</time>
      </trkpt>
      <trkpt lat="40.331067" lon="-4.622200">
        <ele>2041.0</ele>
        <time>2015-08-02T13:11:21Z</time>
      </trkpt>
      <trkpt lat="40.331050" lon="-4.622283">
        <ele>2040.0</ele>
        <time>2015-08-02T13:11:22Z</time>
      </trkpt>
      <trkpt lat="40.331067" lon="-4.622383">
        <ele>2040.0</ele>
        <time>2015-08-02T13:11:23Z</time>
      </trkpt>
      <trkpt lat="40.331117" lon="-4.622500">
        <ele>2041.0</ele>
        <time>2015-08-02T13:11:24Z</time>
      </trkpt>
      <trkpt lat="40.331217" lon="-4.622567">
        <ele>2043.0</ele>
        <time>2015-08-02T13:11:25Z</time>
      </trkpt>
      <trkpt lat="40.331350" lon="-4.622600">
        <ele>2046.0</ele>
        <time>2015-08-02T13:11:26Z</time>
      </trkpt>
      <trkpt lat="40.331483" lon="-4.622583">
        <ele>2047.0</ele>
        <time>2015-08-02T13:11:27Z</time>
      </trkpt>
      <trkpt lat="40.331633" lon="-4.622517">
        <ele>2048.0</ele>
        <time>2015-08-02T13:11:28Z</time>
      </trkpt>
      <trkpt lat="40.331783" lon="-4.622433">
        <ele>2049.0</ele>
        <time>2015-08-02T13:11:29Z</time>
      </trkpt>
      <trkpt lat="40.331900" lon="-4.622300">
        <ele>2051.0</ele>
        <time>2015-08-02T13:11:30Z</time>
      </trkpt>
      <trkpt lat="40.332017" lon="-4.622133">
        <ele>2052.0</ele>
        <time>2015-08-02T13:11:31Z</time>
      </trkpt>
      <trkpt lat="40.332100" lon="-4.621967">
        <ele>2053.0</ele>
        <time>2015-08-02T13:11:32Z</time>
      </trkpt>
      <trkpt lat="40.332183" lon="-4.621767">
        <ele>2054.0</ele>
        <time>2015-08-02T13:11:33Z</time>
      </trkpt>
      <trkpt lat="40.332217" lon="-4.621567">
        <ele>2056.0</ele>
        <time>2015-08-02T13:11:34Z</time>
      </trkpt>
      <trkpt lat="40.332233" lon="-4.621383">
        <ele>2060.0</ele>
        <time>2015-08-02T13:11:35Z</time>
      </trkpt>
      <trkpt lat="40.332200" lon="-4.621250">
        <ele>2065.0</ele>
        <time>2015-08-02T13:11:36Z</time>
      </trkpt>
      <trkpt lat="40.332150" lon="-4.621133">
        <ele>2069.0</ele>
        <time>2015-08-02T13:11:37Z</time>
      </trkpt>
      <trkpt lat="40.332100" lon="-4.621033">
        <ele>2073.0</ele>
        <time>2015-08-02T13:11:38Z</time>
      </trkpt>
      <trkpt lat="40.332050" lon="-4.620983">
        <ele>2076.0</ele>
        <time>2015-08-02T13:11:39Z</time>
      </trkpt>
      <trkpt lat="40.332000" lon="-4.620917">
        <ele>2080.0</ele>
        <time>2015-08-02T13:11:40Z</time>
      </trkpt>
      <trkpt lat="40.331950" lon="-4.620850">
        <ele>2082.0</ele>
        <time>2015-08-02T13:11:41Z</time>
      </trkpt>
      <trkpt lat="40.331883" lon="-4.620783">
        <ele>2083.0</ele>
        <time>2015-08-02T13:11:42Z</time>
      </trkpt>
      <trkpt lat="40.331833" lon="-4.620700">
        <ele>2084.0</ele>
        <time>2015-08-02T13:11:43Z</time>
      </trkpt>
      <trkpt lat="40.331767" lon="-4.620617">
        <ele>2086.0</ele>
        <time>2015-08-02T13:11:44Z</time>
      </trkpt>
      <trkpt lat="40.331700" lon="-4.620533">
        <ele>2088.0</ele>
        <time>2015-08-02T13:11:45Z</time>
      </trkpt>
      <trkpt lat="40.331633" lon="-4.620483">
        <ele>2090.0</ele>
        <time>2015-08-02T13:11:46Z</time>
      </trkpt>
      <trkpt lat="40.331583" lon="-4.620433">
        <ele>2092.0</ele>
        <time>2015-08-02T13:11:47Z</time>
      </trkpt>
      <trkpt lat="40.331500" lon="-4.620367">
        <ele>2094.0</ele>
        <time>2015-08-02T13:11:48Z</time>
      </trkpt>
      <trkpt lat="40.331433" lon="-4.620317">
        <ele>2095.0</ele>
        <time>2015-08-02T13:11:49Z</time>
      </trkpt>
      <trkpt lat="40.331350" lon="-4.620250">
        <ele>2096.0</ele>
        <time>2015-08-02T13:11:50Z</time>
      </trkpt>
      <trkpt lat="40.331267" lon="-4.620200">
        <ele>2098.0</ele>
        <time>2015-08-02T13:11:51Z</time>
      </trkpt>
      <trkpt lat="40.331183" lon="-4.620183">
        <ele>2101.0</ele>
        <time>2015-08-02T13:11:52Z</time>
      </trkpt>
      <trkpt lat="40.331100" lon="-4.620167">
        <ele>2104.0</ele>
        <time>2015-08-02T13:11:53Z</time>
      </trkpt>
      <trkpt lat="40.331033" lon="-4.620150">
        <ele>2109.0</ele>
        <time>2015-08-02T13:11:54Z</time>
      </trkpt>
      <trkpt lat="40.330983" lon="-4.620133">
        <ele>2112.0</ele>
        <time>2015-08-02T13:11:55Z</time>
      </trkpt>
      <trkpt lat="40.330933" lon="-4.620083">
        <ele>2115.0</ele>
        <time>2015-08-02T13:11:56Z</time>
      </trkpt>
      <trkpt lat="40.330867" lon="-4.620033">
        <ele>2118.0</ele>
        <time>2015-08-02T13:11:57Z</time>
      </trkpt>
      <trkpt lat="40.330800" lon="-4.620000">
        <ele>2119.0</ele>
        <time>2015-08-02T13:11:58Z</time>
      </trkpt>
      <trkpt lat="40.330733" lon="-4.619967">
        <ele>2120.0</ele>
        <time>2015-08-02T13:11:59Z</time>
      </trkpt>
      <trkpt lat="40.330683" lon="-4.619933">
        <ele>2122.0</ele>
        <time>2015-08-02T13:12:00Z</time>
      </trkpt>
      <trkpt lat="40.330633" lon="-4.619867">
        <ele>2124.0</ele>
        <time>2015-08-02T13:12:01Z</time>
      </trkpt>
      <trkpt lat="40.330583" lon="-4.619817">
        <ele>2125.0</ele>
        <time>2015-08-02T13:12:02Z</time>
      </trkpt>
      <trkpt lat="40.330517" lon="-4.619750">
        <ele>2125.0</ele>
        <time>2015-08-02T13:12:03Z</time>
      </trkpt>
      <trkpt lat="40.330467" lon="-4.619683">
        <ele>2125.0</ele>
        <time>2015-08-02T13:12:04Z</time>
      </trkpt>
      <trkpt lat="40.330383" lon="-4.619650">
        <ele>2126.0</ele>
        <time>2015-08-02T13:12:05Z</time>
      </trkpt>
      <trkpt lat="40.330300" lon="-4.619650">
        <ele>2127.0</ele>
        <time>2015-08-02T13:12:06Z</time>
      </trkpt>
      <trkpt lat="40.330233" lon="-4.619650">
        <ele>2131.0</ele>
        <time>2015-08-02T13:12:07Z</time>
      </trkpt>
      <trkpt lat="40.330183" lon="-4.619667">
        <ele>2135.0</ele>
        <time>2015-08-02T13:12:08Z</time>
      </trkpt>
      <trkpt lat="40.330117" lon="-4.619667">
        <ele>2139.0</ele>
        <time>2015-08-02T13:12:09Z</time>
      </trkpt>
      <trkpt lat="40.330050" lon="-4.619683">
        <ele>2143.0</ele>
        <time>2015-08-02T13:12:10Z</time>
      </trkpt>
      <trkpt lat="40.329983" lon="-4.619683">
        <ele>2146.0</ele>
        <time>2015-08-02T13:12:11Z</time>
      </trkpt>
      <trkpt lat="40.329933" lon="-4.619683">
        <ele>2150.0</ele>
        <time>2015-08-02T13:12:12Z</time>
      </trkpt>
      <trkpt lat="40.329867" lon="-4.619683">
        <ele>2155.0</ele>
        <time>2015-08-02T13:12:13Z</time>
      </trkpt>
      <trkpt lat="40.329817" lon="-4.619683">
        <ele>2159.0</ele>
        <time>2015-08-02T13:12:14Z</time>
      </trkpt>
      <trkpt lat="40.329767" lon="-4.619667">
        <ele>2164.0</ele>
        <time>2015-08-02T13:12:15Z</time>
      </trkpt>
      <trkpt lat="40.329700" lon="-4.619667">
        <ele>2168.0</ele>
        <time>2015-08-02T13:12:16Z</time>
      </trkpt>
      <trkpt lat="40.329633" lon="-4.619667">
        <ele>2172.0</ele>
        <time>2015-08-02T13:12:17Z</time>
      </trkpt>
      <trkpt lat="40.329567" lon="-4.619683">
        <ele>2175.0</ele>
        <time>2015-08-02T13:12:18Z</time>
      </trkpt>
      <trkpt lat="40.329483" lon="-4.619700">
        <ele>2178.0</ele>
        <time>2015-08-02T13:12:19Z</time>
      </trkpt>
      <trkpt lat="40.329400" lon="-4.619733">
        <ele>2182.0</ele>
        <time>2015-08-02T13:12:20Z</time>
      </trkpt>
      <trkpt lat="40.329333" lon="-4.619733">
        <ele>2187.0</ele>
        <time>2015-08-02T13:12:21Z</time>
      </trkpt>
      <trkpt lat="40.329267" lon="-4.619733">
        <ele>2191.0</ele>
        <time>2015-08-02T13:12:22Z</time>
      </trkpt>
      <trkpt lat="40.329200" lon="-4.619700">
        <ele>2195.0</ele>
        <time>2015-08-02T13:12:23Z</time>
      </trkpt>
      <trkpt lat="40.329117" lon="-4.619667">
        <ele>2197.0</ele>
        <time>2015-08-02T13:12:24Z</time>
      </trkpt>
      <trkpt lat="40.329033" lon="-4.619650">
        <ele>2200.0</ele>
        <time>2015-08-02T13:12:25Z</time>
      </trkpt>
      <trkpt lat="40.328950" lon="-4.619650">
        <ele>2203.0</ele>
        <time>2015-08-02T13:12:26Z</time>
      </trkpt>
      <trkpt lat="40.328867" lon="-4.619683">
        <ele>2206.0</ele>
        <time>2015-08-02T13:12:27Z</time>
      </trkpt>
      <trkpt lat="40.328833" lon="-4.619767">
        <ele>2210.0</ele>
        <time>2015-08-02T13:12:28Z</time>
      </trkpt>
      <trkpt lat="40.328850" lon="-4.619867">
        <ele>2215.0</ele>
        <time>2015-08-02T13:12:29Z</time>
      </trkpt>
      <trkpt lat="40.328917" lon="-4.619950">
        <ele>2221.0</ele>
        <time>2015-08-02T13:12:30Z</time>
      </trkpt>
      <trkpt lat="40.329033" lon="-4.619950">
        <ele>2227.0</ele>
        <time>2015-08-02T13:12:31Z</time>
      </trkpt>
      <trkpt lat="40.329167" lon="-4.619900">
        <ele>2231.0</ele>
        <time>2015-08-02T13:12:32Z</time>
      </trkpt>
      <trkpt lat="40.329283" lon="-4.619783">
        <ele>2234.0</ele>
        <time>2015-08-02T13:12:33Z</time>
      </trkpt>
      <trkpt lat="40.329383" lon="-4.619633">
        <ele>2238.0</ele>
        <time>2015-08-02T13:12:34Z</time>
      </trkpt>
      <trkpt lat="40.329433" lon="-4.619467">
        <ele>2244.0</ele>
        <time>2015-08-02T13:12:35Z</time>
      </trkpt>
      <trkpt lat="40.329433" lon="-4.619317">
        <ele>2250.0</ele>
        <time>2015-08-02T13:12:36Z</time>
      </trkpt>
      <trkpt lat="40.329400" lon="-4.619167">
        <ele>2254.0</ele>
        <time>2015-08-02T13:12:37Z</time>
      </trkpt>
      <trkpt lat="40.329367" lon="-4.619033">
        <ele>2257.0</ele>
        <time>2015-08-02T13:12:38Z</time>
      </trkpt>
      <trkpt lat="40.329300" lon="-4.618917">
        <ele>2259.0</ele>
        <time>2015-08-02T13:12:39Z</time>
      </trkpt>
      <trkpt lat="40.329233" lon="-4.618817">
        <ele>2260.0</ele>
        <time>2015-08-02T13:12:40Z</time>
      </trkpt>
      <trkpt lat="40.329133" lon="-4.618750">
        <ele>2261.0</ele>
        <time>2015-08-02T13:12:41Z</time>
      </trkpt>
      <trkpt lat="40.329033" lon="-4.618683">
        <ele>2264.0</ele>
        <time>2015-08-02T13:12:42Z</time>
      </trkpt>
      <trkpt lat="40.328967" lon="-4.618667">
        <ele>2268.0</ele>
        <time>2015-08-02T13:12:43Z</time>
      </trkpt>
      <trkpt lat="40.328900" lon="-4.618683">
        <ele>2274.0</ele>
        <time>2015-08-02T13:12:44Z</time>
      </trkpt>
      <trkpt lat="40.328883" lon="-4.618717">
        <ele>2280.0</ele>
        <time>2015-08-02T13:12:45Z</time>
      </trkpt>
      <trkpt lat="40.328883" lon="-4.618783">
        <ele>2284.0</ele>
        <time>2015-08-02T13:12:46Z</time>
      </trkpt>
      <trkpt lat="40.328917" lon="-4.618883">
        <ele>2286.0</ele>
        <time>2015-08-02T13:12:47Z</time>
      </trkpt>
      <trkpt lat="40.328983" lon="-4.618967">
        <ele>2289.0</ele>
        <time>2015-08-02T13:12:48Z</time>
      </trkpt>
      <trkpt lat="40.329083" lon="-4.618967">
        <ele>2292.0</ele>
        <time>2015-08-02T13:12:49Z</time>
      </trkpt>
      <trkpt lat="40.329183" lon="-4.618883">
        <ele>2296.0</ele>
        <time>2015-08-02T13:12:50Z</time>
      </trkpt>
      <trkpt lat="40.329250" lon="-4.618733">
        <ele>2300.0</ele>
        <time>2015-08-02T13:12:51Z</time>
      </trkpt>
      <trkpt lat="40.329283" lon="-4.618567">
        <ele>2304.0</ele>
        <time>2015-08-02T13:12:52Z</time>
      </trkpt>
      <trkpt lat="40.329300" lon="-4.618400">
        <ele>2309.0</ele>
        <time>2015-08-02T13:12:53Z</time>
      </trkpt>
      <trkpt lat="40.329300" lon="-4.618250">
        <ele>2313.0</ele>
        <time>2015-08-02T13:12:54Z</time>
      </trkpt>
      <trkpt lat="40.329283" lon="-4.618100">
        <ele>2316.0</ele>
        <time>2015-08-02T13:12:55Z</time>
      </trkpt>
      <trkpt lat="40.329250" lon="-4.617950">
        <ele>2317.0</ele>
        <time>2015-08-02T13:12:56Z</time>
      </trkpt>
      <trkpt lat="40.329183" lon="-4.617800">
        <ele>2319.0</ele>
        <time>2015-08-02T13:12:57Z</time>
      </trkpt>
      <trkpt lat="40.329100" lon="-4.617683">
        <ele>2322.0</ele>
        <time>2015-08-02T13:12:58Z</time>
      </trkpt>
      <trkpt lat="40.328983" lon="-4.617617">
        <ele>2326.0</ele>
        <time>2015-08-02T13:12:59Z</time>
      </trkpt>
      <trkpt lat="40.328883" lon="-4.617583">
        <ele>2329.0</ele>
        <time>2015-08-02T13:13:00Z</time>
      </trkpt>
      <trkpt lat="40.328767" lon="-4.617583">
        <ele>2330.0</ele>
        <time>2015-08-02T13:13:01Z</time>
      </trkpt>
      <trkpt lat="40.328683" lon="-4.617550">
        <ele>2332.0</ele>
        <time>2015-08-02T13:13:02Z</time>
      </trkpt>
      <trkpt lat="40.328600" lon="-4.617517">
        <ele>2335.0</ele>
        <time>2015-08-02T13:13:03Z</time>
      </trkpt>
      <trkpt lat="40.328567" lon="-4.617467">
        <ele>2338.0</ele>
        <time>2015-08-02T13:13:04Z</time>
      </trkpt>
      <trkpt lat="40.328517" lon="-4.617433">
        <ele>2339.0</ele>
        <time>2015-08-02T13:13:05Z</time>
      </trkpt>
      <trkpt lat="40.328483" lon="-4.617383">
        <ele>2339.0</ele>
        <time>2015-08-02T13:13:06Z</time>
      </trkpt>
      <trkpt lat="40.328433" lon="-4.617367">
        <ele>2337.0</ele>
        <time>2015-08-02T13:13:07Z</time>
      </trkpt>
      <trkpt lat="40.328350" lon="-4.617367">
        <ele>2334.0</ele>
        <time>2015-08-02T13:13:08Z</time>
      </trkpt>
      <trkpt lat="40.328283" lon="-4.617367">
        <ele>2331.0</ele>
        <time>2015-08-02T13:13:09Z</time>
      </trkpt>
      <trkpt lat="40.328217" lon="-4.617383">
        <ele>2328.0</ele>
        <time>2015-08-02T13:13:10Z</time>
      </trkpt>
      <trkpt lat="40.328167" lon="-4.617400">
        <ele>2327.0</ele>
        <time>2015-08-02T13:13:11Z</time>
      </trkpt>
      <trkpt lat="40.328100" lon="-4.617417">
        <ele>2326.0</ele>
        <time>2015-08-02T13:13:12Z</time>
      </trkpt>
      <trkpt lat="40.328050" lon="-4.617400">
        <ele>2325.0</ele>
        <time>2015-08-02T13:13:13Z</time>
      </trkpt>
      <trkpt lat="40.327967" lon="-4.617367">
        <ele>2323.0</ele>
        <time>2015-08-02T13:13:14Z</time>
      </trkpt>
      <trkpt lat="40.327883" lon="-4.617317">
        <ele>2320.0</ele>
        <time>2015-08-02T13:13:15Z</time>
      </trkpt>
      <trkpt lat="40.327783" lon="-4.617250">
        <ele>2317.0</ele>
        <time>2015-08-02T13:13:16Z</time>
      </trkpt>
      <trkpt lat="40.327683" lon="-4.617200">
        <ele>2315.0</ele>
        <time>2015-08-02T13:13:17Z</time>
      </trkpt>
      <trkpt lat="40.327583" lon="-4.617167">
        <ele>2316.0</ele>
        <time>2015-08-02T13:13:18Z</time>
      </trkpt>
      <trkpt lat="40.327467" lon="-4.617117">
        <ele>2316.0</ele>
        <time>2015-08-02T13:13:19Z</time>
      </trkpt>
      <trkpt lat="40.327333" lon="-4.617050">
        <ele>2318.0</ele>
        <time>2015-08-02T13:13:20Z</time>
      </trkpt>
      <trkpt lat="40.327233" lon="-4.617017">
        <ele>2320.0</ele>
        <time>2015-08-02T13:13:21Z</time>
      </trkpt>
      <trkpt lat="40.327133" lon="-4.616983">
        <ele>2323.0</ele>
        <time>2015-08-02T13:13:22Z</time>
      </trkpt>
      <trkpt lat="40.327050" lon="-4.616950">
        <ele>2326.0</ele>
        <time>2015-08-02T13:13:23Z</time>
      </trkpt>
      <trkpt lat="40.326967" lon="-4.616900">
        <ele>2327.0</ele>
        <time>2015-08-02T13:13:24Z</time>
      </trkpt>
      <trkpt lat="40.326867" lon="-4.616850">
        <ele>2328.0</ele>
        <time>2015-08-02T13:13:25Z</time>
      </trkpt>
      <trkpt lat="40.326767" lon="-4.616783">
        <ele>2327.0</ele>
        <time>2015-08-02T13:13:26Z</time>
      </trkpt>
      <trkpt lat="40.326683" lon="-4.616717">
        <ele>2326.0</ele>
        <time>2015-08-02T13:13:27Z</time>
      </trkpt>
      <trkpt lat="40.326567" lon="-4.616650">
        <ele>2324.0</ele>
        <time>2015-08-02T13:13:28Z</time>
      </trkpt>
      <trkpt lat="40.326450" lon="-4.616583">
        <ele>2323.0</ele>
        <time>2015-08-02T13:13:29Z</time>
      </trkpt>
      <trkpt lat="40.326333" lon="-4.616533">
        <ele>2321.0</ele>
        <time>2015-08-02T13:13:30Z</time>
      </trkpt>
      <trkpt lat="40.326217" lon="-4.616483">
        <ele>2321.0</ele>
        <time>2015-08-02T13:13:31Z</time>
      </trkpt>
      <trkpt lat="40.326117" lon="-4.616417">
        <ele>2320.0</ele>
        <time>2015-08-02T13:13:32Z</time>
      </trkpt>
      <trkpt lat="40.326000" lon="-4.616333">
        <ele>2321.0</ele>
        <time>2015-08-02T13:13:33Z</time>
      </trkpt>
      <trkpt lat="40.325900" lon="-4.616267">
        <ele>2322.0</ele>
        <time>2015-08-02T13:13:34Z</time>
      </trkpt>
      <trkpt lat="40.325817" lon="-4.616200">
        <ele>2324.0</ele>
        <time>2015-08-02T13:13:35Z</time>
      </trkpt>
      <trkpt lat="40.325717" lon="-4.616150">
        <ele>2325.0</ele>
        <time>2015-08-02T13:13:36Z</time>
      </trkpt>
      <trkpt lat="40.325633" lon="-4.616117">
        <ele>2325.0</ele>
        <time>2015-08-02T13:13:37Z</time>
      </trkpt>
      <trkpt lat="40.325533" lon="-4.616100">
        <ele>2326.0</ele>
        <time>2015-08-02T13:13:38Z</time>
      </trkpt>
      <trkpt lat="40.325450" lon="-4.616083">
        <ele>2326.0</ele>
        <time>2015-08-02T13:13:39Z</time>
      </trkpt>
      <trkpt lat="40.325367" lon="-4.616067">
        <ele>2328.0</ele>
        <time>2015-08-02T13:13:40Z</time>
      </trkpt>
      <trkpt lat="40.325267" lon="-4.616033">
        <ele>2329.0</ele>
        <time>2015-08-02T13:13:41Z</time>
      </trkpt>
      <trkpt lat="40.325183" lon="-4.616033">
        <ele>2330.0</ele>
        <time>2015-08-02T13:13:42Z</time>
      </trkpt>
      <trkpt lat="40.325100" lon="-4.616033">
        <ele>2331.0</ele>
        <time>2015-08-02T13:13:43Z</time>
      </trkpt>
      <trkpt lat="40.325017" lon="-4.616033">
        <ele>2331.0</ele>
        <time>2015-08-02T13:13:44Z</time>
      </trkpt>
      <trkpt lat="40.324933" lon="-4.616033">
        <ele>2330.0</ele>
        <time>2015-08-02T13:13:45Z</time>
      </trkpt>
      <trkpt lat="40.324833" lon="-4.616033">
        <ele>2330.0</ele>
        <time>2015-08-02T13:13:46Z</time>
      </trkpt>
      <trkpt lat="40.324750" lon="-4.616017">
        <ele>2329.0</ele>
        <time>2015-08-02T13:13:47Z</time>
      </trkpt>
      <trkpt lat="40.324650" lon="-4.616000">
        <ele>2328.0</ele>
        <time>2015-08-02T13:13:48Z</time>
      </trkpt>
      <trkpt lat="40.324567" lon="-4.615967">
        <ele>2328.0</ele>
        <time>2015-08-02T13:13:49Z</time>
      </trkpt>
      <trkpt lat="40.324483" lon="-4.615950">
        <ele>2330.0</ele>
        <time>2015-08-02T13:13:50Z</time>
      </trkpt>
      <trkpt lat="40.324433" lon="-4.615950">
        <ele>2333.0</ele>
        <time>2015-08-02T13:13:51Z</time>
      </trkpt>
      <trkpt lat="40.324400" lon="-4.615933">
        <ele>2337.0</ele>
        <time>2015-08-02T13:13:52Z</time>
      </trkpt>
      <trkpt lat="40.324367" lon="-4.615950">
        <ele>2338.0</ele>
        <time>2015-08-02T13:13:53Z</time>
      </trkpt>
      <trkpt lat="40.324317" lon="-4.615950">
        <ele>2338.0</ele>
        <time>2015-08-02T13:13:54Z</time>
      </trkpt>
      <trkpt lat="40.324250" lon="-4.615950">
        <ele>2336.0</ele>
        <time>2015-08-02T13:13:55Z</time>
      </trkpt>
      <trkpt lat="40.324183" lon="-4.615933">
        <ele>2335.0</ele>
        <time>2015-08-02T13:13:56Z</time>
      </trkpt>
      <trkpt lat="40.324100" lon="-4.615917">
        <ele>2335.0</ele>
        <time>2015-08-02T13:13:57Z</time>
      </trkpt>
      <trkpt lat="40.324033" lon="-4.615883">
        <ele>2337.0</ele>
        <time>2015-08-02T13:13:58Z</time>
      </trkpt>
      <trkpt lat="40.323967" lon="-4.615833">
        <ele>2339.0</ele>
        <time>2015-08-02T13:13:59Z</time>
      </trkpt>
      <trkpt lat="40.323917" lon="-4.615767">
        <ele>2341.0</ele>
        <time>2015-08-02T13:14:00Z</time>
      </trkpt>
      <trkpt lat="40.323867" lon="-4.615683">
        <ele>2342.0</ele>
        <time>2015-08-02T13:14:01Z</time>
      </trkpt>
      <trkpt lat="40.323833" lon="-4.615583">
        <ele>2344.0</ele>
        <time>2015-08-02T13:14:02Z</time>
      </trkpt>
      <trkpt lat="40.323800" lon="-4.615483">
        <ele>2346.0</ele>
        <time>2015-08-02T13:14:03Z</time>
      </trkpt>
      <trkpt lat="40.323767" lon="-4.615400">
        <ele>2347.0</ele>
        <time>2015-08-02T13:14:04Z</time>
      </trkpt>
      <trkpt lat="40.323733" lon="-4.615333">
        <ele>2348.0</ele>
        <time>2015-08-02T13:14:05Z</time>
      </trkpt>
      <trkpt lat="40.323700" lon="-4.615250">
        <ele>2349.0</ele>
        <time>2015-08-02T13:14:06Z</time>
      </trkpt>
      <trkpt lat="40.323667" lon="-4.615167">
        <ele>2348.0</ele>
        <time>2015-08-02T13:14:07Z</time>
      </trkpt>
      <trkpt lat="40.323617" lon="-4.615100">
        <ele>2348.0</ele>
        <time>2015-08-02T13:14:08Z</time>
      </trkpt>
      <trkpt lat="40.323550" lon="-4.615050">
        <ele>2349.0</ele>
        <time>2015-08-02T13:14:09Z</time>
      </trkpt>
      <trkpt lat="40.323500" lon="-4.615017">
        <ele>2350.0</ele>
        <time>2015-08-02T13:14:10Z</time>
      </trkpt>
      <trkpt lat="40.323450" lon="-4.614983">
        <ele>2352.0</ele>
        <time>2015-08-02T13:14:11Z</time>
      </trkpt>
      <trkpt lat="40.323400" lon="-4.614950">
        <ele>2354.0</ele>
        <time>2015-08-02T13:14:12Z</time>
      </trkpt>
      <trkpt lat="40.323350" lon="-4.614933">
        <ele>2355.0</ele>
        <time>2015-08-02T13:14:13Z</time>
      </trkpt>
      <trkpt lat="40.323300" lon="-4.614900">
        <ele>2354.0</ele>
        <time>2015-08-02T13:14:14Z</time>
      </trkpt>
      <trkpt lat="40.323233" lon="-4.614900">
        <ele>2353.0</ele>
        <time>2015-08-02T13:14:15Z</time>
      </trkpt>
      <trkpt lat="40.323167" lon="-4.614867">
        <ele>2352.0</ele>
        <time>2015-08-02T13:14:16Z</time>
      </trkpt>
      <trkpt lat="40.323100" lon="-4.614833">
        <ele>2353.0</ele>
        <time>2015-08-02T13:14:17Z</time>
      </trkpt>
      <trkpt lat="40.323033" lon="-4.614783">
        <ele>2354.0</ele>
        <time>2015-08-02T13:14:18Z</time>
      </trkpt>
      <trkpt lat="40.322967" lon="-4.614733">
        <ele>2355.0</ele>
        <time>2015-08-02T13:14:19Z</time>
      </trkpt>
      <trkpt lat="40.322900" lon="-4.614717">
        <ele>2356.0</ele>
        <time>2015-08-02T13:14:20Z</time>
      </trkpt>
      <trkpt lat="40.322817" lon="-4.614717">
        <ele>2356.0</ele>
        <time>2015-08-02T13:14:21Z</time>
      </trkpt>
      <trkpt lat="40.322750" lon="-4.614700">
        <ele>2356.0</ele>
        <time>2015-08-02T13:14:22Z</time>
      </trkpt>
      <trkpt lat="40.322667" lon="-4.614667">
        <ele>2356.0</ele>
        <time>2015-08-02T13:14:23Z</time>
      </trkpt>
      <trkpt lat="40.322600" lon="-4.614633">
        <ele>2356.0</ele>
        <time>2015-08-02T13:14:24Z</time>
      </trkpt>
      <trkpt lat="40.322533" lon="-4.614600">
        <ele>2355.0</ele>
        <time>2015-08-02T13:14:25Z</time>
      </trkpt>
      <trkpt lat="40.322467" lon="-4.614567">
        <ele>2354.0</ele>
        <time>2015-08-02T13:14:26Z</time>
      </trkpt>
      <trkpt lat="40.322400" lon="-4.614550">
        <ele>2352.0</ele>
        <time>2015-08-02T13:14:27Z</time>
      </trkpt>
      <trkpt lat="40.322317" lon="-4.614533">
        <ele>2349.0</ele>
        <time>2015-08-02T13:14:28Z</time>
      </trkpt>
      <trkpt lat="40.322250" lon="-4.614533">
        <ele>2346.0</ele>
        <time>2015-08-02T13:14:29Z</time>
      </trkpt>
      <trkpt lat="40.322167" lon="-4.614517">
        <ele>2341.0</ele>
        <time>2015-08-02T13:14:30Z</time>
      </trkpt>
      <trkpt lat="40.322067" lon="-4.614483">
        <ele>2338.0</ele>
        <time>2015-08-02T13:14:31Z</time>
      </trkpt>
      <trkpt lat="40.321983" lon="-4.614417">
        <ele>2335.0</ele>
        <time>2015-08-02T13:14:32Z</time>
      </trkpt>
      <trkpt lat="40.321883" lon="-4.614350">
        <ele>2332.0</ele>
        <time>2015-08-02T13:14:33Z</time>
      </trkpt>
      <trkpt lat="40.321800" lon="-4.614250">
        <ele>2329.0</ele>
        <time>2015-08-02T13:14:34Z</time>
      </trkpt>
      <trkpt lat="40.321733" lon="-4.614150">
        <ele>2326.0</ele>
        <time>2015-08-02T13:14:35Z</time>
      </trkpt>
      <trkpt lat="40.321650" lon="-4.614067">
        <ele>2324.0</ele>
        <time>2015-08-02T13:14:36Z</time>
      </trkpt>
      <trkpt lat="40.321567" lon="-4.613967">
        <ele>2321.0</ele>
        <time>2015-08-02T13:14:37Z</time>
      </trkpt>
      <trkpt lat="40.321467" lon="-4.613883">
        <ele>2318.0</ele>
        <time>2015-08-02T13:14:38Z</time>
      </trkpt>
      <trkpt lat="40.321383" lon="-4.613800">
        <ele>2317.0</ele>
        <time>2015-08-02T13:14:39Z</time>
      </trkpt>
      <trkpt lat="40.321317" lon="-4.613717">
        <ele>2317.0</ele>
        <time>2015-08-02T13:14:40Z</time>
      </trkpt>
      <trkpt lat="40.321250" lon="-4.613633">
        <ele>2317.0</ele>
        <time>2015-08-02T13:14:41Z</time>
      </trkpt>
      <trkpt lat="40.321167" lon="-4.613550">
        <ele>2316.0</ele>
        <time>2015-08-02T13:14:42Z</time>
      </trkpt>
      <trkpt lat="40.321083" lon="-4.613467">
        <ele>2314.0</ele>
        <time>2015-08-02T13:14:43Z</time>
      </trkpt>
      <trkpt lat="40.321000" lon="-4.613383">
        <ele>2312.0</ele>
        <time>2015-08-02T13:14:44Z</time>
      </trkpt>
      <trkpt lat="40.320900" lon="-4.613283">
        <ele>2310.0</ele>
        <time>2015-08-02T13:14:45Z</time>
      </trkpt>
      <trkpt lat="40.320817" lon="-4.613183">
        <ele>2308.0</ele>
        <time>2015-08-02T13:14:46Z</time>
      </trkpt>
      <trkpt lat="40.320733" lon="-4.613067">
        <ele>2307.0</ele>
        <time>2015-08-02T13:14:47Z</time>
      </trkpt>
      <trkpt lat="40.320667" lon="-4.612967">
        <ele>2307.0</ele>
        <time>2015-08-02T13:14:48Z</time>
      </trkpt>
      <trkpt lat="40.320583" lon="-4.612883">
        <ele>2306.0</ele>
        <time>2015-08-02T13:14:49Z</time>
      </trkpt>
      <trkpt lat="40.320483" lon="-4.612783">
        <ele>2304.0</ele>
        <time>2015-08-02T13:14:50Z</time>
      </trkpt>
      <trkpt lat="40.320383" lon="-4.612683">
        <ele>2301.0</ele>
        <time>2015-08-02T13:14:51Z</time>
      </trkpt>
      <trkpt lat="40.320283" lon="-4.612567">
        <ele>2298.0</ele>
        <time>2015-08-02T13:14:52Z</time>
      </trkpt>
      <trkpt lat="40.320167" lon="-4.612450">
        <ele>2296.0</ele>
        <time>2015-08-02T13:14:53Z</time>
      </trkpt>
      <trkpt lat="40.320067" lon="-4.612350">
        <ele>2296.0</ele>
        <time>2015-08-02T13:14:54Z</time>
      </trkpt>
      <trkpt lat="40.319967" lon="-4.612250">
        <ele>2297.0</ele>
        <time>2015-08-02T13:14:55Z</time>
      </trkpt>
      <trkpt lat="40.319883" lon="-4.612183">
        <ele>2298.0</ele>
        <time>2015-08-02T13:14:56Z</time>
      </trkpt>
      <trkpt lat="40.319783" lon="-4.612117">
        <ele>2298.0</ele>
        <time>2015-08-02T13:14:57Z</time>
      </trkpt>
      <trkpt lat="40.319700" lon="-4.612050">
        <ele>2297.0</ele>
        <time>2015-08-02T13:14:58Z</time>
      </trkpt>
      <trkpt lat="40.319617" lon="-4.611967">
        <ele>2296.0</ele>
        <time>2015-08-02T13:14:59Z</time>
      </trkpt>
      <trkpt lat="40.319533" lon="-4.611883">
        <ele>2295.0</ele>
        <time>2015-08-02T13:15:00Z</time>
      </trkpt>
      <trkpt lat="40.319450" lon="-4.611817">
        <ele>2293.0</ele>
        <time>2015-08-02T13:15:01Z</time>
      </trkpt>
      <trkpt lat="40.319367" lon="-4.611750">
        <ele>2291.0</ele>
        <time>2015-08-02T13:15:02Z</time>
      </trkpt>
      <trkpt lat="40.319283" lon="-4.611683">
        <ele>2289.0</ele>
        <time>2015-08-02T13:15:03Z</time>
      </trkpt>
      <trkpt lat="40.319200" lon="-4.611600">
        <ele>2285.0</ele>
        <time>2015-08-02T13:15:04Z</time>
      </trkpt>
      <trkpt lat="40.319100" lon="-4.611517">
        <ele>2283.0</ele>
        <time>2015-08-02T13:15:05Z</time>
      </trkpt>
      <trkpt lat="40.319000" lon="-4.611433">
        <ele>2280.0</ele>
        <time>2015-08-02T13:15:06Z</time>
      </trkpt>
      <trkpt lat="40.318900" lon="-4.611350">
        <ele>2279.0</ele>
        <time>2015-08-02T13:15:07Z</time>
      </trkpt>
      <trkpt lat="40.318817" lon="-4.611267">
        <ele>2277.0</ele>
        <time>2015-08-02T13:15:08Z</time>
      </trkpt>
      <trkpt lat="40.318733" lon="-4.611183">
        <ele>2275.0</ele>
        <time>2015-08-02T13:15:09Z</time>
      </trkpt>
      <trkpt lat="40.318633" lon="-4.611100">
        <ele>2273.0</ele>
        <time>2015-08-02T13:15:10Z</time>
      </trkpt>
      <trkpt lat="40.318550" lon="-4.611017">
        <ele>2270.0</ele>
        <time>2015-08-02T13:15:11Z</time>
      </trkpt>
      <trkpt lat="40.318450" lon="-4.610917">
        <ele>2267.0</ele>
        <time>2015-08-02T13:15:12Z</time>
      </trkpt>
      <trkpt lat="40.318367" lon="-4.610817">
        <ele>2265.0</ele>
        <time>2015-08-02T13:15:13Z</time>
      </trkpt>
      <trkpt lat="40.318267" lon="-4.610733">
        <ele>2263.0</ele>
        <time>2015-08-02T13:15:14Z</time>
      </trkpt>
      <trkpt lat="40.318167" lon="-4.610650">
        <ele>2261.0</ele>
        <time>2015-08-02T13:15:15Z</time>
      </trkpt>
      <trkpt lat="40.318083" lon="-4.610567">
        <ele>2259.0</ele>
        <time>2015-08-02T13:15:16Z</time>
      </trkpt>
      <trkpt lat="40.317983" lon="-4.610467">
        <ele>2258.0</ele>
        <time>2015-08-02T13:15:17Z</time>
      </trkpt>
      <trkpt lat="40.317900" lon="-4.610367">
        <ele>2256.0</ele>
        <time>2015-08-02T13:15:18Z</time>
      </trkpt>
      <trkpt lat="40.317817" lon="-4.610250">
        <ele>2254.0</ele>
        <time>2015-08-02T13:15:19Z</time>
      </trkpt>
      <trkpt lat="40.317733" lon="-4.610133">
        <ele>2253.0</ele>
        <time>2015-08-02T13:15:20Z</time>
      </trkpt>
      <trkpt lat="40.317633" lon="-4.610033">
        <ele>2251.0</ele>
        <time>2015-08-02T13:15:21Z</time>
      </trkpt>
      <trkpt lat="40.317550" lon="-4.609933">
        <ele>2249.0</ele>
        <time>2015-08-02T13:15:22Z</time>
      </trkpt>
      <trkpt lat="40.317467" lon="-4.609833">
        <ele>2247.0</ele>
        <time>2015-08-02T13:15:23Z</time>
      </trkpt>
      <trkpt lat="40.317367" lon="-4.609717">
        <ele>2244.0</ele>
        <time>2015-08-02T13:15:24Z</time>
      </trkpt>
      <trkpt lat="40.317267" lon="-4.609617">
        <ele>2242.0</ele>
        <time>2015-08-02T13:15:25Z</time>
      </trkpt>
      <trkpt lat="40.317183" lon="-4.609500">
        <ele>2241.0</ele>
        <time>2015-08-02T13:15:26Z</time>
      </trkpt>
      <trkpt lat="40.317083" lon="-4.609417">
        <ele>2240.0</ele>
        <time>2015-08-02T13:15:27Z</time>
      </trkpt>
      <trkpt lat="40.316983" lon="-4.609333">
        <ele>2239.0</ele>
        <time>2015-08-02T13:15:28Z</time>
      </trkpt>
      <trkpt lat="40.316900" lon="-4.609250">
        <ele>2237.0</ele>
        <time>2015-08-02T13:15:29Z</time>
      </trkpt>
      <trkpt lat="40.316800" lon="-4.609183">
        <ele>2235.0</ele>
        <time>2015-08-02T13:15:30Z</time>
      </trkpt>
      <trkpt lat="40.316700" lon="-4.609117">
        <ele>2231.0</ele>
        <time>2015-08-02T13:15:31Z</time>
      </trkpt>
      <trkpt lat="40.316600" lon="-4.609033">
        <ele>2227.0</ele>
        <time>2015-08-02T13:15:32Z</time>
      </trkpt>
      <trkpt lat="40.316483" lon="-4.608950">
        <ele>2224.0</ele>
        <time>2015-08-02T13:15:33Z</time>
      </trkpt>
      <trkpt lat="40.316383" lon="-4.608867">
        <ele>2221.0</ele>
        <time>2015-08-02T13:15:34Z</time>
      </trkpt>
      <trkpt lat="40.316283" lon="-4.608783">
        <ele>2219.0</ele>
        <time>2015-08-02T13:15:35Z</time>
      </trkpt>
      <trkpt lat="40.316183" lon="-4.608700">
        <ele>2216.0</ele>
        <time>2015-08-02T13:15:36Z</time>
      </trkpt>
      <trkpt lat="40.316083" lon="-4.608617">
        <ele>2214.0</ele>
        <time>2015-08-02T13:15:37Z</time>
      </trkpt>
      <trkpt lat="40.315983" lon="-4.608533">
        <ele>2211.0</ele>
        <time>2015-08-02T13:15:38Z</time>
      </trkpt>
      <trkpt lat="40.315883" lon="-4.608433">
        <ele>2208.0</ele>
        <time>2015-08-02T13:15:39Z</time>
      </trkpt>
      <trkpt lat="40.315800" lon="-4.608350">
        <ele>2206.0</ele>
        <time>2015-08-02T13:15:40Z</time>
      </trkpt>
      <trkpt lat="40.315700" lon="-4.608250">
        <ele>2203.0</ele>
        <time>2015-08-02T13:15:41Z</time>
      </trkpt>
      <trkpt lat="40.315600" lon="-4.608150">
        <ele>2200.0</ele>
        <time>2015-08-02T13:15:42Z</time>
      </trkpt>
      <trkpt lat="40.315500" lon="-4.608050">
        <ele>2196.0</ele>
        <time>2015-08-02T13:15:43Z</time>
      </trkpt>
      <trkpt lat="40.315400" lon="-4.607950">
        <ele>2193.0</ele>
        <time>2015-08-02T13:15:44Z</time>
      </trkpt>
      <trkpt lat="40.315300" lon="-4.607850">
        <ele>2189.0</ele>
        <time>2015-08-02T13:15:45Z</time>
      </trkpt>
      <trkpt lat="40.315183" lon="-4.607733">
        <ele>2186.0</ele>
        <time>2015-08-02T13:15:46Z</time>
      </trkpt>
      <trkpt lat="40.315083" lon="-4.607633">
        <ele>2183.0</ele>
        <time>2015-08-02T13:15:47Z</time>
      </trkpt>
      <trkpt lat="40.314983" lon="-4.607533">
        <ele>2180.0</ele>
        <time>2015-08-02T13:15:48Z</time>
      </trkpt>
      <trkpt lat="40.314883" lon="-4.607450">
        <ele>2178.0</ele>
        <time>2015-08-02T13:15:49Z</time>
      </trkpt>
      <trkpt lat="40.314783" lon="-4.607350">
        <ele>2175.0</ele>
        <time>2015-08-02T13:15:50Z</time>
      </trkpt>
      <trkpt lat="40.314683" lon="-4.607267">
        <ele>2172.0</ele>
        <time>2015-08-02T13:15:51Z</time>
      </trkpt>
      <trkpt lat="40.314583" lon="-4.607167">
        <ele>2168.0</ele>
        <time>2015-08-02T13:15:52Z</time>
      </trkpt>
      <trkpt lat="40.314467" lon="-4.607083">
        <ele>2165.0</ele>
        <time>2015-08-02T13:15:53Z</time>
      </trkpt>
      <trkpt lat="40.314350" lon="-4.607000">
        <ele>2162.0</ele>
        <time>2015-08-02T13:15:54Z</time>
      </trkpt>
      <trkpt lat="40.314233" lon="-4.606917">
        <ele>2159.0</ele>
        <time>2015-08-02T13:15:55Z</time>
      </trkpt>
      <trkpt lat="40.314117" lon="-4.606850">
        <ele>2156.0</ele>
        <time>2015-08-02T13:15:56Z</time>
      </trkpt>
      <trkpt lat="40.314017" lon="-4.606800">
        <ele>2153.0</ele>
        <time>2015-08-02T13:15:57Z</time>
      </trkpt>
      <trkpt lat="40.313900" lon="-4.606733">
        <ele>2150.0</ele>
        <time>2015-08-02T13:15:58Z</time>
      </trkpt>
      <trkpt lat="40.313783" lon="-4.606667">
        <ele>2146.0</ele>
        <time>2015-08-02T13:15:59Z</time>
      </trkpt>
      <trkpt lat="40.313667" lon="-4.606600">
        <ele>2143.0</ele>
        <time>2015-08-02T13:16:00Z</time>
      </trkpt>
      <trkpt lat="40.313550" lon="-4.606550">
        <ele>2140.0</ele>
        <time>2015-08-02T13:16:01Z</time>
      </trkpt>
      <trkpt lat="40.313417" lon="-4.606483">
        <ele>2137.0</ele>
        <time>2015-08-02T13:16:02Z</time>
      </trkpt>
      <trkpt lat="40.313300" lon="-4.606433">
        <ele>2134.0</ele>
        <time>2015-08-02T13:16:03Z</time>
      </trkpt>
      <trkpt lat="40.313183" lon="-4.606367">
        <ele>2132.0</ele>
        <time>2015-08-02T13:16:04Z</time>
      </trkpt>
      <trkpt lat="40.313083" lon="-4.606300">
        <ele>2131.0</ele>
        <time>2015-08-02T13:16:05Z</time>
      </trkpt>
      <trkpt lat="40.312967" lon="-4.606233">
        <ele>2129.0</ele>
        <time>2015-08-02T13:16:06Z</time>
      </trkpt>
      <trkpt lat="40.312867" lon="-4.606167">
        <ele>2126.0</ele>
        <time>2015-08-02T13:16:07Z</time>
      </trkpt>
      <trkpt lat="40.312750" lon="-4.606083">
        <ele>2123.0</ele>
        <time>2015-08-02T13:16:08Z</time>
      </trkpt>
      <trkpt lat="40.312617" lon="-4.606017">
        <ele>2120.0</ele>
        <time>2015-08-02T13:16:09Z</time>
      </trkpt>
      <trkpt lat="40.312500" lon="-4.605950">
        <ele>2118.0</ele>
        <time>2015-08-02T13:16:10Z</time>
      </trkpt>
      <trkpt lat="40.312383" lon="-4.605883">
        <ele>2115.0</ele>
        <time>2015-08-02T13:16:11Z</time>
      </trkpt>
      <trkpt lat="40.312267" lon="-4.605817">
        <ele>2114.0</ele>
        <time>2015-08-02T13:16:12Z</time>
      </trkpt>
      <trkpt lat="40.312167" lon="-4.605733">
        <ele>2113.0</ele>
        <time>2015-08-02T13:16:13Z</time>
      </trkpt>
      <trkpt lat="40.312083" lon="-4.605633">
        <ele>2111.0</ele>
        <time>2015-08-02T13:16:14Z</time>
      </trkpt>
      <trkpt lat="40.311983" lon="-4.605550">
        <ele>2109.0</ele>
        <time>2015-08-02T13:16:15Z</time>
      </trkpt>
      <trkpt lat="40.311867" lon="-4.605467">
        <ele>2106.0</ele>
        <time>2015-08-02T13:16:16Z</time>
      </trkpt>
      <trkpt lat="40.311767" lon="-4.605383">
        <ele>2103.0</ele>
        <time>2015-08-02T13:16:17Z</time>
      </trkpt>
      <trkpt lat="40.311650" lon="-4.605317">
        <ele>2100.0</ele>
        <time>2015-08-02T13:16:18Z</time>
      </trkpt>
      <trkpt lat="40.311533" lon="-4.605250">
        <ele>2098.0</ele>
        <time>2015-08-02T13:16:19Z</time>
      </trkpt>
      <trkpt lat="40.311433" lon="-4.605183">
        <ele>2097.0</ele>
        <time>2015-08-02T13:16:20Z</time>
      </trkpt>
      <trkpt lat="40.311317" lon="-4.605133">
        <ele>2094.0</ele>
        <time>2015-08-02T13:16:21Z</time>
      </trkpt>
      <trkpt lat="40.311200" lon="-4.605083">
        <ele>2091.0</ele>
        <time>2015-08-02T13:16:22Z</time>
      </trkpt>
      <trkpt lat="40.311083" lon="-4.605033">
        <ele>2089.0</ele>
        <time>2015-08-02T13:16:23Z</time>
      </trkpt>
      <trkpt lat="40.310967" lon="-4.604983">
        <ele>2086.0</ele>
        <time>2015-08-02T13:16:24Z</time>
      </trkpt>
      <trkpt lat="40.310850" lon="-4.604917">
        <ele>2084.0</ele>
        <time>2015-08-02T13:16:25Z</time>
      </trkpt>
      <trkpt lat="40.310733" lon="-4.604850">
        <ele>2082.0</ele>
        <time>2015-08-02T13:16:26Z</time>
      </trkpt>
      <trkpt lat="40.310633" lon="-4.604750">
        <ele>2081.0</ele>
        <time>2015-08-02T13:16:27Z</time>
      </trkpt>
      <trkpt lat="40.310550" lon="-4.604667">
        <ele>2081.0</ele>
        <time>2015-08-02T13:16:28Z</time>
      </trkpt>
      <trkpt lat="40.310483" lon="-4.604600">
        <ele>2080.0</ele>
        <time>2015-08-02T13:16:29Z</time>
      </trkpt>
      <trkpt lat="40.310383" lon="-4.604533">
        <ele>2077.0</ele>
        <time>2015-08-02T13:16:30Z</time>
      </trkpt>
      <trkpt lat="40.310283" lon="-4.604483">
        <ele>2075.0</ele>
        <time>2015-08-02T13:16:31Z</time>
      </trkpt>
      <trkpt lat="40.310183" lon="-4.604400">
        <ele>2071.0</ele>
        <time>2015-08-02T13:16:32Z</time>
      </trkpt>
      <trkpt lat="40.310083" lon="-4.604300">
        <ele>2069.0</ele>
        <time>2015-08-02T13:16:33Z</time>
      </trkpt>
      <trkpt lat="40.310000" lon="-4.604200">
        <ele>2067.0</ele>
        <time>2015-08-02T13:16:34Z</time>
      </trkpt>
      <trkpt lat="40.309917" lon="-4.604100">
        <ele>2067.0</ele>
        <time>2015-08-02T13:16:35Z</time>
      </trkpt>
      <trkpt lat="40.309833" lon="-4.604017">
        <ele>2067.0</ele>
        <time>2015-08-02T13:16:36Z</time>
      </trkpt>
      <trkpt lat="40.309750" lon="-4.603933">
        <ele>2066.0</ele>
        <time>2015-08-02T13:16:37Z</time>
      </trkpt>
      <trkpt lat="40.309667" lon="-4.603833">
        <ele>2065.0</ele>
        <time>2015-08-02T13:16:38Z</time>
      </trkpt>
      <trkpt lat="40.309567" lon="-4.603750">
        <ele>2064.0</ele>
        <time>2015-08-02T13:16:39Z</time>
      </trkpt>
      <trkpt lat="40.309467" lon="-4.603650">
        <ele>2062.0</ele>
        <time>2015-08-02T13:16:40Z</time>
      </trkpt>
      <trkpt lat="40.309383" lon="-4.603583">
        <ele>2060.0</ele>
        <time>2015-08-02T13:16:41Z</time>
      </trkpt>
      <trkpt lat="40.309283" lon="-4.603500">
        <ele>2058.0</ele>
        <time>2015-08-02T13:16:42Z</time>
      </trkpt>
      <trkpt lat="40.309183" lon="-4.603417">
        <ele>2057.0</ele>
        <time>2015-08-02T13:16:43Z</time>
      </trkpt>
      <trkpt lat="40.309100" lon="-4.603333">
        <ele>2055.0</ele>
        <time>2015-08-02T13:16:44Z</time>
      </trkpt>
      <trkpt lat="40.309000" lon="-4.603250">
        <ele>2053.0</ele>
        <time>2015-08-02T13:16:45Z</time>
      </trkpt>
      <trkpt lat="40.308900" lon="-4.603183">
        <ele>2051.0</ele>
        <time>2015-08-02T13:16:46Z</time>
      </trkpt>
      <trkpt lat="40.308817" lon="-4.603100">
        <ele>2049.0</ele>
        <time>2015-08-02T13:16:47Z</time>
      </trkpt>
      <trkpt lat="40.308717" lon="-4.603000">
        <ele>2048.0</ele>
        <time>2015-08-02T13:16:48Z</time>
      </trkpt>
      <trkpt lat="40.308617" lon="-4.602900">
        <ele>2046.0</ele>
        <time>2015-08-02T13:16:49Z</time>
      </trkpt>
      <trkpt lat="40.308533" lon="-4.602783">
        <ele>2045.0</ele>
        <time>2015-08-02T13:16:50Z</time>
      </trkpt>
      <trkpt lat="40.308433" lon="-4.602683">
        <ele>2044.0</ele>
        <time>2015-08-02T13:16:51Z</time>
      </trkpt>
      <trkpt lat="40.308350" lon="-4.602567">
        <ele>2043.0</ele>
        <time>2015-08-02T13:16:52Z</time>
      </trkpt>
      <trkpt lat="40.308250" lon="-4.602467">
        <ele>2042.0</ele>
        <time>2015-08-02T13:16:53Z</time>
      </trkpt>
      <trkpt lat="40.308167" lon="-4.602367">
        <ele>2042.0</ele>
        <time>2015-08-02T13:16:54Z</time>
      </trkpt>
      <trkpt lat="40.308083" lon="-4.602250">
        <ele>2041.0</ele>
        <time>2015-08-02T13:16:55Z</time>
      </trkpt>
      <trkpt lat="40.307983" lon="-4.602150">
        <ele>2040.0</ele>
        <time>2015-08-02T13:16:56Z</time>
      </trkpt>
      <trkpt lat="40.307900" lon="-4.602050">
        <ele>2039.0</ele>
        <time>2015-08-02T13:16:57Z</time>
      </trkpt>
      <trkpt lat="40.307800" lon="-4.601950">
        <ele>2038.0</ele>
        <time>2015-08-02T13:16:58Z</time>
      </trkpt>
      <trkpt lat="40.307700" lon="-4.601867">
        <ele>2037.0</ele>
        <time>2015-08-02T13:16:59Z</time>
      </trkpt>
      <trkpt lat="40.307600" lon="-4.601783">
        <ele>2037.0</ele>
        <time>2015-08-02T13:17:00Z</time>
      </trkpt>
      <trkpt lat="40.307517" lon="-4.601700">
        <ele>2037.0</ele>
        <time>2015-08-02T13:17:01Z</time>
      </trkpt>
      <trkpt lat="40.307417" lon="-4.601617">
        <ele>2036.0</ele>
        <time>2015-08-02T13:17:02Z</time>
      </trkpt>
      <trkpt lat="40.307333" lon="-4.601550">
        <ele>2035.0</ele>
        <time>2015-08-02T13:17:03Z</time>
      </trkpt>
      <trkpt lat="40.307217" lon="-4.601483">
        <ele>2034.0</ele>
        <time>2015-08-02T13:17:04Z</time>
      </trkpt>
      <trkpt lat="40.307117" lon="-4.601417">
        <ele>2033.0</ele>
        <time>2015-08-02T13:17:05Z</time>
      </trkpt>
      <trkpt lat="40.307017" lon="-4.601350">
        <ele>2033.0</ele>
        <time>2015-08-02T13:17:06Z</time>
      </trkpt>
      <trkpt lat="40.306917" lon="-4.601300">
        <ele>2034.0</ele>
        <time>2015-08-02T13:17:07Z</time>
      </trkpt>
      <trkpt lat="40.306833" lon="-4.601267">
        <ele>2034.0</ele>
        <time>2015-08-02T13:17:08Z</time>
      </trkpt>
      <trkpt lat="40.306733" lon="-4.601217">
        <ele>2034.0</ele>
        <time>2015-08-02T13:17:09Z</time>
      </trkpt>
      <trkpt lat="40.306633" lon="-4.601183">
        <ele>2032.0</ele>
        <time>2015-08-02T13:17:10Z</time>
      </trkpt>
      <trkpt lat="40.306517" lon="-4.601133">
        <ele>2031.0</ele>
        <time>2015-08-02T13:17:11Z</time>
      </trkpt>
      <trkpt lat="40.306417" lon="-4.601083">
        <ele>2030.0</ele>
        <time>2015-08-02T13:17:12Z</time>
      </trkpt>
      <trkpt lat="40.306300" lon="-4.601050">
        <ele>2030.0</ele>
        <time>2015-08-02T13:17:13Z</time>
      </trkpt>
      <trkpt lat="40.306200" lon="-4.601000">
        <ele>2029.0</ele>
        <time>2015-08-02T13:17:14Z</time>
      </trkpt>
      <trkpt lat="40.306100" lon="-4.600950">
        <ele>2029.0</ele>
        <time>2015-08-02T13:17:15Z</time>
      </trkpt>
      <trkpt lat="40.305983" lon="-4.600900">
        <ele>2027.0</ele>
        <time>2015-08-02T13:17:16Z</time>
      </trkpt>
      <trkpt lat="40.305867" lon="-4.600833">
        <ele>2026.0</ele>
        <time>2015-08-02T13:17:17Z</time>
      </trkpt>
      <trkpt lat="40.305750" lon="-4.600767">
        <ele>2024.0</ele>
        <time>2015-08-02T13:17:18Z</time>
      </trkpt>
      <trkpt lat="40.305633" lon="-4.600700">
        <ele>2025.0</ele>
        <time>2015-08-02T13:17:19Z</time>
      </trkpt>
      <trkpt lat="40.305550" lon="-4.600617">
        <ele>2026.0</ele>
        <time>2015-08-02T13:17:20Z</time>
      </trkpt>
      <trkpt lat="40.305467" lon="-4.600550">
        <ele>2027.0</ele>
        <time>2015-08-02T13:17:21Z</time>
      </trkpt>
      <trkpt lat="40.305383" lon="-4.600467">
        <ele>2026.0</ele>
        <time>2015-08-02T13:17:22Z</time>
      </trkpt>
      <trkpt lat="40.305283" lon="-4.600383">
        <ele>2025.0</ele>
        <time>2015-08-02T13:17:23Z</time>
      </trkpt>
      <trkpt lat="40.305183" lon="-4.600317">
        <ele>2023.0</ele>
        <time>2015-08-02T13:17:24Z</time>
      </trkpt>
      <trkpt lat="40.305083" lon="-4.600250">
        <ele>2021.0</ele>
        <time>2015-08-02T13:17:25Z</time>
      </trkpt>
      <trkpt lat="40.304983" lon="-4.600167">
        <ele>2019.0</ele>
        <time>2015-08-02T13:17:26Z</time>
      </trkpt>
      <trkpt lat="40.304883" lon="-4.600100">
        <ele>2018.0</ele>
        <time>2015-08-02T13:17:27Z</time>
      </trkpt>
      <trkpt lat="40.304783" lon="-4.600017">
        <ele>2016.0</ele>
        <time>2015-08-02T13:17:28Z</time>
      </trkpt>
      <trkpt lat="40.304667" lon="-4.599933">
        <ele>2014.0</ele>
        <time>2015-08-02T13:17:29Z</time>
      </trkpt>
      <trkpt lat="40.304567" lon="-4.599850">
        <ele>2012.0</ele>
        <time>2015-08-02T13:17:30Z</time>
      </trkpt>
      <trkpt lat="40.304450" lon="-4.599783">
        <ele>2010.0</ele>
        <time>2015-08-02T13:17:31Z</time>
      </trkpt>
      <trkpt lat="40.304350" lon="-4.599700">
        <ele>2008.0</ele>
        <time>2015-08-02T13:17:32Z</time>
      </trkpt>
      <trkpt lat="40.304233" lon="-4.599600">
        <ele>2006.0</ele>
        <time>2015-08-02T13:17:33Z</time>
      </trkpt>
      <trkpt lat="40.304133" lon="-4.599533">
        <ele>2004.0</ele>
        <time>2015-08-02T13:17:34Z</time>
      </trkpt>
      <trkpt lat="40.304033" lon="-4.599450">
        <ele>2002.0</ele>
        <time>2015-08-02T13:17:35Z</time>
      </trkpt>
      <trkpt lat="40.303917" lon="-4.599367">
        <ele>2001.0</ele>
        <time>2015-08-02T13:17:36Z</time>
      </trkpt>
      <trkpt lat="40.303817" lon="-4.599300">
        <ele>1999.0</ele>
        <time>2015-08-02T13:17:37Z</time>
      </trkpt>
      <trkpt lat="40.303700" lon="-4.599217">
        <ele>1997.0</ele>
        <time>2015-08-02T13:17:38Z</time>
      </trkpt>
      <trkpt lat="40.303600" lon="-4.599133">
        <ele>1994.0</ele>
        <time>2015-08-02T13:17:39Z</time>
      </trkpt>
      <trkpt lat="40.303483" lon="-4.599067">
        <ele>1991.0</ele>
        <time>2015-08-02T13:17:40Z</time>
      </trkpt>
      <trkpt lat="40.303367" lon="-4.598983">
        <ele>1989.0</ele>
        <time>2015-08-02T13:17:41Z</time>
      </trkpt>
      <trkpt lat="40.303250" lon="-4.598900">
        <ele>1986.0</ele>
        <time>2015-08-02T13:17:42Z</time>
      </trkpt>
      <trkpt lat="40.303133" lon="-4.598833">
        <ele>1984.0</ele>
        <time>2015-08-02T13:17:43Z</time>
      </trkpt>
      <trkpt lat="40.303033" lon="-4.598767">
        <ele>1982.0</ele>
        <time>2015-08-02T13:17:44Z</time>
      </trkpt>
      <trkpt lat="40.302933" lon="-4.598700">
        <ele>1981.0</ele>
        <time>2015-08-02T13:17:45Z</time>
      </trkpt>
      <trkpt lat="40.302833" lon="-4.598633">
        <ele>1978.0</ele>
        <time>2015-08-02T13:17:46Z</time>
      </trkpt>
      <trkpt lat="40.302717" lon="-4.598567">
        <ele>1974.0</ele>
        <time>2015-08-02T13:17:47Z</time>
      </trkpt>
      <trkpt lat="40.302600" lon="-4.598500">
        <ele>1970.0</ele>
        <time>2015-08-02T13:17:48Z</time>
      </trkpt>
      <trkpt lat="40.302483" lon="-4.598433">
        <ele>1967.0</ele>
        <time>2015-08-02T13:17:49Z</time>
      </trkpt>
      <trkpt lat="40.302367" lon="-4.598383">
        <ele>1964.0</ele>
        <time>2015-08-02T13:17:50Z</time>
      </trkpt>
      <trkpt lat="40.302267" lon="-4.598317">
        <ele>1962.0</ele>
        <time>2015-08-02T13:17:51Z</time>
      </trkpt>
      <trkpt lat="40.302150" lon="-4.598250">
        <ele>1960.0</ele>
        <time>2015-08-02T13:17:52Z</time>
      </trkpt>
      <trkpt lat="40.302050" lon="-4.598183">
        <ele>1956.0</ele>
        <time>2015-08-02T13:17:53Z</time>
      </trkpt>
      <trkpt lat="40.301950" lon="-4.598117">
        <ele>1952.0</ele>
        <time>2015-08-02T13:17:54Z</time>
      </trkpt>
      <trkpt lat="40.301833" lon="-4.598050">
        <ele>1948.0</ele>
        <time>2015-08-02T13:17:55Z</time>
      </trkpt>
      <trkpt lat="40.301717" lon="-4.597983">
        <ele>1944.0</ele>
        <time>2015-08-02T13:17:56Z</time>
      </trkpt>
      <trkpt lat="40.301600" lon="-4.597933">
        <ele>1940.0</ele>
        <time>2015-08-02T13:17:57Z</time>
      </trkpt>
      <trkpt lat="40.301483" lon="-4.597867">
        <ele>1937.0</ele>
        <time>2015-08-02T13:17:58Z</time>
      </trkpt>
      <trkpt lat="40.301383" lon="-4.597800">
        <ele>1935.0</ele>
        <time>2015-08-02T13:17:59Z</time>
      </trkpt>
      <trkpt lat="40.301267" lon="-4.597733">
        <ele>1932.0</ele>
        <time>2015-08-02T13:18:00Z</time>
      </trkpt>
      <trkpt lat="40.301167" lon="-4.597683">
        <ele>1928.0</ele>
        <time>2015-08-02T13:18:01Z</time>
      </trkpt>
      <trkpt lat="40.301050" lon="-4.597617">
        <ele>1925.0</ele>
        <time>2015-08-02T13:18:02Z</time>
      </trkpt>
      <trkpt lat="40.300950" lon="-4.597583">
        <ele>1921.0</ele>
        <time>2015-08-02T13:18:03Z</time>
      </trkpt>
      <trkpt lat="40.300833" lon="-4.597533">
        <ele>1918.0</ele>
        <time>2015-08-02T13:18:04Z</time>
      </trkpt>
      <trkpt lat="40.300750" lon="-4.597500">
        <ele>1916.0</ele>
        <time>2015-08-02T13:18:05Z</time>
      </trkpt>
      <trkpt lat="40.300650" lon="-4.597450">
        <ele>1913.0</ele>
        <time>2015-08-02T13:18:06Z</time>
      </trkpt>
      <trkpt lat="40.300550" lon="-4.597417">
        <ele>1910.0</ele>
        <time>2015-08-02T13:18:07Z</time>
      </trkpt>
      <trkpt lat="40.300433" lon="-4.597350">
        <ele>1906.0</ele>
        <time>2015-08-02T13:18:08Z</time>
      </trkpt>
      <trkpt lat="40.300317" lon="-4.597283">
        <ele>1902.0</ele>
        <time>2015-08-02T13:18:09Z</time>
      </trkpt>
      <trkpt lat="40.300217" lon="-4.597217">
        <ele>1898.0</ele>
        <time>2015-08-02T13:18:10Z</time>
      </trkpt>
      <trkpt lat="40.300117" lon="-4.597150">
        <ele>1895.0</ele>
        <time>2015-08-02T13:18:11Z</time>
      </trkpt>
      <trkpt lat="40.300017" lon="-4.597067">
        <ele>1891.0</ele>
        <time>2015-08-02T13:18:12Z</time>
      </trkpt>
      <trkpt lat="40.299900" lon="-4.597000">
        <ele>1887.0</ele>
        <time>2015-08-02T13:18:13Z</time>
      </trkpt>
      <trkpt lat="40.299800" lon="-4.596933">
        <ele>1883.0</ele>
        <time>2015-08-02T13:18:14Z</time>
      </trkpt>
      <trkpt lat="40.299683" lon="-4.596867">
        <ele>1879.0</ele>
        <time>2015-08-02T13:18:15Z</time>
      </trkpt>
      <trkpt lat="40.299567" lon="-4.596800">
        <ele>1875.0</ele>
        <time>2015-08-02T13:18:16Z</time>
      </trkpt>
      <trkpt lat="40.299467" lon="-4.596717">
        <ele>1871.0</ele>
        <time>2015-08-02T13:18:17Z</time>
      </trkpt>
      <trkpt lat="40.299350" lon="-4.596633">
        <ele>1868.0</ele>
        <time>2015-08-02T13:18:18Z</time>
      </trkpt>
      <trkpt lat="40.299233" lon="-4.596567">
        <ele>1864.0</ele>
        <time>2015-08-02T13:18:19Z</time>
      </trkpt>
      <trkpt lat="40.299133" lon="-4.596483">
        <ele>1861.0</ele>
        <time>2015-08-02T13:18:20Z</time>
      </trkpt>
      <trkpt lat="40.299033" lon="-4.596417">
        <ele>1858.0</ele>
        <time>2015-08-02T13:18:21Z</time>
      </trkpt>
      <trkpt lat="40.298933" lon="-4.596350">
        <ele>1854.0</ele>
        <time>2015-08-02T13:18:22Z</time>
      </trkpt>
      <trkpt lat="40.298817" lon="-4.596267">
        <ele>1851.0</ele>
        <time>2015-08-02T13:18:23Z</time>
      </trkpt>
      <trkpt lat="40.298717" lon="-4.596183">
        <ele>1846.0</ele>
        <time>2015-08-02T13:18:24Z</time>
      </trkpt>
      <trkpt lat="40.298600" lon="-4.596100">
        <ele>1842.0</ele>
        <time>2015-08-02T13:18:25Z</time>
      </trkpt>
      <trkpt lat="40.298500" lon="-4.596017">
        <ele>1838.0</ele>
        <time>2015-08-02T13:18:26Z</time>
      </trkpt>
      <trkpt lat="40.298383" lon="-4.595950">
        <ele>1835.0</ele>
        <time>2015-08-02T13:18:27Z</time>
      </trkpt>
      <trkpt lat="40.298283" lon="-4.595883">
        <ele>1832.0</ele>
        <time>2015-08-02T13:18:28Z</time>
      </trkpt>
      <trkpt lat="40.298183" lon="-4.595800">
        <ele>1829.0</ele>
        <time>2015-08-02T13:18:29Z</time>
      </trkpt>
      <trkpt lat="40.298083" lon="-4.595733">
        <ele>1826.0</ele>
        <time>2015-08-02T13:18:30Z</time>
      </trkpt>
      <trkpt lat="40.297983" lon="-4.595650">
        <ele>1823.0</ele>
        <time>2015-08-02T13:18:31Z</time>
      </trkpt>
      <trkpt lat="40.297900" lon="-4.595567">
        <ele>1820.0</ele>
        <time>2015-08-02T13:18:32Z</time>
      </trkpt>
      <trkpt lat="40.297800" lon="-4.595483">
        <ele>1817.0</ele>
        <time>2015-08-02T13:18:33Z</time>
      </trkpt>
      <trkpt lat="40.297717" lon="-4.595383">
        <ele>1813.0</ele>
        <time>2015-08-02T13:18:34Z</time>
      </trkpt>
      <trkpt lat="40.297633" lon="-4.595267">
        <ele>1810.0</ele>
        <time>2015-08-02T13:18:35Z</time>
      </trkpt>
      <trkpt lat="40.297567" lon="-4.595167">
        <ele>1806.0</ele>
        <time>2015-08-02T13:18:36Z</time>
      </trkpt>
      <trkpt lat="40.297483" lon="-4.595067">
        <ele>1803.0</ele>
        <time>2015-08-02T13:18:37Z</time>
      </trkpt>
      <trkpt lat="40.297400" lon="-4.594983">
        <ele>1799.0</ele>
        <time>2015-08-02T13:18:38Z</time>
      </trkpt>
      <trkpt lat="40.297300" lon="-4.594883">
        <ele>1796.0</ele>
        <time>2015-08-02T13:18:39Z</time>
      </trkpt>
      <trkpt lat="40.297217" lon="-4.594800">
        <ele>1792.0</ele>
        <time>2015-08-02T13:18:40Z</time>
      </trkpt>
      <trkpt lat="40.297117" lon="-4.594717">
        <ele>1788.0</ele>
        <time>2015-08-02T13:18:41Z</time>
      </trkpt>
      <trkpt lat="40.297033" lon="-4.594617">
        <ele>1784.0</ele>
        <time>2015-08-02T13:18:42Z</time>
      </trkpt>
      <trkpt lat="40.296933" lon="-4.594533">
        <ele>1780.0</ele>
        <time>2015-08-02T13:18:43Z</time>
      </trkpt>
      <trkpt lat="40.296850" lon="-4.594433">
        <ele>1776.0</ele>
        <time>2015-08-02T13:18:44Z</time>
      </trkpt>
      <trkpt lat="40.296767" lon="-4.594350">
        <ele>1772.0</ele>
        <time>2015-08-02T13:18:45Z</time>
      </trkpt>
      <trkpt lat="40.296683" lon="-4.594250">
        <ele>1767.0</ele>
        <time>2015-08-02T13:18:46Z</time>
      </trkpt>
      <trkpt lat="40.296583" lon="-4.594167">
        <ele>1762.0</ele>
        <time>2015-08-02T13:18:47Z</time>
      </trkpt>
      <trkpt lat="40.296500" lon="-4.594067">
        <ele>1756.0</ele>
        <time>2015-08-02T13:18:48Z</time>
      </trkpt>
      <trkpt lat="40.296383" lon="-4.593983">
        <ele>1752.0</ele>
        <time>2015-08-02T13:18:49Z</time>
      </trkpt>
      <trkpt lat="40.296283" lon="-4.593900">
        <ele>1748.0</ele>
        <time>2015-08-02T13:18:50Z</time>
      </trkpt>
      <trkpt lat="40.296200" lon="-4.593800">
        <ele>1745.0</ele>
        <time>2015-08-02T13:18:51Z</time>
      </trkpt>
      <trkpt lat="40.296100" lon="-4.593717">
        <ele>1743.0</ele>
        <time>2015-08-02T13:18:52Z</time>
      </trkpt>
      <trkpt lat="40.296017" lon="-4.593650">
        <ele>1741.0</ele>
        <time>2015-08-02T13:18:53Z</time>
      </trkpt>
      <trkpt lat="40.295917" lon="-4.593567">
        <ele>1738.0</ele>
        <time>2015-08-02T13:18:54Z</time>
      </trkpt>
      <trkpt lat="40.295817" lon="-4.593483">
        <ele>1735.0</ele>
        <time>2015-08-02T13:18:55Z</time>
      </trkpt>
      <trkpt lat="40.295717" lon="-4.593400">
        <ele>1731.0</ele>
        <time>2015-08-02T13:18:56Z</time>
      </trkpt>
      <trkpt lat="40.295600" lon="-4.593317">
        <ele>1728.0</ele>
        <time>2015-08-02T13:18:57Z</time>
      </trkpt>
      <trkpt lat="40.295500" lon="-4.593233">
        <ele>1725.0</ele>
        <time>2015-08-02T13:18:58Z</time>
      </trkpt>
      <trkpt lat="40.295400" lon="-4.593150">
        <ele>1724.0</ele>
        <time>2015-08-02T13:18:59Z</time>
      </trkpt>
      <trkpt lat="40.295317" lon="-4.593050">
        <ele>1723.0</ele>
        <time>2015-08-02T13:19:00Z</time>
      </trkpt>
      <trkpt lat="40.295233" lon="-4.592983">
        <ele>1721.0</ele>
        <time>2015-08-02T13:19:01Z</time>
      </trkpt>
      <trkpt lat="40.295133" lon="-4.592917">
        <ele>1719.0</ele>
        <time>2015-08-02T13:19:02Z</time>
      </trkpt>
      <trkpt lat="40.295033" lon="-4.592850">
        <ele>1716.0</ele>
        <time>2015-08-02T13:19:03Z</time>
      </trkpt>
      <trkpt lat="40.294933" lon="-4.592767">
        <ele>1714.0</ele>
        <time>2015-08-02T13:19:04Z</time>
      </trkpt>
      <trkpt lat="40.294833" lon="-4.592683">
        <ele>1711.0</ele>
        <time>2015-08-02T13:19:05Z</time>
      </trkpt>
      <trkpt lat="40.294733" lon="-4.592600">
        <ele>1710.0</ele>
        <time>2015-08-02T13:19:06Z</time>
      </trkpt>
      <trkpt lat="40.294633" lon="-4.592517">
        <ele>1708.0</ele>
        <time>2015-08-02T13:19:07Z</time>
      </trkpt>
      <trkpt lat="40.294533" lon="-4.592450">
        <ele>1707.0</ele>
        <time>2015-08-02T13:19:08Z</time>
      </trkpt>
      <trkpt lat="40.294433" lon="-4.592367">
        <ele>1706.0</ele>
        <time>2015-08-02T13:19:09Z</time>
      </trkpt>
      <trkpt lat="40.294333" lon="-4.592283">
        <ele>1704.0</ele>
        <time>2015-08-02T13:19:10Z</time>
      </trkpt>
      <trkpt lat="40.294233" lon="-4.592200">
        <ele>1703.0</ele>
        <time>2015-08-02T13:19:11Z</time>
      </trkpt>
      <trkpt lat="40.294133" lon="-4.592133">
        <ele>1702.0</ele>
        <time>2015-08-02T13:19:12Z</time>
      </trkpt>
      <trkpt lat="40.294017" lon="-4.592083">
        <ele>1701.0</ele>
        <time>2015-08-02T13:19:13Z</time>
      </trkpt>
      <trkpt lat="40.293917" lon="-4.592017">
        <ele>1699.0</ele>
        <time>2015-08-02T13:19:14Z</time>
      </trkpt>
      <trkpt lat="40.293817" lon="-4.591967">
        <ele>1697.0</ele>
        <time>2015-08-02T13:19:15Z</time>
      </trkpt>
      <trkpt lat="40.293717" lon="-4.591900">
        <ele>1695.0</ele>
        <time>2015-08-02T13:19:16Z</time>
      </trkpt>
      <trkpt lat="40.293600" lon="-4.591850">
        <ele>1693.0</ele>
        <time>2015-08-02T13:19:17Z</time>
      </trkpt>
      <trkpt lat="40.293500" lon="-4.591800">
        <ele>1691.0</ele>
        <time>2015-08-02T13:19:18Z</time>
      </trkpt>
      <trkpt lat="40.293417" lon="-4.591767">
        <ele>1690.0</ele>
        <time>2015-08-02T13:19:19Z</time>
      </trkpt>
      <trkpt lat="40.293317" lon="-4.591750">
        <ele>1688.0</ele>
        <time>2015-08-02T13:19:20Z</time>
      </trkpt>
      <trkpt lat="40.293233" lon="-4.591717">
        <ele>1686.0</ele>
        <time>2015-08-02T13:19:21Z</time>
      </trkpt>
      <trkpt lat="40.293133" lon="-4.591650">
        <ele>1683.0</ele>
        <time>2015-08-02T13:19:22Z</time>
      </trkpt>
      <trkpt lat="40.293050" lon="-4.591600">
        <ele>1681.0</ele>
        <time>2015-08-02T13:19:23Z</time>
      </trkpt>
      <trkpt lat="40.292950" lon="-4.591533">
        <ele>1677.0</ele>
        <time>2015-08-02T13:19:24Z</time>
      </trkpt>
      <trkpt lat="40.292850" lon="-4.591467">
        <ele>1673.0</ele>
        <time>2015-08-02T13:19:25Z</time>
      </trkpt>
      <trkpt lat="40.292733" lon="-4.591400">
        <ele>1669.0</ele>
        <time>2015-08-02T13:19:26Z</time>
      </trkpt>
      <trkpt lat="40.292650" lon="-4.591317">
        <ele>1668.0</ele>
        <time>2015-08-02T13:19:27Z</time>
      </trkpt>
      <trkpt lat="40.292567" lon="-4.591233">
        <ele>1667.0</ele>
        <time>2015-08-02T13:19:28Z</time>
      </trkpt>
      <trkpt lat="40.292483" lon="-4.591150">
        <ele>1666.0</ele>
        <time>2015-08-02T13:19:29Z</time>
      </trkpt>
      <trkpt lat="40.292400" lon="-4.591083">
        <ele>1664.0</ele>
        <time>2015-08-02T13:19:30Z</time>
      </trkpt>
      <trkpt lat="40.292317" lon="-4.591017">
        <ele>1660.0</ele>
        <time>2015-08-02T13:19:31Z</time>
      </trkpt>
      <trkpt lat="40.292217" lon="-4.590950">
        <ele>1657.0</ele>
        <time>2015-08-02T13:19:32Z</time>
      </trkpt>
      <trkpt lat="40.292117" lon="-4.590867">
        <ele>1653.0</ele>
        <time>2015-08-02T13:19:33Z</time>
      </trkpt>
      <trkpt lat="40.292017" lon="-4.590800">
        <ele>1650.0</ele>
        <time>2015-08-02T13:19:34Z</time>
      </trkpt>
      <trkpt lat="40.291933" lon="-4.590717">
        <ele>1647.0</ele>
        <time>2015-08-02T13:19:35Z</time>
      </trkpt>
      <trkpt lat="40.291850" lon="-4.590650">
        <ele>1644.0</ele>
        <time>2015-08-02T13:19:36Z</time>
      </trkpt>
      <trkpt lat="40.291750" lon="-4.590567">
        <ele>1640.0</ele>
        <time>2015-08-02T13:19:37Z</time>
      </trkpt>
      <trkpt lat="40.291650" lon="-4.590483">
        <ele>1636.0</ele>
        <time>2015-08-02T13:19:38Z</time>
      </trkpt>
      <trkpt lat="40.291550" lon="-4.590433">
        <ele>1632.0</ele>
        <time>2015-08-02T13:19:39Z</time>
      </trkpt>
      <trkpt lat="40.291450" lon="-4.590367">
        <ele>1629.0</ele>
        <time>2015-08-02T13:19:40Z</time>
      </trkpt>
      <trkpt lat="40.291350" lon="-4.590317">
        <ele>1626.0</ele>
        <time>2015-08-02T13:19:41Z</time>
      </trkpt>
      <trkpt lat="40.291233" lon="-4.590250">
        <ele>1624.0</ele>
        <time>2015-08-02T13:19:42Z</time>
      </trkpt>
      <trkpt lat="40.291133" lon="-4.590200">
        <ele>1621.0</ele>
        <time>2015-08-02T13:19:43Z</time>
      </trkpt>
      <trkpt lat="40.291033" lon="-4.590150">
        <ele>1619.0</ele>
        <time>2015-08-02T13:19:44Z</time>
      </trkpt>
      <trkpt lat="40.290933" lon="-4.590100">
        <ele>1616.0</ele>
        <time>2015-08-02T13:19:45Z</time>
      </trkpt>
      <trkpt lat="40.290833" lon="-4.590033">
        <ele>1615.0</ele>
        <time>2015-08-02T13:19:46Z</time>
      </trkpt>
      <trkpt lat="40.290750" lon="-4.589983">
        <ele>1613.0</ele>
        <time>2015-08-02T13:19:47Z</time>
      </trkpt>
      <trkpt lat="40.290650" lon="-4.589917">
        <ele>1612.0</ele>
        <time>2015-08-02T13:19:48Z</time>
      </trkpt>
      <trkpt lat="40.290567" lon="-4.589850">
        <ele>1610.0</ele>
        <time>2015-08-02T13:19:49Z</time>
      </trkpt>
      <trkpt lat="40.290483" lon="-4.589783">
        <ele>1608.0</ele>
        <time>2015-08-02T13:19:50Z</time>
      </trkpt>
      <trkpt lat="40.290400" lon="-4.589717">
        <ele>1605.0</ele>
        <time>2015-08-02T13:19:51Z</time>
      </trkpt>
      <trkpt lat="40.290317" lon="-4.589667">
        <ele>1603.0</ele>
        <time>2015-08-02T13:19:52Z</time>
      </trkpt>
      <trkpt lat="40.290217" lon="-4.589617">
        <ele>1600.0</ele>
        <time>2015-08-02T13:19:53Z</time>
      </trkpt>
      <trkpt lat="40.290117" lon="-4.589567">
        <ele>1597.0</ele>
        <time>2015-08-02T13:19:54Z</time>
      </trkpt>
      <trkpt lat="40.290017" lon="-4.589517">
        <ele>1594.0</ele>
        <time>2015-08-02T13:19:55Z</time>
      </trkpt>
      <trkpt lat="40.289900" lon="-4.589500">
        <ele>1591.0</ele>
        <time>2015-08-02T13:19:56Z</time>
      </trkpt>
      <trkpt lat="40.289783" lon="-4.589483">
        <ele>1589.0</ele>
        <time>2015-08-02T13:19:57Z</time>
      </trkpt>
      <trkpt lat="40.289700" lon="-4.589467">
        <ele>1588.0</ele>
        <time>2015-08-02T13:19:58Z</time>
      </trkpt>
      <trkpt lat="40.289600" lon="-4.589433">
        <ele>1588.0</ele>
        <time>2015-08-02T13:19:59Z</time>
      </trkpt>
      <trkpt lat="40.289517" lon="-4.589400">
        <ele>1588.0</ele>
        <time>2015-08-02T13:20:00Z</time>
      </trkpt>
      <trkpt lat="40.289433" lon="-4.589383">
        <ele>1586.0</ele>
        <time>2015-08-02T13:20:01Z</time>
      </trkpt>
      <trkpt lat="40.289333" lon="-4.589333">
        <ele>1582.0</ele>
        <time>2015-08-02T13:20:02Z</time>
      </trkpt>
      <trkpt lat="40.289200" lon="-4.589267">
        <ele>1580.0</ele>
        <time>2015-08-02T13:20:03Z</time>
      </trkpt>
      <trkpt lat="40.289083" lon="-4.589200">
        <ele>1578.0</ele>
        <time>2015-08-02T13:20:04Z</time>
      </trkpt>
      <trkpt lat="40.288983" lon="-4.589117">
        <ele>1580.0</ele>
        <time>2015-08-02T13:20:05Z</time>
      </trkpt>
      <trkpt lat="40.288917" lon="-4.589050">
        <ele>1585.0</ele>
        <time>2015-08-02T13:20:06Z</time>
      </trkpt>
      <trkpt lat="40.288850" lon="-4.588983">
        <ele>1589.0</ele>
        <time>2015-08-02T13:20:07Z</time>
      </trkpt>
      <trkpt lat="40.288783" lon="-4.588917">
        <ele>1591.0</ele>
        <time>2015-08-02T13:20:08Z</time>
      </trkpt>
      <trkpt lat="40.288700" lon="-4.588867">
        <ele>1591.0</ele>
        <time>2015-08-02T13:20:09Z</time>
      </trkpt>
      <trkpt lat="40.288600" lon="-4.588817">
        <ele>1589.0</ele>
        <time>2015-08-02T13:20:10Z</time>
      </trkpt>
      <trkpt lat="40.288517" lon="-4.588817">
        <ele>1588.0</ele>
        <time>2015-08-02T13:20:11Z</time>
      </trkpt>
      <trkpt lat="40.288433" lon="-4.588817">
        <ele>1587.0</ele>
        <time>2015-08-02T13:20:12Z</time>
      </trkpt>
      <trkpt lat="40.288367" lon="-4.588833">
        <ele>1587.0</ele>
        <time>2015-08-02T13:20:13Z</time>
      </trkpt>
      <trkpt lat="40.288317" lon="-4.588833">
        <ele>1588.0</ele>
        <time>2015-08-02T13:20:14Z</time>
      </trkpt>
      <trkpt lat="40.288250" lon="-4.588817">
        <ele>1589.0</ele>
        <time>2015-08-02T13:20:15Z</time>
      </trkpt>
      <trkpt lat="40.288200" lon="-4.588800">
        <ele>1589.0</ele>
        <time>2015-08-02T13:20:16Z</time>
      </trkpt>
      <trkpt lat="40.288150" lon="-4.588817">
        <ele>1590.0</ele>
        <time>2015-08-02T13:20:17Z</time>
      </trkpt>
      <trkpt lat="40.288100" lon="-4.588867">
        <ele>1590.0</ele>
        <time>2015-08-02T13:20:18Z</time>
      </trkpt>
      <trkpt lat="40.288100" lon="-4.588950">
        <ele>1588.0</ele>
        <time>2015-08-02T13:20:19Z</time>
      </trkpt>
      <trkpt lat="40.288117" lon="-4.589067">
        <ele>1586.0</ele>
        <time>2015-08-02T13:20:20Z</time>
      </trkpt>
      <trkpt lat="40.288150" lon="-4.589150">
        <ele>1586.0</ele>
        <time>2015-08-02T13:20:21Z</time>
      </trkpt>
      <trkpt lat="40.288217" lon="-4.589217">
        <ele>1587.0</ele>
        <time>2015-08-02T13:20:22Z</time>
      </trkpt>
      <trkpt lat="40.288317" lon="-4.589250">
        <ele>1587.0</ele>
        <time>2015-08-02T13:20:23Z</time>
      </trkpt>
      <trkpt lat="40.288433" lon="-4.589233">
        <ele>1587.0</ele>
        <time>2015-08-02T13:20:24Z</time>
      </trkpt>
      <trkpt lat="40.288533" lon="-4.589183">
        <ele>1586.0</ele>
        <time>2015-08-02T13:20:25Z</time>
      </trkpt>
      <trkpt lat="40.288617" lon="-4.589083">
        <ele>1587.0</ele>
        <time>2015-08-02T13:20:26Z</time>
      </trkpt>
      <trkpt lat="40.288683" lon="-4.588967">
        <ele>1588.0</ele>
        <time>2015-08-02T13:20:27Z</time>
      </trkpt>
      <trkpt lat="40.288717" lon="-4.588833">
        <ele>1589.0</ele>
        <time>2015-08-02T13:20:28Z</time>
      </trkpt>
      <trkpt lat="40.288750" lon="-4.588667">
        <ele>1589.0</ele>
        <time>2015-08-02T13:20:29Z</time>
      </trkpt>
      <trkpt lat="40.288750" lon="-4.588583">
        <ele>1589.0</ele>
        <time>2015-08-02T13:20:30Z</time>
      </trkpt>
      <trkpt lat="40.288750" lon="-4.588450">
        <ele>1588.0</ele>
        <time>2015-08-02T13:20:31Z</time>
      </trkpt>
      <trkpt lat="40.288733" lon="-4.588317">
        <ele>1586.0</ele>
        <time>2015-08-02T13:20:32Z</time>
      </trkpt>
      <trkpt lat="40.288683" lon="-4.588183">
        <ele>1585.0</ele>
        <time>2015-08-02T13:20:33Z</time>
      </trkpt>
      <trkpt lat="40.288633" lon="-4.588067">
        <ele>1583.0</ele>
        <time>2015-08-02T13:20:34Z</time>
      </trkpt>
      <trkpt lat="40.288550" lon="-4.587967">
        <ele>1581.0</ele>
        <time>2015-08-02T13:20:35Z</time>
      </trkpt>
      <trkpt lat="40.288467" lon="-4.587883">
        <ele>1581.0</ele>
        <time>2015-08-02T13:20:36Z</time>
      </trkpt>
      <trkpt lat="40.288400" lon="-4.587800">
        <ele>1581.0</ele>
        <time>2015-08-02T13:20:37Z</time>
      </trkpt>
      <trkpt lat="40.288333" lon="-4.587750">
        <ele>1582.0</ele>
        <time>2015-08-02T13:20:38Z</time>
      </trkpt>
      <trkpt lat="40.288250" lon="-4.587683">
        <ele>1583.0</ele>
        <time>2015-08-02T13:20:39Z</time>
      </trkpt>
      <trkpt lat="40.288183" lon="-4.587600">
        <ele>1583.0</ele>
        <time>2015-08-02T13:20:40Z</time>
      </trkpt>
      <trkpt lat="40.288117" lon="-4.587517">
        <ele>1582.0</ele>
        <time>2015-08-02T13:20:41Z</time>
      </trkpt>
      <trkpt lat="40.288033" lon="-4.587417">
        <ele>1582.0</ele>
        <time>2015-08-02T13:20:42Z</time>
      </trkpt>
      <trkpt lat="40.287950" lon="-4.587333">
        <ele>1582.0</ele>
        <time>2015-08-02T13:20:43Z</time>
      </trkpt>
      <trkpt lat="40.287883" lon="-4.587267">
        <ele>1584.0</ele>
        <time>2015-08-02T13:20:44Z</time>
      </trkpt>
      <trkpt lat="40.287800" lon="-4.587217">
        <ele>1585.0</ele>
        <time>2015-08-02T13:20:45Z</time>
      </trkpt>
      <trkpt lat="40.287733" lon="-4.587183">
        <ele>1587.0</ele>
        <time>2015-08-02T13:20:46Z</time>
      </trkpt>
      <trkpt lat="40.287667" lon="-4.587167">
        <ele>1589.0</ele>
        <time>2015-08-02T13:20:47Z</time>
      </trkpt>
      <trkpt lat="40.287600" lon="-4.587133">
        <ele>1589.0</ele>
        <time>2015-08-02T13:20:48Z</time>
      </trkpt>
      <trkpt lat="40.287517" lon="-4.587117">
        <ele>1589.0</ele>
        <time>2015-08-02T13:20:49Z</time>
      </trkpt>
      <trkpt lat="40.287433" lon="-4.587117">
        <ele>1588.0</ele>
        <time>2015-08-02T13:20:50Z</time>
      </trkpt>
      <trkpt lat="40.287350" lon="-4.587117">
        <ele>1587.0</ele>
        <time>2015-08-02T13:20:51Z</time>
      </trkpt>
      <trkpt lat="40.287250" lon="-4.587117">
        <ele>1587.0</ele>
        <time>2015-08-02T13:20:52Z</time>
      </trkpt>
      <trkpt lat="40.287167" lon="-4.587117">
        <ele>1588.0</ele>
        <time>2015-08-02T13:20:53Z</time>
      </trkpt>
      <trkpt lat="40.287083" lon="-4.587117">
        <ele>1588.0</ele>
        <time>2015-08-02T13:20:54Z</time>
      </trkpt>
      <trkpt lat="40.287000" lon="-4.587100">
        <ele>1588.0</ele>
        <time>2015-08-02T13:20:55Z</time>
      </trkpt>
      <trkpt lat="40.286917" lon="-4.587083">
        <ele>1587.0</ele>
        <time>2015-08-02T13:20:56Z</time>
      </trkpt>
      <trkpt lat="40.286833" lon="-4.587033">
        <ele>1586.0</ele>
        <time>2015-08-02T13:20:57Z</time>
      </trkpt>
      <trkpt lat="40.286767" lon="-4.586983">
        <ele>1585.0</ele>
        <time>2015-08-02T13:20:58Z</time>
      </trkpt>
      <trkpt lat="40.286683" lon="-4.586917">
        <ele>1583.0</ele>
        <time>2015-08-02T13:20:59Z</time>
      </trkpt>
      <trkpt lat="40.286617" lon="-4.586850">
        <ele>1581.0</ele>
        <time>2015-08-02T13:21:00Z</time>
      </trkpt>
      <trkpt lat="40.286533" lon="-4.586767">
        <ele>1579.0</ele>
        <time>2015-08-02T13:21:01Z</time>
      </trkpt>
      <trkpt lat="40.286450" lon="-4.586700">
        <ele>1577.0</ele>
        <time>2015-08-02T13:21:02Z</time>
      </trkpt>
      <trkpt lat="40.286367" lon="-4.586617">
        <ele>1576.0</ele>
        <time>2015-08-02T13:21:03Z</time>
      </trkpt>
      <trkpt lat="40.286300" lon="-4.586550">
        <ele>1574.0</ele>
        <time>2015-08-02T13:21:04Z</time>
      </trkpt>
      <trkpt lat="40.286217" lon="-4.586500">
        <ele>1572.0</ele>
        <time>2015-08-02T13:21:05Z</time>
      </trkpt>
      <trkpt lat="40.286150" lon="-4.586433">
        <ele>1571.0</ele>
        <time>2015-08-02T13:21:06Z</time>
      </trkpt>
      <trkpt lat="40.286067" lon="-4.586383">
        <ele>1569.0</ele>
        <time>2015-08-02T13:21:07Z</time>
      </trkpt>
      <trkpt lat="40.285983" lon="-4.586317">
        <ele>1567.0</ele>
        <time>2015-08-02T13:21:08Z</time>
      </trkpt>
      <trkpt lat="40.285883" lon="-4.586267">
        <ele>1564.0</ele>
        <time>2015-08-02T13:21:09Z</time>
      </trkpt>
      <trkpt lat="40.285800" lon="-4.586200">
        <ele>1561.0</ele>
        <time>2015-08-02T13:21:10Z</time>
      </trkpt>
      <trkpt lat="40.285700" lon="-4.586133">
        <ele>1557.0</ele>
        <time>2015-08-02T13:21:11Z</time>
      </trkpt>
      <trkpt lat="40.285600" lon="-4.586067">
        <ele>1553.0</ele>
        <time>2015-08-02T13:21:12Z</time>
      </trkpt>
      <trkpt lat="40.285500" lon="-4.586000">
        <ele>1550.0</ele>
        <time>2015-08-02T13:21:13Z</time>
      </trkpt>
      <trkpt lat="40.285383" lon="-4.585933">
        <ele>1548.0</ele>
        <time>2015-08-02T13:21:14Z</time>
      </trkpt>
      <trkpt lat="40.285283" lon="-4.585883">
        <ele>1547.0</ele>
        <time>2015-08-02T13:21:15Z</time>
      </trkpt>
      <trkpt lat="40.285200" lon="-4.585833">
        <ele>1546.0</ele>
        <time>2015-08-02T13:21:16Z</time>
      </trkpt>
      <trkpt lat="40.285100" lon="-4.585783">
        <ele>1545.0</ele>
        <time>2015-08-02T13:21:17Z</time>
      </trkpt>
      <trkpt lat="40.285017" lon="-4.585733">
        <ele>1543.0</ele>
        <time>2015-08-02T13:21:18Z</time>
      </trkpt>
      <trkpt lat="40.284933" lon="-4.585667">
        <ele>1540.0</ele>
        <time>2015-08-02T13:21:19Z</time>
      </trkpt>
      <trkpt lat="40.284833" lon="-4.585617">
        <ele>1537.0</ele>
        <time>2015-08-02T13:21:20Z</time>
      </trkpt>
      <trkpt lat="40.284750" lon="-4.585567">
        <ele>1534.0</ele>
        <time>2015-08-02T13:21:21Z</time>
      </trkpt>
      <trkpt lat="40.284650" lon="-4.585533">
        <ele>1532.0</ele>
        <time>2015-08-02T13:21:22Z</time>
      </trkpt>
      <trkpt lat="40.284567" lon="-4.585483">
        <ele>1529.0</ele>
        <time>2015-08-02T13:21:23Z</time>
      </trkpt>
      <trkpt lat="40.284483" lon="-4.585450">
        <ele>1528.0</ele>
        <time>2015-08-02T13:21:24Z</time>
      </trkpt>
      <trkpt lat="40.284417" lon="-4.585417">
        <ele>1526.0</ele>
        <time>2015-08-02T13:21:25Z</time>
      </trkpt>
      <trkpt lat="40.284333" lon="-4.585383">
        <ele>1524.0</ele>
        <time>2015-08-02T13:21:26Z</time>
      </trkpt>
      <trkpt lat="40.284267" lon="-4.585367">
        <ele>1521.0</ele>
        <time>2015-08-02T13:21:27Z</time>
      </trkpt>
      <trkpt lat="40.284183" lon="-4.585350">
        <ele>1518.0</ele>
        <time>2015-08-02T13:21:28Z</time>
      </trkpt>
      <trkpt lat="40.284083" lon="-4.585333">
        <ele>1514.0</ele>
        <time>2015-08-02T13:21:29Z</time>
      </trkpt>
      <trkpt lat="40.284000" lon="-4.585300">
        <ele>1510.0</ele>
        <time>2015-08-02T13:21:30Z</time>
      </trkpt>
      <trkpt lat="40.283900" lon="-4.585267">
        <ele>1507.0</ele>
        <time>2015-08-02T13:21:31Z</time>
      </trkpt>
      <trkpt lat="40.283833" lon="-4.585217">
        <ele>1506.0</ele>
        <time>2015-08-02T13:21:32Z</time>
      </trkpt>
      <trkpt lat="40.283767" lon="-4.585200">
        <ele>1504.0</ele>
        <time>2015-08-02T13:21:33Z</time>
      </trkpt>
      <trkpt lat="40.283700" lon="-4.585167">
        <ele>1503.0</ele>
        <time>2015-08-02T13:21:34Z</time>
      </trkpt>
      <trkpt lat="40.283633" lon="-4.585133">
        <ele>1502.0</ele>
        <time>2015-08-02T13:21:35Z</time>
      </trkpt>
      <trkpt lat="40.283550" lon="-4.585100">
        <ele>1500.0</ele>
        <time>2015-08-02T13:21:36Z</time>
      </trkpt>
      <trkpt lat="40.283483" lon="-4.585083">
        <ele>1498.0</ele>
        <time>2015-08-02T13:21:37Z</time>
      </trkpt>
      <trkpt lat="40.283400" lon="-4.585067">
        <ele>1496.0</ele>
        <time>2015-08-02T13:21:38Z</time>
      </trkpt>
      <trkpt lat="40.283333" lon="-4.585050">
        <ele>1495.0</ele>
        <time>2015-08-02T13:21:39Z</time>
      </trkpt>
      <trkpt lat="40.283267" lon="-4.585050">
        <ele>1495.0</ele>
        <time>2015-08-02T13:21:40Z</time>
      </trkpt>
      <trkpt lat="40.283217" lon="-4.585050">
        <ele>1495.0</ele>
        <time>2015-08-02T13:21:41Z</time>
      </trkpt>
      <trkpt lat="40.283167" lon="-4.585017">
        <ele>1494.0</ele>
        <time>2015-08-02T13:21:42Z</time>
      </trkpt>
      <trkpt lat="40.283100" lon="-4.584983">
        <ele>1491.0</ele>
        <time>2015-08-02T13:21:43Z</time>
      </trkpt>
      <trkpt lat="40.283017" lon="-4.584933">
        <ele>1489.0</ele>
        <time>2015-08-02T13:21:44Z</time>
      </trkpt>
      <trkpt lat="40.282933" lon="-4.584850">
        <ele>1486.0</ele>
        <time>2015-08-02T13:21:45Z</time>
      </trkpt>
      <trkpt lat="40.282867" lon="-4.584750">
        <ele>1483.0</ele>
        <time>2015-08-02T13:21:46Z</time>
      </trkpt>
      <trkpt lat="40.282817" lon="-4.584650">
        <ele>1482.0</ele>
        <time>2015-08-02T13:21:47Z</time>
      </trkpt>
      <trkpt lat="40.282767" lon="-4.584550">
        <ele>1481.0</ele>
        <time>2015-08-02T13:21:48Z</time>
      </trkpt>
      <trkpt lat="40.282717" lon="-4.584450">
        <ele>1480.0</ele>
        <time>2015-08-02T13:21:49Z</time>
      </trkpt>
      <trkpt lat="40.282650" lon="-4.584367">
        <ele>1478.0</ele>
        <time>2015-08-02T13:21:50Z</time>
      </trkpt>
      <trkpt lat="40.282600" lon="-4.584283">
        <ele>1476.0</ele>
        <time>2015-08-02T13:21:51Z</time>
      </trkpt>
      <trkpt lat="40.282533" lon="-4.584200">
        <ele>1474.0</ele>
        <time>2015-08-02T13:21:52Z</time>
      </trkpt>
      <trkpt lat="40.282467" lon="-4.584117">
        <ele>1471.0</ele>
        <time>2015-08-02T13:21:53Z</time>
      </trkpt>
      <trkpt lat="40.282400" lon="-4.584050">
        <ele>1469.0</ele>
        <time>2015-08-02T13:21:54Z</time>
      </trkpt>
      <trkpt lat="40.282333" lon="-4.583983">
        <ele>1467.0</ele>
        <time>2015-08-02T13:21:55Z</time>
      </trkpt>
      <trkpt lat="40.282267" lon="-4.583933">
        <ele>1465.0</ele>
        <time>2015-08-02T13:21:56Z</time>
      </trkpt>
      <trkpt lat="40.282200" lon="-4.583867">
        <ele>1462.0</ele>
        <time>2015-08-02T13:21:57Z</time>
      </trkpt>
      <trkpt lat="40.282117" lon="-4.583817">
        <ele>1459.0</ele>
        <time>2015-08-02T13:21:58Z</time>
      </trkpt>
      <trkpt lat="40.282050" lon="-4.583767">
        <ele>1456.0</ele>
        <time>2015-08-02T13:21:59Z</time>
      </trkpt>
      <trkpt lat="40.281967" lon="-4.583717">
        <ele>1453.0</ele>
        <time>2015-08-02T13:22:00Z</time>
      </trkpt>
      <trkpt lat="40.281900" lon="-4.583667">
        <ele>1449.0</ele>
        <time>2015-08-02T13:22:01Z</time>
      </trkpt>
      <trkpt lat="40.281817" lon="-4.583600">
        <ele>1446.0</ele>
        <time>2015-08-02T13:22:02Z</time>
      </trkpt>
      <trkpt lat="40.281733" lon="-4.583533">
        <ele>1442.0</ele>
        <time>2015-08-02T13:22:03Z</time>
      </trkpt>
      <trkpt lat="40.281650" lon="-4.583450">
        <ele>1439.0</ele>
        <time>2015-08-02T13:22:04Z</time>
      </trkpt>
      <trkpt lat="40.281583" lon="-4.583367">
        <ele>1435.0</ele>
        <time>2015-08-02T13:22:05Z</time>
      </trkpt>
      <trkpt lat="40.281500" lon="-4.583300">
        <ele>1432.0</ele>
        <time>2015-08-02T13:22:06Z</time>
      </trkpt>
      <trkpt lat="40.281417" lon="-4.583217">
        <ele>1429.0</ele>
        <time>2015-08-02T13:22:07Z</time>
      </trkpt>
      <trkpt lat="40.281333" lon="-4.583133">
        <ele>1426.0</ele>
        <time>2015-08-02T13:22:08Z</time>
      </trkpt>
      <trkpt lat="40.281250" lon="-4.583050">
        <ele>1424.0</ele>
        <time>2015-08-02T13:22:09Z</time>
      </trkpt>
      <trkpt lat="40.281167" lon="-4.582967">
        <ele>1422.0</ele>
        <time>2015-08-02T13:22:10Z</time>
      </trkpt>
      <trkpt lat="40.281100" lon="-4.582900">
        <ele>1421.0</ele>
        <time>2015-08-02T13:22:11Z</time>
      </trkpt>
      <trkpt lat="40.281017" lon="-4.582833">
        <ele>1418.0</ele>
        <time>2015-08-02T13:22:12Z</time>
      </trkpt>
      <trkpt lat="40.280933" lon="-4.582783">
        <ele>1416.0</ele>
        <time>2015-08-02T13:22:13Z</time>
      </trkpt>
      <trkpt lat="40.280850" lon="-4.582700">
        <ele>1413.0</ele>
        <time>2015-08-02T13:22:14Z</time>
      </trkpt>
      <trkpt lat="40.280750" lon="-4.582633">
        <ele>1409.0</ele>
        <time>2015-08-02T13:22:15Z</time>
      </trkpt>
      <trkpt lat="40.280667" lon="-4.582567">
        <ele>1407.0</ele>
        <time>2015-08-02T13:22:16Z</time>
      </trkpt>
      <trkpt lat="40.280583" lon="-4.582500">
        <ele>1405.0</ele>
        <time>2015-08-02T13:22:17Z</time>
      </trkpt>
      <trkpt lat="40.280500" lon="-4.582450">
        <ele>1403.0</ele>
        <time>2015-08-02T13:22:18Z</time>
      </trkpt>
      <trkpt lat="40.280433" lon="-4.582383">
        <ele>1402.0</ele>
        <time>2015-08-02T13:22:19Z</time>
      </trkpt>
      <trkpt lat="40.280367" lon="-4.582317">
        <ele>1400.0</ele>
        <time>2015-08-02T13:22:20Z</time>
      </trkpt>
      <trkpt lat="40.280283" lon="-4.582250">
        <ele>1397.0</ele>
        <time>2015-08-02T13:22:21Z</time>
      </trkpt>
      <trkpt lat="40.280200" lon="-4.582183">
        <ele>1393.0</ele>
        <time>2015-08-02T13:22:22Z</time>
      </trkpt>
      <trkpt lat="40.280117" lon="-4.582117">
        <ele>1389.0</ele>
        <time>2015-08-02T13:22:23Z</time>
      </trkpt>
      <trkpt lat="40.280033" lon="-4.582050">
        <ele>1386.0</ele>
        <time>2015-08-02T13:22:24Z</time>
      </trkpt>
      <trkpt lat="40.279950" lon="-4.582000">
        <ele>1383.0</ele>
        <time>2015-08-02T13:22:25Z</time>
      </trkpt>
      <trkpt lat="40.279883" lon="-4.581933">
        <ele>1381.0</ele>
        <time>2015-08-02T13:22:26Z</time>
      </trkpt>
      <trkpt lat="40.279817" lon="-4.581883">
        <ele>1378.0</ele>
        <time>2015-08-02T13:22:27Z</time>
      </trkpt>
      <trkpt lat="40.279733" lon="-4.581833">
        <ele>1375.0</ele>
        <time>2015-08-02T13:22:28Z</time>
      </trkpt>
      <trkpt lat="40.279650" lon="-4.581767">
        <ele>1371.0</ele>
        <time>2015-08-02T13:22:29Z</time>
      </trkpt>
      <trkpt lat="40.279567" lon="-4.581667">
        <ele>1368.0</ele>
        <time>2015-08-02T13:22:30Z</time>
      </trkpt>
      <trkpt lat="40.279483" lon="-4.581583">
        <ele>1366.0</ele>
        <time>2015-08-02T13:22:31Z</time>
      </trkpt>
      <trkpt lat="40.279433" lon="-4.581483">
        <ele>1365.0</ele>
        <time>2015-08-02T13:22:32Z</time>
      </trkpt>
      <trkpt lat="40.279383" lon="-4.581383">
        <ele>1364.0</ele>
        <time>2015-08-02T13:22:33Z</time>
      </trkpt>
      <trkpt lat="40.279333" lon="-4.581317">
        <ele>1362.0</ele>
        <time>2015-08-02T13:22:34Z</time>
      </trkpt>
      <trkpt lat="40.279283" lon="-4.581233">
        <ele>1359.0</ele>
        <time>2015-08-02T13:22:35Z</time>
      </trkpt>
      <trkpt lat="40.279217" lon="-4.581133">
        <ele>1355.0</ele>
        <time>2015-08-02T13:22:36Z</time>
      </trkpt>
      <trkpt lat="40.279150" lon="-4.581033">
        <ele>1351.0</ele>
        <time>2015-08-02T13:22:37Z</time>
      </trkpt>
      <trkpt lat="40.279067" lon="-4.580933">
        <ele>1347.0</ele>
        <time>2015-08-02T13:22:38Z</time>
      </trkpt>
      <trkpt lat="40.279000" lon="-4.580850">
        <ele>1345.0</ele>
        <time>2015-08-02T13:22:39Z</time>
      </trkpt>
      <trkpt lat="40.278933" lon="-4.580783">
        <ele>1344.0</ele>
        <time>2015-08-02T13:22:40Z</time>
      </trkpt>
      <trkpt lat="40.278867" lon="-4.580733">
        <ele>1342.0</ele>
        <time>2015-08-02T13:22:41Z</time>
      </trkpt>
      <trkpt lat="40.278800" lon="-4.580700">
        <ele>1339.0</ele>
        <time>2015-08-02T13:22:42Z</time>
      </trkpt>
      <trkpt lat="40.278733" lon="-4.580650">
        <ele>1336.0</ele>
        <time>2015-08-02T13:22:43Z</time>
      </trkpt>
      <trkpt lat="40.278650" lon="-4.580600">
        <ele>1332.0</ele>
        <time>2015-08-02T13:22:44Z</time>
      </trkpt>
      <trkpt lat="40.278567" lon="-4.580567">
        <ele>1329.0</ele>
        <time>2015-08-02T13:22:45Z</time>
      </trkpt>
      <trkpt lat="40.278500" lon="-4.580533">
        <ele>1328.0</ele>
        <time>2015-08-02T13:22:46Z</time>
      </trkpt>
      <trkpt lat="40.278417" lon="-4.580517">
        <ele>1326.0</ele>
        <time>2015-08-02T13:22:47Z</time>
      </trkpt>
      <trkpt lat="40.278350" lon="-4.580500">
        <ele>1325.0</ele>
        <time>2015-08-02T13:22:48Z</time>
      </trkpt>
      <trkpt lat="40.278283" lon="-4.580467">
        <ele>1322.0</ele>
        <time>2015-08-02T13:22:49Z</time>
      </trkpt>
      <trkpt lat="40.278217" lon="-4.580433">
        <ele>1319.0</ele>
        <time>2015-08-02T13:22:50Z</time>
      </trkpt>
      <trkpt lat="40.278133" lon="-4.580367">
        <ele>1316.0</ele>
        <time>2015-08-02T13:22:51Z</time>
      </trkpt>
      <trkpt lat="40.278067" lon="-4.580317">
        <ele>1312.0</ele>
        <time>2015-08-02T13:22:52Z</time>
      </trkpt>
      <trkpt lat="40.277983" lon="-4.580250">
        <ele>1309.0</ele>
        <time>2015-08-02T13:22:53Z</time>
      </trkpt>
      <trkpt lat="40.277917" lon="-4.580200">
        <ele>1307.0</ele>
        <time>2015-08-02T13:22:54Z</time>
      </trkpt>
      <trkpt lat="40.277867" lon="-4.580167">
        <ele>1304.0</ele>
        <time>2015-08-02T13:22:55Z</time>
      </trkpt>
      <trkpt lat="40.277800" lon="-4.580117">
        <ele>1301.0</ele>
        <time>2015-08-02T13:22:56Z</time>
      </trkpt>
      <trkpt lat="40.277733" lon="-4.580050">
        <ele>1298.0</ele>
        <time>2015-08-02T13:22:57Z</time>
      </trkpt>
      <trkpt lat="40.277683" lon="-4.579983">
        <ele>1295.0</ele>
        <time>2015-08-02T13:22:58Z</time>
      </trkpt>
      <trkpt lat="40.277600" lon="-4.579917">
        <ele>1291.0</ele>
        <time>2015-08-02T13:22:59Z</time>
      </trkpt>
      <trkpt lat="40.277533" lon="-4.579833">
        <ele>1287.0</ele>
        <time>2015-08-02T13:23:00Z</time>
      </trkpt>
      <trkpt lat="40.277467" lon="-4.579750">
        <ele>1283.0</ele>
        <time>2015-08-02T13:23:01Z</time>
      </trkpt>
      <trkpt lat="40.277400" lon="-4.579650">
        <ele>1281.0</ele>
        <time>2015-08-02T13:23:02Z</time>
      </trkpt>
      <trkpt lat="40.277333" lon="-4.579550">
        <ele>1279.0</ele>
        <time>2015-08-02T13:23:03Z</time>
      </trkpt>
      <trkpt lat="40.277283" lon="-4.579467">
        <ele>1279.0</ele>
        <time>2015-08-02T13:23:04Z</time>
      </trkpt>
      <trkpt lat="40.277233" lon="-4.579383">
        <ele>1278.0</ele>
        <time>2015-08-02T13:23:05Z</time>
      </trkpt>
      <trkpt lat="40.277183" lon="-4.579317">
        <ele>1277.0</ele>
        <time>2015-08-02T13:23:06Z</time>
      </trkpt>
      <trkpt lat="40.277133" lon="-4.579233">
        <ele>1275.0</ele>
        <time>2015-08-02T13:23:07Z</time>
      </trkpt>
      <trkpt lat="40.277083" lon="-4.579133">
        <ele>1273.0</ele>
        <time>2015-08-02T13:23:08Z</time>
      </trkpt>
      <trkpt lat="40.277033" lon="-4.579033">
        <ele>1270.0</ele>
        <time>2015-08-02T13:23:09Z</time>
      </trkpt>
      <trkpt lat="40.276983" lon="-4.578933">
        <ele>1266.0</ele>
        <time>2015-08-02T13:23:10Z</time>
      </trkpt>
      <trkpt lat="40.276917" lon="-4.578850">
        <ele>1262.0</ele>
        <time>2015-08-02T13:23:11Z</time>
      </trkpt>
      <trkpt lat="40.276833" lon="-4.578767">
        <ele>1259.0</ele>
        <time>2015-08-02T13:23:12Z</time>
      </trkpt>
      <trkpt lat="40.276783" lon="-4.578700">
        <ele>1258.0</ele>
        <time>2015-08-02T13:23:13Z</time>
      </trkpt>
      <trkpt lat="40.276733" lon="-4.578633">
        <ele>1257.0</ele>
        <time>2015-08-02T13:23:14Z</time>
      </trkpt>
      <trkpt lat="40.276683" lon="-4.578533">
        <ele>1254.0</ele>
        <time>2015-08-02T13:23:15Z</time>
      </trkpt>
      <trkpt lat="40.276633" lon="-4.578450">
        <ele>1252.0</ele>
        <time>2015-08-02T13:23:16Z</time>
      </trkpt>
      <trkpt lat="40.276567" lon="-4.578333">
        <ele>1249.0</ele>
        <time>2015-08-02T13:23:17Z</time>
      </trkpt>
      <trkpt lat="40.276483" lon="-4.578233">
        <ele>1246.0</ele>
        <time>2015-08-02T13:23:18Z</time>
      </trkpt>
      <trkpt lat="40.276400" lon="-4.578133">
        <ele>1244.0</ele>
        <time>2015-08-02T13:23:19Z</time>
      </trkpt>
      <trkpt lat="40.276350" lon="-4.578033">
        <ele>1245.0</ele>
        <time>2015-08-02T13:23:20Z</time>
      </trkpt>
      <trkpt lat="40.276300" lon="-4.577967">
        <ele>1247.0</ele>
        <time>2015-08-02T13:23:21Z</time>
      </trkpt>
      <trkpt lat="40.276250" lon="-4.577900">
        <ele>1249.0</ele>
        <time>2015-08-02T13:23:22Z</time>
      </trkpt>
      <trkpt lat="40.276200" lon="-4.577850">
        <ele>1248.0</ele>
        <time>2015-08-02T13:23:23Z</time>
      </trkpt>
      <trkpt lat="40.276150" lon="-4.577783">
        <ele>1246.0</ele>
        <time>2015-08-02T13:23:24Z</time>
      </trkpt>
      <trkpt lat="40.276083" lon="-4.577717">
        <ele>1243.0</ele>
        <time>2015-08-02T13:23:25Z</time>
      </trkpt>
      <trkpt lat="40.276000" lon="-4.577650">
        <ele>1240.0</ele>
        <time>2015-08-02T13:23:26Z</time>
      </trkpt>
      <trkpt lat="40.275917" lon="-4.577600">
        <ele>1238.0</ele>
        <time>2015-08-02T13:23:27Z</time>
      </trkpt>
      <trkpt lat="40.275850" lon="-4.577550">
        <ele>1237.0</ele>
        <time>2015-08-02T13:23:28Z</time>
      </trkpt>
      <trkpt lat="40.275783" lon="-4.577500">
        <ele>1236.0</ele>
        <time>2015-08-02T13:23:29Z</time>
      </trkpt>
      <trkpt lat="40.275717" lon="-4.577450">
        <ele>1236.0</ele>
        <time>2015-08-02T13:23:30Z</time>
      </trkpt>
      <trkpt lat="40.275650" lon="-4.577400">
        <ele>1235.0</ele>
        <time>2015-08-02T13:23:31Z</time>
      </trkpt>
      <trkpt lat="40.275583" lon="-4.577367">
        <ele>1233.0</ele>
        <time>2015-08-02T13:23:32Z</time>
      </trkpt>
      <trkpt lat="40.275517" lon="-4.577317">
        <ele>1230.0</ele>
        <time>2015-08-02T13:23:33Z</time>
      </trkpt>
      <trkpt lat="40.275433" lon="-4.577267">
        <ele>1227.0</ele>
        <time>2015-08-02T13:23:34Z</time>
      </trkpt>
      <trkpt lat="40.275350" lon="-4.577233">
        <ele>1225.0</ele>
        <time>2015-08-02T13:23:35Z</time>
      </trkpt>
      <trkpt lat="40.275267" lon="-4.577200">
        <ele>1222.0</ele>
        <time>2015-08-02T13:23:36Z</time>
      </trkpt>
      <trkpt lat="40.275183" lon="-4.577183">
        <ele>1220.0</ele>
        <time>2015-08-02T13:23:37Z</time>
      </trkpt>
      <trkpt lat="40.275117" lon="-4.577150">
        <ele>1218.0</ele>
        <time>2015-08-02T13:23:38Z</time>
      </trkpt>
      <trkpt lat="40.275033" lon="-4.577100">
        <ele>1216.0</ele>
        <time>2015-08-02T13:23:39Z</time>
      </trkpt>
      <trkpt lat="40.274967" lon="-4.577050">
        <ele>1214.0</ele>
        <time>2015-08-02T13:23:40Z</time>
      </trkpt>
      <trkpt lat="40.274883" lon="-4.576983">
        <ele>1212.0</ele>
        <time>2015-08-02T13:23:41Z</time>
      </trkpt>
      <trkpt lat="40.274817" lon="-4.576933">
        <ele>1209.0</ele>
        <time>2015-08-02T13:23:42Z</time>
      </trkpt>
      <trkpt lat="40.274733" lon="-4.576867">
        <ele>1207.0</ele>
        <time>2015-08-02T13:23:43Z</time>
      </trkpt>
      <trkpt lat="40.274667" lon="-4.576817">
        <ele>1205.0</ele>
        <time>2015-08-02T13:23:44Z</time>
      </trkpt>
      <trkpt lat="40.274600" lon="-4.576783">
        <ele>1202.0</ele>
        <time>2015-08-02T13:23:45Z</time>
      </trkpt>
      <trkpt lat="40.274533" lon="-4.576717">
        <ele>1199.0</ele>
        <time>2015-08-02T13:23:46Z</time>
      </trkpt>
      <trkpt lat="40.274467" lon="-4.576667">
        <ele>1195.0</ele>
        <time>2015-08-02T13:23:47Z</time>
      </trkpt>
      <trkpt lat="40.274400" lon="-4.576617">
        <ele>1192.0</ele>
        <time>2015-08-02T13:23:48Z</time>
      </trkpt>
      <trkpt lat="40.274333" lon="-4.576583">
        <ele>1189.0</ele>
        <time>2015-08-02T13:23:49Z</time>
      </trkpt>
      <trkpt lat="40.274250" lon="-4.576550">
        <ele>1186.0</ele>
        <time>2015-08-02T13:23:50Z</time>
      </trkpt>
      <trkpt lat="40.274183" lon="-4.576550">
        <ele>1182.0</ele>
        <time>2015-08-02T13:23:51Z</time>
      </trkpt>
      <trkpt lat="40.274117" lon="-4.576533">
        <ele>1179.0</ele>
        <time>2015-08-02T13:23:52Z</time>
      </trkpt>
      <trkpt lat="40.274033" lon="-4.576533">
        <ele>1175.0</ele>
        <time>2015-08-02T13:23:53Z</time>
      </trkpt>
      <trkpt lat="40.273967" lon="-4.576533">
        <ele>1171.0</ele>
        <time>2015-08-02T13:23:54Z</time>
      </trkpt>
      <trkpt lat="40.273883" lon="-4.576517">
        <ele>1168.0</ele>
        <time>2015-08-02T13:23:55Z</time>
      </trkpt>
      <trkpt lat="40.273800" lon="-4.576517">
        <ele>1165.0</ele>
        <time>2015-08-02T13:23:56Z</time>
      </trkpt>
      <trkpt lat="40.273733" lon="-4.576500">
        <ele>1163.0</ele>
        <time>2015-08-02T13:23:57Z</time>
      </trkpt>
      <trkpt lat="40.273667" lon="-4.576483">
        <ele>1161.0</ele>
        <time>2015-08-02T13:23:58Z</time>
      </trkpt>
      <trkpt lat="40.273600" lon="-4.576450">
        <ele>1158.0</ele>
        <time>2015-08-02T13:23:59Z</time>
      </trkpt>
      <trkpt lat="40.273533" lon="-4.576417">
        <ele>1157.0</ele>
        <time>2015-08-02T13:24:00Z</time>
      </trkpt>
      <trkpt lat="40.273467" lon="-4.576383">
        <ele>1155.0</ele>
        <time>2015-08-02T13:24:01Z</time>
      </trkpt>
      <trkpt lat="40.273417" lon="-4.576367">
        <ele>1153.0</ele>
        <time>2015-08-02T13:24:02Z</time>
      </trkpt>
      <trkpt lat="40.273367" lon="-4.576333">
        <ele>1151.0</ele>
        <time>2015-08-02T13:24:03Z</time>
      </trkpt>
      <trkpt lat="40.273300" lon="-4.576317">
        <ele>1149.0</ele>
        <time>2015-08-02T13:24:04Z</time>
      </trkpt>
      <trkpt lat="40.273233" lon="-4.576317">
        <ele>1146.0</ele>
        <time>2015-08-02T13:24:05Z</time>
      </trkpt>
      <trkpt lat="40.273167" lon="-4.576300">
        <ele>1144.0</ele>
        <time>2015-08-02T13:24:06Z</time>
      </trkpt>
      <trkpt lat="40.273100" lon="-4.576300">
        <ele>1142.0</ele>
        <time>2015-08-02T13:24:07Z</time>
      </trkpt>
      <trkpt lat="40.273033" lon="-4.576300">
        <ele>1141.0</ele>
        <time>2015-08-02T13:24:08Z</time>
      </trkpt>
      <trkpt lat="40.272967" lon="-4.576283">
        <ele>1140.0</ele>
        <time>2015-08-02T13:24:09Z</time>
      </trkpt>
      <trkpt lat="40.272900" lon="-4.576267">
        <ele>1138.0</ele>
        <time>2015-08-02T13:24:10Z</time>
      </trkpt>
      <trkpt lat="40.272800" lon="-4.576267">
        <ele>1136.0</ele>
        <time>2015-08-02T13:24:11Z</time>
      </trkpt>
      <trkpt lat="40.272717" lon="-4.576267">
        <ele>1134.0</ele>
        <time>2015-08-02T13:24:12Z</time>
      </trkpt>
      <trkpt lat="40.272633" lon="-4.576267">
        <ele>1135.0</ele>
        <time>2015-08-02T13:24:13Z</time>
      </trkpt>
      <trkpt lat="40.272550" lon="-4.576267">
        <ele>1135.0</ele>
        <time>2015-08-02T13:24:14Z</time>
      </trkpt>
      <trkpt lat="40.272483" lon="-4.576283">
        <ele>1136.0</ele>
        <time>2015-08-02T13:24:15Z</time>
      </trkpt>
      <trkpt lat="40.272417" lon="-4.576283">
        <ele>1135.0</ele>
        <time>2015-08-02T13:24:16Z</time>
      </trkpt>
      <trkpt lat="40.272333" lon="-4.576267">
        <ele>1134.0</ele>
        <time>2015-08-02T13:24:17Z</time>
      </trkpt>
      <trkpt lat="40.272250" lon="-4.576233">
        <ele>1132.0</ele>
        <time>2015-08-02T13:24:18Z</time>
      </trkpt>
      <trkpt lat="40.272167" lon="-4.576200">
        <ele>1129.0</ele>
        <time>2015-08-02T13:24:19Z</time>
      </trkpt>
      <trkpt lat="40.272067" lon="-4.576150">
        <ele>1128.0</ele>
        <time>2015-08-02T13:24:20Z</time>
      </trkpt>
      <trkpt lat="40.271983" lon="-4.576117">
        <ele>1127.0</ele>
        <time>2015-08-02T13:24:21Z</time>
      </trkpt>
      <trkpt lat="40.271900" lon="-4.576067">
        <ele>1126.0</ele>
        <time>2015-08-02T13:24:22Z</time>
      </trkpt>
      <trkpt lat="40.271817" lon="-4.576017">
        <ele>1125.0</ele>
        <time>2015-08-02T13:24:23Z</time>
      </trkpt>
      <trkpt lat="40.271717" lon="-4.575983">
        <ele>1123.0</ele>
        <time>2015-08-02T13:24:24Z</time>
      </trkpt>
      <trkpt lat="40.271633" lon="-4.575933">
        <ele>1122.0</ele>
        <time>2015-08-02T13:24:25Z</time>
      </trkpt>
      <trkpt lat="40.271533" lon="-4.575900">
        <ele>1122.0</ele>
        <time>2015-08-02T13:24:26Z</time>
      </trkpt>
      <trkpt lat="40.271467" lon="-4.575867">
        <ele>1123.0</ele>
        <time>2015-08-02T13:24:27Z</time>
      </trkpt>
      <trkpt lat="40.271400" lon="-4.575833">
        <ele>1125.0</ele>
        <time>2015-08-02T13:24:28Z</time>
      </trkpt>
      <trkpt lat="40.271367" lon="-4.575817">
        <ele>1126.0</ele>
        <time>2015-08-02T13:24:29Z</time>
      </trkpt>
      <trkpt lat="40.271317" lon="-4.575800">
        <ele>1125.0</ele>
        <time>2015-08-02T13:24:30Z</time>
      </trkpt>
      <trkpt lat="40.271250" lon="-4.575783">
        <ele>1124.0</ele>
        <time>2015-08-02T13:24:31Z</time>
      </trkpt>
      <trkpt lat="40.271183" lon="-4.575750">
        <ele>1122.0</ele>
        <time>2015-08-02T13:24:32Z</time>
      </trkpt>
      <trkpt lat="40.271117" lon="-4.575717">
        <ele>1121.0</ele>
        <time>2015-08-02T13:24:33Z</time>
      </trkpt>
      <trkpt lat="40.271050" lon="-4.575683">
        <ele>1120.0</ele>
        <time>2015-08-02T13:24:34Z</time>
      </trkpt>
      <trkpt lat="40.270983" lon="-4.575633">
        <ele>1120.0</ele>
        <time>2015-08-02T13:24:35Z</time>
      </trkpt>
      <trkpt lat="40.270917" lon="-4.575583">
        <ele>1120.0</ele>
        <time>2015-08-02T13:24:36Z</time>
      </trkpt>
      <trkpt lat="40.270850" lon="-4.575533">
        <ele>1121.0</ele>
        <time>2015-08-02T13:24:37Z</time>
      </trkpt>
      <trkpt lat="40.270800" lon="-4.575483">
        <ele>1122.0</ele>
        <time>2015-08-02T13:24:38Z</time>
      </trkpt>
      <trkpt lat="40.270733" lon="-4.575450">
        <ele>1122.0</ele>
        <time>2015-08-02T13:24:39Z</time>
      </trkpt>
      <trkpt lat="40.270667" lon="-4.575417">
        <ele>1123.0</ele>
        <time>2015-08-02T13:24:40Z</time>
      </trkpt>
      <trkpt lat="40.270617" lon="-4.575367">
        <ele>1123.0</ele>
        <time>2015-08-02T13:24:41Z</time>
      </trkpt>
      <trkpt lat="40.270550" lon="-4.575317">
        <ele>1124.0</ele>
        <time>2015-08-02T13:24:42Z</time>
      </trkpt>
      <trkpt lat="40.270500" lon="-4.575267">
        <ele>1126.0</ele>
        <time>2015-08-02T13:24:43Z</time>
      </trkpt>
      <trkpt lat="40.270467" lon="-4.575200">
        <ele>1128.0</ele>
        <time>2015-08-02T13:24:44Z</time>
      </trkpt>
      <trkpt lat="40.270417" lon="-4.575117">
        <ele>1130.0</ele>
        <time>2015-08-02T13:24:45Z</time>
      </trkpt>
      <trkpt lat="40.270367" lon="-4.575033">
        <ele>1131.0</ele>
        <time>2015-08-02T13:24:46Z</time>
      </trkpt>
      <trkpt lat="40.270333" lon="-4.574950">
        <ele>1132.0</ele>
        <time>2015-08-02T13:24:47Z</time>
      </trkpt>
      <trkpt lat="40.270300" lon="-4.574883">
        <ele>1134.0</ele>
        <time>2015-08-02T13:24:48Z</time>
      </trkpt>
      <trkpt lat="40.270283" lon="-4.574800">
        <ele>1136.0</ele>
        <time>2015-08-02T13:24:49Z</time>
      </trkpt>
      <trkpt lat="40.270250" lon="-4.574717">
        <ele>1137.0</ele>
        <time>2015-08-02T13:24:50Z</time>
      </trkpt>
      <trkpt lat="40.270233" lon="-4.574633">
        <ele>1138.0</ele>
        <time>2015-08-02T13:24:51Z</time>
      </trkpt>
      <trkpt lat="40.270217" lon="-4.574550">
        <ele>1139.0</ele>
        <time>2015-08-02T13:24:52Z</time>
      </trkpt>
      <trkpt lat="40.270183" lon="-4.574467">
        <ele>1140.0</ele>
        <time>2015-08-02T13:24:53Z</time>
      </trkpt>
      <trkpt lat="40.270150" lon="-4.574367">
        <ele>1141.0</ele>
        <time>2015-08-02T13:24:54Z</time>
      </trkpt>
      <trkpt lat="40.270117" lon="-4.574267">
        <ele>1142.0</ele>
        <time>2015-08-02T13:24:55Z</time>
      </trkpt>
      <trkpt lat="40.270083" lon="-4.574167">
        <ele>1143.0</ele>
        <time>2015-08-02T13:24:56Z</time>
      </trkpt>
      <trkpt lat="40.270033" lon="-4.574050">
        <ele>1143.0</ele>
        <time>2015-08-02T13:24:57Z</time>
      </trkpt>
      <trkpt lat="40.269983" lon="-4.573950">
        <ele>1143.0</ele>
        <time>2015-08-02T13:24:58Z</time>
      </trkpt>
      <trkpt lat="40.269933" lon="-4.573850">
        <ele>1144.0</ele>
        <time>2015-08-02T13:24:59Z</time>
      </trkpt>
      <trkpt lat="40.269917" lon="-4.573750">
        <ele>1145.0</ele>
        <time>2015-08-02T13:25:00Z</time>
      </trkpt>
      <trkpt lat="40.269900" lon="-4.573633">
        <ele>1145.0</ele>
        <time>2015-08-02T13:25:01Z</time>
      </trkpt>
      <trkpt lat="40.269900" lon="-4.573517">
        <ele>1143.0</ele>
        <time>2015-08-02T13:25:02Z</time>
      </trkpt>
      <trkpt lat="40.269867" lon="-4.573383">
        <ele>1140.0</ele>
        <time>2015-08-02T13:25:03Z</time>
      </trkpt>
      <trkpt lat="40.269817" lon="-4.573267">
        <ele>1138.0</ele>
        <time>2015-08-02T13:25:04Z</time>
      </trkpt>
      <trkpt lat="40.269750" lon="-4.573150">
        <ele>1137.0</ele>
        <time>2015-08-02T13:25:05Z</time>
      </trkpt>
      <trkpt lat="40.269683" lon="-4.573100">
        <ele>1137.0</ele>
        <time>2015-08-02T13:25:06Z</time>
      </trkpt>
      <trkpt lat="40.269600" lon="-4.573067">
        <ele>1138.0</ele>
        <time>2015-08-02T13:25:07Z</time>
      </trkpt>
      <trkpt lat="40.269533" lon="-4.573067">
        <ele>1137.0</ele>
        <time>2015-08-02T13:25:08Z</time>
      </trkpt>
      <trkpt lat="40.269433" lon="-4.573083">
        <ele>1135.0</ele>
        <time>2015-08-02T13:25:09Z</time>
      </trkpt>
      <trkpt lat="40.269350" lon="-4.573117">
        <ele>1133.0</ele>
        <time>2015-08-02T13:25:10Z</time>
      </trkpt>
      <trkpt lat="40.269267" lon="-4.573217">
        <ele>1130.0</ele>
        <time>2015-08-02T13:25:11Z</time>
      </trkpt>
      <trkpt lat="40.269200" lon="-4.573333">
        <ele>1127.0</ele>
        <time>2015-08-02T13:25:12Z</time>
      </trkpt>
      <trkpt lat="40.269183" lon="-4.573450">
        <ele>1125.0</ele>
        <time>2015-08-02T13:25:13Z</time>
      </trkpt>
      <trkpt lat="40.269200" lon="-4.573583">
        <ele>1123.0</ele>
        <time>2015-08-02T13:25:14Z</time>
      </trkpt>
      <trkpt lat="40.269250" lon="-4.573667">
        <ele>1122.0</ele>
        <time>2015-08-02T13:25:15Z</time>
      </trkpt>
      <trkpt lat="40.269333" lon="-4.573717">
        <ele>1122.0</ele>
        <time>2015-08-02T13:25:16Z</time>
      </trkpt>
      <trkpt lat="40.269433" lon="-4.573733">
        <ele>1121.0</ele>
        <time>2015-08-02T13:25:17Z</time>
      </trkpt>
      <trkpt lat="40.269550" lon="-4.573700">
        <ele>1120.0</ele>
        <time>2015-08-02T13:25:18Z</time>
      </trkpt>
      <trkpt lat="40.269650" lon="-4.573650">
        <ele>1120.0</ele>
        <time>2015-08-02T13:25:19Z</time>
      </trkpt>
      <trkpt lat="40.269733" lon="-4.573550">
        <ele>1122.0</ele>
        <time>2015-08-02T13:25:20Z</time>
      </trkpt>
      <trkpt lat="40.269767" lon="-4.573450">
        <ele>1123.0</ele>
        <time>2015-08-02T13:25:21Z</time>
      </trkpt>
      <trkpt lat="40.269783" lon="-4.573317">
        <ele>1123.0</ele>
        <time>2015-08-02T13:25:22Z</time>
      </trkpt>
      <trkpt lat="40.269767" lon="-4.573183">
        <ele>1122.0</ele>
        <time>2015-08-02T13:25:23Z</time>
      </trkpt>
      <trkpt lat="40.269717" lon="-4.573067">
        <ele>1122.0</ele>
        <time>2015-08-02T13:25:24Z</time>
      </trkpt>
      <trkpt lat="40.269667" lon="-4.572950">
        <ele>1120.0</ele>
        <time>2015-08-02T13:25:25Z</time>
      </trkpt>
      <trkpt lat="40.269583" lon="-4.572883">
        <ele>1118.0</ele>
        <time>2015-08-02T13:25:26Z</time>
      </trkpt>
      <trkpt lat="40.269483" lon="-4.572867">
        <ele>1116.0</ele>
        <time>2015-08-02T13:25:27Z</time>
      </trkpt>
      <trkpt lat="40.269383" lon="-4.572883">
        <ele>1115.0</ele>
        <time>2015-08-02T13:25:28Z</time>
      </trkpt>
      <trkpt lat="40.269300" lon="-4.572933">
        <ele>1114.0</ele>
        <time>2015-08-02T13:25:29Z</time>
      </trkpt>
      <trkpt lat="40.269233" lon="-4.572983">
        <ele>1113.0</ele>
        <time>2015-08-02T13:25:30Z</time>
      </trkpt>
      <trkpt lat="40.269167" lon="-4.573050">
        <ele>1111.0</ele>
        <time>2015-08-02T13:25:31Z</time>
      </trkpt>
      <trkpt lat="40.269117" lon="-4.573133">
        <ele>1108.0</ele>
        <time>2015-08-02T13:25:32Z</time>
      </trkpt>
      <trkpt lat="40.269067" lon="-4.573233">
        <ele>1103.0</ele>
        <time>2015-08-02T13:25:33Z</time>
      </trkpt>
      <trkpt lat="40.269017" lon="-4.573367">
        <ele>1098.0</ele>
        <time>2015-08-02T13:25:34Z</time>
      </trkpt>
      <trkpt lat="40.269017" lon="-4.573500">
        <ele>1094.0</ele>
        <time>2015-08-02T13:25:35Z</time>
      </trkpt>
      <trkpt lat="40.269067" lon="-4.573617">
        <ele>1091.0</ele>
        <time>2015-08-02T13:25:36Z</time>
      </trkpt>
      <trkpt lat="40.269167" lon="-4.573700">
        <ele>1087.0</ele>
        <time>2015-08-02T13:25:37Z</time>
      </trkpt>
      <trkpt lat="40.269333" lon="-4.573700">
        <ele>1078.0</ele>
        <time>2015-08-02T13:25:38Z</time>
      </trkpt>
      <trkpt lat="40.269467" lon="-4.573600">
        <ele>1072.0</ele>
        <time>2015-08-02T13:25:39Z</time>
      </trkpt>
      <trkpt lat="40.269533" lon="-4.573433">
        <ele>1069.0</ele>
        <time>2015-08-02T13:25:40Z</time>
      </trkpt>
      <trkpt lat="40.269517" lon="-4.573283">
        <ele>1066.0</ele>
        <time>2015-08-02T13:25:41Z</time>
      </trkpt>
      <trkpt lat="40.269433" lon="-4.573200">
        <ele>1063.0</ele>
        <time>2015-08-02T13:25:42Z</time>
      </trkpt>
      <trkpt lat="40.269333" lon="-4.573233">
        <ele>1060.0</ele>
        <time>2015-08-02T13:25:43Z</time>
      </trkpt>
      <trkpt lat="40.269283" lon="-4.573317">
        <ele>1058.0</ele>
        <time>2015-08-02T13:25:44Z</time>
      </trkpt>
      <trkpt lat="40.269267" lon="-4.573433">
        <ele>1057.0</ele>
        <time>2015-08-02T13:25:45Z</time>
      </trkpt>
      <trkpt lat="40.269300" lon="-4.573550">
        <ele>1056.0</ele>
        <time>2015-08-02T13:25:46Z</time>
      </trkpt>
      <trkpt lat="40.269367" lon="-4.573667">
        <ele>1053.0</ele>
        <time>2015-08-02T13:25:47Z</time>
      </trkpt>
      <trkpt lat="40.269417" lon="-4.573800">
        <ele>1051.0</ele>
        <time>2015-08-02T13:25:48Z</time>
      </trkpt>
      <trkpt lat="40.269417" lon="-4.573917">
        <ele>1049.0</ele>
        <time>2015-08-02T13:25:49Z</time>
      </trkpt>
      <trkpt lat="40.269367" lon="-4.574017">
        <ele>1046.0</ele>
        <time>2015-08-02T13:25:50Z</time>
      </trkpt>
      <trkpt lat="40.269283" lon="-4.574067">
        <ele>1043.0</ele>
        <time>2015-08-02T13:25:51Z</time>
      </trkpt>
      <trkpt lat="40.269183" lon="-4.574050">
        <ele>1039.0</ele>
        <time>2015-08-02T13:25:52Z</time>
      </trkpt>
      <trkpt lat="40.269117" lon="-4.573950">
        <ele>1036.0</ele>
        <time>2015-08-02T13:25:53Z</time>
      </trkpt>
      <trkpt lat="40.269083" lon="-4.573817">
        <ele>1035.0</ele>
        <time>2015-08-02T13:25:54Z</time>
      </trkpt>
      <trkpt lat="40.269133" lon="-4.573667">
        <ele>1033.0</ele>
        <time>2015-08-02T13:25:55Z</time>
      </trkpt>
      <trkpt lat="40.269217" lon="-4.573550">
        <ele>1030.0</ele>
        <time>2015-08-02T13:25:56Z</time>
      </trkpt>
      <trkpt lat="40.269333" lon="-4.573500">
        <ele>1028.0</ele>
        <time>2015-08-02T13:25:57Z</time>
      </trkpt>
      <trkpt lat="40.269450" lon="-4.573500">
        <ele>1025.0</ele>
        <time>2015-08-02T13:25:58Z</time>
      </trkpt>
      <trkpt lat="40.269550" lon="-4.573550">
        <ele>1023.0</ele>
        <time>2015-08-02T13:25:59Z</time>
      </trkpt>
      <trkpt lat="40.269633" lon="-4.573650">
        <ele>1021.0</ele>
        <time>2015-08-02T13:26:00Z</time>
      </trkpt>
      <trkpt lat="40.269683" lon="-4.573767">
        <ele>1018.0</ele>
        <time>2015-08-02T13:26:01Z</time>
      </trkpt>
      <trkpt lat="40.269683" lon="-4.573900">
        <ele>1016.0</ele>
        <time>2015-08-02T13:26:02Z</time>
      </trkpt>
      <trkpt lat="40.269600" lon="-4.573967">
        <ele>1012.0</ele>
        <time>2015-08-02T13:26:03Z</time>
      </trkpt>
      <trkpt lat="40.269517" lon="-4.573933">
        <ele>1009.0</ele>
        <time>2015-08-02T13:26:04Z</time>
      </trkpt>
      <trkpt lat="40.269450" lon="-4.573800">
        <ele>1005.0</ele>
        <time>2015-08-02T13:26:05Z</time>
      </trkpt>
      <trkpt lat="40.269483" lon="-4.573617">
        <ele>1000.0</ele>
        <time>2015-08-02T13:26:06Z</time>
      </trkpt>
      <trkpt lat="40.269600" lon="-4.573483">
        <ele>994.0</ele>
        <time>2015-08-02T13:26:07Z</time>
      </trkpt>
      <trkpt lat="40.269767" lon="-4.573467">
        <ele>990.0</ele>
        <time>2015-08-02T13:26:08Z</time>
      </trkpt>
      <trkpt lat="40.269883" lon="-4.573567">
        <ele>987.0</ele>
        <time>2015-08-02T13:26:09Z</time>
      </trkpt>
      <trkpt lat="40.269900" lon="-4.573717">
        <ele>983.0</ele>
        <time>2015-08-02T13:26:10Z</time>
      </trkpt>
      <trkpt lat="40.269833" lon="-4.573817">
        <ele>980.0</ele>
        <time>2015-08-02T13:26:11Z</time>
      </trkpt>
      <trkpt lat="40.269733" lon="-4.573783">
        <ele>976.0</ele>
        <time>2015-08-02T13:26:12Z</time>
      </trkpt>
      <trkpt lat="40.269683" lon="-4.573633">
        <ele>973.0</ele>
        <time>2015-08-02T13:26:13Z</time>
      </trkpt>
      <trkpt lat="40.269717" lon="-4.573417">
        <ele>970.0</ele>
        <time>2015-08-02T13:26:14Z</time>
      </trkpt>
      <trkpt lat="40.269850" lon="-4.573267">
        <ele>965.0</ele>
        <time>2015-08-02T13:26:15Z</time>
      </trkpt>
      <trkpt lat="40.270017" lon="-4.573250">
        <ele>962.0</ele>
        <time>2015-08-02T13:26:16Z</time>
      </trkpt>
      <trkpt lat="40.270133" lon="-4.573350">
        <ele>959.0</ele>
        <time>2015-08-02T13:26:17Z</time>
      </trkpt>
      <trkpt lat="40.270150" lon="-4.573483">
        <ele>955.0</ele>
        <time>2015-08-02T13:26:18Z</time>
      </trkpt>
      <trkpt lat="40.270083" lon="-4.573550">
        <ele>951.0</ele>
        <time>2015-08-02T13:26:19Z</time>
      </trkpt>
      <trkpt lat="40.269983" lon="-4.573450">
        <ele>945.0</ele>
        <time>2015-08-02T13:26:20Z</time>
      </trkpt>
      <trkpt lat="40.269967" lon="-4.573217">
        <ele>939.0</ele>
        <time>2015-08-02T13:26:21Z</time>
      </trkpt>
      <trkpt lat="40.270083" lon="-4.573017">
        <ele>935.0</ele>
        <time>2015-08-02T13:26:22Z</time>
      </trkpt>
      <trkpt lat="40.270267" lon="-4.572983">
        <ele>930.0</ele>
        <time>2015-08-02T13:26:23Z</time>
      </trkpt>
      <trkpt lat="40.270400" lon="-4.573083">
        <ele>925.0</ele>
        <time>2015-08-02T13:26:24Z</time>
      </trkpt>
      <trkpt lat="40.270433" lon="-4.573233">
        <ele>921.0</ele>
        <time>2015-08-02T13:26:25Z</time>
      </trkpt>
      <trkpt lat="40.270367" lon="-4.573317">
        <ele>918.0</ele>
        <time>2015-08-02T13:26:26Z</time>
      </trkpt>
      <trkpt lat="40.270283" lon="-4.573300">
        <ele>916.0</ele>
        <time>2015-08-02T13:26:27Z</time>
      </trkpt>
      <trkpt lat="40.270250" lon="-4.573217">
        <ele>917.0</ele>
        <time>2015-08-02T13:26:28Z</time>
      </trkpt>
      <trkpt lat="40.270233" lon="-4.573117">
        <ele>918.0</ele>
        <time>2015-08-02T13:26:29Z</time>
      </trkpt>
      <trkpt lat="40.270233" lon="-4.573017">
        <ele>918.0</ele>
        <time>2015-08-02T13:26:30Z</time>
      </trkpt>
      <trkpt lat="40.270233" lon="-4.572933">
        <ele>916.0</ele>
        <time>2015-08-02T13:26:31Z</time>
      </trkpt>
      <trkpt lat="40.270217" lon="-4.572833">
        <ele>914.0</ele>
        <time>2015-08-02T13:26:32Z</time>
      </trkpt>
      <trkpt lat="40.270183" lon="-4.572717">
        <ele>910.0</ele>
        <time>2015-08-02T13:26:33Z</time>
      </trkpt>
      <trkpt lat="40.270167" lon="-4.572583">
        <ele>909.0</ele>
        <time>2015-08-02T13:26:34Z</time>
      </trkpt>
      <trkpt lat="40.270183" lon="-4.572450">
        <ele>908.0</ele>
        <time>2015-08-02T13:26:35Z</time>
      </trkpt>
      <trkpt lat="40.270233" lon="-4.572300">
        <ele>908.0</ele>
        <time>2015-08-02T13:26:36Z</time>
      </trkpt>
      <trkpt lat="40.270317" lon="-4.572167">
        <ele>906.0</ele>
        <time>2015-08-02T13:26:37Z</time>
      </trkpt>
      <trkpt lat="40.270450" lon="-4.572050">
        <ele>902.0</ele>
        <time>2015-08-02T13:26:38Z</time>
      </trkpt>
      <trkpt lat="40.270583" lon="-4.571967">
        <ele>898.0</ele>
        <time>2015-08-02T13:26:39Z</time>
      </trkpt>
      <trkpt lat="40.270717" lon="-4.571950">
        <ele>896.0</ele>
        <time>2015-08-02T13:26:40Z</time>
      </trkpt>
      <trkpt lat="40.270833" lon="-4.571983">
        <ele>894.0</ele>
        <time>2015-08-02T13:26:41Z</time>
      </trkpt>
      <trkpt lat="40.270933" lon="-4.572067">
        <ele>893.0</ele>
        <time>2015-08-02T13:26:42Z</time>
      </trkpt>
      <trkpt lat="40.270983" lon="-4.572133">
        <ele>892.0</ele>
        <time>2015-08-02T13:26:43Z</time>
      </trkpt>
      <trkpt lat="40.271017" lon="-4.572200">
        <ele>892.0</ele>
        <time>2015-08-02T13:26:44Z</time>
      </trkpt>
      <trkpt lat="40.271033" lon="-4.572283">
        <ele>890.0</ele>
        <time>2015-08-02T13:26:45Z</time>
      </trkpt>
      <trkpt lat="40.271017" lon="-4.572350">
        <ele>888.0</ele>
        <time>2015-08-02T13:26:46Z</time>
      </trkpt>
      <trkpt lat="40.270983" lon="-4.572400">
        <ele>884.0</ele>
        <time>2015-08-02T13:26:47Z</time>
      </trkpt>
      <trkpt lat="40.270933" lon="-4.572400">
        <ele>880.0</ele>
        <time>2015-08-02T13:26:48Z</time>
      </trkpt>
      <trkpt lat="40.270850" lon="-4.572317">
        <ele>875.0</ele>
        <time>2015-08-02T13:26:49Z</time>
      </trkpt>
      <trkpt lat="40.270800" lon="-4.572167">
        <ele>872.0</ele>
        <time>2015-08-02T13:26:50Z</time>
      </trkpt>
      <trkpt lat="40.270783" lon="-4.572000">
        <ele>870.0</ele>
        <time>2015-08-02T13:26:51Z</time>
      </trkpt>
      <trkpt lat="40.270783" lon="-4.571867">
        <ele>873.0</ele>
        <time>2015-08-02T13:26:52Z</time>
      </trkpt>
      <trkpt lat="40.270750" lon="-4.571817">
        <ele>875.0</ele>
        <time>2015-08-02T13:26:53Z</time>
      </trkpt>
      <trkpt lat="40.270700" lon="-4.571783">
        <ele>874.0</ele>
        <time>2015-08-02T13:26:54Z</time>
      </trkpt>
      <trkpt lat="40.270650" lon="-4.571850">
        <ele>870.0</ele>
        <time>2015-08-02T13:26:55Z</time>
      </trkpt>
      <trkpt lat="40.270650" lon="-4.571983">
        <ele>866.0</ele>
        <time>2015-08-02T13:26:56Z</time>
      </trkpt>
      <trkpt lat="40.270717" lon="-4.572117">
        <ele>864.0</ele>
        <time>2015-08-02T13:26:57Z</time>
      </trkpt>
      <trkpt lat="40.270867" lon="-4.572200">
        <ele>862.0</ele>
        <time>2015-08-02T13:26:58Z</time>
      </trkpt>
      <trkpt lat="40.271033" lon="-4.572150">
        <ele>859.0</ele>
        <time>2015-08-02T13:26:59Z</time>
      </trkpt>
      <trkpt lat="40.271167" lon="-4.572000">
        <ele>857.0</ele>
        <time>2015-08-02T13:27:00Z</time>
      </trkpt>
      <trkpt lat="40.271183" lon="-4.571800">
        <ele>856.0</ele>
        <time>2015-08-02T13:27:01Z</time>
      </trkpt>
      <trkpt lat="40.271117" lon="-4.571667">
        <ele>856.0</ele>
        <time>2015-08-02T13:27:02Z</time>
      </trkpt>
      <trkpt lat="40.271033" lon="-4.571650">
        <ele>854.0</ele>
        <time>2015-08-02T13:27:03Z</time>
      </trkpt>
      <trkpt lat="40.270967" lon="-4.571750">
        <ele>852.0</ele>
        <time>2015-08-02T13:27:04Z</time>
      </trkpt>
      <trkpt lat="40.270983" lon="-4.571883">
        <ele>851.0</ele>
        <time>2015-08-02T13:27:05Z</time>
      </trkpt>
      <trkpt lat="40.271050" lon="-4.572033">
        <ele>851.0</ele>
        <time>2015-08-02T13:27:06Z</time>
      </trkpt>
      <trkpt lat="40.271150" lon="-4.572117">
        <ele>852.0</ele>
        <time>2015-08-02T13:27:07Z</time>
      </trkpt>
      <trkpt lat="40.271283" lon="-4.572150">
        <ele>854.0</ele>
        <time>2015-08-02T13:27:08Z</time>
      </trkpt>
      <trkpt lat="40.271433" lon="-4.572133">
        <ele>854.0</ele>
        <time>2015-08-02T13:27:09Z</time>
      </trkpt>
      <trkpt lat="40.271550" lon="-4.572083">
        <ele>855.0</ele>
        <time>2015-08-02T13:27:10Z</time>
      </trkpt>
      <trkpt lat="40.271667" lon="-4.572017">
        <ele>856.0</ele>
        <time>2015-08-02T13:27:11Z</time>
      </trkpt>
      <trkpt lat="40.271750" lon="-4.571917">
        <ele>858.0</ele>
        <time>2015-08-02T13:27:12Z</time>
      </trkpt>
      <trkpt lat="40.271800" lon="-4.571783">
        <ele>858.0</ele>
        <time>2015-08-02T13:27:13Z</time>
      </trkpt>
      <trkpt lat="40.271833" lon="-4.571633">
        <ele>857.0</ele>
        <time>2015-08-02T13:27:14Z</time>
      </trkpt>
      <trkpt lat="40.271817" lon="-4.571467">
        <ele>854.0</ele>
        <time>2015-08-02T13:27:15Z</time>
      </trkpt>
      <trkpt lat="40.271767" lon="-4.571333">
        <ele>851.0</ele>
        <time>2015-08-02T13:27:16Z</time>
      </trkpt>
      <trkpt lat="40.271683" lon="-4.571250">
        <ele>850.0</ele>
        <time>2015-08-02T13:27:17Z</time>
      </trkpt>
      <trkpt lat="40.271633" lon="-4.571200">
        <ele>852.0</ele>
        <time>2015-08-02T13:27:18Z</time>
      </trkpt>
      <trkpt lat="40.271600" lon="-4.571150">
        <ele>855.0</ele>
        <time>2015-08-02T13:27:19Z</time>
      </trkpt>
      <trkpt lat="40.271600" lon="-4.571117">
        <ele>857.0</ele>
        <time>2015-08-02T13:27:20Z</time>
      </trkpt>
      <trkpt lat="40.271583" lon="-4.571083">
        <ele>858.0</ele>
        <time>2015-08-02T13:27:21Z</time>
      </trkpt>
      <trkpt lat="40.271550" lon="-4.571067">
        <ele>858.0</ele>
        <time>2015-08-02T13:27:22Z</time>
      </trkpt>
      <trkpt lat="40.271483" lon="-4.571067">
        <ele>857.0</ele>
        <time>2015-08-02T13:27:23Z</time>
      </trkpt>
      <trkpt lat="40.271400" lon="-4.571067">
        <ele>855.0</ele>
        <time>2015-08-02T13:27:24Z</time>
      </trkpt>
      <trkpt lat="40.271350" lon="-4.571083">
        <ele>856.0</ele>
        <time>2015-08-02T13:27:25Z</time>
      </trkpt>
      <trkpt lat="40.271300" lon="-4.571067">
        <ele>858.0</ele>
        <time>2015-08-02T13:27:26Z</time>
      </trkpt>
      <trkpt lat="40.271267" lon="-4.571067">
        <ele>860.0</ele>
        <time>2015-08-02T13:27:27Z</time>
      </trkpt>
      <trkpt lat="40.271217" lon="-4.571050">
        <ele>860.0</ele>
        <time>2015-08-02T13:27:28Z</time>
      </trkpt>
      <trkpt lat="40.271167" lon="-4.571067">
        <ele>858.0</ele>
        <time>2015-08-02T13:27:29Z</time>
      </trkpt>
      <trkpt lat="40.271100" lon="-4.571100">
        <ele>855.0</ele>
        <time>2015-08-02T13:27:30Z</time>
      </trkpt>
      <trkpt lat="40.271017" lon="-4.571167">
        <ele>852.0</ele>
        <time>2015-08-02T13:27:31Z</time>
      </trkpt>
      <trkpt lat="40.270967" lon="-4.571217">
        <ele>852.0</ele>
        <time>2015-08-02T13:27:32Z</time>
      </trkpt>
      <trkpt lat="40.270933" lon="-4.571250">
        <ele>855.0</ele>
        <time>2015-08-02T13:27:33Z</time>
      </trkpt>
      <trkpt lat="40.270900" lon="-4.571300">
        <ele>856.0</ele>
        <time>2015-08-02T13:27:34Z</time>
      </trkpt>
      <trkpt lat="40.270867" lon="-4.571333">
        <ele>857.0</ele>
        <time>2015-08-02T13:27:35Z</time>
      </trkpt>
      <trkpt lat="40.270817" lon="-4.571367">
        <ele>856.0</ele>
        <time>2015-08-02T13:27:36Z</time>
      </trkpt>
      <trkpt lat="40.270750" lon="-4.571417">
        <ele>855.0</ele>
        <time>2015-08-02T13:27:37Z</time>
      </trkpt>
      <trkpt lat="40.270700" lon="-4.571483">
        <ele>855.0</ele>
        <time>2015-08-02T13:27:38Z</time>
      </trkpt>
      <trkpt lat="40.270667" lon="-4.571567">
        <ele>856.0</ele>
        <time>2015-08-02T13:27:39Z</time>
      </trkpt>
      <trkpt lat="40.270633" lon="-4.571650">
        <ele>856.0</ele>
        <time>2015-08-02T13:27:40Z</time>
      </trkpt>
      <trkpt lat="40.270600" lon="-4.571717">
        <ele>856.0</ele>
        <time>2015-08-02T13:27:41Z</time>
      </trkpt>
      <trkpt lat="40.270550" lon="-4.571800">
        <ele>856.0</ele>
        <time>2015-08-02T13:27:42Z</time>
      </trkpt>
      <trkpt lat="40.270483" lon="-4.571900">
        <ele>855.0</ele>
        <time>2015-08-02T13:27:43Z</time>
      </trkpt>
      <trkpt lat="40.270417" lon="-4.572000">
        <ele>854.0</ele>
        <time>2015-08-02T13:27:44Z</time>
      </trkpt>
      <trkpt lat="40.270383" lon="-4.572117">
        <ele>854.0</ele>
        <time>2015-08-02T13:27:45Z</time>
      </trkpt>
      <trkpt lat="40.270333" lon="-4.572200">
        <ele>854.0</ele>
        <time>2015-08-02T13:27:46Z</time>
      </trkpt>
      <trkpt lat="40.270300" lon="-4.572283">
        <ele>854.0</ele>
        <time>2015-08-02T13:27:47Z</time>
      </trkpt>
      <trkpt lat="40.270250" lon="-4.572367">
        <ele>852.0</ele>
        <time>2015-08-02T13:27:48Z</time>
      </trkpt>
      <trkpt lat="40.270200" lon="-4.572433">
        <ele>850.0</ele>
        <time>2015-08-02T13:27:49Z</time>
      </trkpt>
      <trkpt lat="40.270150" lon="-4.572500">
        <ele>847.0</ele>
        <time>2015-08-02T13:27:50Z</time>
      </trkpt>
      <trkpt lat="40.270100" lon="-4.572583">
        <ele>843.0</ele>
        <time>2015-08-02T13:27:51Z</time>
      </trkpt>
      <trkpt lat="40.270067" lon="-4.572667">
        <ele>840.0</ele>
        <time>2015-08-02T13:27:52Z</time>
      </trkpt>
      <trkpt lat="40.270017" lon="-4.572750">
        <ele>837.0</ele>
        <time>2015-08-02T13:27:53Z</time>
      </trkpt>
      <trkpt lat="40.269967" lon="-4.572800">
        <ele>834.0</ele>
        <time>2015-08-02T13:27:54Z</time>
      </trkpt>
      <trkpt lat="40.269917" lon="-4.572850">
        <ele>830.0</ele>
        <time>2015-08-02T13:27:55Z</time>
      </trkpt>
      <trkpt lat="40.269850" lon="-4.572867">
        <ele>825.0</ele>
        <time>2015-08-02T13:27:56Z</time>
      </trkpt>
      <trkpt lat="40.269800" lon="-4.572917">
        <ele>819.0</ele>
        <time>2015-08-02T13:27:57Z</time>
      </trkpt>
      <trkpt lat="40.269750" lon="-4.572983">
        <ele>814.0</ele>
        <time>2015-08-02T13:27:58Z</time>
      </trkpt>
      <trkpt lat="40.269717" lon="-4.573050">
        <ele>809.0</ele>
        <time>2015-08-02T13:27:59Z</time>
      </trkpt>
      <trkpt lat="40.269667" lon="-4.573100">
        <ele>804.0</ele>
        <time>2015-08-02T13:28:00Z</time>
      </trkpt>
      <trkpt lat="40.269617" lon="-4.573117">
        <ele>800.0</ele>
        <time>2015-08-02T13:28:01Z</time>
      </trkpt>
      <trkpt lat="40.269567" lon="-4.573100">
        <ele>795.0</ele>
        <time>2015-08-02T13:28:02Z</time>
      </trkpt>
      <trkpt lat="40.269517" lon="-4.573083">
        <ele>791.0</ele>
        <time>2015-08-02T13:28:03Z</time>
      </trkpt>
      <trkpt lat="40.269467" lon="-4.573017">
        <ele>787.0</ele>
        <time>2015-08-02T13:28:04Z</time>
      </trkpt>
      <trkpt lat="40.269417" lon="-4.572917">
        <ele>783.0</ele>
        <time>2015-08-02T13:28:05Z</time>
      </trkpt>
      <trkpt lat="40.269383" lon="-4.572767">
        <ele>779.0</ele>
        <time>2015-08-02T13:28:06Z</time>
      </trkpt>
      <trkpt lat="40.269383" lon="-4.572583">
        <ele>775.0</ele>
        <time>2015-08-02T13:28:07Z</time>
      </trkpt>
      <trkpt lat="40.269383" lon="-4.572433">
        <ele>774.0</ele>
        <time>2015-08-02T13:28:08Z</time>
      </trkpt>
      <trkpt lat="40.269383" lon="-4.572300">
        <ele>775.0</ele>
        <time>2015-08-02T13:28:09Z</time>
      </trkpt>
      <trkpt lat="40.269383" lon="-4.572200">
        <ele>777.0</ele>
        <time>2015-08-02T13:28:10Z</time>
      </trkpt>
      <trkpt lat="40.269417" lon="-4.572083">
        <ele>777.0</ele>
        <time>2015-08-02T13:28:11Z</time>
      </trkpt>
      <trkpt lat="40.269450" lon="-4.571950">
        <ele>774.0</ele>
        <time>2015-08-02T13:28:12Z</time>
      </trkpt>
      <trkpt lat="40.269517" lon="-4.571783">
        <ele>770.0</ele>
        <time>2015-08-02T13:28:13Z</time>
      </trkpt>
      <trkpt lat="40.269567" lon="-4.571617">
        <ele>766.0</ele>
        <time>2015-08-02T13:28:14Z</time>
      </trkpt>
      <trkpt lat="40.269617" lon="-4.571450">
        <ele>765.0</ele>
        <time>2015-08-02T13:28:15Z</time>
      </trkpt>
      <trkpt lat="40.269667" lon="-4.571317">
        <ele>765.0</ele>
        <time>2015-08-02T13:28:16Z</time>
      </trkpt>
      <trkpt lat="40.269717" lon="-4.571200">
        <ele>765.0</ele>
        <time>2015-08-02T13:28:17Z</time>
      </trkpt>
      <trkpt lat="40.269800" lon="-4.571100">
        <ele>762.0</ele>
        <time>2015-08-02T13:28:18Z</time>
      </trkpt>
      <trkpt lat="40.269883" lon="-4.570967">
        <ele>758.0</ele>
        <time>2015-08-02T13:28:19Z</time>
      </trkpt>
      <trkpt lat="40.270000" lon="-4.570833">
        <ele>753.0</ele>
        <time>2015-08-02T13:28:20Z</time>
      </trkpt>
      <trkpt lat="40.270100" lon="-4.570700">
        <ele>749.0</ele>
        <time>2015-08-02T13:28:21Z</time>
      </trkpt>
      <trkpt lat="40.270200" lon="-4.570600">
        <ele>745.0</ele>
        <time>2015-08-02T13:28:22Z</time>
      </trkpt>
      <trkpt lat="40.270317" lon="-4.570517">
        <ele>742.0</ele>
        <time>2015-08-02T13:28:23Z</time>
      </trkpt>
      <trkpt lat="40.270450" lon="-4.570467">
        <ele>738.0</ele>
        <time>2015-08-02T13:28:24Z</time>
      </trkpt>
      <trkpt lat="40.270567" lon="-4.570417">
        <ele>735.0</ele>
        <time>2015-08-02T13:28:25Z</time>
      </trkpt>
      <trkpt lat="40.270683" lon="-4.570383">
        <ele>732.0</ele>
        <time>2015-08-02T13:28:26Z</time>
      </trkpt>
      <trkpt lat="40.270800" lon="-4.570367">
        <ele>728.0</ele>
        <time>2015-08-02T13:28:27Z</time>
      </trkpt>
      <trkpt lat="40.270917" lon="-4.570400">
        <ele>724.0</ele>
        <time>2015-08-02T13:28:28Z</time>
      </trkpt>
      <trkpt lat="40.271050" lon="-4.570450">
        <ele>719.0</ele>
        <time>2015-08-02T13:28:29Z</time>
      </trkpt>
      <trkpt lat="40.271167" lon="-4.570517">
        <ele>716.0</ele>
        <time>2015-08-02T13:28:30Z</time>
      </trkpt>
      <trkpt lat="40.271267" lon="-4.570583">
        <ele>714.0</ele>
        <time>2015-08-02T13:28:31Z</time>
      </trkpt>
      <trkpt lat="40.271350" lon="-4.570667">
        <ele>712.0</ele>
        <time>2015-08-02T13:28:32Z</time>
      </trkpt>
      <trkpt lat="40.271400" lon="-4.570767">
        <ele>710.0</ele>
        <time>2015-08-02T13:28:33Z</time>
      </trkpt>
      <trkpt lat="40.271450" lon="-4.570867">
        <ele>708.0</ele>
        <time>2015-08-02T13:28:34Z</time>
      </trkpt>
      <trkpt lat="40.271483" lon="-4.570967">
        <ele>706.0</ele>
        <time>2015-08-02T13:28:35Z</time>
      </trkpt>
      <trkpt lat="40.271500" lon="-4.571050">
        <ele>705.0</ele>
        <time>2015-08-02T13:28:36Z</time>
      </trkpt>
      <trkpt lat="40.271533" lon="-4.571117">
        <ele>705.0</ele>
        <time>2015-08-02T13:28:37Z</time>
      </trkpt>
      <trkpt lat="40.271550" lon="-4.571183">
        <ele>704.0</ele>
        <time>2015-08-02T13:28:38Z</time>
      </trkpt>
      <trkpt lat="40.271567" lon="-4.571250">
        <ele>702.0</ele>
        <time>2015-08-02T13:28:39Z</time>
      </trkpt>
      <trkpt lat="40.271567" lon="-4.571333">
        <ele>699.0</ele>
        <time>2015-08-02T13:28:40Z</time>
      </trkpt>
      <trkpt lat="40.271567" lon="-4.571400">
        <ele>696.0</ele>
        <time>2015-08-02T13:28:41Z</time>
      </trkpt>
      <trkpt lat="40.271550" lon="-4.571467">
        <ele>693.0</ele>
        <time>2015-08-02T13:28:42Z</time>
      </trkpt>
      <trkpt lat="40.271533" lon="-4.571533">
        <ele>691.0</ele>
        <time>2015-08-02T13:28:43Z</time>
      </trkpt>
      <trkpt lat="40.271517" lon="-4.571567">
        <ele>689.0</ele>
        <time>2015-08-02T13:28:44Z</time>
      </trkpt>
      <trkpt lat="40.271483" lon="-4.571617">
        <ele>687.0</ele>
        <time>2015-08-02T13:28:45Z</time>
      </trkpt>
      <trkpt lat="40.271433" lon="-4.571650">
        <ele>684.0</ele>
        <time>2015-08-02T13:28:46Z</time>
      </trkpt>
      <trkpt lat="40.271400" lon="-4.571700">
        <ele>681.0</ele>
        <time>2015-08-02T13:28:47Z</time>
      </trkpt>
      <trkpt lat="40.271350" lon="-4.571750">
        <ele>677.0</ele>
        <time>2015-08-02T13:28:48Z</time>
      </trkpt>
      <trkpt lat="40.271317" lon="-4.571817">
        <ele>675.0</ele>
        <time>2015-08-02T13:28:49Z</time>
      </trkpt>
      <trkpt lat="40.271267" lon="-4.571867">
        <ele>673.0</ele>
        <time>2015-08-02T13:28:50Z</time>
      </trkpt>
      <trkpt lat="40.271217" lon="-4.571917">
        <ele>671.0</ele>
        <time>2015-08-02T13:28:51Z</time>
      </trkpt>
      <trkpt lat="40.271150" lon="-4.571950">
        <ele>669.0</ele>
        <time>2015-08-02T13:28:52Z</time>
      </trkpt>
      <trkpt lat="40.271083" lon="-4.571983">
        <ele>667.0</ele>
        <time>2015-08-02T13:28:53Z</time>
      </trkpt>
      <trkpt lat="40.271017" lon="-4.572000">
        <ele>665.0</ele>
        <time>2015-08-02T13:28:54Z</time>
      </trkpt>
      <trkpt lat="40.270950" lon="-4.572033">
        <ele>663.0</ele>
        <time>2015-08-02T13:28:55Z</time>
      </trkpt>
      <trkpt lat="40.270900" lon="-4.572033">
        <ele>662.0</ele>
        <time>2015-08-02T13:28:56Z</time>
      </trkpt>
      <trkpt lat="40.270833" lon="-4.572050">
        <ele>661.0</ele>
        <time>2015-08-02T13:28:57Z</time>
      </trkpt>
      <trkpt lat="40.270767" lon="-4.572050">
        <ele>658.0</ele>
        <time>2015-08-02T13:28:58Z</time>
      </trkpt>
      <trkpt lat="40.270683" lon="-4.572067">
        <ele>655.0</ele>
        <time>2015-08-02T13:28:59Z</time>
      </trkpt>
      <trkpt lat="40.270617" lon="-4.572083">
        <ele>654.0</ele>
        <time>2015-08-02T13:29:00Z</time>
      </trkpt>
      <trkpt lat="40.270567" lon="-4.572117">
        <ele>654.0</ele>
        <time>2015-08-02T13:29:01Z</time>
      </trkpt>
      <trkpt lat="40.270533" lon="-4.572133">
        <ele>655.0</ele>
        <time>2015-08-02T13:29:02Z</time>
      </trkpt>
      <trkpt lat="40.270500" lon="-4.572167">
        <ele>654.0</ele>
        <time>2015-08-02T13:29:03Z</time>
      </trkpt>
      <trkpt lat="40.270483" lon="-4.572183">
        <ele>654.0</ele>
        <time>2015-08-02T13:29:04Z</time>
      </trkpt>
      <trkpt lat="40.270467" lon="-4.572217">
        <ele>654.0</ele>
        <time>2015-08-02T13:29:05Z</time>
      </trkpt>
      <trkpt lat="40.270450" lon="-4.572233">
        <ele>654.0</ele>
        <time>2015-08-02T13:29:06Z</time>
      </trkpt>
      <trkpt lat="40.270433" lon="-4.572250">
        <ele>654.0</ele>
        <time>2015-08-02T13:29:07Z</time>
      </trkpt>
      <trkpt lat="40.270417" lon="-4.572283">
        <ele>653.0</ele>
        <time>2015-08-02T13:29:08Z</time>
      </trkpt>
      <trkpt lat="40.270417" lon="-4.572300">
        <ele>653.0</ele>
        <time>2015-08-02T13:29:09Z</time>
      </trkpt>
      <trkpt lat="40.270400" lon="-4.572333">
        <ele>654.0</ele>
        <time>2015-08-02T13:29:10Z</time>
      </trkpt>
      <trkpt lat="40.270383" lon="-4.572367">
        <ele>654.0</ele>
        <time>2015-08-02T13:29:11Z</time>
      </trkpt>
      <trkpt lat="40.270367" lon="-4.572383">
        <ele>653.0</ele>
        <time>2015-08-02T13:29:12Z</time>
      </trkpt>
      <trkpt lat="40.270367" lon="-4.572383">
        <ele>653.0</ele>
        <time>2015-08-02T13:29:13Z</time>
      </trkpt>
      <trkpt lat="40.270350" lon="-4.572400">
        <ele>652.0</ele>
        <time>2015-08-02T13:29:14Z</time>
      </trkpt>
      <trkpt lat="40.270350" lon="-4.572400">
        <ele>653.0</ele>
        <time>2015-08-02T13:29:15Z</time>
      </trkpt>
      <trkpt lat="40.270350" lon="-4.572417">
        <ele>652.0</ele>
        <time>2015-08-02T13:29:16Z</time>
      </trkpt>
      <trkpt lat="40.270350" lon="-4.572433">
        <ele>652.0</ele>
        <time>2015-08-02T13:29:17Z</time>
      </trkpt>
      <trkpt lat="40.270350" lon="-4.572433">
        <ele>651.0</ele>
        <time>2015-08-02T13:29:18Z</time>
      </trkpt>
      <trkpt lat="40.270333" lon="-4.572433">
        <ele>651.0</ele>
        <time>2015-08-02T13:29:19Z</time>
      </trkpt>
      <trkpt lat="40.270333" lon="-4.572417">
        <ele>651.0</ele>
        <time>2015-08-02T13:29:20Z</time>
      </trkpt>
      <trkpt lat="40.270333" lon="-4.572400">
        <ele>651.0</ele>
        <time>2015-08-02T13:29:21Z</time>
      </trkpt>
      <trkpt lat="40.270333" lon="-4.572400">
        <ele>651.0</ele>
        <time>2015-08-02T13:29:22Z</time>
      </trkpt>
      <trkpt lat="40.270333" lon="-4.572383">
        <ele>651.0</ele>
        <time>2015-08-02T13:29:23Z</time>
      </trkpt>
      <trkpt lat="40.270333" lon="-4.572383">
        <ele>651.0</ele>
        <time>2015-08-02T13:29:24Z</time>
      </trkpt>
      <trkpt lat="40.270333" lon="-4.572383">
        <ele>651.0</ele>
        <time>2015-08-02T13:29:25Z</time>
      </trkpt>
      <trkpt lat="40.270333" lon="-4.572367">
        <ele>651.0</ele>
        <time>2015-08-02T13:29:26Z</time>
      </trkpt>
      <trkpt lat="40.270333" lon="-4.572367">
        <ele>651.0</ele>
        <time>2015-08-02T13:29:27Z</time>
      </trkpt>
      <trkpt lat="40.270333" lon="-4.572367">
        <ele>652.0</ele>
        <time>2015-08-02T13:29:28Z</time>
      </trkpt>
      <trkpt lat="40.270333" lon="-4.572367">
        <ele>652.0</ele>
        <time>2015-08-02T13:29:29Z</time>
      </trkpt>
      <trkpt lat="40.270333" lon="-4.572367">
        <ele>652.0</ele>
        <time>2015-08-02T13:29:30Z</time>
      </trkpt>
      <trkpt lat="40.270333" lon="-4.572367">
        <ele>652.0</ele>
        <time>2015-08-02T13:29:31Z</time>
      </trkpt>
      <trkpt lat="40.270333" lon="-4.572367">
        <ele>652.0</ele>
        <time>2015-08-02T13:29:32Z</time>
      </trkpt>
      <trkpt lat="40.270333" lon="-4.572367">
        <ele>652.0</ele>
        <time>2015-08-02T13:29:33Z</time>
      </trkpt>
      <trkpt lat="40.270333" lon="-4.572367">
        <ele>652.0</ele>
        <time>2015-08-02T13:29:34Z</time>
      </trkpt>
      <trkpt lat="40.270333" lon="-4.572367">
        <ele>652.0</ele>
        <time>2015-08-02T13:29:35Z</time>
      </trkpt>
      <trkpt lat="40.270333" lon="-4.572367">
        <ele>652.0</ele>
        <time>2015-08-02T13:29:36Z</time>
      </trkpt>
      <trkpt lat="40.270333" lon="-4.572367">
        <ele>652.0</ele>
        <time>2015-08-02T13:29:37Z</time>
      </trkpt>
      <trkpt lat="40.270333" lon="-4.572367">
        <ele>652.0</ele>
        <time>2015-08-02T13:29:38Z</time>
      </trkpt>
      <trkpt lat="40.270333" lon="-4.572367">
        <ele>652.0</ele>
        <time>2015-08-02T13:29:39Z</time>
      </trkpt>
      <trkpt lat="40.270333" lon="-4.572367">
        <ele>651.0</ele>
        <time>2015-08-02T13:29:40Z</time>
      </trkpt>
      <trkpt lat="40.270333" lon="-4.572367">
        <ele>652.0</ele>
        <time>2015-08-02T13:29:41Z</time>
      </trkpt>
      <trkpt lat="40.270333" lon="-4.572367">
        <ele>652.0</ele>
        <time>2015-08-02T13:29:42Z</time>
      </trkpt>
      <trkpt lat="40.270333" lon="-4.572367">
        <ele>652.0</ele>
        <time>2015-08-02T13:29:43Z</time>
      </trkpt>
      <trkpt lat="40.270350" lon="-4.572367">
        <ele>652.0</ele>
        <time>2015-08-02T13:29:44Z</time>
      </trkpt>
      <trkpt lat="40.270350" lon="-4.572367">
        <ele>651.0</ele>
        <time>2015-08-02T13:29:45Z</time>
      </trkpt>
      <trkpt lat="40.270350" lon="-4.572350">
        <ele>651.0</ele>
        <time>2015-08-02T13:29:46Z</time>
      </trkpt>
      <trkpt lat="40.270367" lon="-4.572350">
        <ele>650.0</ele>
        <time>2015-08-02T13:29:47Z</time>
      </trkpt>
      <trkpt lat="40.270367" lon="-4.572350">
        <ele>650.0</ele>
        <time>2015-08-02T13:29:48Z</time>
      </trkpt>
      <trkpt lat="40.270383" lon="-4.572350">
        <ele>650.0</ele>
        <time>2015-08-02T13:29:49Z</time>
      </trkpt>
      <trkpt lat="40.270383" lon="-4.572350">
        <ele>650.0</ele>
        <time>2015-08-02T13:29:50Z</time>
      </trkpt>
      <trkpt lat="40.270383" lon="-4.572350">
        <ele>650.0</ele>
        <time>2015-08-02T13:29:51Z</time>
      </trkpt>
      <trkpt lat="40.270383" lon="-4.572333">
        <ele>650.0</ele>
        <time>2015-08-02T13:29:52Z</time>
      </trkpt>
      <trkpt lat="40.270400" lon="-4.572333">
        <ele>650.0</ele>
        <time>2015-08-02T13:29:53Z</time>
      </trkpt>
      <trkpt lat="40.270400" lon="-4.572333">
        <ele>650.0</ele>
        <time>2015-08-02T13:29:54Z</time>
      </trkpt>
      <trkpt lat="40.270400" lon="-4.572333">
        <ele>651.0</ele>
        <time>2015-08-02T13:29:55Z</time>
      </trkpt>
      <trkpt lat="40.270400" lon="-4.572317">
        <ele>651.0</ele>
        <time>2015-08-02T13:29:56Z</time>
      </trkpt>
      <trkpt lat="40.270400" lon="-4.572317">
        <ele>651.0</ele>
        <time>2015-08-02T13:29:57Z</time>
      </trkpt>
      <trkpt lat="40.270400" lon="-4.572317">
        <ele>652.0</ele>
        <time>2015-08-02T13:29:58Z</time>
      </trkpt>
      <trkpt lat="40.270400" lon="-4.572300">
        <ele>652.0</ele>
        <time>2015-08-02T13:29:59Z</time>
      </trkpt>
      <trkpt lat="40.270400" lon="-4.572317">
        <ele>653.0</ele>
        <time>2015-08-02T13:30:00Z</time>
      </trkpt>
      <trkpt lat="40.270400" lon="-4.572317">
        <ele>653.0</ele>
        <time>2015-08-02T13:30:01Z</time>
      </trkpt>
      <trkpt lat="40.270400" lon="-4.572317">
        <ele>652.0</ele>
        <time>2015-08-02T13:30:02Z</time>
      </trkpt>
      <trkpt lat="40.270400" lon="-4.572317">
        <ele>652.0</ele>
        <time>2015-08-02T13:30:03Z</time>
      </trkpt>
      <trkpt lat="40.270400" lon="-4.572317">
        <ele>652.0</ele>
        <time>2015-08-02T13:30:04Z</time>
      </trkpt>
      <trkpt lat="40.270400" lon="-4.572317">
        <ele>652.0</ele>
        <time>2015-08-02T13:30:05Z</time>
      </trkpt>
      <trkpt lat="40.270400" lon="-4.572317">
        <ele>652.0</ele>
        <time>2015-08-02T13:30:06Z</time>
      </trkpt>
      <trkpt lat="40.270400" lon="-4.572317">
        <ele>652.0</ele>
        <time>2015-08-02T13:30:07Z</time>
      </trkpt>
      <trkpt lat="40.270400" lon="-4.572317">
        <ele>652.0</ele>
        <time>2015-08-02T13:30:08Z</time>
      </trkpt>
      <trkpt lat="40.270400" lon="-4.572317">
        <ele>652.0</ele>
        <time>2015-08-02T13:30:09Z</time>
      </trkpt>
      <trkpt lat="40.270400" lon="-4.572317">
        <ele>652.0</ele>
        <time>2015-08-02T13:30:10Z</time>
      </trkpt>
      <trkpt lat="40.270400" lon="-4.572317">
        <ele>652.0</ele>
        <time>2015-08-02T13:30:11Z</time>
      </trkpt>
      <trkpt lat="40.270400" lon="-4.572317">
        <ele>652.0</ele>
        <time>2015-08-02T13:30:12Z</time>
      </trkpt>
      <trkpt lat="40.270400" lon="-4.572317">
        <ele>653.0</ele>
        <time>2015-08-02T13:30:13Z</time>
      </trkpt>
      <trkpt lat="40.270383" lon="-4.572333">
        <ele>653.0</ele>
        <time>2015-08-02T13:30:14Z</time>
      </trkpt>
      <trkpt lat="40.270383" lon="-4.572350">
        <ele>652.0</ele>
        <time>2015-08-02T13:30:15Z</time>
      </trkpt>
      <trkpt lat="40.270383" lon="-4.572367">
        <ele>651.0</ele>
        <time>2015-08-02T13:30:16Z</time>
      </trkpt>
      <trkpt lat="40.270367" lon="-4.572383">
        <ele>650.0</ele>
        <time>2015-08-02T13:30:17Z</time>
      </trkpt>
      <trkpt lat="40.270367" lon="-4.572400">
        <ele>650.0</ele>
        <time>2015-08-02T13:30:18Z</time>
      </trkpt>
      <trkpt lat="40.270367" lon="-4.572417">
        <ele>650.0</ele>
        <time>2015-08-02T13:30:19Z</time>
      </trkpt>
      <trkpt lat="40.270367" lon="-4.572433">
        <ele>650.0</ele>
        <time>2015-08-02T13:30:20Z</time>
      </trkpt>
      <trkpt lat="40.270367" lon="-4.572467">
        <ele>650.0</ele>
        <time>2015-08-02T13:30:21Z</time>
      </trkpt>
      <trkpt lat="40.270350" lon="-4.572483">
        <ele>651.0</ele>
        <time>2015-08-02T13:30:22Z</time>
      </trkpt>
      <trkpt lat="40.270350" lon="-4.572483">
        <ele>650.0</ele>
        <time>2015-08-02T13:30:23Z</time>
      </trkpt>
      <trkpt lat="40.270350" lon="-4.572500">
        <ele>651.0</ele>
        <time>2015-08-02T13:30:24Z</time>
      </trkpt>
      <trkpt lat="40.270350" lon="-4.572517">
        <ele>651.0</ele>
        <time>2015-08-02T13:30:25Z</time>
      </trkpt>
      <trkpt lat="40.270350" lon="-4.572533">
        <ele>652.0</ele>
        <time>2015-08-02T13:30:26Z</time>
      </trkpt>
      <trkpt lat="40.270350" lon="-4.572533">
        <ele>651.0</ele>
        <time>2015-08-02T13:30:27Z</time>
      </trkpt>
      <trkpt lat="40.270367" lon="-4.572550">
        <ele>651.0</ele>
        <time>2015-08-02T13:30:28Z</time>
      </trkpt>
      <trkpt lat="40.270367" lon="-4.572567">
        <ele>651.0</ele>
        <time>2015-08-02T13:30:29Z</time>
      </trkpt>
      <trkpt lat="40.270367" lon="-4.572567">
        <ele>650.0</ele>
        <time>2015-08-02T13:30:30Z</time>
      </trkpt>
      <trkpt lat="40.270350" lon="-4.572583">
        <ele>650.0</ele>
        <time>2015-08-02T13:30:31Z</time>
      </trkpt>
      <trkpt lat="40.270350" lon="-4.572600">
        <ele>650.0</ele>
        <time>2015-08-02T13:30:32Z</time>
      </trkpt>
      <trkpt lat="40.270367" lon="-4.572600">
        <ele>650.0</ele>
        <time>2015-08-02T13:30:33Z</time>
      </trkpt>
      <trkpt lat="40.270367" lon="-4.572617">
        <ele>650.0</ele>
        <time>2015-08-02T13:30:34Z</time>
      </trkpt>
      <trkpt lat="40.270367" lon="-4.572633">
        <ele>650.0</ele>
        <time>2015-08-02T13:30:35Z</time>
      </trkpt>
      <trkpt lat="40.270367" lon="-4.572633">
        <ele>650.0</ele>
        <time>2015-08-02T13:30:36Z</time>
      </trkpt>
      <trkpt lat="40.270367" lon="-4.572650">
        <ele>650.0</ele>
        <time>2015-08-02T13:30:37Z</time>
      </trkpt>
      <trkpt lat="40.270367" lon="-4.572667">
        <ele>650.0</ele>
        <time>2015-08-02T13:30:38Z</time>
      </trkpt>
      <trkpt lat="40.270367" lon="-4.572683">
        <ele>650.0</ele>
        <time>2015-08-02T13:30:39Z</time>
      </trkpt>
      <trkpt lat="40.270367" lon="-4.572700">
        <ele>650.0</ele>
        <time>2015-08-02T13:30:40Z</time>
      </trkpt>
      <trkpt lat="40.270367" lon="-4.572700">
        <ele>649.0</ele>
        <time>2015-08-02T13:30:41Z</time>
      </trkpt>
      <trkpt lat="40.270367" lon="-4.572717">
        <ele>649.0</ele>
        <time>2015-08-02T13:30:42Z</time>
      </trkpt>
      <trkpt lat="40.270367" lon="-4.572733">
        <ele>648.0</ele>
        <time>2015-08-02T13:30:43Z</time>
      </trkpt>
      <trkpt lat="40.270350" lon="-4.572733">
        <ele>648.0</ele>
        <time>2015-08-02T13:30:44Z</time>
      </trkpt>
      <trkpt lat="40.270350" lon="-4.572750">
        <ele>647.0</ele>
        <time>2015-08-02T13:30:45Z</time>
      </trkpt>
      <trkpt lat="40.270333" lon="-4.572767">
        <ele>648.0</ele>
        <time>2015-08-02T13:30:46Z</time>
      </trkpt>
      <trkpt lat="40.270333" lon="-4.572783">
        <ele>648.0</ele>
        <time>2015-08-02T13:30:47Z</time>
      </trkpt>
      <trkpt lat="40.270333" lon="-4.572783">
        <ele>648.0</ele>
        <time>2015-08-02T13:30:48Z</time>
      </trkpt>
      <trkpt lat="40.270333" lon="-4.572800">
        <ele>648.0</ele>
        <time>2015-08-02T13:30:49Z</time>
      </trkpt>
      <trkpt lat="40.270333" lon="-4.572817">
        <ele>648.0</ele>
        <time>2015-08-02T13:30:50Z</time>
      </trkpt>
      <trkpt lat="40.270317" lon="-4.572833">
        <ele>648.0</ele>
        <time>2015-08-02T13:30:51Z</time>
      </trkpt>
      <trkpt lat="40.270317" lon="-4.572833">
        <ele>648.0</ele>
        <time>2015-08-02T13:30:52Z</time>
      </trkpt>
      <trkpt lat="40.270317" lon="-4.572850">
        <ele>647.0</ele>
        <time>2015-08-02T13:30:53Z</time>
      </trkpt>
      <trkpt lat="40.270317" lon="-4.572867">
        <ele>648.0</ele>
        <time>2015-08-02T13:30:54Z</time>
      </trkpt>
      <trkpt lat="40.270317" lon="-4.572867">
        <ele>648.0</ele>
        <time>2015-08-02T13:30:55Z</time>
      </trkpt>
      <trkpt lat="40.270317" lon="-4.572867">
        <ele>647.0</ele>
        <time>2015-08-02T13:30:56Z</time>
      </trkpt>
      <trkpt lat="40.270317" lon="-4.572883">
        <ele>647.0</ele>
        <time>2015-08-02T13:30:57Z</time>
      </trkpt>
      <trkpt lat="40.270317" lon="-4.572883">
        <ele>647.0</ele>
        <time>2015-08-02T13:30:58Z</time>
      </trkpt>
      <trkpt lat="40.270317" lon="-4.572883">
        <ele>646.0</ele>
        <time>2015-08-02T13:30:59Z</time>
      </trkpt>
      <trkpt lat="40.270300" lon="-4.572900">
        <ele>646.0</ele>
        <time>2015-08-02T13:31:00Z</time>
      </trkpt>
      <trkpt lat="40.270300" lon="-4.572900">
        <ele>646.0</ele>
        <time>2015-08-02T13:31:01Z</time>
      </trkpt>
      <trkpt lat="40.270300" lon="-4.572900">
        <ele>646.0</ele>
        <time>2015-08-02T13:31:02Z</time>
      </trkpt>
      <trkpt lat="40.270300" lon="-4.572900">
        <ele>646.0</ele>
        <time>2015-08-02T13:31:03Z</time>
      </trkpt>
      <trkpt lat="40.270300" lon="-4.572900">
        <ele>646.0</ele>
        <time>2015-08-02T13:31:04Z</time>
      </trkpt>
      <trkpt lat="40.270300" lon="-4.572900">
        <ele>647.0</ele>
        <time>2015-08-02T13:31:05Z</time>
      </trkpt>
      <trkpt lat="40.270300" lon="-4.572900">
        <ele>647.0</ele>
        <time>2015-08-02T13:31:06Z</time>
      </trkpt>
      <trkpt lat="40.270300" lon="-4.572917">
        <ele>647.0</ele>
        <time>2015-08-02T13:31:07Z</time>
      </trkpt>
      <trkpt lat="40.270300" lon="-4.572917">
        <ele>647.0</ele>
        <time>2015-08-02T13:31:08Z</time>
      </trkpt>
      <trkpt lat="40.270300" lon="-4.572917">
        <ele>647.0</ele>
        <time>2015-08-02T13:31:09Z</time>
      </trkpt>
      <trkpt lat="40.270300" lon="-4.572917">
        <ele>647.0</ele>
        <time>2015-08-02T13:31:10Z</time>
      </trkpt>
      <trkpt lat="40.270300" lon="-4.572917">
        <ele>647.0</ele>
        <time>2015-08-02T13:31:11Z</time>
      </trkpt>
      <trkpt lat="40.270300" lon="-4.572900">
        <ele>645.0</ele>
        <time>2015-08-02T13:31:12Z</time>
      </trkpt>
      <trkpt lat="40.270300" lon="-4.572900">
        <ele>644.0</ele>
        <time>2015-08-02T13:31:13Z</time>
      </trkpt>
      <trkpt lat="40.270300" lon="-4.572900">
        <ele>644.0</ele>
        <time>2015-08-02T13:31:14Z</time>
      </trkpt>
      <trkpt lat="40.270300" lon="-4.572900">
        <ele>643.0</ele>
        <time>2015-08-02T13:31:15Z</time>
      </trkpt>
      <trkpt lat="40.270300" lon="-4.572900">
        <ele>644.0</ele>
        <time>2015-08-02T13:31:16Z</time>
      </trkpt>
      <trkpt lat="40.270300" lon="-4.572900">
        <ele>644.0</ele>
        <time>2015-08-02T13:31:17Z</time>
      </trkpt>
      <trkpt lat="40.270300" lon="-4.572900">
        <ele>645.0</ele>
        <time>2015-08-02T13:31:18Z</time>
      </trkpt>
      <trkpt lat="40.270300" lon="-4.572883">
        <ele>645.0</ele>
        <time>2015-08-02T13:31:19Z</time>
      </trkpt>
      <trkpt lat="40.270300" lon="-4.572883">
        <ele>646.0</ele>
        <time>2015-08-02T13:31:20Z</time>
      </trkpt>
      <trkpt lat="40.270300" lon="-4.572883">
        <ele>647.0</ele>
        <time>2015-08-02T13:31:21Z</time>
      </trkpt>
      <trkpt lat="40.270300" lon="-4.572883">
        <ele>648.0</ele>
        <time>2015-08-02T13:31:22Z</time>
      </trkpt>
      <trkpt lat="40.270300" lon="-4.572883">
        <ele>648.0</ele>
        <time>2015-08-02T13:31:23Z</time>
      </trkpt>
      <trkpt lat="40.270300" lon="-4.572883">
        <ele>648.0</ele>
        <time>2015-08-02T13:31:24Z</time>
      </trkpt>
      <trkpt lat="40.270300" lon="-4.572883">
        <ele>647.0</ele>
        <time>2015-08-02T13:31:25Z</time>
      </trkpt>
      <trkpt lat="40.270300" lon="-4.572883">
        <ele>647.0</ele>
        <time>2015-08-02T13:31:26Z</time>
      </trkpt>
      <trkpt lat="40.270300" lon="-4.572883">
        <ele>646.0</ele>
        <time>2015-08-02T13:31:27Z</time>
      </trkpt>
      <trkpt lat="40.270300" lon="-4.572883">
        <ele>646.0</ele>
        <time>2015-08-02T13:31:28Z</time>
      </trkpt>
      <trkpt lat="40.270300" lon="-4.572883">
        <ele>646.0</ele>
        <time>2015-08-02T13:31:29Z</time>
      </trkpt>
      <trkpt lat="40.270300" lon="-4.572883">
        <ele>645.0</ele>
        <time>2015-08-02T13:31:30Z</time>
      </trkpt>
      <trkpt lat="40.270300" lon="-4.572883">
        <ele>645.0</ele>
        <time>2015-08-02T13:31:31Z</time>
      </trkpt>
      <trkpt lat="40.270317" lon="-4.572883">
        <ele>644.0</ele>
        <time>2015-08-02T13:31:32Z</time>
      </trkpt>
      <trkpt lat="40.270317" lon="-4.572883">
        <ele>644.0</ele>
        <time>2015-08-02T13:31:33Z</time>
      </trkpt>
      <trkpt lat="40.270317" lon="-4.572883">
        <ele>644.0</ele>
        <time>2015-08-02T13:31:34Z</time>
      </trkpt>
      <trkpt lat="40.270317" lon="-4.572883">
        <ele>643.0</ele>
        <time>2015-08-02T13:31:35Z</time>
      </trkpt>
      <trkpt lat="40.270317" lon="-4.572883">
        <ele>643.0</ele>
        <time>2015-08-02T13:31:36Z</time>
      </trkpt>
      <trkpt lat="40.270317" lon="-4.572883">
        <ele>642.0</ele>
        <time>2015-08-02T13:31:37Z</time>
      </trkpt>
      <trkpt lat="40.270317" lon="-4.572883">
        <ele>642.0</ele>
        <time>2015-08-02T13:31:38Z</time>
      </trkpt>
      <trkpt lat="40.270317" lon="-4.572883">
        <ele>642.0</ele>
        <time>2015-08-02T13:31:39Z</time>
      </trkpt>
      <trkpt lat="40.270317" lon="-4.572883">
        <ele>642.0</ele>
        <time>2015-08-02T13:31:40Z</time>
      </trkpt>
      <trkpt lat="40.270317" lon="-4.572883">
        <ele>643.0</ele>
        <time>2015-08-02T13:31:41Z</time>
      </trkpt>
      <trkpt lat="40.270317" lon="-4.572883">
        <ele>643.0</ele>
        <time>2015-08-02T13:31:42Z</time>
      </trkpt>
      <trkpt lat="40.270317" lon="-4.572883">
        <ele>643.0</ele>
        <time>2015-08-02T13:31:43Z</time>
      </trkpt>
      <trkpt lat="40.270317" lon="-4.572883">
        <ele>643.0</ele>
        <time>2015-08-02T13:31:44Z</time>
      </trkpt>
      <trkpt lat="40.270317" lon="-4.572883">
        <ele>643.0</ele>
        <time>2015-08-02T13:31:45Z</time>
      </trkpt>
      <trkpt lat="40.270317" lon="-4.572883">
        <ele>643.0</ele>
        <time>2015-08-02T13:31:46Z</time>
      </trkpt>
      <trkpt lat="40.270317" lon="-4.572883">
        <ele>643.0</ele>
        <time>2015-08-02T13:31:47Z</time>
      </trkpt>
      <trkpt lat="40.270317" lon="-4.572883">
        <ele>643.0</ele>
        <time>2015-08-02T13:31:48Z</time>
      </trkpt>
      <trkpt lat="40.270333" lon="-4.572883">
        <ele>643.0</ele>
        <time>2015-08-02T13:31:49Z</time>
      </trkpt>
      <trkpt lat="40.270333" lon="-4.572883">
        <ele>643.0</ele>
        <time>2015-08-02T13:31:50Z</time>
      </trkpt>
      <trkpt lat="40.270333" lon="-4.572883">
        <ele>643.0</ele>
        <time>2015-08-02T13:31:51Z</time>
      </trkpt>
      <trkpt lat="40.270333" lon="-4.572900">
        <ele>643.0</ele>
        <time>2015-08-02T13:31:52Z</time>
      </trkpt>
      <trkpt lat="40.270333" lon="-4.572900">
        <ele>642.0</ele>
        <time>2015-08-02T13:31:53Z</time>
      </trkpt>
      <trkpt lat="40.270333" lon="-4.572900">
        <ele>642.0</ele>
        <time>2015-08-02T13:31:54Z</time>
      </trkpt>
      <trkpt lat="40.270333" lon="-4.572900">
        <ele>642.0</ele>
        <time>2015-08-02T13:31:55Z</time>
      </trkpt>
      <trkpt lat="40.270333" lon="-4.572900">
        <ele>642.0</ele>
        <time>2015-08-02T13:31:56Z</time>
      </trkpt>
      <trkpt lat="40.270333" lon="-4.572900">
        <ele>641.0</ele>
        <time>2015-08-02T13:31:57Z</time>
      </trkpt>
      <trkpt lat="40.270333" lon="-4.572900">
        <ele>641.0</ele>
        <time>2015-08-02T13:31:58Z</time>
      </trkpt>
      <trkpt lat="40.270333" lon="-4.572900">
        <ele>642.0</ele>
        <time>2015-08-02T13:31:59Z</time>
      </trkpt>
      <trkpt lat="40.270333" lon="-4.572900">
        <ele>641.0</ele>
        <time>2015-08-02T13:32:00Z</time>
      </trkpt>
      <trkpt lat="40.270333" lon="-4.572900">
        <ele>641.0</ele>
        <time>2015-08-02T13:32:01Z</time>
      </trkpt>
      <trkpt lat="40.270333" lon="-4.572900">
        <ele>641.0</ele>
        <time>2015-08-02T13:32:02Z</time>
      </trkpt>
      <trkpt lat="40.270333" lon="-4.572900">
        <ele>641.0</ele>
        <time>2015-08-02T13:32:03Z</time>
      </trkpt>
      <trkpt lat="40.270333" lon="-4.572900">
        <ele>642.0</ele>
        <time>2015-08-02T13:32:04Z</time>
      </trkpt>
      <trkpt lat="40.270333" lon="-4.572900">
        <ele>642.0</ele>
        <time>2015-08-02T13:32:05Z</time>
      </trkpt>
      <trkpt lat="40.270333" lon="-4.572883">
        <ele>642.0</ele>
        <time>2015-08-02T13:32:06Z</time>
      </trkpt>
      <trkpt lat="40.270333" lon="-4.572883">
        <ele>642.0</ele>
        <time>2015-08-02T13:32:07Z</time>
      </trkpt>
      <trkpt lat="40.270333" lon="-4.572883">
        <ele>642.0</ele>
        <time>2015-08-02T13:32:08Z</time>
      </trkpt>
      <trkpt lat="40.270333" lon="-4.572883">
        <ele>642.0</ele>
        <time>2015-08-02T13:32:09Z</time>
      </trkpt>
      <trkpt lat="40.270333" lon="-4.572883">
        <ele>642.0</ele>
        <time>2015-08-02T13:32:10Z</time>
      </trkpt>
      <trkpt lat="40.270333" lon="-4.572883">
        <ele>643.0</ele>
        <time>2015-08-02T13:32:11Z</time>
      </trkpt>
      <trkpt lat="40.270333" lon="-4.572883">
        <ele>643.0</ele>
        <time>2015-08-02T13:32:12Z</time>
      </trkpt>
      <trkpt lat="40.270333" lon="-4.572883">
        <ele>643.0</ele>
        <time>2015-08-02T13:32:13Z</time>
      </trkpt>
      <trkpt lat="40.270333" lon="-4.572883">
        <ele>643.0</ele>
        <time>2015-08-02T13:32:14Z</time>
      </trkpt>
      <trkpt lat="40.270333" lon="-4.572883">
        <ele>642.0</ele>
        <time>2015-08-02T13:32:15Z</time>
      </trkpt>
      <trkpt lat="40.270333" lon="-4.572900">
        <ele>642.0</ele>
        <time>2015-08-02T13:32:16Z</time>
      </trkpt>
      <trkpt lat="40.270333" lon="-4.572883">
        <ele>642.0</ele>
        <time>2015-08-02T13:32:17Z</time>
      </trkpt>
      <trkpt lat="40.270333" lon="-4.572883">
        <ele>642.0</ele>
        <time>2015-08-02T13:32:18Z</time>
      </trkpt>
      <trkpt lat="40.270333" lon="-4.572883">
        <ele>642.0</ele>
        <time>2015-08-02T13:32:19Z</time>
      </trkpt>
      <trkpt lat="40.270333" lon="-4.572900">
        <ele>642.0</ele>
        <time>2015-08-02T13:32:20Z</time>
      </trkpt>
      <trkpt lat="40.270333" lon="-4.572900">
        <ele>642.0</ele>
        <time>2015-08-02T13:32:21Z</time>
      </trkpt>
      <trkpt lat="40.270350" lon="-4.572900">
        <ele>642.0</ele>
        <time>2015-08-02T13:32:22Z</time>
      </trkpt>
      <trkpt lat="40.270350" lon="-4.572900">
        <ele>642.0</ele>
        <time>2015-08-02T13:32:23Z</time>
      </trkpt>
      <trkpt lat="40.270350" lon="-4.572900">
        <ele>642.0</ele>
        <time>2015-08-02T13:32:24Z</time>
      </trkpt>
      <trkpt lat="40.270350" lon="-4.572900">
        <ele>642.0</ele>
        <time>2015-08-02T13:32:25Z</time>
      </trkpt>
      <trkpt lat="40.270350" lon="-4.572900">
        <ele>641.0</ele>
        <time>2015-08-02T13:32:26Z</time>
      </trkpt>
      <trkpt lat="40.270350" lon="-4.572900">
        <ele>641.0</ele>
        <time>2015-08-02T13:32:27Z</time>
      </trkpt>
      <trkpt lat="40.270350" lon="-4.572900">
        <ele>641.0</ele>
        <time>2015-08-02T13:32:28Z</time>
      </trkpt>
      <trkpt lat="40.270350" lon="-4.572900">
        <ele>641.0</ele>
        <time>2015-08-02T13:32:29Z</time>
      </trkpt>
      <trkpt lat="40.270350" lon="-4.572900">
        <ele>641.0</ele>
        <time>2015-08-02T13:32:30Z</time>
      </trkpt>
      <trkpt lat="40.270350" lon="-4.572900">
        <ele>641.0</ele>
        <time>2015-08-02T13:32:31Z</time>
      </trkpt>
      <trkpt lat="40.270350" lon="-4.572917">
        <ele>641.0</ele>
        <time>2015-08-02T13:32:32Z</time>
      </trkpt>
      <trkpt lat="40.270350" lon="-4.572900">
        <ele>641.0</ele>
        <time>2015-08-02T13:32:33Z</time>
      </trkpt>
      <trkpt lat="40.270350" lon="-4.572917">
        <ele>642.0</ele>
        <time>2015-08-02T13:32:34Z</time>
      </trkpt>
      <trkpt lat="40.270350" lon="-4.572917">
        <ele>641.0</ele>
        <time>2015-08-02T13:32:35Z</time>
      </trkpt>
      <trkpt lat="40.270350" lon="-4.572917">
        <ele>642.0</ele>
        <time>2015-08-02T13:32:36Z</time>
      </trkpt>
      <trkpt lat="40.270350" lon="-4.572900">
        <ele>642.0</ele>
        <time>2015-08-02T13:32:37Z</time>
      </trkpt>
      <trkpt lat="40.270350" lon="-4.572900">
        <ele>642.0</ele>
        <time>2015-08-02T13:32:38Z</time>
      </trkpt>
      <trkpt lat="40.270350" lon="-4.572900">
        <ele>642.0</ele>
        <time>2015-08-02T13:32:39Z</time>
      </trkpt>
      <trkpt lat="40.270367" lon="-4.572900">
        <ele>642.0</ele>
        <time>2015-08-02T13:32:40Z</time>
      </trkpt>
      <trkpt lat="40.270367" lon="-4.572900">
        <ele>643.0</ele>
        <time>2015-08-02T13:32:41Z</time>
      </trkpt>
      <trkpt lat="40.270367" lon="-4.572917">
        <ele>643.0</ele>
        <time>2015-08-02T13:32:42Z</time>
      </trkpt>
      <trkpt lat="40.270367" lon="-4.572917">
        <ele>643.0</ele>
        <time>2015-08-02T13:32:43Z</time>
      </trkpt>
      <trkpt lat="40.270367" lon="-4.572917">
        <ele>643.0</ele>
        <time>2015-08-02T13:32:44Z</time>
      </trkpt>
      <trkpt lat="40.270367" lon="-4.572917">
        <ele>643.0</ele>
        <time>2015-08-02T13:32:45Z</time>
      </trkpt>
      <trkpt lat="40.270367" lon="-4.572917">
        <ele>643.0</ele>
        <time>2015-08-02T13:32:46Z</time>
      </trkpt>
      <trkpt lat="40.270367" lon="-4.572917">
        <ele>643.0</ele>
        <time>2015-08-02T13:32:47Z</time>
      </trkpt>
      <trkpt lat="40.270367" lon="-4.572917">
        <ele>643.0</ele>
        <time>2015-08-02T13:32:48Z</time>
      </trkpt>
      <trkpt lat="40.270367" lon="-4.572917">
        <ele>643.0</ele>
        <time>2015-08-02T13:32:49Z</time>
      </trkpt>
      <trkpt lat="40.270367" lon="-4.572917">
        <ele>643.0</ele>
        <time>2015-08-02T13:32:50Z</time>
      </trkpt>
      <trkpt lat="40.270367" lon="-4.572917">
        <ele>643.0</ele>
        <time>2015-08-02T13:32:51Z</time>
      </trkpt>
      <trkpt lat="40.270367" lon="-4.572917">
        <ele>642.0</ele>
        <time>2015-08-02T13:32:52Z</time>
      </trkpt>
      <trkpt lat="40.270367" lon="-4.572917">
        <ele>643.0</ele>
        <time>2015-08-02T13:32:53Z</time>
      </trkpt>
      <trkpt lat="40.270367" lon="-4.572917">
        <ele>643.0</ele>
        <time>2015-08-02T13:32:54Z</time>
      </trkpt>
      <trkpt lat="40.270350" lon="-4.572917">
        <ele>643.0</ele>
        <time>2015-08-02T13:32:55Z</time>
      </trkpt>
      <trkpt lat="40.270350" lon="-4.572917">
        <ele>642.0</ele>
        <time>2015-08-02T13:32:56Z</time>
      </trkpt>
      <trkpt lat="40.270367" lon="-4.572917">
        <ele>642.0</ele>
        <time>2015-08-02T13:32:57Z</time>
      </trkpt>
      <trkpt lat="40.270367" lon="-4.572917">
        <ele>641.0</ele>
        <time>2015-08-02T13:32:58Z</time>
      </trkpt>
      <trkpt lat="40.270367" lon="-4.572933">
        <ele>642.0</ele>
        <time>2015-08-02T13:32:59Z</time>
      </trkpt>
      <trkpt lat="40.270383" lon="-4.572933">
        <ele>642.0</ele>
        <time>2015-08-02T13:33:00Z</time>
      </trkpt>
      <trkpt lat="40.270383" lon="-4.572933">
        <ele>642.0</ele>
        <time>2015-08-02T13:33:01Z</time>
      </trkpt>
      <trkpt lat="40.270383" lon="-4.572933">
        <ele>642.0</ele>
        <time>2015-08-02T13:33:02Z</time>
      </trkpt>
      <trkpt lat="40.270400" lon="-4.572933">
        <ele>642.0</ele>
        <time>2015-08-02T13:33:03Z</time>
      </trkpt>
      <trkpt lat="40.270400" lon="-4.572933">
        <ele>642.0</ele>
        <time>2015-08-02T13:33:04Z</time>
      </trkpt>
      <trkpt lat="40.270417" lon="-4.572933">
        <ele>642.0</ele>
        <time>2015-08-02T13:33:05Z</time>
      </trkpt>
      <trkpt lat="40.270417" lon="-4.572933">
        <ele>642.0</ele>
        <time>2015-08-02T13:33:06Z</time>
      </trkpt>
      <trkpt lat="40.270433" lon="-4.572950">
        <ele>642.0</ele>
        <time>2015-08-02T13:33:07Z</time>
      </trkpt>
      <trkpt lat="40.270433" lon="-4.572950">
        <ele>642.0</ele>
        <time>2015-08-02T13:33:08Z</time>
      </trkpt>
      <trkpt lat="40.270450" lon="-4.572950">
        <ele>642.0</ele>
        <time>2015-08-02T13:33:09Z</time>
      </trkpt>
      <trkpt lat="40.270450" lon="-4.572950">
        <ele>643.0</ele>
        <time>2015-08-02T13:33:10Z</time>
      </trkpt>
      <trkpt lat="40.270450" lon="-4.572967">
        <ele>642.0</ele>
        <time>2015-08-02T13:33:11Z</time>
      </trkpt>
      <trkpt lat="40.270450" lon="-4.572967">
        <ele>643.0</ele>
        <time>2015-08-02T13:33:12Z</time>
      </trkpt>
      <trkpt lat="40.270467" lon="-4.572983">
        <ele>643.0</ele>
        <time>2015-08-02T13:33:13Z</time>
      </trkpt>
      <trkpt lat="40.270467" lon="-4.572983">
        <ele>642.0</ele>
        <time>2015-08-02T13:33:14Z</time>
      </trkpt>
      <trkpt lat="40.270483" lon="-4.572983">
        <ele>643.0</ele>
        <time>2015-08-02T13:33:15Z</time>
      </trkpt>
      <trkpt lat="40.270500" lon="-4.572983">
        <ele>643.0</ele>
        <time>2015-08-02T13:33:16Z</time>
      </trkpt>
      <trkpt lat="40.270500" lon="-4.572983">
        <ele>642.0</ele>
        <time>2015-08-02T13:33:17Z</time>
      </trkpt>
      <trkpt lat="40.270517" lon="-4.572983">
        <ele>642.0</ele>
        <time>2015-08-02T13:33:18Z</time>
      </trkpt>
      <trkpt lat="40.270517" lon="-4.572983">
        <ele>642.0</ele>
        <time>2015-08-02T13:33:19Z</time>
      </trkpt>
      <trkpt lat="40.270517" lon="-4.572983">
        <ele>642.0</ele>
        <time>2015-08-02T13:33:20Z</time>
      </trkpt>
      <trkpt lat="40.270533" lon="-4.572983">
        <ele>642.0</ele>
        <time>2015-08-02T13:33:21Z</time>
      </trkpt>
      <trkpt lat="40.270550" lon="-4.572983">
        <ele>642.0</ele>
        <time>2015-08-02T13:33:22Z</time>
      </trkpt>
      <trkpt lat="40.270550" lon="-4.572983">
        <ele>642.0</ele>
        <time>2015-08-02T13:33:23Z</time>
      </trkpt>
      <trkpt lat="40.270550" lon="-4.572983">
        <ele>642.0</ele>
        <time>2015-08-02T13:33:24Z</time>
      </trkpt>
      <trkpt lat="40.270550" lon="-4.572983">
        <ele>642.0</ele>
        <time>2015-08-02T13:33:25Z</time>
      </trkpt>
      <trkpt lat="40.270550" lon="-4.572983">
        <ele>642.0</ele>
        <time>2015-08-02T13:33:26Z</time>
      </trkpt>
      <trkpt lat="40.270567" lon="-4.572983">
        <ele>642.0</ele>
        <time>2015-08-02T13:33:27Z</time>
      </trkpt>
      <trkpt lat="40.270567" lon="-4.572983">
        <ele>642.0</ele>
        <time>2015-08-02T13:33:28Z</time>
      </trkpt>
      <trkpt lat="40.270567" lon="-4.572983">
        <ele>642.0</ele>
        <time>2015-08-02T13:33:29Z</time>
      </trkpt>
      <trkpt lat="40.270567" lon="-4.572983">
        <ele>642.0</ele>
        <time>2015-08-02T13:33:30Z</time>
      </trkpt>
      <trkpt lat="40.270567" lon="-4.572983">
        <ele>641.0</ele>
        <time>2015-08-02T13:33:31Z</time>
      </trkpt>
      <trkpt lat="40.270567" lon="-4.572983">
        <ele>642.0</ele>
        <time>2015-08-02T13:33:32Z</time>
      </trkpt>
      <trkpt lat="40.270567" lon="-4.572983">
        <ele>642.0</ele>
        <time>2015-08-02T13:33:33Z</time>
      </trkpt>
      <trkpt lat="40.270567" lon="-4.572983">
        <ele>642.0</ele>
        <time>2015-08-02T13:33:34Z</time>
      </trkpt>
      <trkpt lat="40.270583" lon="-4.572983">
        <ele>642.0</ele>
        <time>2015-08-02T13:33:35Z</time>
      </trkpt>
      <trkpt lat="40.270567" lon="-4.572983">
        <ele>642.0</ele>
        <time>2015-08-02T13:33:36Z</time>
      </trkpt>
      <trkpt lat="40.270567" lon="-4.572983">
        <ele>643.0</ele>
        <time>2015-08-02T13:33:37Z</time>
      </trkpt>
    </trkseg>
  </trk>
</gpx>
